<?xml version="1.0" encoding="UTF-8" standalone="no" ?>
<gpx xmlns="http://www.topografix.com/GPX/1/1" xmlns:xsi="http://www.w3.org/2001/XMLSchema-instance" xsi:schemaLocation="http://www.topografix.com/GPX/1/1 http://www.topografix.com/GPX/1/1/gpx.xsd" version="1.1" creator="VisuGPX - https://www.visugpx.com">
  <metadata>
    <name>Depuis le moulin de la Pipe</name>
  </metadata>
  <trk>
    <name><![CDATA[Depuis le moulin de la Pipe_1]]></name>
    <trkseg>
      <trkpt lat="44.83851" lon="5.18812">
        <ele>574</ele>
        <time>2024-07-01T07:53:13Z</time>
      </trkpt>
      <trkpt lat="44.83847" lon="5.18816">
        <ele>574.2</ele>
        <time>2024-07-01T07:53:14Z</time>
      </trkpt>
      <trkpt lat="44.83846" lon="5.18817">
        <ele>574.3</ele>
        <time>2024-07-01T07:53:15Z</time>
      </trkpt>
      <trkpt lat="44.83846" lon="5.18819">
        <ele>574.4</ele>
        <time>2024-07-01T07:53:16Z</time>
      </trkpt>
      <trkpt lat="44.83846" lon="5.18821">
        <ele>574.4</ele>
        <time>2024-07-01T07:53:17Z</time>
      </trkpt>
      <trkpt lat="44.83846" lon="5.18822">
        <ele>574.5</ele>
        <time>2024-07-01T07:53:18Z</time>
      </trkpt>
      <trkpt lat="44.83846" lon="5.18823">
        <ele>574.5</ele>
        <time>2024-07-01T07:53:19Z</time>
      </trkpt>
      <trkpt lat="44.83844" lon="5.18822">
        <ele>574.6</ele>
        <time>2024-07-01T07:53:20Z</time>
      </trkpt>
      <trkpt lat="44.83843" lon="5.18822">
        <ele>574.7</ele>
        <time>2024-07-01T07:53:21Z</time>
      </trkpt>
      <trkpt lat="44.8384" lon="5.18822">
        <ele>574.8</ele>
        <time>2024-07-01T07:53:22Z</time>
      </trkpt>
      <trkpt lat="44.83839" lon="5.18823">
        <ele>574.9</ele>
        <time>2024-07-01T07:53:23Z</time>
      </trkpt>
      <trkpt lat="44.83838" lon="5.18823">
        <ele>575</ele>
        <time>2024-07-01T07:53:24Z</time>
      </trkpt>
      <trkpt lat="44.83837" lon="5.18824">
        <ele>575</ele>
        <time>2024-07-01T07:53:25Z</time>
      </trkpt>
      <trkpt lat="44.83837" lon="5.18824">
        <ele>575</ele>
        <time>2024-07-01T07:53:26Z</time>
      </trkpt>
      <trkpt lat="44.83836" lon="5.18824">
        <ele>575.1</ele>
        <time>2024-07-01T07:53:27Z</time>
      </trkpt>
      <trkpt lat="44.83836" lon="5.18825">
        <ele>575.1</ele>
        <time>2024-07-01T07:53:28Z</time>
      </trkpt>
      <trkpt lat="44.83837" lon="5.18825">
        <ele>575.1</ele>
        <time>2024-07-01T07:53:30Z</time>
      </trkpt>
      <trkpt lat="44.83837" lon="5.18825">
        <ele>575.2</ele>
        <time>2024-07-01T07:53:31Z</time>
      </trkpt>
      <trkpt lat="44.83838" lon="5.18825">
        <ele>575.2</ele>
        <time>2024-07-01T07:53:32Z</time>
      </trkpt>
      <trkpt lat="44.83838" lon="5.18826">
        <ele>575.2</ele>
        <time>2024-07-01T07:53:33Z</time>
      </trkpt>
      <trkpt lat="44.83838" lon="5.18826">
        <ele>575.2</ele>
        <time>2024-07-01T07:53:34Z</time>
      </trkpt>
      <trkpt lat="44.83838" lon="5.18827">
        <ele>575.3</ele>
        <time>2024-07-01T07:53:35Z</time>
      </trkpt>
      <trkpt lat="44.83838" lon="5.18827">
        <ele>575.3</ele>
        <time>2024-07-01T07:53:36Z</time>
      </trkpt>
      <trkpt lat="44.83839" lon="5.18827">
        <ele>575.3</ele>
        <time>2024-07-01T07:53:37Z</time>
      </trkpt>
      <trkpt lat="44.83839" lon="5.18829">
        <ele>575.4</ele>
        <time>2024-07-01T07:53:38Z</time>
      </trkpt>
      <trkpt lat="44.83839" lon="5.18831">
        <ele>575.4</ele>
        <time>2024-07-01T07:53:39Z</time>
      </trkpt>
      <trkpt lat="44.8384" lon="5.18833">
        <ele>575.6</ele>
        <time>2024-07-01T07:53:41Z</time>
      </trkpt>
      <trkpt lat="44.83842" lon="5.18837">
        <ele>575.7</ele>
        <time>2024-07-01T07:53:42Z</time>
      </trkpt>
      <trkpt lat="44.83843" lon="5.18838">
        <ele>575.8</ele>
        <time>2024-07-01T07:53:43Z</time>
      </trkpt>
      <trkpt lat="44.83843" lon="5.18838">
        <ele>575.8</ele>
        <time>2024-07-01T07:53:44Z</time>
      </trkpt>
      <trkpt lat="44.83844" lon="5.1884">
        <ele>575.9</ele>
        <time>2024-07-01T07:53:45Z</time>
      </trkpt>
      <trkpt lat="44.83845" lon="5.18841">
        <ele>576</ele>
        <time>2024-07-01T07:53:46Z</time>
      </trkpt>
      <trkpt lat="44.83847" lon="5.18845">
        <ele>576.2</ele>
        <time>2024-07-01T07:53:47Z</time>
      </trkpt>
      <trkpt lat="44.83847" lon="5.18847">
        <ele>576.3</ele>
        <time>2024-07-01T07:53:49Z</time>
      </trkpt>
      <trkpt lat="44.83848" lon="5.18848">
        <ele>576.3</ele>
        <time>2024-07-01T07:53:50Z</time>
      </trkpt>
      <trkpt lat="44.83848" lon="5.1885">
        <ele>576.4</ele>
        <time>2024-07-01T07:53:51Z</time>
      </trkpt>
      <trkpt lat="44.83848" lon="5.18851">
        <ele>576.5</ele>
        <time>2024-07-01T07:53:52Z</time>
      </trkpt>
      <trkpt lat="44.83848" lon="5.18852">
        <ele>576.5</ele>
        <time>2024-07-01T07:53:53Z</time>
      </trkpt>
      <trkpt lat="44.83849" lon="5.18854">
        <ele>576.6</ele>
        <time>2024-07-01T07:53:54Z</time>
      </trkpt>
      <trkpt lat="44.83849" lon="5.18856">
        <ele>576.7</ele>
        <time>2024-07-01T07:53:55Z</time>
      </trkpt>
      <trkpt lat="44.83849" lon="5.1886">
        <ele>576.9</ele>
        <time>2024-07-01T07:53:56Z</time>
      </trkpt>
      <trkpt lat="44.8385" lon="5.18858">
        <ele>577</ele>
        <time>2024-07-01T07:53:57Z</time>
      </trkpt>
      <trkpt lat="44.83848" lon="5.18863">
        <ele>577.2</ele>
        <time>2024-07-01T07:53:59Z</time>
      </trkpt>
      <trkpt lat="44.83847" lon="5.18866">
        <ele>577.3</ele>
        <time>2024-07-01T07:54:00Z</time>
      </trkpt>
      <trkpt lat="44.83846" lon="5.18868">
        <ele>577.4</ele>
        <time>2024-07-01T07:54:01Z</time>
      </trkpt>
      <trkpt lat="44.83846" lon="5.18869">
        <ele>577.5</ele>
        <time>2024-07-01T07:54:02Z</time>
      </trkpt>
      <trkpt lat="44.83845" lon="5.18872">
        <ele>577.6</ele>
        <time>2024-07-01T07:54:03Z</time>
      </trkpt>
      <trkpt lat="44.83845" lon="5.18873">
        <ele>577.7</ele>
        <time>2024-07-01T07:54:04Z</time>
      </trkpt>
      <trkpt lat="44.83845" lon="5.18875">
        <ele>577.7</ele>
        <time>2024-07-01T07:54:05Z</time>
      </trkpt>
      <trkpt lat="44.83845" lon="5.18876">
        <ele>577.8</ele>
        <time>2024-07-01T07:54:06Z</time>
      </trkpt>
      <trkpt lat="44.83846" lon="5.1888">
        <ele>578</ele>
        <time>2024-07-01T07:54:07Z</time>
      </trkpt>
      <trkpt lat="44.83846" lon="5.18882">
        <ele>578.1</ele>
        <time>2024-07-01T07:54:08Z</time>
      </trkpt>
      <trkpt lat="44.83846" lon="5.18883">
        <ele>578.1</ele>
        <time>2024-07-01T07:54:09Z</time>
      </trkpt>
      <trkpt lat="44.83847" lon="5.18886">
        <ele>578.3</ele>
        <time>2024-07-01T07:54:10Z</time>
      </trkpt>
      <trkpt lat="44.83849" lon="5.18889">
        <ele>578.4</ele>
        <time>2024-07-01T07:54:12Z</time>
      </trkpt>
      <trkpt lat="44.8385" lon="5.1889">
        <ele>578.5</ele>
        <time>2024-07-01T07:54:13Z</time>
      </trkpt>
      <trkpt lat="44.83851" lon="5.18891">
        <ele>578.6</ele>
        <time>2024-07-01T07:54:14Z</time>
      </trkpt>
      <trkpt lat="44.83857" lon="5.18888">
        <ele>579</ele>
        <time>2024-07-01T07:54:15Z</time>
      </trkpt>
      <trkpt lat="44.83859" lon="5.18888">
        <ele>579.1</ele>
        <time>2024-07-01T07:54:17Z</time>
      </trkpt>
      <trkpt lat="44.8386" lon="5.18888">
        <ele>579.1</ele>
        <time>2024-07-01T07:54:18Z</time>
      </trkpt>
      <trkpt lat="44.83861" lon="5.18888">
        <ele>579.2</ele>
        <time>2024-07-01T07:54:19Z</time>
      </trkpt>
      <trkpt lat="44.83862" lon="5.18889">
        <ele>579.3</ele>
        <time>2024-07-01T07:54:20Z</time>
      </trkpt>
      <trkpt lat="44.83864" lon="5.1889">
        <ele>579.4</ele>
        <time>2024-07-01T07:54:21Z</time>
      </trkpt>
      <trkpt lat="44.83865" lon="5.1889">
        <ele>579.5</ele>
        <time>2024-07-01T07:54:23Z</time>
      </trkpt>
      <trkpt lat="44.83866" lon="5.18891">
        <ele>579.5</ele>
        <time>2024-07-01T07:54:24Z</time>
      </trkpt>
      <trkpt lat="44.83867" lon="5.18891">
        <ele>579.6</ele>
        <time>2024-07-01T07:54:25Z</time>
      </trkpt>
      <trkpt lat="44.83868" lon="5.18892">
        <ele>579.7</ele>
        <time>2024-07-01T07:54:26Z</time>
      </trkpt>
      <trkpt lat="44.83869" lon="5.18893">
        <ele>579.7</ele>
        <time>2024-07-01T07:54:27Z</time>
      </trkpt>
      <trkpt lat="44.83869" lon="5.18893">
        <ele>579.8</ele>
        <time>2024-07-01T07:54:28Z</time>
      </trkpt>
      <trkpt lat="44.8387" lon="5.18893">
        <ele>579.8</ele>
        <time>2024-07-01T07:54:29Z</time>
      </trkpt>
      <trkpt lat="44.83873" lon="5.18892">
        <ele>580</ele>
        <time>2024-07-01T07:54:30Z</time>
      </trkpt>
      <trkpt lat="44.83876" lon="5.1889">
        <ele>580.2</ele>
        <time>2024-07-01T07:54:32Z</time>
      </trkpt>
      <trkpt lat="44.83877" lon="5.18889">
        <ele>580.2</ele>
        <time>2024-07-01T07:54:33Z</time>
      </trkpt>
      <trkpt lat="44.83878" lon="5.18887">
        <ele>580.3</ele>
        <time>2024-07-01T07:54:34Z</time>
      </trkpt>
      <trkpt lat="44.83879" lon="5.18887">
        <ele>580.4</ele>
        <time>2024-07-01T07:54:35Z</time>
      </trkpt>
      <trkpt lat="44.83881" lon="5.18886">
        <ele>580.5</ele>
        <time>2024-07-01T07:54:36Z</time>
      </trkpt>
      <trkpt lat="44.83882" lon="5.18884">
        <ele>580.6</ele>
        <time>2024-07-01T07:54:37Z</time>
      </trkpt>
      <trkpt lat="44.83883" lon="5.18883">
        <ele>580.7</ele>
        <time>2024-07-01T07:54:38Z</time>
      </trkpt>
      <trkpt lat="44.83884" lon="5.18881">
        <ele>580.8</ele>
        <time>2024-07-01T07:54:39Z</time>
      </trkpt>
      <trkpt lat="44.83885" lon="5.1888">
        <ele>580.9</ele>
        <time>2024-07-01T07:54:40Z</time>
      </trkpt>
      <trkpt lat="44.83886" lon="5.18878">
        <ele>580.9</ele>
        <time>2024-07-01T07:54:41Z</time>
      </trkpt>
      <trkpt lat="44.83887" lon="5.18876">
        <ele>581</ele>
        <time>2024-07-01T07:54:42Z</time>
      </trkpt>
      <trkpt lat="44.83888" lon="5.18874">
        <ele>581.1</ele>
        <time>2024-07-01T07:54:43Z</time>
      </trkpt>
      <trkpt lat="44.83888" lon="5.18872">
        <ele>581.2</ele>
        <time>2024-07-01T07:54:44Z</time>
      </trkpt>
      <trkpt lat="44.8389" lon="5.18869">
        <ele>581.4</ele>
        <time>2024-07-01T07:54:45Z</time>
      </trkpt>
      <trkpt lat="44.83891" lon="5.18868">
        <ele>581.4</ele>
        <time>2024-07-01T07:54:47Z</time>
      </trkpt>
      <trkpt lat="44.83892" lon="5.18866">
        <ele>581.5</ele>
        <time>2024-07-01T07:54:48Z</time>
      </trkpt>
      <trkpt lat="44.83894" lon="5.18864">
        <ele>581.6</ele>
        <time>2024-07-01T07:54:49Z</time>
      </trkpt>
      <trkpt lat="44.83894" lon="5.18863">
        <ele>581.7</ele>
        <time>2024-07-01T07:54:50Z</time>
      </trkpt>
      <trkpt lat="44.83895" lon="5.18862">
        <ele>581.7</ele>
        <time>2024-07-01T07:54:51Z</time>
      </trkpt>
      <trkpt lat="44.83896" lon="5.18861">
        <ele>581.8</ele>
        <time>2024-07-01T07:54:52Z</time>
      </trkpt>
      <trkpt lat="44.83897" lon="5.18861">
        <ele>581.9</ele>
        <time>2024-07-01T07:54:53Z</time>
      </trkpt>
      <trkpt lat="44.83898" lon="5.1886">
        <ele>581.9</ele>
        <time>2024-07-01T07:54:54Z</time>
      </trkpt>
      <trkpt lat="44.839" lon="5.1886">
        <ele>582.1</ele>
        <time>2024-07-01T07:54:55Z</time>
      </trkpt>
      <trkpt lat="44.83902" lon="5.1886">
        <ele>582.1</ele>
        <time>2024-07-01T07:54:57Z</time>
      </trkpt>
      <trkpt lat="44.83903" lon="5.18861">
        <ele>582.2</ele>
        <time>2024-07-01T07:54:58Z</time>
      </trkpt>
      <trkpt lat="44.83904" lon="5.18862">
        <ele>582.3</ele>
        <time>2024-07-01T07:54:59Z</time>
      </trkpt>
      <trkpt lat="44.83907" lon="5.18862">
        <ele>582.5</ele>
        <time>2024-07-01T07:55:00Z</time>
      </trkpt>
      <trkpt lat="44.83908" lon="5.18862">
        <ele>582.5</ele>
        <time>2024-07-01T07:55:01Z</time>
      </trkpt>
      <trkpt lat="44.83909" lon="5.18861">
        <ele>582.6</ele>
        <time>2024-07-01T07:55:03Z</time>
      </trkpt>
      <trkpt lat="44.8391" lon="5.1886">
        <ele>582.7</ele>
        <time>2024-07-01T07:55:04Z</time>
      </trkpt>
      <trkpt lat="44.83911" lon="5.18859">
        <ele>582.8</ele>
        <time>2024-07-01T07:55:05Z</time>
      </trkpt>
      <trkpt lat="44.83913" lon="5.18859">
        <ele>582.8</ele>
        <time>2024-07-01T07:55:06Z</time>
      </trkpt>
      <trkpt lat="44.83914" lon="5.18859">
        <ele>582.9</ele>
        <time>2024-07-01T07:55:07Z</time>
      </trkpt>
      <trkpt lat="44.83914" lon="5.18857">
        <ele>583</ele>
        <time>2024-07-01T07:55:08Z</time>
      </trkpt>
      <trkpt lat="44.83916" lon="5.18856">
        <ele>583.1</ele>
        <time>2024-07-01T07:55:09Z</time>
      </trkpt>
      <trkpt lat="44.83916" lon="5.18856">
        <ele>583.1</ele>
        <time>2024-07-01T07:55:10Z</time>
      </trkpt>
      <trkpt lat="44.83917" lon="5.18856">
        <ele>583.2</ele>
        <time>2024-07-01T07:55:11Z</time>
      </trkpt>
      <trkpt lat="44.83919" lon="5.18858">
        <ele>583.3</ele>
        <time>2024-07-01T07:55:13Z</time>
      </trkpt>
      <trkpt lat="44.8392" lon="5.18859">
        <ele>583.4</ele>
        <time>2024-07-01T07:55:14Z</time>
      </trkpt>
      <trkpt lat="44.8392" lon="5.1886">
        <ele>583.5</ele>
        <time>2024-07-01T07:55:15Z</time>
      </trkpt>
      <trkpt lat="44.83921" lon="5.18861">
        <ele>583.6</ele>
        <time>2024-07-01T07:55:16Z</time>
      </trkpt>
      <trkpt lat="44.83923" lon="5.18863">
        <ele>583.7</ele>
        <time>2024-07-01T07:55:17Z</time>
      </trkpt>
      <trkpt lat="44.83923" lon="5.18864">
        <ele>583.8</ele>
        <time>2024-07-01T07:55:18Z</time>
      </trkpt>
      <trkpt lat="44.83924" lon="5.18865">
        <ele>583.9</ele>
        <time>2024-07-01T07:55:19Z</time>
      </trkpt>
      <trkpt lat="44.83925" lon="5.18866">
        <ele>584</ele>
        <time>2024-07-01T07:55:20Z</time>
      </trkpt>
      <trkpt lat="44.83927" lon="5.18866">
        <ele>584.2</ele>
        <time>2024-07-01T07:55:21Z</time>
      </trkpt>
      <trkpt lat="44.83928" lon="5.18866">
        <ele>584.2</ele>
        <time>2024-07-01T07:55:22Z</time>
      </trkpt>
      <trkpt lat="44.83929" lon="5.18866">
        <ele>584.3</ele>
        <time>2024-07-01T07:55:23Z</time>
      </trkpt>
      <trkpt lat="44.83932" lon="5.18865">
        <ele>584.6</ele>
        <time>2024-07-01T07:55:24Z</time>
      </trkpt>
      <trkpt lat="44.83933" lon="5.18865">
        <ele>584.7</ele>
        <time>2024-07-01T07:55:26Z</time>
      </trkpt>
      <trkpt lat="44.83934" lon="5.18865">
        <ele>584.8</ele>
        <time>2024-07-01T07:55:27Z</time>
      </trkpt>
      <trkpt lat="44.83937" lon="5.18867">
        <ele>585.1</ele>
        <time>2024-07-01T07:55:28Z</time>
      </trkpt>
      <trkpt lat="44.83938" lon="5.18868">
        <ele>585.2</ele>
        <time>2024-07-01T07:55:30Z</time>
      </trkpt>
      <trkpt lat="44.83939" lon="5.18869">
        <ele>585.3</ele>
        <time>2024-07-01T07:55:31Z</time>
      </trkpt>
      <trkpt lat="44.83942" lon="5.1887">
        <ele>585.6</ele>
        <time>2024-07-01T07:55:32Z</time>
      </trkpt>
      <trkpt lat="44.83944" lon="5.1887">
        <ele>585.7</ele>
        <time>2024-07-01T07:55:34Z</time>
      </trkpt>
      <trkpt lat="44.83945" lon="5.1887">
        <ele>585.9</ele>
        <time>2024-07-01T07:55:35Z</time>
      </trkpt>
      <trkpt lat="44.83948" lon="5.18869">
        <ele>586.1</ele>
        <time>2024-07-01T07:55:36Z</time>
      </trkpt>
      <trkpt lat="44.83949" lon="5.18868">
        <ele>586.2</ele>
        <time>2024-07-01T07:55:37Z</time>
      </trkpt>
      <trkpt lat="44.8395" lon="5.18868">
        <ele>586.3</ele>
        <time>2024-07-01T07:55:38Z</time>
      </trkpt>
      <trkpt lat="44.83951" lon="5.18868">
        <ele>586.4</ele>
        <time>2024-07-01T07:55:39Z</time>
      </trkpt>
      <trkpt lat="44.83953" lon="5.18868">
        <ele>586.6</ele>
        <time>2024-07-01T07:55:40Z</time>
      </trkpt>
      <trkpt lat="44.83954" lon="5.18869">
        <ele>586.7</ele>
        <time>2024-07-01T07:55:41Z</time>
      </trkpt>
      <trkpt lat="44.83957" lon="5.18868">
        <ele>586.9</ele>
        <time>2024-07-01T07:55:42Z</time>
      </trkpt>
      <trkpt lat="44.83958" lon="5.18868">
        <ele>587</ele>
        <time>2024-07-01T07:55:44Z</time>
      </trkpt>
      <trkpt lat="44.83959" lon="5.18868">
        <ele>587.1</ele>
        <time>2024-07-01T07:55:45Z</time>
      </trkpt>
      <trkpt lat="44.83961" lon="5.18868">
        <ele>587.3</ele>
        <time>2024-07-01T07:55:46Z</time>
      </trkpt>
      <trkpt lat="44.83963" lon="5.18869">
        <ele>587.4</ele>
        <time>2024-07-01T07:55:48Z</time>
      </trkpt>
      <trkpt lat="44.83964" lon="5.18869">
        <ele>587.5</ele>
        <time>2024-07-01T07:55:49Z</time>
      </trkpt>
      <trkpt lat="44.83968" lon="5.1887">
        <ele>587.7</ele>
        <time>2024-07-01T07:55:50Z</time>
      </trkpt>
      <trkpt lat="44.83969" lon="5.18871">
        <ele>587.8</ele>
        <time>2024-07-01T07:55:52Z</time>
      </trkpt>
      <trkpt lat="44.8397" lon="5.18872">
        <ele>587.9</ele>
        <time>2024-07-01T07:55:53Z</time>
      </trkpt>
      <trkpt lat="44.83971" lon="5.18872">
        <ele>588</ele>
        <time>2024-07-01T07:55:54Z</time>
      </trkpt>
      <trkpt lat="44.83973" lon="5.18873">
        <ele>588</ele>
        <time>2024-07-01T07:55:56Z</time>
      </trkpt>
      <trkpt lat="44.83974" lon="5.18874">
        <ele>588.1</ele>
        <time>2024-07-01T07:55:57Z</time>
      </trkpt>
      <trkpt lat="44.83975" lon="5.18874">
        <ele>588.2</ele>
        <time>2024-07-01T07:55:58Z</time>
      </trkpt>
      <trkpt lat="44.83977" lon="5.18876">
        <ele>588.3</ele>
        <time>2024-07-01T07:56:00Z</time>
      </trkpt>
      <trkpt lat="44.8398" lon="5.18879">
        <ele>588.4</ele>
        <time>2024-07-01T07:56:01Z</time>
      </trkpt>
      <trkpt lat="44.83983" lon="5.18883">
        <ele>588.6</ele>
        <time>2024-07-01T07:56:02Z</time>
      </trkpt>
      <trkpt lat="44.83986" lon="5.18886">
        <ele>588.7</ele>
        <time>2024-07-01T07:56:04Z</time>
      </trkpt>
      <trkpt lat="44.83986" lon="5.18887">
        <ele>588.8</ele>
        <time>2024-07-01T07:56:05Z</time>
      </trkpt>
      <trkpt lat="44.83988" lon="5.18887">
        <ele>588.8</ele>
        <time>2024-07-01T07:56:06Z</time>
      </trkpt>
      <trkpt lat="44.8399" lon="5.18888">
        <ele>588.9</ele>
        <time>2024-07-01T07:56:07Z</time>
      </trkpt>
      <trkpt lat="44.83992" lon="5.1889">
        <ele>588.9</ele>
        <time>2024-07-01T07:56:09Z</time>
      </trkpt>
      <trkpt lat="44.83993" lon="5.1889">
        <ele>588.9</ele>
        <time>2024-07-01T07:56:10Z</time>
      </trkpt>
      <trkpt lat="44.83995" lon="5.18892">
        <ele>589</ele>
        <time>2024-07-01T07:56:11Z</time>
      </trkpt>
      <trkpt lat="44.83997" lon="5.18893">
        <ele>589</ele>
        <time>2024-07-01T07:56:13Z</time>
      </trkpt>
      <trkpt lat="44.83998" lon="5.18894">
        <ele>589.1</ele>
        <time>2024-07-01T07:56:14Z</time>
      </trkpt>
      <trkpt lat="44.83999" lon="5.18894">
        <ele>589.1</ele>
        <time>2024-07-01T07:56:15Z</time>
      </trkpt>
      <trkpt lat="44.84001" lon="5.18895">
        <ele>589.2</ele>
        <time>2024-07-01T07:56:16Z</time>
      </trkpt>
      <trkpt lat="44.84002" lon="5.18896">
        <ele>589.2</ele>
        <time>2024-07-01T07:56:17Z</time>
      </trkpt>
      <trkpt lat="44.84003" lon="5.18898">
        <ele>589.2</ele>
        <time>2024-07-01T07:56:18Z</time>
      </trkpt>
      <trkpt lat="44.84004" lon="5.18899">
        <ele>589.2</ele>
        <time>2024-07-01T07:56:19Z</time>
      </trkpt>
      <trkpt lat="44.84005" lon="5.189">
        <ele>589.3</ele>
        <time>2024-07-01T07:56:20Z</time>
      </trkpt>
      <trkpt lat="44.84006" lon="5.18901">
        <ele>589.3</ele>
        <time>2024-07-01T07:56:21Z</time>
      </trkpt>
      <trkpt lat="44.84007" lon="5.18903">
        <ele>589.3</ele>
        <time>2024-07-01T07:56:22Z</time>
      </trkpt>
      <trkpt lat="44.84008" lon="5.18904">
        <ele>589.3</ele>
        <time>2024-07-01T07:56:23Z</time>
      </trkpt>
      <trkpt lat="44.84009" lon="5.18906">
        <ele>589.4</ele>
        <time>2024-07-01T07:56:24Z</time>
      </trkpt>
      <trkpt lat="44.8401" lon="5.18907">
        <ele>589.4</ele>
        <time>2024-07-01T07:56:25Z</time>
      </trkpt>
      <trkpt lat="44.84011" lon="5.18909">
        <ele>589.4</ele>
        <time>2024-07-01T07:56:26Z</time>
      </trkpt>
      <trkpt lat="44.84011" lon="5.18911">
        <ele>589.4</ele>
        <time>2024-07-01T07:56:28Z</time>
      </trkpt>
      <trkpt lat="44.84012" lon="5.18914">
        <ele>589.5</ele>
        <time>2024-07-01T07:56:29Z</time>
      </trkpt>
      <trkpt lat="44.84013" lon="5.18915">
        <ele>589.5</ele>
        <time>2024-07-01T07:56:30Z</time>
      </trkpt>
      <trkpt lat="44.84013" lon="5.18917">
        <ele>589.5</ele>
        <time>2024-07-01T07:56:31Z</time>
      </trkpt>
      <trkpt lat="44.84014" lon="5.18919">
        <ele>589.6</ele>
        <time>2024-07-01T07:56:32Z</time>
      </trkpt>
      <trkpt lat="44.84014" lon="5.18922">
        <ele>589.6</ele>
        <time>2024-07-01T07:56:33Z</time>
      </trkpt>
      <trkpt lat="44.84013" lon="5.18924">
        <ele>589.6</ele>
        <time>2024-07-01T07:56:34Z</time>
      </trkpt>
      <trkpt lat="44.84014" lon="5.18925">
        <ele>589.6</ele>
        <time>2024-07-01T07:56:35Z</time>
      </trkpt>
      <trkpt lat="44.84014" lon="5.18927">
        <ele>589.7</ele>
        <time>2024-07-01T07:56:36Z</time>
      </trkpt>
      <trkpt lat="44.84015" lon="5.18928">
        <ele>589.7</ele>
        <time>2024-07-01T07:56:37Z</time>
      </trkpt>
      <trkpt lat="44.84015" lon="5.1893">
        <ele>589.7</ele>
        <time>2024-07-01T07:56:38Z</time>
      </trkpt>
      <trkpt lat="44.84016" lon="5.18931">
        <ele>589.7</ele>
        <time>2024-07-01T07:56:39Z</time>
      </trkpt>
      <trkpt lat="44.84017" lon="5.18932">
        <ele>589.7</ele>
        <time>2024-07-01T07:56:40Z</time>
      </trkpt>
      <trkpt lat="44.84018" lon="5.18933">
        <ele>589.8</ele>
        <time>2024-07-01T07:56:41Z</time>
      </trkpt>
      <trkpt lat="44.8402" lon="5.18935">
        <ele>589.8</ele>
        <time>2024-07-01T07:56:42Z</time>
      </trkpt>
      <trkpt lat="44.84021" lon="5.18936">
        <ele>589.8</ele>
        <time>2024-07-01T07:56:44Z</time>
      </trkpt>
      <trkpt lat="44.84021" lon="5.18937">
        <ele>589.8</ele>
        <time>2024-07-01T07:56:45Z</time>
      </trkpt>
      <trkpt lat="44.84022" lon="5.18938">
        <ele>589.8</ele>
        <time>2024-07-01T07:56:46Z</time>
      </trkpt>
      <trkpt lat="44.84023" lon="5.18939">
        <ele>589.9</ele>
        <time>2024-07-01T07:56:47Z</time>
      </trkpt>
      <trkpt lat="44.84024" lon="5.18941">
        <ele>589.9</ele>
        <time>2024-07-01T07:56:48Z</time>
      </trkpt>
      <trkpt lat="44.84024" lon="5.18942">
        <ele>589.9</ele>
        <time>2024-07-01T07:56:49Z</time>
      </trkpt>
      <trkpt lat="44.84025" lon="5.18943">
        <ele>589.9</ele>
        <time>2024-07-01T07:56:50Z</time>
      </trkpt>
      <trkpt lat="44.84026" lon="5.18944">
        <ele>589.9</ele>
        <time>2024-07-01T07:56:51Z</time>
      </trkpt>
      <trkpt lat="44.84028" lon="5.18946">
        <ele>590</ele>
        <time>2024-07-01T07:56:52Z</time>
      </trkpt>
      <trkpt lat="44.84028" lon="5.18947">
        <ele>590</ele>
        <time>2024-07-01T07:56:54Z</time>
      </trkpt>
      <trkpt lat="44.84029" lon="5.18947">
        <ele>590</ele>
        <time>2024-07-01T07:56:55Z</time>
      </trkpt>
      <trkpt lat="44.8403" lon="5.18947">
        <ele>590</ele>
        <time>2024-07-01T07:56:56Z</time>
      </trkpt>
      <trkpt lat="44.84031" lon="5.18948">
        <ele>590</ele>
        <time>2024-07-01T07:56:57Z</time>
      </trkpt>
      <trkpt lat="44.84034" lon="5.1895">
        <ele>590.1</ele>
        <time>2024-07-01T07:56:58Z</time>
      </trkpt>
      <trkpt lat="44.84035" lon="5.1895">
        <ele>590.1</ele>
        <time>2024-07-01T07:57:00Z</time>
      </trkpt>
      <trkpt lat="44.84036" lon="5.1895">
        <ele>590.1</ele>
        <time>2024-07-01T07:57:01Z</time>
      </trkpt>
      <trkpt lat="44.84037" lon="5.18951">
        <ele>590.1</ele>
        <time>2024-07-01T07:57:02Z</time>
      </trkpt>
      <trkpt lat="44.84038" lon="5.18951">
        <ele>590.1</ele>
        <time>2024-07-01T07:57:03Z</time>
      </trkpt>
      <trkpt lat="44.84039" lon="5.18951">
        <ele>590.1</ele>
        <time>2024-07-01T07:57:04Z</time>
      </trkpt>
      <trkpt lat="44.8404" lon="5.18951">
        <ele>590.2</ele>
        <time>2024-07-01T07:57:05Z</time>
      </trkpt>
      <trkpt lat="44.8404" lon="5.18952">
        <ele>590.2</ele>
        <time>2024-07-01T07:57:06Z</time>
      </trkpt>
      <trkpt lat="44.84041" lon="5.18953">
        <ele>590.2</ele>
        <time>2024-07-01T07:57:07Z</time>
      </trkpt>
      <trkpt lat="44.84042" lon="5.18953">
        <ele>590.2</ele>
        <time>2024-07-01T07:57:08Z</time>
      </trkpt>
      <trkpt lat="44.84044" lon="5.18954">
        <ele>590.2</ele>
        <time>2024-07-01T07:57:09Z</time>
      </trkpt>
      <trkpt lat="44.84045" lon="5.18954">
        <ele>590.2</ele>
        <time>2024-07-01T07:57:11Z</time>
      </trkpt>
      <trkpt lat="44.84046" lon="5.18955">
        <ele>590.3</ele>
        <time>2024-07-01T07:57:12Z</time>
      </trkpt>
      <trkpt lat="44.84047" lon="5.18955">
        <ele>590.3</ele>
        <time>2024-07-01T07:57:13Z</time>
      </trkpt>
      <trkpt lat="44.84049" lon="5.18956">
        <ele>590.3</ele>
        <time>2024-07-01T07:57:14Z</time>
      </trkpt>
      <trkpt lat="44.8405" lon="5.18957">
        <ele>590.3</ele>
        <time>2024-07-01T07:57:16Z</time>
      </trkpt>
      <trkpt lat="44.84051" lon="5.18957">
        <ele>590.4</ele>
        <time>2024-07-01T07:57:17Z</time>
      </trkpt>
      <trkpt lat="44.84051" lon="5.18956">
        <ele>590.4</ele>
        <time>2024-07-01T07:57:18Z</time>
      </trkpt>
      <trkpt lat="44.84052" lon="5.18955">
        <ele>590.4</ele>
        <time>2024-07-01T07:57:19Z</time>
      </trkpt>
      <trkpt lat="44.84055" lon="5.18956">
        <ele>590.4</ele>
        <time>2024-07-01T07:57:20Z</time>
      </trkpt>
      <trkpt lat="44.84056" lon="5.18956">
        <ele>590.5</ele>
        <time>2024-07-01T07:57:22Z</time>
      </trkpt>
      <trkpt lat="44.84058" lon="5.18958">
        <ele>590.5</ele>
        <time>2024-07-01T07:57:23Z</time>
      </trkpt>
      <trkpt lat="44.84059" lon="5.18959">
        <ele>590.5</ele>
        <time>2024-07-01T07:57:24Z</time>
      </trkpt>
      <trkpt lat="44.84061" lon="5.1896">
        <ele>590.6</ele>
        <time>2024-07-01T07:57:25Z</time>
      </trkpt>
      <trkpt lat="44.84063" lon="5.18961">
        <ele>590.6</ele>
        <time>2024-07-01T07:57:27Z</time>
      </trkpt>
      <trkpt lat="44.84064" lon="5.18961">
        <ele>590.6</ele>
        <time>2024-07-01T07:57:28Z</time>
      </trkpt>
      <trkpt lat="44.84065" lon="5.18962">
        <ele>590.7</ele>
        <time>2024-07-01T07:57:29Z</time>
      </trkpt>
      <trkpt lat="44.84067" lon="5.18963">
        <ele>590.7</ele>
        <time>2024-07-01T07:57:30Z</time>
      </trkpt>
      <trkpt lat="44.84068" lon="5.18964">
        <ele>590.7</ele>
        <time>2024-07-01T07:57:31Z</time>
      </trkpt>
      <trkpt lat="44.84069" lon="5.18965">
        <ele>590.7</ele>
        <time>2024-07-01T07:57:33Z</time>
      </trkpt>
      <trkpt lat="44.84071" lon="5.18966">
        <ele>590.8</ele>
        <time>2024-07-01T07:57:34Z</time>
      </trkpt>
      <trkpt lat="44.84071" lon="5.18967">
        <ele>590.8</ele>
        <time>2024-07-01T07:57:35Z</time>
      </trkpt>
      <trkpt lat="44.84072" lon="5.18968">
        <ele>590.8</ele>
        <time>2024-07-01T07:57:36Z</time>
      </trkpt>
      <trkpt lat="44.84073" lon="5.18968">
        <ele>590.9</ele>
        <time>2024-07-01T07:57:37Z</time>
      </trkpt>
      <trkpt lat="44.84074" lon="5.18968">
        <ele>590.9</ele>
        <time>2024-07-01T07:57:38Z</time>
      </trkpt>
      <trkpt lat="44.84075" lon="5.18968">
        <ele>590.9</ele>
        <time>2024-07-01T07:57:39Z</time>
      </trkpt>
      <trkpt lat="44.84078" lon="5.18965">
        <ele>591</ele>
        <time>2024-07-01T07:57:40Z</time>
      </trkpt>
      <trkpt lat="44.84079" lon="5.18962">
        <ele>591</ele>
        <time>2024-07-01T07:57:41Z</time>
      </trkpt>
      <trkpt lat="44.84081" lon="5.18958">
        <ele>591.1</ele>
        <time>2024-07-01T07:57:42Z</time>
      </trkpt>
      <trkpt lat="44.84088" lon="5.18928">
        <ele>591.8</ele>
        <time>2024-07-01T07:57:43Z</time>
      </trkpt>
      <trkpt lat="44.84089" lon="5.18926">
        <ele>591.8</ele>
        <time>2024-07-01T07:57:44Z</time>
      </trkpt>
      <trkpt lat="44.84091" lon="5.18924">
        <ele>591.9</ele>
        <time>2024-07-01T07:57:46Z</time>
      </trkpt>
      <trkpt lat="44.84092" lon="5.18922">
        <ele>591.9</ele>
        <time>2024-07-01T07:57:47Z</time>
      </trkpt>
      <trkpt lat="44.84093" lon="5.18921">
        <ele>592</ele>
        <time>2024-07-01T07:57:48Z</time>
      </trkpt>
      <trkpt lat="44.84094" lon="5.18919">
        <ele>592</ele>
        <time>2024-07-01T07:57:49Z</time>
      </trkpt>
      <trkpt lat="44.84095" lon="5.18918">
        <ele>592.1</ele>
        <time>2024-07-01T07:57:50Z</time>
      </trkpt>
      <trkpt lat="44.84096" lon="5.18915">
        <ele>592.2</ele>
        <time>2024-07-01T07:57:51Z</time>
      </trkpt>
      <trkpt lat="44.84097" lon="5.18914">
        <ele>592.2</ele>
        <time>2024-07-01T07:57:52Z</time>
      </trkpt>
      <trkpt lat="44.84097" lon="5.18913">
        <ele>592.2</ele>
        <time>2024-07-01T07:57:53Z</time>
      </trkpt>
      <trkpt lat="44.84098" lon="5.18911">
        <ele>592.3</ele>
        <time>2024-07-01T07:57:54Z</time>
      </trkpt>
      <trkpt lat="44.84099" lon="5.18909">
        <ele>592.3</ele>
        <time>2024-07-01T07:57:55Z</time>
      </trkpt>
      <trkpt lat="44.841" lon="5.18907">
        <ele>592.4</ele>
        <time>2024-07-01T07:57:56Z</time>
      </trkpt>
      <trkpt lat="44.841" lon="5.18906">
        <ele>592.4</ele>
        <time>2024-07-01T07:57:57Z</time>
      </trkpt>
      <trkpt lat="44.84101" lon="5.18905">
        <ele>592.4</ele>
        <time>2024-07-01T07:57:58Z</time>
      </trkpt>
      <trkpt lat="44.84101" lon="5.18903">
        <ele>592.5</ele>
        <time>2024-07-01T07:57:59Z</time>
      </trkpt>
      <trkpt lat="44.84101" lon="5.18901">
        <ele>592.5</ele>
        <time>2024-07-01T07:58:00Z</time>
      </trkpt>
      <trkpt lat="44.84101" lon="5.18897">
        <ele>592.6</ele>
        <time>2024-07-01T07:58:01Z</time>
      </trkpt>
      <trkpt lat="44.84103" lon="5.18895">
        <ele>592.7</ele>
        <time>2024-07-01T07:58:03Z</time>
      </trkpt>
      <trkpt lat="44.84105" lon="5.18895">
        <ele>592.7</ele>
        <time>2024-07-01T07:58:05Z</time>
      </trkpt>
      <trkpt lat="44.84105" lon="5.18895">
        <ele>592.7</ele>
        <time>2024-07-01T07:58:06Z</time>
      </trkpt>
      <trkpt lat="44.84106" lon="5.18895">
        <ele>592.7</ele>
        <time>2024-07-01T07:58:07Z</time>
      </trkpt>
      <trkpt lat="44.84106" lon="5.18894">
        <ele>592.8</ele>
        <time>2024-07-01T07:58:08Z</time>
      </trkpt>
      <trkpt lat="44.84105" lon="5.18895">
        <ele>592.8</ele>
        <time>2024-07-01T07:58:09Z</time>
      </trkpt>
      <trkpt lat="44.84105" lon="5.18895">
        <ele>592.8</ele>
        <time>2024-07-01T07:58:10Z</time>
      </trkpt>
      <trkpt lat="44.84104" lon="5.18896">
        <ele>592.8</ele>
        <time>2024-07-01T07:58:11Z</time>
      </trkpt>
      <trkpt lat="44.84104" lon="5.18896">
        <ele>592.8</ele>
        <time>2024-07-01T07:58:12Z</time>
      </trkpt>
      <trkpt lat="44.84104" lon="5.18896">
        <ele>592.8</ele>
        <time>2024-07-01T07:58:13Z</time>
      </trkpt>
      <trkpt lat="44.84105" lon="5.18896">
        <ele>592.8</ele>
        <time>2024-07-01T07:58:14Z</time>
      </trkpt>
      <trkpt lat="44.84105" lon="5.18897">
        <ele>592.8</ele>
        <time>2024-07-01T07:58:15Z</time>
      </trkpt>
      <trkpt lat="44.84105" lon="5.18897">
        <ele>592.8</ele>
        <time>2024-07-01T07:58:16Z</time>
      </trkpt>
      <trkpt lat="44.84105" lon="5.18897">
        <ele>592.8</ele>
        <time>2024-07-01T07:58:17Z</time>
      </trkpt>
      <trkpt lat="44.84105" lon="5.18897">
        <ele>592.8</ele>
        <time>2024-07-01T07:58:18Z</time>
      </trkpt>
      <trkpt lat="44.84105" lon="5.18897">
        <ele>592.8</ele>
        <time>2024-07-01T07:58:19Z</time>
      </trkpt>
      <trkpt lat="44.84105" lon="5.18897">
        <ele>592.8</ele>
        <time>2024-07-01T07:58:20Z</time>
      </trkpt>
      <trkpt lat="44.84105" lon="5.18897">
        <ele>592.8</ele>
        <time>2024-07-01T07:58:21Z</time>
      </trkpt>
      <trkpt lat="44.84105" lon="5.18897">
        <ele>592.8</ele>
        <time>2024-07-01T07:58:22Z</time>
      </trkpt>
      <trkpt lat="44.84105" lon="5.18897">
        <ele>592.8</ele>
        <time>2024-07-01T07:58:23Z</time>
      </trkpt>
      <trkpt lat="44.84105" lon="5.18897">
        <ele>592.8</ele>
        <time>2024-07-01T07:58:24Z</time>
      </trkpt>
      <trkpt lat="44.84105" lon="5.18897">
        <ele>592.8</ele>
        <time>2024-07-01T07:58:25Z</time>
      </trkpt>
      <trkpt lat="44.84105" lon="5.18898">
        <ele>592.8</ele>
        <time>2024-07-01T07:58:26Z</time>
      </trkpt>
      <trkpt lat="44.84105" lon="5.18898">
        <ele>592.8</ele>
        <time>2024-07-01T07:58:27Z</time>
      </trkpt>
      <trkpt lat="44.84105" lon="5.18898">
        <ele>592.9</ele>
        <time>2024-07-01T07:58:28Z</time>
      </trkpt>
      <trkpt lat="44.84106" lon="5.18899">
        <ele>592.9</ele>
        <time>2024-07-01T07:58:29Z</time>
      </trkpt>
      <trkpt lat="44.84107" lon="5.189">
        <ele>592.9</ele>
        <time>2024-07-01T07:58:31Z</time>
      </trkpt>
      <trkpt lat="44.84108" lon="5.189">
        <ele>592.9</ele>
        <time>2024-07-01T07:58:32Z</time>
      </trkpt>
      <trkpt lat="44.84109" lon="5.18901">
        <ele>592.9</ele>
        <time>2024-07-01T07:58:33Z</time>
      </trkpt>
      <trkpt lat="44.84108" lon="5.189">
        <ele>593</ele>
        <time>2024-07-01T07:58:34Z</time>
      </trkpt>
      <trkpt lat="44.84108" lon="5.18899">
        <ele>593</ele>
        <time>2024-07-01T07:58:35Z</time>
      </trkpt>
      <trkpt lat="44.84108" lon="5.18899">
        <ele>593</ele>
        <time>2024-07-01T07:58:36Z</time>
      </trkpt>
      <trkpt lat="44.84108" lon="5.18899">
        <ele>593</ele>
        <time>2024-07-01T07:58:37Z</time>
      </trkpt>
      <trkpt lat="44.84108" lon="5.189">
        <ele>593</ele>
        <time>2024-07-01T07:58:39Z</time>
      </trkpt>
      <trkpt lat="44.84108" lon="5.18901">
        <ele>593</ele>
        <time>2024-07-01T07:58:40Z</time>
      </trkpt>
      <trkpt lat="44.84108" lon="5.18903">
        <ele>593</ele>
        <time>2024-07-01T07:58:41Z</time>
      </trkpt>
      <trkpt lat="44.84109" lon="5.18904">
        <ele>593.1</ele>
        <time>2024-07-01T07:58:42Z</time>
      </trkpt>
      <trkpt lat="44.84109" lon="5.18904">
        <ele>593.1</ele>
        <time>2024-07-01T07:58:43Z</time>
      </trkpt>
      <trkpt lat="44.84109" lon="5.18905">
        <ele>593.1</ele>
        <time>2024-07-01T07:58:44Z</time>
      </trkpt>
      <trkpt lat="44.84109" lon="5.18906">
        <ele>593.1</ele>
        <time>2024-07-01T07:58:45Z</time>
      </trkpt>
      <trkpt lat="44.84108" lon="5.18906">
        <ele>593.1</ele>
        <time>2024-07-01T07:58:46Z</time>
      </trkpt>
      <trkpt lat="44.84107" lon="5.18906">
        <ele>593.2</ele>
        <time>2024-07-01T07:58:48Z</time>
      </trkpt>
      <trkpt lat="44.84106" lon="5.18907">
        <ele>593.2</ele>
        <time>2024-07-01T07:58:49Z</time>
      </trkpt>
      <trkpt lat="44.84106" lon="5.18907">
        <ele>593.2</ele>
        <time>2024-07-01T07:58:51Z</time>
      </trkpt>
      <trkpt lat="44.84106" lon="5.18908">
        <ele>593.2</ele>
        <time>2024-07-01T07:58:52Z</time>
      </trkpt>
      <trkpt lat="44.84105" lon="5.18909">
        <ele>593.2</ele>
        <time>2024-07-01T07:58:53Z</time>
      </trkpt>
      <trkpt lat="44.84105" lon="5.1891">
        <ele>593.3</ele>
        <time>2024-07-01T07:58:55Z</time>
      </trkpt>
      <trkpt lat="44.84105" lon="5.18911">
        <ele>593.3</ele>
        <time>2024-07-01T07:58:56Z</time>
      </trkpt>
      <trkpt lat="44.84105" lon="5.18912">
        <ele>593.3</ele>
        <time>2024-07-01T07:58:57Z</time>
      </trkpt>
      <trkpt lat="44.84104" lon="5.18912">
        <ele>593.3</ele>
        <time>2024-07-01T07:58:58Z</time>
      </trkpt>
      <trkpt lat="44.84104" lon="5.18913">
        <ele>593.3</ele>
        <time>2024-07-01T07:58:59Z</time>
      </trkpt>
      <trkpt lat="44.84104" lon="5.18909">
        <ele>593.4</ele>
        <time>2024-07-01T07:59:00Z</time>
      </trkpt>
      <trkpt lat="44.84104" lon="5.18908">
        <ele>593.4</ele>
        <time>2024-07-01T07:59:01Z</time>
      </trkpt>
      <trkpt lat="44.84106" lon="5.18902">
        <ele>593.6</ele>
        <time>2024-07-01T07:59:02Z</time>
      </trkpt>
      <trkpt lat="44.84108" lon="5.18897">
        <ele>593.7</ele>
        <time>2024-07-01T07:59:03Z</time>
      </trkpt>
      <trkpt lat="44.84112" lon="5.1889">
        <ele>593.8</ele>
        <time>2024-07-01T07:59:04Z</time>
      </trkpt>
      <trkpt lat="44.84114" lon="5.18885">
        <ele>593.9</ele>
        <time>2024-07-01T07:59:05Z</time>
      </trkpt>
      <trkpt lat="44.84115" lon="5.1888">
        <ele>594.1</ele>
        <time>2024-07-01T07:59:06Z</time>
      </trkpt>
      <trkpt lat="44.84116" lon="5.18878">
        <ele>594.5</ele>
        <time>2024-07-01T07:59:08Z</time>
      </trkpt>
      <trkpt lat="44.84116" lon="5.18877">
        <ele>594.6</ele>
        <time>2024-07-01T07:59:09Z</time>
      </trkpt>
      <trkpt lat="44.84117" lon="5.18876">
        <ele>594.7</ele>
        <time>2024-07-01T07:59:10Z</time>
      </trkpt>
      <trkpt lat="44.84118" lon="5.18874">
        <ele>595</ele>
        <time>2024-07-01T07:59:11Z</time>
      </trkpt>
      <trkpt lat="44.8412" lon="5.18873">
        <ele>595.3</ele>
        <time>2024-07-01T07:59:12Z</time>
      </trkpt>
      <trkpt lat="44.84121" lon="5.18872">
        <ele>595.5</ele>
        <time>2024-07-01T07:59:13Z</time>
      </trkpt>
      <trkpt lat="44.84122" lon="5.18871">
        <ele>595.8</ele>
        <time>2024-07-01T07:59:14Z</time>
      </trkpt>
      <trkpt lat="44.84124" lon="5.1887">
        <ele>596.1</ele>
        <time>2024-07-01T07:59:15Z</time>
      </trkpt>
      <trkpt lat="44.84125" lon="5.18869">
        <ele>596.4</ele>
        <time>2024-07-01T07:59:16Z</time>
      </trkpt>
      <trkpt lat="44.84128" lon="5.18868">
        <ele>596.8</ele>
        <time>2024-07-01T07:59:17Z</time>
      </trkpt>
      <trkpt lat="44.84129" lon="5.18868">
        <ele>597</ele>
        <time>2024-07-01T07:59:18Z</time>
      </trkpt>
      <trkpt lat="44.8413" lon="5.18867">
        <ele>597.2</ele>
        <time>2024-07-01T07:59:19Z</time>
      </trkpt>
      <trkpt lat="44.84134" lon="5.18866">
        <ele>597.8</ele>
        <time>2024-07-01T07:59:20Z</time>
      </trkpt>
      <trkpt lat="44.84136" lon="5.18865">
        <ele>598.2</ele>
        <time>2024-07-01T07:59:22Z</time>
      </trkpt>
      <trkpt lat="44.8414" lon="5.18865">
        <ele>598.9</ele>
        <time>2024-07-01T07:59:24Z</time>
      </trkpt>
      <trkpt lat="44.84141" lon="5.18866">
        <ele>599.2</ele>
        <time>2024-07-01T07:59:26Z</time>
      </trkpt>
      <trkpt lat="44.84142" lon="5.18866">
        <ele>599.4</ele>
        <time>2024-07-01T07:59:27Z</time>
      </trkpt>
      <trkpt lat="44.84143" lon="5.18866">
        <ele>599.6</ele>
        <time>2024-07-01T07:59:28Z</time>
      </trkpt>
      <trkpt lat="44.84145" lon="5.18867">
        <ele>600</ele>
        <time>2024-07-01T07:59:30Z</time>
      </trkpt>
      <trkpt lat="44.84146" lon="5.18867">
        <ele>600.1</ele>
        <time>2024-07-01T07:59:31Z</time>
      </trkpt>
      <trkpt lat="44.84147" lon="5.18867">
        <ele>600.3</ele>
        <time>2024-07-01T07:59:32Z</time>
      </trkpt>
      <trkpt lat="44.84148" lon="5.18866">
        <ele>600.5</ele>
        <time>2024-07-01T07:59:33Z</time>
      </trkpt>
      <trkpt lat="44.84149" lon="5.18865">
        <ele>600.8</ele>
        <time>2024-07-01T07:59:34Z</time>
      </trkpt>
      <trkpt lat="44.84151" lon="5.18864">
        <ele>601.2</ele>
        <time>2024-07-01T07:59:35Z</time>
      </trkpt>
      <trkpt lat="44.84153" lon="5.18863">
        <ele>601.5</ele>
        <time>2024-07-01T07:59:37Z</time>
      </trkpt>
      <trkpt lat="44.84154" lon="5.18862">
        <ele>601.8</ele>
        <time>2024-07-01T07:59:38Z</time>
      </trkpt>
      <trkpt lat="44.84155" lon="5.18861">
        <ele>602</ele>
        <time>2024-07-01T07:59:39Z</time>
      </trkpt>
      <trkpt lat="44.84156" lon="5.18861">
        <ele>602.2</ele>
        <time>2024-07-01T07:59:40Z</time>
      </trkpt>
      <trkpt lat="44.84157" lon="5.18859">
        <ele>602.4</ele>
        <time>2024-07-01T07:59:41Z</time>
      </trkpt>
      <trkpt lat="44.84158" lon="5.18858">
        <ele>602.8</ele>
        <time>2024-07-01T07:59:42Z</time>
      </trkpt>
      <trkpt lat="44.84159" lon="5.18857">
        <ele>603</ele>
        <time>2024-07-01T07:59:44Z</time>
      </trkpt>
      <trkpt lat="44.8416" lon="5.18855">
        <ele>603.2</ele>
        <time>2024-07-01T07:59:45Z</time>
      </trkpt>
      <trkpt lat="44.8416" lon="5.18855">
        <ele>603.4</ele>
        <time>2024-07-01T07:59:46Z</time>
      </trkpt>
      <trkpt lat="44.8416" lon="5.18854">
        <ele>603.5</ele>
        <time>2024-07-01T07:59:47Z</time>
      </trkpt>
      <trkpt lat="44.84161" lon="5.18854">
        <ele>603.5</ele>
        <time>2024-07-01T07:59:48Z</time>
      </trkpt>
      <trkpt lat="44.84161" lon="5.18854">
        <ele>603.6</ele>
        <time>2024-07-01T07:59:49Z</time>
      </trkpt>
      <trkpt lat="44.84161" lon="5.18854">
        <ele>603.7</ele>
        <time>2024-07-01T07:59:50Z</time>
      </trkpt>
      <trkpt lat="44.84161" lon="5.18854">
        <ele>603.7</ele>
        <time>2024-07-01T07:59:52Z</time>
      </trkpt>
      <trkpt lat="44.84161" lon="5.18855">
        <ele>603.7</ele>
        <time>2024-07-01T07:59:53Z</time>
      </trkpt>
      <trkpt lat="44.84161" lon="5.18855">
        <ele>603.7</ele>
        <time>2024-07-01T07:59:55Z</time>
      </trkpt>
      <trkpt lat="44.84161" lon="5.18855">
        <ele>603.8</ele>
        <time>2024-07-01T07:59:56Z</time>
      </trkpt>
      <trkpt lat="44.84162" lon="5.18855">
        <ele>603.9</ele>
        <time>2024-07-01T07:59:57Z</time>
      </trkpt>
      <trkpt lat="44.84162" lon="5.18855">
        <ele>604</ele>
        <time>2024-07-01T07:59:58Z</time>
      </trkpt>
      <trkpt lat="44.84163" lon="5.18855">
        <ele>604.2</ele>
        <time>2024-07-01T07:59:59Z</time>
      </trkpt>
      <trkpt lat="44.84163" lon="5.18855">
        <ele>604.3</ele>
        <time>2024-07-01T08:00:00Z</time>
      </trkpt>
      <trkpt lat="44.84163" lon="5.18855">
        <ele>604.4</ele>
        <time>2024-07-01T08:00:01Z</time>
      </trkpt>
      <trkpt lat="44.84162" lon="5.18855">
        <ele>604.5</ele>
        <time>2024-07-01T08:00:03Z</time>
      </trkpt>
      <trkpt lat="44.84162" lon="5.18855">
        <ele>604.5</ele>
        <time>2024-07-01T08:00:04Z</time>
      </trkpt>
      <trkpt lat="44.84162" lon="5.18856">
        <ele>604.6</ele>
        <time>2024-07-01T08:00:05Z</time>
      </trkpt>
      <trkpt lat="44.84162" lon="5.18856">
        <ele>604.7</ele>
        <time>2024-07-01T08:00:06Z</time>
      </trkpt>
      <trkpt lat="44.84162" lon="5.18856">
        <ele>604.7</ele>
        <time>2024-07-01T08:00:07Z</time>
      </trkpt>
      <trkpt lat="44.84162" lon="5.18856">
        <ele>604.7</ele>
        <time>2024-07-01T08:00:08Z</time>
      </trkpt>
      <trkpt lat="44.84162" lon="5.18856">
        <ele>604.7</ele>
        <time>2024-07-01T08:00:09Z</time>
      </trkpt>
      <trkpt lat="44.84162" lon="5.18856">
        <ele>604.8</ele>
        <time>2024-07-01T08:00:10Z</time>
      </trkpt>
      <trkpt lat="44.84162" lon="5.18856">
        <ele>604.8</ele>
        <time>2024-07-01T08:00:11Z</time>
      </trkpt>
      <trkpt lat="44.84162" lon="5.18855">
        <ele>604.8</ele>
        <time>2024-07-01T08:00:12Z</time>
      </trkpt>
      <trkpt lat="44.84162" lon="5.18856">
        <ele>604.8</ele>
        <time>2024-07-01T08:00:13Z</time>
      </trkpt>
      <trkpt lat="44.84162" lon="5.18856">
        <ele>604.9</ele>
        <time>2024-07-01T08:00:14Z</time>
      </trkpt>
      <trkpt lat="44.84162" lon="5.18856">
        <ele>604.9</ele>
        <time>2024-07-01T08:00:15Z</time>
      </trkpt>
      <trkpt lat="44.84162" lon="5.18856">
        <ele>604.9</ele>
        <time>2024-07-01T08:00:16Z</time>
      </trkpt>
      <trkpt lat="44.84162" lon="5.18856">
        <ele>604.9</ele>
        <time>2024-07-01T08:00:17Z</time>
      </trkpt>
      <trkpt lat="44.84162" lon="5.18856">
        <ele>605</ele>
        <time>2024-07-01T08:00:18Z</time>
      </trkpt>
      <trkpt lat="44.84162" lon="5.18856">
        <ele>605</ele>
        <time>2024-07-01T08:00:19Z</time>
      </trkpt>
      <trkpt lat="44.84162" lon="5.18856">
        <ele>605</ele>
        <time>2024-07-01T08:00:20Z</time>
      </trkpt>
      <trkpt lat="44.84162" lon="5.18856">
        <ele>605.1</ele>
        <time>2024-07-01T08:00:21Z</time>
      </trkpt>
      <trkpt lat="44.84162" lon="5.18855">
        <ele>605.1</ele>
        <time>2024-07-01T08:00:22Z</time>
      </trkpt>
      <trkpt lat="44.84161" lon="5.18854">
        <ele>605.3</ele>
        <time>2024-07-01T08:00:23Z</time>
      </trkpt>
      <trkpt lat="44.84161" lon="5.18853">
        <ele>605.5</ele>
        <time>2024-07-01T08:00:24Z</time>
      </trkpt>
      <trkpt lat="44.84161" lon="5.18852">
        <ele>605.6</ele>
        <time>2024-07-01T08:00:25Z</time>
      </trkpt>
      <trkpt lat="44.84161" lon="5.18852">
        <ele>605.8</ele>
        <time>2024-07-01T08:00:26Z</time>
      </trkpt>
      <trkpt lat="44.84162" lon="5.18852">
        <ele>605.9</ele>
        <time>2024-07-01T08:00:27Z</time>
      </trkpt>
      <trkpt lat="44.84163" lon="5.18852">
        <ele>606.1</ele>
        <time>2024-07-01T08:00:28Z</time>
      </trkpt>
      <trkpt lat="44.84163" lon="5.18852">
        <ele>606.2</ele>
        <time>2024-07-01T08:00:29Z</time>
      </trkpt>
      <trkpt lat="44.84164" lon="5.18852">
        <ele>606.3</ele>
        <time>2024-07-01T08:00:30Z</time>
      </trkpt>
      <trkpt lat="44.84164" lon="5.18852">
        <ele>606.4</ele>
        <time>2024-07-01T08:00:31Z</time>
      </trkpt>
      <trkpt lat="44.84167" lon="5.18852">
        <ele>606.9</ele>
        <time>2024-07-01T08:00:32Z</time>
      </trkpt>
      <trkpt lat="44.84168" lon="5.18852">
        <ele>607.2</ele>
        <time>2024-07-01T08:00:33Z</time>
      </trkpt>
      <trkpt lat="44.84169" lon="5.18852">
        <ele>607.4</ele>
        <time>2024-07-01T08:00:34Z</time>
      </trkpt>
      <trkpt lat="44.8417" lon="5.18851">
        <ele>607.6</ele>
        <time>2024-07-01T08:00:35Z</time>
      </trkpt>
      <trkpt lat="44.84171" lon="5.18851">
        <ele>607.8</ele>
        <time>2024-07-01T08:00:36Z</time>
      </trkpt>
      <trkpt lat="44.84171" lon="5.1885">
        <ele>608</ele>
        <time>2024-07-01T08:00:37Z</time>
      </trkpt>
      <trkpt lat="44.84172" lon="5.18849">
        <ele>608.2</ele>
        <time>2024-07-01T08:00:38Z</time>
      </trkpt>
      <trkpt lat="44.84173" lon="5.18848">
        <ele>608.4</ele>
        <time>2024-07-01T08:00:39Z</time>
      </trkpt>
      <trkpt lat="44.84175" lon="5.18847">
        <ele>608.8</ele>
        <time>2024-07-01T08:00:40Z</time>
      </trkpt>
      <trkpt lat="44.84176" lon="5.18847">
        <ele>609.1</ele>
        <time>2024-07-01T08:00:41Z</time>
      </trkpt>
      <trkpt lat="44.84177" lon="5.18846">
        <ele>609.3</ele>
        <time>2024-07-01T08:00:42Z</time>
      </trkpt>
      <trkpt lat="44.84179" lon="5.18845">
        <ele>609.8</ele>
        <time>2024-07-01T08:00:43Z</time>
      </trkpt>
      <trkpt lat="44.8418" lon="5.18845">
        <ele>610.1</ele>
        <time>2024-07-01T08:00:44Z</time>
      </trkpt>
      <trkpt lat="44.84181" lon="5.18845">
        <ele>610.3</ele>
        <time>2024-07-01T08:00:45Z</time>
      </trkpt>
      <trkpt lat="44.84183" lon="5.18845">
        <ele>610.5</ele>
        <time>2024-07-01T08:00:47Z</time>
      </trkpt>
      <trkpt lat="44.84184" lon="5.18844">
        <ele>610.7</ele>
        <time>2024-07-01T08:00:48Z</time>
      </trkpt>
      <trkpt lat="44.84184" lon="5.18841">
        <ele>611.2</ele>
        <time>2024-07-01T08:00:49Z</time>
      </trkpt>
      <trkpt lat="44.84185" lon="5.18838">
        <ele>611.7</ele>
        <time>2024-07-01T08:00:50Z</time>
      </trkpt>
      <trkpt lat="44.84185" lon="5.18836">
        <ele>611.9</ele>
        <time>2024-07-01T08:00:52Z</time>
      </trkpt>
      <trkpt lat="44.84184" lon="5.18835">
        <ele>612.1</ele>
        <time>2024-07-01T08:00:53Z</time>
      </trkpt>
      <trkpt lat="44.84184" lon="5.18832">
        <ele>612.5</ele>
        <time>2024-07-01T08:00:54Z</time>
      </trkpt>
      <trkpt lat="44.84183" lon="5.18831">
        <ele>612.7</ele>
        <time>2024-07-01T08:00:55Z</time>
      </trkpt>
      <trkpt lat="44.84183" lon="5.1883">
        <ele>612.8</ele>
        <time>2024-07-01T08:00:56Z</time>
      </trkpt>
      <trkpt lat="44.84182" lon="5.18829">
        <ele>613</ele>
        <time>2024-07-01T08:00:57Z</time>
      </trkpt>
      <trkpt lat="44.84181" lon="5.18828">
        <ele>613.3</ele>
        <time>2024-07-01T08:00:58Z</time>
      </trkpt>
      <trkpt lat="44.8418" lon="5.18827">
        <ele>613.5</ele>
        <time>2024-07-01T08:00:59Z</time>
      </trkpt>
      <trkpt lat="44.84178" lon="5.18826">
        <ele>613.9</ele>
        <time>2024-07-01T08:01:00Z</time>
      </trkpt>
      <trkpt lat="44.84178" lon="5.18826">
        <ele>614</ele>
        <time>2024-07-01T08:01:01Z</time>
      </trkpt>
      <trkpt lat="44.84177" lon="5.18826">
        <ele>614.2</ele>
        <time>2024-07-01T08:01:02Z</time>
      </trkpt>
      <trkpt lat="44.84175" lon="5.18827">
        <ele>614.5</ele>
        <time>2024-07-01T08:01:03Z</time>
      </trkpt>
      <trkpt lat="44.84173" lon="5.18828">
        <ele>615</ele>
        <time>2024-07-01T08:01:04Z</time>
      </trkpt>
      <trkpt lat="44.8417" lon="5.18829">
        <ele>615.5</ele>
        <time>2024-07-01T08:01:06Z</time>
      </trkpt>
      <trkpt lat="44.84168" lon="5.18831">
        <ele>615.9</ele>
        <time>2024-07-01T08:01:08Z</time>
      </trkpt>
      <trkpt lat="44.84167" lon="5.18832">
        <ele>616.1</ele>
        <time>2024-07-01T08:01:09Z</time>
      </trkpt>
      <trkpt lat="44.84166" lon="5.18833">
        <ele>616.4</ele>
        <time>2024-07-01T08:01:10Z</time>
      </trkpt>
      <trkpt lat="44.84164" lon="5.18834">
        <ele>616.8</ele>
        <time>2024-07-01T08:01:12Z</time>
      </trkpt>
      <trkpt lat="44.84165" lon="5.18835">
        <ele>617.1</ele>
        <time>2024-07-01T08:01:14Z</time>
      </trkpt>
      <trkpt lat="44.84164" lon="5.18836">
        <ele>617.2</ele>
        <time>2024-07-01T08:01:16Z</time>
      </trkpt>
      <trkpt lat="44.84164" lon="5.18836">
        <ele>617.4</ele>
        <time>2024-07-01T08:01:17Z</time>
      </trkpt>
      <trkpt lat="44.84163" lon="5.18836">
        <ele>617.6</ele>
        <time>2024-07-01T08:01:18Z</time>
      </trkpt>
      <trkpt lat="44.84162" lon="5.18836">
        <ele>617.8</ele>
        <time>2024-07-01T08:01:19Z</time>
      </trkpt>
      <trkpt lat="44.84161" lon="5.18835">
        <ele>618</ele>
        <time>2024-07-01T08:01:20Z</time>
      </trkpt>
      <trkpt lat="44.84162" lon="5.18834">
        <ele>618.2</ele>
        <time>2024-07-01T08:01:21Z</time>
      </trkpt>
      <trkpt lat="44.84163" lon="5.18832">
        <ele>618.4</ele>
        <time>2024-07-01T08:01:22Z</time>
      </trkpt>
      <trkpt lat="44.84163" lon="5.18831">
        <ele>618.6</ele>
        <time>2024-07-01T08:01:23Z</time>
      </trkpt>
      <trkpt lat="44.84163" lon="5.1883">
        <ele>618.7</ele>
        <time>2024-07-01T08:01:24Z</time>
      </trkpt>
      <trkpt lat="44.84163" lon="5.18831">
        <ele>618.7</ele>
        <time>2024-07-01T08:01:25Z</time>
      </trkpt>
      <trkpt lat="44.84162" lon="5.1883">
        <ele>618.9</ele>
        <time>2024-07-01T08:01:26Z</time>
      </trkpt>
      <trkpt lat="44.84162" lon="5.18831">
        <ele>618.9</ele>
        <time>2024-07-01T08:01:27Z</time>
      </trkpt>
      <trkpt lat="44.84162" lon="5.18831">
        <ele>619</ele>
        <time>2024-07-01T08:01:28Z</time>
      </trkpt>
      <trkpt lat="44.8416" lon="5.18831">
        <ele>619.3</ele>
        <time>2024-07-01T08:01:29Z</time>
      </trkpt>
      <trkpt lat="44.84159" lon="5.18831">
        <ele>619.4</ele>
        <time>2024-07-01T08:01:31Z</time>
      </trkpt>
      <trkpt lat="44.84159" lon="5.18832">
        <ele>619.5</ele>
        <time>2024-07-01T08:01:32Z</time>
      </trkpt>
      <trkpt lat="44.84159" lon="5.18832">
        <ele>619.6</ele>
        <time>2024-07-01T08:01:33Z</time>
      </trkpt>
      <trkpt lat="44.84158" lon="5.18832">
        <ele>619.7</ele>
        <time>2024-07-01T08:01:34Z</time>
      </trkpt>
      <trkpt lat="44.84157" lon="5.18833">
        <ele>619.8</ele>
        <time>2024-07-01T08:01:35Z</time>
      </trkpt>
      <trkpt lat="44.84156" lon="5.18833">
        <ele>620</ele>
        <time>2024-07-01T08:01:36Z</time>
      </trkpt>
      <trkpt lat="44.84156" lon="5.18833">
        <ele>620.1</ele>
        <time>2024-07-01T08:01:37Z</time>
      </trkpt>
      <trkpt lat="44.84155" lon="5.18834">
        <ele>620.2</ele>
        <time>2024-07-01T08:01:38Z</time>
      </trkpt>
      <trkpt lat="44.84154" lon="5.18834">
        <ele>620.4</ele>
        <time>2024-07-01T08:01:39Z</time>
      </trkpt>
      <trkpt lat="44.84153" lon="5.18834">
        <ele>620.5</ele>
        <time>2024-07-01T08:01:40Z</time>
      </trkpt>
      <trkpt lat="44.84154" lon="5.18832">
        <ele>620.8</ele>
        <time>2024-07-01T08:01:42Z</time>
      </trkpt>
      <trkpt lat="44.84155" lon="5.1883">
        <ele>621.2</ele>
        <time>2024-07-01T08:01:44Z</time>
      </trkpt>
      <trkpt lat="44.84156" lon="5.18829">
        <ele>621.3</ele>
        <time>2024-07-01T08:01:46Z</time>
      </trkpt>
      <trkpt lat="44.84157" lon="5.18828">
        <ele>621.5</ele>
        <time>2024-07-01T08:01:47Z</time>
      </trkpt>
      <trkpt lat="44.84158" lon="5.18829">
        <ele>621.6</ele>
        <time>2024-07-01T08:01:48Z</time>
      </trkpt>
      <trkpt lat="44.84159" lon="5.18828">
        <ele>621.8</ele>
        <time>2024-07-01T08:01:49Z</time>
      </trkpt>
      <trkpt lat="44.84161" lon="5.18829">
        <ele>622.1</ele>
        <time>2024-07-01T08:01:50Z</time>
      </trkpt>
      <trkpt lat="44.84162" lon="5.18829">
        <ele>622.3</ele>
        <time>2024-07-01T08:01:51Z</time>
      </trkpt>
      <trkpt lat="44.84163" lon="5.18829">
        <ele>622.5</ele>
        <time>2024-07-01T08:01:53Z</time>
      </trkpt>
      <trkpt lat="44.84164" lon="5.18828">
        <ele>622.7</ele>
        <time>2024-07-01T08:01:55Z</time>
      </trkpt>
      <trkpt lat="44.84165" lon="5.18828">
        <ele>622.8</ele>
        <time>2024-07-01T08:01:56Z</time>
      </trkpt>
      <trkpt lat="44.84166" lon="5.18828">
        <ele>623</ele>
        <time>2024-07-01T08:01:57Z</time>
      </trkpt>
      <trkpt lat="44.84166" lon="5.18827">
        <ele>623.2</ele>
        <time>2024-07-01T08:01:58Z</time>
      </trkpt>
      <trkpt lat="44.84167" lon="5.18826">
        <ele>623.3</ele>
        <time>2024-07-01T08:01:59Z</time>
      </trkpt>
      <trkpt lat="44.84168" lon="5.18825">
        <ele>623.5</ele>
        <time>2024-07-01T08:02:00Z</time>
      </trkpt>
      <trkpt lat="44.84168" lon="5.18824">
        <ele>623.7</ele>
        <time>2024-07-01T08:02:01Z</time>
      </trkpt>
      <trkpt lat="44.84169" lon="5.18823">
        <ele>623.8</ele>
        <time>2024-07-01T08:02:02Z</time>
      </trkpt>
      <trkpt lat="44.8417" lon="5.18821">
        <ele>624.1</ele>
        <time>2024-07-01T08:02:03Z</time>
      </trkpt>
      <trkpt lat="44.84171" lon="5.1882">
        <ele>624.3</ele>
        <time>2024-07-01T08:02:05Z</time>
      </trkpt>
      <trkpt lat="44.84171" lon="5.18819">
        <ele>624.4</ele>
        <time>2024-07-01T08:02:06Z</time>
      </trkpt>
      <trkpt lat="44.84172" lon="5.18818">
        <ele>624.6</ele>
        <time>2024-07-01T08:02:07Z</time>
      </trkpt>
      <trkpt lat="44.8417" lon="5.18816">
        <ele>625</ele>
        <time>2024-07-01T08:02:09Z</time>
      </trkpt>
      <trkpt lat="44.84169" lon="5.18815">
        <ele>625.1</ele>
        <time>2024-07-01T08:02:10Z</time>
      </trkpt>
      <trkpt lat="44.84169" lon="5.18814">
        <ele>625.2</ele>
        <time>2024-07-01T08:02:11Z</time>
      </trkpt>
      <trkpt lat="44.84169" lon="5.18813">
        <ele>625.3</ele>
        <time>2024-07-01T08:02:12Z</time>
      </trkpt>
      <trkpt lat="44.84169" lon="5.18812">
        <ele>625.5</ele>
        <time>2024-07-01T08:02:13Z</time>
      </trkpt>
      <trkpt lat="44.8417" lon="5.18811">
        <ele>625.6</ele>
        <time>2024-07-01T08:02:14Z</time>
      </trkpt>
      <trkpt lat="44.84169" lon="5.18811">
        <ele>625.7</ele>
        <time>2024-07-01T08:02:15Z</time>
      </trkpt>
      <trkpt lat="44.84168" lon="5.18812">
        <ele>626</ele>
        <time>2024-07-01T08:02:16Z</time>
      </trkpt>
      <trkpt lat="44.84168" lon="5.18811">
        <ele>626.1</ele>
        <time>2024-07-01T08:02:17Z</time>
      </trkpt>
      <trkpt lat="44.84168" lon="5.18808">
        <ele>626.5</ele>
        <time>2024-07-01T08:02:18Z</time>
      </trkpt>
      <trkpt lat="44.84169" lon="5.18807">
        <ele>626.6</ele>
        <time>2024-07-01T08:02:19Z</time>
      </trkpt>
      <trkpt lat="44.84169" lon="5.18806">
        <ele>626.8</ele>
        <time>2024-07-01T08:02:20Z</time>
      </trkpt>
      <trkpt lat="44.84169" lon="5.18804">
        <ele>626.9</ele>
        <time>2024-07-01T08:02:21Z</time>
      </trkpt>
      <trkpt lat="44.84169" lon="5.18803">
        <ele>627.1</ele>
        <time>2024-07-01T08:02:22Z</time>
      </trkpt>
      <trkpt lat="44.8417" lon="5.18802">
        <ele>627.3</ele>
        <time>2024-07-01T08:02:23Z</time>
      </trkpt>
      <trkpt lat="44.84172" lon="5.18799">
        <ele>627.8</ele>
        <time>2024-07-01T08:02:24Z</time>
      </trkpt>
      <trkpt lat="44.84172" lon="5.18799">
        <ele>627.9</ele>
        <time>2024-07-01T08:02:26Z</time>
      </trkpt>
      <trkpt lat="44.84173" lon="5.18798">
        <ele>628.1</ele>
        <time>2024-07-01T08:02:27Z</time>
      </trkpt>
      <trkpt lat="44.84174" lon="5.18798">
        <ele>628.3</ele>
        <time>2024-07-01T08:02:28Z</time>
      </trkpt>
      <trkpt lat="44.84175" lon="5.18797">
        <ele>628.5</ele>
        <time>2024-07-01T08:02:29Z</time>
      </trkpt>
      <trkpt lat="44.84177" lon="5.18796">
        <ele>628.9</ele>
        <time>2024-07-01T08:02:30Z</time>
      </trkpt>
      <trkpt lat="44.84178" lon="5.18796">
        <ele>629.1</ele>
        <time>2024-07-01T08:02:31Z</time>
      </trkpt>
      <trkpt lat="44.84179" lon="5.18796">
        <ele>629.2</ele>
        <time>2024-07-01T08:02:32Z</time>
      </trkpt>
      <trkpt lat="44.8418" lon="5.18797">
        <ele>629.5</ele>
        <time>2024-07-01T08:02:33Z</time>
      </trkpt>
      <trkpt lat="44.84181" lon="5.18799">
        <ele>629.8</ele>
        <time>2024-07-01T08:02:34Z</time>
      </trkpt>
      <trkpt lat="44.84182" lon="5.18799">
        <ele>630</ele>
        <time>2024-07-01T08:02:35Z</time>
      </trkpt>
      <trkpt lat="44.84183" lon="5.188">
        <ele>630.1</ele>
        <time>2024-07-01T08:02:36Z</time>
      </trkpt>
      <trkpt lat="44.84184" lon="5.188">
        <ele>630.3</ele>
        <time>2024-07-01T08:02:37Z</time>
      </trkpt>
      <trkpt lat="44.84184" lon="5.188">
        <ele>630.5</ele>
        <time>2024-07-01T08:02:38Z</time>
      </trkpt>
      <trkpt lat="44.84186" lon="5.188">
        <ele>630.8</ele>
        <time>2024-07-01T08:02:39Z</time>
      </trkpt>
      <trkpt lat="44.84187" lon="5.188">
        <ele>631</ele>
        <time>2024-07-01T08:02:40Z</time>
      </trkpt>
      <trkpt lat="44.84189" lon="5.18801">
        <ele>631.3</ele>
        <time>2024-07-01T08:02:41Z</time>
      </trkpt>
      <trkpt lat="44.84189" lon="5.18802">
        <ele>631.5</ele>
        <time>2024-07-01T08:02:42Z</time>
      </trkpt>
      <trkpt lat="44.8419" lon="5.18803">
        <ele>631.7</ele>
        <time>2024-07-01T08:02:43Z</time>
      </trkpt>
      <trkpt lat="44.84191" lon="5.18803">
        <ele>631.9</ele>
        <time>2024-07-01T08:02:44Z</time>
      </trkpt>
      <trkpt lat="44.84192" lon="5.18804">
        <ele>632.1</ele>
        <time>2024-07-01T08:02:45Z</time>
      </trkpt>
      <trkpt lat="44.84193" lon="5.18803">
        <ele>632.4</ele>
        <time>2024-07-01T08:02:46Z</time>
      </trkpt>
      <trkpt lat="44.84195" lon="5.18803">
        <ele>632.7</ele>
        <time>2024-07-01T08:02:47Z</time>
      </trkpt>
      <trkpt lat="44.84196" lon="5.18803">
        <ele>632.8</ele>
        <time>2024-07-01T08:02:48Z</time>
      </trkpt>
      <trkpt lat="44.84196" lon="5.18802">
        <ele>633</ele>
        <time>2024-07-01T08:02:49Z</time>
      </trkpt>
      <trkpt lat="44.84197" lon="5.18802">
        <ele>633.1</ele>
        <time>2024-07-01T08:02:50Z</time>
      </trkpt>
      <trkpt lat="44.84198" lon="5.18802">
        <ele>633.2</ele>
        <time>2024-07-01T08:02:52Z</time>
      </trkpt>
      <trkpt lat="44.84198" lon="5.18802">
        <ele>633.3</ele>
        <time>2024-07-01T08:02:53Z</time>
      </trkpt>
      <trkpt lat="44.84199" lon="5.18802">
        <ele>633.4</ele>
        <time>2024-07-01T08:02:54Z</time>
      </trkpt>
      <trkpt lat="44.842" lon="5.18802">
        <ele>633.6</ele>
        <time>2024-07-01T08:02:55Z</time>
      </trkpt>
      <trkpt lat="44.842" lon="5.18801">
        <ele>633.7</ele>
        <time>2024-07-01T08:02:56Z</time>
      </trkpt>
      <trkpt lat="44.84201" lon="5.188">
        <ele>633.9</ele>
        <time>2024-07-01T08:02:57Z</time>
      </trkpt>
      <trkpt lat="44.84202" lon="5.18799">
        <ele>634.1</ele>
        <time>2024-07-01T08:02:58Z</time>
      </trkpt>
      <trkpt lat="44.84202" lon="5.18798">
        <ele>634.3</ele>
        <time>2024-07-01T08:02:59Z</time>
      </trkpt>
      <trkpt lat="44.84203" lon="5.18797">
        <ele>634.4</ele>
        <time>2024-07-01T08:03:00Z</time>
      </trkpt>
      <trkpt lat="44.84203" lon="5.18796">
        <ele>634.5</ele>
        <time>2024-07-01T08:03:01Z</time>
      </trkpt>
      <trkpt lat="44.84203" lon="5.18795">
        <ele>634.7</ele>
        <time>2024-07-01T08:03:02Z</time>
      </trkpt>
      <trkpt lat="44.84204" lon="5.18794">
        <ele>634.8</ele>
        <time>2024-07-01T08:03:03Z</time>
      </trkpt>
      <trkpt lat="44.84204" lon="5.18792">
        <ele>635.1</ele>
        <time>2024-07-01T08:03:04Z</time>
      </trkpt>
      <trkpt lat="44.84205" lon="5.18791">
        <ele>635.2</ele>
        <time>2024-07-01T08:03:06Z</time>
      </trkpt>
      <trkpt lat="44.84205" lon="5.1879">
        <ele>635.3</ele>
        <time>2024-07-01T08:03:07Z</time>
      </trkpt>
      <trkpt lat="44.84205" lon="5.18789">
        <ele>635.4</ele>
        <time>2024-07-01T08:03:08Z</time>
      </trkpt>
      <trkpt lat="44.84205" lon="5.18789">
        <ele>635.5</ele>
        <time>2024-07-01T08:03:09Z</time>
      </trkpt>
      <trkpt lat="44.84204" lon="5.18789">
        <ele>635.5</ele>
        <time>2024-07-01T08:03:11Z</time>
      </trkpt>
      <trkpt lat="44.84204" lon="5.18789">
        <ele>635.6</ele>
        <time>2024-07-01T08:03:12Z</time>
      </trkpt>
      <trkpt lat="44.84204" lon="5.18789">
        <ele>635.6</ele>
        <time>2024-07-01T08:03:13Z</time>
      </trkpt>
      <trkpt lat="44.84204" lon="5.18788">
        <ele>635.6</ele>
        <time>2024-07-01T08:03:14Z</time>
      </trkpt>
      <trkpt lat="44.84204" lon="5.18788">
        <ele>635.7</ele>
        <time>2024-07-01T08:03:15Z</time>
      </trkpt>
      <trkpt lat="44.84204" lon="5.18788">
        <ele>635.7</ele>
        <time>2024-07-01T08:03:16Z</time>
      </trkpt>
      <trkpt lat="44.84204" lon="5.18787">
        <ele>635.8</ele>
        <time>2024-07-01T08:03:17Z</time>
      </trkpt>
      <trkpt lat="44.84204" lon="5.18787">
        <ele>635.8</ele>
        <time>2024-07-01T08:03:18Z</time>
      </trkpt>
      <trkpt lat="44.84205" lon="5.18786">
        <ele>636</ele>
        <time>2024-07-01T08:03:19Z</time>
      </trkpt>
      <trkpt lat="44.84206" lon="5.18785">
        <ele>636.1</ele>
        <time>2024-07-01T08:03:21Z</time>
      </trkpt>
      <trkpt lat="44.84207" lon="5.18786">
        <ele>636.3</ele>
        <time>2024-07-01T08:03:22Z</time>
      </trkpt>
      <trkpt lat="44.84209" lon="5.18786">
        <ele>636.5</ele>
        <time>2024-07-01T08:03:24Z</time>
      </trkpt>
      <trkpt lat="44.8421" lon="5.18787">
        <ele>636.7</ele>
        <time>2024-07-01T08:03:26Z</time>
      </trkpt>
      <trkpt lat="44.8421" lon="5.18788">
        <ele>636.8</ele>
        <time>2024-07-01T08:03:27Z</time>
      </trkpt>
      <trkpt lat="44.84211" lon="5.18789">
        <ele>636.9</ele>
        <time>2024-07-01T08:03:28Z</time>
      </trkpt>
      <trkpt lat="44.84211" lon="5.1879">
        <ele>637</ele>
        <time>2024-07-01T08:03:29Z</time>
      </trkpt>
      <trkpt lat="44.84212" lon="5.18791">
        <ele>637.2</ele>
        <time>2024-07-01T08:03:30Z</time>
      </trkpt>
      <trkpt lat="44.84212" lon="5.18791">
        <ele>637.2</ele>
        <time>2024-07-01T08:03:31Z</time>
      </trkpt>
      <trkpt lat="44.84212" lon="5.18792">
        <ele>637.4</ele>
        <time>2024-07-01T08:03:32Z</time>
      </trkpt>
      <trkpt lat="44.84214" lon="5.18793">
        <ele>637.6</ele>
        <time>2024-07-01T08:03:33Z</time>
      </trkpt>
      <trkpt lat="44.84214" lon="5.18795">
        <ele>637.7</ele>
        <time>2024-07-01T08:03:34Z</time>
      </trkpt>
      <trkpt lat="44.84214" lon="5.18798">
        <ele>638</ele>
        <time>2024-07-01T08:03:36Z</time>
      </trkpt>
      <trkpt lat="44.84215" lon="5.18801">
        <ele>638.2</ele>
        <time>2024-07-01T08:03:37Z</time>
      </trkpt>
      <trkpt lat="44.84215" lon="5.18804">
        <ele>638.5</ele>
        <time>2024-07-01T08:03:39Z</time>
      </trkpt>
      <trkpt lat="44.84214" lon="5.18805">
        <ele>638.6</ele>
        <time>2024-07-01T08:03:41Z</time>
      </trkpt>
      <trkpt lat="44.84214" lon="5.18807">
        <ele>638.7</ele>
        <time>2024-07-01T08:03:42Z</time>
      </trkpt>
      <trkpt lat="44.84214" lon="5.18808">
        <ele>638.8</ele>
        <time>2024-07-01T08:03:43Z</time>
      </trkpt>
      <trkpt lat="44.84214" lon="5.18809">
        <ele>638.9</ele>
        <time>2024-07-01T08:03:44Z</time>
      </trkpt>
      <trkpt lat="44.84214" lon="5.1881">
        <ele>638.9</ele>
        <time>2024-07-01T08:03:45Z</time>
      </trkpt>
      <trkpt lat="44.84214" lon="5.1881">
        <ele>639</ele>
        <time>2024-07-01T08:03:46Z</time>
      </trkpt>
      <trkpt lat="44.84214" lon="5.18811">
        <ele>639</ele>
        <time>2024-07-01T08:03:47Z</time>
      </trkpt>
      <trkpt lat="44.84215" lon="5.1881">
        <ele>639.1</ele>
        <time>2024-07-01T08:03:48Z</time>
      </trkpt>
      <trkpt lat="44.84215" lon="5.1881">
        <ele>639.1</ele>
        <time>2024-07-01T08:03:49Z</time>
      </trkpt>
      <trkpt lat="44.84216" lon="5.1881">
        <ele>639.2</ele>
        <time>2024-07-01T08:03:50Z</time>
      </trkpt>
      <trkpt lat="44.84217" lon="5.18811">
        <ele>639.3</ele>
        <time>2024-07-01T08:03:52Z</time>
      </trkpt>
      <trkpt lat="44.84218" lon="5.18811">
        <ele>639.4</ele>
        <time>2024-07-01T08:03:54Z</time>
      </trkpt>
      <trkpt lat="44.84219" lon="5.18811">
        <ele>639.5</ele>
        <time>2024-07-01T08:03:55Z</time>
      </trkpt>
      <trkpt lat="44.8422" lon="5.18811">
        <ele>639.6</ele>
        <time>2024-07-01T08:03:56Z</time>
      </trkpt>
      <trkpt lat="44.8422" lon="5.18812">
        <ele>639.7</ele>
        <time>2024-07-01T08:03:57Z</time>
      </trkpt>
      <trkpt lat="44.8422" lon="5.18812">
        <ele>639.7</ele>
        <time>2024-07-01T08:03:58Z</time>
      </trkpt>
      <trkpt lat="44.8422" lon="5.18812">
        <ele>639.7</ele>
        <time>2024-07-01T08:03:59Z</time>
      </trkpt>
      <trkpt lat="44.84221" lon="5.18812">
        <ele>639.8</ele>
        <time>2024-07-01T08:04:00Z</time>
      </trkpt>
      <trkpt lat="44.84221" lon="5.18813">
        <ele>639.8</ele>
        <time>2024-07-01T08:04:01Z</time>
      </trkpt>
      <trkpt lat="44.84221" lon="5.18814">
        <ele>639.9</ele>
        <time>2024-07-01T08:04:02Z</time>
      </trkpt>
      <trkpt lat="44.84221" lon="5.18815">
        <ele>639.9</ele>
        <time>2024-07-01T08:04:04Z</time>
      </trkpt>
      <trkpt lat="44.84221" lon="5.18816">
        <ele>640</ele>
        <time>2024-07-01T08:04:05Z</time>
      </trkpt>
      <trkpt lat="44.84221" lon="5.18817">
        <ele>640.1</ele>
        <time>2024-07-01T08:04:06Z</time>
      </trkpt>
      <trkpt lat="44.84222" lon="5.18818">
        <ele>640.2</ele>
        <time>2024-07-01T08:04:07Z</time>
      </trkpt>
      <trkpt lat="44.84222" lon="5.18819">
        <ele>640.3</ele>
        <time>2024-07-01T08:04:08Z</time>
      </trkpt>
      <trkpt lat="44.84222" lon="5.18819">
        <ele>640.3</ele>
        <time>2024-07-01T08:04:10Z</time>
      </trkpt>
      <trkpt lat="44.84222" lon="5.18819">
        <ele>640.3</ele>
        <time>2024-07-01T08:04:11Z</time>
      </trkpt>
      <trkpt lat="44.84222" lon="5.1882">
        <ele>640.4</ele>
        <time>2024-07-01T08:04:12Z</time>
      </trkpt>
      <trkpt lat="44.84223" lon="5.18822">
        <ele>640.5</ele>
        <time>2024-07-01T08:04:13Z</time>
      </trkpt>
      <trkpt lat="44.84224" lon="5.18824">
        <ele>640.6</ele>
        <time>2024-07-01T08:04:15Z</time>
      </trkpt>
      <trkpt lat="44.84224" lon="5.18824">
        <ele>640.7</ele>
        <time>2024-07-01T08:04:17Z</time>
      </trkpt>
      <trkpt lat="44.84224" lon="5.18824">
        <ele>640.7</ele>
        <time>2024-07-01T08:04:18Z</time>
      </trkpt>
      <trkpt lat="44.84223" lon="5.18826">
        <ele>640.9</ele>
        <time>2024-07-01T08:04:19Z</time>
      </trkpt>
      <trkpt lat="44.84223" lon="5.18826">
        <ele>640.9</ele>
        <time>2024-07-01T08:04:21Z</time>
      </trkpt>
      <trkpt lat="44.84222" lon="5.18827">
        <ele>641</ele>
        <time>2024-07-01T08:04:22Z</time>
      </trkpt>
      <trkpt lat="44.84222" lon="5.18828">
        <ele>641.1</ele>
        <time>2024-07-01T08:04:23Z</time>
      </trkpt>
      <trkpt lat="44.84222" lon="5.18828">
        <ele>641.1</ele>
        <time>2024-07-01T08:04:24Z</time>
      </trkpt>
      <trkpt lat="44.84222" lon="5.1883">
        <ele>641.2</ele>
        <time>2024-07-01T08:04:25Z</time>
      </trkpt>
      <trkpt lat="44.84222" lon="5.18832">
        <ele>641.4</ele>
        <time>2024-07-01T08:04:26Z</time>
      </trkpt>
      <trkpt lat="44.84222" lon="5.18832">
        <ele>641.4</ele>
        <time>2024-07-01T08:04:28Z</time>
      </trkpt>
      <trkpt lat="44.84222" lon="5.18833">
        <ele>641.5</ele>
        <time>2024-07-01T08:04:29Z</time>
      </trkpt>
      <trkpt lat="44.84223" lon="5.18834">
        <ele>641.6</ele>
        <time>2024-07-01T08:04:30Z</time>
      </trkpt>
      <trkpt lat="44.84223" lon="5.18835">
        <ele>641.6</ele>
        <time>2024-07-01T08:04:31Z</time>
      </trkpt>
      <trkpt lat="44.84224" lon="5.18836">
        <ele>641.8</ele>
        <time>2024-07-01T08:04:32Z</time>
      </trkpt>
      <trkpt lat="44.84224" lon="5.18837">
        <ele>641.9</ele>
        <time>2024-07-01T08:04:33Z</time>
      </trkpt>
      <trkpt lat="44.84225" lon="5.18838">
        <ele>641.9</ele>
        <time>2024-07-01T08:04:34Z</time>
      </trkpt>
      <trkpt lat="44.84225" lon="5.18839">
        <ele>642</ele>
        <time>2024-07-01T08:04:35Z</time>
      </trkpt>
      <trkpt lat="44.84225" lon="5.1884">
        <ele>642.1</ele>
        <time>2024-07-01T08:04:36Z</time>
      </trkpt>
      <trkpt lat="44.84225" lon="5.18841">
        <ele>642.2</ele>
        <time>2024-07-01T08:04:37Z</time>
      </trkpt>
      <trkpt lat="44.84225" lon="5.18842">
        <ele>642.3</ele>
        <time>2024-07-01T08:04:38Z</time>
      </trkpt>
      <trkpt lat="44.84225" lon="5.18844">
        <ele>642.3</ele>
        <time>2024-07-01T08:04:39Z</time>
      </trkpt>
      <trkpt lat="44.84225" lon="5.18845">
        <ele>642.4</ele>
        <time>2024-07-01T08:04:40Z</time>
      </trkpt>
      <trkpt lat="44.84225" lon="5.18846">
        <ele>642.5</ele>
        <time>2024-07-01T08:04:41Z</time>
      </trkpt>
      <trkpt lat="44.84224" lon="5.18847">
        <ele>642.6</ele>
        <time>2024-07-01T08:04:42Z</time>
      </trkpt>
      <trkpt lat="44.84224" lon="5.18848">
        <ele>642.7</ele>
        <time>2024-07-01T08:04:43Z</time>
      </trkpt>
      <trkpt lat="44.84223" lon="5.18849">
        <ele>642.9</ele>
        <time>2024-07-01T08:04:44Z</time>
      </trkpt>
      <trkpt lat="44.84222" lon="5.1885">
        <ele>642.9</ele>
        <time>2024-07-01T08:04:45Z</time>
      </trkpt>
      <trkpt lat="44.84222" lon="5.1885">
        <ele>643</ele>
        <time>2024-07-01T08:04:46Z</time>
      </trkpt>
      <trkpt lat="44.84223" lon="5.1885">
        <ele>643</ele>
        <time>2024-07-01T08:04:47Z</time>
      </trkpt>
      <trkpt lat="44.84223" lon="5.18849">
        <ele>643</ele>
        <time>2024-07-01T08:04:48Z</time>
      </trkpt>
      <trkpt lat="44.84223" lon="5.18849">
        <ele>643</ele>
        <time>2024-07-01T08:04:49Z</time>
      </trkpt>
      <trkpt lat="44.84223" lon="5.18849">
        <ele>643</ele>
        <time>2024-07-01T08:04:50Z</time>
      </trkpt>
      <trkpt lat="44.84223" lon="5.18849">
        <ele>643</ele>
        <time>2024-07-01T08:04:51Z</time>
      </trkpt>
      <trkpt lat="44.84223" lon="5.18849">
        <ele>643</ele>
        <time>2024-07-01T08:04:52Z</time>
      </trkpt>
      <trkpt lat="44.84223" lon="5.18849">
        <ele>643</ele>
        <time>2024-07-01T08:04:53Z</time>
      </trkpt>
      <trkpt lat="44.84223" lon="5.18849">
        <ele>643</ele>
        <time>2024-07-01T08:04:54Z</time>
      </trkpt>
      <trkpt lat="44.84222" lon="5.18849">
        <ele>643.1</ele>
        <time>2024-07-01T08:04:55Z</time>
      </trkpt>
      <trkpt lat="44.84222" lon="5.18849">
        <ele>643.1</ele>
        <time>2024-07-01T08:04:56Z</time>
      </trkpt>
      <trkpt lat="44.84222" lon="5.18849">
        <ele>643.1</ele>
        <time>2024-07-01T08:04:57Z</time>
      </trkpt>
      <trkpt lat="44.84222" lon="5.18849">
        <ele>643.1</ele>
        <time>2024-07-01T08:04:58Z</time>
      </trkpt>
      <trkpt lat="44.84222" lon="5.18849">
        <ele>643.1</ele>
        <time>2024-07-01T08:04:59Z</time>
      </trkpt>
      <trkpt lat="44.84222" lon="5.1885">
        <ele>643.1</ele>
        <time>2024-07-01T08:05:00Z</time>
      </trkpt>
      <trkpt lat="44.84222" lon="5.1885">
        <ele>643.2</ele>
        <time>2024-07-01T08:05:01Z</time>
      </trkpt>
      <trkpt lat="44.84222" lon="5.18851">
        <ele>643.2</ele>
        <time>2024-07-01T08:05:02Z</time>
      </trkpt>
      <trkpt lat="44.84222" lon="5.18851">
        <ele>643.2</ele>
        <time>2024-07-01T08:05:03Z</time>
      </trkpt>
      <trkpt lat="44.84222" lon="5.18851">
        <ele>643.3</ele>
        <time>2024-07-01T08:05:04Z</time>
      </trkpt>
      <trkpt lat="44.84222" lon="5.18852">
        <ele>643.3</ele>
        <time>2024-07-01T08:05:05Z</time>
      </trkpt>
      <trkpt lat="44.84221" lon="5.18852">
        <ele>643.3</ele>
        <time>2024-07-01T08:05:06Z</time>
      </trkpt>
      <trkpt lat="44.84221" lon="5.18852">
        <ele>643.4</ele>
        <time>2024-07-01T08:05:07Z</time>
      </trkpt>
      <trkpt lat="44.84221" lon="5.18852">
        <ele>643.4</ele>
        <time>2024-07-01T08:05:08Z</time>
      </trkpt>
      <trkpt lat="44.84221" lon="5.18853">
        <ele>643.4</ele>
        <time>2024-07-01T08:05:09Z</time>
      </trkpt>
      <trkpt lat="44.84221" lon="5.18853">
        <ele>643.4</ele>
        <time>2024-07-01T08:05:10Z</time>
      </trkpt>
      <trkpt lat="44.84221" lon="5.18853">
        <ele>643.4</ele>
        <time>2024-07-01T08:05:11Z</time>
      </trkpt>
      <trkpt lat="44.84221" lon="5.18853">
        <ele>643.5</ele>
        <time>2024-07-01T08:05:12Z</time>
      </trkpt>
      <trkpt lat="44.84221" lon="5.18854">
        <ele>643.5</ele>
        <time>2024-07-01T08:05:13Z</time>
      </trkpt>
      <trkpt lat="44.84221" lon="5.18854">
        <ele>643.6</ele>
        <time>2024-07-01T08:05:14Z</time>
      </trkpt>
      <trkpt lat="44.84221" lon="5.18855">
        <ele>643.6</ele>
        <time>2024-07-01T08:05:15Z</time>
      </trkpt>
      <trkpt lat="44.8422" lon="5.18855">
        <ele>643.6</ele>
        <time>2024-07-01T08:05:16Z</time>
      </trkpt>
      <trkpt lat="44.8422" lon="5.18855">
        <ele>643.6</ele>
        <time>2024-07-01T08:05:17Z</time>
      </trkpt>
      <trkpt lat="44.8422" lon="5.18856">
        <ele>643.7</ele>
        <time>2024-07-01T08:05:18Z</time>
      </trkpt>
      <trkpt lat="44.8422" lon="5.18856">
        <ele>643.7</ele>
        <time>2024-07-01T08:05:19Z</time>
      </trkpt>
      <trkpt lat="44.8422" lon="5.18856">
        <ele>643.7</ele>
        <time>2024-07-01T08:05:20Z</time>
      </trkpt>
      <trkpt lat="44.8422" lon="5.18856">
        <ele>643.7</ele>
        <time>2024-07-01T08:05:21Z</time>
      </trkpt>
      <trkpt lat="44.8422" lon="5.18856">
        <ele>643.7</ele>
        <time>2024-07-01T08:05:22Z</time>
      </trkpt>
      <trkpt lat="44.8422" lon="5.18857">
        <ele>643.7</ele>
        <time>2024-07-01T08:05:23Z</time>
      </trkpt>
      <trkpt lat="44.8422" lon="5.18857">
        <ele>643.7</ele>
        <time>2024-07-01T08:05:24Z</time>
      </trkpt>
      <trkpt lat="44.8422" lon="5.18857">
        <ele>643.7</ele>
        <time>2024-07-01T08:05:25Z</time>
      </trkpt>
      <trkpt lat="44.8422" lon="5.18857">
        <ele>643.7</ele>
        <time>2024-07-01T08:05:26Z</time>
      </trkpt>
      <trkpt lat="44.8422" lon="5.18857">
        <ele>643.7</ele>
        <time>2024-07-01T08:05:27Z</time>
      </trkpt>
      <trkpt lat="44.8422" lon="5.18857">
        <ele>643.8</ele>
        <time>2024-07-01T08:05:28Z</time>
      </trkpt>
      <trkpt lat="44.8422" lon="5.18857">
        <ele>643.8</ele>
        <time>2024-07-01T08:05:29Z</time>
      </trkpt>
      <trkpt lat="44.8422" lon="5.18857">
        <ele>643.8</ele>
        <time>2024-07-01T08:05:30Z</time>
      </trkpt>
      <trkpt lat="44.8422" lon="5.18858">
        <ele>643.8</ele>
        <time>2024-07-01T08:05:31Z</time>
      </trkpt>
      <trkpt lat="44.8422" lon="5.18858">
        <ele>643.8</ele>
        <time>2024-07-01T08:05:32Z</time>
      </trkpt>
      <trkpt lat="44.8422" lon="5.18858">
        <ele>643.8</ele>
        <time>2024-07-01T08:05:33Z</time>
      </trkpt>
      <trkpt lat="44.8422" lon="5.18858">
        <ele>643.8</ele>
        <time>2024-07-01T08:05:34Z</time>
      </trkpt>
      <trkpt lat="44.8422" lon="5.18858">
        <ele>643.8</ele>
        <time>2024-07-01T08:05:35Z</time>
      </trkpt>
      <trkpt lat="44.8422" lon="5.18857">
        <ele>643.8</ele>
        <time>2024-07-01T08:05:36Z</time>
      </trkpt>
      <trkpt lat="44.8422" lon="5.18856">
        <ele>643.9</ele>
        <time>2024-07-01T08:05:37Z</time>
      </trkpt>
      <trkpt lat="44.8422" lon="5.18856">
        <ele>644</ele>
        <time>2024-07-01T08:05:38Z</time>
      </trkpt>
      <trkpt lat="44.84219" lon="5.18856">
        <ele>644</ele>
        <time>2024-07-01T08:05:39Z</time>
      </trkpt>
      <trkpt lat="44.84218" lon="5.18857">
        <ele>644.1</ele>
        <time>2024-07-01T08:05:40Z</time>
      </trkpt>
      <trkpt lat="44.84218" lon="5.18857">
        <ele>644.1</ele>
        <time>2024-07-01T08:05:41Z</time>
      </trkpt>
      <trkpt lat="44.84218" lon="5.18857">
        <ele>644.1</ele>
        <time>2024-07-01T08:05:42Z</time>
      </trkpt>
      <trkpt lat="44.84218" lon="5.18857">
        <ele>644.1</ele>
        <time>2024-07-01T08:05:43Z</time>
      </trkpt>
      <trkpt lat="44.84218" lon="5.18857">
        <ele>644.2</ele>
        <time>2024-07-01T08:05:44Z</time>
      </trkpt>
      <trkpt lat="44.84218" lon="5.18858">
        <ele>644.2</ele>
        <time>2024-07-01T08:05:45Z</time>
      </trkpt>
      <trkpt lat="44.84218" lon="5.18858">
        <ele>644.2</ele>
        <time>2024-07-01T08:05:46Z</time>
      </trkpt>
      <trkpt lat="44.84218" lon="5.18858">
        <ele>644.2</ele>
        <time>2024-07-01T08:05:47Z</time>
      </trkpt>
      <trkpt lat="44.84218" lon="5.18858">
        <ele>644.2</ele>
        <time>2024-07-01T08:05:48Z</time>
      </trkpt>
      <trkpt lat="44.84218" lon="5.18858">
        <ele>644.2</ele>
        <time>2024-07-01T08:05:49Z</time>
      </trkpt>
      <trkpt lat="44.84218" lon="5.18858">
        <ele>644.2</ele>
        <time>2024-07-01T08:05:50Z</time>
      </trkpt>
      <trkpt lat="44.84218" lon="5.18858">
        <ele>644.2</ele>
        <time>2024-07-01T08:05:51Z</time>
      </trkpt>
      <trkpt lat="44.84218" lon="5.18858">
        <ele>644.3</ele>
        <time>2024-07-01T08:05:52Z</time>
      </trkpt>
      <trkpt lat="44.84218" lon="5.18858">
        <ele>644.3</ele>
        <time>2024-07-01T08:05:53Z</time>
      </trkpt>
      <trkpt lat="44.84218" lon="5.18858">
        <ele>644.3</ele>
        <time>2024-07-01T08:05:54Z</time>
      </trkpt>
      <trkpt lat="44.84218" lon="5.18858">
        <ele>644.3</ele>
        <time>2024-07-01T08:05:55Z</time>
      </trkpt>
      <trkpt lat="44.84218" lon="5.18859">
        <ele>644.4</ele>
        <time>2024-07-01T08:05:56Z</time>
      </trkpt>
      <trkpt lat="44.84219" lon="5.18859">
        <ele>644.4</ele>
        <time>2024-07-01T08:05:57Z</time>
      </trkpt>
      <trkpt lat="44.84219" lon="5.18859">
        <ele>644.4</ele>
        <time>2024-07-01T08:05:58Z</time>
      </trkpt>
      <trkpt lat="44.84219" lon="5.1886">
        <ele>644.4</ele>
        <time>2024-07-01T08:05:59Z</time>
      </trkpt>
      <trkpt lat="44.84219" lon="5.1886">
        <ele>644.4</ele>
        <time>2024-07-01T08:06:00Z</time>
      </trkpt>
      <trkpt lat="44.84219" lon="5.1886">
        <ele>644.5</ele>
        <time>2024-07-01T08:06:01Z</time>
      </trkpt>
      <trkpt lat="44.84218" lon="5.1886">
        <ele>644.5</ele>
        <time>2024-07-01T08:06:02Z</time>
      </trkpt>
      <trkpt lat="44.84218" lon="5.1886">
        <ele>644.5</ele>
        <time>2024-07-01T08:06:03Z</time>
      </trkpt>
      <trkpt lat="44.84218" lon="5.1886">
        <ele>644.5</ele>
        <time>2024-07-01T08:06:04Z</time>
      </trkpt>
      <trkpt lat="44.84218" lon="5.1886">
        <ele>644.5</ele>
        <time>2024-07-01T08:06:05Z</time>
      </trkpt>
      <trkpt lat="44.84218" lon="5.1886">
        <ele>644.5</ele>
        <time>2024-07-01T08:06:06Z</time>
      </trkpt>
      <trkpt lat="44.84218" lon="5.18861">
        <ele>644.5</ele>
        <time>2024-07-01T08:06:07Z</time>
      </trkpt>
      <trkpt lat="44.84218" lon="5.1886">
        <ele>644.5</ele>
        <time>2024-07-01T08:06:08Z</time>
      </trkpt>
      <trkpt lat="44.84218" lon="5.1886">
        <ele>644.5</ele>
        <time>2024-07-01T08:06:09Z</time>
      </trkpt>
      <trkpt lat="44.84218" lon="5.1886">
        <ele>644.5</ele>
        <time>2024-07-01T08:06:10Z</time>
      </trkpt>
      <trkpt lat="44.84218" lon="5.1886">
        <ele>644.5</ele>
        <time>2024-07-01T08:06:11Z</time>
      </trkpt>
      <trkpt lat="44.84218" lon="5.18861">
        <ele>644.5</ele>
        <time>2024-07-01T08:06:12Z</time>
      </trkpt>
      <trkpt lat="44.84218" lon="5.18861">
        <ele>644.5</ele>
        <time>2024-07-01T08:06:13Z</time>
      </trkpt>
      <trkpt lat="44.84218" lon="5.18861">
        <ele>644.5</ele>
        <time>2024-07-01T08:06:14Z</time>
      </trkpt>
      <trkpt lat="44.84218" lon="5.1886">
        <ele>644.5</ele>
        <time>2024-07-01T08:06:15Z</time>
      </trkpt>
      <trkpt lat="44.84218" lon="5.1886">
        <ele>644.5</ele>
        <time>2024-07-01T08:06:16Z</time>
      </trkpt>
      <trkpt lat="44.84218" lon="5.1886">
        <ele>644.5</ele>
        <time>2024-07-01T08:06:17Z</time>
      </trkpt>
      <trkpt lat="44.84218" lon="5.18861">
        <ele>644.5</ele>
        <time>2024-07-01T08:06:18Z</time>
      </trkpt>
      <trkpt lat="44.84218" lon="5.18861">
        <ele>644.5</ele>
        <time>2024-07-01T08:06:19Z</time>
      </trkpt>
      <trkpt lat="44.84218" lon="5.18861">
        <ele>644.6</ele>
        <time>2024-07-01T08:06:20Z</time>
      </trkpt>
      <trkpt lat="44.84218" lon="5.18861">
        <ele>644.6</ele>
        <time>2024-07-01T08:06:21Z</time>
      </trkpt>
      <trkpt lat="44.84218" lon="5.18861">
        <ele>644.6</ele>
        <time>2024-07-01T08:06:22Z</time>
      </trkpt>
      <trkpt lat="44.84218" lon="5.18861">
        <ele>644.6</ele>
        <time>2024-07-01T08:06:23Z</time>
      </trkpt>
      <trkpt lat="44.84218" lon="5.1886">
        <ele>644.6</ele>
        <time>2024-07-01T08:06:24Z</time>
      </trkpt>
      <trkpt lat="44.84218" lon="5.18861">
        <ele>644.6</ele>
        <time>2024-07-01T08:06:25Z</time>
      </trkpt>
      <trkpt lat="44.84219" lon="5.18861">
        <ele>644.7</ele>
        <time>2024-07-01T08:06:26Z</time>
      </trkpt>
      <trkpt lat="44.84219" lon="5.18861">
        <ele>644.7</ele>
        <time>2024-07-01T08:06:27Z</time>
      </trkpt>
      <trkpt lat="44.84219" lon="5.18861">
        <ele>644.7</ele>
        <time>2024-07-01T08:06:28Z</time>
      </trkpt>
      <trkpt lat="44.84219" lon="5.1886">
        <ele>644.7</ele>
        <time>2024-07-01T08:06:29Z</time>
      </trkpt>
      <trkpt lat="44.8422" lon="5.1886">
        <ele>644.8</ele>
        <time>2024-07-01T08:06:30Z</time>
      </trkpt>
      <trkpt lat="44.8422" lon="5.18859">
        <ele>644.8</ele>
        <time>2024-07-01T08:06:31Z</time>
      </trkpt>
      <trkpt lat="44.84221" lon="5.18859">
        <ele>644.8</ele>
        <time>2024-07-01T08:06:32Z</time>
      </trkpt>
      <trkpt lat="44.84222" lon="5.18859">
        <ele>644.9</ele>
        <time>2024-07-01T08:06:33Z</time>
      </trkpt>
      <trkpt lat="44.84221" lon="5.18859">
        <ele>644.9</ele>
        <time>2024-07-01T08:06:34Z</time>
      </trkpt>
      <trkpt lat="44.84222" lon="5.18859">
        <ele>645</ele>
        <time>2024-07-01T08:06:35Z</time>
      </trkpt>
      <trkpt lat="44.84222" lon="5.1886">
        <ele>645</ele>
        <time>2024-07-01T08:06:36Z</time>
      </trkpt>
      <trkpt lat="44.84224" lon="5.18861">
        <ele>645.1</ele>
        <time>2024-07-01T08:06:37Z</time>
      </trkpt>
      <trkpt lat="44.84225" lon="5.18863">
        <ele>645.3</ele>
        <time>2024-07-01T08:06:39Z</time>
      </trkpt>
      <trkpt lat="44.84227" lon="5.18863">
        <ele>645.4</ele>
        <time>2024-07-01T08:06:41Z</time>
      </trkpt>
      <trkpt lat="44.84228" lon="5.18863">
        <ele>645.5</ele>
        <time>2024-07-01T08:06:43Z</time>
      </trkpt>
      <trkpt lat="44.84229" lon="5.18863">
        <ele>645.5</ele>
        <time>2024-07-01T08:06:44Z</time>
      </trkpt>
      <trkpt lat="44.8423" lon="5.18862">
        <ele>645.6</ele>
        <time>2024-07-01T08:06:45Z</time>
      </trkpt>
      <trkpt lat="44.84232" lon="5.18861">
        <ele>645.7</ele>
        <time>2024-07-01T08:06:46Z</time>
      </trkpt>
      <trkpt lat="44.84233" lon="5.18862">
        <ele>645.8</ele>
        <time>2024-07-01T08:06:48Z</time>
      </trkpt>
      <trkpt lat="44.84235" lon="5.18862">
        <ele>645.9</ele>
        <time>2024-07-01T08:06:49Z</time>
      </trkpt>
      <trkpt lat="44.84236" lon="5.18863">
        <ele>645.9</ele>
        <time>2024-07-01T08:06:50Z</time>
      </trkpt>
      <trkpt lat="44.84237" lon="5.18864">
        <ele>646.1</ele>
        <time>2024-07-01T08:06:51Z</time>
      </trkpt>
      <trkpt lat="44.84238" lon="5.18865">
        <ele>646.1</ele>
        <time>2024-07-01T08:06:52Z</time>
      </trkpt>
      <trkpt lat="44.84238" lon="5.18866">
        <ele>646.2</ele>
        <time>2024-07-01T08:06:53Z</time>
      </trkpt>
      <trkpt lat="44.84239" lon="5.18867">
        <ele>646.3</ele>
        <time>2024-07-01T08:06:54Z</time>
      </trkpt>
      <trkpt lat="44.8424" lon="5.18868">
        <ele>646.3</ele>
        <time>2024-07-01T08:06:55Z</time>
      </trkpt>
      <trkpt lat="44.84241" lon="5.1887">
        <ele>646.5</ele>
        <time>2024-07-01T08:06:56Z</time>
      </trkpt>
      <trkpt lat="44.84242" lon="5.18871">
        <ele>646.5</ele>
        <time>2024-07-01T08:06:58Z</time>
      </trkpt>
      <trkpt lat="44.84242" lon="5.18873">
        <ele>646.6</ele>
        <time>2024-07-01T08:06:59Z</time>
      </trkpt>
      <trkpt lat="44.84244" lon="5.18873">
        <ele>646.7</ele>
        <time>2024-07-01T08:07:00Z</time>
      </trkpt>
      <trkpt lat="44.84245" lon="5.18873">
        <ele>646.8</ele>
        <time>2024-07-01T08:07:02Z</time>
      </trkpt>
      <trkpt lat="44.84245" lon="5.18873">
        <ele>646.9</ele>
        <time>2024-07-01T08:07:03Z</time>
      </trkpt>
      <trkpt lat="44.84246" lon="5.18873">
        <ele>646.9</ele>
        <time>2024-07-01T08:07:04Z</time>
      </trkpt>
      <trkpt lat="44.84247" lon="5.18873">
        <ele>647</ele>
        <time>2024-07-01T08:07:05Z</time>
      </trkpt>
      <trkpt lat="44.84248" lon="5.18873">
        <ele>647.1</ele>
        <time>2024-07-01T08:07:06Z</time>
      </trkpt>
      <trkpt lat="44.84249" lon="5.18874">
        <ele>647.1</ele>
        <time>2024-07-01T08:07:07Z</time>
      </trkpt>
      <trkpt lat="44.8425" lon="5.18874">
        <ele>647.2</ele>
        <time>2024-07-01T08:07:08Z</time>
      </trkpt>
      <trkpt lat="44.8425" lon="5.18874">
        <ele>647.3</ele>
        <time>2024-07-01T08:07:09Z</time>
      </trkpt>
      <trkpt lat="44.84251" lon="5.18874">
        <ele>647.3</ele>
        <time>2024-07-01T08:07:10Z</time>
      </trkpt>
      <trkpt lat="44.84252" lon="5.18874">
        <ele>647.4</ele>
        <time>2024-07-01T08:07:11Z</time>
      </trkpt>
      <trkpt lat="44.84253" lon="5.18874">
        <ele>647.5</ele>
        <time>2024-07-01T08:07:12Z</time>
      </trkpt>
      <trkpt lat="44.84254" lon="5.18874">
        <ele>647.6</ele>
        <time>2024-07-01T08:07:13Z</time>
      </trkpt>
      <trkpt lat="44.84255" lon="5.18874">
        <ele>647.7</ele>
        <time>2024-07-01T08:07:14Z</time>
      </trkpt>
      <trkpt lat="44.84256" lon="5.18873">
        <ele>647.7</ele>
        <time>2024-07-01T08:07:15Z</time>
      </trkpt>
      <trkpt lat="44.84257" lon="5.18873">
        <ele>647.8</ele>
        <time>2024-07-01T08:07:16Z</time>
      </trkpt>
      <trkpt lat="44.84258" lon="5.18872">
        <ele>647.9</ele>
        <time>2024-07-01T08:07:17Z</time>
      </trkpt>
      <trkpt lat="44.84258" lon="5.18872">
        <ele>648</ele>
        <time>2024-07-01T08:07:18Z</time>
      </trkpt>
      <trkpt lat="44.84259" lon="5.18871">
        <ele>648.1</ele>
        <time>2024-07-01T08:07:19Z</time>
      </trkpt>
      <trkpt lat="44.8426" lon="5.1887">
        <ele>648.1</ele>
        <time>2024-07-01T08:07:20Z</time>
      </trkpt>
      <trkpt lat="44.84261" lon="5.18869">
        <ele>648.2</ele>
        <time>2024-07-01T08:07:21Z</time>
      </trkpt>
      <trkpt lat="44.84262" lon="5.18868">
        <ele>648.3</ele>
        <time>2024-07-01T08:07:22Z</time>
      </trkpt>
      <trkpt lat="44.84262" lon="5.18867">
        <ele>648.4</ele>
        <time>2024-07-01T08:07:23Z</time>
      </trkpt>
      <trkpt lat="44.84264" lon="5.18864">
        <ele>648.7</ele>
        <time>2024-07-01T08:07:24Z</time>
      </trkpt>
      <trkpt lat="44.84265" lon="5.18863">
        <ele>648.8</ele>
        <time>2024-07-01T08:07:26Z</time>
      </trkpt>
      <trkpt lat="44.84265" lon="5.18862">
        <ele>648.9</ele>
        <time>2024-07-01T08:07:27Z</time>
      </trkpt>
      <trkpt lat="44.84266" lon="5.18861">
        <ele>648.9</ele>
        <time>2024-07-01T08:07:28Z</time>
      </trkpt>
      <trkpt lat="44.84267" lon="5.1886">
        <ele>649.1</ele>
        <time>2024-07-01T08:07:29Z</time>
      </trkpt>
      <trkpt lat="44.84268" lon="5.18858">
        <ele>649.2</ele>
        <time>2024-07-01T08:07:30Z</time>
      </trkpt>
      <trkpt lat="44.84268" lon="5.18858">
        <ele>649.3</ele>
        <time>2024-07-01T08:07:31Z</time>
      </trkpt>
      <trkpt lat="44.84269" lon="5.18856">
        <ele>649.4</ele>
        <time>2024-07-01T08:07:32Z</time>
      </trkpt>
      <trkpt lat="44.84269" lon="5.18856">
        <ele>649.4</ele>
        <time>2024-07-01T08:07:33Z</time>
      </trkpt>
      <trkpt lat="44.8427" lon="5.18855">
        <ele>649.5</ele>
        <time>2024-07-01T08:07:34Z</time>
      </trkpt>
      <trkpt lat="44.84271" lon="5.18854">
        <ele>649.6</ele>
        <time>2024-07-01T08:07:35Z</time>
      </trkpt>
      <trkpt lat="44.84271" lon="5.18854">
        <ele>649.7</ele>
        <time>2024-07-01T08:07:36Z</time>
      </trkpt>
      <trkpt lat="44.84272" lon="5.18853">
        <ele>649.8</ele>
        <time>2024-07-01T08:07:37Z</time>
      </trkpt>
      <trkpt lat="44.84273" lon="5.18853">
        <ele>649.8</ele>
        <time>2024-07-01T08:07:38Z</time>
      </trkpt>
      <trkpt lat="44.84273" lon="5.18853">
        <ele>649.9</ele>
        <time>2024-07-01T08:07:39Z</time>
      </trkpt>
      <trkpt lat="44.84275" lon="5.18852">
        <ele>650.1</ele>
        <time>2024-07-01T08:07:40Z</time>
      </trkpt>
      <trkpt lat="44.84276" lon="5.18852">
        <ele>650.2</ele>
        <time>2024-07-01T08:07:42Z</time>
      </trkpt>
      <trkpt lat="44.84277" lon="5.18852">
        <ele>650.3</ele>
        <time>2024-07-01T08:07:43Z</time>
      </trkpt>
      <trkpt lat="44.84278" lon="5.18851">
        <ele>650.4</ele>
        <time>2024-07-01T08:07:44Z</time>
      </trkpt>
      <trkpt lat="44.8428" lon="5.18851">
        <ele>650.6</ele>
        <time>2024-07-01T08:07:45Z</time>
      </trkpt>
      <trkpt lat="44.84281" lon="5.1885">
        <ele>650.8</ele>
        <time>2024-07-01T08:07:46Z</time>
      </trkpt>
      <trkpt lat="44.84282" lon="5.18849">
        <ele>650.9</ele>
        <time>2024-07-01T08:07:48Z</time>
      </trkpt>
      <trkpt lat="44.84283" lon="5.18848">
        <ele>651</ele>
        <time>2024-07-01T08:07:49Z</time>
      </trkpt>
      <trkpt lat="44.84284" lon="5.18848">
        <ele>651.1</ele>
        <time>2024-07-01T08:07:50Z</time>
      </trkpt>
      <trkpt lat="44.84285" lon="5.18847">
        <ele>651.2</ele>
        <time>2024-07-01T08:07:51Z</time>
      </trkpt>
      <trkpt lat="44.84286" lon="5.18846">
        <ele>651.3</ele>
        <time>2024-07-01T08:07:52Z</time>
      </trkpt>
      <trkpt lat="44.84287" lon="5.18845">
        <ele>651.4</ele>
        <time>2024-07-01T08:07:53Z</time>
      </trkpt>
      <trkpt lat="44.84287" lon="5.18845">
        <ele>651.5</ele>
        <time>2024-07-01T08:07:54Z</time>
      </trkpt>
      <trkpt lat="44.84288" lon="5.18844">
        <ele>651.6</ele>
        <time>2024-07-01T08:07:55Z</time>
      </trkpt>
      <trkpt lat="44.84289" lon="5.18843">
        <ele>651.7</ele>
        <time>2024-07-01T08:07:56Z</time>
      </trkpt>
      <trkpt lat="44.8429" lon="5.18843">
        <ele>651.8</ele>
        <time>2024-07-01T08:07:57Z</time>
      </trkpt>
      <trkpt lat="44.84291" lon="5.18842">
        <ele>651.9</ele>
        <time>2024-07-01T08:07:58Z</time>
      </trkpt>
      <trkpt lat="44.84291" lon="5.18841">
        <ele>652</ele>
        <time>2024-07-01T08:07:59Z</time>
      </trkpt>
      <trkpt lat="44.84292" lon="5.18841">
        <ele>652.1</ele>
        <time>2024-07-01T08:08:00Z</time>
      </trkpt>
      <trkpt lat="44.84293" lon="5.18841">
        <ele>652.2</ele>
        <time>2024-07-01T08:08:01Z</time>
      </trkpt>
      <trkpt lat="44.84294" lon="5.1884">
        <ele>652.3</ele>
        <time>2024-07-01T08:08:02Z</time>
      </trkpt>
      <trkpt lat="44.84296" lon="5.1884">
        <ele>652.5</ele>
        <time>2024-07-01T08:08:03Z</time>
      </trkpt>
      <trkpt lat="44.84297" lon="5.1884">
        <ele>652.6</ele>
        <time>2024-07-01T08:08:05Z</time>
      </trkpt>
      <trkpt lat="44.84299" lon="5.18839">
        <ele>652.8</ele>
        <time>2024-07-01T08:08:06Z</time>
      </trkpt>
      <trkpt lat="44.843" lon="5.18838">
        <ele>652.9</ele>
        <time>2024-07-01T08:08:08Z</time>
      </trkpt>
      <trkpt lat="44.843" lon="5.18838">
        <ele>653</ele>
        <time>2024-07-01T08:08:09Z</time>
      </trkpt>
      <trkpt lat="44.84301" lon="5.18838">
        <ele>653.1</ele>
        <time>2024-07-01T08:08:10Z</time>
      </trkpt>
      <trkpt lat="44.84302" lon="5.18838">
        <ele>653.2</ele>
        <time>2024-07-01T08:08:11Z</time>
      </trkpt>
      <trkpt lat="44.84303" lon="5.18838">
        <ele>653.3</ele>
        <time>2024-07-01T08:08:12Z</time>
      </trkpt>
      <trkpt lat="44.84304" lon="5.18836">
        <ele>653.5</ele>
        <time>2024-07-01T08:08:13Z</time>
      </trkpt>
      <trkpt lat="44.84305" lon="5.18836">
        <ele>653.5</ele>
        <time>2024-07-01T08:08:14Z</time>
      </trkpt>
      <trkpt lat="44.84305" lon="5.18835">
        <ele>653.6</ele>
        <time>2024-07-01T08:08:15Z</time>
      </trkpt>
      <trkpt lat="44.84306" lon="5.18834">
        <ele>653.7</ele>
        <time>2024-07-01T08:08:16Z</time>
      </trkpt>
      <trkpt lat="44.84306" lon="5.18833">
        <ele>653.8</ele>
        <time>2024-07-01T08:08:17Z</time>
      </trkpt>
      <trkpt lat="44.84307" lon="5.18832">
        <ele>653.9</ele>
        <time>2024-07-01T08:08:18Z</time>
      </trkpt>
      <trkpt lat="44.84308" lon="5.18831">
        <ele>654</ele>
        <time>2024-07-01T08:08:19Z</time>
      </trkpt>
      <trkpt lat="44.84309" lon="5.18831">
        <ele>654.1</ele>
        <time>2024-07-01T08:08:20Z</time>
      </trkpt>
      <trkpt lat="44.84309" lon="5.1883">
        <ele>654.2</ele>
        <time>2024-07-01T08:08:21Z</time>
      </trkpt>
      <trkpt lat="44.8431" lon="5.1883">
        <ele>654.2</ele>
        <time>2024-07-01T08:08:22Z</time>
      </trkpt>
      <trkpt lat="44.84311" lon="5.18829">
        <ele>654.4</ele>
        <time>2024-07-01T08:08:23Z</time>
      </trkpt>
      <trkpt lat="44.84312" lon="5.18828">
        <ele>654.4</ele>
        <time>2024-07-01T08:08:24Z</time>
      </trkpt>
      <trkpt lat="44.84312" lon="5.18828">
        <ele>654.5</ele>
        <time>2024-07-01T08:08:25Z</time>
      </trkpt>
      <trkpt lat="44.84313" lon="5.18827">
        <ele>654.6</ele>
        <time>2024-07-01T08:08:26Z</time>
      </trkpt>
      <trkpt lat="44.84314" lon="5.18826">
        <ele>654.7</ele>
        <time>2024-07-01T08:08:27Z</time>
      </trkpt>
      <trkpt lat="44.84315" lon="5.18826">
        <ele>654.8</ele>
        <time>2024-07-01T08:08:28Z</time>
      </trkpt>
      <trkpt lat="44.84316" lon="5.18825">
        <ele>654.9</ele>
        <time>2024-07-01T08:08:29Z</time>
      </trkpt>
      <trkpt lat="44.84316" lon="5.18825">
        <ele>655</ele>
        <time>2024-07-01T08:08:30Z</time>
      </trkpt>
      <trkpt lat="44.84318" lon="5.18824">
        <ele>655.2</ele>
        <time>2024-07-01T08:08:31Z</time>
      </trkpt>
      <trkpt lat="44.8432" lon="5.18823">
        <ele>655.3</ele>
        <time>2024-07-01T08:08:33Z</time>
      </trkpt>
      <trkpt lat="44.8432" lon="5.18823">
        <ele>655.4</ele>
        <time>2024-07-01T08:08:34Z</time>
      </trkpt>
      <trkpt lat="44.84321" lon="5.18823">
        <ele>655.5</ele>
        <time>2024-07-01T08:08:36Z</time>
      </trkpt>
      <trkpt lat="44.84322" lon="5.18822">
        <ele>655.6</ele>
        <time>2024-07-01T08:08:37Z</time>
      </trkpt>
      <trkpt lat="44.84323" lon="5.18822">
        <ele>655.7</ele>
        <time>2024-07-01T08:08:38Z</time>
      </trkpt>
      <trkpt lat="44.84325" lon="5.18821">
        <ele>655.9</ele>
        <time>2024-07-01T08:08:39Z</time>
      </trkpt>
      <trkpt lat="44.84326" lon="5.18821">
        <ele>656</ele>
        <time>2024-07-01T08:08:41Z</time>
      </trkpt>
      <trkpt lat="44.84328" lon="5.18821">
        <ele>656.2</ele>
        <time>2024-07-01T08:08:42Z</time>
      </trkpt>
      <trkpt lat="44.84329" lon="5.18821">
        <ele>656.3</ele>
        <time>2024-07-01T08:08:44Z</time>
      </trkpt>
      <trkpt lat="44.84329" lon="5.18821">
        <ele>656.4</ele>
        <time>2024-07-01T08:08:45Z</time>
      </trkpt>
      <trkpt lat="44.8433" lon="5.18821">
        <ele>656.4</ele>
        <time>2024-07-01T08:08:46Z</time>
      </trkpt>
      <trkpt lat="44.84331" lon="5.1882">
        <ele>656.5</ele>
        <time>2024-07-01T08:08:47Z</time>
      </trkpt>
      <trkpt lat="44.84332" lon="5.1882">
        <ele>656.6</ele>
        <time>2024-07-01T08:08:48Z</time>
      </trkpt>
      <trkpt lat="44.84333" lon="5.18819">
        <ele>656.7</ele>
        <time>2024-07-01T08:08:49Z</time>
      </trkpt>
      <trkpt lat="44.84334" lon="5.18819">
        <ele>656.9</ele>
        <time>2024-07-01T08:08:50Z</time>
      </trkpt>
      <trkpt lat="44.84335" lon="5.18818">
        <ele>657</ele>
        <time>2024-07-01T08:08:52Z</time>
      </trkpt>
      <trkpt lat="44.84336" lon="5.18818">
        <ele>657</ele>
        <time>2024-07-01T08:08:53Z</time>
      </trkpt>
      <trkpt lat="44.84337" lon="5.18817">
        <ele>657.2</ele>
        <time>2024-07-01T08:08:54Z</time>
      </trkpt>
      <trkpt lat="44.84338" lon="5.18816">
        <ele>657.2</ele>
        <time>2024-07-01T08:08:55Z</time>
      </trkpt>
      <trkpt lat="44.8434" lon="5.18815">
        <ele>657.4</ele>
        <time>2024-07-01T08:08:56Z</time>
      </trkpt>
      <trkpt lat="44.8434" lon="5.18815">
        <ele>657.5</ele>
        <time>2024-07-01T08:08:58Z</time>
      </trkpt>
      <trkpt lat="44.84341" lon="5.18815">
        <ele>657.6</ele>
        <time>2024-07-01T08:08:59Z</time>
      </trkpt>
      <trkpt lat="44.84342" lon="5.18814">
        <ele>657.7</ele>
        <time>2024-07-01T08:09:00Z</time>
      </trkpt>
      <trkpt lat="44.84343" lon="5.18814">
        <ele>657.7</ele>
        <time>2024-07-01T08:09:01Z</time>
      </trkpt>
      <trkpt lat="44.84344" lon="5.18813">
        <ele>657.8</ele>
        <time>2024-07-01T08:09:02Z</time>
      </trkpt>
      <trkpt lat="44.84344" lon="5.18812">
        <ele>657.8</ele>
        <time>2024-07-01T08:09:03Z</time>
      </trkpt>
      <trkpt lat="44.84345" lon="5.18811">
        <ele>657.9</ele>
        <time>2024-07-01T08:09:04Z</time>
      </trkpt>
      <trkpt lat="44.84346" lon="5.18811">
        <ele>658</ele>
        <time>2024-07-01T08:09:05Z</time>
      </trkpt>
      <trkpt lat="44.84346" lon="5.18811">
        <ele>658.1</ele>
        <time>2024-07-01T08:09:06Z</time>
      </trkpt>
      <trkpt lat="44.84347" lon="5.18811">
        <ele>658.2</ele>
        <time>2024-07-01T08:09:07Z</time>
      </trkpt>
      <trkpt lat="44.84348" lon="5.1881">
        <ele>658.2</ele>
        <time>2024-07-01T08:09:08Z</time>
      </trkpt>
      <trkpt lat="44.8435" lon="5.18809">
        <ele>658.4</ele>
        <time>2024-07-01T08:09:09Z</time>
      </trkpt>
      <trkpt lat="44.8435" lon="5.18809">
        <ele>658.4</ele>
        <time>2024-07-01T08:09:11Z</time>
      </trkpt>
      <trkpt lat="44.84351" lon="5.18808">
        <ele>658.5</ele>
        <time>2024-07-01T08:09:12Z</time>
      </trkpt>
      <trkpt lat="44.84352" lon="5.18808">
        <ele>658.5</ele>
        <time>2024-07-01T08:09:13Z</time>
      </trkpt>
      <trkpt lat="44.84353" lon="5.18808">
        <ele>658.7</ele>
        <time>2024-07-01T08:09:14Z</time>
      </trkpt>
      <trkpt lat="44.84354" lon="5.18808">
        <ele>658.7</ele>
        <time>2024-07-01T08:09:15Z</time>
      </trkpt>
      <trkpt lat="44.84355" lon="5.18808">
        <ele>658.8</ele>
        <time>2024-07-01T08:09:16Z</time>
      </trkpt>
      <trkpt lat="44.84355" lon="5.18808">
        <ele>658.8</ele>
        <time>2024-07-01T08:09:17Z</time>
      </trkpt>
      <trkpt lat="44.84356" lon="5.18809">
        <ele>658.9</ele>
        <time>2024-07-01T08:09:18Z</time>
      </trkpt>
      <trkpt lat="44.84357" lon="5.18809">
        <ele>659</ele>
        <time>2024-07-01T08:09:19Z</time>
      </trkpt>
      <trkpt lat="44.84358" lon="5.18809">
        <ele>659.1</ele>
        <time>2024-07-01T08:09:20Z</time>
      </trkpt>
      <trkpt lat="44.84359" lon="5.18809">
        <ele>659.2</ele>
        <time>2024-07-01T08:09:21Z</time>
      </trkpt>
      <trkpt lat="44.8436" lon="5.1881">
        <ele>659.2</ele>
        <time>2024-07-01T08:09:22Z</time>
      </trkpt>
      <trkpt lat="44.84361" lon="5.18809">
        <ele>659.3</ele>
        <time>2024-07-01T08:09:23Z</time>
      </trkpt>
      <trkpt lat="44.84362" lon="5.18809">
        <ele>659.4</ele>
        <time>2024-07-01T08:09:24Z</time>
      </trkpt>
      <trkpt lat="44.84365" lon="5.18808">
        <ele>659.6</ele>
        <time>2024-07-01T08:09:25Z</time>
      </trkpt>
      <trkpt lat="44.84366" lon="5.18808">
        <ele>659.7</ele>
        <time>2024-07-01T08:09:27Z</time>
      </trkpt>
      <trkpt lat="44.84367" lon="5.18807">
        <ele>659.8</ele>
        <time>2024-07-01T08:09:28Z</time>
      </trkpt>
      <trkpt lat="44.84368" lon="5.18807">
        <ele>659.9</ele>
        <time>2024-07-01T08:09:29Z</time>
      </trkpt>
      <trkpt lat="44.84369" lon="5.18807">
        <ele>660</ele>
        <time>2024-07-01T08:09:30Z</time>
      </trkpt>
      <trkpt lat="44.8437" lon="5.18807">
        <ele>660</ele>
        <time>2024-07-01T08:09:31Z</time>
      </trkpt>
      <trkpt lat="44.84371" lon="5.18806">
        <ele>660.1</ele>
        <time>2024-07-01T08:09:32Z</time>
      </trkpt>
      <trkpt lat="44.84372" lon="5.18806">
        <ele>660.2</ele>
        <time>2024-07-01T08:09:33Z</time>
      </trkpt>
      <trkpt lat="44.84373" lon="5.18806">
        <ele>660.3</ele>
        <time>2024-07-01T08:09:34Z</time>
      </trkpt>
      <trkpt lat="44.84374" lon="5.18806">
        <ele>660.4</ele>
        <time>2024-07-01T08:09:35Z</time>
      </trkpt>
      <trkpt lat="44.84374" lon="5.18805">
        <ele>660.4</ele>
        <time>2024-07-01T08:09:36Z</time>
      </trkpt>
      <trkpt lat="44.84377" lon="5.18805">
        <ele>660.6</ele>
        <time>2024-07-01T08:09:37Z</time>
      </trkpt>
      <trkpt lat="44.84379" lon="5.18804">
        <ele>660.8</ele>
        <time>2024-07-01T08:09:39Z</time>
      </trkpt>
      <trkpt lat="44.84379" lon="5.18804">
        <ele>660.8</ele>
        <time>2024-07-01T08:09:40Z</time>
      </trkpt>
      <trkpt lat="44.8438" lon="5.18804">
        <ele>660.9</ele>
        <time>2024-07-01T08:09:41Z</time>
      </trkpt>
      <trkpt lat="44.84381" lon="5.18804">
        <ele>661</ele>
        <time>2024-07-01T08:09:42Z</time>
      </trkpt>
      <trkpt lat="44.84383" lon="5.18804">
        <ele>661.1</ele>
        <time>2024-07-01T08:09:43Z</time>
      </trkpt>
      <trkpt lat="44.84384" lon="5.18804">
        <ele>661.2</ele>
        <time>2024-07-01T08:09:44Z</time>
      </trkpt>
      <trkpt lat="44.84385" lon="5.18804">
        <ele>661.2</ele>
        <time>2024-07-01T08:09:45Z</time>
      </trkpt>
      <trkpt lat="44.84387" lon="5.18804">
        <ele>661.4</ele>
        <time>2024-07-01T08:09:46Z</time>
      </trkpt>
      <trkpt lat="44.84389" lon="5.18803">
        <ele>661.6</ele>
        <time>2024-07-01T08:09:48Z</time>
      </trkpt>
      <trkpt lat="44.8439" lon="5.18803">
        <ele>661.6</ele>
        <time>2024-07-01T08:09:49Z</time>
      </trkpt>
      <trkpt lat="44.8439" lon="5.18803">
        <ele>661.7</ele>
        <time>2024-07-01T08:09:50Z</time>
      </trkpt>
      <trkpt lat="44.84392" lon="5.18803">
        <ele>661.8</ele>
        <time>2024-07-01T08:09:51Z</time>
      </trkpt>
      <trkpt lat="44.84393" lon="5.18803">
        <ele>661.9</ele>
        <time>2024-07-01T08:09:53Z</time>
      </trkpt>
      <trkpt lat="44.84395" lon="5.18801">
        <ele>662.1</ele>
        <time>2024-07-01T08:09:54Z</time>
      </trkpt>
      <trkpt lat="44.84396" lon="5.188">
        <ele>662.2</ele>
        <time>2024-07-01T08:09:56Z</time>
      </trkpt>
      <trkpt lat="44.84398" lon="5.188">
        <ele>662.3</ele>
        <time>2024-07-01T08:09:57Z</time>
      </trkpt>
      <trkpt lat="44.84399" lon="5.18799">
        <ele>662.4</ele>
        <time>2024-07-01T08:09:59Z</time>
      </trkpt>
      <trkpt lat="44.844" lon="5.18799">
        <ele>662.5</ele>
        <time>2024-07-01T08:10:00Z</time>
      </trkpt>
      <trkpt lat="44.84401" lon="5.18798">
        <ele>662.6</ele>
        <time>2024-07-01T08:10:01Z</time>
      </trkpt>
      <trkpt lat="44.84402" lon="5.18797">
        <ele>662.7</ele>
        <time>2024-07-01T08:10:02Z</time>
      </trkpt>
      <trkpt lat="44.84403" lon="5.18797">
        <ele>662.7</ele>
        <time>2024-07-01T08:10:03Z</time>
      </trkpt>
      <trkpt lat="44.84404" lon="5.18797">
        <ele>662.8</ele>
        <time>2024-07-01T08:10:04Z</time>
      </trkpt>
      <trkpt lat="44.84405" lon="5.18796">
        <ele>662.9</ele>
        <time>2024-07-01T08:10:05Z</time>
      </trkpt>
      <trkpt lat="44.84406" lon="5.18795">
        <ele>663</ele>
        <time>2024-07-01T08:10:06Z</time>
      </trkpt>
      <trkpt lat="44.84407" lon="5.18795">
        <ele>663.1</ele>
        <time>2024-07-01T08:10:07Z</time>
      </trkpt>
      <trkpt lat="44.84408" lon="5.18795">
        <ele>663.1</ele>
        <time>2024-07-01T08:10:08Z</time>
      </trkpt>
      <trkpt lat="44.8441" lon="5.18795">
        <ele>663.3</ele>
        <time>2024-07-01T08:10:09Z</time>
      </trkpt>
      <trkpt lat="44.84411" lon="5.18794">
        <ele>663.4</ele>
        <time>2024-07-01T08:10:11Z</time>
      </trkpt>
      <trkpt lat="44.84413" lon="5.18794">
        <ele>663.5</ele>
        <time>2024-07-01T08:10:12Z</time>
      </trkpt>
      <trkpt lat="44.84413" lon="5.18794">
        <ele>663.6</ele>
        <time>2024-07-01T08:10:14Z</time>
      </trkpt>
      <trkpt lat="44.84416" lon="5.18794">
        <ele>663.8</ele>
        <time>2024-07-01T08:10:15Z</time>
      </trkpt>
      <trkpt lat="44.84417" lon="5.18794">
        <ele>663.9</ele>
        <time>2024-07-01T08:10:17Z</time>
      </trkpt>
      <trkpt lat="44.84418" lon="5.18794">
        <ele>664</ele>
        <time>2024-07-01T08:10:18Z</time>
      </trkpt>
      <trkpt lat="44.84418" lon="5.18794">
        <ele>664.1</ele>
        <time>2024-07-01T08:10:19Z</time>
      </trkpt>
      <trkpt lat="44.8442" lon="5.18794">
        <ele>664.2</ele>
        <time>2024-07-01T08:10:20Z</time>
      </trkpt>
      <trkpt lat="44.84423" lon="5.18795">
        <ele>664.5</ele>
        <time>2024-07-01T08:10:21Z</time>
      </trkpt>
      <trkpt lat="44.84424" lon="5.18795">
        <ele>664.6</ele>
        <time>2024-07-01T08:10:23Z</time>
      </trkpt>
      <trkpt lat="44.84425" lon="5.18795">
        <ele>664.6</ele>
        <time>2024-07-01T08:10:24Z</time>
      </trkpt>
      <trkpt lat="44.84426" lon="5.18795">
        <ele>664.7</ele>
        <time>2024-07-01T08:10:25Z</time>
      </trkpt>
      <trkpt lat="44.84427" lon="5.18795">
        <ele>664.8</ele>
        <time>2024-07-01T08:10:26Z</time>
      </trkpt>
      <trkpt lat="44.84429" lon="5.18795">
        <ele>665</ele>
        <time>2024-07-01T08:10:27Z</time>
      </trkpt>
      <trkpt lat="44.8443" lon="5.18795">
        <ele>665.1</ele>
        <time>2024-07-01T08:10:28Z</time>
      </trkpt>
      <trkpt lat="44.8443" lon="5.18795">
        <ele>665.2</ele>
        <time>2024-07-01T08:10:29Z</time>
      </trkpt>
      <trkpt lat="44.84431" lon="5.18796">
        <ele>665.3</ele>
        <time>2024-07-01T08:10:30Z</time>
      </trkpt>
      <trkpt lat="44.84432" lon="5.18796">
        <ele>665.4</ele>
        <time>2024-07-01T08:10:31Z</time>
      </trkpt>
      <trkpt lat="44.84433" lon="5.18796">
        <ele>665.5</ele>
        <time>2024-07-01T08:10:32Z</time>
      </trkpt>
      <trkpt lat="44.84434" lon="5.18796">
        <ele>665.6</ele>
        <time>2024-07-01T08:10:33Z</time>
      </trkpt>
      <trkpt lat="44.84435" lon="5.18796">
        <ele>665.7</ele>
        <time>2024-07-01T08:10:34Z</time>
      </trkpt>
      <trkpt lat="44.84437" lon="5.18796">
        <ele>665.9</ele>
        <time>2024-07-01T08:10:35Z</time>
      </trkpt>
      <trkpt lat="44.84438" lon="5.18796">
        <ele>666</ele>
        <time>2024-07-01T08:10:36Z</time>
      </trkpt>
      <trkpt lat="44.84439" lon="5.18796">
        <ele>666.1</ele>
        <time>2024-07-01T08:10:37Z</time>
      </trkpt>
      <trkpt lat="44.8444" lon="5.18797">
        <ele>666.2</ele>
        <time>2024-07-01T08:10:38Z</time>
      </trkpt>
      <trkpt lat="44.84441" lon="5.18797">
        <ele>666.3</ele>
        <time>2024-07-01T08:10:39Z</time>
      </trkpt>
      <trkpt lat="44.84442" lon="5.18797">
        <ele>666.4</ele>
        <time>2024-07-01T08:10:40Z</time>
      </trkpt>
      <trkpt lat="44.84443" lon="5.18797">
        <ele>666.5</ele>
        <time>2024-07-01T08:10:41Z</time>
      </trkpt>
      <trkpt lat="44.84444" lon="5.18797">
        <ele>666.6</ele>
        <time>2024-07-01T08:10:42Z</time>
      </trkpt>
      <trkpt lat="44.84445" lon="5.18797">
        <ele>666.7</ele>
        <time>2024-07-01T08:10:43Z</time>
      </trkpt>
      <trkpt lat="44.84446" lon="5.18797">
        <ele>666.8</ele>
        <time>2024-07-01T08:10:44Z</time>
      </trkpt>
      <trkpt lat="44.84447" lon="5.18797">
        <ele>666.9</ele>
        <time>2024-07-01T08:10:45Z</time>
      </trkpt>
      <trkpt lat="44.84448" lon="5.18797">
        <ele>667</ele>
        <time>2024-07-01T08:10:46Z</time>
      </trkpt>
      <trkpt lat="44.8445" lon="5.18797">
        <ele>667.2</ele>
        <time>2024-07-01T08:10:47Z</time>
      </trkpt>
      <trkpt lat="44.84451" lon="5.18798">
        <ele>667.3</ele>
        <time>2024-07-01T08:10:49Z</time>
      </trkpt>
      <trkpt lat="44.84451" lon="5.18798">
        <ele>667.4</ele>
        <time>2024-07-01T08:10:50Z</time>
      </trkpt>
      <trkpt lat="44.84453" lon="5.18798">
        <ele>667.5</ele>
        <time>2024-07-01T08:10:51Z</time>
      </trkpt>
      <trkpt lat="44.84453" lon="5.18799">
        <ele>667.6</ele>
        <time>2024-07-01T08:10:52Z</time>
      </trkpt>
      <trkpt lat="44.84454" lon="5.18799">
        <ele>667.7</ele>
        <time>2024-07-01T08:10:53Z</time>
      </trkpt>
      <trkpt lat="44.84455" lon="5.18799">
        <ele>667.8</ele>
        <time>2024-07-01T08:10:54Z</time>
      </trkpt>
      <trkpt lat="44.84456" lon="5.18799">
        <ele>667.9</ele>
        <time>2024-07-01T08:10:55Z</time>
      </trkpt>
      <trkpt lat="44.84457" lon="5.188">
        <ele>667.9</ele>
        <time>2024-07-01T08:10:56Z</time>
      </trkpt>
      <trkpt lat="44.84458" lon="5.188">
        <ele>668.1</ele>
        <time>2024-07-01T08:10:57Z</time>
      </trkpt>
      <trkpt lat="44.84458" lon="5.188">
        <ele>668.1</ele>
        <time>2024-07-01T08:10:58Z</time>
      </trkpt>
      <trkpt lat="44.84459" lon="5.18801">
        <ele>668.2</ele>
        <time>2024-07-01T08:10:59Z</time>
      </trkpt>
      <trkpt lat="44.8446" lon="5.18801">
        <ele>668.3</ele>
        <time>2024-07-01T08:11:00Z</time>
      </trkpt>
      <trkpt lat="44.84461" lon="5.18802">
        <ele>668.3</ele>
        <time>2024-07-01T08:11:01Z</time>
      </trkpt>
      <trkpt lat="44.84461" lon="5.18803">
        <ele>668.4</ele>
        <time>2024-07-01T08:11:02Z</time>
      </trkpt>
      <trkpt lat="44.84462" lon="5.18804">
        <ele>668.5</ele>
        <time>2024-07-01T08:11:03Z</time>
      </trkpt>
      <trkpt lat="44.84462" lon="5.18805">
        <ele>668.6</ele>
        <time>2024-07-01T08:11:04Z</time>
      </trkpt>
      <trkpt lat="44.84463" lon="5.18806">
        <ele>668.6</ele>
        <time>2024-07-01T08:11:05Z</time>
      </trkpt>
      <trkpt lat="44.84463" lon="5.18807">
        <ele>668.7</ele>
        <time>2024-07-01T08:11:06Z</time>
      </trkpt>
      <trkpt lat="44.84465" lon="5.18809">
        <ele>668.8</ele>
        <time>2024-07-01T08:11:07Z</time>
      </trkpt>
      <trkpt lat="44.84465" lon="5.18811">
        <ele>668.9</ele>
        <time>2024-07-01T08:11:09Z</time>
      </trkpt>
      <trkpt lat="44.84465" lon="5.18812">
        <ele>669</ele>
        <time>2024-07-01T08:11:10Z</time>
      </trkpt>
      <trkpt lat="44.84465" lon="5.18813">
        <ele>669</ele>
        <time>2024-07-01T08:11:11Z</time>
      </trkpt>
      <trkpt lat="44.84465" lon="5.18816">
        <ele>669.1</ele>
        <time>2024-07-01T08:11:12Z</time>
      </trkpt>
      <trkpt lat="44.84465" lon="5.18817">
        <ele>669.1</ele>
        <time>2024-07-01T08:11:14Z</time>
      </trkpt>
      <trkpt lat="44.84466" lon="5.1882">
        <ele>669.2</ele>
        <time>2024-07-01T08:11:15Z</time>
      </trkpt>
      <trkpt lat="44.84466" lon="5.18821">
        <ele>669.2</ele>
        <time>2024-07-01T08:11:17Z</time>
      </trkpt>
      <trkpt lat="44.84466" lon="5.18822">
        <ele>669.3</ele>
        <time>2024-07-01T08:11:18Z</time>
      </trkpt>
      <trkpt lat="44.84467" lon="5.18823">
        <ele>669.3</ele>
        <time>2024-07-01T08:11:19Z</time>
      </trkpt>
      <trkpt lat="44.84467" lon="5.18824">
        <ele>669.3</ele>
        <time>2024-07-01T08:11:20Z</time>
      </trkpt>
      <trkpt lat="44.84468" lon="5.18824">
        <ele>669.3</ele>
        <time>2024-07-01T08:11:21Z</time>
      </trkpt>
      <trkpt lat="44.84469" lon="5.18825">
        <ele>669.3</ele>
        <time>2024-07-01T08:11:22Z</time>
      </trkpt>
      <trkpt lat="44.84471" lon="5.18827">
        <ele>669.4</ele>
        <time>2024-07-01T08:11:23Z</time>
      </trkpt>
      <trkpt lat="44.84472" lon="5.18827">
        <ele>669.4</ele>
        <time>2024-07-01T08:11:25Z</time>
      </trkpt>
      <trkpt lat="44.84473" lon="5.18828">
        <ele>669.4</ele>
        <time>2024-07-01T08:11:26Z</time>
      </trkpt>
      <trkpt lat="44.84474" lon="5.18828">
        <ele>669.4</ele>
        <time>2024-07-01T08:11:27Z</time>
      </trkpt>
      <trkpt lat="44.84475" lon="5.18829">
        <ele>669.4</ele>
        <time>2024-07-01T08:11:28Z</time>
      </trkpt>
      <trkpt lat="44.84476" lon="5.18829">
        <ele>669.4</ele>
        <time>2024-07-01T08:11:29Z</time>
      </trkpt>
      <trkpt lat="44.84477" lon="5.1883">
        <ele>669.4</ele>
        <time>2024-07-01T08:11:30Z</time>
      </trkpt>
      <trkpt lat="44.84478" lon="5.1883">
        <ele>669.4</ele>
        <time>2024-07-01T08:11:31Z</time>
      </trkpt>
      <trkpt lat="44.84479" lon="5.18831">
        <ele>669.4</ele>
        <time>2024-07-01T08:11:32Z</time>
      </trkpt>
      <trkpt lat="44.8448" lon="5.18831">
        <ele>669.4</ele>
        <time>2024-07-01T08:11:33Z</time>
      </trkpt>
      <trkpt lat="44.8448" lon="5.18831">
        <ele>669.4</ele>
        <time>2024-07-01T08:11:34Z</time>
      </trkpt>
      <trkpt lat="44.84481" lon="5.18831">
        <ele>669.4</ele>
        <time>2024-07-01T08:11:35Z</time>
      </trkpt>
      <trkpt lat="44.84482" lon="5.18832">
        <ele>669.4</ele>
        <time>2024-07-01T08:11:36Z</time>
      </trkpt>
      <trkpt lat="44.84482" lon="5.18832">
        <ele>669.4</ele>
        <time>2024-07-01T08:11:37Z</time>
      </trkpt>
      <trkpt lat="44.84484" lon="5.18833">
        <ele>669.3</ele>
        <time>2024-07-01T08:11:38Z</time>
      </trkpt>
      <trkpt lat="44.84485" lon="5.18834">
        <ele>669.3</ele>
        <time>2024-07-01T08:11:40Z</time>
      </trkpt>
      <trkpt lat="44.84487" lon="5.18834">
        <ele>669.3</ele>
        <time>2024-07-01T08:11:41Z</time>
      </trkpt>
      <trkpt lat="44.84488" lon="5.18834">
        <ele>669.3</ele>
        <time>2024-07-01T08:11:43Z</time>
      </trkpt>
      <trkpt lat="44.84489" lon="5.18833">
        <ele>669.3</ele>
        <time>2024-07-01T08:11:44Z</time>
      </trkpt>
      <trkpt lat="44.84491" lon="5.18833">
        <ele>669.3</ele>
        <time>2024-07-01T08:11:45Z</time>
      </trkpt>
      <trkpt lat="44.84492" lon="5.18833">
        <ele>669.3</ele>
        <time>2024-07-01T08:11:46Z</time>
      </trkpt>
      <trkpt lat="44.84493" lon="5.18833">
        <ele>669.2</ele>
        <time>2024-07-01T08:11:47Z</time>
      </trkpt>
      <trkpt lat="44.84494" lon="5.18834">
        <ele>669.2</ele>
        <time>2024-07-01T08:11:48Z</time>
      </trkpt>
      <trkpt lat="44.84495" lon="5.18835">
        <ele>669.2</ele>
        <time>2024-07-01T08:11:50Z</time>
      </trkpt>
      <trkpt lat="44.84496" lon="5.18836">
        <ele>669.2</ele>
        <time>2024-07-01T08:11:51Z</time>
      </trkpt>
      <trkpt lat="44.84497" lon="5.18836">
        <ele>669.2</ele>
        <time>2024-07-01T08:11:52Z</time>
      </trkpt>
      <trkpt lat="44.84498" lon="5.18837">
        <ele>669.1</ele>
        <time>2024-07-01T08:11:53Z</time>
      </trkpt>
      <trkpt lat="44.84499" lon="5.18838">
        <ele>669.1</ele>
        <time>2024-07-01T08:11:54Z</time>
      </trkpt>
      <trkpt lat="44.84501" lon="5.1884">
        <ele>669</ele>
        <time>2024-07-01T08:11:55Z</time>
      </trkpt>
      <trkpt lat="44.84502" lon="5.1884">
        <ele>669</ele>
        <time>2024-07-01T08:11:56Z</time>
      </trkpt>
      <trkpt lat="44.84504" lon="5.18842">
        <ele>668.9</ele>
        <time>2024-07-01T08:11:57Z</time>
      </trkpt>
      <trkpt lat="44.84505" lon="5.18843">
        <ele>668.8</ele>
        <time>2024-07-01T08:11:59Z</time>
      </trkpt>
      <trkpt lat="44.84506" lon="5.18844">
        <ele>668.8</ele>
        <time>2024-07-01T08:12:00Z</time>
      </trkpt>
      <trkpt lat="44.84507" lon="5.18844">
        <ele>668.7</ele>
        <time>2024-07-01T08:12:01Z</time>
      </trkpt>
      <trkpt lat="44.84508" lon="5.18845">
        <ele>668.7</ele>
        <time>2024-07-01T08:12:02Z</time>
      </trkpt>
      <trkpt lat="44.8451" lon="5.18846">
        <ele>668.5</ele>
        <time>2024-07-01T08:12:03Z</time>
      </trkpt>
      <trkpt lat="44.8451" lon="5.18846">
        <ele>668.5</ele>
        <time>2024-07-01T08:12:04Z</time>
      </trkpt>
      <trkpt lat="44.84511" lon="5.18847">
        <ele>668.4</ele>
        <time>2024-07-01T08:12:05Z</time>
      </trkpt>
      <trkpt lat="44.84512" lon="5.18845">
        <ele>668.3</ele>
        <time>2024-07-01T08:12:06Z</time>
      </trkpt>
      <trkpt lat="44.84513" lon="5.18844">
        <ele>668.2</ele>
        <time>2024-07-01T08:12:07Z</time>
      </trkpt>
      <trkpt lat="44.84514" lon="5.18844">
        <ele>668.1</ele>
        <time>2024-07-01T08:12:09Z</time>
      </trkpt>
      <trkpt lat="44.84516" lon="5.18843">
        <ele>667.9</ele>
        <time>2024-07-01T08:12:10Z</time>
      </trkpt>
      <trkpt lat="44.84517" lon="5.18843">
        <ele>667.7</ele>
        <time>2024-07-01T08:12:12Z</time>
      </trkpt>
      <trkpt lat="44.84518" lon="5.18843">
        <ele>667.6</ele>
        <time>2024-07-01T08:12:13Z</time>
      </trkpt>
      <trkpt lat="44.84519" lon="5.18843">
        <ele>667.5</ele>
        <time>2024-07-01T08:12:14Z</time>
      </trkpt>
      <trkpt lat="44.8452" lon="5.18842">
        <ele>667.4</ele>
        <time>2024-07-01T08:12:15Z</time>
      </trkpt>
      <trkpt lat="44.84521" lon="5.18842">
        <ele>667.2</ele>
        <time>2024-07-01T08:12:16Z</time>
      </trkpt>
      <trkpt lat="44.84523" lon="5.18841">
        <ele>667</ele>
        <time>2024-07-01T08:12:17Z</time>
      </trkpt>
      <trkpt lat="44.84524" lon="5.1884">
        <ele>666.9</ele>
        <time>2024-07-01T08:12:18Z</time>
      </trkpt>
      <trkpt lat="44.84524" lon="5.18839">
        <ele>666.8</ele>
        <time>2024-07-01T08:12:19Z</time>
      </trkpt>
      <trkpt lat="44.84525" lon="5.18838">
        <ele>666.6</ele>
        <time>2024-07-01T08:12:21Z</time>
      </trkpt>
      <trkpt lat="44.84526" lon="5.18837">
        <ele>666.5</ele>
        <time>2024-07-01T08:12:22Z</time>
      </trkpt>
      <trkpt lat="44.84528" lon="5.18836">
        <ele>666.2</ele>
        <time>2024-07-01T08:12:23Z</time>
      </trkpt>
      <trkpt lat="44.84529" lon="5.18836">
        <ele>666.1</ele>
        <time>2024-07-01T08:12:25Z</time>
      </trkpt>
      <trkpt lat="44.8453" lon="5.18837">
        <ele>665.9</ele>
        <time>2024-07-01T08:12:26Z</time>
      </trkpt>
      <trkpt lat="44.8453" lon="5.18838">
        <ele>665.8</ele>
        <time>2024-07-01T08:12:27Z</time>
      </trkpt>
      <trkpt lat="44.84531" lon="5.1884">
        <ele>665.6</ele>
        <time>2024-07-01T08:12:28Z</time>
      </trkpt>
      <trkpt lat="44.84532" lon="5.18841">
        <ele>665.5</ele>
        <time>2024-07-01T08:12:29Z</time>
      </trkpt>
      <trkpt lat="44.84533" lon="5.18842">
        <ele>665.3</ele>
        <time>2024-07-01T08:12:30Z</time>
      </trkpt>
      <trkpt lat="44.84534" lon="5.18843">
        <ele>665.1</ele>
        <time>2024-07-01T08:12:31Z</time>
      </trkpt>
      <trkpt lat="44.84537" lon="5.18843">
        <ele>664.8</ele>
        <time>2024-07-01T08:12:32Z</time>
      </trkpt>
      <trkpt lat="44.84538" lon="5.18844">
        <ele>664.7</ele>
        <time>2024-07-01T08:12:33Z</time>
      </trkpt>
      <trkpt lat="44.84539" lon="5.18844">
        <ele>664.6</ele>
        <time>2024-07-01T08:12:35Z</time>
      </trkpt>
      <trkpt lat="44.8454" lon="5.18845">
        <ele>664.5</ele>
        <time>2024-07-01T08:12:36Z</time>
      </trkpt>
      <trkpt lat="44.84541" lon="5.18845">
        <ele>664.4</ele>
        <time>2024-07-01T08:12:37Z</time>
      </trkpt>
      <trkpt lat="44.84543" lon="5.18846">
        <ele>664.2</ele>
        <time>2024-07-01T08:12:38Z</time>
      </trkpt>
      <trkpt lat="44.84544" lon="5.18847">
        <ele>664</ele>
        <time>2024-07-01T08:12:39Z</time>
      </trkpt>
      <trkpt lat="44.84545" lon="5.18847">
        <ele>663.9</ele>
        <time>2024-07-01T08:12:40Z</time>
      </trkpt>
      <trkpt lat="44.84546" lon="5.18847">
        <ele>663.8</ele>
        <time>2024-07-01T08:12:42Z</time>
      </trkpt>
      <trkpt lat="44.84547" lon="5.18847">
        <ele>663.8</ele>
        <time>2024-07-01T08:12:43Z</time>
      </trkpt>
      <trkpt lat="44.84548" lon="5.18848">
        <ele>663.7</ele>
        <time>2024-07-01T08:12:44Z</time>
      </trkpt>
      <trkpt lat="44.84549" lon="5.18848">
        <ele>663.6</ele>
        <time>2024-07-01T08:12:45Z</time>
      </trkpt>
      <trkpt lat="44.8455" lon="5.18848">
        <ele>663.5</ele>
        <time>2024-07-01T08:12:46Z</time>
      </trkpt>
      <trkpt lat="44.84551" lon="5.18848">
        <ele>663.4</ele>
        <time>2024-07-01T08:12:47Z</time>
      </trkpt>
      <trkpt lat="44.84552" lon="5.18848">
        <ele>663.4</ele>
        <time>2024-07-01T08:12:48Z</time>
      </trkpt>
      <trkpt lat="44.84553" lon="5.18848">
        <ele>663.3</ele>
        <time>2024-07-01T08:12:49Z</time>
      </trkpt>
      <trkpt lat="44.84554" lon="5.18848">
        <ele>663.2</ele>
        <time>2024-07-01T08:12:50Z</time>
      </trkpt>
      <trkpt lat="44.84554" lon="5.18848">
        <ele>663.2</ele>
        <time>2024-07-01T08:12:51Z</time>
      </trkpt>
      <trkpt lat="44.84557" lon="5.18849">
        <ele>663.1</ele>
        <time>2024-07-01T08:12:52Z</time>
      </trkpt>
      <trkpt lat="44.84558" lon="5.18849">
        <ele>663</ele>
        <time>2024-07-01T08:12:54Z</time>
      </trkpt>
      <trkpt lat="44.84559" lon="5.1885">
        <ele>663</ele>
        <time>2024-07-01T08:12:55Z</time>
      </trkpt>
      <trkpt lat="44.8456" lon="5.1885">
        <ele>662.9</ele>
        <time>2024-07-01T08:12:56Z</time>
      </trkpt>
      <trkpt lat="44.84561" lon="5.1885">
        <ele>662.9</ele>
        <time>2024-07-01T08:12:57Z</time>
      </trkpt>
      <trkpt lat="44.84562" lon="5.1885">
        <ele>662.9</ele>
        <time>2024-07-01T08:12:58Z</time>
      </trkpt>
      <trkpt lat="44.84562" lon="5.1885">
        <ele>662.9</ele>
        <time>2024-07-01T08:12:59Z</time>
      </trkpt>
      <trkpt lat="44.84563" lon="5.1885">
        <ele>662.8</ele>
        <time>2024-07-01T08:13:00Z</time>
      </trkpt>
      <trkpt lat="44.84564" lon="5.18851">
        <ele>662.8</ele>
        <time>2024-07-01T08:13:01Z</time>
      </trkpt>
      <trkpt lat="44.84565" lon="5.18851">
        <ele>662.8</ele>
        <time>2024-07-01T08:13:02Z</time>
      </trkpt>
      <trkpt lat="44.84566" lon="5.18851">
        <ele>662.8</ele>
        <time>2024-07-01T08:13:03Z</time>
      </trkpt>
      <trkpt lat="44.84567" lon="5.18851">
        <ele>662.8</ele>
        <time>2024-07-01T08:13:04Z</time>
      </trkpt>
      <trkpt lat="44.84568" lon="5.18851">
        <ele>662.8</ele>
        <time>2024-07-01T08:13:05Z</time>
      </trkpt>
      <trkpt lat="44.84569" lon="5.18851">
        <ele>662.8</ele>
        <time>2024-07-01T08:13:06Z</time>
      </trkpt>
      <trkpt lat="44.8457" lon="5.18851">
        <ele>662.8</ele>
        <time>2024-07-01T08:13:07Z</time>
      </trkpt>
      <trkpt lat="44.84572" lon="5.18851">
        <ele>662.8</ele>
        <time>2024-07-01T08:13:08Z</time>
      </trkpt>
      <trkpt lat="44.84573" lon="5.18851">
        <ele>662.8</ele>
        <time>2024-07-01T08:13:09Z</time>
      </trkpt>
      <trkpt lat="44.84574" lon="5.18851">
        <ele>662.8</ele>
        <time>2024-07-01T08:13:10Z</time>
      </trkpt>
      <trkpt lat="44.84574" lon="5.18852">
        <ele>662.9</ele>
        <time>2024-07-01T08:13:11Z</time>
      </trkpt>
      <trkpt lat="44.84575" lon="5.18852">
        <ele>662.9</ele>
        <time>2024-07-01T08:13:12Z</time>
      </trkpt>
      <trkpt lat="44.84577" lon="5.18852">
        <ele>662.9</ele>
        <time>2024-07-01T08:13:13Z</time>
      </trkpt>
      <trkpt lat="44.84577" lon="5.18852">
        <ele>662.9</ele>
        <time>2024-07-01T08:13:14Z</time>
      </trkpt>
      <trkpt lat="44.84578" lon="5.18853">
        <ele>663</ele>
        <time>2024-07-01T08:13:15Z</time>
      </trkpt>
      <trkpt lat="44.84579" lon="5.18853">
        <ele>663</ele>
        <time>2024-07-01T08:13:16Z</time>
      </trkpt>
      <trkpt lat="44.8458" lon="5.18854">
        <ele>663</ele>
        <time>2024-07-01T08:13:17Z</time>
      </trkpt>
      <trkpt lat="44.84582" lon="5.18857">
        <ele>663.1</ele>
        <time>2024-07-01T08:13:18Z</time>
      </trkpt>
      <trkpt lat="44.84583" lon="5.18859">
        <ele>663.2</ele>
        <time>2024-07-01T08:13:20Z</time>
      </trkpt>
      <trkpt lat="44.84583" lon="5.18859">
        <ele>663.2</ele>
        <time>2024-07-01T08:13:21Z</time>
      </trkpt>
      <trkpt lat="44.84584" lon="5.1886">
        <ele>663.3</ele>
        <time>2024-07-01T08:13:22Z</time>
      </trkpt>
      <trkpt lat="44.84584" lon="5.18861">
        <ele>663.3</ele>
        <time>2024-07-01T08:13:23Z</time>
      </trkpt>
      <trkpt lat="44.84585" lon="5.18862">
        <ele>663.3</ele>
        <time>2024-07-01T08:13:24Z</time>
      </trkpt>
      <trkpt lat="44.84586" lon="5.18864">
        <ele>663.4</ele>
        <time>2024-07-01T08:13:25Z</time>
      </trkpt>
      <trkpt lat="44.84588" lon="5.18864">
        <ele>663.5</ele>
        <time>2024-07-01T08:13:26Z</time>
      </trkpt>
      <trkpt lat="44.84589" lon="5.18864">
        <ele>663.5</ele>
        <time>2024-07-01T08:13:28Z</time>
      </trkpt>
      <trkpt lat="44.8459" lon="5.18864">
        <ele>663.6</ele>
        <time>2024-07-01T08:13:29Z</time>
      </trkpt>
      <trkpt lat="44.84591" lon="5.18863">
        <ele>663.6</ele>
        <time>2024-07-01T08:13:30Z</time>
      </trkpt>
      <trkpt lat="44.84592" lon="5.18863">
        <ele>663.6</ele>
        <time>2024-07-01T08:13:31Z</time>
      </trkpt>
      <trkpt lat="44.84592" lon="5.18864">
        <ele>663.7</ele>
        <time>2024-07-01T08:13:32Z</time>
      </trkpt>
      <trkpt lat="44.84592" lon="5.18864">
        <ele>663.7</ele>
        <time>2024-07-01T08:13:33Z</time>
      </trkpt>
      <trkpt lat="44.84592" lon="5.18864">
        <ele>663.7</ele>
        <time>2024-07-01T08:13:34Z</time>
      </trkpt>
      <trkpt lat="44.84592" lon="5.18864">
        <ele>663.7</ele>
        <time>2024-07-01T08:13:35Z</time>
      </trkpt>
      <trkpt lat="44.84592" lon="5.18864">
        <ele>663.7</ele>
        <time>2024-07-01T08:13:36Z</time>
      </trkpt>
      <trkpt lat="44.84592" lon="5.18864">
        <ele>663.7</ele>
        <time>2024-07-01T08:13:37Z</time>
      </trkpt>
      <trkpt lat="44.84592" lon="5.18864">
        <ele>663.7</ele>
        <time>2024-07-01T08:13:38Z</time>
      </trkpt>
      <trkpt lat="44.84592" lon="5.18864">
        <ele>663.7</ele>
        <time>2024-07-01T08:13:39Z</time>
      </trkpt>
      <trkpt lat="44.84592" lon="5.18864">
        <ele>663.7</ele>
        <time>2024-07-01T08:13:40Z</time>
      </trkpt>
      <trkpt lat="44.84592" lon="5.18864">
        <ele>663.7</ele>
        <time>2024-07-01T08:13:41Z</time>
      </trkpt>
      <trkpt lat="44.84592" lon="5.18864">
        <ele>663.7</ele>
        <time>2024-07-01T08:13:42Z</time>
      </trkpt>
      <trkpt lat="44.84592" lon="5.18864">
        <ele>663.7</ele>
        <time>2024-07-01T08:13:43Z</time>
      </trkpt>
      <trkpt lat="44.84592" lon="5.18864">
        <ele>663.7</ele>
        <time>2024-07-01T08:13:44Z</time>
      </trkpt>
      <trkpt lat="44.84592" lon="5.18865">
        <ele>663.7</ele>
        <time>2024-07-01T08:13:45Z</time>
      </trkpt>
      <trkpt lat="44.84592" lon="5.18865">
        <ele>663.7</ele>
        <time>2024-07-01T08:13:46Z</time>
      </trkpt>
      <trkpt lat="44.84594" lon="5.18867">
        <ele>663.6</ele>
        <time>2024-07-01T08:13:47Z</time>
      </trkpt>
      <trkpt lat="44.84595" lon="5.18868">
        <ele>663.5</ele>
        <time>2024-07-01T08:13:49Z</time>
      </trkpt>
      <trkpt lat="44.84594" lon="5.18868">
        <ele>663.5</ele>
        <time>2024-07-01T08:13:50Z</time>
      </trkpt>
      <trkpt lat="44.84594" lon="5.18869">
        <ele>663.4</ele>
        <time>2024-07-01T08:13:51Z</time>
      </trkpt>
      <trkpt lat="44.84594" lon="5.18869">
        <ele>663.4</ele>
        <time>2024-07-01T08:13:52Z</time>
      </trkpt>
      <trkpt lat="44.84594" lon="5.18869">
        <ele>663.4</ele>
        <time>2024-07-01T08:13:53Z</time>
      </trkpt>
      <trkpt lat="44.84597" lon="5.18871">
        <ele>663.1</ele>
        <time>2024-07-01T08:13:54Z</time>
      </trkpt>
      <trkpt lat="44.84598" lon="5.18873">
        <ele>662.9</ele>
        <time>2024-07-01T08:13:56Z</time>
      </trkpt>
      <trkpt lat="44.84599" lon="5.18874">
        <ele>662.8</ele>
        <time>2024-07-01T08:13:57Z</time>
      </trkpt>
      <trkpt lat="44.846" lon="5.18875">
        <ele>662.7</ele>
        <time>2024-07-01T08:13:58Z</time>
      </trkpt>
      <trkpt lat="44.846" lon="5.18876">
        <ele>662.5</ele>
        <time>2024-07-01T08:14:00Z</time>
      </trkpt>
      <trkpt lat="44.84601" lon="5.18877">
        <ele>662.4</ele>
        <time>2024-07-01T08:14:01Z</time>
      </trkpt>
      <trkpt lat="44.84602" lon="5.18878">
        <ele>662.3</ele>
        <time>2024-07-01T08:14:02Z</time>
      </trkpt>
      <trkpt lat="44.84602" lon="5.18879">
        <ele>662.2</ele>
        <time>2024-07-01T08:14:03Z</time>
      </trkpt>
      <trkpt lat="44.84602" lon="5.1888">
        <ele>662.2</ele>
        <time>2024-07-01T08:14:04Z</time>
      </trkpt>
      <trkpt lat="44.84603" lon="5.18881">
        <ele>662</ele>
        <time>2024-07-01T08:14:05Z</time>
      </trkpt>
      <trkpt lat="44.84603" lon="5.18882">
        <ele>661.9</ele>
        <time>2024-07-01T08:14:07Z</time>
      </trkpt>
      <trkpt lat="44.84604" lon="5.18883">
        <ele>661.8</ele>
        <time>2024-07-01T08:14:08Z</time>
      </trkpt>
      <trkpt lat="44.84604" lon="5.18884">
        <ele>661.7</ele>
        <time>2024-07-01T08:14:09Z</time>
      </trkpt>
      <trkpt lat="44.84605" lon="5.18885">
        <ele>661.6</ele>
        <time>2024-07-01T08:14:10Z</time>
      </trkpt>
      <trkpt lat="44.84605" lon="5.18886">
        <ele>661.5</ele>
        <time>2024-07-01T08:14:11Z</time>
      </trkpt>
      <trkpt lat="44.84607" lon="5.18888">
        <ele>661.3</ele>
        <time>2024-07-01T08:14:12Z</time>
      </trkpt>
      <trkpt lat="44.84608" lon="5.18889">
        <ele>661.1</ele>
        <time>2024-07-01T08:14:13Z</time>
      </trkpt>
      <trkpt lat="44.84608" lon="5.1889">
        <ele>661.1</ele>
        <time>2024-07-01T08:14:15Z</time>
      </trkpt>
      <trkpt lat="44.84609" lon="5.1889">
        <ele>661</ele>
        <time>2024-07-01T08:14:16Z</time>
      </trkpt>
      <trkpt lat="44.8461" lon="5.18891">
        <ele>660.9</ele>
        <time>2024-07-01T08:14:17Z</time>
      </trkpt>
      <trkpt lat="44.84611" lon="5.18891">
        <ele>660.8</ele>
        <time>2024-07-01T08:14:18Z</time>
      </trkpt>
      <trkpt lat="44.84612" lon="5.18891">
        <ele>660.6</ele>
        <time>2024-07-01T08:14:19Z</time>
      </trkpt>
      <trkpt lat="44.84613" lon="5.18891">
        <ele>660.5</ele>
        <time>2024-07-01T08:14:21Z</time>
      </trkpt>
      <trkpt lat="44.84614" lon="5.18891">
        <ele>660.4</ele>
        <time>2024-07-01T08:14:22Z</time>
      </trkpt>
      <trkpt lat="44.84616" lon="5.18892">
        <ele>660.2</ele>
        <time>2024-07-01T08:14:23Z</time>
      </trkpt>
      <trkpt lat="44.84617" lon="5.18891">
        <ele>660.1</ele>
        <time>2024-07-01T08:14:24Z</time>
      </trkpt>
      <trkpt lat="44.84618" lon="5.18891">
        <ele>660</ele>
        <time>2024-07-01T08:14:25Z</time>
      </trkpt>
      <trkpt lat="44.8462" lon="5.18892">
        <ele>659.8</ele>
        <time>2024-07-01T08:14:26Z</time>
      </trkpt>
      <trkpt lat="44.84621" lon="5.18892">
        <ele>659.7</ele>
        <time>2024-07-01T08:14:27Z</time>
      </trkpt>
      <trkpt lat="44.84622" lon="5.18893">
        <ele>659.6</ele>
        <time>2024-07-01T08:14:28Z</time>
      </trkpt>
      <trkpt lat="44.84623" lon="5.18894">
        <ele>659.5</ele>
        <time>2024-07-01T08:14:30Z</time>
      </trkpt>
      <trkpt lat="44.84624" lon="5.18894">
        <ele>659.4</ele>
        <time>2024-07-01T08:14:31Z</time>
      </trkpt>
      <trkpt lat="44.84625" lon="5.18894">
        <ele>659.3</ele>
        <time>2024-07-01T08:14:32Z</time>
      </trkpt>
      <trkpt lat="44.84627" lon="5.18895">
        <ele>659.2</ele>
        <time>2024-07-01T08:14:33Z</time>
      </trkpt>
      <trkpt lat="44.84628" lon="5.18894">
        <ele>659.1</ele>
        <time>2024-07-01T08:14:34Z</time>
      </trkpt>
      <trkpt lat="44.84629" lon="5.18894">
        <ele>659</ele>
        <time>2024-07-01T08:14:35Z</time>
      </trkpt>
      <trkpt lat="44.8463" lon="5.18895">
        <ele>658.9</ele>
        <time>2024-07-01T08:14:36Z</time>
      </trkpt>
      <trkpt lat="44.84631" lon="5.18895">
        <ele>658.8</ele>
        <time>2024-07-01T08:14:37Z</time>
      </trkpt>
      <trkpt lat="44.84634" lon="5.18895">
        <ele>658.6</ele>
        <time>2024-07-01T08:14:38Z</time>
      </trkpt>
      <trkpt lat="44.84635" lon="5.18894">
        <ele>658.5</ele>
        <time>2024-07-01T08:14:40Z</time>
      </trkpt>
      <trkpt lat="44.84636" lon="5.18894">
        <ele>658.4</ele>
        <time>2024-07-01T08:14:41Z</time>
      </trkpt>
      <trkpt lat="44.84637" lon="5.18894">
        <ele>658.3</ele>
        <time>2024-07-01T08:14:42Z</time>
      </trkpt>
      <trkpt lat="44.84638" lon="5.18894">
        <ele>658.2</ele>
        <time>2024-07-01T08:14:43Z</time>
      </trkpt>
      <trkpt lat="44.84639" lon="5.18893">
        <ele>658.2</ele>
        <time>2024-07-01T08:14:44Z</time>
      </trkpt>
      <trkpt lat="44.84639" lon="5.18893">
        <ele>658.1</ele>
        <time>2024-07-01T08:14:45Z</time>
      </trkpt>
      <trkpt lat="44.8464" lon="5.18892">
        <ele>658</ele>
        <time>2024-07-01T08:14:46Z</time>
      </trkpt>
      <trkpt lat="44.84643" lon="5.18892">
        <ele>657.8</ele>
        <time>2024-07-01T08:14:47Z</time>
      </trkpt>
      <trkpt lat="44.84644" lon="5.18891">
        <ele>657.7</ele>
        <time>2024-07-01T08:14:49Z</time>
      </trkpt>
      <trkpt lat="44.84645" lon="5.18891">
        <ele>657.6</ele>
        <time>2024-07-01T08:14:50Z</time>
      </trkpt>
      <trkpt lat="44.84646" lon="5.18892">
        <ele>657.5</ele>
        <time>2024-07-01T08:14:51Z</time>
      </trkpt>
      <trkpt lat="44.84649" lon="5.18891">
        <ele>657.3</ele>
        <time>2024-07-01T08:14:52Z</time>
      </trkpt>
      <trkpt lat="44.8465" lon="5.18891">
        <ele>657.2</ele>
        <time>2024-07-01T08:14:54Z</time>
      </trkpt>
      <trkpt lat="44.84651" lon="5.18891">
        <ele>657.1</ele>
        <time>2024-07-01T08:14:55Z</time>
      </trkpt>
      <trkpt lat="44.84652" lon="5.18891">
        <ele>657</ele>
        <time>2024-07-01T08:14:56Z</time>
      </trkpt>
      <trkpt lat="44.84655" lon="5.18889">
        <ele>656.7</ele>
        <time>2024-07-01T08:14:57Z</time>
      </trkpt>
      <trkpt lat="44.84657" lon="5.18888">
        <ele>656.6</ele>
        <time>2024-07-01T08:14:59Z</time>
      </trkpt>
      <trkpt lat="44.84658" lon="5.18888">
        <ele>656.5</ele>
        <time>2024-07-01T08:15:00Z</time>
      </trkpt>
      <trkpt lat="44.84659" lon="5.18887">
        <ele>656.4</ele>
        <time>2024-07-01T08:15:01Z</time>
      </trkpt>
      <trkpt lat="44.8466" lon="5.18887">
        <ele>656.3</ele>
        <time>2024-07-01T08:15:03Z</time>
      </trkpt>
      <trkpt lat="44.84661" lon="5.18887">
        <ele>656.2</ele>
        <time>2024-07-01T08:15:04Z</time>
      </trkpt>
      <trkpt lat="44.84661" lon="5.18886">
        <ele>656.2</ele>
        <time>2024-07-01T08:15:05Z</time>
      </trkpt>
      <trkpt lat="44.84664" lon="5.18885">
        <ele>655.9</ele>
        <time>2024-07-01T08:15:06Z</time>
      </trkpt>
      <trkpt lat="44.84665" lon="5.18886">
        <ele>655.8</ele>
        <time>2024-07-01T08:15:08Z</time>
      </trkpt>
      <trkpt lat="44.84666" lon="5.18886">
        <ele>655.7</ele>
        <time>2024-07-01T08:15:09Z</time>
      </trkpt>
      <trkpt lat="44.84667" lon="5.18886">
        <ele>655.7</ele>
        <time>2024-07-01T08:15:10Z</time>
      </trkpt>
      <trkpt lat="44.84668" lon="5.18886">
        <ele>655.6</ele>
        <time>2024-07-01T08:15:11Z</time>
      </trkpt>
      <trkpt lat="44.84669" lon="5.18886">
        <ele>655.5</ele>
        <time>2024-07-01T08:15:12Z</time>
      </trkpt>
      <trkpt lat="44.84671" lon="5.18886">
        <ele>655.4</ele>
        <time>2024-07-01T08:15:13Z</time>
      </trkpt>
      <trkpt lat="44.84671" lon="5.18885">
        <ele>655.3</ele>
        <time>2024-07-01T08:15:14Z</time>
      </trkpt>
      <trkpt lat="44.84673" lon="5.18885">
        <ele>655.2</ele>
        <time>2024-07-01T08:15:15Z</time>
      </trkpt>
      <trkpt lat="44.84673" lon="5.18884">
        <ele>655.1</ele>
        <time>2024-07-01T08:15:16Z</time>
      </trkpt>
      <trkpt lat="44.84674" lon="5.18884">
        <ele>655</ele>
        <time>2024-07-01T08:15:17Z</time>
      </trkpt>
      <trkpt lat="44.84676" lon="5.18884">
        <ele>655</ele>
        <time>2024-07-01T08:15:18Z</time>
      </trkpt>
      <trkpt lat="44.84676" lon="5.18884">
        <ele>654.9</ele>
        <time>2024-07-01T08:15:19Z</time>
      </trkpt>
      <trkpt lat="44.84678" lon="5.18884">
        <ele>654.8</ele>
        <time>2024-07-01T08:15:20Z</time>
      </trkpt>
      <trkpt lat="44.84678" lon="5.18883">
        <ele>654.7</ele>
        <time>2024-07-01T08:15:21Z</time>
      </trkpt>
      <trkpt lat="44.84679" lon="5.18883">
        <ele>654.7</ele>
        <time>2024-07-01T08:15:22Z</time>
      </trkpt>
      <trkpt lat="44.84681" lon="5.18883">
        <ele>654.6</ele>
        <time>2024-07-01T08:15:23Z</time>
      </trkpt>
      <trkpt lat="44.84683" lon="5.18883">
        <ele>654.5</ele>
        <time>2024-07-01T08:15:24Z</time>
      </trkpt>
      <trkpt lat="44.84684" lon="5.18883">
        <ele>654.4</ele>
        <time>2024-07-01T08:15:26Z</time>
      </trkpt>
      <trkpt lat="44.84685" lon="5.18883">
        <ele>654.3</ele>
        <time>2024-07-01T08:15:27Z</time>
      </trkpt>
      <trkpt lat="44.84687" lon="5.18884">
        <ele>654.2</ele>
        <time>2024-07-01T08:15:28Z</time>
      </trkpt>
      <trkpt lat="44.84687" lon="5.18885">
        <ele>654.1</ele>
        <time>2024-07-01T08:15:30Z</time>
      </trkpt>
      <trkpt lat="44.84688" lon="5.18886">
        <ele>654.1</ele>
        <time>2024-07-01T08:15:31Z</time>
      </trkpt>
      <trkpt lat="44.84689" lon="5.18886">
        <ele>654</ele>
        <time>2024-07-01T08:15:32Z</time>
      </trkpt>
      <trkpt lat="44.8469" lon="5.18887">
        <ele>654</ele>
        <time>2024-07-01T08:15:33Z</time>
      </trkpt>
      <trkpt lat="44.84692" lon="5.18887">
        <ele>653.9</ele>
        <time>2024-07-01T08:15:34Z</time>
      </trkpt>
      <trkpt lat="44.84694" lon="5.18888">
        <ele>653.8</ele>
        <time>2024-07-01T08:15:36Z</time>
      </trkpt>
      <trkpt lat="44.84695" lon="5.18888">
        <ele>653.7</ele>
        <time>2024-07-01T08:15:37Z</time>
      </trkpt>
      <trkpt lat="44.84696" lon="5.18889">
        <ele>653.7</ele>
        <time>2024-07-01T08:15:38Z</time>
      </trkpt>
      <trkpt lat="44.84696" lon="5.18889">
        <ele>653.7</ele>
        <time>2024-07-01T08:15:39Z</time>
      </trkpt>
      <trkpt lat="44.84697" lon="5.1889">
        <ele>653.6</ele>
        <time>2024-07-01T08:15:40Z</time>
      </trkpt>
      <trkpt lat="44.84698" lon="5.18891">
        <ele>653.6</ele>
        <time>2024-07-01T08:15:41Z</time>
      </trkpt>
      <trkpt lat="44.84699" lon="5.18891">
        <ele>653.5</ele>
        <time>2024-07-01T08:15:42Z</time>
      </trkpt>
      <trkpt lat="44.847" lon="5.18892">
        <ele>653.5</ele>
        <time>2024-07-01T08:15:43Z</time>
      </trkpt>
      <trkpt lat="44.847" lon="5.18893">
        <ele>653.4</ele>
        <time>2024-07-01T08:15:44Z</time>
      </trkpt>
      <trkpt lat="44.84701" lon="5.18894">
        <ele>653.4</ele>
        <time>2024-07-01T08:15:45Z</time>
      </trkpt>
      <trkpt lat="44.84701" lon="5.18896">
        <ele>653.4</ele>
        <time>2024-07-01T08:15:46Z</time>
      </trkpt>
      <trkpt lat="44.84702" lon="5.18897">
        <ele>653.3</ele>
        <time>2024-07-01T08:15:47Z</time>
      </trkpt>
      <trkpt lat="44.84702" lon="5.18899">
        <ele>653.3</ele>
        <time>2024-07-01T08:15:48Z</time>
      </trkpt>
      <trkpt lat="44.84703" lon="5.189">
        <ele>653.2</ele>
        <time>2024-07-01T08:15:49Z</time>
      </trkpt>
      <trkpt lat="44.84703" lon="5.18901">
        <ele>653.2</ele>
        <time>2024-07-01T08:15:50Z</time>
      </trkpt>
      <trkpt lat="44.84703" lon="5.18902">
        <ele>653.2</ele>
        <time>2024-07-01T08:15:51Z</time>
      </trkpt>
      <trkpt lat="44.84704" lon="5.18903">
        <ele>653.1</ele>
        <time>2024-07-01T08:15:52Z</time>
      </trkpt>
      <trkpt lat="44.84706" lon="5.18903">
        <ele>653.1</ele>
        <time>2024-07-01T08:15:53Z</time>
      </trkpt>
      <trkpt lat="44.84707" lon="5.18904">
        <ele>653</ele>
        <time>2024-07-01T08:15:54Z</time>
      </trkpt>
      <trkpt lat="44.84708" lon="5.18904">
        <ele>653</ele>
        <time>2024-07-01T08:15:55Z</time>
      </trkpt>
      <trkpt lat="44.84709" lon="5.18905">
        <ele>653</ele>
        <time>2024-07-01T08:15:56Z</time>
      </trkpt>
      <trkpt lat="44.84709" lon="5.18905">
        <ele>652.9</ele>
        <time>2024-07-01T08:15:57Z</time>
      </trkpt>
      <trkpt lat="44.8471" lon="5.18906">
        <ele>652.9</ele>
        <time>2024-07-01T08:15:58Z</time>
      </trkpt>
      <trkpt lat="44.84711" lon="5.18906">
        <ele>652.9</ele>
        <time>2024-07-01T08:15:59Z</time>
      </trkpt>
      <trkpt lat="44.84712" lon="5.18907">
        <ele>652.8</ele>
        <time>2024-07-01T08:16:00Z</time>
      </trkpt>
      <trkpt lat="44.84712" lon="5.18908">
        <ele>652.8</ele>
        <time>2024-07-01T08:16:01Z</time>
      </trkpt>
      <trkpt lat="44.84713" lon="5.18909">
        <ele>652.8</ele>
        <time>2024-07-01T08:16:02Z</time>
      </trkpt>
      <trkpt lat="44.84714" lon="5.18913">
        <ele>652.6</ele>
        <time>2024-07-01T08:16:03Z</time>
      </trkpt>
      <trkpt lat="44.84714" lon="5.18916">
        <ele>652.6</ele>
        <time>2024-07-01T08:16:05Z</time>
      </trkpt>
      <trkpt lat="44.84715" lon="5.18917">
        <ele>652.5</ele>
        <time>2024-07-01T08:16:06Z</time>
      </trkpt>
      <trkpt lat="44.84716" lon="5.18919">
        <ele>652.4</ele>
        <time>2024-07-01T08:16:07Z</time>
      </trkpt>
      <trkpt lat="44.84717" lon="5.1892">
        <ele>652.3</ele>
        <time>2024-07-01T08:16:08Z</time>
      </trkpt>
      <trkpt lat="44.84717" lon="5.18922">
        <ele>652.2</ele>
        <time>2024-07-01T08:16:10Z</time>
      </trkpt>
      <trkpt lat="44.84717" lon="5.18923">
        <ele>652.2</ele>
        <time>2024-07-01T08:16:11Z</time>
      </trkpt>
      <trkpt lat="44.84717" lon="5.18924">
        <ele>652.1</ele>
        <time>2024-07-01T08:16:12Z</time>
      </trkpt>
      <trkpt lat="44.84717" lon="5.18927">
        <ele>651.9</ele>
        <time>2024-07-01T08:16:13Z</time>
      </trkpt>
      <trkpt lat="44.84717" lon="5.18928">
        <ele>651.8</ele>
        <time>2024-07-01T08:16:15Z</time>
      </trkpt>
      <trkpt lat="44.84718" lon="5.1893">
        <ele>651.8</ele>
        <time>2024-07-01T08:16:16Z</time>
      </trkpt>
      <trkpt lat="44.84718" lon="5.18931">
        <ele>651.6</ele>
        <time>2024-07-01T08:16:17Z</time>
      </trkpt>
      <trkpt lat="44.84718" lon="5.18933">
        <ele>651.5</ele>
        <time>2024-07-01T08:16:18Z</time>
      </trkpt>
      <trkpt lat="44.84719" lon="5.18936">
        <ele>651.3</ele>
        <time>2024-07-01T08:16:19Z</time>
      </trkpt>
      <trkpt lat="44.8472" lon="5.18937">
        <ele>651.1</ele>
        <time>2024-07-01T08:16:21Z</time>
      </trkpt>
      <trkpt lat="44.8472" lon="5.18939">
        <ele>651</ele>
        <time>2024-07-01T08:16:22Z</time>
      </trkpt>
      <trkpt lat="44.84721" lon="5.18941">
        <ele>650.8</ele>
        <time>2024-07-01T08:16:23Z</time>
      </trkpt>
      <trkpt lat="44.8472" lon="5.18943">
        <ele>650.6</ele>
        <time>2024-07-01T08:16:24Z</time>
      </trkpt>
      <trkpt lat="44.84719" lon="5.18944">
        <ele>650.4</ele>
        <time>2024-07-01T08:16:25Z</time>
      </trkpt>
      <trkpt lat="44.84718" lon="5.18945">
        <ele>650.3</ele>
        <time>2024-07-01T08:16:26Z</time>
      </trkpt>
      <trkpt lat="44.84718" lon="5.18946">
        <ele>650.1</ele>
        <time>2024-07-01T08:16:27Z</time>
      </trkpt>
      <trkpt lat="44.84717" lon="5.18947">
        <ele>650</ele>
        <time>2024-07-01T08:16:28Z</time>
      </trkpt>
      <trkpt lat="44.84716" lon="5.18948">
        <ele>649.9</ele>
        <time>2024-07-01T08:16:29Z</time>
      </trkpt>
      <trkpt lat="44.84715" lon="5.1895">
        <ele>649.7</ele>
        <time>2024-07-01T08:16:30Z</time>
      </trkpt>
      <trkpt lat="44.84715" lon="5.18951">
        <ele>649.6</ele>
        <time>2024-07-01T08:16:32Z</time>
      </trkpt>
      <trkpt lat="44.84714" lon="5.18952">
        <ele>649.4</ele>
        <time>2024-07-01T08:16:33Z</time>
      </trkpt>
      <trkpt lat="44.84714" lon="5.18954">
        <ele>649.3</ele>
        <time>2024-07-01T08:16:34Z</time>
      </trkpt>
      <trkpt lat="44.84713" lon="5.18955">
        <ele>649.2</ele>
        <time>2024-07-01T08:16:35Z</time>
      </trkpt>
      <trkpt lat="44.84713" lon="5.18956">
        <ele>649</ele>
        <time>2024-07-01T08:16:36Z</time>
      </trkpt>
      <trkpt lat="44.84713" lon="5.18957">
        <ele>648.9</ele>
        <time>2024-07-01T08:16:37Z</time>
      </trkpt>
      <trkpt lat="44.84712" lon="5.18959">
        <ele>648.8</ele>
        <time>2024-07-01T08:16:38Z</time>
      </trkpt>
      <trkpt lat="44.84712" lon="5.1896">
        <ele>648.7</ele>
        <time>2024-07-01T08:16:39Z</time>
      </trkpt>
      <trkpt lat="44.84712" lon="5.18961">
        <ele>648.6</ele>
        <time>2024-07-01T08:16:40Z</time>
      </trkpt>
      <trkpt lat="44.84712" lon="5.18963">
        <ele>648.5</ele>
        <time>2024-07-01T08:16:41Z</time>
      </trkpt>
      <trkpt lat="44.84712" lon="5.18964">
        <ele>648.4</ele>
        <time>2024-07-01T08:16:42Z</time>
      </trkpt>
      <trkpt lat="44.84712" lon="5.18965">
        <ele>648.4</ele>
        <time>2024-07-01T08:16:43Z</time>
      </trkpt>
      <trkpt lat="44.84711" lon="5.18966">
        <ele>648.3</ele>
        <time>2024-07-01T08:16:44Z</time>
      </trkpt>
      <trkpt lat="44.84711" lon="5.18968">
        <ele>648.1</ele>
        <time>2024-07-01T08:16:45Z</time>
      </trkpt>
      <trkpt lat="44.84711" lon="5.1897">
        <ele>648</ele>
        <time>2024-07-01T08:16:46Z</time>
      </trkpt>
      <trkpt lat="44.84712" lon="5.18971">
        <ele>647.9</ele>
        <time>2024-07-01T08:16:48Z</time>
      </trkpt>
      <trkpt lat="44.84712" lon="5.18972">
        <ele>647.9</ele>
        <time>2024-07-01T08:16:49Z</time>
      </trkpt>
      <trkpt lat="44.84712" lon="5.18975">
        <ele>647.7</ele>
        <time>2024-07-01T08:16:50Z</time>
      </trkpt>
      <trkpt lat="44.84712" lon="5.18977">
        <ele>647.6</ele>
        <time>2024-07-01T08:16:52Z</time>
      </trkpt>
      <trkpt lat="44.84712" lon="5.18979">
        <ele>647.5</ele>
        <time>2024-07-01T08:16:53Z</time>
      </trkpt>
      <trkpt lat="44.84712" lon="5.1898">
        <ele>647.4</ele>
        <time>2024-07-01T08:16:54Z</time>
      </trkpt>
      <trkpt lat="44.84711" lon="5.1898">
        <ele>647.4</ele>
        <time>2024-07-01T08:16:55Z</time>
      </trkpt>
      <trkpt lat="44.84711" lon="5.18982">
        <ele>647.3</ele>
        <time>2024-07-01T08:16:56Z</time>
      </trkpt>
      <trkpt lat="44.84711" lon="5.18984">
        <ele>647.2</ele>
        <time>2024-07-01T08:16:57Z</time>
      </trkpt>
      <trkpt lat="44.84711" lon="5.18987">
        <ele>647.1</ele>
        <time>2024-07-01T08:16:58Z</time>
      </trkpt>
      <trkpt lat="44.84712" lon="5.18991">
        <ele>646.9</ele>
        <time>2024-07-01T08:16:59Z</time>
      </trkpt>
      <trkpt lat="44.84711" lon="5.18994">
        <ele>646.8</ele>
        <time>2024-07-01T08:17:01Z</time>
      </trkpt>
      <trkpt lat="44.84711" lon="5.18994">
        <ele>646.7</ele>
        <time>2024-07-01T08:17:02Z</time>
      </trkpt>
      <trkpt lat="44.84711" lon="5.18997">
        <ele>646.6</ele>
        <time>2024-07-01T08:17:03Z</time>
      </trkpt>
      <trkpt lat="44.84711" lon="5.18999">
        <ele>646.5</ele>
        <time>2024-07-01T08:17:04Z</time>
      </trkpt>
      <trkpt lat="44.84711" lon="5.19">
        <ele>646.4</ele>
        <time>2024-07-01T08:17:05Z</time>
      </trkpt>
      <trkpt lat="44.84711" lon="5.19003">
        <ele>646.2</ele>
        <time>2024-07-01T08:17:06Z</time>
      </trkpt>
      <trkpt lat="44.84711" lon="5.19004">
        <ele>646.2</ele>
        <time>2024-07-01T08:17:07Z</time>
      </trkpt>
      <trkpt lat="44.84711" lon="5.19005">
        <ele>646.1</ele>
        <time>2024-07-01T08:17:08Z</time>
      </trkpt>
      <trkpt lat="44.84711" lon="5.19007">
        <ele>646</ele>
        <time>2024-07-01T08:17:09Z</time>
      </trkpt>
      <trkpt lat="44.8471" lon="5.19008">
        <ele>645.9</ele>
        <time>2024-07-01T08:17:10Z</time>
      </trkpt>
      <trkpt lat="44.8471" lon="5.19009">
        <ele>645.8</ele>
        <time>2024-07-01T08:17:11Z</time>
      </trkpt>
      <trkpt lat="44.8471" lon="5.1901">
        <ele>645.7</ele>
        <time>2024-07-01T08:17:12Z</time>
      </trkpt>
      <trkpt lat="44.8471" lon="5.19011">
        <ele>645.6</ele>
        <time>2024-07-01T08:17:13Z</time>
      </trkpt>
      <trkpt lat="44.84711" lon="5.19012">
        <ele>645.6</ele>
        <time>2024-07-01T08:17:14Z</time>
      </trkpt>
      <trkpt lat="44.84711" lon="5.19012">
        <ele>645.5</ele>
        <time>2024-07-01T08:17:15Z</time>
      </trkpt>
      <trkpt lat="44.84711" lon="5.19013">
        <ele>645.5</ele>
        <time>2024-07-01T08:17:16Z</time>
      </trkpt>
      <trkpt lat="44.84712" lon="5.19014">
        <ele>645.3</ele>
        <time>2024-07-01T08:17:17Z</time>
      </trkpt>
      <trkpt lat="44.84712" lon="5.19014">
        <ele>645.3</ele>
        <time>2024-07-01T08:17:19Z</time>
      </trkpt>
      <trkpt lat="44.84712" lon="5.19014">
        <ele>645.2</ele>
        <time>2024-07-01T08:17:20Z</time>
      </trkpt>
      <trkpt lat="44.84714" lon="5.19014">
        <ele>645.1</ele>
        <time>2024-07-01T08:17:21Z</time>
      </trkpt>
      <trkpt lat="44.84714" lon="5.19016">
        <ele>644.9</ele>
        <time>2024-07-01T08:17:22Z</time>
      </trkpt>
      <trkpt lat="44.84715" lon="5.19018">
        <ele>644.8</ele>
        <time>2024-07-01T08:17:23Z</time>
      </trkpt>
      <trkpt lat="44.84715" lon="5.1902">
        <ele>644.7</ele>
        <time>2024-07-01T08:17:24Z</time>
      </trkpt>
      <trkpt lat="44.84715" lon="5.19022">
        <ele>644.5</ele>
        <time>2024-07-01T08:17:25Z</time>
      </trkpt>
      <trkpt lat="44.84716" lon="5.19023">
        <ele>644.3</ele>
        <time>2024-07-01T08:17:26Z</time>
      </trkpt>
      <trkpt lat="44.84717" lon="5.19025">
        <ele>644.1</ele>
        <time>2024-07-01T08:17:27Z</time>
      </trkpt>
      <trkpt lat="44.84717" lon="5.19027">
        <ele>644</ele>
        <time>2024-07-01T08:17:29Z</time>
      </trkpt>
      <trkpt lat="44.84716" lon="5.19027">
        <ele>643.9</ele>
        <time>2024-07-01T08:17:30Z</time>
      </trkpt>
      <trkpt lat="44.84716" lon="5.19028">
        <ele>643.9</ele>
        <time>2024-07-01T08:17:31Z</time>
      </trkpt>
      <trkpt lat="44.84715" lon="5.19029">
        <ele>643.8</ele>
        <time>2024-07-01T08:17:32Z</time>
      </trkpt>
      <trkpt lat="44.84715" lon="5.1903">
        <ele>643.7</ele>
        <time>2024-07-01T08:17:33Z</time>
      </trkpt>
      <trkpt lat="44.84715" lon="5.19031">
        <ele>643.6</ele>
        <time>2024-07-01T08:17:35Z</time>
      </trkpt>
      <trkpt lat="44.84716" lon="5.19032">
        <ele>643.5</ele>
        <time>2024-07-01T08:17:36Z</time>
      </trkpt>
      <trkpt lat="44.84717" lon="5.19033">
        <ele>643.3</ele>
        <time>2024-07-01T08:17:37Z</time>
      </trkpt>
      <trkpt lat="44.84718" lon="5.19034">
        <ele>643.2</ele>
        <time>2024-07-01T08:17:38Z</time>
      </trkpt>
      <trkpt lat="44.84719" lon="5.19034">
        <ele>643.2</ele>
        <time>2024-07-01T08:17:39Z</time>
      </trkpt>
      <trkpt lat="44.84719" lon="5.19034">
        <ele>643.1</ele>
        <time>2024-07-01T08:17:40Z</time>
      </trkpt>
      <trkpt lat="44.84719" lon="5.19035">
        <ele>643.1</ele>
        <time>2024-07-01T08:17:41Z</time>
      </trkpt>
      <trkpt lat="44.84719" lon="5.19035">
        <ele>643.1</ele>
        <time>2024-07-01T08:17:42Z</time>
      </trkpt>
      <trkpt lat="44.84719" lon="5.19036">
        <ele>643</ele>
        <time>2024-07-01T08:17:43Z</time>
      </trkpt>
      <trkpt lat="44.8472" lon="5.19037">
        <ele>642.9</ele>
        <time>2024-07-01T08:17:44Z</time>
      </trkpt>
      <trkpt lat="44.84721" lon="5.19038">
        <ele>642.8</ele>
        <time>2024-07-01T08:17:46Z</time>
      </trkpt>
      <trkpt lat="44.84723" lon="5.19038">
        <ele>642.7</ele>
        <time>2024-07-01T08:17:47Z</time>
      </trkpt>
      <trkpt lat="44.84724" lon="5.19039">
        <ele>642.6</ele>
        <time>2024-07-01T08:17:49Z</time>
      </trkpt>
      <trkpt lat="44.84726" lon="5.19038">
        <ele>642.5</ele>
        <time>2024-07-01T08:17:50Z</time>
      </trkpt>
      <trkpt lat="44.84727" lon="5.19039">
        <ele>642.4</ele>
        <time>2024-07-01T08:17:51Z</time>
      </trkpt>
      <trkpt lat="44.8473" lon="5.19037">
        <ele>642.2</ele>
        <time>2024-07-01T08:17:52Z</time>
      </trkpt>
      <trkpt lat="44.84731" lon="5.19037">
        <ele>642.2</ele>
        <time>2024-07-01T08:17:53Z</time>
      </trkpt>
      <trkpt lat="44.84732" lon="5.19036">
        <ele>642.2</ele>
        <time>2024-07-01T08:17:54Z</time>
      </trkpt>
      <trkpt lat="44.84732" lon="5.19036">
        <ele>642.2</ele>
        <time>2024-07-01T08:17:55Z</time>
      </trkpt>
      <trkpt lat="44.84732" lon="5.19035">
        <ele>642.2</ele>
        <time>2024-07-01T08:17:56Z</time>
      </trkpt>
      <trkpt lat="44.84732" lon="5.19035">
        <ele>642.1</ele>
        <time>2024-07-01T08:17:57Z</time>
      </trkpt>
      <trkpt lat="44.84731" lon="5.19035">
        <ele>642.1</ele>
        <time>2024-07-01T08:17:58Z</time>
      </trkpt>
      <trkpt lat="44.84731" lon="5.19035">
        <ele>642.1</ele>
        <time>2024-07-01T08:17:59Z</time>
      </trkpt>
      <trkpt lat="44.8473" lon="5.19035">
        <ele>642.1</ele>
        <time>2024-07-01T08:18:00Z</time>
      </trkpt>
      <trkpt lat="44.8473" lon="5.19035">
        <ele>642.1</ele>
        <time>2024-07-01T08:18:01Z</time>
      </trkpt>
      <trkpt lat="44.8473" lon="5.19035">
        <ele>642.1</ele>
        <time>2024-07-01T08:18:02Z</time>
      </trkpt>
      <trkpt lat="44.84729" lon="5.19035">
        <ele>642.1</ele>
        <time>2024-07-01T08:18:03Z</time>
      </trkpt>
      <trkpt lat="44.84729" lon="5.19034">
        <ele>642.1</ele>
        <time>2024-07-01T08:18:04Z</time>
      </trkpt>
      <trkpt lat="44.84729" lon="5.19034">
        <ele>642.1</ele>
        <time>2024-07-01T08:18:05Z</time>
      </trkpt>
      <trkpt lat="44.84729" lon="5.19034">
        <ele>642.1</ele>
        <time>2024-07-01T08:18:06Z</time>
      </trkpt>
      <trkpt lat="44.8473" lon="5.19035">
        <ele>642.1</ele>
        <time>2024-07-01T08:18:07Z</time>
      </trkpt>
      <trkpt lat="44.8473" lon="5.19035">
        <ele>642.1</ele>
        <time>2024-07-01T08:18:08Z</time>
      </trkpt>
      <trkpt lat="44.8473" lon="5.19035">
        <ele>642.1</ele>
        <time>2024-07-01T08:18:09Z</time>
      </trkpt>
      <trkpt lat="44.84731" lon="5.19036">
        <ele>642</ele>
        <time>2024-07-01T08:18:10Z</time>
      </trkpt>
      <trkpt lat="44.84731" lon="5.19036">
        <ele>642</ele>
        <time>2024-07-01T08:18:11Z</time>
      </trkpt>
      <trkpt lat="44.84732" lon="5.19036">
        <ele>642</ele>
        <time>2024-07-01T08:18:12Z</time>
      </trkpt>
      <trkpt lat="44.84732" lon="5.19037">
        <ele>642</ele>
        <time>2024-07-01T08:18:13Z</time>
      </trkpt>
      <trkpt lat="44.84733" lon="5.19037">
        <ele>642</ele>
        <time>2024-07-01T08:18:14Z</time>
      </trkpt>
      <trkpt lat="44.84734" lon="5.19038">
        <ele>642</ele>
        <time>2024-07-01T08:18:15Z</time>
      </trkpt>
      <trkpt lat="44.84735" lon="5.19038">
        <ele>642</ele>
        <time>2024-07-01T08:18:16Z</time>
      </trkpt>
      <trkpt lat="44.84736" lon="5.19038">
        <ele>642</ele>
        <time>2024-07-01T08:18:17Z</time>
      </trkpt>
      <trkpt lat="44.84737" lon="5.19038">
        <ele>642.1</ele>
        <time>2024-07-01T08:18:18Z</time>
      </trkpt>
      <trkpt lat="44.84737" lon="5.19039">
        <ele>642.1</ele>
        <time>2024-07-01T08:18:19Z</time>
      </trkpt>
      <trkpt lat="44.84738" lon="5.19039">
        <ele>642.1</ele>
        <time>2024-07-01T08:18:20Z</time>
      </trkpt>
      <trkpt lat="44.84739" lon="5.19039">
        <ele>642.1</ele>
        <time>2024-07-01T08:18:21Z</time>
      </trkpt>
      <trkpt lat="44.8474" lon="5.1904">
        <ele>642.1</ele>
        <time>2024-07-01T08:18:22Z</time>
      </trkpt>
      <trkpt lat="44.84741" lon="5.19041">
        <ele>642.1</ele>
        <time>2024-07-01T08:18:23Z</time>
      </trkpt>
      <trkpt lat="44.84742" lon="5.19041">
        <ele>642.1</ele>
        <time>2024-07-01T08:18:24Z</time>
      </trkpt>
      <trkpt lat="44.84743" lon="5.19042">
        <ele>642.2</ele>
        <time>2024-07-01T08:18:25Z</time>
      </trkpt>
      <trkpt lat="44.84745" lon="5.19043">
        <ele>642.2</ele>
        <time>2024-07-01T08:18:26Z</time>
      </trkpt>
      <trkpt lat="44.84746" lon="5.19044">
        <ele>642.2</ele>
        <time>2024-07-01T08:18:28Z</time>
      </trkpt>
      <trkpt lat="44.84746" lon="5.19044">
        <ele>642.3</ele>
        <time>2024-07-01T08:18:29Z</time>
      </trkpt>
      <trkpt lat="44.84747" lon="5.19044">
        <ele>642.3</ele>
        <time>2024-07-01T08:18:30Z</time>
      </trkpt>
      <trkpt lat="44.84749" lon="5.19045">
        <ele>642.3</ele>
        <time>2024-07-01T08:18:31Z</time>
      </trkpt>
      <trkpt lat="44.8475" lon="5.19045">
        <ele>642.4</ele>
        <time>2024-07-01T08:18:33Z</time>
      </trkpt>
      <trkpt lat="44.84751" lon="5.19045">
        <ele>642.4</ele>
        <time>2024-07-01T08:18:34Z</time>
      </trkpt>
      <trkpt lat="44.84752" lon="5.19045">
        <ele>642.5</ele>
        <time>2024-07-01T08:18:35Z</time>
      </trkpt>
      <trkpt lat="44.84753" lon="5.19046">
        <ele>642.5</ele>
        <time>2024-07-01T08:18:36Z</time>
      </trkpt>
      <trkpt lat="44.84753" lon="5.19046">
        <ele>642.5</ele>
        <time>2024-07-01T08:18:37Z</time>
      </trkpt>
      <trkpt lat="44.84754" lon="5.19046">
        <ele>642.6</ele>
        <time>2024-07-01T08:18:38Z</time>
      </trkpt>
      <trkpt lat="44.84755" lon="5.19045">
        <ele>642.6</ele>
        <time>2024-07-01T08:18:39Z</time>
      </trkpt>
      <trkpt lat="44.84756" lon="5.19045">
        <ele>642.7</ele>
        <time>2024-07-01T08:18:41Z</time>
      </trkpt>
      <trkpt lat="44.84757" lon="5.19045">
        <ele>642.7</ele>
        <time>2024-07-01T08:18:42Z</time>
      </trkpt>
      <trkpt lat="44.84757" lon="5.19045">
        <ele>642.8</ele>
        <time>2024-07-01T08:18:43Z</time>
      </trkpt>
      <trkpt lat="44.84757" lon="5.19045">
        <ele>642.8</ele>
        <time>2024-07-01T08:18:44Z</time>
      </trkpt>
      <trkpt lat="44.84757" lon="5.19045">
        <ele>642.8</ele>
        <time>2024-07-01T08:18:45Z</time>
      </trkpt>
      <trkpt lat="44.84757" lon="5.19046">
        <ele>642.8</ele>
        <time>2024-07-01T08:18:46Z</time>
      </trkpt>
      <trkpt lat="44.84757" lon="5.19046">
        <ele>642.8</ele>
        <time>2024-07-01T08:18:47Z</time>
      </trkpt>
      <trkpt lat="44.84757" lon="5.19046">
        <ele>642.8</ele>
        <time>2024-07-01T08:18:48Z</time>
      </trkpt>
      <trkpt lat="44.84756" lon="5.19046">
        <ele>642.8</ele>
        <time>2024-07-01T08:18:49Z</time>
      </trkpt>
      <trkpt lat="44.84756" lon="5.19046">
        <ele>642.8</ele>
        <time>2024-07-01T08:18:50Z</time>
      </trkpt>
      <trkpt lat="44.84756" lon="5.19046">
        <ele>642.8</ele>
        <time>2024-07-01T08:18:51Z</time>
      </trkpt>
      <trkpt lat="44.84756" lon="5.19046">
        <ele>642.8</ele>
        <time>2024-07-01T08:18:52Z</time>
      </trkpt>
      <trkpt lat="44.84756" lon="5.19046">
        <ele>642.8</ele>
        <time>2024-07-01T08:18:53Z</time>
      </trkpt>
      <trkpt lat="44.84756" lon="5.19046">
        <ele>642.9</ele>
        <time>2024-07-01T08:18:54Z</time>
      </trkpt>
      <trkpt lat="44.84756" lon="5.19046">
        <ele>642.9</ele>
        <time>2024-07-01T08:18:55Z</time>
      </trkpt>
      <trkpt lat="44.84756" lon="5.19046">
        <ele>642.9</ele>
        <time>2024-07-01T08:18:56Z</time>
      </trkpt>
      <trkpt lat="44.84756" lon="5.19046">
        <ele>642.9</ele>
        <time>2024-07-01T08:18:57Z</time>
      </trkpt>
      <trkpt lat="44.84756" lon="5.19046">
        <ele>642.9</ele>
        <time>2024-07-01T08:18:58Z</time>
      </trkpt>
      <trkpt lat="44.84756" lon="5.19046">
        <ele>642.9</ele>
        <time>2024-07-01T08:18:59Z</time>
      </trkpt>
      <trkpt lat="44.84756" lon="5.19046">
        <ele>642.9</ele>
        <time>2024-07-01T08:19:00Z</time>
      </trkpt>
      <trkpt lat="44.84755" lon="5.19046">
        <ele>642.9</ele>
        <time>2024-07-01T08:19:01Z</time>
      </trkpt>
      <trkpt lat="44.84755" lon="5.19046">
        <ele>642.9</ele>
        <time>2024-07-01T08:19:02Z</time>
      </trkpt>
      <trkpt lat="44.84755" lon="5.19046">
        <ele>642.9</ele>
        <time>2024-07-01T08:19:03Z</time>
      </trkpt>
      <trkpt lat="44.84755" lon="5.19046">
        <ele>642.9</ele>
        <time>2024-07-01T08:19:04Z</time>
      </trkpt>
      <trkpt lat="44.84755" lon="5.19046">
        <ele>642.9</ele>
        <time>2024-07-01T08:19:05Z</time>
      </trkpt>
      <trkpt lat="44.84755" lon="5.19046">
        <ele>642.9</ele>
        <time>2024-07-01T08:19:06Z</time>
      </trkpt>
      <trkpt lat="44.84755" lon="5.19046">
        <ele>642.9</ele>
        <time>2024-07-01T08:19:07Z</time>
      </trkpt>
      <trkpt lat="44.84755" lon="5.19046">
        <ele>642.9</ele>
        <time>2024-07-01T08:19:08Z</time>
      </trkpt>
      <trkpt lat="44.84755" lon="5.19046">
        <ele>642.9</ele>
        <time>2024-07-01T08:19:09Z</time>
      </trkpt>
      <trkpt lat="44.84755" lon="5.19047">
        <ele>642.9</ele>
        <time>2024-07-01T08:19:10Z</time>
      </trkpt>
      <trkpt lat="44.84756" lon="5.19047">
        <ele>643</ele>
        <time>2024-07-01T08:19:11Z</time>
      </trkpt>
      <trkpt lat="44.84757" lon="5.19048">
        <ele>643</ele>
        <time>2024-07-01T08:19:12Z</time>
      </trkpt>
      <trkpt lat="44.84757" lon="5.19049">
        <ele>643.1</ele>
        <time>2024-07-01T08:19:13Z</time>
      </trkpt>
      <trkpt lat="44.84758" lon="5.19049">
        <ele>643.2</ele>
        <time>2024-07-01T08:19:14Z</time>
      </trkpt>
      <trkpt lat="44.84758" lon="5.19049">
        <ele>643.2</ele>
        <time>2024-07-01T08:19:15Z</time>
      </trkpt>
      <trkpt lat="44.84758" lon="5.1905">
        <ele>643.3</ele>
        <time>2024-07-01T08:19:16Z</time>
      </trkpt>
      <trkpt lat="44.84758" lon="5.19051">
        <ele>643.4</ele>
        <time>2024-07-01T08:19:17Z</time>
      </trkpt>
      <trkpt lat="44.84759" lon="5.19052">
        <ele>643.5</ele>
        <time>2024-07-01T08:19:18Z</time>
      </trkpt>
      <trkpt lat="44.8476" lon="5.19053">
        <ele>643.6</ele>
        <time>2024-07-01T08:19:19Z</time>
      </trkpt>
      <trkpt lat="44.84761" lon="5.19053">
        <ele>643.7</ele>
        <time>2024-07-01T08:19:20Z</time>
      </trkpt>
      <trkpt lat="44.84762" lon="5.19054">
        <ele>643.8</ele>
        <time>2024-07-01T08:19:21Z</time>
      </trkpt>
      <trkpt lat="44.84763" lon="5.19054">
        <ele>644</ele>
        <time>2024-07-01T08:19:23Z</time>
      </trkpt>
      <trkpt lat="44.84764" lon="5.19055">
        <ele>644</ele>
        <time>2024-07-01T08:19:24Z</time>
      </trkpt>
      <trkpt lat="44.84764" lon="5.19056">
        <ele>644.1</ele>
        <time>2024-07-01T08:19:25Z</time>
      </trkpt>
      <trkpt lat="44.84765" lon="5.19057">
        <ele>644.3</ele>
        <time>2024-07-01T08:19:26Z</time>
      </trkpt>
      <trkpt lat="44.84765" lon="5.19058">
        <ele>644.4</ele>
        <time>2024-07-01T08:19:27Z</time>
      </trkpt>
      <trkpt lat="44.84766" lon="5.19059">
        <ele>644.5</ele>
        <time>2024-07-01T08:19:28Z</time>
      </trkpt>
      <trkpt lat="44.84766" lon="5.1906">
        <ele>644.6</ele>
        <time>2024-07-01T08:19:29Z</time>
      </trkpt>
      <trkpt lat="44.84766" lon="5.19061">
        <ele>644.7</ele>
        <time>2024-07-01T08:19:30Z</time>
      </trkpt>
      <trkpt lat="44.84767" lon="5.19062">
        <ele>644.8</ele>
        <time>2024-07-01T08:19:31Z</time>
      </trkpt>
      <trkpt lat="44.84767" lon="5.19064">
        <ele>645</ele>
        <time>2024-07-01T08:19:32Z</time>
      </trkpt>
      <trkpt lat="44.84767" lon="5.19065">
        <ele>645.2</ele>
        <time>2024-07-01T08:19:34Z</time>
      </trkpt>
      <trkpt lat="44.84767" lon="5.19067">
        <ele>645.3</ele>
        <time>2024-07-01T08:19:35Z</time>
      </trkpt>
      <trkpt lat="44.84767" lon="5.19068">
        <ele>645.5</ele>
        <time>2024-07-01T08:19:36Z</time>
      </trkpt>
      <trkpt lat="44.84767" lon="5.19069">
        <ele>645.6</ele>
        <time>2024-07-01T08:19:37Z</time>
      </trkpt>
      <trkpt lat="44.84766" lon="5.1907">
        <ele>645.7</ele>
        <time>2024-07-01T08:19:38Z</time>
      </trkpt>
      <trkpt lat="44.84766" lon="5.19072">
        <ele>645.9</ele>
        <time>2024-07-01T08:19:39Z</time>
      </trkpt>
      <trkpt lat="44.84767" lon="5.19073">
        <ele>646</ele>
        <time>2024-07-01T08:19:40Z</time>
      </trkpt>
      <trkpt lat="44.84767" lon="5.19074">
        <ele>646.2</ele>
        <time>2024-07-01T08:19:41Z</time>
      </trkpt>
      <trkpt lat="44.84768" lon="5.19075">
        <ele>646.3</ele>
        <time>2024-07-01T08:19:42Z</time>
      </trkpt>
      <trkpt lat="44.84768" lon="5.19076">
        <ele>646.5</ele>
        <time>2024-07-01T08:19:43Z</time>
      </trkpt>
      <trkpt lat="44.84769" lon="5.19077">
        <ele>646.6</ele>
        <time>2024-07-01T08:19:44Z</time>
      </trkpt>
      <trkpt lat="44.8477" lon="5.19079">
        <ele>646.8</ele>
        <time>2024-07-01T08:19:45Z</time>
      </trkpt>
      <trkpt lat="44.8477" lon="5.19079">
        <ele>646.8</ele>
        <time>2024-07-01T08:19:47Z</time>
      </trkpt>
      <trkpt lat="44.8477" lon="5.19079">
        <ele>646.9</ele>
        <time>2024-07-01T08:19:48Z</time>
      </trkpt>
      <trkpt lat="44.84771" lon="5.1908">
        <ele>647</ele>
        <time>2024-07-01T08:19:49Z</time>
      </trkpt>
      <trkpt lat="44.84772" lon="5.1908">
        <ele>647.2</ele>
        <time>2024-07-01T08:19:50Z</time>
      </trkpt>
      <trkpt lat="44.84772" lon="5.1908">
        <ele>647.2</ele>
        <time>2024-07-01T08:19:51Z</time>
      </trkpt>
      <trkpt lat="44.84773" lon="5.19082">
        <ele>647.5</ele>
        <time>2024-07-01T08:19:52Z</time>
      </trkpt>
      <trkpt lat="44.84774" lon="5.19083">
        <ele>647.6</ele>
        <time>2024-07-01T08:19:54Z</time>
      </trkpt>
      <trkpt lat="44.84775" lon="5.19084">
        <ele>647.7</ele>
        <time>2024-07-01T08:19:55Z</time>
      </trkpt>
      <trkpt lat="44.84775" lon="5.19084">
        <ele>647.9</ele>
        <time>2024-07-01T08:19:56Z</time>
      </trkpt>
      <trkpt lat="44.84776" lon="5.19087">
        <ele>648.1</ele>
        <time>2024-07-01T08:19:57Z</time>
      </trkpt>
      <trkpt lat="44.84777" lon="5.19089">
        <ele>648.4</ele>
        <time>2024-07-01T08:19:59Z</time>
      </trkpt>
      <trkpt lat="44.84778" lon="5.1909">
        <ele>648.6</ele>
        <time>2024-07-01T08:20:01Z</time>
      </trkpt>
      <trkpt lat="44.84778" lon="5.19092">
        <ele>648.7</ele>
        <time>2024-07-01T08:20:02Z</time>
      </trkpt>
      <trkpt lat="44.84778" lon="5.19093">
        <ele>648.8</ele>
        <time>2024-07-01T08:20:03Z</time>
      </trkpt>
      <trkpt lat="44.84779" lon="5.19094">
        <ele>649</ele>
        <time>2024-07-01T08:20:04Z</time>
      </trkpt>
      <trkpt lat="44.84779" lon="5.19095">
        <ele>649.1</ele>
        <time>2024-07-01T08:20:05Z</time>
      </trkpt>
      <trkpt lat="44.8478" lon="5.19096">
        <ele>649.2</ele>
        <time>2024-07-01T08:20:06Z</time>
      </trkpt>
      <trkpt lat="44.84781" lon="5.19097">
        <ele>649.4</ele>
        <time>2024-07-01T08:20:07Z</time>
      </trkpt>
      <trkpt lat="44.84781" lon="5.19098">
        <ele>649.5</ele>
        <time>2024-07-01T08:20:08Z</time>
      </trkpt>
      <trkpt lat="44.84782" lon="5.19098">
        <ele>649.6</ele>
        <time>2024-07-01T08:20:09Z</time>
      </trkpt>
      <trkpt lat="44.84783" lon="5.19099">
        <ele>649.8</ele>
        <time>2024-07-01T08:20:10Z</time>
      </trkpt>
      <trkpt lat="44.84784" lon="5.191">
        <ele>650</ele>
        <time>2024-07-01T08:20:11Z</time>
      </trkpt>
      <trkpt lat="44.84786" lon="5.19101">
        <ele>650.2</ele>
        <time>2024-07-01T08:20:13Z</time>
      </trkpt>
      <trkpt lat="44.84787" lon="5.19103">
        <ele>650.5</ele>
        <time>2024-07-01T08:20:15Z</time>
      </trkpt>
      <trkpt lat="44.84788" lon="5.19103">
        <ele>650.7</ele>
        <time>2024-07-01T08:20:17Z</time>
      </trkpt>
      <trkpt lat="44.84788" lon="5.19103">
        <ele>650.8</ele>
        <time>2024-07-01T08:20:18Z</time>
      </trkpt>
      <trkpt lat="44.84789" lon="5.19102">
        <ele>650.9</ele>
        <time>2024-07-01T08:20:19Z</time>
      </trkpt>
      <trkpt lat="44.8479" lon="5.19103">
        <ele>651.1</ele>
        <time>2024-07-01T08:20:20Z</time>
      </trkpt>
      <trkpt lat="44.84791" lon="5.19104">
        <ele>651.3</ele>
        <time>2024-07-01T08:20:22Z</time>
      </trkpt>
      <trkpt lat="44.84791" lon="5.19105">
        <ele>651.4</ele>
        <time>2024-07-01T08:20:23Z</time>
      </trkpt>
      <trkpt lat="44.84792" lon="5.19108">
        <ele>651.7</ele>
        <time>2024-07-01T08:20:24Z</time>
      </trkpt>
      <trkpt lat="44.84793" lon="5.1911">
        <ele>652</ele>
        <time>2024-07-01T08:20:26Z</time>
      </trkpt>
      <trkpt lat="44.84793" lon="5.19111">
        <ele>652.1</ele>
        <time>2024-07-01T08:20:28Z</time>
      </trkpt>
      <trkpt lat="44.84793" lon="5.19112">
        <ele>652.3</ele>
        <time>2024-07-01T08:20:29Z</time>
      </trkpt>
      <trkpt lat="44.84794" lon="5.19114">
        <ele>652.6</ele>
        <time>2024-07-01T08:20:30Z</time>
      </trkpt>
      <trkpt lat="44.84795" lon="5.19117">
        <ele>652.9</ele>
        <time>2024-07-01T08:20:32Z</time>
      </trkpt>
      <trkpt lat="44.84795" lon="5.19118">
        <ele>653.1</ele>
        <time>2024-07-01T08:20:34Z</time>
      </trkpt>
      <trkpt lat="44.84796" lon="5.19119">
        <ele>653.2</ele>
        <time>2024-07-01T08:20:35Z</time>
      </trkpt>
      <trkpt lat="44.84796" lon="5.19121">
        <ele>653.4</ele>
        <time>2024-07-01T08:20:36Z</time>
      </trkpt>
      <trkpt lat="44.84797" lon="5.19122">
        <ele>653.6</ele>
        <time>2024-07-01T08:20:37Z</time>
      </trkpt>
      <trkpt lat="44.84797" lon="5.19123">
        <ele>653.7</ele>
        <time>2024-07-01T08:20:38Z</time>
      </trkpt>
      <trkpt lat="44.84797" lon="5.19124">
        <ele>653.9</ele>
        <time>2024-07-01T08:20:39Z</time>
      </trkpt>
      <trkpt lat="44.84798" lon="5.19126">
        <ele>654.1</ele>
        <time>2024-07-01T08:20:40Z</time>
      </trkpt>
      <trkpt lat="44.84798" lon="5.19127">
        <ele>654.2</ele>
        <time>2024-07-01T08:20:41Z</time>
      </trkpt>
      <trkpt lat="44.84798" lon="5.19128">
        <ele>654.4</ele>
        <time>2024-07-01T08:20:42Z</time>
      </trkpt>
      <trkpt lat="44.84799" lon="5.19129">
        <ele>654.5</ele>
        <time>2024-07-01T08:20:43Z</time>
      </trkpt>
      <trkpt lat="44.848" lon="5.1913">
        <ele>654.8</ele>
        <time>2024-07-01T08:20:44Z</time>
      </trkpt>
      <trkpt lat="44.84802" lon="5.19131">
        <ele>655.2</ele>
        <time>2024-07-01T08:20:46Z</time>
      </trkpt>
      <trkpt lat="44.84804" lon="5.19133">
        <ele>655.6</ele>
        <time>2024-07-01T08:20:48Z</time>
      </trkpt>
      <trkpt lat="44.84805" lon="5.19134">
        <ele>655.8</ele>
        <time>2024-07-01T08:20:50Z</time>
      </trkpt>
      <trkpt lat="44.84806" lon="5.19135">
        <ele>656</ele>
        <time>2024-07-01T08:20:51Z</time>
      </trkpt>
      <trkpt lat="44.84806" lon="5.19135">
        <ele>656.1</ele>
        <time>2024-07-01T08:20:52Z</time>
      </trkpt>
      <trkpt lat="44.84807" lon="5.19136">
        <ele>656.3</ele>
        <time>2024-07-01T08:20:53Z</time>
      </trkpt>
      <trkpt lat="44.84809" lon="5.19136">
        <ele>656.5</ele>
        <time>2024-07-01T08:20:54Z</time>
      </trkpt>
      <trkpt lat="44.8481" lon="5.19137">
        <ele>656.8</ele>
        <time>2024-07-01T08:20:56Z</time>
      </trkpt>
      <trkpt lat="44.84811" lon="5.19138">
        <ele>657</ele>
        <time>2024-07-01T08:20:58Z</time>
      </trkpt>
      <trkpt lat="44.84811" lon="5.1914">
        <ele>657.2</ele>
        <time>2024-07-01T08:20:59Z</time>
      </trkpt>
      <trkpt lat="44.8481" lon="5.19141">
        <ele>657.3</ele>
        <time>2024-07-01T08:21:00Z</time>
      </trkpt>
      <trkpt lat="44.84812" lon="5.19142">
        <ele>657.6</ele>
        <time>2024-07-01T08:21:01Z</time>
      </trkpt>
      <trkpt lat="44.84812" lon="5.19143">
        <ele>657.8</ele>
        <time>2024-07-01T08:21:03Z</time>
      </trkpt>
      <trkpt lat="44.84812" lon="5.19145">
        <ele>657.9</ele>
        <time>2024-07-01T08:21:04Z</time>
      </trkpt>
      <trkpt lat="44.84813" lon="5.19146">
        <ele>658</ele>
        <time>2024-07-01T08:21:05Z</time>
      </trkpt>
      <trkpt lat="44.84814" lon="5.19146">
        <ele>658.2</ele>
        <time>2024-07-01T08:21:06Z</time>
      </trkpt>
      <trkpt lat="44.84816" lon="5.19146">
        <ele>658.5</ele>
        <time>2024-07-01T08:21:07Z</time>
      </trkpt>
      <trkpt lat="44.84817" lon="5.19146">
        <ele>658.6</ele>
        <time>2024-07-01T08:21:09Z</time>
      </trkpt>
      <trkpt lat="44.84817" lon="5.19146">
        <ele>658.7</ele>
        <time>2024-07-01T08:21:10Z</time>
      </trkpt>
      <trkpt lat="44.84818" lon="5.19146">
        <ele>658.8</ele>
        <time>2024-07-01T08:21:11Z</time>
      </trkpt>
      <trkpt lat="44.84818" lon="5.19146">
        <ele>658.8</ele>
        <time>2024-07-01T08:21:12Z</time>
      </trkpt>
      <trkpt lat="44.84818" lon="5.19146">
        <ele>658.9</ele>
        <time>2024-07-01T08:21:13Z</time>
      </trkpt>
      <trkpt lat="44.84818" lon="5.19146">
        <ele>658.9</ele>
        <time>2024-07-01T08:21:14Z</time>
      </trkpt>
      <trkpt lat="44.84817" lon="5.19146">
        <ele>659</ele>
        <time>2024-07-01T08:21:15Z</time>
      </trkpt>
      <trkpt lat="44.84817" lon="5.19146">
        <ele>659</ele>
        <time>2024-07-01T08:21:16Z</time>
      </trkpt>
      <trkpt lat="44.84817" lon="5.19146">
        <ele>659</ele>
        <time>2024-07-01T08:21:17Z</time>
      </trkpt>
      <trkpt lat="44.84817" lon="5.19146">
        <ele>659</ele>
        <time>2024-07-01T08:21:18Z</time>
      </trkpt>
      <trkpt lat="44.84817" lon="5.19146">
        <ele>659.1</ele>
        <time>2024-07-01T08:21:19Z</time>
      </trkpt>
      <trkpt lat="44.84817" lon="5.19146">
        <ele>659.1</ele>
        <time>2024-07-01T08:21:20Z</time>
      </trkpt>
      <trkpt lat="44.84817" lon="5.19146">
        <ele>659.1</ele>
        <time>2024-07-01T08:21:21Z</time>
      </trkpt>
      <trkpt lat="44.84817" lon="5.19146">
        <ele>659.1</ele>
        <time>2024-07-01T08:21:22Z</time>
      </trkpt>
      <trkpt lat="44.84817" lon="5.19146">
        <ele>659.1</ele>
        <time>2024-07-01T08:21:23Z</time>
      </trkpt>
      <trkpt lat="44.84817" lon="5.19146">
        <ele>659.1</ele>
        <time>2024-07-01T08:21:24Z</time>
      </trkpt>
      <trkpt lat="44.84817" lon="5.19146">
        <ele>659.1</ele>
        <time>2024-07-01T08:21:25Z</time>
      </trkpt>
      <trkpt lat="44.84817" lon="5.19146">
        <ele>659.1</ele>
        <time>2024-07-01T08:21:26Z</time>
      </trkpt>
      <trkpt lat="44.84817" lon="5.19146">
        <ele>659.2</ele>
        <time>2024-07-01T08:21:27Z</time>
      </trkpt>
      <trkpt lat="44.84818" lon="5.19147">
        <ele>659.3</ele>
        <time>2024-07-01T08:21:28Z</time>
      </trkpt>
      <trkpt lat="44.84819" lon="5.19148">
        <ele>659.4</ele>
        <time>2024-07-01T08:21:29Z</time>
      </trkpt>
      <trkpt lat="44.8482" lon="5.19149">
        <ele>659.6</ele>
        <time>2024-07-01T08:21:30Z</time>
      </trkpt>
      <trkpt lat="44.84821" lon="5.1915">
        <ele>659.8</ele>
        <time>2024-07-01T08:21:31Z</time>
      </trkpt>
      <trkpt lat="44.84822" lon="5.19151">
        <ele>659.9</ele>
        <time>2024-07-01T08:21:32Z</time>
      </trkpt>
      <trkpt lat="44.84823" lon="5.19151">
        <ele>660</ele>
        <time>2024-07-01T08:21:33Z</time>
      </trkpt>
      <trkpt lat="44.84823" lon="5.19152">
        <ele>660.1</ele>
        <time>2024-07-01T08:21:34Z</time>
      </trkpt>
      <trkpt lat="44.84824" lon="5.19153">
        <ele>660.2</ele>
        <time>2024-07-01T08:21:35Z</time>
      </trkpt>
      <trkpt lat="44.84824" lon="5.19154">
        <ele>660.4</ele>
        <time>2024-07-01T08:21:36Z</time>
      </trkpt>
      <trkpt lat="44.84825" lon="5.19155">
        <ele>660.4</ele>
        <time>2024-07-01T08:21:37Z</time>
      </trkpt>
      <trkpt lat="44.84825" lon="5.19156">
        <ele>660.6</ele>
        <time>2024-07-01T08:21:38Z</time>
      </trkpt>
      <trkpt lat="44.84826" lon="5.19157">
        <ele>660.7</ele>
        <time>2024-07-01T08:21:39Z</time>
      </trkpt>
      <trkpt lat="44.84827" lon="5.19159">
        <ele>660.9</ele>
        <time>2024-07-01T08:21:40Z</time>
      </trkpt>
      <trkpt lat="44.84828" lon="5.1916">
        <ele>661</ele>
        <time>2024-07-01T08:21:42Z</time>
      </trkpt>
      <trkpt lat="44.84828" lon="5.1916">
        <ele>661.1</ele>
        <time>2024-07-01T08:21:43Z</time>
      </trkpt>
      <trkpt lat="44.84829" lon="5.19162">
        <ele>661.2</ele>
        <time>2024-07-01T08:21:44Z</time>
      </trkpt>
      <trkpt lat="44.8483" lon="5.19162">
        <ele>661.4</ele>
        <time>2024-07-01T08:21:45Z</time>
      </trkpt>
      <trkpt lat="44.84831" lon="5.19162">
        <ele>661.5</ele>
        <time>2024-07-01T08:21:46Z</time>
      </trkpt>
      <trkpt lat="44.84833" lon="5.19163">
        <ele>661.8</ele>
        <time>2024-07-01T08:21:47Z</time>
      </trkpt>
      <trkpt lat="44.84834" lon="5.19164">
        <ele>661.9</ele>
        <time>2024-07-01T08:21:49Z</time>
      </trkpt>
      <trkpt lat="44.84835" lon="5.19164">
        <ele>662</ele>
        <time>2024-07-01T08:21:50Z</time>
      </trkpt>
      <trkpt lat="44.84835" lon="5.19164">
        <ele>662.1</ele>
        <time>2024-07-01T08:21:51Z</time>
      </trkpt>
      <trkpt lat="44.84836" lon="5.19165">
        <ele>662.2</ele>
        <time>2024-07-01T08:21:52Z</time>
      </trkpt>
      <trkpt lat="44.84837" lon="5.19165">
        <ele>662.3</ele>
        <time>2024-07-01T08:21:53Z</time>
      </trkpt>
      <trkpt lat="44.84838" lon="5.19166">
        <ele>662.5</ele>
        <time>2024-07-01T08:21:54Z</time>
      </trkpt>
      <trkpt lat="44.84839" lon="5.19166">
        <ele>662.6</ele>
        <time>2024-07-01T08:21:55Z</time>
      </trkpt>
      <trkpt lat="44.8484" lon="5.19168">
        <ele>662.7</ele>
        <time>2024-07-01T08:21:56Z</time>
      </trkpt>
      <trkpt lat="44.8484" lon="5.19168">
        <ele>662.8</ele>
        <time>2024-07-01T08:21:57Z</time>
      </trkpt>
      <trkpt lat="44.84841" lon="5.1917">
        <ele>663</ele>
        <time>2024-07-01T08:21:59Z</time>
      </trkpt>
      <trkpt lat="44.8484" lon="5.19171">
        <ele>663.1</ele>
        <time>2024-07-01T08:22:01Z</time>
      </trkpt>
      <trkpt lat="44.8484" lon="5.19173">
        <ele>663.2</ele>
        <time>2024-07-01T08:22:02Z</time>
      </trkpt>
      <trkpt lat="44.84839" lon="5.19176">
        <ele>663.5</ele>
        <time>2024-07-01T08:22:03Z</time>
      </trkpt>
      <trkpt lat="44.84839" lon="5.19177">
        <ele>663.6</ele>
        <time>2024-07-01T08:22:05Z</time>
      </trkpt>
      <trkpt lat="44.84839" lon="5.19178">
        <ele>663.7</ele>
        <time>2024-07-01T08:22:06Z</time>
      </trkpt>
      <trkpt lat="44.84839" lon="5.19179">
        <ele>663.8</ele>
        <time>2024-07-01T08:22:07Z</time>
      </trkpt>
      <trkpt lat="44.84839" lon="5.19181">
        <ele>663.9</ele>
        <time>2024-07-01T08:22:08Z</time>
      </trkpt>
      <trkpt lat="44.84838" lon="5.19182">
        <ele>664</ele>
        <time>2024-07-01T08:22:09Z</time>
      </trkpt>
      <trkpt lat="44.84838" lon="5.19183">
        <ele>664.1</ele>
        <time>2024-07-01T08:22:10Z</time>
      </trkpt>
      <trkpt lat="44.84838" lon="5.19184">
        <ele>664.1</ele>
        <time>2024-07-01T08:22:11Z</time>
      </trkpt>
      <trkpt lat="44.84838" lon="5.19185">
        <ele>664.2</ele>
        <time>2024-07-01T08:22:12Z</time>
      </trkpt>
      <trkpt lat="44.84837" lon="5.19185">
        <ele>664.2</ele>
        <time>2024-07-01T08:22:13Z</time>
      </trkpt>
      <trkpt lat="44.84837" lon="5.19185">
        <ele>664.2</ele>
        <time>2024-07-01T08:22:14Z</time>
      </trkpt>
      <trkpt lat="44.84837" lon="5.19185">
        <ele>664.3</ele>
        <time>2024-07-01T08:22:15Z</time>
      </trkpt>
      <trkpt lat="44.84837" lon="5.19185">
        <ele>664.3</ele>
        <time>2024-07-01T08:22:16Z</time>
      </trkpt>
      <trkpt lat="44.84837" lon="5.19185">
        <ele>664.3</ele>
        <time>2024-07-01T08:22:17Z</time>
      </trkpt>
      <trkpt lat="44.84837" lon="5.19185">
        <ele>664.3</ele>
        <time>2024-07-01T08:22:18Z</time>
      </trkpt>
      <trkpt lat="44.84837" lon="5.19185">
        <ele>664.3</ele>
        <time>2024-07-01T08:22:19Z</time>
      </trkpt>
      <trkpt lat="44.84837" lon="5.19185">
        <ele>664.3</ele>
        <time>2024-07-01T08:22:20Z</time>
      </trkpt>
      <trkpt lat="44.84837" lon="5.19185">
        <ele>664.3</ele>
        <time>2024-07-01T08:22:21Z</time>
      </trkpt>
      <trkpt lat="44.84837" lon="5.19185">
        <ele>664.3</ele>
        <time>2024-07-01T08:22:22Z</time>
      </trkpt>
      <trkpt lat="44.84837" lon="5.19185">
        <ele>664.3</ele>
        <time>2024-07-01T08:22:23Z</time>
      </trkpt>
      <trkpt lat="44.84837" lon="5.19186">
        <ele>664.4</ele>
        <time>2024-07-01T08:22:24Z</time>
      </trkpt>
      <trkpt lat="44.84837" lon="5.19187">
        <ele>664.4</ele>
        <time>2024-07-01T08:22:25Z</time>
      </trkpt>
      <trkpt lat="44.84838" lon="5.1919">
        <ele>664.6</ele>
        <time>2024-07-01T08:22:26Z</time>
      </trkpt>
      <trkpt lat="44.84838" lon="5.19191">
        <ele>664.7</ele>
        <time>2024-07-01T08:22:27Z</time>
      </trkpt>
      <trkpt lat="44.84838" lon="5.19192">
        <ele>664.8</ele>
        <time>2024-07-01T08:22:28Z</time>
      </trkpt>
      <trkpt lat="44.84838" lon="5.19194">
        <ele>664.9</ele>
        <time>2024-07-01T08:22:29Z</time>
      </trkpt>
      <trkpt lat="44.84838" lon="5.19194">
        <ele>664.9</ele>
        <time>2024-07-01T08:22:30Z</time>
      </trkpt>
      <trkpt lat="44.84839" lon="5.19196">
        <ele>665.1</ele>
        <time>2024-07-01T08:22:31Z</time>
      </trkpt>
      <trkpt lat="44.84839" lon="5.19197">
        <ele>665.2</ele>
        <time>2024-07-01T08:22:33Z</time>
      </trkpt>
      <trkpt lat="44.84839" lon="5.19199">
        <ele>665.3</ele>
        <time>2024-07-01T08:22:34Z</time>
      </trkpt>
      <trkpt lat="44.8484" lon="5.19201">
        <ele>665.4</ele>
        <time>2024-07-01T08:22:35Z</time>
      </trkpt>
      <trkpt lat="44.8484" lon="5.19203">
        <ele>665.6</ele>
        <time>2024-07-01T08:22:36Z</time>
      </trkpt>
      <trkpt lat="44.8484" lon="5.19204">
        <ele>665.6</ele>
        <time>2024-07-01T08:22:38Z</time>
      </trkpt>
      <trkpt lat="44.8484" lon="5.19206">
        <ele>665.8</ele>
        <time>2024-07-01T08:22:39Z</time>
      </trkpt>
      <trkpt lat="44.84841" lon="5.19208">
        <ele>665.9</ele>
        <time>2024-07-01T08:22:40Z</time>
      </trkpt>
      <trkpt lat="44.84841" lon="5.1921">
        <ele>666.1</ele>
        <time>2024-07-01T08:22:41Z</time>
      </trkpt>
      <trkpt lat="44.84841" lon="5.19211">
        <ele>666.2</ele>
        <time>2024-07-01T08:22:43Z</time>
      </trkpt>
      <trkpt lat="44.84841" lon="5.19213">
        <ele>666.3</ele>
        <time>2024-07-01T08:22:45Z</time>
      </trkpt>
      <trkpt lat="44.84841" lon="5.19214">
        <ele>666.4</ele>
        <time>2024-07-01T08:22:46Z</time>
      </trkpt>
      <trkpt lat="44.84842" lon="5.19216">
        <ele>666.5</ele>
        <time>2024-07-01T08:22:47Z</time>
      </trkpt>
      <trkpt lat="44.84841" lon="5.19217">
        <ele>666.7</ele>
        <time>2024-07-01T08:22:49Z</time>
      </trkpt>
      <trkpt lat="44.84841" lon="5.19217">
        <ele>666.7</ele>
        <time>2024-07-01T08:22:50Z</time>
      </trkpt>
      <trkpt lat="44.84842" lon="5.19217">
        <ele>666.8</ele>
        <time>2024-07-01T08:22:51Z</time>
      </trkpt>
      <trkpt lat="44.84842" lon="5.19218">
        <ele>666.9</ele>
        <time>2024-07-01T08:22:52Z</time>
      </trkpt>
      <trkpt lat="44.84843" lon="5.19221">
        <ele>667.2</ele>
        <time>2024-07-01T08:22:54Z</time>
      </trkpt>
      <trkpt lat="44.84843" lon="5.19222">
        <ele>667.4</ele>
        <time>2024-07-01T08:22:55Z</time>
      </trkpt>
      <trkpt lat="44.84844" lon="5.19224">
        <ele>667.6</ele>
        <time>2024-07-01T08:22:56Z</time>
      </trkpt>
      <trkpt lat="44.84845" lon="5.19227">
        <ele>667.9</ele>
        <time>2024-07-01T08:22:57Z</time>
      </trkpt>
      <trkpt lat="44.84846" lon="5.19228">
        <ele>668</ele>
        <time>2024-07-01T08:22:58Z</time>
      </trkpt>
      <trkpt lat="44.84846" lon="5.19229">
        <ele>668.1</ele>
        <time>2024-07-01T08:22:59Z</time>
      </trkpt>
      <trkpt lat="44.84847" lon="5.1923">
        <ele>668.2</ele>
        <time>2024-07-01T08:23:00Z</time>
      </trkpt>
      <trkpt lat="44.84847" lon="5.19232">
        <ele>668.3</ele>
        <time>2024-07-01T08:23:01Z</time>
      </trkpt>
      <trkpt lat="44.84847" lon="5.19234">
        <ele>668.5</ele>
        <time>2024-07-01T08:23:02Z</time>
      </trkpt>
      <trkpt lat="44.84847" lon="5.19235">
        <ele>668.7</ele>
        <time>2024-07-01T08:23:03Z</time>
      </trkpt>
      <trkpt lat="44.84847" lon="5.19237">
        <ele>668.8</ele>
        <time>2024-07-01T08:23:04Z</time>
      </trkpt>
      <trkpt lat="44.84847" lon="5.19238">
        <ele>668.9</ele>
        <time>2024-07-01T08:23:05Z</time>
      </trkpt>
      <trkpt lat="44.84847" lon="5.19239">
        <ele>669</ele>
        <time>2024-07-01T08:23:06Z</time>
      </trkpt>
      <trkpt lat="44.84847" lon="5.19241">
        <ele>669.2</ele>
        <time>2024-07-01T08:23:07Z</time>
      </trkpt>
      <trkpt lat="44.84847" lon="5.19242">
        <ele>669.3</ele>
        <time>2024-07-01T08:23:08Z</time>
      </trkpt>
      <trkpt lat="44.84847" lon="5.19243">
        <ele>669.4</ele>
        <time>2024-07-01T08:23:09Z</time>
      </trkpt>
      <trkpt lat="44.84847" lon="5.19243">
        <ele>669.4</ele>
        <time>2024-07-01T08:23:10Z</time>
      </trkpt>
      <trkpt lat="44.84846" lon="5.19243">
        <ele>669.4</ele>
        <time>2024-07-01T08:23:11Z</time>
      </trkpt>
      <trkpt lat="44.84847" lon="5.19243">
        <ele>669.4</ele>
        <time>2024-07-01T08:23:12Z</time>
      </trkpt>
      <trkpt lat="44.84847" lon="5.19243">
        <ele>669.5</ele>
        <time>2024-07-01T08:23:13Z</time>
      </trkpt>
      <trkpt lat="44.84847" lon="5.19244">
        <ele>669.5</ele>
        <time>2024-07-01T08:23:14Z</time>
      </trkpt>
      <trkpt lat="44.84847" lon="5.19244">
        <ele>669.5</ele>
        <time>2024-07-01T08:23:15Z</time>
      </trkpt>
      <trkpt lat="44.84846" lon="5.19244">
        <ele>669.5</ele>
        <time>2024-07-01T08:23:16Z</time>
      </trkpt>
      <trkpt lat="44.84846" lon="5.19245">
        <ele>669.6</ele>
        <time>2024-07-01T08:23:17Z</time>
      </trkpt>
      <trkpt lat="44.84846" lon="5.19245">
        <ele>669.7</ele>
        <time>2024-07-01T08:23:18Z</time>
      </trkpt>
      <trkpt lat="44.84846" lon="5.19245">
        <ele>669.7</ele>
        <time>2024-07-01T08:23:19Z</time>
      </trkpt>
      <trkpt lat="44.84846" lon="5.19245">
        <ele>669.7</ele>
        <time>2024-07-01T08:23:20Z</time>
      </trkpt>
      <trkpt lat="44.84845" lon="5.19246">
        <ele>669.7</ele>
        <time>2024-07-01T08:23:21Z</time>
      </trkpt>
      <trkpt lat="44.84845" lon="5.19246">
        <ele>669.8</ele>
        <time>2024-07-01T08:23:23Z</time>
      </trkpt>
      <trkpt lat="44.84846" lon="5.19246">
        <ele>669.8</ele>
        <time>2024-07-01T08:23:24Z</time>
      </trkpt>
      <trkpt lat="44.84846" lon="5.19247">
        <ele>669.8</ele>
        <time>2024-07-01T08:23:25Z</time>
      </trkpt>
      <trkpt lat="44.84846" lon="5.19247">
        <ele>669.9</ele>
        <time>2024-07-01T08:23:26Z</time>
      </trkpt>
      <trkpt lat="44.84846" lon="5.19247">
        <ele>669.9</ele>
        <time>2024-07-01T08:23:27Z</time>
      </trkpt>
      <trkpt lat="44.84846" lon="5.19246">
        <ele>669.9</ele>
        <time>2024-07-01T08:23:28Z</time>
      </trkpt>
      <trkpt lat="44.84846" lon="5.19246">
        <ele>669.9</ele>
        <time>2024-07-01T08:23:29Z</time>
      </trkpt>
      <trkpt lat="44.84846" lon="5.19246">
        <ele>669.9</ele>
        <time>2024-07-01T08:23:30Z</time>
      </trkpt>
      <trkpt lat="44.84846" lon="5.19246">
        <ele>669.9</ele>
        <time>2024-07-01T08:23:31Z</time>
      </trkpt>
      <trkpt lat="44.84847" lon="5.19246">
        <ele>670</ele>
        <time>2024-07-01T08:23:32Z</time>
      </trkpt>
      <trkpt lat="44.84847" lon="5.19246">
        <ele>670</ele>
        <time>2024-07-01T08:23:33Z</time>
      </trkpt>
      <trkpt lat="44.84847" lon="5.19246">
        <ele>670</ele>
        <time>2024-07-01T08:23:34Z</time>
      </trkpt>
      <trkpt lat="44.84847" lon="5.19246">
        <ele>670</ele>
        <time>2024-07-01T08:23:35Z</time>
      </trkpt>
      <trkpt lat="44.84847" lon="5.19246">
        <ele>670</ele>
        <time>2024-07-01T08:23:37Z</time>
      </trkpt>
      <trkpt lat="44.84847" lon="5.19246">
        <ele>670.1</ele>
        <time>2024-07-01T08:23:38Z</time>
      </trkpt>
      <trkpt lat="44.84848" lon="5.19246">
        <ele>670.1</ele>
        <time>2024-07-01T08:23:39Z</time>
      </trkpt>
      <trkpt lat="44.84848" lon="5.19246">
        <ele>670.1</ele>
        <time>2024-07-01T08:23:40Z</time>
      </trkpt>
      <trkpt lat="44.84848" lon="5.19247">
        <ele>670.2</ele>
        <time>2024-07-01T08:23:41Z</time>
      </trkpt>
      <trkpt lat="44.84848" lon="5.19246">
        <ele>670.2</ele>
        <time>2024-07-01T08:23:42Z</time>
      </trkpt>
      <trkpt lat="44.84848" lon="5.19246">
        <ele>670.3</ele>
        <time>2024-07-01T08:23:43Z</time>
      </trkpt>
      <trkpt lat="44.84848" lon="5.19246">
        <ele>670.3</ele>
        <time>2024-07-01T08:23:44Z</time>
      </trkpt>
      <trkpt lat="44.84848" lon="5.19245">
        <ele>670.3</ele>
        <time>2024-07-01T08:23:45Z</time>
      </trkpt>
      <trkpt lat="44.84848" lon="5.19245">
        <ele>670.3</ele>
        <time>2024-07-01T08:23:46Z</time>
      </trkpt>
      <trkpt lat="44.84848" lon="5.19244">
        <ele>670.4</ele>
        <time>2024-07-01T08:23:47Z</time>
      </trkpt>
      <trkpt lat="44.84848" lon="5.19244">
        <ele>670.4</ele>
        <time>2024-07-01T08:23:48Z</time>
      </trkpt>
      <trkpt lat="44.84848" lon="5.19244">
        <ele>670.4</ele>
        <time>2024-07-01T08:23:49Z</time>
      </trkpt>
      <trkpt lat="44.84848" lon="5.19245">
        <ele>670.4</ele>
        <time>2024-07-01T08:23:51Z</time>
      </trkpt>
      <trkpt lat="44.84849" lon="5.19246">
        <ele>670.5</ele>
        <time>2024-07-01T08:23:52Z</time>
      </trkpt>
      <trkpt lat="44.84849" lon="5.19246">
        <ele>670.6</ele>
        <time>2024-07-01T08:23:54Z</time>
      </trkpt>
      <trkpt lat="44.84849" lon="5.19251">
        <ele>671</ele>
        <time>2024-07-01T08:23:55Z</time>
      </trkpt>
      <trkpt lat="44.84851" lon="5.19253">
        <ele>671.3</ele>
        <time>2024-07-01T08:23:56Z</time>
      </trkpt>
      <trkpt lat="44.84853" lon="5.19254">
        <ele>671.6</ele>
        <time>2024-07-01T08:23:58Z</time>
      </trkpt>
      <trkpt lat="44.84855" lon="5.19256">
        <ele>671.9</ele>
        <time>2024-07-01T08:23:59Z</time>
      </trkpt>
      <trkpt lat="44.84855" lon="5.19258">
        <ele>672.1</ele>
        <time>2024-07-01T08:24:00Z</time>
      </trkpt>
      <trkpt lat="44.84856" lon="5.1926">
        <ele>672.2</ele>
        <time>2024-07-01T08:24:01Z</time>
      </trkpt>
      <trkpt lat="44.84856" lon="5.19262">
        <ele>672.4</ele>
        <time>2024-07-01T08:24:03Z</time>
      </trkpt>
      <trkpt lat="44.84856" lon="5.19263">
        <ele>672.5</ele>
        <time>2024-07-01T08:24:04Z</time>
      </trkpt>
      <trkpt lat="44.84856" lon="5.19264">
        <ele>672.6</ele>
        <time>2024-07-01T08:24:05Z</time>
      </trkpt>
      <trkpt lat="44.84857" lon="5.19266">
        <ele>672.8</ele>
        <time>2024-07-01T08:24:06Z</time>
      </trkpt>
      <trkpt lat="44.84858" lon="5.19267">
        <ele>673</ele>
        <time>2024-07-01T08:24:07Z</time>
      </trkpt>
      <trkpt lat="44.84858" lon="5.19268">
        <ele>673</ele>
        <time>2024-07-01T08:24:09Z</time>
      </trkpt>
      <trkpt lat="44.84858" lon="5.19269">
        <ele>673.1</ele>
        <time>2024-07-01T08:24:10Z</time>
      </trkpt>
      <trkpt lat="44.84858" lon="5.1927">
        <ele>673.3</ele>
        <time>2024-07-01T08:24:11Z</time>
      </trkpt>
      <trkpt lat="44.84859" lon="5.19273">
        <ele>673.5</ele>
        <time>2024-07-01T08:24:12Z</time>
      </trkpt>
      <trkpt lat="44.84859" lon="5.19274">
        <ele>673.6</ele>
        <time>2024-07-01T08:24:14Z</time>
      </trkpt>
      <trkpt lat="44.84859" lon="5.19275">
        <ele>673.7</ele>
        <time>2024-07-01T08:24:15Z</time>
      </trkpt>
      <trkpt lat="44.8486" lon="5.19276">
        <ele>673.8</ele>
        <time>2024-07-01T08:24:16Z</time>
      </trkpt>
      <trkpt lat="44.84861" lon="5.19278">
        <ele>674</ele>
        <time>2024-07-01T08:24:17Z</time>
      </trkpt>
      <trkpt lat="44.84861" lon="5.19278">
        <ele>674</ele>
        <time>2024-07-01T08:24:18Z</time>
      </trkpt>
      <trkpt lat="44.84862" lon="5.19279">
        <ele>674.1</ele>
        <time>2024-07-01T08:24:19Z</time>
      </trkpt>
      <trkpt lat="44.84863" lon="5.19281">
        <ele>674.3</ele>
        <time>2024-07-01T08:24:20Z</time>
      </trkpt>
      <trkpt lat="44.84865" lon="5.19282">
        <ele>674.5</ele>
        <time>2024-07-01T08:24:22Z</time>
      </trkpt>
      <trkpt lat="44.84865" lon="5.19283">
        <ele>674.6</ele>
        <time>2024-07-01T08:24:23Z</time>
      </trkpt>
      <trkpt lat="44.84866" lon="5.19284">
        <ele>674.7</ele>
        <time>2024-07-01T08:24:24Z</time>
      </trkpt>
      <trkpt lat="44.84866" lon="5.19285">
        <ele>674.8</ele>
        <time>2024-07-01T08:24:25Z</time>
      </trkpt>
      <trkpt lat="44.84866" lon="5.19285">
        <ele>674.8</ele>
        <time>2024-07-01T08:24:26Z</time>
      </trkpt>
      <trkpt lat="44.84867" lon="5.19286">
        <ele>674.9</ele>
        <time>2024-07-01T08:24:27Z</time>
      </trkpt>
      <trkpt lat="44.84868" lon="5.19288">
        <ele>675.1</ele>
        <time>2024-07-01T08:24:28Z</time>
      </trkpt>
      <trkpt lat="44.84869" lon="5.1929">
        <ele>675.3</ele>
        <time>2024-07-01T08:24:29Z</time>
      </trkpt>
      <trkpt lat="44.8487" lon="5.1929">
        <ele>675.3</ele>
        <time>2024-07-01T08:24:31Z</time>
      </trkpt>
      <trkpt lat="44.8487" lon="5.1929">
        <ele>675.3</ele>
        <time>2024-07-01T08:24:32Z</time>
      </trkpt>
      <trkpt lat="44.8487" lon="5.1929">
        <ele>675.4</ele>
        <time>2024-07-01T08:24:34Z</time>
      </trkpt>
      <trkpt lat="44.84871" lon="5.1929">
        <ele>675.4</ele>
        <time>2024-07-01T08:24:36Z</time>
      </trkpt>
      <trkpt lat="44.84871" lon="5.1929">
        <ele>675.4</ele>
        <time>2024-07-01T08:24:37Z</time>
      </trkpt>
      <trkpt lat="44.84871" lon="5.1929">
        <ele>675.4</ele>
        <time>2024-07-01T08:24:38Z</time>
      </trkpt>
      <trkpt lat="44.84872" lon="5.1929">
        <ele>675.5</ele>
        <time>2024-07-01T08:24:39Z</time>
      </trkpt>
      <trkpt lat="44.84872" lon="5.1929">
        <ele>675.5</ele>
        <time>2024-07-01T08:24:40Z</time>
      </trkpt>
      <trkpt lat="44.84872" lon="5.1929">
        <ele>675.5</ele>
        <time>2024-07-01T08:24:41Z</time>
      </trkpt>
      <trkpt lat="44.84873" lon="5.1929">
        <ele>675.6</ele>
        <time>2024-07-01T08:24:42Z</time>
      </trkpt>
      <trkpt lat="44.84873" lon="5.1929">
        <ele>675.6</ele>
        <time>2024-07-01T08:24:43Z</time>
      </trkpt>
      <trkpt lat="44.84873" lon="5.1929">
        <ele>675.6</ele>
        <time>2024-07-01T08:24:44Z</time>
      </trkpt>
      <trkpt lat="44.84874" lon="5.1929">
        <ele>675.7</ele>
        <time>2024-07-01T08:24:45Z</time>
      </trkpt>
      <trkpt lat="44.84874" lon="5.19291">
        <ele>675.7</ele>
        <time>2024-07-01T08:24:46Z</time>
      </trkpt>
      <trkpt lat="44.84874" lon="5.19291">
        <ele>675.7</ele>
        <time>2024-07-01T08:24:48Z</time>
      </trkpt>
      <trkpt lat="44.84874" lon="5.19291">
        <ele>675.7</ele>
        <time>2024-07-01T08:24:49Z</time>
      </trkpt>
      <trkpt lat="44.84875" lon="5.19289">
        <ele>675.9</ele>
        <time>2024-07-01T08:24:50Z</time>
      </trkpt>
      <trkpt lat="44.84877" lon="5.19289">
        <ele>676</ele>
        <time>2024-07-01T08:24:51Z</time>
      </trkpt>
      <trkpt lat="44.84879" lon="5.19288">
        <ele>676.1</ele>
        <time>2024-07-01T08:24:52Z</time>
      </trkpt>
      <trkpt lat="44.8488" lon="5.19289">
        <ele>676.1</ele>
        <time>2024-07-01T08:24:54Z</time>
      </trkpt>
      <trkpt lat="44.84881" lon="5.19289">
        <ele>676.2</ele>
        <time>2024-07-01T08:24:55Z</time>
      </trkpt>
      <trkpt lat="44.84882" lon="5.19289">
        <ele>676.2</ele>
        <time>2024-07-01T08:24:56Z</time>
      </trkpt>
      <trkpt lat="44.84883" lon="5.19289">
        <ele>676.3</ele>
        <time>2024-07-01T08:24:57Z</time>
      </trkpt>
      <trkpt lat="44.84884" lon="5.19289">
        <ele>676.3</ele>
        <time>2024-07-01T08:24:58Z</time>
      </trkpt>
      <trkpt lat="44.84886" lon="5.1929">
        <ele>676.4</ele>
        <time>2024-07-01T08:24:59Z</time>
      </trkpt>
      <trkpt lat="44.84887" lon="5.1929">
        <ele>676.5</ele>
        <time>2024-07-01T08:25:01Z</time>
      </trkpt>
      <trkpt lat="44.84888" lon="5.1929">
        <ele>676.5</ele>
        <time>2024-07-01T08:25:02Z</time>
      </trkpt>
      <trkpt lat="44.8489" lon="5.1929">
        <ele>676.6</ele>
        <time>2024-07-01T08:25:03Z</time>
      </trkpt>
      <trkpt lat="44.8489" lon="5.1929">
        <ele>676.6</ele>
        <time>2024-07-01T08:25:04Z</time>
      </trkpt>
      <trkpt lat="44.84891" lon="5.1929">
        <ele>676.6</ele>
        <time>2024-07-01T08:25:05Z</time>
      </trkpt>
      <trkpt lat="44.84892" lon="5.19291">
        <ele>676.7</ele>
        <time>2024-07-01T08:25:06Z</time>
      </trkpt>
      <trkpt lat="44.84893" lon="5.19291">
        <ele>676.7</ele>
        <time>2024-07-01T08:25:07Z</time>
      </trkpt>
      <trkpt lat="44.84894" lon="5.19292">
        <ele>676.8</ele>
        <time>2024-07-01T08:25:08Z</time>
      </trkpt>
      <trkpt lat="44.84896" lon="5.19293">
        <ele>676.9</ele>
        <time>2024-07-01T08:25:09Z</time>
      </trkpt>
      <trkpt lat="44.84897" lon="5.19293">
        <ele>676.9</ele>
        <time>2024-07-01T08:25:11Z</time>
      </trkpt>
      <trkpt lat="44.84898" lon="5.19294">
        <ele>677</ele>
        <time>2024-07-01T08:25:12Z</time>
      </trkpt>
      <trkpt lat="44.84899" lon="5.19295">
        <ele>677</ele>
        <time>2024-07-01T08:25:13Z</time>
      </trkpt>
      <trkpt lat="44.849" lon="5.19295">
        <ele>677.1</ele>
        <time>2024-07-01T08:25:14Z</time>
      </trkpt>
      <trkpt lat="44.849" lon="5.19296">
        <ele>677.1</ele>
        <time>2024-07-01T08:25:15Z</time>
      </trkpt>
      <trkpt lat="44.84901" lon="5.19296">
        <ele>677.2</ele>
        <time>2024-07-01T08:25:16Z</time>
      </trkpt>
      <trkpt lat="44.84902" lon="5.19296">
        <ele>677.2</ele>
        <time>2024-07-01T08:25:17Z</time>
      </trkpt>
      <trkpt lat="44.84904" lon="5.19297">
        <ele>677.3</ele>
        <time>2024-07-01T08:25:18Z</time>
      </trkpt>
      <trkpt lat="44.84905" lon="5.19297">
        <ele>677.3</ele>
        <time>2024-07-01T08:25:19Z</time>
      </trkpt>
      <trkpt lat="44.84906" lon="5.19297">
        <ele>677.4</ele>
        <time>2024-07-01T08:25:20Z</time>
      </trkpt>
      <trkpt lat="44.84907" lon="5.19297">
        <ele>677.4</ele>
        <time>2024-07-01T08:25:21Z</time>
      </trkpt>
      <trkpt lat="44.84908" lon="5.19297">
        <ele>677.5</ele>
        <time>2024-07-01T08:25:22Z</time>
      </trkpt>
      <trkpt lat="44.8491" lon="5.19297">
        <ele>677.5</ele>
        <time>2024-07-01T08:25:23Z</time>
      </trkpt>
      <trkpt lat="44.8491" lon="5.19298">
        <ele>677.6</ele>
        <time>2024-07-01T08:25:24Z</time>
      </trkpt>
      <trkpt lat="44.84911" lon="5.19298">
        <ele>677.6</ele>
        <time>2024-07-01T08:25:25Z</time>
      </trkpt>
      <trkpt lat="44.84913" lon="5.19298">
        <ele>677.7</ele>
        <time>2024-07-01T08:25:26Z</time>
      </trkpt>
      <trkpt lat="44.84915" lon="5.19299">
        <ele>677.7</ele>
        <time>2024-07-01T08:25:28Z</time>
      </trkpt>
      <trkpt lat="44.84915" lon="5.19299">
        <ele>677.8</ele>
        <time>2024-07-01T08:25:29Z</time>
      </trkpt>
      <trkpt lat="44.84917" lon="5.193">
        <ele>677.9</ele>
        <time>2024-07-01T08:25:30Z</time>
      </trkpt>
      <trkpt lat="44.84918" lon="5.19301">
        <ele>677.9</ele>
        <time>2024-07-01T08:25:32Z</time>
      </trkpt>
      <trkpt lat="44.84919" lon="5.19301">
        <ele>678</ele>
        <time>2024-07-01T08:25:33Z</time>
      </trkpt>
      <trkpt lat="44.8492" lon="5.19302">
        <ele>678</ele>
        <time>2024-07-01T08:25:34Z</time>
      </trkpt>
      <trkpt lat="44.84921" lon="5.19303">
        <ele>678.1</ele>
        <time>2024-07-01T08:25:35Z</time>
      </trkpt>
      <trkpt lat="44.84922" lon="5.19303">
        <ele>678.1</ele>
        <time>2024-07-01T08:25:36Z</time>
      </trkpt>
      <trkpt lat="44.84923" lon="5.19304">
        <ele>678.2</ele>
        <time>2024-07-01T08:25:37Z</time>
      </trkpt>
      <trkpt lat="44.84924" lon="5.19304">
        <ele>678.2</ele>
        <time>2024-07-01T08:25:39Z</time>
      </trkpt>
      <trkpt lat="44.84925" lon="5.19304">
        <ele>678.2</ele>
        <time>2024-07-01T08:25:40Z</time>
      </trkpt>
      <trkpt lat="44.84926" lon="5.19305">
        <ele>678.3</ele>
        <time>2024-07-01T08:25:41Z</time>
      </trkpt>
      <trkpt lat="44.84927" lon="5.19305">
        <ele>678.3</ele>
        <time>2024-07-01T08:25:42Z</time>
      </trkpt>
      <trkpt lat="44.84928" lon="5.19305">
        <ele>678.4</ele>
        <time>2024-07-01T08:25:43Z</time>
      </trkpt>
      <trkpt lat="44.84929" lon="5.19305">
        <ele>678.4</ele>
        <time>2024-07-01T08:25:44Z</time>
      </trkpt>
      <trkpt lat="44.8493" lon="5.19305">
        <ele>678.5</ele>
        <time>2024-07-01T08:25:45Z</time>
      </trkpt>
      <trkpt lat="44.84931" lon="5.19305">
        <ele>678.5</ele>
        <time>2024-07-01T08:25:46Z</time>
      </trkpt>
      <trkpt lat="44.84933" lon="5.19305">
        <ele>678.6</ele>
        <time>2024-07-01T08:25:47Z</time>
      </trkpt>
      <trkpt lat="44.84936" lon="5.19307">
        <ele>678.7</ele>
        <time>2024-07-01T08:25:48Z</time>
      </trkpt>
      <trkpt lat="44.84937" lon="5.19307">
        <ele>678.7</ele>
        <time>2024-07-01T08:25:50Z</time>
      </trkpt>
      <trkpt lat="44.84937" lon="5.19307">
        <ele>678.8</ele>
        <time>2024-07-01T08:25:51Z</time>
      </trkpt>
      <trkpt lat="44.84938" lon="5.19308">
        <ele>678.8</ele>
        <time>2024-07-01T08:25:52Z</time>
      </trkpt>
      <trkpt lat="44.84939" lon="5.19308">
        <ele>678.9</ele>
        <time>2024-07-01T08:25:53Z</time>
      </trkpt>
      <trkpt lat="44.84941" lon="5.19308">
        <ele>678.9</ele>
        <time>2024-07-01T08:25:54Z</time>
      </trkpt>
      <trkpt lat="44.84941" lon="5.19309">
        <ele>679</ele>
        <time>2024-07-01T08:25:55Z</time>
      </trkpt>
      <trkpt lat="44.84942" lon="5.19309">
        <ele>679</ele>
        <time>2024-07-01T08:25:56Z</time>
      </trkpt>
      <trkpt lat="44.84943" lon="5.19309">
        <ele>679</ele>
        <time>2024-07-01T08:25:57Z</time>
      </trkpt>
      <trkpt lat="44.84946" lon="5.1931">
        <ele>679.1</ele>
        <time>2024-07-01T08:25:58Z</time>
      </trkpt>
      <trkpt lat="44.84948" lon="5.19311">
        <ele>679.2</ele>
        <time>2024-07-01T08:26:00Z</time>
      </trkpt>
      <trkpt lat="44.84949" lon="5.19311">
        <ele>679.3</ele>
        <time>2024-07-01T08:26:01Z</time>
      </trkpt>
      <trkpt lat="44.84949" lon="5.19311">
        <ele>679.3</ele>
        <time>2024-07-01T08:26:02Z</time>
      </trkpt>
      <trkpt lat="44.8495" lon="5.19313">
        <ele>679.4</ele>
        <time>2024-07-01T08:26:03Z</time>
      </trkpt>
      <trkpt lat="44.84951" lon="5.19313">
        <ele>679.4</ele>
        <time>2024-07-01T08:26:04Z</time>
      </trkpt>
      <trkpt lat="44.84952" lon="5.19314">
        <ele>679.4</ele>
        <time>2024-07-01T08:26:05Z</time>
      </trkpt>
      <trkpt lat="44.84954" lon="5.19314">
        <ele>679.5</ele>
        <time>2024-07-01T08:26:06Z</time>
      </trkpt>
      <trkpt lat="44.84955" lon="5.19315">
        <ele>679.6</ele>
        <time>2024-07-01T08:26:07Z</time>
      </trkpt>
      <trkpt lat="44.84956" lon="5.19315">
        <ele>679.6</ele>
        <time>2024-07-01T08:26:08Z</time>
      </trkpt>
      <trkpt lat="44.84957" lon="5.19315">
        <ele>679.6</ele>
        <time>2024-07-01T08:26:09Z</time>
      </trkpt>
      <trkpt lat="44.84959" lon="5.19316">
        <ele>679.7</ele>
        <time>2024-07-01T08:26:10Z</time>
      </trkpt>
      <trkpt lat="44.84961" lon="5.19316">
        <ele>679.8</ele>
        <time>2024-07-01T08:26:11Z</time>
      </trkpt>
      <trkpt lat="44.84962" lon="5.19317">
        <ele>679.8</ele>
        <time>2024-07-01T08:26:12Z</time>
      </trkpt>
      <trkpt lat="44.84962" lon="5.19317">
        <ele>679.9</ele>
        <time>2024-07-01T08:26:13Z</time>
      </trkpt>
      <trkpt lat="44.84965" lon="5.19318">
        <ele>680</ele>
        <time>2024-07-01T08:26:14Z</time>
      </trkpt>
      <trkpt lat="44.84966" lon="5.19319">
        <ele>680</ele>
        <time>2024-07-01T08:26:15Z</time>
      </trkpt>
      <trkpt lat="44.84967" lon="5.19319">
        <ele>680.1</ele>
        <time>2024-07-01T08:26:16Z</time>
      </trkpt>
      <trkpt lat="44.84969" lon="5.19321">
        <ele>680.2</ele>
        <time>2024-07-01T08:26:18Z</time>
      </trkpt>
      <trkpt lat="44.8497" lon="5.19321">
        <ele>680.2</ele>
        <time>2024-07-01T08:26:19Z</time>
      </trkpt>
      <trkpt lat="44.84972" lon="5.19323">
        <ele>680.3</ele>
        <time>2024-07-01T08:26:21Z</time>
      </trkpt>
      <trkpt lat="44.84973" lon="5.19323">
        <ele>680.4</ele>
        <time>2024-07-01T08:26:22Z</time>
      </trkpt>
      <trkpt lat="44.84975" lon="5.19325">
        <ele>680.5</ele>
        <time>2024-07-01T08:26:23Z</time>
      </trkpt>
      <trkpt lat="44.84976" lon="5.19326">
        <ele>680.6</ele>
        <time>2024-07-01T08:26:25Z</time>
      </trkpt>
      <trkpt lat="44.84978" lon="5.19328">
        <ele>680.6</ele>
        <time>2024-07-01T08:26:26Z</time>
      </trkpt>
      <trkpt lat="44.84978" lon="5.19328">
        <ele>680.7</ele>
        <time>2024-07-01T08:26:27Z</time>
      </trkpt>
      <trkpt lat="44.84979" lon="5.19329">
        <ele>680.7</ele>
        <time>2024-07-01T08:26:28Z</time>
      </trkpt>
      <trkpt lat="44.8498" lon="5.1933">
        <ele>680.8</ele>
        <time>2024-07-01T08:26:29Z</time>
      </trkpt>
      <trkpt lat="44.84981" lon="5.19331">
        <ele>680.8</ele>
        <time>2024-07-01T08:26:30Z</time>
      </trkpt>
      <trkpt lat="44.84982" lon="5.19332">
        <ele>680.9</ele>
        <time>2024-07-01T08:26:31Z</time>
      </trkpt>
      <trkpt lat="44.84982" lon="5.19333">
        <ele>681</ele>
        <time>2024-07-01T08:26:32Z</time>
      </trkpt>
      <trkpt lat="44.84983" lon="5.19334">
        <ele>681</ele>
        <time>2024-07-01T08:26:33Z</time>
      </trkpt>
      <trkpt lat="44.84984" lon="5.19335">
        <ele>681.1</ele>
        <time>2024-07-01T08:26:34Z</time>
      </trkpt>
      <trkpt lat="44.84985" lon="5.19336">
        <ele>681.1</ele>
        <time>2024-07-01T08:26:35Z</time>
      </trkpt>
      <trkpt lat="44.84986" lon="5.19336">
        <ele>681.2</ele>
        <time>2024-07-01T08:26:36Z</time>
      </trkpt>
      <trkpt lat="44.84986" lon="5.19337">
        <ele>681.2</ele>
        <time>2024-07-01T08:26:37Z</time>
      </trkpt>
      <trkpt lat="44.84987" lon="5.19338">
        <ele>681.3</ele>
        <time>2024-07-01T08:26:38Z</time>
      </trkpt>
      <trkpt lat="44.84989" lon="5.1934">
        <ele>681.4</ele>
        <time>2024-07-01T08:26:39Z</time>
      </trkpt>
      <trkpt lat="44.8499" lon="5.19341">
        <ele>681.5</ele>
        <time>2024-07-01T08:26:41Z</time>
      </trkpt>
      <trkpt lat="44.84991" lon="5.19342">
        <ele>681.5</ele>
        <time>2024-07-01T08:26:42Z</time>
      </trkpt>
      <trkpt lat="44.84992" lon="5.19342">
        <ele>681.6</ele>
        <time>2024-07-01T08:26:43Z</time>
      </trkpt>
      <trkpt lat="44.84993" lon="5.19343">
        <ele>681.7</ele>
        <time>2024-07-01T08:26:44Z</time>
      </trkpt>
      <trkpt lat="44.84994" lon="5.19344">
        <ele>681.8</ele>
        <time>2024-07-01T08:26:45Z</time>
      </trkpt>
      <trkpt lat="44.84995" lon="5.19343">
        <ele>681.8</ele>
        <time>2024-07-01T08:26:46Z</time>
      </trkpt>
      <trkpt lat="44.84997" lon="5.19343">
        <ele>681.9</ele>
        <time>2024-07-01T08:26:47Z</time>
      </trkpt>
      <trkpt lat="44.84998" lon="5.19343">
        <ele>682</ele>
        <time>2024-07-01T08:26:48Z</time>
      </trkpt>
      <trkpt lat="44.84999" lon="5.19343">
        <ele>682.1</ele>
        <time>2024-07-01T08:26:50Z</time>
      </trkpt>
      <trkpt lat="44.85001" lon="5.19343">
        <ele>682.2</ele>
        <time>2024-07-01T08:26:52Z</time>
      </trkpt>
      <trkpt lat="44.85002" lon="5.19344">
        <ele>682.3</ele>
        <time>2024-07-01T08:26:53Z</time>
      </trkpt>
      <trkpt lat="44.85003" lon="5.19344">
        <ele>682.4</ele>
        <time>2024-07-01T08:26:54Z</time>
      </trkpt>
      <trkpt lat="44.85004" lon="5.19345">
        <ele>682.4</ele>
        <time>2024-07-01T08:26:55Z</time>
      </trkpt>
      <trkpt lat="44.85005" lon="5.19345">
        <ele>682.5</ele>
        <time>2024-07-01T08:26:56Z</time>
      </trkpt>
      <trkpt lat="44.85006" lon="5.19345">
        <ele>682.6</ele>
        <time>2024-07-01T08:26:57Z</time>
      </trkpt>
      <trkpt lat="44.85007" lon="5.19346">
        <ele>682.7</ele>
        <time>2024-07-01T08:26:58Z</time>
      </trkpt>
      <trkpt lat="44.85008" lon="5.19346">
        <ele>682.7</ele>
        <time>2024-07-01T08:26:59Z</time>
      </trkpt>
      <trkpt lat="44.85009" lon="5.19346">
        <ele>682.8</ele>
        <time>2024-07-01T08:27:00Z</time>
      </trkpt>
      <trkpt lat="44.8501" lon="5.19347">
        <ele>682.9</ele>
        <time>2024-07-01T08:27:01Z</time>
      </trkpt>
      <trkpt lat="44.85011" lon="5.19347">
        <ele>683</ele>
        <time>2024-07-01T08:27:02Z</time>
      </trkpt>
      <trkpt lat="44.85012" lon="5.19347">
        <ele>683.1</ele>
        <time>2024-07-01T08:27:03Z</time>
      </trkpt>
      <trkpt lat="44.85013" lon="5.19348">
        <ele>683.2</ele>
        <time>2024-07-01T08:27:04Z</time>
      </trkpt>
      <trkpt lat="44.85015" lon="5.1935">
        <ele>683.4</ele>
        <time>2024-07-01T08:27:05Z</time>
      </trkpt>
      <trkpt lat="44.85016" lon="5.1935">
        <ele>683.5</ele>
        <time>2024-07-01T08:27:07Z</time>
      </trkpt>
      <trkpt lat="44.85017" lon="5.19351">
        <ele>683.6</ele>
        <time>2024-07-01T08:27:08Z</time>
      </trkpt>
      <trkpt lat="44.85018" lon="5.19351">
        <ele>683.6</ele>
        <time>2024-07-01T08:27:09Z</time>
      </trkpt>
      <trkpt lat="44.8502" lon="5.19351">
        <ele>683.8</ele>
        <time>2024-07-01T08:27:10Z</time>
      </trkpt>
      <trkpt lat="44.85022" lon="5.19351">
        <ele>684.1</ele>
        <time>2024-07-01T08:27:12Z</time>
      </trkpt>
      <trkpt lat="44.85023" lon="5.19351">
        <ele>684.1</ele>
        <time>2024-07-01T08:27:14Z</time>
      </trkpt>
      <trkpt lat="44.85024" lon="5.19351">
        <ele>684.2</ele>
        <time>2024-07-01T08:27:15Z</time>
      </trkpt>
      <trkpt lat="44.85025" lon="5.19351">
        <ele>684.4</ele>
        <time>2024-07-01T08:27:16Z</time>
      </trkpt>
      <trkpt lat="44.85027" lon="5.19352">
        <ele>684.6</ele>
        <time>2024-07-01T08:27:17Z</time>
      </trkpt>
      <trkpt lat="44.85027" lon="5.19353">
        <ele>684.7</ele>
        <time>2024-07-01T08:27:19Z</time>
      </trkpt>
      <trkpt lat="44.85029" lon="5.19354">
        <ele>684.9</ele>
        <time>2024-07-01T08:27:20Z</time>
      </trkpt>
      <trkpt lat="44.85031" lon="5.19354">
        <ele>685.2</ele>
        <time>2024-07-01T08:27:22Z</time>
      </trkpt>
      <trkpt lat="44.85032" lon="5.19354">
        <ele>685.3</ele>
        <time>2024-07-01T08:27:24Z</time>
      </trkpt>
      <trkpt lat="44.85033" lon="5.19354">
        <ele>685.4</ele>
        <time>2024-07-01T08:27:25Z</time>
      </trkpt>
      <trkpt lat="44.85034" lon="5.19354">
        <ele>685.5</ele>
        <time>2024-07-01T08:27:26Z</time>
      </trkpt>
      <trkpt lat="44.85036" lon="5.19355">
        <ele>685.7</ele>
        <time>2024-07-01T08:27:27Z</time>
      </trkpt>
      <trkpt lat="44.85037" lon="5.19355">
        <ele>685.8</ele>
        <time>2024-07-01T08:27:29Z</time>
      </trkpt>
      <trkpt lat="44.85038" lon="5.19356">
        <ele>686</ele>
        <time>2024-07-01T08:27:30Z</time>
      </trkpt>
      <trkpt lat="44.85039" lon="5.19356">
        <ele>686.1</ele>
        <time>2024-07-01T08:27:31Z</time>
      </trkpt>
      <trkpt lat="44.85041" lon="5.19358">
        <ele>686.3</ele>
        <time>2024-07-01T08:27:32Z</time>
      </trkpt>
      <trkpt lat="44.85042" lon="5.19358">
        <ele>686.5</ele>
        <time>2024-07-01T08:27:34Z</time>
      </trkpt>
      <trkpt lat="44.85043" lon="5.19359">
        <ele>686.6</ele>
        <time>2024-07-01T08:27:35Z</time>
      </trkpt>
      <trkpt lat="44.85043" lon="5.1936">
        <ele>686.7</ele>
        <time>2024-07-01T08:27:36Z</time>
      </trkpt>
      <trkpt lat="44.85044" lon="5.1936">
        <ele>686.8</ele>
        <time>2024-07-01T08:27:37Z</time>
      </trkpt>
      <trkpt lat="44.85045" lon="5.1936">
        <ele>686.9</ele>
        <time>2024-07-01T08:27:38Z</time>
      </trkpt>
      <trkpt lat="44.85046" lon="5.19361">
        <ele>687</ele>
        <time>2024-07-01T08:27:39Z</time>
      </trkpt>
      <trkpt lat="44.85047" lon="5.19362">
        <ele>687.1</ele>
        <time>2024-07-01T08:27:40Z</time>
      </trkpt>
      <trkpt lat="44.85048" lon="5.19362">
        <ele>687.3</ele>
        <time>2024-07-01T08:27:41Z</time>
      </trkpt>
      <trkpt lat="44.85049" lon="5.19362">
        <ele>687.4</ele>
        <time>2024-07-01T08:27:42Z</time>
      </trkpt>
      <trkpt lat="44.85049" lon="5.19362">
        <ele>687.5</ele>
        <time>2024-07-01T08:27:43Z</time>
      </trkpt>
      <trkpt lat="44.85051" lon="5.19362">
        <ele>687.6</ele>
        <time>2024-07-01T08:27:44Z</time>
      </trkpt>
      <trkpt lat="44.85052" lon="5.19362">
        <ele>687.8</ele>
        <time>2024-07-01T08:27:45Z</time>
      </trkpt>
      <trkpt lat="44.85053" lon="5.19362">
        <ele>687.9</ele>
        <time>2024-07-01T08:27:47Z</time>
      </trkpt>
      <trkpt lat="44.85054" lon="5.19362">
        <ele>688</ele>
        <time>2024-07-01T08:27:48Z</time>
      </trkpt>
      <trkpt lat="44.85055" lon="5.19362">
        <ele>688.2</ele>
        <time>2024-07-01T08:27:49Z</time>
      </trkpt>
      <trkpt lat="44.85056" lon="5.19361">
        <ele>688.3</ele>
        <time>2024-07-01T08:27:50Z</time>
      </trkpt>
      <trkpt lat="44.85057" lon="5.19361">
        <ele>688.4</ele>
        <time>2024-07-01T08:27:51Z</time>
      </trkpt>
      <trkpt lat="44.85058" lon="5.19361">
        <ele>688.6</ele>
        <time>2024-07-01T08:27:52Z</time>
      </trkpt>
      <trkpt lat="44.8506" lon="5.1936">
        <ele>688.9</ele>
        <time>2024-07-01T08:27:54Z</time>
      </trkpt>
      <trkpt lat="44.85061" lon="5.19359">
        <ele>688.9</ele>
        <time>2024-07-01T08:27:56Z</time>
      </trkpt>
      <trkpt lat="44.85062" lon="5.19359">
        <ele>689</ele>
        <time>2024-07-01T08:27:57Z</time>
      </trkpt>
      <trkpt lat="44.85063" lon="5.19359">
        <ele>689.2</ele>
        <time>2024-07-01T08:27:58Z</time>
      </trkpt>
      <trkpt lat="44.85064" lon="5.19359">
        <ele>689.3</ele>
        <time>2024-07-01T08:28:00Z</time>
      </trkpt>
      <trkpt lat="44.85065" lon="5.19358">
        <ele>689.4</ele>
        <time>2024-07-01T08:28:01Z</time>
      </trkpt>
      <trkpt lat="44.85066" lon="5.19358">
        <ele>689.5</ele>
        <time>2024-07-01T08:28:02Z</time>
      </trkpt>
      <trkpt lat="44.85067" lon="5.19358">
        <ele>689.7</ele>
        <time>2024-07-01T08:28:03Z</time>
      </trkpt>
      <trkpt lat="44.85068" lon="5.19357">
        <ele>689.8</ele>
        <time>2024-07-01T08:28:04Z</time>
      </trkpt>
      <trkpt lat="44.85069" lon="5.19357">
        <ele>689.9</ele>
        <time>2024-07-01T08:28:05Z</time>
      </trkpt>
      <trkpt lat="44.8507" lon="5.19356">
        <ele>690</ele>
        <time>2024-07-01T08:28:06Z</time>
      </trkpt>
      <trkpt lat="44.85071" lon="5.19356">
        <ele>690.2</ele>
        <time>2024-07-01T08:28:07Z</time>
      </trkpt>
      <trkpt lat="44.85073" lon="5.19356">
        <ele>690.4</ele>
        <time>2024-07-01T08:28:08Z</time>
      </trkpt>
      <trkpt lat="44.85074" lon="5.19355">
        <ele>690.5</ele>
        <time>2024-07-01T08:28:10Z</time>
      </trkpt>
      <trkpt lat="44.85075" lon="5.19355">
        <ele>690.6</ele>
        <time>2024-07-01T08:28:11Z</time>
      </trkpt>
      <trkpt lat="44.85076" lon="5.19354">
        <ele>690.7</ele>
        <time>2024-07-01T08:28:12Z</time>
      </trkpt>
      <trkpt lat="44.85077" lon="5.19354">
        <ele>690.8</ele>
        <time>2024-07-01T08:28:13Z</time>
      </trkpt>
      <trkpt lat="44.85078" lon="5.19354">
        <ele>690.9</ele>
        <time>2024-07-01T08:28:14Z</time>
      </trkpt>
      <trkpt lat="44.85079" lon="5.19353">
        <ele>691</ele>
        <time>2024-07-01T08:28:15Z</time>
      </trkpt>
      <trkpt lat="44.8508" lon="5.19353">
        <ele>691.1</ele>
        <time>2024-07-01T08:28:16Z</time>
      </trkpt>
      <trkpt lat="44.85081" lon="5.19353">
        <ele>691.3</ele>
        <time>2024-07-01T08:28:17Z</time>
      </trkpt>
      <trkpt lat="44.85082" lon="5.19352">
        <ele>691.5</ele>
        <time>2024-07-01T08:28:18Z</time>
      </trkpt>
      <trkpt lat="44.85083" lon="5.19352">
        <ele>691.6</ele>
        <time>2024-07-01T08:28:20Z</time>
      </trkpt>
      <trkpt lat="44.85085" lon="5.19351">
        <ele>691.8</ele>
        <time>2024-07-01T08:28:21Z</time>
      </trkpt>
      <trkpt lat="44.85086" lon="5.1935">
        <ele>691.9</ele>
        <time>2024-07-01T08:28:23Z</time>
      </trkpt>
      <trkpt lat="44.85088" lon="5.19349">
        <ele>692.1</ele>
        <time>2024-07-01T08:28:24Z</time>
      </trkpt>
      <trkpt lat="44.85089" lon="5.19349">
        <ele>692.2</ele>
        <time>2024-07-01T08:28:26Z</time>
      </trkpt>
      <trkpt lat="44.8509" lon="5.19349">
        <ele>692.3</ele>
        <time>2024-07-01T08:28:27Z</time>
      </trkpt>
      <trkpt lat="44.85091" lon="5.19349">
        <ele>692.4</ele>
        <time>2024-07-01T08:28:28Z</time>
      </trkpt>
      <trkpt lat="44.85092" lon="5.19349">
        <ele>692.5</ele>
        <time>2024-07-01T08:28:29Z</time>
      </trkpt>
      <trkpt lat="44.85093" lon="5.19349">
        <ele>692.6</ele>
        <time>2024-07-01T08:28:30Z</time>
      </trkpt>
      <trkpt lat="44.85094" lon="5.19348">
        <ele>692.7</ele>
        <time>2024-07-01T08:28:31Z</time>
      </trkpt>
      <trkpt lat="44.85095" lon="5.19348">
        <ele>692.8</ele>
        <time>2024-07-01T08:28:32Z</time>
      </trkpt>
      <trkpt lat="44.85097" lon="5.19348">
        <ele>693</ele>
        <time>2024-07-01T08:28:33Z</time>
      </trkpt>
      <trkpt lat="44.85098" lon="5.19349">
        <ele>693.1</ele>
        <time>2024-07-01T08:28:35Z</time>
      </trkpt>
      <trkpt lat="44.851" lon="5.19349">
        <ele>693.3</ele>
        <time>2024-07-01T08:28:36Z</time>
      </trkpt>
      <trkpt lat="44.85101" lon="5.1935">
        <ele>693.4</ele>
        <time>2024-07-01T08:28:37Z</time>
      </trkpt>
      <trkpt lat="44.85102" lon="5.19349">
        <ele>693.5</ele>
        <time>2024-07-01T08:28:38Z</time>
      </trkpt>
      <trkpt lat="44.85103" lon="5.19348">
        <ele>693.6</ele>
        <time>2024-07-01T08:28:39Z</time>
      </trkpt>
      <trkpt lat="44.85104" lon="5.19348">
        <ele>693.7</ele>
        <time>2024-07-01T08:28:40Z</time>
      </trkpt>
      <trkpt lat="44.85105" lon="5.19349">
        <ele>693.8</ele>
        <time>2024-07-01T08:28:41Z</time>
      </trkpt>
      <trkpt lat="44.85106" lon="5.19349">
        <ele>693.9</ele>
        <time>2024-07-01T08:28:42Z</time>
      </trkpt>
      <trkpt lat="44.85107" lon="5.1935">
        <ele>694</ele>
        <time>2024-07-01T08:28:43Z</time>
      </trkpt>
      <trkpt lat="44.85108" lon="5.1935">
        <ele>694</ele>
        <time>2024-07-01T08:28:44Z</time>
      </trkpt>
      <trkpt lat="44.85109" lon="5.1935">
        <ele>694.1</ele>
        <time>2024-07-01T08:28:45Z</time>
      </trkpt>
      <trkpt lat="44.8511" lon="5.1935">
        <ele>694.2</ele>
        <time>2024-07-01T08:28:46Z</time>
      </trkpt>
      <trkpt lat="44.85111" lon="5.1935">
        <ele>694.3</ele>
        <time>2024-07-01T08:28:47Z</time>
      </trkpt>
      <trkpt lat="44.85113" lon="5.19351">
        <ele>694.4</ele>
        <time>2024-07-01T08:28:48Z</time>
      </trkpt>
      <trkpt lat="44.85115" lon="5.19351">
        <ele>694.6</ele>
        <time>2024-07-01T08:28:50Z</time>
      </trkpt>
      <trkpt lat="44.85116" lon="5.19352">
        <ele>694.7</ele>
        <time>2024-07-01T08:28:52Z</time>
      </trkpt>
      <trkpt lat="44.85117" lon="5.19353">
        <ele>694.7</ele>
        <time>2024-07-01T08:28:53Z</time>
      </trkpt>
      <trkpt lat="44.85119" lon="5.19353">
        <ele>694.9</ele>
        <time>2024-07-01T08:28:54Z</time>
      </trkpt>
      <trkpt lat="44.8512" lon="5.19354">
        <ele>694.9</ele>
        <time>2024-07-01T08:28:56Z</time>
      </trkpt>
      <trkpt lat="44.85121" lon="5.19355">
        <ele>695</ele>
        <time>2024-07-01T08:28:57Z</time>
      </trkpt>
      <trkpt lat="44.85123" lon="5.19356">
        <ele>695.1</ele>
        <time>2024-07-01T08:28:58Z</time>
      </trkpt>
      <trkpt lat="44.85124" lon="5.19356">
        <ele>695.2</ele>
        <time>2024-07-01T08:29:00Z</time>
      </trkpt>
      <trkpt lat="44.85125" lon="5.19357">
        <ele>695.3</ele>
        <time>2024-07-01T08:29:01Z</time>
      </trkpt>
      <trkpt lat="44.85126" lon="5.19357">
        <ele>695.3</ele>
        <time>2024-07-01T08:29:02Z</time>
      </trkpt>
      <trkpt lat="44.85127" lon="5.19357">
        <ele>695.4</ele>
        <time>2024-07-01T08:29:03Z</time>
      </trkpt>
      <trkpt lat="44.85128" lon="5.19357">
        <ele>695.4</ele>
        <time>2024-07-01T08:29:04Z</time>
      </trkpt>
      <trkpt lat="44.85129" lon="5.19357">
        <ele>695.5</ele>
        <time>2024-07-01T08:29:05Z</time>
      </trkpt>
      <trkpt lat="44.8513" lon="5.19357">
        <ele>695.6</ele>
        <time>2024-07-01T08:29:06Z</time>
      </trkpt>
      <trkpt lat="44.85131" lon="5.19357">
        <ele>695.6</ele>
        <time>2024-07-01T08:29:07Z</time>
      </trkpt>
      <trkpt lat="44.85132" lon="5.19357">
        <ele>695.7</ele>
        <time>2024-07-01T08:29:08Z</time>
      </trkpt>
      <trkpt lat="44.85132" lon="5.19357">
        <ele>695.7</ele>
        <time>2024-07-01T08:29:09Z</time>
      </trkpt>
      <trkpt lat="44.85134" lon="5.19358">
        <ele>695.8</ele>
        <time>2024-07-01T08:29:10Z</time>
      </trkpt>
      <trkpt lat="44.85135" lon="5.19358">
        <ele>695.9</ele>
        <time>2024-07-01T08:29:12Z</time>
      </trkpt>
      <trkpt lat="44.85136" lon="5.19358">
        <ele>695.9</ele>
        <time>2024-07-01T08:29:13Z</time>
      </trkpt>
      <trkpt lat="44.85137" lon="5.19358">
        <ele>696</ele>
        <time>2024-07-01T08:29:14Z</time>
      </trkpt>
      <trkpt lat="44.85138" lon="5.19358">
        <ele>696.1</ele>
        <time>2024-07-01T08:29:15Z</time>
      </trkpt>
      <trkpt lat="44.85139" lon="5.19358">
        <ele>696.1</ele>
        <time>2024-07-01T08:29:16Z</time>
      </trkpt>
      <trkpt lat="44.8514" lon="5.19358">
        <ele>696.2</ele>
        <time>2024-07-01T08:29:17Z</time>
      </trkpt>
      <trkpt lat="44.85141" lon="5.19358">
        <ele>696.3</ele>
        <time>2024-07-01T08:29:18Z</time>
      </trkpt>
      <trkpt lat="44.85141" lon="5.19358">
        <ele>696.3</ele>
        <time>2024-07-01T08:29:19Z</time>
      </trkpt>
      <trkpt lat="44.85143" lon="5.19358">
        <ele>696.5</ele>
        <time>2024-07-01T08:29:20Z</time>
      </trkpt>
      <trkpt lat="44.85145" lon="5.19357">
        <ele>696.6</ele>
        <time>2024-07-01T08:29:22Z</time>
      </trkpt>
      <trkpt lat="44.85146" lon="5.19357">
        <ele>696.7</ele>
        <time>2024-07-01T08:29:23Z</time>
      </trkpt>
      <trkpt lat="44.85148" lon="5.19355">
        <ele>696.9</ele>
        <time>2024-07-01T08:29:24Z</time>
      </trkpt>
      <trkpt lat="44.85149" lon="5.19354">
        <ele>697</ele>
        <time>2024-07-01T08:29:26Z</time>
      </trkpt>
      <trkpt lat="44.85149" lon="5.19353">
        <ele>697.1</ele>
        <time>2024-07-01T08:29:27Z</time>
      </trkpt>
      <trkpt lat="44.8515" lon="5.19352">
        <ele>697.2</ele>
        <time>2024-07-01T08:29:28Z</time>
      </trkpt>
      <trkpt lat="44.85151" lon="5.19351">
        <ele>697.3</ele>
        <time>2024-07-01T08:29:29Z</time>
      </trkpt>
      <trkpt lat="44.85151" lon="5.1935">
        <ele>697.4</ele>
        <time>2024-07-01T08:29:30Z</time>
      </trkpt>
      <trkpt lat="44.85152" lon="5.19349">
        <ele>697.5</ele>
        <time>2024-07-01T08:29:31Z</time>
      </trkpt>
      <trkpt lat="44.85153" lon="5.19348">
        <ele>697.6</ele>
        <time>2024-07-01T08:29:32Z</time>
      </trkpt>
      <trkpt lat="44.85154" lon="5.19348">
        <ele>697.7</ele>
        <time>2024-07-01T08:29:33Z</time>
      </trkpt>
      <trkpt lat="44.85154" lon="5.19347">
        <ele>697.8</ele>
        <time>2024-07-01T08:29:34Z</time>
      </trkpt>
      <trkpt lat="44.85155" lon="5.19347">
        <ele>697.9</ele>
        <time>2024-07-01T08:29:35Z</time>
      </trkpt>
      <trkpt lat="44.85156" lon="5.19346">
        <ele>698</ele>
        <time>2024-07-01T08:29:36Z</time>
      </trkpt>
      <trkpt lat="44.85157" lon="5.19346">
        <ele>698.1</ele>
        <time>2024-07-01T08:29:37Z</time>
      </trkpt>
      <trkpt lat="44.85158" lon="5.19346">
        <ele>698.2</ele>
        <time>2024-07-01T08:29:38Z</time>
      </trkpt>
      <trkpt lat="44.85159" lon="5.19346">
        <ele>698.3</ele>
        <time>2024-07-01T08:29:39Z</time>
      </trkpt>
      <trkpt lat="44.85161" lon="5.19346">
        <ele>698.5</ele>
        <time>2024-07-01T08:29:40Z</time>
      </trkpt>
      <trkpt lat="44.85162" lon="5.19346">
        <ele>698.6</ele>
        <time>2024-07-01T08:29:42Z</time>
      </trkpt>
      <trkpt lat="44.85163" lon="5.19346">
        <ele>698.6</ele>
        <time>2024-07-01T08:29:43Z</time>
      </trkpt>
      <trkpt lat="44.85164" lon="5.19346">
        <ele>698.7</ele>
        <time>2024-07-01T08:29:44Z</time>
      </trkpt>
      <trkpt lat="44.85166" lon="5.19346">
        <ele>699</ele>
        <time>2024-07-01T08:29:45Z</time>
      </trkpt>
      <trkpt lat="44.85167" lon="5.19346">
        <ele>699.1</ele>
        <time>2024-07-01T08:29:47Z</time>
      </trkpt>
      <trkpt lat="44.85168" lon="5.19346">
        <ele>699.2</ele>
        <time>2024-07-01T08:29:48Z</time>
      </trkpt>
      <trkpt lat="44.85169" lon="5.19346">
        <ele>699.3</ele>
        <time>2024-07-01T08:29:49Z</time>
      </trkpt>
      <trkpt lat="44.8517" lon="5.19346">
        <ele>699.4</ele>
        <time>2024-07-01T08:29:50Z</time>
      </trkpt>
      <trkpt lat="44.85171" lon="5.19347">
        <ele>699.5</ele>
        <time>2024-07-01T08:29:51Z</time>
      </trkpt>
      <trkpt lat="44.85172" lon="5.19347">
        <ele>699.7</ele>
        <time>2024-07-01T08:29:52Z</time>
      </trkpt>
      <trkpt lat="44.85173" lon="5.19347">
        <ele>699.8</ele>
        <time>2024-07-01T08:29:53Z</time>
      </trkpt>
      <trkpt lat="44.85174" lon="5.19348">
        <ele>699.9</ele>
        <time>2024-07-01T08:29:54Z</time>
      </trkpt>
      <trkpt lat="44.85175" lon="5.19348">
        <ele>700</ele>
        <time>2024-07-01T08:29:55Z</time>
      </trkpt>
      <trkpt lat="44.85177" lon="5.19349">
        <ele>700.1</ele>
        <time>2024-07-01T08:29:56Z</time>
      </trkpt>
      <trkpt lat="44.85178" lon="5.19349">
        <ele>700.3</ele>
        <time>2024-07-01T08:29:57Z</time>
      </trkpt>
      <trkpt lat="44.85179" lon="5.1935">
        <ele>700.4</ele>
        <time>2024-07-01T08:29:58Z</time>
      </trkpt>
      <trkpt lat="44.8518" lon="5.1935">
        <ele>700.5</ele>
        <time>2024-07-01T08:29:59Z</time>
      </trkpt>
      <trkpt lat="44.8518" lon="5.19351">
        <ele>700.6</ele>
        <time>2024-07-01T08:30:00Z</time>
      </trkpt>
      <trkpt lat="44.85181" lon="5.19351">
        <ele>700.7</ele>
        <time>2024-07-01T08:30:01Z</time>
      </trkpt>
      <trkpt lat="44.85183" lon="5.19351">
        <ele>700.9</ele>
        <time>2024-07-01T08:30:02Z</time>
      </trkpt>
      <trkpt lat="44.85184" lon="5.19351">
        <ele>701</ele>
        <time>2024-07-01T08:30:03Z</time>
      </trkpt>
      <trkpt lat="44.85185" lon="5.19351">
        <ele>701.1</ele>
        <time>2024-07-01T08:30:04Z</time>
      </trkpt>
      <trkpt lat="44.85187" lon="5.1935">
        <ele>701.3</ele>
        <time>2024-07-01T08:30:06Z</time>
      </trkpt>
      <trkpt lat="44.85188" lon="5.19349">
        <ele>701.3</ele>
        <time>2024-07-01T08:30:07Z</time>
      </trkpt>
      <trkpt lat="44.85189" lon="5.19349">
        <ele>701.4</ele>
        <time>2024-07-01T08:30:08Z</time>
      </trkpt>
      <trkpt lat="44.85189" lon="5.19349">
        <ele>701.5</ele>
        <time>2024-07-01T08:30:09Z</time>
      </trkpt>
      <trkpt lat="44.8519" lon="5.19348">
        <ele>701.6</ele>
        <time>2024-07-01T08:30:11Z</time>
      </trkpt>
      <trkpt lat="44.85191" lon="5.19347">
        <ele>701.7</ele>
        <time>2024-07-01T08:30:12Z</time>
      </trkpt>
      <trkpt lat="44.85192" lon="5.19346">
        <ele>701.9</ele>
        <time>2024-07-01T08:30:13Z</time>
      </trkpt>
      <trkpt lat="44.85194" lon="5.19344">
        <ele>702.1</ele>
        <time>2024-07-01T08:30:15Z</time>
      </trkpt>
      <trkpt lat="44.85195" lon="5.19343">
        <ele>702.2</ele>
        <time>2024-07-01T08:30:17Z</time>
      </trkpt>
      <trkpt lat="44.85195" lon="5.19343">
        <ele>702.3</ele>
        <time>2024-07-01T08:30:18Z</time>
      </trkpt>
      <trkpt lat="44.85196" lon="5.19342">
        <ele>702.4</ele>
        <time>2024-07-01T08:30:19Z</time>
      </trkpt>
      <trkpt lat="44.85197" lon="5.19342">
        <ele>702.5</ele>
        <time>2024-07-01T08:30:20Z</time>
      </trkpt>
      <trkpt lat="44.85198" lon="5.19341">
        <ele>702.5</ele>
        <time>2024-07-01T08:30:21Z</time>
      </trkpt>
      <trkpt lat="44.85199" lon="5.19341">
        <ele>702.6</ele>
        <time>2024-07-01T08:30:22Z</time>
      </trkpt>
      <trkpt lat="44.852" lon="5.19339">
        <ele>702.8</ele>
        <time>2024-07-01T08:30:23Z</time>
      </trkpt>
      <trkpt lat="44.85201" lon="5.19338">
        <ele>702.9</ele>
        <time>2024-07-01T08:30:25Z</time>
      </trkpt>
      <trkpt lat="44.85202" lon="5.19338">
        <ele>703</ele>
        <time>2024-07-01T08:30:26Z</time>
      </trkpt>
      <trkpt lat="44.85203" lon="5.19337">
        <ele>703.1</ele>
        <time>2024-07-01T08:30:27Z</time>
      </trkpt>
      <trkpt lat="44.85203" lon="5.19336">
        <ele>703.2</ele>
        <time>2024-07-01T08:30:28Z</time>
      </trkpt>
      <trkpt lat="44.85205" lon="5.19334">
        <ele>703.4</ele>
        <time>2024-07-01T08:30:29Z</time>
      </trkpt>
      <trkpt lat="44.85205" lon="5.19334">
        <ele>703.4</ele>
        <time>2024-07-01T08:30:31Z</time>
      </trkpt>
      <trkpt lat="44.85206" lon="5.19333">
        <ele>703.5</ele>
        <time>2024-07-01T08:30:32Z</time>
      </trkpt>
      <trkpt lat="44.85207" lon="5.19333">
        <ele>703.6</ele>
        <time>2024-07-01T08:30:33Z</time>
      </trkpt>
      <trkpt lat="44.85208" lon="5.19332">
        <ele>703.7</ele>
        <time>2024-07-01T08:30:34Z</time>
      </trkpt>
      <trkpt lat="44.85209" lon="5.19332">
        <ele>703.8</ele>
        <time>2024-07-01T08:30:35Z</time>
      </trkpt>
      <trkpt lat="44.85209" lon="5.19331">
        <ele>703.9</ele>
        <time>2024-07-01T08:30:36Z</time>
      </trkpt>
      <trkpt lat="44.8521" lon="5.1933">
        <ele>704</ele>
        <time>2024-07-01T08:30:37Z</time>
      </trkpt>
      <trkpt lat="44.85211" lon="5.1933">
        <ele>704.1</ele>
        <time>2024-07-01T08:30:38Z</time>
      </trkpt>
      <trkpt lat="44.85212" lon="5.19329">
        <ele>704.2</ele>
        <time>2024-07-01T08:30:39Z</time>
      </trkpt>
      <trkpt lat="44.85214" lon="5.19328">
        <ele>704.4</ele>
        <time>2024-07-01T08:30:40Z</time>
      </trkpt>
      <trkpt lat="44.85215" lon="5.19328">
        <ele>704.5</ele>
        <time>2024-07-01T08:30:42Z</time>
      </trkpt>
      <trkpt lat="44.85216" lon="5.19328">
        <ele>704.6</ele>
        <time>2024-07-01T08:30:43Z</time>
      </trkpt>
      <trkpt lat="44.85217" lon="5.19328">
        <ele>704.7</ele>
        <time>2024-07-01T08:30:44Z</time>
      </trkpt>
      <trkpt lat="44.85218" lon="5.19327">
        <ele>704.9</ele>
        <time>2024-07-01T08:30:45Z</time>
      </trkpt>
      <trkpt lat="44.85219" lon="5.19327">
        <ele>705</ele>
        <time>2024-07-01T08:30:46Z</time>
      </trkpt>
      <trkpt lat="44.8522" lon="5.19326">
        <ele>705.1</ele>
        <time>2024-07-01T08:30:47Z</time>
      </trkpt>
      <trkpt lat="44.85221" lon="5.19326">
        <ele>705.2</ele>
        <time>2024-07-01T08:30:48Z</time>
      </trkpt>
      <trkpt lat="44.85222" lon="5.19325">
        <ele>705.3</ele>
        <time>2024-07-01T08:30:49Z</time>
      </trkpt>
      <trkpt lat="44.85224" lon="5.19325">
        <ele>705.5</ele>
        <time>2024-07-01T08:30:50Z</time>
      </trkpt>
      <trkpt lat="44.85225" lon="5.19324">
        <ele>705.7</ele>
        <time>2024-07-01T08:30:52Z</time>
      </trkpt>
      <trkpt lat="44.85226" lon="5.19324">
        <ele>705.8</ele>
        <time>2024-07-01T08:30:53Z</time>
      </trkpt>
      <trkpt lat="44.85228" lon="5.19324">
        <ele>706</ele>
        <time>2024-07-01T08:30:54Z</time>
      </trkpt>
      <trkpt lat="44.85229" lon="5.19324">
        <ele>706.1</ele>
        <time>2024-07-01T08:30:56Z</time>
      </trkpt>
      <trkpt lat="44.8523" lon="5.19324">
        <ele>706.2</ele>
        <time>2024-07-01T08:30:57Z</time>
      </trkpt>
      <trkpt lat="44.85233" lon="5.19322">
        <ele>706.5</ele>
        <time>2024-07-01T08:30:58Z</time>
      </trkpt>
      <trkpt lat="44.85233" lon="5.19322">
        <ele>706.6</ele>
        <time>2024-07-01T08:31:00Z</time>
      </trkpt>
      <trkpt lat="44.85234" lon="5.19321">
        <ele>706.7</ele>
        <time>2024-07-01T08:31:01Z</time>
      </trkpt>
      <trkpt lat="44.85235" lon="5.1932">
        <ele>706.8</ele>
        <time>2024-07-01T08:31:02Z</time>
      </trkpt>
      <trkpt lat="44.85235" lon="5.1932">
        <ele>706.9</ele>
        <time>2024-07-01T08:31:03Z</time>
      </trkpt>
      <trkpt lat="44.85236" lon="5.19319">
        <ele>707</ele>
        <time>2024-07-01T08:31:04Z</time>
      </trkpt>
      <trkpt lat="44.85237" lon="5.19318">
        <ele>707.1</ele>
        <time>2024-07-01T08:31:05Z</time>
      </trkpt>
      <trkpt lat="44.85238" lon="5.19317">
        <ele>707.3</ele>
        <time>2024-07-01T08:31:06Z</time>
      </trkpt>
      <trkpt lat="44.85239" lon="5.19316">
        <ele>707.4</ele>
        <time>2024-07-01T08:31:08Z</time>
      </trkpt>
      <trkpt lat="44.85239" lon="5.19315">
        <ele>707.5</ele>
        <time>2024-07-01T08:31:09Z</time>
      </trkpt>
      <trkpt lat="44.8524" lon="5.19314">
        <ele>707.5</ele>
        <time>2024-07-01T08:31:10Z</time>
      </trkpt>
      <trkpt lat="44.8524" lon="5.19313">
        <ele>707.6</ele>
        <time>2024-07-01T08:31:11Z</time>
      </trkpt>
      <trkpt lat="44.85241" lon="5.19312">
        <ele>707.7</ele>
        <time>2024-07-01T08:31:12Z</time>
      </trkpt>
      <trkpt lat="44.85242" lon="5.19312">
        <ele>707.8</ele>
        <time>2024-07-01T08:31:13Z</time>
      </trkpt>
      <trkpt lat="44.85243" lon="5.19311">
        <ele>707.9</ele>
        <time>2024-07-01T08:31:14Z</time>
      </trkpt>
      <trkpt lat="44.85245" lon="5.19311">
        <ele>708.1</ele>
        <time>2024-07-01T08:31:15Z</time>
      </trkpt>
      <trkpt lat="44.85245" lon="5.19311">
        <ele>708.2</ele>
        <time>2024-07-01T08:31:16Z</time>
      </trkpt>
      <trkpt lat="44.85247" lon="5.1931">
        <ele>708.4</ele>
        <time>2024-07-01T08:31:17Z</time>
      </trkpt>
      <trkpt lat="44.85248" lon="5.19309">
        <ele>708.6</ele>
        <time>2024-07-01T08:31:19Z</time>
      </trkpt>
      <trkpt lat="44.85249" lon="5.19308">
        <ele>708.7</ele>
        <time>2024-07-01T08:31:20Z</time>
      </trkpt>
      <trkpt lat="44.8525" lon="5.19307">
        <ele>708.8</ele>
        <time>2024-07-01T08:31:21Z</time>
      </trkpt>
      <trkpt lat="44.85251" lon="5.19306">
        <ele>708.9</ele>
        <time>2024-07-01T08:31:22Z</time>
      </trkpt>
      <trkpt lat="44.85252" lon="5.19305">
        <ele>709</ele>
        <time>2024-07-01T08:31:23Z</time>
      </trkpt>
      <trkpt lat="44.85252" lon="5.19304">
        <ele>709.1</ele>
        <time>2024-07-01T08:31:24Z</time>
      </trkpt>
      <trkpt lat="44.85253" lon="5.19302">
        <ele>709.2</ele>
        <time>2024-07-01T08:31:25Z</time>
      </trkpt>
      <trkpt lat="44.85253" lon="5.19301">
        <ele>709.3</ele>
        <time>2024-07-01T08:31:26Z</time>
      </trkpt>
      <trkpt lat="44.85254" lon="5.19299">
        <ele>709.5</ele>
        <time>2024-07-01T08:31:27Z</time>
      </trkpt>
      <trkpt lat="44.85254" lon="5.19298">
        <ele>709.6</ele>
        <time>2024-07-01T08:31:29Z</time>
      </trkpt>
      <trkpt lat="44.85256" lon="5.19296">
        <ele>709.8</ele>
        <time>2024-07-01T08:31:30Z</time>
      </trkpt>
      <trkpt lat="44.85257" lon="5.19295">
        <ele>709.8</ele>
        <time>2024-07-01T08:31:32Z</time>
      </trkpt>
      <trkpt lat="44.85257" lon="5.19294">
        <ele>709.9</ele>
        <time>2024-07-01T08:31:33Z</time>
      </trkpt>
      <trkpt lat="44.85258" lon="5.19294">
        <ele>710</ele>
        <time>2024-07-01T08:31:34Z</time>
      </trkpt>
      <trkpt lat="44.85259" lon="5.19293">
        <ele>710.1</ele>
        <time>2024-07-01T08:31:35Z</time>
      </trkpt>
      <trkpt lat="44.85262" lon="5.19291">
        <ele>710.4</ele>
        <time>2024-07-01T08:31:36Z</time>
      </trkpt>
      <trkpt lat="44.85262" lon="5.1929">
        <ele>710.5</ele>
        <time>2024-07-01T08:31:38Z</time>
      </trkpt>
      <trkpt lat="44.85263" lon="5.19289">
        <ele>710.6</ele>
        <time>2024-07-01T08:31:39Z</time>
      </trkpt>
      <trkpt lat="44.85264" lon="5.19288">
        <ele>710.7</ele>
        <time>2024-07-01T08:31:41Z</time>
      </trkpt>
      <trkpt lat="44.85265" lon="5.19287">
        <ele>710.7</ele>
        <time>2024-07-01T08:31:42Z</time>
      </trkpt>
      <trkpt lat="44.85266" lon="5.19286">
        <ele>710.8</ele>
        <time>2024-07-01T08:31:44Z</time>
      </trkpt>
      <trkpt lat="44.85267" lon="5.19286">
        <ele>710.9</ele>
        <time>2024-07-01T08:31:45Z</time>
      </trkpt>
      <trkpt lat="44.85268" lon="5.19285">
        <ele>711.1</ele>
        <time>2024-07-01T08:31:46Z</time>
      </trkpt>
      <trkpt lat="44.85269" lon="5.19285">
        <ele>711.1</ele>
        <time>2024-07-01T08:31:47Z</time>
      </trkpt>
      <trkpt lat="44.8527" lon="5.19285">
        <ele>711.2</ele>
        <time>2024-07-01T08:31:48Z</time>
      </trkpt>
      <trkpt lat="44.85271" lon="5.19285">
        <ele>711.3</ele>
        <time>2024-07-01T08:31:49Z</time>
      </trkpt>
      <trkpt lat="44.85273" lon="5.19285">
        <ele>711.5</ele>
        <time>2024-07-01T08:31:50Z</time>
      </trkpt>
      <trkpt lat="44.85274" lon="5.19285">
        <ele>711.6</ele>
        <time>2024-07-01T08:31:52Z</time>
      </trkpt>
      <trkpt lat="44.85276" lon="5.19285">
        <ele>711.7</ele>
        <time>2024-07-01T08:31:53Z</time>
      </trkpt>
      <trkpt lat="44.85277" lon="5.19285">
        <ele>711.8</ele>
        <time>2024-07-01T08:31:54Z</time>
      </trkpt>
      <trkpt lat="44.85278" lon="5.19284">
        <ele>711.9</ele>
        <time>2024-07-01T08:31:55Z</time>
      </trkpt>
      <trkpt lat="44.85278" lon="5.19284">
        <ele>712</ele>
        <time>2024-07-01T08:31:56Z</time>
      </trkpt>
      <trkpt lat="44.85279" lon="5.19283">
        <ele>712.1</ele>
        <time>2024-07-01T08:31:57Z</time>
      </trkpt>
      <trkpt lat="44.8528" lon="5.19282">
        <ele>712.2</ele>
        <time>2024-07-01T08:31:58Z</time>
      </trkpt>
      <trkpt lat="44.85281" lon="5.19281">
        <ele>712.3</ele>
        <time>2024-07-01T08:31:59Z</time>
      </trkpt>
      <trkpt lat="44.85282" lon="5.1928">
        <ele>712.5</ele>
        <time>2024-07-01T08:32:00Z</time>
      </trkpt>
      <trkpt lat="44.85282" lon="5.19279">
        <ele>712.5</ele>
        <time>2024-07-01T08:32:02Z</time>
      </trkpt>
      <trkpt lat="44.85284" lon="5.19277">
        <ele>712.7</ele>
        <time>2024-07-01T08:32:03Z</time>
      </trkpt>
      <trkpt lat="44.85285" lon="5.19276">
        <ele>712.9</ele>
        <time>2024-07-01T08:32:05Z</time>
      </trkpt>
      <trkpt lat="44.85286" lon="5.19275">
        <ele>713</ele>
        <time>2024-07-01T08:32:06Z</time>
      </trkpt>
      <trkpt lat="44.85287" lon="5.19274">
        <ele>713.1</ele>
        <time>2024-07-01T08:32:07Z</time>
      </trkpt>
      <trkpt lat="44.85288" lon="5.19272">
        <ele>713.3</ele>
        <time>2024-07-01T08:32:08Z</time>
      </trkpt>
      <trkpt lat="44.85289" lon="5.19271">
        <ele>713.4</ele>
        <time>2024-07-01T08:32:09Z</time>
      </trkpt>
      <trkpt lat="44.85289" lon="5.19269">
        <ele>713.5</ele>
        <time>2024-07-01T08:32:11Z</time>
      </trkpt>
      <trkpt lat="44.8529" lon="5.19267">
        <ele>713.7</ele>
        <time>2024-07-01T08:32:12Z</time>
      </trkpt>
      <trkpt lat="44.8529" lon="5.19266">
        <ele>713.8</ele>
        <time>2024-07-01T08:32:14Z</time>
      </trkpt>
      <trkpt lat="44.8529" lon="5.19264">
        <ele>714</ele>
        <time>2024-07-01T08:32:15Z</time>
      </trkpt>
      <trkpt lat="44.8529" lon="5.19262">
        <ele>714.1</ele>
        <time>2024-07-01T08:32:17Z</time>
      </trkpt>
      <trkpt lat="44.85289" lon="5.19262">
        <ele>714.2</ele>
        <time>2024-07-01T08:32:18Z</time>
      </trkpt>
      <trkpt lat="44.85289" lon="5.19261">
        <ele>714.2</ele>
        <time>2024-07-01T08:32:19Z</time>
      </trkpt>
      <trkpt lat="44.85288" lon="5.1926">
        <ele>714.3</ele>
        <time>2024-07-01T08:32:20Z</time>
      </trkpt>
      <trkpt lat="44.85288" lon="5.19258">
        <ele>714.4</ele>
        <time>2024-07-01T08:32:21Z</time>
      </trkpt>
      <trkpt lat="44.85287" lon="5.19258">
        <ele>714.5</ele>
        <time>2024-07-01T08:32:22Z</time>
      </trkpt>
      <trkpt lat="44.85286" lon="5.19256">
        <ele>714.6</ele>
        <time>2024-07-01T08:32:23Z</time>
      </trkpt>
      <trkpt lat="44.85286" lon="5.19255">
        <ele>714.7</ele>
        <time>2024-07-01T08:32:25Z</time>
      </trkpt>
      <trkpt lat="44.85285" lon="5.19255">
        <ele>714.8</ele>
        <time>2024-07-01T08:32:26Z</time>
      </trkpt>
      <trkpt lat="44.85285" lon="5.19254">
        <ele>714.8</ele>
        <time>2024-07-01T08:32:27Z</time>
      </trkpt>
      <trkpt lat="44.85285" lon="5.19252">
        <ele>714.9</ele>
        <time>2024-07-01T08:32:28Z</time>
      </trkpt>
      <trkpt lat="44.85286" lon="5.1925">
        <ele>715.1</ele>
        <time>2024-07-01T08:32:29Z</time>
      </trkpt>
      <trkpt lat="44.85287" lon="5.19248">
        <ele>715.3</ele>
        <time>2024-07-01T08:32:31Z</time>
      </trkpt>
      <trkpt lat="44.85288" lon="5.19247">
        <ele>715.4</ele>
        <time>2024-07-01T08:32:32Z</time>
      </trkpt>
      <trkpt lat="44.85289" lon="5.19246">
        <ele>715.5</ele>
        <time>2024-07-01T08:32:33Z</time>
      </trkpt>
      <trkpt lat="44.8529" lon="5.19245">
        <ele>715.6</ele>
        <time>2024-07-01T08:32:34Z</time>
      </trkpt>
      <trkpt lat="44.85293" lon="5.19243">
        <ele>715.8</ele>
        <time>2024-07-01T08:32:35Z</time>
      </trkpt>
      <trkpt lat="44.85293" lon="5.19243">
        <ele>715.8</ele>
        <time>2024-07-01T08:32:37Z</time>
      </trkpt>
      <trkpt lat="44.85295" lon="5.19242">
        <ele>716</ele>
        <time>2024-07-01T08:32:38Z</time>
      </trkpt>
      <trkpt lat="44.85296" lon="5.19242">
        <ele>716.1</ele>
        <time>2024-07-01T08:32:40Z</time>
      </trkpt>
      <trkpt lat="44.85298" lon="5.19241">
        <ele>716.2</ele>
        <time>2024-07-01T08:32:41Z</time>
      </trkpt>
      <trkpt lat="44.85298" lon="5.1924">
        <ele>716.3</ele>
        <time>2024-07-01T08:32:42Z</time>
      </trkpt>
      <trkpt lat="44.85299" lon="5.19238">
        <ele>716.3</ele>
        <time>2024-07-01T08:32:43Z</time>
      </trkpt>
      <trkpt lat="44.85299" lon="5.19237">
        <ele>716.4</ele>
        <time>2024-07-01T08:32:44Z</time>
      </trkpt>
      <trkpt lat="44.853" lon="5.19236">
        <ele>716.5</ele>
        <time>2024-07-01T08:32:45Z</time>
      </trkpt>
      <trkpt lat="44.85301" lon="5.19235">
        <ele>716.6</ele>
        <time>2024-07-01T08:32:46Z</time>
      </trkpt>
      <trkpt lat="44.85302" lon="5.19233">
        <ele>716.7</ele>
        <time>2024-07-01T08:32:47Z</time>
      </trkpt>
      <trkpt lat="44.85303" lon="5.19232">
        <ele>716.7</ele>
        <time>2024-07-01T08:32:48Z</time>
      </trkpt>
      <trkpt lat="44.85304" lon="5.19232">
        <ele>716.8</ele>
        <time>2024-07-01T08:32:49Z</time>
      </trkpt>
      <trkpt lat="44.85305" lon="5.19231">
        <ele>716.9</ele>
        <time>2024-07-01T08:32:50Z</time>
      </trkpt>
      <trkpt lat="44.85307" lon="5.19228">
        <ele>717</ele>
        <time>2024-07-01T08:32:51Z</time>
      </trkpt>
      <trkpt lat="44.85307" lon="5.19227">
        <ele>717.1</ele>
        <time>2024-07-01T08:32:52Z</time>
      </trkpt>
      <trkpt lat="44.85308" lon="5.19225">
        <ele>717.2</ele>
        <time>2024-07-01T08:32:54Z</time>
      </trkpt>
      <trkpt lat="44.85309" lon="5.19223">
        <ele>717.2</ele>
        <time>2024-07-01T08:32:55Z</time>
      </trkpt>
      <trkpt lat="44.85309" lon="5.19222">
        <ele>717.3</ele>
        <time>2024-07-01T08:32:56Z</time>
      </trkpt>
      <trkpt lat="44.85309" lon="5.1922">
        <ele>717.4</ele>
        <time>2024-07-01T08:32:57Z</time>
      </trkpt>
      <trkpt lat="44.8531" lon="5.19218">
        <ele>717.4</ele>
        <time>2024-07-01T08:32:58Z</time>
      </trkpt>
      <trkpt lat="44.8531" lon="5.19217">
        <ele>717.4</ele>
        <time>2024-07-01T08:32:59Z</time>
      </trkpt>
      <trkpt lat="44.8531" lon="5.19216">
        <ele>717.5</ele>
        <time>2024-07-01T08:33:01Z</time>
      </trkpt>
      <trkpt lat="44.8531" lon="5.19214">
        <ele>717.5</ele>
        <time>2024-07-01T08:33:02Z</time>
      </trkpt>
      <trkpt lat="44.8531" lon="5.19211">
        <ele>717.6</ele>
        <time>2024-07-01T08:33:03Z</time>
      </trkpt>
      <trkpt lat="44.85309" lon="5.1921">
        <ele>717.6</ele>
        <time>2024-07-01T08:33:04Z</time>
      </trkpt>
      <trkpt lat="44.85309" lon="5.19208">
        <ele>717.6</ele>
        <time>2024-07-01T08:33:06Z</time>
      </trkpt>
      <trkpt lat="44.85309" lon="5.19207">
        <ele>717.6</ele>
        <time>2024-07-01T08:33:07Z</time>
      </trkpt>
      <trkpt lat="44.85308" lon="5.19207">
        <ele>717.7</ele>
        <time>2024-07-01T08:33:08Z</time>
      </trkpt>
      <trkpt lat="44.85308" lon="5.19206">
        <ele>717.7</ele>
        <time>2024-07-01T08:33:09Z</time>
      </trkpt>
      <trkpt lat="44.85308" lon="5.19205">
        <ele>717.7</ele>
        <time>2024-07-01T08:33:10Z</time>
      </trkpt>
      <trkpt lat="44.85307" lon="5.19204">
        <ele>717.7</ele>
        <time>2024-07-01T08:33:11Z</time>
      </trkpt>
      <trkpt lat="44.85306" lon="5.19202">
        <ele>717.7</ele>
        <time>2024-07-01T08:33:12Z</time>
      </trkpt>
      <trkpt lat="44.85306" lon="5.19201">
        <ele>717.7</ele>
        <time>2024-07-01T08:33:14Z</time>
      </trkpt>
      <trkpt lat="44.85305" lon="5.192">
        <ele>717.7</ele>
        <time>2024-07-01T08:33:15Z</time>
      </trkpt>
      <trkpt lat="44.85304" lon="5.19199">
        <ele>717.7</ele>
        <time>2024-07-01T08:33:16Z</time>
      </trkpt>
      <trkpt lat="44.85304" lon="5.19199">
        <ele>717.7</ele>
        <time>2024-07-01T08:33:17Z</time>
      </trkpt>
      <trkpt lat="44.85303" lon="5.19197">
        <ele>717.7</ele>
        <time>2024-07-01T08:33:18Z</time>
      </trkpt>
      <trkpt lat="44.85303" lon="5.19195">
        <ele>717.6</ele>
        <time>2024-07-01T08:33:19Z</time>
      </trkpt>
      <trkpt lat="44.85303" lon="5.19192">
        <ele>717.6</ele>
        <time>2024-07-01T08:33:21Z</time>
      </trkpt>
      <trkpt lat="44.85303" lon="5.19191">
        <ele>717.6</ele>
        <time>2024-07-01T08:33:22Z</time>
      </trkpt>
      <trkpt lat="44.85303" lon="5.19188">
        <ele>717.5</ele>
        <time>2024-07-01T08:33:23Z</time>
      </trkpt>
      <trkpt lat="44.85304" lon="5.19186">
        <ele>717.5</ele>
        <time>2024-07-01T08:33:25Z</time>
      </trkpt>
      <trkpt lat="44.85304" lon="5.19185">
        <ele>717.4</ele>
        <time>2024-07-01T08:33:26Z</time>
      </trkpt>
      <trkpt lat="44.85304" lon="5.19184">
        <ele>717.4</ele>
        <time>2024-07-01T08:33:27Z</time>
      </trkpt>
      <trkpt lat="44.85304" lon="5.19182">
        <ele>717.4</ele>
        <time>2024-07-01T08:33:28Z</time>
      </trkpt>
      <trkpt lat="44.85304" lon="5.19181">
        <ele>717.4</ele>
        <time>2024-07-01T08:33:29Z</time>
      </trkpt>
      <trkpt lat="44.85304" lon="5.1918">
        <ele>717.3</ele>
        <time>2024-07-01T08:33:30Z</time>
      </trkpt>
      <trkpt lat="44.85304" lon="5.19179">
        <ele>717.3</ele>
        <time>2024-07-01T08:33:31Z</time>
      </trkpt>
      <trkpt lat="44.85303" lon="5.19179">
        <ele>717.2</ele>
        <time>2024-07-01T08:33:32Z</time>
      </trkpt>
      <trkpt lat="44.85303" lon="5.19177">
        <ele>717.2</ele>
        <time>2024-07-01T08:33:33Z</time>
      </trkpt>
      <trkpt lat="44.85303" lon="5.19175">
        <ele>717.1</ele>
        <time>2024-07-01T08:33:34Z</time>
      </trkpt>
      <trkpt lat="44.85303" lon="5.19173">
        <ele>717.1</ele>
        <time>2024-07-01T08:33:36Z</time>
      </trkpt>
      <trkpt lat="44.85303" lon="5.19172">
        <ele>717</ele>
        <time>2024-07-01T08:33:37Z</time>
      </trkpt>
      <trkpt lat="44.85304" lon="5.1917">
        <ele>716.9</ele>
        <time>2024-07-01T08:33:38Z</time>
      </trkpt>
      <trkpt lat="44.85305" lon="5.19169">
        <ele>716.9</ele>
        <time>2024-07-01T08:33:39Z</time>
      </trkpt>
      <trkpt lat="44.85305" lon="5.19168">
        <ele>716.9</ele>
        <time>2024-07-01T08:33:40Z</time>
      </trkpt>
      <trkpt lat="44.85306" lon="5.19167">
        <ele>716.8</ele>
        <time>2024-07-01T08:33:41Z</time>
      </trkpt>
      <trkpt lat="44.85306" lon="5.19166">
        <ele>716.8</ele>
        <time>2024-07-01T08:33:42Z</time>
      </trkpt>
      <trkpt lat="44.85307" lon="5.19164">
        <ele>716.8</ele>
        <time>2024-07-01T08:33:44Z</time>
      </trkpt>
      <trkpt lat="44.85308" lon="5.19163">
        <ele>716.7</ele>
        <time>2024-07-01T08:33:45Z</time>
      </trkpt>
      <trkpt lat="44.85308" lon="5.19162">
        <ele>716.7</ele>
        <time>2024-07-01T08:33:46Z</time>
      </trkpt>
      <trkpt lat="44.85308" lon="5.19162">
        <ele>716.7</ele>
        <time>2024-07-01T08:33:47Z</time>
      </trkpt>
      <trkpt lat="44.85308" lon="5.19162">
        <ele>716.7</ele>
        <time>2024-07-01T08:33:48Z</time>
      </trkpt>
      <trkpt lat="44.85308" lon="5.19162">
        <ele>716.7</ele>
        <time>2024-07-01T08:33:49Z</time>
      </trkpt>
      <trkpt lat="44.85308" lon="5.19162">
        <ele>716.7</ele>
        <time>2024-07-01T08:33:50Z</time>
      </trkpt>
      <trkpt lat="44.85308" lon="5.19162">
        <ele>716.6</ele>
        <time>2024-07-01T08:33:51Z</time>
      </trkpt>
      <trkpt lat="44.85308" lon="5.19162">
        <ele>716.6</ele>
        <time>2024-07-01T08:33:52Z</time>
      </trkpt>
      <trkpt lat="44.85308" lon="5.19163">
        <ele>716.6</ele>
        <time>2024-07-01T08:33:53Z</time>
      </trkpt>
      <trkpt lat="44.85308" lon="5.19163">
        <ele>716.6</ele>
        <time>2024-07-01T08:33:54Z</time>
      </trkpt>
      <trkpt lat="44.85309" lon="5.19163">
        <ele>716.6</ele>
        <time>2024-07-01T08:33:55Z</time>
      </trkpt>
      <trkpt lat="44.85309" lon="5.19163">
        <ele>716.6</ele>
        <time>2024-07-01T08:33:56Z</time>
      </trkpt>
      <trkpt lat="44.85309" lon="5.19164">
        <ele>716.6</ele>
        <time>2024-07-01T08:33:57Z</time>
      </trkpt>
      <trkpt lat="44.85309" lon="5.19164">
        <ele>716.6</ele>
        <time>2024-07-01T08:33:58Z</time>
      </trkpt>
      <trkpt lat="44.85309" lon="5.19164">
        <ele>716.6</ele>
        <time>2024-07-01T08:33:59Z</time>
      </trkpt>
      <trkpt lat="44.85309" lon="5.19164">
        <ele>716.6</ele>
        <time>2024-07-01T08:34:00Z</time>
      </trkpt>
      <trkpt lat="44.85309" lon="5.19164">
        <ele>716.6</ele>
        <time>2024-07-01T08:34:01Z</time>
      </trkpt>
      <trkpt lat="44.85309" lon="5.19164">
        <ele>716.6</ele>
        <time>2024-07-01T08:34:02Z</time>
      </trkpt>
      <trkpt lat="44.85309" lon="5.19164">
        <ele>716.6</ele>
        <time>2024-07-01T08:34:03Z</time>
      </trkpt>
      <trkpt lat="44.85309" lon="5.19164">
        <ele>716.6</ele>
        <time>2024-07-01T08:34:04Z</time>
      </trkpt>
      <trkpt lat="44.85309" lon="5.19164">
        <ele>716.6</ele>
        <time>2024-07-01T08:34:05Z</time>
      </trkpt>
      <trkpt lat="44.85309" lon="5.19164">
        <ele>716.6</ele>
        <time>2024-07-01T08:34:06Z</time>
      </trkpt>
      <trkpt lat="44.85309" lon="5.19164">
        <ele>716.6</ele>
        <time>2024-07-01T08:34:07Z</time>
      </trkpt>
      <trkpt lat="44.85309" lon="5.19164">
        <ele>716.6</ele>
        <time>2024-07-01T08:34:08Z</time>
      </trkpt>
      <trkpt lat="44.85309" lon="5.19165">
        <ele>716.6</ele>
        <time>2024-07-01T08:34:09Z</time>
      </trkpt>
      <trkpt lat="44.8531" lon="5.19165">
        <ele>716.6</ele>
        <time>2024-07-01T08:34:10Z</time>
      </trkpt>
      <trkpt lat="44.8531" lon="5.19165">
        <ele>716.6</ele>
        <time>2024-07-01T08:34:11Z</time>
      </trkpt>
      <trkpt lat="44.8531" lon="5.19165">
        <ele>716.6</ele>
        <time>2024-07-01T08:34:12Z</time>
      </trkpt>
      <trkpt lat="44.8531" lon="5.19165">
        <ele>716.6</ele>
        <time>2024-07-01T08:34:13Z</time>
      </trkpt>
      <trkpt lat="44.8531" lon="5.19165">
        <ele>716.6</ele>
        <time>2024-07-01T08:34:14Z</time>
      </trkpt>
      <trkpt lat="44.8531" lon="5.19165">
        <ele>716.6</ele>
        <time>2024-07-01T08:34:15Z</time>
      </trkpt>
      <trkpt lat="44.8531" lon="5.19165">
        <ele>716.6</ele>
        <time>2024-07-01T08:34:16Z</time>
      </trkpt>
      <trkpt lat="44.8531" lon="5.19165">
        <ele>716.6</ele>
        <time>2024-07-01T08:34:17Z</time>
      </trkpt>
      <trkpt lat="44.8531" lon="5.19165">
        <ele>716.6</ele>
        <time>2024-07-01T08:34:18Z</time>
      </trkpt>
      <trkpt lat="44.8531" lon="5.19166">
        <ele>716.6</ele>
        <time>2024-07-01T08:34:19Z</time>
      </trkpt>
      <trkpt lat="44.8531" lon="5.19166">
        <ele>716.5</ele>
        <time>2024-07-01T08:34:20Z</time>
      </trkpt>
      <trkpt lat="44.8531" lon="5.19166">
        <ele>716.5</ele>
        <time>2024-07-01T08:34:21Z</time>
      </trkpt>
      <trkpt lat="44.8531" lon="5.19166">
        <ele>716.5</ele>
        <time>2024-07-01T08:34:22Z</time>
      </trkpt>
      <trkpt lat="44.8531" lon="5.19166">
        <ele>716.5</ele>
        <time>2024-07-01T08:34:23Z</time>
      </trkpt>
      <trkpt lat="44.8531" lon="5.19166">
        <ele>716.5</ele>
        <time>2024-07-01T08:34:24Z</time>
      </trkpt>
      <trkpt lat="44.8531" lon="5.19166">
        <ele>716.5</ele>
        <time>2024-07-01T08:34:25Z</time>
      </trkpt>
      <trkpt lat="44.8531" lon="5.19166">
        <ele>716.5</ele>
        <time>2024-07-01T08:34:26Z</time>
      </trkpt>
      <trkpt lat="44.8531" lon="5.19166">
        <ele>716.5</ele>
        <time>2024-07-01T08:34:27Z</time>
      </trkpt>
      <trkpt lat="44.8531" lon="5.19166">
        <ele>716.5</ele>
        <time>2024-07-01T08:34:28Z</time>
      </trkpt>
      <trkpt lat="44.8531" lon="5.19166">
        <ele>716.5</ele>
        <time>2024-07-01T08:34:29Z</time>
      </trkpt>
      <trkpt lat="44.8531" lon="5.19166">
        <ele>716.5</ele>
        <time>2024-07-01T08:34:30Z</time>
      </trkpt>
      <trkpt lat="44.8531" lon="5.19166">
        <ele>716.5</ele>
        <time>2024-07-01T08:34:31Z</time>
      </trkpt>
      <trkpt lat="44.8531" lon="5.19166">
        <ele>716.5</ele>
        <time>2024-07-01T08:34:32Z</time>
      </trkpt>
      <trkpt lat="44.8531" lon="5.19165">
        <ele>716.5</ele>
        <time>2024-07-01T08:34:33Z</time>
      </trkpt>
      <trkpt lat="44.8531" lon="5.19165">
        <ele>716.5</ele>
        <time>2024-07-01T08:34:34Z</time>
      </trkpt>
      <trkpt lat="44.85309" lon="5.19164">
        <ele>716.5</ele>
        <time>2024-07-01T08:34:35Z</time>
      </trkpt>
      <trkpt lat="44.85309" lon="5.19162">
        <ele>716.4</ele>
        <time>2024-07-01T08:34:36Z</time>
      </trkpt>
      <trkpt lat="44.85309" lon="5.19161">
        <ele>716.4</ele>
        <time>2024-07-01T08:34:37Z</time>
      </trkpt>
      <trkpt lat="44.85308" lon="5.19159">
        <ele>716.4</ele>
        <time>2024-07-01T08:34:38Z</time>
      </trkpt>
      <trkpt lat="44.85309" lon="5.19158">
        <ele>716.4</ele>
        <time>2024-07-01T08:34:39Z</time>
      </trkpt>
      <trkpt lat="44.85309" lon="5.19157">
        <ele>716.3</ele>
        <time>2024-07-01T08:34:40Z</time>
      </trkpt>
      <trkpt lat="44.85309" lon="5.19156">
        <ele>716.3</ele>
        <time>2024-07-01T08:34:41Z</time>
      </trkpt>
      <trkpt lat="44.85309" lon="5.19156">
        <ele>716.3</ele>
        <time>2024-07-01T08:34:42Z</time>
      </trkpt>
      <trkpt lat="44.85309" lon="5.19155">
        <ele>716.3</ele>
        <time>2024-07-01T08:34:43Z</time>
      </trkpt>
      <trkpt lat="44.85309" lon="5.19151">
        <ele>716.2</ele>
        <time>2024-07-01T08:34:44Z</time>
      </trkpt>
      <trkpt lat="44.8531" lon="5.1915">
        <ele>716.2</ele>
        <time>2024-07-01T08:34:45Z</time>
      </trkpt>
      <trkpt lat="44.8531" lon="5.19149">
        <ele>716.2</ele>
        <time>2024-07-01T08:34:46Z</time>
      </trkpt>
      <trkpt lat="44.8531" lon="5.19147">
        <ele>716.1</ele>
        <time>2024-07-01T08:34:47Z</time>
      </trkpt>
      <trkpt lat="44.85311" lon="5.19146">
        <ele>716.1</ele>
        <time>2024-07-01T08:34:48Z</time>
      </trkpt>
      <trkpt lat="44.85311" lon="5.19145">
        <ele>716.1</ele>
        <time>2024-07-01T08:34:49Z</time>
      </trkpt>
      <trkpt lat="44.85311" lon="5.19143">
        <ele>716</ele>
        <time>2024-07-01T08:34:50Z</time>
      </trkpt>
      <trkpt lat="44.85311" lon="5.19141">
        <ele>716</ele>
        <time>2024-07-01T08:34:51Z</time>
      </trkpt>
      <trkpt lat="44.85311" lon="5.1914">
        <ele>715.9</ele>
        <time>2024-07-01T08:34:53Z</time>
      </trkpt>
      <trkpt lat="44.85312" lon="5.19139">
        <ele>715.9</ele>
        <time>2024-07-01T08:34:54Z</time>
      </trkpt>
      <trkpt lat="44.85312" lon="5.19138">
        <ele>715.9</ele>
        <time>2024-07-01T08:34:55Z</time>
      </trkpt>
      <trkpt lat="44.85312" lon="5.19137">
        <ele>715.8</ele>
        <time>2024-07-01T08:34:56Z</time>
      </trkpt>
      <trkpt lat="44.85313" lon="5.19137">
        <ele>715.8</ele>
        <time>2024-07-01T08:34:57Z</time>
      </trkpt>
      <trkpt lat="44.85313" lon="5.19136">
        <ele>715.8</ele>
        <time>2024-07-01T08:34:58Z</time>
      </trkpt>
      <trkpt lat="44.85313" lon="5.19133">
        <ele>715.7</ele>
        <time>2024-07-01T08:34:59Z</time>
      </trkpt>
      <trkpt lat="44.85313" lon="5.19132">
        <ele>715.6</ele>
        <time>2024-07-01T08:35:01Z</time>
      </trkpt>
      <trkpt lat="44.85313" lon="5.19131">
        <ele>715.6</ele>
        <time>2024-07-01T08:35:02Z</time>
      </trkpt>
      <trkpt lat="44.85313" lon="5.19129">
        <ele>715.5</ele>
        <time>2024-07-01T08:35:03Z</time>
      </trkpt>
      <trkpt lat="44.85313" lon="5.19128">
        <ele>715.4</ele>
        <time>2024-07-01T08:35:04Z</time>
      </trkpt>
      <trkpt lat="44.85313" lon="5.19126">
        <ele>715.3</ele>
        <time>2024-07-01T08:35:05Z</time>
      </trkpt>
      <trkpt lat="44.85312" lon="5.19125">
        <ele>715.2</ele>
        <time>2024-07-01T08:35:06Z</time>
      </trkpt>
      <trkpt lat="44.85312" lon="5.19123">
        <ele>715.1</ele>
        <time>2024-07-01T08:35:08Z</time>
      </trkpt>
      <trkpt lat="44.85313" lon="5.19122">
        <ele>715.1</ele>
        <time>2024-07-01T08:35:09Z</time>
      </trkpt>
      <trkpt lat="44.85314" lon="5.19121">
        <ele>715</ele>
        <time>2024-07-01T08:35:10Z</time>
      </trkpt>
      <trkpt lat="44.85315" lon="5.19119">
        <ele>714.8</ele>
        <time>2024-07-01T08:35:11Z</time>
      </trkpt>
      <trkpt lat="44.85315" lon="5.19117">
        <ele>714.6</ele>
        <time>2024-07-01T08:35:12Z</time>
      </trkpt>
      <trkpt lat="44.85314" lon="5.19116">
        <ele>714.5</ele>
        <time>2024-07-01T08:35:14Z</time>
      </trkpt>
      <trkpt lat="44.85314" lon="5.19115">
        <ele>714.5</ele>
        <time>2024-07-01T08:35:15Z</time>
      </trkpt>
      <trkpt lat="44.85313" lon="5.19115">
        <ele>714.4</ele>
        <time>2024-07-01T08:35:16Z</time>
      </trkpt>
      <trkpt lat="44.85312" lon="5.19115">
        <ele>714.3</ele>
        <time>2024-07-01T08:35:17Z</time>
      </trkpt>
      <trkpt lat="44.85312" lon="5.19115">
        <ele>714.2</ele>
        <time>2024-07-01T08:35:18Z</time>
      </trkpt>
      <trkpt lat="44.85311" lon="5.19116">
        <ele>714.1</ele>
        <time>2024-07-01T08:35:19Z</time>
      </trkpt>
      <trkpt lat="44.8531" lon="5.19116">
        <ele>714.1</ele>
        <time>2024-07-01T08:35:21Z</time>
      </trkpt>
      <trkpt lat="44.85309" lon="5.19118">
        <ele>713.9</ele>
        <time>2024-07-01T08:35:22Z</time>
      </trkpt>
      <trkpt lat="44.85309" lon="5.19118">
        <ele>713.8</ele>
        <time>2024-07-01T08:35:24Z</time>
      </trkpt>
      <trkpt lat="44.85308" lon="5.19119">
        <ele>713.7</ele>
        <time>2024-07-01T08:35:25Z</time>
      </trkpt>
      <trkpt lat="44.85307" lon="5.1912">
        <ele>713.6</ele>
        <time>2024-07-01T08:35:26Z</time>
      </trkpt>
      <trkpt lat="44.85306" lon="5.19121">
        <ele>713.5</ele>
        <time>2024-07-01T08:35:27Z</time>
      </trkpt>
      <trkpt lat="44.85305" lon="5.19122">
        <ele>713.4</ele>
        <time>2024-07-01T08:35:28Z</time>
      </trkpt>
      <trkpt lat="44.85305" lon="5.19123">
        <ele>713.3</ele>
        <time>2024-07-01T08:35:29Z</time>
      </trkpt>
      <trkpt lat="44.85305" lon="5.19123">
        <ele>713.3</ele>
        <time>2024-07-01T08:35:30Z</time>
      </trkpt>
      <trkpt lat="44.85304" lon="5.19125">
        <ele>713.2</ele>
        <time>2024-07-01T08:35:31Z</time>
      </trkpt>
      <trkpt lat="44.85304" lon="5.19126">
        <ele>713.1</ele>
        <time>2024-07-01T08:35:32Z</time>
      </trkpt>
      <trkpt lat="44.85303" lon="5.19126">
        <ele>713</ele>
        <time>2024-07-01T08:35:33Z</time>
      </trkpt>
      <trkpt lat="44.85303" lon="5.19126">
        <ele>713</ele>
        <time>2024-07-01T08:35:34Z</time>
      </trkpt>
      <trkpt lat="44.85303" lon="5.19127">
        <ele>712.9</ele>
        <time>2024-07-01T08:35:35Z</time>
      </trkpt>
      <trkpt lat="44.85302" lon="5.19127">
        <ele>712.9</ele>
        <time>2024-07-01T08:35:36Z</time>
      </trkpt>
      <trkpt lat="44.85302" lon="5.19127">
        <ele>712.8</ele>
        <time>2024-07-01T08:35:37Z</time>
      </trkpt>
      <trkpt lat="44.85301" lon="5.19128">
        <ele>712.8</ele>
        <time>2024-07-01T08:35:39Z</time>
      </trkpt>
      <trkpt lat="44.85301" lon="5.19128">
        <ele>712.7</ele>
        <time>2024-07-01T08:35:40Z</time>
      </trkpt>
      <trkpt lat="44.85301" lon="5.19128">
        <ele>712.7</ele>
        <time>2024-07-01T08:35:41Z</time>
      </trkpt>
      <trkpt lat="44.853" lon="5.19128">
        <ele>712.7</ele>
        <time>2024-07-01T08:35:42Z</time>
      </trkpt>
      <trkpt lat="44.85299" lon="5.19128">
        <ele>712.6</ele>
        <time>2024-07-01T08:35:43Z</time>
      </trkpt>
      <trkpt lat="44.85299" lon="5.19128">
        <ele>712.5</ele>
        <time>2024-07-01T08:35:44Z</time>
      </trkpt>
      <trkpt lat="44.85301" lon="5.19128">
        <ele>712.3</ele>
        <time>2024-07-01T08:35:45Z</time>
      </trkpt>
      <trkpt lat="44.85302" lon="5.19128">
        <ele>712.2</ele>
        <time>2024-07-01T08:35:46Z</time>
      </trkpt>
      <trkpt lat="44.85302" lon="5.19127">
        <ele>712.2</ele>
        <time>2024-07-01T08:35:47Z</time>
      </trkpt>
      <trkpt lat="44.85302" lon="5.19127">
        <ele>712.2</ele>
        <time>2024-07-01T08:35:48Z</time>
      </trkpt>
      <trkpt lat="44.85302" lon="5.19127">
        <ele>712.2</ele>
        <time>2024-07-01T08:35:49Z</time>
      </trkpt>
      <trkpt lat="44.85303" lon="5.19126">
        <ele>712.1</ele>
        <time>2024-07-01T08:35:50Z</time>
      </trkpt>
      <trkpt lat="44.85305" lon="5.19131">
        <ele>711.7</ele>
        <time>2024-07-01T08:35:52Z</time>
      </trkpt>
      <trkpt lat="44.85304" lon="5.19132">
        <ele>711.6</ele>
        <time>2024-07-01T08:35:54Z</time>
      </trkpt>
      <trkpt lat="44.85303" lon="5.19132">
        <ele>711.5</ele>
        <time>2024-07-01T08:35:55Z</time>
      </trkpt>
      <trkpt lat="44.85303" lon="5.19133">
        <ele>711.4</ele>
        <time>2024-07-01T08:35:56Z</time>
      </trkpt>
      <trkpt lat="44.85304" lon="5.19134">
        <ele>711.4</ele>
        <time>2024-07-01T08:35:57Z</time>
      </trkpt>
      <trkpt lat="44.85304" lon="5.19135">
        <ele>711.3</ele>
        <time>2024-07-01T08:35:58Z</time>
      </trkpt>
      <trkpt lat="44.85303" lon="5.19136">
        <ele>711.2</ele>
        <time>2024-07-01T08:35:59Z</time>
      </trkpt>
      <trkpt lat="44.85303" lon="5.19137">
        <ele>711.1</ele>
        <time>2024-07-01T08:36:00Z</time>
      </trkpt>
      <trkpt lat="44.85302" lon="5.19136">
        <ele>711</ele>
        <time>2024-07-01T08:36:01Z</time>
      </trkpt>
      <trkpt lat="44.85301" lon="5.19136">
        <ele>710.9</ele>
        <time>2024-07-01T08:36:03Z</time>
      </trkpt>
      <trkpt lat="44.853" lon="5.19135">
        <ele>710.9</ele>
        <time>2024-07-01T08:36:04Z</time>
      </trkpt>
      <trkpt lat="44.853" lon="5.19135">
        <ele>710.8</ele>
        <time>2024-07-01T08:36:05Z</time>
      </trkpt>
      <trkpt lat="44.85298" lon="5.19136">
        <ele>710.7</ele>
        <time>2024-07-01T08:36:06Z</time>
      </trkpt>
      <trkpt lat="44.85298" lon="5.19137">
        <ele>710.6</ele>
        <time>2024-07-01T08:36:07Z</time>
      </trkpt>
      <trkpt lat="44.85298" lon="5.19137">
        <ele>710.6</ele>
        <time>2024-07-01T08:36:08Z</time>
      </trkpt>
      <trkpt lat="44.85298" lon="5.19137">
        <ele>710.6</ele>
        <time>2024-07-01T08:36:09Z</time>
      </trkpt>
      <trkpt lat="44.85297" lon="5.19138">
        <ele>710.5</ele>
        <time>2024-07-01T08:36:10Z</time>
      </trkpt>
      <trkpt lat="44.85297" lon="5.19139">
        <ele>710.4</ele>
        <time>2024-07-01T08:36:11Z</time>
      </trkpt>
      <trkpt lat="44.85297" lon="5.1914">
        <ele>710.3</ele>
        <time>2024-07-01T08:36:12Z</time>
      </trkpt>
      <trkpt lat="44.85296" lon="5.19141">
        <ele>710.2</ele>
        <time>2024-07-01T08:36:13Z</time>
      </trkpt>
      <trkpt lat="44.85293" lon="5.19141">
        <ele>709.9</ele>
        <time>2024-07-01T08:36:14Z</time>
      </trkpt>
      <trkpt lat="44.85292" lon="5.19141">
        <ele>709.7</ele>
        <time>2024-07-01T08:36:15Z</time>
      </trkpt>
      <trkpt lat="44.85291" lon="5.1914">
        <ele>709.5</ele>
        <time>2024-07-01T08:36:16Z</time>
      </trkpt>
      <trkpt lat="44.8529" lon="5.1914">
        <ele>709.4</ele>
        <time>2024-07-01T08:36:17Z</time>
      </trkpt>
      <trkpt lat="44.85289" lon="5.19141">
        <ele>709.2</ele>
        <time>2024-07-01T08:36:18Z</time>
      </trkpt>
      <trkpt lat="44.85288" lon="5.19142">
        <ele>709.1</ele>
        <time>2024-07-01T08:36:19Z</time>
      </trkpt>
      <trkpt lat="44.85287" lon="5.19142">
        <ele>709</ele>
        <time>2024-07-01T08:36:20Z</time>
      </trkpt>
      <trkpt lat="44.85287" lon="5.19141">
        <ele>708.8</ele>
        <time>2024-07-01T08:36:21Z</time>
      </trkpt>
      <trkpt lat="44.85287" lon="5.19139">
        <ele>708.7</ele>
        <time>2024-07-01T08:36:22Z</time>
      </trkpt>
      <trkpt lat="44.85287" lon="5.19139">
        <ele>708.6</ele>
        <time>2024-07-01T08:36:23Z</time>
      </trkpt>
      <trkpt lat="44.85287" lon="5.19138">
        <ele>708.5</ele>
        <time>2024-07-01T08:36:24Z</time>
      </trkpt>
      <trkpt lat="44.85287" lon="5.19138">
        <ele>708.5</ele>
        <time>2024-07-01T08:36:25Z</time>
      </trkpt>
      <trkpt lat="44.85288" lon="5.19138">
        <ele>708.5</ele>
        <time>2024-07-01T08:36:26Z</time>
      </trkpt>
      <trkpt lat="44.85288" lon="5.19137">
        <ele>708.5</ele>
        <time>2024-07-01T08:36:27Z</time>
      </trkpt>
      <trkpt lat="44.85288" lon="5.19137">
        <ele>708.4</ele>
        <time>2024-07-01T08:36:28Z</time>
      </trkpt>
      <trkpt lat="44.85288" lon="5.19137">
        <ele>708.4</ele>
        <time>2024-07-01T08:36:29Z</time>
      </trkpt>
      <trkpt lat="44.85288" lon="5.19137">
        <ele>708.3</ele>
        <time>2024-07-01T08:36:30Z</time>
      </trkpt>
      <trkpt lat="44.85288" lon="5.19137">
        <ele>708.3</ele>
        <time>2024-07-01T08:36:31Z</time>
      </trkpt>
      <trkpt lat="44.85288" lon="5.19137">
        <ele>708.3</ele>
        <time>2024-07-01T08:36:32Z</time>
      </trkpt>
      <trkpt lat="44.85289" lon="5.19137">
        <ele>708.3</ele>
        <time>2024-07-01T08:36:33Z</time>
      </trkpt>
      <trkpt lat="44.85289" lon="5.19137">
        <ele>708.3</ele>
        <time>2024-07-01T08:36:34Z</time>
      </trkpt>
      <trkpt lat="44.85289" lon="5.19137">
        <ele>708.3</ele>
        <time>2024-07-01T08:36:35Z</time>
      </trkpt>
      <trkpt lat="44.85289" lon="5.19137">
        <ele>708.2</ele>
        <time>2024-07-01T08:36:36Z</time>
      </trkpt>
      <trkpt lat="44.85289" lon="5.19137">
        <ele>708.2</ele>
        <time>2024-07-01T08:36:37Z</time>
      </trkpt>
      <trkpt lat="44.85289" lon="5.19136">
        <ele>708.2</ele>
        <time>2024-07-01T08:36:38Z</time>
      </trkpt>
      <trkpt lat="44.85289" lon="5.19136">
        <ele>708.2</ele>
        <time>2024-07-01T08:36:39Z</time>
      </trkpt>
      <trkpt lat="44.85289" lon="5.19136">
        <ele>708.2</ele>
        <time>2024-07-01T08:36:40Z</time>
      </trkpt>
      <trkpt lat="44.85289" lon="5.19136">
        <ele>708.2</ele>
        <time>2024-07-01T08:36:41Z</time>
      </trkpt>
      <trkpt lat="44.85289" lon="5.19136">
        <ele>708.2</ele>
        <time>2024-07-01T08:36:42Z</time>
      </trkpt>
      <trkpt lat="44.85289" lon="5.19136">
        <ele>708.2</ele>
        <time>2024-07-01T08:36:43Z</time>
      </trkpt>
      <trkpt lat="44.85289" lon="5.19136">
        <ele>708.2</ele>
        <time>2024-07-01T08:36:44Z</time>
      </trkpt>
      <trkpt lat="44.85289" lon="5.19136">
        <ele>708.2</ele>
        <time>2024-07-01T08:36:45Z</time>
      </trkpt>
      <trkpt lat="44.85289" lon="5.19136">
        <ele>708.2</ele>
        <time>2024-07-01T08:36:46Z</time>
      </trkpt>
      <trkpt lat="44.85289" lon="5.19136">
        <ele>708.2</ele>
        <time>2024-07-01T08:36:47Z</time>
      </trkpt>
      <trkpt lat="44.85289" lon="5.19137">
        <ele>708.1</ele>
        <time>2024-07-01T08:36:48Z</time>
      </trkpt>
      <trkpt lat="44.85289" lon="5.19137">
        <ele>708.1</ele>
        <time>2024-07-01T08:36:49Z</time>
      </trkpt>
      <trkpt lat="44.85288" lon="5.19136">
        <ele>708</ele>
        <time>2024-07-01T08:36:50Z</time>
      </trkpt>
      <trkpt lat="44.85289" lon="5.19135">
        <ele>707.9</ele>
        <time>2024-07-01T08:36:51Z</time>
      </trkpt>
      <trkpt lat="44.85289" lon="5.19135">
        <ele>707.8</ele>
        <time>2024-07-01T08:36:52Z</time>
      </trkpt>
      <trkpt lat="44.85289" lon="5.19134">
        <ele>707.8</ele>
        <time>2024-07-01T08:36:53Z</time>
      </trkpt>
      <trkpt lat="44.85289" lon="5.19134">
        <ele>707.8</ele>
        <time>2024-07-01T08:36:54Z</time>
      </trkpt>
      <trkpt lat="44.85289" lon="5.19134">
        <ele>707.8</ele>
        <time>2024-07-01T08:36:55Z</time>
      </trkpt>
      <trkpt lat="44.85289" lon="5.19134">
        <ele>707.8</ele>
        <time>2024-07-01T08:36:56Z</time>
      </trkpt>
      <trkpt lat="44.85289" lon="5.19134">
        <ele>707.8</ele>
        <time>2024-07-01T08:36:57Z</time>
      </trkpt>
      <trkpt lat="44.85289" lon="5.19134">
        <ele>707.7</ele>
        <time>2024-07-01T08:36:58Z</time>
      </trkpt>
      <trkpt lat="44.85289" lon="5.19134">
        <ele>707.7</ele>
        <time>2024-07-01T08:36:59Z</time>
      </trkpt>
      <trkpt lat="44.85289" lon="5.19133">
        <ele>707.6</ele>
        <time>2024-07-01T08:37:00Z</time>
      </trkpt>
      <trkpt lat="44.8529" lon="5.19132">
        <ele>707.6</ele>
        <time>2024-07-01T08:37:01Z</time>
      </trkpt>
      <trkpt lat="44.8529" lon="5.19131">
        <ele>707.4</ele>
        <time>2024-07-01T08:37:02Z</time>
      </trkpt>
      <trkpt lat="44.85289" lon="5.19134">
        <ele>707.1</ele>
        <time>2024-07-01T08:37:03Z</time>
      </trkpt>
      <trkpt lat="44.85289" lon="5.19133">
        <ele>707</ele>
        <time>2024-07-01T08:37:04Z</time>
      </trkpt>
      <trkpt lat="44.85289" lon="5.19133">
        <ele>707</ele>
        <time>2024-07-01T08:37:05Z</time>
      </trkpt>
      <trkpt lat="44.8529" lon="5.19132">
        <ele>706.9</ele>
        <time>2024-07-01T08:37:06Z</time>
      </trkpt>
      <trkpt lat="44.8529" lon="5.19132">
        <ele>706.9</ele>
        <time>2024-07-01T08:37:07Z</time>
      </trkpt>
      <trkpt lat="44.8529" lon="5.19132">
        <ele>706.9</ele>
        <time>2024-07-01T08:37:08Z</time>
      </trkpt>
      <trkpt lat="44.8529" lon="5.19132">
        <ele>706.8</ele>
        <time>2024-07-01T08:37:09Z</time>
      </trkpt>
      <trkpt lat="44.8529" lon="5.19132">
        <ele>706.8</ele>
        <time>2024-07-01T08:37:10Z</time>
      </trkpt>
      <trkpt lat="44.8529" lon="5.19132">
        <ele>706.8</ele>
        <time>2024-07-01T08:37:11Z</time>
      </trkpt>
      <trkpt lat="44.8529" lon="5.19131">
        <ele>706.7</ele>
        <time>2024-07-01T08:37:12Z</time>
      </trkpt>
      <trkpt lat="44.8529" lon="5.19131">
        <ele>706.7</ele>
        <time>2024-07-01T08:37:13Z</time>
      </trkpt>
      <trkpt lat="44.8529" lon="5.19131">
        <ele>706.7</ele>
        <time>2024-07-01T08:37:14Z</time>
      </trkpt>
      <trkpt lat="44.85291" lon="5.19131">
        <ele>706.6</ele>
        <time>2024-07-01T08:37:15Z</time>
      </trkpt>
      <trkpt lat="44.85291" lon="5.1913">
        <ele>706.5</ele>
        <time>2024-07-01T08:37:16Z</time>
      </trkpt>
      <trkpt lat="44.85292" lon="5.19129">
        <ele>706.3</ele>
        <time>2024-07-01T08:37:18Z</time>
      </trkpt>
      <trkpt lat="44.85293" lon="5.19127">
        <ele>705.9</ele>
        <time>2024-07-01T08:37:19Z</time>
      </trkpt>
      <trkpt lat="44.85296" lon="5.19124">
        <ele>705.3</ele>
        <time>2024-07-01T08:37:20Z</time>
      </trkpt>
      <trkpt lat="44.85297" lon="5.19122">
        <ele>704.8</ele>
        <time>2024-07-01T08:37:22Z</time>
      </trkpt>
      <trkpt lat="44.85297" lon="5.19121">
        <ele>704.7</ele>
        <time>2024-07-01T08:37:23Z</time>
      </trkpt>
      <trkpt lat="44.85298" lon="5.1912">
        <ele>704.4</ele>
        <time>2024-07-01T08:37:24Z</time>
      </trkpt>
      <trkpt lat="44.85299" lon="5.19118">
        <ele>704.2</ele>
        <time>2024-07-01T08:37:25Z</time>
      </trkpt>
      <trkpt lat="44.853" lon="5.19118">
        <ele>704</ele>
        <time>2024-07-01T08:37:26Z</time>
      </trkpt>
      <trkpt lat="44.853" lon="5.19116">
        <ele>703.6</ele>
        <time>2024-07-01T08:37:27Z</time>
      </trkpt>
      <trkpt lat="44.85301" lon="5.19115">
        <ele>703.5</ele>
        <time>2024-07-01T08:37:28Z</time>
      </trkpt>
      <trkpt lat="44.85301" lon="5.19114">
        <ele>703.4</ele>
        <time>2024-07-01T08:37:29Z</time>
      </trkpt>
      <trkpt lat="44.853" lon="5.19114">
        <ele>703.3</ele>
        <time>2024-07-01T08:37:30Z</time>
      </trkpt>
      <trkpt lat="44.853" lon="5.19115">
        <ele>703.3</ele>
        <time>2024-07-01T08:37:31Z</time>
      </trkpt>
      <trkpt lat="44.853" lon="5.19114">
        <ele>703.2</ele>
        <time>2024-07-01T08:37:32Z</time>
      </trkpt>
      <trkpt lat="44.853" lon="5.19114">
        <ele>703.1</ele>
        <time>2024-07-01T08:37:33Z</time>
      </trkpt>
      <trkpt lat="44.85301" lon="5.19113">
        <ele>703</ele>
        <time>2024-07-01T08:37:34Z</time>
      </trkpt>
      <trkpt lat="44.85301" lon="5.19113">
        <ele>702.9</ele>
        <time>2024-07-01T08:37:35Z</time>
      </trkpt>
      <trkpt lat="44.85301" lon="5.19112">
        <ele>702.8</ele>
        <time>2024-07-01T08:37:36Z</time>
      </trkpt>
      <trkpt lat="44.85302" lon="5.19111">
        <ele>702.5</ele>
        <time>2024-07-01T08:37:37Z</time>
      </trkpt>
      <trkpt lat="44.85302" lon="5.1911">
        <ele>702.2</ele>
        <time>2024-07-01T08:37:38Z</time>
      </trkpt>
      <trkpt lat="44.85305" lon="5.19107">
        <ele>701.5</ele>
        <time>2024-07-01T08:37:39Z</time>
      </trkpt>
      <trkpt lat="44.85305" lon="5.19106">
        <ele>701.3</ele>
        <time>2024-07-01T08:37:40Z</time>
      </trkpt>
      <trkpt lat="44.85307" lon="5.19105">
        <ele>700.9</ele>
        <time>2024-07-01T08:37:41Z</time>
      </trkpt>
      <trkpt lat="44.85308" lon="5.19104">
        <ele>700.4</ele>
        <time>2024-07-01T08:37:42Z</time>
      </trkpt>
      <trkpt lat="44.85309" lon="5.19103">
        <ele>700.2</ele>
        <time>2024-07-01T08:37:43Z</time>
      </trkpt>
      <trkpt lat="44.85309" lon="5.19102">
        <ele>699.9</ele>
        <time>2024-07-01T08:37:44Z</time>
      </trkpt>
      <trkpt lat="44.8531" lon="5.19101">
        <ele>699.7</ele>
        <time>2024-07-01T08:37:45Z</time>
      </trkpt>
      <trkpt lat="44.8531" lon="5.191">
        <ele>699.5</ele>
        <time>2024-07-01T08:37:46Z</time>
      </trkpt>
      <trkpt lat="44.85311" lon="5.19099">
        <ele>699.4</ele>
        <time>2024-07-01T08:37:47Z</time>
      </trkpt>
      <trkpt lat="44.8531" lon="5.19098">
        <ele>699.2</ele>
        <time>2024-07-01T08:37:48Z</time>
      </trkpt>
      <trkpt lat="44.8531" lon="5.19097">
        <ele>699</ele>
        <time>2024-07-01T08:37:49Z</time>
      </trkpt>
      <trkpt lat="44.85311" lon="5.19096">
        <ele>698.8</ele>
        <time>2024-07-01T08:37:50Z</time>
      </trkpt>
      <trkpt lat="44.8531" lon="5.19095">
        <ele>698.6</ele>
        <time>2024-07-01T08:37:51Z</time>
      </trkpt>
      <trkpt lat="44.85309" lon="5.19094">
        <ele>698.3</ele>
        <time>2024-07-01T08:37:52Z</time>
      </trkpt>
      <trkpt lat="44.85309" lon="5.19093">
        <ele>698.2</ele>
        <time>2024-07-01T08:37:53Z</time>
      </trkpt>
      <trkpt lat="44.85309" lon="5.19092">
        <ele>698</ele>
        <time>2024-07-01T08:37:54Z</time>
      </trkpt>
      <trkpt lat="44.85308" lon="5.19093">
        <ele>697.9</ele>
        <time>2024-07-01T08:37:55Z</time>
      </trkpt>
      <trkpt lat="44.85307" lon="5.19093">
        <ele>697.6</ele>
        <time>2024-07-01T08:37:56Z</time>
      </trkpt>
      <trkpt lat="44.85307" lon="5.19094">
        <ele>697.4</ele>
        <time>2024-07-01T08:37:57Z</time>
      </trkpt>
      <trkpt lat="44.85308" lon="5.19094">
        <ele>697.4</ele>
        <time>2024-07-01T08:37:58Z</time>
      </trkpt>
      <trkpt lat="44.85308" lon="5.19094">
        <ele>697.3</ele>
        <time>2024-07-01T08:37:59Z</time>
      </trkpt>
      <trkpt lat="44.85309" lon="5.19094">
        <ele>697</ele>
        <time>2024-07-01T08:38:01Z</time>
      </trkpt>
      <trkpt lat="44.85309" lon="5.19095">
        <ele>697</ele>
        <time>2024-07-01T08:38:02Z</time>
      </trkpt>
      <trkpt lat="44.85309" lon="5.19094">
        <ele>696.8</ele>
        <time>2024-07-01T08:38:03Z</time>
      </trkpt>
      <trkpt lat="44.85307" lon="5.19094">
        <ele>696.5</ele>
        <time>2024-07-01T08:38:04Z</time>
      </trkpt>
      <trkpt lat="44.85307" lon="5.19094">
        <ele>696.4</ele>
        <time>2024-07-01T08:38:05Z</time>
      </trkpt>
      <trkpt lat="44.85308" lon="5.19096">
        <ele>696.1</ele>
        <time>2024-07-01T08:38:06Z</time>
      </trkpt>
      <trkpt lat="44.85308" lon="5.19099">
        <ele>695.8</ele>
        <time>2024-07-01T08:38:07Z</time>
      </trkpt>
      <trkpt lat="44.85309" lon="5.191">
        <ele>695.5</ele>
        <time>2024-07-01T08:38:08Z</time>
      </trkpt>
      <trkpt lat="44.85311" lon="5.19101">
        <ele>695.1</ele>
        <time>2024-07-01T08:38:10Z</time>
      </trkpt>
      <trkpt lat="44.85312" lon="5.19102">
        <ele>694.9</ele>
        <time>2024-07-01T08:38:11Z</time>
      </trkpt>
      <trkpt lat="44.85313" lon="5.19103">
        <ele>694.7</ele>
        <time>2024-07-01T08:38:12Z</time>
      </trkpt>
      <trkpt lat="44.85313" lon="5.19104">
        <ele>694.6</ele>
        <time>2024-07-01T08:38:13Z</time>
      </trkpt>
      <trkpt lat="44.85313" lon="5.19105">
        <ele>694.4</ele>
        <time>2024-07-01T08:38:14Z</time>
      </trkpt>
      <trkpt lat="44.85313" lon="5.19107">
        <ele>694.2</ele>
        <time>2024-07-01T08:38:15Z</time>
      </trkpt>
      <trkpt lat="44.85312" lon="5.19108">
        <ele>694.1</ele>
        <time>2024-07-01T08:38:16Z</time>
      </trkpt>
      <trkpt lat="44.85312" lon="5.19108">
        <ele>693.9</ele>
        <time>2024-07-01T08:38:17Z</time>
      </trkpt>
      <trkpt lat="44.8531" lon="5.19109">
        <ele>693.6</ele>
        <time>2024-07-01T08:38:18Z</time>
      </trkpt>
      <trkpt lat="44.85309" lon="5.19109">
        <ele>693.4</ele>
        <time>2024-07-01T08:38:19Z</time>
      </trkpt>
      <trkpt lat="44.85308" lon="5.19109">
        <ele>693.3</ele>
        <time>2024-07-01T08:38:20Z</time>
      </trkpt>
      <trkpt lat="44.85307" lon="5.19109">
        <ele>693.1</ele>
        <time>2024-07-01T08:38:21Z</time>
      </trkpt>
      <trkpt lat="44.85306" lon="5.1911">
        <ele>692.8</ele>
        <time>2024-07-01T08:38:22Z</time>
      </trkpt>
      <trkpt lat="44.85305" lon="5.19112">
        <ele>692.4</ele>
        <time>2024-07-01T08:38:23Z</time>
      </trkpt>
      <trkpt lat="44.85304" lon="5.19112">
        <ele>692.3</ele>
        <time>2024-07-01T08:38:25Z</time>
      </trkpt>
      <trkpt lat="44.85303" lon="5.19111">
        <ele>692.1</ele>
        <time>2024-07-01T08:38:26Z</time>
      </trkpt>
      <trkpt lat="44.85303" lon="5.19111">
        <ele>692</ele>
        <time>2024-07-01T08:38:27Z</time>
      </trkpt>
      <trkpt lat="44.85302" lon="5.19111">
        <ele>691.9</ele>
        <time>2024-07-01T08:38:28Z</time>
      </trkpt>
      <trkpt lat="44.85301" lon="5.19111">
        <ele>691.7</ele>
        <time>2024-07-01T08:38:29Z</time>
      </trkpt>
      <trkpt lat="44.85301" lon="5.1911">
        <ele>691.5</ele>
        <time>2024-07-01T08:38:30Z</time>
      </trkpt>
      <trkpt lat="44.853" lon="5.1911">
        <ele>691.3</ele>
        <time>2024-07-01T08:38:31Z</time>
      </trkpt>
      <trkpt lat="44.85298" lon="5.1911">
        <ele>691</ele>
        <time>2024-07-01T08:38:32Z</time>
      </trkpt>
      <trkpt lat="44.85297" lon="5.1911">
        <ele>691</ele>
        <time>2024-07-01T08:38:34Z</time>
      </trkpt>
      <trkpt lat="44.85296" lon="5.19109">
        <ele>691</ele>
        <time>2024-07-01T08:38:35Z</time>
      </trkpt>
      <trkpt lat="44.85295" lon="5.19108">
        <ele>691</ele>
        <time>2024-07-01T08:38:36Z</time>
      </trkpt>
      <trkpt lat="44.85295" lon="5.19107">
        <ele>691</ele>
        <time>2024-07-01T08:38:37Z</time>
      </trkpt>
      <trkpt lat="44.85294" lon="5.19106">
        <ele>691</ele>
        <time>2024-07-01T08:38:38Z</time>
      </trkpt>
      <trkpt lat="44.85294" lon="5.19105">
        <ele>691</ele>
        <time>2024-07-01T08:38:39Z</time>
      </trkpt>
      <trkpt lat="44.85294" lon="5.19104">
        <ele>691</ele>
        <time>2024-07-01T08:38:40Z</time>
      </trkpt>
      <trkpt lat="44.85294" lon="5.19104">
        <ele>691</ele>
        <time>2024-07-01T08:38:41Z</time>
      </trkpt>
      <trkpt lat="44.85294" lon="5.19103">
        <ele>691</ele>
        <time>2024-07-01T08:38:42Z</time>
      </trkpt>
      <trkpt lat="44.85294" lon="5.19102">
        <ele>690.9</ele>
        <time>2024-07-01T08:38:43Z</time>
      </trkpt>
      <trkpt lat="44.85294" lon="5.19101">
        <ele>690.9</ele>
        <time>2024-07-01T08:38:44Z</time>
      </trkpt>
      <trkpt lat="44.85294" lon="5.191">
        <ele>690.9</ele>
        <time>2024-07-01T08:38:45Z</time>
      </trkpt>
      <trkpt lat="44.85295" lon="5.19099">
        <ele>690.8</ele>
        <time>2024-07-01T08:38:46Z</time>
      </trkpt>
      <trkpt lat="44.85293" lon="5.19098">
        <ele>690.7</ele>
        <time>2024-07-01T08:38:48Z</time>
      </trkpt>
      <trkpt lat="44.85292" lon="5.19098">
        <ele>690.7</ele>
        <time>2024-07-01T08:38:50Z</time>
      </trkpt>
      <trkpt lat="44.85291" lon="5.19098">
        <ele>690.6</ele>
        <time>2024-07-01T08:38:51Z</time>
      </trkpt>
      <trkpt lat="44.8529" lon="5.19098">
        <ele>690.5</ele>
        <time>2024-07-01T08:38:52Z</time>
      </trkpt>
      <trkpt lat="44.8529" lon="5.19098">
        <ele>690.5</ele>
        <time>2024-07-01T08:38:53Z</time>
      </trkpt>
      <trkpt lat="44.85289" lon="5.19098">
        <ele>690.4</ele>
        <time>2024-07-01T08:38:54Z</time>
      </trkpt>
      <trkpt lat="44.85289" lon="5.19098">
        <ele>690.4</ele>
        <time>2024-07-01T08:38:55Z</time>
      </trkpt>
      <trkpt lat="44.85288" lon="5.19098">
        <ele>690.3</ele>
        <time>2024-07-01T08:38:56Z</time>
      </trkpt>
      <trkpt lat="44.85287" lon="5.19097">
        <ele>690.2</ele>
        <time>2024-07-01T08:38:57Z</time>
      </trkpt>
      <trkpt lat="44.85286" lon="5.19097">
        <ele>690.1</ele>
        <time>2024-07-01T08:38:58Z</time>
      </trkpt>
      <trkpt lat="44.85286" lon="5.19095">
        <ele>690</ele>
        <time>2024-07-01T08:38:59Z</time>
      </trkpt>
      <trkpt lat="44.85285" lon="5.19094">
        <ele>689.9</ele>
        <time>2024-07-01T08:39:00Z</time>
      </trkpt>
      <trkpt lat="44.85284" lon="5.19091">
        <ele>689.7</ele>
        <time>2024-07-01T08:39:01Z</time>
      </trkpt>
      <trkpt lat="44.85283" lon="5.1909">
        <ele>689.6</ele>
        <time>2024-07-01T08:39:03Z</time>
      </trkpt>
      <trkpt lat="44.85283" lon="5.1909">
        <ele>689.5</ele>
        <time>2024-07-01T08:39:04Z</time>
      </trkpt>
      <trkpt lat="44.85283" lon="5.19088">
        <ele>689.4</ele>
        <time>2024-07-01T08:39:05Z</time>
      </trkpt>
      <trkpt lat="44.85283" lon="5.19088">
        <ele>689.3</ele>
        <time>2024-07-01T08:39:06Z</time>
      </trkpt>
      <trkpt lat="44.85283" lon="5.19086">
        <ele>689.2</ele>
        <time>2024-07-01T08:39:07Z</time>
      </trkpt>
      <trkpt lat="44.85283" lon="5.19085">
        <ele>689.2</ele>
        <time>2024-07-01T08:39:08Z</time>
      </trkpt>
      <trkpt lat="44.85284" lon="5.19083">
        <ele>689</ele>
        <time>2024-07-01T08:39:09Z</time>
      </trkpt>
      <trkpt lat="44.85285" lon="5.19083">
        <ele>689</ele>
        <time>2024-07-01T08:39:11Z</time>
      </trkpt>
      <trkpt lat="44.85285" lon="5.19082">
        <ele>688.9</ele>
        <time>2024-07-01T08:39:12Z</time>
      </trkpt>
      <trkpt lat="44.85286" lon="5.19081">
        <ele>688.9</ele>
        <time>2024-07-01T08:39:13Z</time>
      </trkpt>
      <trkpt lat="44.85286" lon="5.19081">
        <ele>688.8</ele>
        <time>2024-07-01T08:39:14Z</time>
      </trkpt>
      <trkpt lat="44.85287" lon="5.1908">
        <ele>688.8</ele>
        <time>2024-07-01T08:39:15Z</time>
      </trkpt>
      <trkpt lat="44.85286" lon="5.1908">
        <ele>688.8</ele>
        <time>2024-07-01T08:39:16Z</time>
      </trkpt>
      <trkpt lat="44.85286" lon="5.19079">
        <ele>688.8</ele>
        <time>2024-07-01T08:39:17Z</time>
      </trkpt>
      <trkpt lat="44.85286" lon="5.19077">
        <ele>688.6</ele>
        <time>2024-07-01T08:39:18Z</time>
      </trkpt>
      <trkpt lat="44.85286" lon="5.19076">
        <ele>688.6</ele>
        <time>2024-07-01T08:39:20Z</time>
      </trkpt>
      <trkpt lat="44.85287" lon="5.19075">
        <ele>688.5</ele>
        <time>2024-07-01T08:39:21Z</time>
      </trkpt>
      <trkpt lat="44.85287" lon="5.19073">
        <ele>688.5</ele>
        <time>2024-07-01T08:39:22Z</time>
      </trkpt>
      <trkpt lat="44.85287" lon="5.19072">
        <ele>688.4</ele>
        <time>2024-07-01T08:39:23Z</time>
      </trkpt>
      <trkpt lat="44.85289" lon="5.1907">
        <ele>688.3</ele>
        <time>2024-07-01T08:39:24Z</time>
      </trkpt>
      <trkpt lat="44.8529" lon="5.1907">
        <ele>688.2</ele>
        <time>2024-07-01T08:39:26Z</time>
      </trkpt>
      <trkpt lat="44.85291" lon="5.1907">
        <ele>688.2</ele>
        <time>2024-07-01T08:39:27Z</time>
      </trkpt>
      <trkpt lat="44.85292" lon="5.1907">
        <ele>688.2</ele>
        <time>2024-07-01T08:39:28Z</time>
      </trkpt>
      <trkpt lat="44.85292" lon="5.19071">
        <ele>688.1</ele>
        <time>2024-07-01T08:39:29Z</time>
      </trkpt>
      <trkpt lat="44.85292" lon="5.19071">
        <ele>688.1</ele>
        <time>2024-07-01T08:39:30Z</time>
      </trkpt>
      <trkpt lat="44.85292" lon="5.19072">
        <ele>688.1</ele>
        <time>2024-07-01T08:39:31Z</time>
      </trkpt>
      <trkpt lat="44.85292" lon="5.19072">
        <ele>688.1</ele>
        <time>2024-07-01T08:39:32Z</time>
      </trkpt>
      <trkpt lat="44.85292" lon="5.19072">
        <ele>688.1</ele>
        <time>2024-07-01T08:39:33Z</time>
      </trkpt>
      <trkpt lat="44.85292" lon="5.19072">
        <ele>688.1</ele>
        <time>2024-07-01T08:39:34Z</time>
      </trkpt>
      <trkpt lat="44.85292" lon="5.19072">
        <ele>688.1</ele>
        <time>2024-07-01T08:39:35Z</time>
      </trkpt>
      <trkpt lat="44.85292" lon="5.19072">
        <ele>688.1</ele>
        <time>2024-07-01T08:39:36Z</time>
      </trkpt>
      <trkpt lat="44.85292" lon="5.19072">
        <ele>688.1</ele>
        <time>2024-07-01T08:39:37Z</time>
      </trkpt>
      <trkpt lat="44.85292" lon="5.19072">
        <ele>688.1</ele>
        <time>2024-07-01T08:39:38Z</time>
      </trkpt>
      <trkpt lat="44.85292" lon="5.19072">
        <ele>688.1</ele>
        <time>2024-07-01T08:39:39Z</time>
      </trkpt>
      <trkpt lat="44.85292" lon="5.19072">
        <ele>688.1</ele>
        <time>2024-07-01T08:39:40Z</time>
      </trkpt>
      <trkpt lat="44.85292" lon="5.19072">
        <ele>688.1</ele>
        <time>2024-07-01T08:39:41Z</time>
      </trkpt>
      <trkpt lat="44.85293" lon="5.19072">
        <ele>688</ele>
        <time>2024-07-01T08:39:42Z</time>
      </trkpt>
      <trkpt lat="44.85293" lon="5.19072">
        <ele>688</ele>
        <time>2024-07-01T08:39:43Z</time>
      </trkpt>
      <trkpt lat="44.85293" lon="5.19072">
        <ele>688</ele>
        <time>2024-07-01T08:39:44Z</time>
      </trkpt>
      <trkpt lat="44.85293" lon="5.19072">
        <ele>688</ele>
        <time>2024-07-01T08:39:45Z</time>
      </trkpt>
      <trkpt lat="44.85293" lon="5.19072">
        <ele>688</ele>
        <time>2024-07-01T08:39:46Z</time>
      </trkpt>
      <trkpt lat="44.85293" lon="5.19072">
        <ele>688</ele>
        <time>2024-07-01T08:39:47Z</time>
      </trkpt>
      <trkpt lat="44.85293" lon="5.19072">
        <ele>688</ele>
        <time>2024-07-01T08:39:48Z</time>
      </trkpt>
      <trkpt lat="44.85294" lon="5.19072">
        <ele>688</ele>
        <time>2024-07-01T08:39:49Z</time>
      </trkpt>
      <trkpt lat="44.85295" lon="5.19072">
        <ele>688</ele>
        <time>2024-07-01T08:39:50Z</time>
      </trkpt>
      <trkpt lat="44.85295" lon="5.19073">
        <ele>687.9</ele>
        <time>2024-07-01T08:39:51Z</time>
      </trkpt>
      <trkpt lat="44.85295" lon="5.19072">
        <ele>687.9</ele>
        <time>2024-07-01T08:39:52Z</time>
      </trkpt>
      <trkpt lat="44.85296" lon="5.19072">
        <ele>687.9</ele>
        <time>2024-07-01T08:39:53Z</time>
      </trkpt>
      <trkpt lat="44.85296" lon="5.19072">
        <ele>687.9</ele>
        <time>2024-07-01T08:39:54Z</time>
      </trkpt>
      <trkpt lat="44.85296" lon="5.19072">
        <ele>687.9</ele>
        <time>2024-07-01T08:39:55Z</time>
      </trkpt>
      <trkpt lat="44.85296" lon="5.19072">
        <ele>687.9</ele>
        <time>2024-07-01T08:39:56Z</time>
      </trkpt>
      <trkpt lat="44.85296" lon="5.19072">
        <ele>687.9</ele>
        <time>2024-07-01T08:39:57Z</time>
      </trkpt>
      <trkpt lat="44.85296" lon="5.19072">
        <ele>687.9</ele>
        <time>2024-07-01T08:39:58Z</time>
      </trkpt>
      <trkpt lat="44.85296" lon="5.19073">
        <ele>687.9</ele>
        <time>2024-07-01T08:39:59Z</time>
      </trkpt>
      <trkpt lat="44.85297" lon="5.19074">
        <ele>687.9</ele>
        <time>2024-07-01T08:40:00Z</time>
      </trkpt>
      <trkpt lat="44.85298" lon="5.19074">
        <ele>687.8</ele>
        <time>2024-07-01T08:40:01Z</time>
      </trkpt>
      <trkpt lat="44.85298" lon="5.19073">
        <ele>687.8</ele>
        <time>2024-07-01T08:40:02Z</time>
      </trkpt>
      <trkpt lat="44.85298" lon="5.19071">
        <ele>687.8</ele>
        <time>2024-07-01T08:40:03Z</time>
      </trkpt>
      <trkpt lat="44.85298" lon="5.19071">
        <ele>687.8</ele>
        <time>2024-07-01T08:40:04Z</time>
      </trkpt>
      <trkpt lat="44.85298" lon="5.1907">
        <ele>687.8</ele>
        <time>2024-07-01T08:40:05Z</time>
      </trkpt>
      <trkpt lat="44.85299" lon="5.1907">
        <ele>687.8</ele>
        <time>2024-07-01T08:40:06Z</time>
      </trkpt>
      <trkpt lat="44.85299" lon="5.19069">
        <ele>687.8</ele>
        <time>2024-07-01T08:40:08Z</time>
      </trkpt>
      <trkpt lat="44.85299" lon="5.19069">
        <ele>687.8</ele>
        <time>2024-07-01T08:40:09Z</time>
      </trkpt>
      <trkpt lat="44.85299" lon="5.19069">
        <ele>687.8</ele>
        <time>2024-07-01T08:40:10Z</time>
      </trkpt>
      <trkpt lat="44.85299" lon="5.19068">
        <ele>687.8</ele>
        <time>2024-07-01T08:40:11Z</time>
      </trkpt>
      <trkpt lat="44.85298" lon="5.19068">
        <ele>687.8</ele>
        <time>2024-07-01T08:40:12Z</time>
      </trkpt>
      <trkpt lat="44.85298" lon="5.19068">
        <ele>687.8</ele>
        <time>2024-07-01T08:40:13Z</time>
      </trkpt>
      <trkpt lat="44.85298" lon="5.19068">
        <ele>687.8</ele>
        <time>2024-07-01T08:40:15Z</time>
      </trkpt>
      <trkpt lat="44.85298" lon="5.19068">
        <ele>687.8</ele>
        <time>2024-07-01T08:40:16Z</time>
      </trkpt>
      <trkpt lat="44.85298" lon="5.19068">
        <ele>687.8</ele>
        <time>2024-07-01T08:40:17Z</time>
      </trkpt>
      <trkpt lat="44.85298" lon="5.19067">
        <ele>687.8</ele>
        <time>2024-07-01T08:40:18Z</time>
      </trkpt>
      <trkpt lat="44.85298" lon="5.19067">
        <ele>687.8</ele>
        <time>2024-07-01T08:40:19Z</time>
      </trkpt>
      <trkpt lat="44.85298" lon="5.19067">
        <ele>687.8</ele>
        <time>2024-07-01T08:40:20Z</time>
      </trkpt>
      <trkpt lat="44.85298" lon="5.19067">
        <ele>687.8</ele>
        <time>2024-07-01T08:40:21Z</time>
      </trkpt>
      <trkpt lat="44.85298" lon="5.19068">
        <ele>687.8</ele>
        <time>2024-07-01T08:40:23Z</time>
      </trkpt>
      <trkpt lat="44.85298" lon="5.19068">
        <ele>687.8</ele>
        <time>2024-07-01T08:40:24Z</time>
      </trkpt>
      <trkpt lat="44.85298" lon="5.19068">
        <ele>687.8</ele>
        <time>2024-07-01T08:40:25Z</time>
      </trkpt>
      <trkpt lat="44.85299" lon="5.19068">
        <ele>687.8</ele>
        <time>2024-07-01T08:40:26Z</time>
      </trkpt>
      <trkpt lat="44.85299" lon="5.19068">
        <ele>687.8</ele>
        <time>2024-07-01T08:40:27Z</time>
      </trkpt>
      <trkpt lat="44.85299" lon="5.19068">
        <ele>687.8</ele>
        <time>2024-07-01T08:40:28Z</time>
      </trkpt>
      <trkpt lat="44.85299" lon="5.19068">
        <ele>687.8</ele>
        <time>2024-07-01T08:40:29Z</time>
      </trkpt>
      <trkpt lat="44.853" lon="5.19067">
        <ele>687.8</ele>
        <time>2024-07-01T08:40:30Z</time>
      </trkpt>
      <trkpt lat="44.853" lon="5.19067">
        <ele>687.8</ele>
        <time>2024-07-01T08:40:31Z</time>
      </trkpt>
      <trkpt lat="44.853" lon="5.19067">
        <ele>687.8</ele>
        <time>2024-07-01T08:40:32Z</time>
      </trkpt>
      <trkpt lat="44.85301" lon="5.19067">
        <ele>687.8</ele>
        <time>2024-07-01T08:40:33Z</time>
      </trkpt>
      <trkpt lat="44.85301" lon="5.19067">
        <ele>687.8</ele>
        <time>2024-07-01T08:40:34Z</time>
      </trkpt>
      <trkpt lat="44.85301" lon="5.19068">
        <ele>687.8</ele>
        <time>2024-07-01T08:40:35Z</time>
      </trkpt>
      <trkpt lat="44.85302" lon="5.19068">
        <ele>687.8</ele>
        <time>2024-07-01T08:40:36Z</time>
      </trkpt>
      <trkpt lat="44.85303" lon="5.1907">
        <ele>687.8</ele>
        <time>2024-07-01T08:40:37Z</time>
      </trkpt>
      <trkpt lat="44.85306" lon="5.19073">
        <ele>687.9</ele>
        <time>2024-07-01T08:40:38Z</time>
      </trkpt>
      <trkpt lat="44.85307" lon="5.19074">
        <ele>687.9</ele>
        <time>2024-07-01T08:40:39Z</time>
      </trkpt>
      <trkpt lat="44.85308" lon="5.19077">
        <ele>688</ele>
        <time>2024-07-01T08:40:40Z</time>
      </trkpt>
      <trkpt lat="44.85309" lon="5.19079">
        <ele>688.1</ele>
        <time>2024-07-01T08:40:42Z</time>
      </trkpt>
      <trkpt lat="44.8531" lon="5.19081">
        <ele>688.2</ele>
        <time>2024-07-01T08:40:43Z</time>
      </trkpt>
      <trkpt lat="44.8531" lon="5.19083">
        <ele>688.2</ele>
        <time>2024-07-01T08:40:44Z</time>
      </trkpt>
      <trkpt lat="44.85311" lon="5.19084">
        <ele>688.3</ele>
        <time>2024-07-01T08:40:45Z</time>
      </trkpt>
      <trkpt lat="44.85311" lon="5.19085">
        <ele>688.3</ele>
        <time>2024-07-01T08:40:46Z</time>
      </trkpt>
      <trkpt lat="44.85312" lon="5.19086">
        <ele>688.4</ele>
        <time>2024-07-01T08:40:47Z</time>
      </trkpt>
      <trkpt lat="44.85312" lon="5.19086">
        <ele>688.4</ele>
        <time>2024-07-01T08:40:48Z</time>
      </trkpt>
      <trkpt lat="44.85313" lon="5.19085">
        <ele>688.4</ele>
        <time>2024-07-01T08:40:49Z</time>
      </trkpt>
      <trkpt lat="44.85314" lon="5.19085">
        <ele>688.5</ele>
        <time>2024-07-01T08:40:50Z</time>
      </trkpt>
      <trkpt lat="44.85315" lon="5.19084">
        <ele>688.5</ele>
        <time>2024-07-01T08:40:51Z</time>
      </trkpt>
      <trkpt lat="44.85315" lon="5.19083">
        <ele>688.6</ele>
        <time>2024-07-01T08:40:52Z</time>
      </trkpt>
      <trkpt lat="44.85315" lon="5.19083">
        <ele>688.6</ele>
        <time>2024-07-01T08:40:53Z</time>
      </trkpt>
      <trkpt lat="44.85315" lon="5.19081">
        <ele>688.6</ele>
        <time>2024-07-01T08:40:54Z</time>
      </trkpt>
      <trkpt lat="44.85315" lon="5.19079">
        <ele>688.7</ele>
        <time>2024-07-01T08:40:56Z</time>
      </trkpt>
      <trkpt lat="44.85315" lon="5.19075">
        <ele>688.8</ele>
        <time>2024-07-01T08:40:57Z</time>
      </trkpt>
      <trkpt lat="44.85315" lon="5.19075">
        <ele>688.9</ele>
        <time>2024-07-01T08:40:58Z</time>
      </trkpt>
      <trkpt lat="44.85315" lon="5.19074">
        <ele>688.9</ele>
        <time>2024-07-01T08:40:59Z</time>
      </trkpt>
      <trkpt lat="44.85315" lon="5.19073">
        <ele>688.9</ele>
        <time>2024-07-01T08:41:00Z</time>
      </trkpt>
      <trkpt lat="44.85315" lon="5.19073">
        <ele>688.9</ele>
        <time>2024-07-01T08:41:01Z</time>
      </trkpt>
      <trkpt lat="44.85315" lon="5.19071">
        <ele>689</ele>
        <time>2024-07-01T08:41:02Z</time>
      </trkpt>
      <trkpt lat="44.85315" lon="5.19071">
        <ele>689</ele>
        <time>2024-07-01T08:41:03Z</time>
      </trkpt>
      <trkpt lat="44.85315" lon="5.1907">
        <ele>689</ele>
        <time>2024-07-01T08:41:04Z</time>
      </trkpt>
      <trkpt lat="44.85314" lon="5.1907">
        <ele>689.1</ele>
        <time>2024-07-01T08:41:06Z</time>
      </trkpt>
      <trkpt lat="44.85314" lon="5.19069">
        <ele>689.1</ele>
        <time>2024-07-01T08:41:07Z</time>
      </trkpt>
      <trkpt lat="44.85313" lon="5.19069">
        <ele>689.1</ele>
        <time>2024-07-01T08:41:08Z</time>
      </trkpt>
      <trkpt lat="44.85313" lon="5.19069">
        <ele>689.1</ele>
        <time>2024-07-01T08:41:10Z</time>
      </trkpt>
      <trkpt lat="44.85313" lon="5.19069">
        <ele>689.1</ele>
        <time>2024-07-01T08:41:11Z</time>
      </trkpt>
      <trkpt lat="44.85313" lon="5.19069">
        <ele>689.1</ele>
        <time>2024-07-01T08:41:12Z</time>
      </trkpt>
      <trkpt lat="44.85311" lon="5.19066">
        <ele>689.3</ele>
        <time>2024-07-01T08:41:13Z</time>
      </trkpt>
      <trkpt lat="44.85311" lon="5.19064">
        <ele>689.3</ele>
        <time>2024-07-01T08:41:14Z</time>
      </trkpt>
      <trkpt lat="44.8531" lon="5.19064">
        <ele>689.3</ele>
        <time>2024-07-01T08:41:15Z</time>
      </trkpt>
      <trkpt lat="44.8531" lon="5.19064">
        <ele>689.3</ele>
        <time>2024-07-01T08:41:16Z</time>
      </trkpt>
      <trkpt lat="44.8531" lon="5.19064">
        <ele>689.3</ele>
        <time>2024-07-01T08:41:17Z</time>
      </trkpt>
      <trkpt lat="44.8531" lon="5.19064">
        <ele>689.3</ele>
        <time>2024-07-01T08:41:18Z</time>
      </trkpt>
      <trkpt lat="44.8531" lon="5.19064">
        <ele>689.3</ele>
        <time>2024-07-01T08:41:19Z</time>
      </trkpt>
      <trkpt lat="44.8531" lon="5.19064">
        <ele>689.3</ele>
        <time>2024-07-01T08:41:20Z</time>
      </trkpt>
      <trkpt lat="44.8531" lon="5.19064">
        <ele>689.3</ele>
        <time>2024-07-01T08:41:21Z</time>
      </trkpt>
      <trkpt lat="44.8531" lon="5.19064">
        <ele>689.3</ele>
        <time>2024-07-01T08:41:22Z</time>
      </trkpt>
      <trkpt lat="44.8531" lon="5.19064">
        <ele>689.3</ele>
        <time>2024-07-01T08:41:23Z</time>
      </trkpt>
      <trkpt lat="44.8531" lon="5.19064">
        <ele>689.3</ele>
        <time>2024-07-01T08:41:24Z</time>
      </trkpt>
      <trkpt lat="44.8531" lon="5.19064">
        <ele>689.3</ele>
        <time>2024-07-01T08:41:25Z</time>
      </trkpt>
      <trkpt lat="44.8531" lon="5.19064">
        <ele>689.3</ele>
        <time>2024-07-01T08:41:26Z</time>
      </trkpt>
      <trkpt lat="44.8531" lon="5.19064">
        <ele>689.3</ele>
        <time>2024-07-01T08:41:27Z</time>
      </trkpt>
      <trkpt lat="44.8531" lon="5.19064">
        <ele>689.3</ele>
        <time>2024-07-01T08:41:28Z</time>
      </trkpt>
      <trkpt lat="44.8531" lon="5.19064">
        <ele>689.3</ele>
        <time>2024-07-01T08:41:29Z</time>
      </trkpt>
      <trkpt lat="44.8531" lon="5.19064">
        <ele>689.3</ele>
        <time>2024-07-01T08:41:30Z</time>
      </trkpt>
      <trkpt lat="44.8531" lon="5.19064">
        <ele>689.4</ele>
        <time>2024-07-01T08:41:31Z</time>
      </trkpt>
      <trkpt lat="44.85311" lon="5.19064">
        <ele>689.4</ele>
        <time>2024-07-01T08:41:32Z</time>
      </trkpt>
      <trkpt lat="44.85311" lon="5.19064">
        <ele>689.4</ele>
        <time>2024-07-01T08:41:33Z</time>
      </trkpt>
      <trkpt lat="44.85311" lon="5.19064">
        <ele>689.4</ele>
        <time>2024-07-01T08:41:34Z</time>
      </trkpt>
      <trkpt lat="44.85311" lon="5.19064">
        <ele>689.4</ele>
        <time>2024-07-01T08:41:35Z</time>
      </trkpt>
      <trkpt lat="44.85311" lon="5.19064">
        <ele>689.4</ele>
        <time>2024-07-01T08:41:36Z</time>
      </trkpt>
      <trkpt lat="44.85311" lon="5.19064">
        <ele>689.4</ele>
        <time>2024-07-01T08:41:37Z</time>
      </trkpt>
      <trkpt lat="44.85311" lon="5.19064">
        <ele>689.4</ele>
        <time>2024-07-01T08:41:38Z</time>
      </trkpt>
      <trkpt lat="44.85311" lon="5.19064">
        <ele>689.4</ele>
        <time>2024-07-01T08:41:39Z</time>
      </trkpt>
      <trkpt lat="44.85311" lon="5.19064">
        <ele>689.4</ele>
        <time>2024-07-01T08:41:40Z</time>
      </trkpt>
      <trkpt lat="44.85311" lon="5.19064">
        <ele>689.4</ele>
        <time>2024-07-01T08:41:41Z</time>
      </trkpt>
      <trkpt lat="44.85311" lon="5.19064">
        <ele>689.4</ele>
        <time>2024-07-01T08:41:42Z</time>
      </trkpt>
      <trkpt lat="44.85311" lon="5.19064">
        <ele>689.4</ele>
        <time>2024-07-01T08:41:43Z</time>
      </trkpt>
      <trkpt lat="44.85311" lon="5.19064">
        <ele>689.4</ele>
        <time>2024-07-01T08:41:44Z</time>
      </trkpt>
      <trkpt lat="44.85311" lon="5.19064">
        <ele>689.4</ele>
        <time>2024-07-01T08:41:45Z</time>
      </trkpt>
      <trkpt lat="44.85311" lon="5.19064">
        <ele>689.4</ele>
        <time>2024-07-01T08:41:46Z</time>
      </trkpt>
      <trkpt lat="44.85311" lon="5.19064">
        <ele>689.4</ele>
        <time>2024-07-01T08:41:47Z</time>
      </trkpt>
      <trkpt lat="44.85311" lon="5.19064">
        <ele>689.4</ele>
        <time>2024-07-01T08:41:48Z</time>
      </trkpt>
      <trkpt lat="44.85311" lon="5.19064">
        <ele>689.4</ele>
        <time>2024-07-01T08:41:49Z</time>
      </trkpt>
      <trkpt lat="44.85311" lon="5.19064">
        <ele>689.4</ele>
        <time>2024-07-01T08:41:50Z</time>
      </trkpt>
      <trkpt lat="44.85311" lon="5.19064">
        <ele>689.4</ele>
        <time>2024-07-01T08:41:51Z</time>
      </trkpt>
      <trkpt lat="44.85311" lon="5.19064">
        <ele>689.4</ele>
        <time>2024-07-01T08:41:52Z</time>
      </trkpt>
      <trkpt lat="44.85311" lon="5.19064">
        <ele>689.4</ele>
        <time>2024-07-01T08:41:53Z</time>
      </trkpt>
      <trkpt lat="44.85311" lon="5.19064">
        <ele>689.4</ele>
        <time>2024-07-01T08:41:54Z</time>
      </trkpt>
      <trkpt lat="44.85311" lon="5.19064">
        <ele>689.4</ele>
        <time>2024-07-01T08:41:55Z</time>
      </trkpt>
      <trkpt lat="44.85311" lon="5.19064">
        <ele>689.4</ele>
        <time>2024-07-01T08:41:56Z</time>
      </trkpt>
      <trkpt lat="44.85311" lon="5.19064">
        <ele>689.4</ele>
        <time>2024-07-01T08:41:57Z</time>
      </trkpt>
      <trkpt lat="44.85311" lon="5.19064">
        <ele>689.4</ele>
        <time>2024-07-01T08:41:58Z</time>
      </trkpt>
      <trkpt lat="44.85311" lon="5.19064">
        <ele>689.4</ele>
        <time>2024-07-01T08:41:59Z</time>
      </trkpt>
      <trkpt lat="44.85311" lon="5.19064">
        <ele>689.4</ele>
        <time>2024-07-01T08:42:00Z</time>
      </trkpt>
      <trkpt lat="44.85311" lon="5.19064">
        <ele>689.4</ele>
        <time>2024-07-01T08:42:01Z</time>
      </trkpt>
      <trkpt lat="44.85311" lon="5.19064">
        <ele>689.4</ele>
        <time>2024-07-01T08:42:02Z</time>
      </trkpt>
      <trkpt lat="44.85311" lon="5.19064">
        <ele>689.4</ele>
        <time>2024-07-01T08:42:03Z</time>
      </trkpt>
      <trkpt lat="44.85311" lon="5.19064">
        <ele>689.4</ele>
        <time>2024-07-01T08:42:04Z</time>
      </trkpt>
      <trkpt lat="44.85311" lon="5.19064">
        <ele>689.4</ele>
        <time>2024-07-01T08:42:05Z</time>
      </trkpt>
      <trkpt lat="44.85311" lon="5.19064">
        <ele>689.4</ele>
        <time>2024-07-01T08:42:06Z</time>
      </trkpt>
      <trkpt lat="44.85311" lon="5.19064">
        <ele>689.4</ele>
        <time>2024-07-01T08:42:07Z</time>
      </trkpt>
      <trkpt lat="44.85311" lon="5.19064">
        <ele>689.4</ele>
        <time>2024-07-01T08:42:08Z</time>
      </trkpt>
      <trkpt lat="44.85311" lon="5.19064">
        <ele>689.4</ele>
        <time>2024-07-01T08:42:09Z</time>
      </trkpt>
      <trkpt lat="44.85311" lon="5.19064">
        <ele>689.4</ele>
        <time>2024-07-01T08:42:10Z</time>
      </trkpt>
      <trkpt lat="44.85311" lon="5.19064">
        <ele>689.4</ele>
        <time>2024-07-01T08:42:11Z</time>
      </trkpt>
      <trkpt lat="44.85311" lon="5.19064">
        <ele>689.4</ele>
        <time>2024-07-01T08:42:12Z</time>
      </trkpt>
      <trkpt lat="44.85311" lon="5.19064">
        <ele>689.4</ele>
        <time>2024-07-01T08:42:13Z</time>
      </trkpt>
      <trkpt lat="44.85311" lon="5.19064">
        <ele>689.4</ele>
        <time>2024-07-01T08:42:14Z</time>
      </trkpt>
      <trkpt lat="44.85311" lon="5.19064">
        <ele>689.4</ele>
        <time>2024-07-01T08:42:15Z</time>
      </trkpt>
      <trkpt lat="44.85311" lon="5.19064">
        <ele>689.4</ele>
        <time>2024-07-01T08:42:16Z</time>
      </trkpt>
      <trkpt lat="44.85311" lon="5.19064">
        <ele>689.4</ele>
        <time>2024-07-01T08:42:17Z</time>
      </trkpt>
      <trkpt lat="44.85311" lon="5.19064">
        <ele>689.4</ele>
        <time>2024-07-01T08:42:18Z</time>
      </trkpt>
      <trkpt lat="44.85311" lon="5.19064">
        <ele>689.4</ele>
        <time>2024-07-01T08:42:19Z</time>
      </trkpt>
      <trkpt lat="44.85311" lon="5.19064">
        <ele>689.4</ele>
        <time>2024-07-01T08:42:20Z</time>
      </trkpt>
      <trkpt lat="44.85312" lon="5.19064">
        <ele>689.4</ele>
        <time>2024-07-01T08:42:21Z</time>
      </trkpt>
      <trkpt lat="44.85312" lon="5.19064">
        <ele>689.4</ele>
        <time>2024-07-01T08:42:22Z</time>
      </trkpt>
      <trkpt lat="44.85312" lon="5.19064">
        <ele>689.4</ele>
        <time>2024-07-01T08:42:23Z</time>
      </trkpt>
      <trkpt lat="44.85312" lon="5.19064">
        <ele>689.4</ele>
        <time>2024-07-01T08:42:24Z</time>
      </trkpt>
      <trkpt lat="44.85312" lon="5.19064">
        <ele>689.4</ele>
        <time>2024-07-01T08:42:25Z</time>
      </trkpt>
      <trkpt lat="44.85312" lon="5.19064">
        <ele>689.4</ele>
        <time>2024-07-01T08:42:26Z</time>
      </trkpt>
      <trkpt lat="44.85312" lon="5.19064">
        <ele>689.4</ele>
        <time>2024-07-01T08:42:27Z</time>
      </trkpt>
      <trkpt lat="44.85312" lon="5.19064">
        <ele>689.4</ele>
        <time>2024-07-01T08:42:28Z</time>
      </trkpt>
      <trkpt lat="44.85312" lon="5.19064">
        <ele>689.4</ele>
        <time>2024-07-01T08:42:29Z</time>
      </trkpt>
      <trkpt lat="44.85312" lon="5.19064">
        <ele>689.4</ele>
        <time>2024-07-01T08:42:30Z</time>
      </trkpt>
      <trkpt lat="44.85312" lon="5.19064">
        <ele>689.4</ele>
        <time>2024-07-01T08:42:31Z</time>
      </trkpt>
      <trkpt lat="44.85312" lon="5.19064">
        <ele>689.4</ele>
        <time>2024-07-01T08:42:32Z</time>
      </trkpt>
      <trkpt lat="44.85312" lon="5.19064">
        <ele>689.4</ele>
        <time>2024-07-01T08:42:33Z</time>
      </trkpt>
      <trkpt lat="44.85312" lon="5.19064">
        <ele>689.4</ele>
        <time>2024-07-01T08:42:34Z</time>
      </trkpt>
      <trkpt lat="44.85312" lon="5.19064">
        <ele>689.4</ele>
        <time>2024-07-01T08:42:35Z</time>
      </trkpt>
      <trkpt lat="44.85312" lon="5.19064">
        <ele>689.4</ele>
        <time>2024-07-01T08:42:36Z</time>
      </trkpt>
      <trkpt lat="44.85312" lon="5.19064">
        <ele>689.4</ele>
        <time>2024-07-01T08:42:37Z</time>
      </trkpt>
      <trkpt lat="44.85312" lon="5.19064">
        <ele>689.4</ele>
        <time>2024-07-01T08:42:38Z</time>
      </trkpt>
      <trkpt lat="44.85312" lon="5.19064">
        <ele>689.4</ele>
        <time>2024-07-01T08:42:39Z</time>
      </trkpt>
      <trkpt lat="44.85312" lon="5.19064">
        <ele>689.4</ele>
        <time>2024-07-01T08:42:40Z</time>
      </trkpt>
      <trkpt lat="44.85312" lon="5.19064">
        <ele>689.4</ele>
        <time>2024-07-01T08:42:41Z</time>
      </trkpt>
      <trkpt lat="44.85312" lon="5.19064">
        <ele>689.4</ele>
        <time>2024-07-01T08:42:42Z</time>
      </trkpt>
      <trkpt lat="44.85312" lon="5.19064">
        <ele>689.4</ele>
        <time>2024-07-01T08:42:43Z</time>
      </trkpt>
      <trkpt lat="44.85312" lon="5.19064">
        <ele>689.4</ele>
        <time>2024-07-01T08:42:44Z</time>
      </trkpt>
      <trkpt lat="44.85312" lon="5.19064">
        <ele>689.4</ele>
        <time>2024-07-01T08:42:45Z</time>
      </trkpt>
      <trkpt lat="44.85312" lon="5.19064">
        <ele>689.4</ele>
        <time>2024-07-01T08:42:46Z</time>
      </trkpt>
      <trkpt lat="44.85312" lon="5.19064">
        <ele>689.4</ele>
        <time>2024-07-01T08:42:47Z</time>
      </trkpt>
      <trkpt lat="44.85312" lon="5.19064">
        <ele>689.4</ele>
        <time>2024-07-01T08:42:48Z</time>
      </trkpt>
      <trkpt lat="44.85312" lon="5.19064">
        <ele>689.4</ele>
        <time>2024-07-01T08:42:49Z</time>
      </trkpt>
      <trkpt lat="44.85312" lon="5.19064">
        <ele>689.4</ele>
        <time>2024-07-01T08:42:50Z</time>
      </trkpt>
      <trkpt lat="44.85312" lon="5.19064">
        <ele>689.4</ele>
        <time>2024-07-01T08:42:51Z</time>
      </trkpt>
      <trkpt lat="44.85312" lon="5.19064">
        <ele>689.4</ele>
        <time>2024-07-01T08:42:52Z</time>
      </trkpt>
      <trkpt lat="44.85312" lon="5.19064">
        <ele>689.4</ele>
        <time>2024-07-01T08:42:53Z</time>
      </trkpt>
      <trkpt lat="44.85312" lon="5.19064">
        <ele>689.4</ele>
        <time>2024-07-01T08:42:54Z</time>
      </trkpt>
      <trkpt lat="44.85312" lon="5.19064">
        <ele>689.4</ele>
        <time>2024-07-01T08:42:55Z</time>
      </trkpt>
      <trkpt lat="44.85312" lon="5.19064">
        <ele>689.4</ele>
        <time>2024-07-01T08:42:56Z</time>
      </trkpt>
      <trkpt lat="44.85312" lon="5.19064">
        <ele>689.4</ele>
        <time>2024-07-01T08:42:57Z</time>
      </trkpt>
      <trkpt lat="44.85312" lon="5.19064">
        <ele>689.4</ele>
        <time>2024-07-01T08:42:58Z</time>
      </trkpt>
      <trkpt lat="44.85312" lon="5.19064">
        <ele>689.4</ele>
        <time>2024-07-01T08:42:59Z</time>
      </trkpt>
      <trkpt lat="44.85312" lon="5.19064">
        <ele>689.4</ele>
        <time>2024-07-01T08:43:00Z</time>
      </trkpt>
      <trkpt lat="44.85312" lon="5.19064">
        <ele>689.4</ele>
        <time>2024-07-01T08:43:01Z</time>
      </trkpt>
      <trkpt lat="44.85312" lon="5.19064">
        <ele>689.4</ele>
        <time>2024-07-01T08:43:02Z</time>
      </trkpt>
      <trkpt lat="44.85312" lon="5.19064">
        <ele>689.4</ele>
        <time>2024-07-01T08:43:03Z</time>
      </trkpt>
      <trkpt lat="44.85312" lon="5.19064">
        <ele>689.4</ele>
        <time>2024-07-01T08:43:04Z</time>
      </trkpt>
      <trkpt lat="44.85312" lon="5.19064">
        <ele>689.4</ele>
        <time>2024-07-01T08:43:05Z</time>
      </trkpt>
      <trkpt lat="44.85312" lon="5.19064">
        <ele>689.4</ele>
        <time>2024-07-01T08:43:06Z</time>
      </trkpt>
      <trkpt lat="44.85312" lon="5.19064">
        <ele>689.4</ele>
        <time>2024-07-01T08:43:07Z</time>
      </trkpt>
      <trkpt lat="44.85312" lon="5.19064">
        <ele>689.4</ele>
        <time>2024-07-01T08:43:08Z</time>
      </trkpt>
      <trkpt lat="44.85312" lon="5.19064">
        <ele>689.4</ele>
        <time>2024-07-01T08:43:09Z</time>
      </trkpt>
      <trkpt lat="44.85312" lon="5.19064">
        <ele>689.4</ele>
        <time>2024-07-01T08:43:10Z</time>
      </trkpt>
      <trkpt lat="44.85312" lon="5.19064">
        <ele>689.4</ele>
        <time>2024-07-01T08:43:11Z</time>
      </trkpt>
      <trkpt lat="44.85312" lon="5.19064">
        <ele>689.4</ele>
        <time>2024-07-01T08:43:12Z</time>
      </trkpt>
      <trkpt lat="44.85312" lon="5.19064">
        <ele>689.4</ele>
        <time>2024-07-01T08:43:13Z</time>
      </trkpt>
      <trkpt lat="44.85314" lon="5.19067">
        <ele>689.6</ele>
        <time>2024-07-01T08:43:14Z</time>
      </trkpt>
      <trkpt lat="44.85315" lon="5.19069">
        <ele>689.7</ele>
        <time>2024-07-01T08:43:15Z</time>
      </trkpt>
      <trkpt lat="44.85316" lon="5.19071">
        <ele>689.7</ele>
        <time>2024-07-01T08:43:16Z</time>
      </trkpt>
      <trkpt lat="44.85317" lon="5.19072">
        <ele>689.8</ele>
        <time>2024-07-01T08:43:17Z</time>
      </trkpt>
      <trkpt lat="44.85319" lon="5.19075">
        <ele>689.9</ele>
        <time>2024-07-01T08:43:18Z</time>
      </trkpt>
      <trkpt lat="44.85319" lon="5.19077">
        <ele>690</ele>
        <time>2024-07-01T08:43:20Z</time>
      </trkpt>
      <trkpt lat="44.85319" lon="5.19078">
        <ele>690</ele>
        <time>2024-07-01T08:43:21Z</time>
      </trkpt>
      <trkpt lat="44.85319" lon="5.19079">
        <ele>690.1</ele>
        <time>2024-07-01T08:43:22Z</time>
      </trkpt>
      <trkpt lat="44.85319" lon="5.19081">
        <ele>690.1</ele>
        <time>2024-07-01T08:43:23Z</time>
      </trkpt>
      <trkpt lat="44.8532" lon="5.19082">
        <ele>690.2</ele>
        <time>2024-07-01T08:43:24Z</time>
      </trkpt>
      <trkpt lat="44.85321" lon="5.19083">
        <ele>690.2</ele>
        <time>2024-07-01T08:43:25Z</time>
      </trkpt>
      <trkpt lat="44.85322" lon="5.19085">
        <ele>690.3</ele>
        <time>2024-07-01T08:43:26Z</time>
      </trkpt>
      <trkpt lat="44.85321" lon="5.19082">
        <ele>690.4</ele>
        <time>2024-07-01T08:43:27Z</time>
      </trkpt>
      <trkpt lat="44.8532" lon="5.19078">
        <ele>690.6</ele>
        <time>2024-07-01T08:43:28Z</time>
      </trkpt>
      <trkpt lat="44.8532" lon="5.19077">
        <ele>690.6</ele>
        <time>2024-07-01T08:43:29Z</time>
      </trkpt>
      <trkpt lat="44.8532" lon="5.19076">
        <ele>690.6</ele>
        <time>2024-07-01T08:43:30Z</time>
      </trkpt>
      <trkpt lat="44.8532" lon="5.19076">
        <ele>690.6</ele>
        <time>2024-07-01T08:43:31Z</time>
      </trkpt>
      <trkpt lat="44.85318" lon="5.19075">
        <ele>690.8</ele>
        <time>2024-07-01T08:43:32Z</time>
      </trkpt>
      <trkpt lat="44.85317" lon="5.19072">
        <ele>690.9</ele>
        <time>2024-07-01T08:43:33Z</time>
      </trkpt>
      <trkpt lat="44.85318" lon="5.19071">
        <ele>690.9</ele>
        <time>2024-07-01T08:43:34Z</time>
      </trkpt>
      <trkpt lat="44.85318" lon="5.19069">
        <ele>691</ele>
        <time>2024-07-01T08:43:35Z</time>
      </trkpt>
      <trkpt lat="44.85319" lon="5.19068">
        <ele>691.1</ele>
        <time>2024-07-01T08:43:36Z</time>
      </trkpt>
      <trkpt lat="44.85321" lon="5.19067">
        <ele>691.2</ele>
        <time>2024-07-01T08:43:37Z</time>
      </trkpt>
      <trkpt lat="44.85322" lon="5.19066">
        <ele>691.3</ele>
        <time>2024-07-01T08:43:38Z</time>
      </trkpt>
      <trkpt lat="44.85323" lon="5.19067">
        <ele>691.3</ele>
        <time>2024-07-01T08:43:39Z</time>
      </trkpt>
      <trkpt lat="44.85323" lon="5.19067">
        <ele>691.3</ele>
        <time>2024-07-01T08:43:41Z</time>
      </trkpt>
      <trkpt lat="44.85324" lon="5.19067">
        <ele>691.4</ele>
        <time>2024-07-01T08:43:42Z</time>
      </trkpt>
      <trkpt lat="44.85327" lon="5.19068">
        <ele>691.5</ele>
        <time>2024-07-01T08:43:43Z</time>
      </trkpt>
      <trkpt lat="44.8533" lon="5.19068">
        <ele>691.7</ele>
        <time>2024-07-01T08:43:44Z</time>
      </trkpt>
      <trkpt lat="44.85332" lon="5.19068">
        <ele>691.8</ele>
        <time>2024-07-01T08:43:46Z</time>
      </trkpt>
      <trkpt lat="44.85335" lon="5.19067">
        <ele>691.9</ele>
        <time>2024-07-01T08:43:47Z</time>
      </trkpt>
      <trkpt lat="44.85336" lon="5.19066">
        <ele>692</ele>
        <time>2024-07-01T08:43:49Z</time>
      </trkpt>
      <trkpt lat="44.85337" lon="5.19066">
        <ele>692</ele>
        <time>2024-07-01T08:43:50Z</time>
      </trkpt>
      <trkpt lat="44.85337" lon="5.19066">
        <ele>692</ele>
        <time>2024-07-01T08:43:51Z</time>
      </trkpt>
      <trkpt lat="44.85339" lon="5.19066">
        <ele>692.1</ele>
        <time>2024-07-01T08:43:52Z</time>
      </trkpt>
      <trkpt lat="44.8534" lon="5.19066">
        <ele>692.2</ele>
        <time>2024-07-01T08:43:54Z</time>
      </trkpt>
      <trkpt lat="44.85341" lon="5.19066">
        <ele>692.2</ele>
        <time>2024-07-01T08:43:55Z</time>
      </trkpt>
      <trkpt lat="44.85341" lon="5.19066">
        <ele>692.2</ele>
        <time>2024-07-01T08:43:56Z</time>
      </trkpt>
      <trkpt lat="44.85341" lon="5.19066">
        <ele>692.2</ele>
        <time>2024-07-01T08:43:57Z</time>
      </trkpt>
      <trkpt lat="44.85341" lon="5.19066">
        <ele>692.3</ele>
        <time>2024-07-01T08:43:58Z</time>
      </trkpt>
      <trkpt lat="44.85342" lon="5.19069">
        <ele>692.4</ele>
        <time>2024-07-01T08:44:00Z</time>
      </trkpt>
      <trkpt lat="44.85343" lon="5.19069">
        <ele>692.4</ele>
        <time>2024-07-01T08:44:02Z</time>
      </trkpt>
      <trkpt lat="44.85344" lon="5.19069">
        <ele>692.4</ele>
        <time>2024-07-01T08:44:03Z</time>
      </trkpt>
      <trkpt lat="44.85344" lon="5.19069">
        <ele>692.4</ele>
        <time>2024-07-01T08:44:04Z</time>
      </trkpt>
      <trkpt lat="44.85345" lon="5.19068">
        <ele>692.5</ele>
        <time>2024-07-01T08:44:05Z</time>
      </trkpt>
      <trkpt lat="44.85345" lon="5.19068">
        <ele>692.5</ele>
        <time>2024-07-01T08:44:07Z</time>
      </trkpt>
      <trkpt lat="44.85345" lon="5.19068">
        <ele>692.5</ele>
        <time>2024-07-01T08:44:08Z</time>
      </trkpt>
      <trkpt lat="44.85346" lon="5.19068">
        <ele>692.5</ele>
        <time>2024-07-01T08:44:09Z</time>
      </trkpt>
      <trkpt lat="44.85346" lon="5.19068">
        <ele>692.5</ele>
        <time>2024-07-01T08:44:10Z</time>
      </trkpt>
      <trkpt lat="44.85349" lon="5.19069">
        <ele>692.7</ele>
        <time>2024-07-01T08:44:11Z</time>
      </trkpt>
      <trkpt lat="44.8535" lon="5.1907">
        <ele>692.8</ele>
        <time>2024-07-01T08:44:12Z</time>
      </trkpt>
      <trkpt lat="44.85352" lon="5.19071">
        <ele>692.9</ele>
        <time>2024-07-01T08:44:13Z</time>
      </trkpt>
      <trkpt lat="44.85355" lon="5.19074">
        <ele>693</ele>
        <time>2024-07-01T08:44:14Z</time>
      </trkpt>
      <trkpt lat="44.85357" lon="5.19077">
        <ele>693.2</ele>
        <time>2024-07-01T08:44:15Z</time>
      </trkpt>
      <trkpt lat="44.85359" lon="5.19078">
        <ele>693.3</ele>
        <time>2024-07-01T08:44:17Z</time>
      </trkpt>
      <trkpt lat="44.8536" lon="5.19079">
        <ele>693.4</ele>
        <time>2024-07-01T08:44:19Z</time>
      </trkpt>
      <trkpt lat="44.85361" lon="5.19079">
        <ele>693.4</ele>
        <time>2024-07-01T08:44:20Z</time>
      </trkpt>
      <trkpt lat="44.85362" lon="5.19079">
        <ele>693.5</ele>
        <time>2024-07-01T08:44:21Z</time>
      </trkpt>
      <trkpt lat="44.85363" lon="5.19079">
        <ele>693.5</ele>
        <time>2024-07-01T08:44:22Z</time>
      </trkpt>
      <trkpt lat="44.85364" lon="5.19079">
        <ele>693.6</ele>
        <time>2024-07-01T08:44:23Z</time>
      </trkpt>
      <trkpt lat="44.85365" lon="5.1908">
        <ele>693.6</ele>
        <time>2024-07-01T08:44:24Z</time>
      </trkpt>
      <trkpt lat="44.85366" lon="5.1908">
        <ele>693.7</ele>
        <time>2024-07-01T08:44:25Z</time>
      </trkpt>
      <trkpt lat="44.85367" lon="5.19082">
        <ele>693.8</ele>
        <time>2024-07-01T08:44:26Z</time>
      </trkpt>
      <trkpt lat="44.85368" lon="5.19083">
        <ele>693.9</ele>
        <time>2024-07-01T08:44:28Z</time>
      </trkpt>
      <trkpt lat="44.85369" lon="5.19083">
        <ele>693.9</ele>
        <time>2024-07-01T08:44:29Z</time>
      </trkpt>
      <trkpt lat="44.8537" lon="5.19083">
        <ele>694</ele>
        <time>2024-07-01T08:44:30Z</time>
      </trkpt>
      <trkpt lat="44.85372" lon="5.19083">
        <ele>694.1</ele>
        <time>2024-07-01T08:44:31Z</time>
      </trkpt>
      <trkpt lat="44.85372" lon="5.19087">
        <ele>694.3</ele>
        <time>2024-07-01T08:44:33Z</time>
      </trkpt>
      <trkpt lat="44.85373" lon="5.1909">
        <ele>694.4</ele>
        <time>2024-07-01T08:44:34Z</time>
      </trkpt>
      <trkpt lat="44.85374" lon="5.19091">
        <ele>694.5</ele>
        <time>2024-07-01T08:44:35Z</time>
      </trkpt>
      <trkpt lat="44.85374" lon="5.19093">
        <ele>694.5</ele>
        <time>2024-07-01T08:44:36Z</time>
      </trkpt>
      <trkpt lat="44.85374" lon="5.19095">
        <ele>694.6</ele>
        <time>2024-07-01T08:44:38Z</time>
      </trkpt>
      <trkpt lat="44.85374" lon="5.19095">
        <ele>694.6</ele>
        <time>2024-07-01T08:44:39Z</time>
      </trkpt>
      <trkpt lat="44.85375" lon="5.19095">
        <ele>694.7</ele>
        <time>2024-07-01T08:44:40Z</time>
      </trkpt>
      <trkpt lat="44.85375" lon="5.19094">
        <ele>694.7</ele>
        <time>2024-07-01T08:44:41Z</time>
      </trkpt>
      <trkpt lat="44.85376" lon="5.19094">
        <ele>694.8</ele>
        <time>2024-07-01T08:44:43Z</time>
      </trkpt>
      <trkpt lat="44.85377" lon="5.19093">
        <ele>694.8</ele>
        <time>2024-07-01T08:44:44Z</time>
      </trkpt>
      <trkpt lat="44.85377" lon="5.19093">
        <ele>694.9</ele>
        <time>2024-07-01T08:44:45Z</time>
      </trkpt>
      <trkpt lat="44.85378" lon="5.19094">
        <ele>694.9</ele>
        <time>2024-07-01T08:44:46Z</time>
      </trkpt>
      <trkpt lat="44.85379" lon="5.19094">
        <ele>694.9</ele>
        <time>2024-07-01T08:44:47Z</time>
      </trkpt>
      <trkpt lat="44.85379" lon="5.19094">
        <ele>695</ele>
        <time>2024-07-01T08:44:48Z</time>
      </trkpt>
      <trkpt lat="44.8538" lon="5.19094">
        <ele>695</ele>
        <time>2024-07-01T08:44:49Z</time>
      </trkpt>
      <trkpt lat="44.8538" lon="5.19093">
        <ele>695.1</ele>
        <time>2024-07-01T08:44:50Z</time>
      </trkpt>
      <trkpt lat="44.8538" lon="5.19093">
        <ele>695.1</ele>
        <time>2024-07-01T08:44:51Z</time>
      </trkpt>
      <trkpt lat="44.85379" lon="5.19092">
        <ele>695.2</ele>
        <time>2024-07-01T08:44:52Z</time>
      </trkpt>
      <trkpt lat="44.85379" lon="5.19092">
        <ele>695.2</ele>
        <time>2024-07-01T08:44:53Z</time>
      </trkpt>
      <trkpt lat="44.85378" lon="5.19092">
        <ele>695.2</ele>
        <time>2024-07-01T08:44:54Z</time>
      </trkpt>
      <trkpt lat="44.85378" lon="5.19092">
        <ele>695.2</ele>
        <time>2024-07-01T08:44:55Z</time>
      </trkpt>
      <trkpt lat="44.85378" lon="5.19091">
        <ele>695.2</ele>
        <time>2024-07-01T08:44:56Z</time>
      </trkpt>
      <trkpt lat="44.85378" lon="5.19091">
        <ele>695.2</ele>
        <time>2024-07-01T08:44:57Z</time>
      </trkpt>
      <trkpt lat="44.85378" lon="5.19092">
        <ele>695.2</ele>
        <time>2024-07-01T08:44:58Z</time>
      </trkpt>
      <trkpt lat="44.85378" lon="5.19092">
        <ele>695.3</ele>
        <time>2024-07-01T08:44:59Z</time>
      </trkpt>
      <trkpt lat="44.85378" lon="5.19092">
        <ele>695.3</ele>
        <time>2024-07-01T08:45:00Z</time>
      </trkpt>
      <trkpt lat="44.85378" lon="5.19092">
        <ele>695.3</ele>
        <time>2024-07-01T08:45:01Z</time>
      </trkpt>
      <trkpt lat="44.85378" lon="5.19092">
        <ele>695.3</ele>
        <time>2024-07-01T08:45:02Z</time>
      </trkpt>
      <trkpt lat="44.85378" lon="5.19092">
        <ele>695.3</ele>
        <time>2024-07-01T08:45:03Z</time>
      </trkpt>
      <trkpt lat="44.85378" lon="5.19092">
        <ele>695.3</ele>
        <time>2024-07-01T08:45:04Z</time>
      </trkpt>
      <trkpt lat="44.85378" lon="5.19092">
        <ele>695.3</ele>
        <time>2024-07-01T08:45:05Z</time>
      </trkpt>
      <trkpt lat="44.85378" lon="5.19092">
        <ele>695.3</ele>
        <time>2024-07-01T08:45:06Z</time>
      </trkpt>
      <trkpt lat="44.85378" lon="5.19092">
        <ele>695.3</ele>
        <time>2024-07-01T08:45:07Z</time>
      </trkpt>
      <trkpt lat="44.85379" lon="5.19092">
        <ele>695.4</ele>
        <time>2024-07-01T08:45:08Z</time>
      </trkpt>
      <trkpt lat="44.85379" lon="5.19092">
        <ele>695.4</ele>
        <time>2024-07-01T08:45:09Z</time>
      </trkpt>
      <trkpt lat="44.85379" lon="5.19093">
        <ele>695.4</ele>
        <time>2024-07-01T08:45:10Z</time>
      </trkpt>
      <trkpt lat="44.8538" lon="5.19093">
        <ele>695.5</ele>
        <time>2024-07-01T08:45:11Z</time>
      </trkpt>
      <trkpt lat="44.8538" lon="5.19093">
        <ele>695.5</ele>
        <time>2024-07-01T08:45:12Z</time>
      </trkpt>
      <trkpt lat="44.85381" lon="5.19093">
        <ele>695.5</ele>
        <time>2024-07-01T08:45:13Z</time>
      </trkpt>
      <trkpt lat="44.85382" lon="5.19094">
        <ele>695.6</ele>
        <time>2024-07-01T08:45:15Z</time>
      </trkpt>
      <trkpt lat="44.85383" lon="5.19094">
        <ele>695.7</ele>
        <time>2024-07-01T08:45:16Z</time>
      </trkpt>
      <trkpt lat="44.85384" lon="5.19094">
        <ele>695.7</ele>
        <time>2024-07-01T08:45:17Z</time>
      </trkpt>
      <trkpt lat="44.85384" lon="5.19094">
        <ele>695.7</ele>
        <time>2024-07-01T08:45:18Z</time>
      </trkpt>
      <trkpt lat="44.85385" lon="5.19095">
        <ele>695.8</ele>
        <time>2024-07-01T08:45:19Z</time>
      </trkpt>
      <trkpt lat="44.85385" lon="5.19095">
        <ele>695.9</ele>
        <time>2024-07-01T08:45:20Z</time>
      </trkpt>
      <trkpt lat="44.85386" lon="5.19095">
        <ele>695.9</ele>
        <time>2024-07-01T08:45:21Z</time>
      </trkpt>
      <trkpt lat="44.85387" lon="5.19095">
        <ele>696</ele>
        <time>2024-07-01T08:45:22Z</time>
      </trkpt>
      <trkpt lat="44.85388" lon="5.19095">
        <ele>696</ele>
        <time>2024-07-01T08:45:23Z</time>
      </trkpt>
      <trkpt lat="44.85389" lon="5.19096">
        <ele>696.1</ele>
        <time>2024-07-01T08:45:24Z</time>
      </trkpt>
      <trkpt lat="44.8539" lon="5.19097">
        <ele>696.2</ele>
        <time>2024-07-01T08:45:25Z</time>
      </trkpt>
      <trkpt lat="44.85391" lon="5.19097">
        <ele>696.3</ele>
        <time>2024-07-01T08:45:26Z</time>
      </trkpt>
      <trkpt lat="44.85392" lon="5.19097">
        <ele>696.4</ele>
        <time>2024-07-01T08:45:27Z</time>
      </trkpt>
      <trkpt lat="44.85393" lon="5.19098">
        <ele>696.4</ele>
        <time>2024-07-01T08:45:28Z</time>
      </trkpt>
      <trkpt lat="44.85395" lon="5.191">
        <ele>696.6</ele>
        <time>2024-07-01T08:45:29Z</time>
      </trkpt>
      <trkpt lat="44.85395" lon="5.19101">
        <ele>696.7</ele>
        <time>2024-07-01T08:45:31Z</time>
      </trkpt>
      <trkpt lat="44.85396" lon="5.19102">
        <ele>696.7</ele>
        <time>2024-07-01T08:45:32Z</time>
      </trkpt>
      <trkpt lat="44.85396" lon="5.19102">
        <ele>696.8</ele>
        <time>2024-07-01T08:45:33Z</time>
      </trkpt>
      <trkpt lat="44.85397" lon="5.19102">
        <ele>696.8</ele>
        <time>2024-07-01T08:45:34Z</time>
      </trkpt>
      <trkpt lat="44.85397" lon="5.19102">
        <ele>696.8</ele>
        <time>2024-07-01T08:45:35Z</time>
      </trkpt>
      <trkpt lat="44.85397" lon="5.19102">
        <ele>696.8</ele>
        <time>2024-07-01T08:45:36Z</time>
      </trkpt>
      <trkpt lat="44.85398" lon="5.19102">
        <ele>696.9</ele>
        <time>2024-07-01T08:45:37Z</time>
      </trkpt>
      <trkpt lat="44.85399" lon="5.19102">
        <ele>697</ele>
        <time>2024-07-01T08:45:38Z</time>
      </trkpt>
      <trkpt lat="44.85399" lon="5.19102">
        <ele>697</ele>
        <time>2024-07-01T08:45:39Z</time>
      </trkpt>
      <trkpt lat="44.85399" lon="5.19101">
        <ele>697</ele>
        <time>2024-07-01T08:45:40Z</time>
      </trkpt>
      <trkpt lat="44.85399" lon="5.19101">
        <ele>697</ele>
        <time>2024-07-01T08:45:41Z</time>
      </trkpt>
      <trkpt lat="44.85399" lon="5.19101">
        <ele>697</ele>
        <time>2024-07-01T08:45:42Z</time>
      </trkpt>
      <trkpt lat="44.854" lon="5.191">
        <ele>697.1</ele>
        <time>2024-07-01T08:45:43Z</time>
      </trkpt>
      <trkpt lat="44.854" lon="5.191">
        <ele>697.1</ele>
        <time>2024-07-01T08:45:44Z</time>
      </trkpt>
      <trkpt lat="44.854" lon="5.191">
        <ele>697.1</ele>
        <time>2024-07-01T08:45:45Z</time>
      </trkpt>
      <trkpt lat="44.854" lon="5.19099">
        <ele>697.1</ele>
        <time>2024-07-01T08:45:46Z</time>
      </trkpt>
      <trkpt lat="44.854" lon="5.19099">
        <ele>697.1</ele>
        <time>2024-07-01T08:45:48Z</time>
      </trkpt>
      <trkpt lat="44.85401" lon="5.19099">
        <ele>697.2</ele>
        <time>2024-07-01T08:45:49Z</time>
      </trkpt>
      <trkpt lat="44.85401" lon="5.19098">
        <ele>697.2</ele>
        <time>2024-07-01T08:45:50Z</time>
      </trkpt>
      <trkpt lat="44.85402" lon="5.19098">
        <ele>697.3</ele>
        <time>2024-07-01T08:45:51Z</time>
      </trkpt>
      <trkpt lat="44.85403" lon="5.19098">
        <ele>697.3</ele>
        <time>2024-07-01T08:45:52Z</time>
      </trkpt>
      <trkpt lat="44.85402" lon="5.19099">
        <ele>697.4</ele>
        <time>2024-07-01T08:45:53Z</time>
      </trkpt>
      <trkpt lat="44.854" lon="5.19099">
        <ele>697.5</ele>
        <time>2024-07-01T08:45:54Z</time>
      </trkpt>
      <trkpt lat="44.854" lon="5.191">
        <ele>697.5</ele>
        <time>2024-07-01T08:45:56Z</time>
      </trkpt>
      <trkpt lat="44.854" lon="5.191">
        <ele>697.5</ele>
        <time>2024-07-01T08:45:57Z</time>
      </trkpt>
      <trkpt lat="44.854" lon="5.191">
        <ele>697.5</ele>
        <time>2024-07-01T08:45:58Z</time>
      </trkpt>
      <trkpt lat="44.854" lon="5.191">
        <ele>697.6</ele>
        <time>2024-07-01T08:45:59Z</time>
      </trkpt>
      <trkpt lat="44.854" lon="5.191">
        <ele>697.6</ele>
        <time>2024-07-01T08:46:00Z</time>
      </trkpt>
      <trkpt lat="44.854" lon="5.191">
        <ele>697.6</ele>
        <time>2024-07-01T08:46:01Z</time>
      </trkpt>
      <trkpt lat="44.854" lon="5.191">
        <ele>697.6</ele>
        <time>2024-07-01T08:46:02Z</time>
      </trkpt>
      <trkpt lat="44.854" lon="5.191">
        <ele>697.6</ele>
        <time>2024-07-01T08:46:03Z</time>
      </trkpt>
      <trkpt lat="44.854" lon="5.191">
        <ele>697.6</ele>
        <time>2024-07-01T08:46:04Z</time>
      </trkpt>
      <trkpt lat="44.854" lon="5.191">
        <ele>697.6</ele>
        <time>2024-07-01T08:46:05Z</time>
      </trkpt>
      <trkpt lat="44.854" lon="5.191">
        <ele>697.6</ele>
        <time>2024-07-01T08:46:06Z</time>
      </trkpt>
      <trkpt lat="44.854" lon="5.191">
        <ele>697.6</ele>
        <time>2024-07-01T08:46:07Z</time>
      </trkpt>
      <trkpt lat="44.854" lon="5.191">
        <ele>697.6</ele>
        <time>2024-07-01T08:46:08Z</time>
      </trkpt>
      <trkpt lat="44.854" lon="5.191">
        <ele>697.6</ele>
        <time>2024-07-01T08:46:10Z</time>
      </trkpt>
      <trkpt lat="44.854" lon="5.191">
        <ele>697.7</ele>
        <time>2024-07-01T08:46:11Z</time>
      </trkpt>
      <trkpt lat="44.854" lon="5.191">
        <ele>697.7</ele>
        <time>2024-07-01T08:46:12Z</time>
      </trkpt>
      <trkpt lat="44.85401" lon="5.191">
        <ele>697.7</ele>
        <time>2024-07-01T08:46:13Z</time>
      </trkpt>
      <trkpt lat="44.85401" lon="5.191">
        <ele>697.7</ele>
        <time>2024-07-01T08:46:14Z</time>
      </trkpt>
      <trkpt lat="44.85401" lon="5.191">
        <ele>697.7</ele>
        <time>2024-07-01T08:46:15Z</time>
      </trkpt>
      <trkpt lat="44.85401" lon="5.191">
        <ele>697.8</ele>
        <time>2024-07-01T08:46:17Z</time>
      </trkpt>
      <trkpt lat="44.85402" lon="5.191">
        <ele>697.8</ele>
        <time>2024-07-01T08:46:18Z</time>
      </trkpt>
      <trkpt lat="44.85402" lon="5.191">
        <ele>697.8</ele>
        <time>2024-07-01T08:46:19Z</time>
      </trkpt>
      <trkpt lat="44.85402" lon="5.19101">
        <ele>697.8</ele>
        <time>2024-07-01T08:46:20Z</time>
      </trkpt>
      <trkpt lat="44.85402" lon="5.19101">
        <ele>697.8</ele>
        <time>2024-07-01T08:46:21Z</time>
      </trkpt>
      <trkpt lat="44.85402" lon="5.19101">
        <ele>697.8</ele>
        <time>2024-07-01T08:46:23Z</time>
      </trkpt>
      <trkpt lat="44.85402" lon="5.191">
        <ele>697.8</ele>
        <time>2024-07-01T08:46:24Z</time>
      </trkpt>
      <trkpt lat="44.85402" lon="5.191">
        <ele>697.9</ele>
        <time>2024-07-01T08:46:25Z</time>
      </trkpt>
      <trkpt lat="44.85401" lon="5.19101">
        <ele>697.9</ele>
        <time>2024-07-01T08:46:26Z</time>
      </trkpt>
      <trkpt lat="44.85401" lon="5.19101">
        <ele>697.9</ele>
        <time>2024-07-01T08:46:27Z</time>
      </trkpt>
      <trkpt lat="44.85401" lon="5.191">
        <ele>697.9</ele>
        <time>2024-07-01T08:46:28Z</time>
      </trkpt>
      <trkpt lat="44.85401" lon="5.191">
        <ele>698</ele>
        <time>2024-07-01T08:46:29Z</time>
      </trkpt>
      <trkpt lat="44.85402" lon="5.191">
        <ele>698</ele>
        <time>2024-07-01T08:46:30Z</time>
      </trkpt>
      <trkpt lat="44.85402" lon="5.191">
        <ele>698</ele>
        <time>2024-07-01T08:46:31Z</time>
      </trkpt>
      <trkpt lat="44.85402" lon="5.191">
        <ele>698</ele>
        <time>2024-07-01T08:46:32Z</time>
      </trkpt>
      <trkpt lat="44.85402" lon="5.191">
        <ele>698</ele>
        <time>2024-07-01T08:46:33Z</time>
      </trkpt>
      <trkpt lat="44.85402" lon="5.19101">
        <ele>698</ele>
        <time>2024-07-01T08:46:34Z</time>
      </trkpt>
      <trkpt lat="44.85402" lon="5.19101">
        <ele>698.1</ele>
        <time>2024-07-01T08:46:35Z</time>
      </trkpt>
      <trkpt lat="44.85403" lon="5.19101">
        <ele>698.1</ele>
        <time>2024-07-01T08:46:36Z</time>
      </trkpt>
      <trkpt lat="44.85403" lon="5.19101">
        <ele>698.1</ele>
        <time>2024-07-01T08:46:37Z</time>
      </trkpt>
      <trkpt lat="44.85403" lon="5.19102">
        <ele>698.1</ele>
        <time>2024-07-01T08:46:38Z</time>
      </trkpt>
      <trkpt lat="44.85403" lon="5.19103">
        <ele>698.2</ele>
        <time>2024-07-01T08:46:39Z</time>
      </trkpt>
      <trkpt lat="44.85403" lon="5.19104">
        <ele>698.2</ele>
        <time>2024-07-01T08:46:40Z</time>
      </trkpt>
      <trkpt lat="44.85403" lon="5.19105">
        <ele>698.3</ele>
        <time>2024-07-01T08:46:41Z</time>
      </trkpt>
      <trkpt lat="44.85403" lon="5.19106">
        <ele>698.3</ele>
        <time>2024-07-01T08:46:42Z</time>
      </trkpt>
      <trkpt lat="44.85403" lon="5.19106">
        <ele>698.4</ele>
        <time>2024-07-01T08:46:43Z</time>
      </trkpt>
      <trkpt lat="44.85402" lon="5.1911">
        <ele>698.6</ele>
        <time>2024-07-01T08:46:44Z</time>
      </trkpt>
      <trkpt lat="44.85402" lon="5.19112">
        <ele>698.7</ele>
        <time>2024-07-01T08:46:45Z</time>
      </trkpt>
      <trkpt lat="44.85403" lon="5.1911">
        <ele>698.8</ele>
        <time>2024-07-01T08:46:46Z</time>
      </trkpt>
      <trkpt lat="44.85403" lon="5.19109">
        <ele>698.9</ele>
        <time>2024-07-01T08:46:47Z</time>
      </trkpt>
      <trkpt lat="44.85404" lon="5.19107">
        <ele>699</ele>
        <time>2024-07-01T08:46:48Z</time>
      </trkpt>
      <trkpt lat="44.85405" lon="5.19106">
        <ele>699.1</ele>
        <time>2024-07-01T08:46:49Z</time>
      </trkpt>
      <trkpt lat="44.85407" lon="5.191">
        <ele>699.6</ele>
        <time>2024-07-01T08:46:50Z</time>
      </trkpt>
      <trkpt lat="44.8541" lon="5.19094">
        <ele>700</ele>
        <time>2024-07-01T08:46:51Z</time>
      </trkpt>
      <trkpt lat="44.85413" lon="5.19087">
        <ele>700.5</ele>
        <time>2024-07-01T08:46:52Z</time>
      </trkpt>
      <trkpt lat="44.85417" lon="5.19082">
        <ele>701</ele>
        <time>2024-07-01T08:46:53Z</time>
      </trkpt>
      <trkpt lat="44.8542" lon="5.19077">
        <ele>701.3</ele>
        <time>2024-07-01T08:46:54Z</time>
      </trkpt>
      <trkpt lat="44.85423" lon="5.19074">
        <ele>701.6</ele>
        <time>2024-07-01T08:46:55Z</time>
      </trkpt>
      <trkpt lat="44.85416" lon="5.19085">
        <ele>702.3</ele>
        <time>2024-07-01T08:46:56Z</time>
      </trkpt>
      <trkpt lat="44.85415" lon="5.19088">
        <ele>702.4</ele>
        <time>2024-07-01T08:46:58Z</time>
      </trkpt>
      <trkpt lat="44.85415" lon="5.19087">
        <ele>702.4</ele>
        <time>2024-07-01T08:46:59Z</time>
      </trkpt>
      <trkpt lat="44.85416" lon="5.19086">
        <ele>702.5</ele>
        <time>2024-07-01T08:47:00Z</time>
      </trkpt>
      <trkpt lat="44.85416" lon="5.19085">
        <ele>702.5</ele>
        <time>2024-07-01T08:47:01Z</time>
      </trkpt>
      <trkpt lat="44.85416" lon="5.19084">
        <ele>702.5</ele>
        <time>2024-07-01T08:47:02Z</time>
      </trkpt>
      <trkpt lat="44.85417" lon="5.19083">
        <ele>702.6</ele>
        <time>2024-07-01T08:47:03Z</time>
      </trkpt>
      <trkpt lat="44.85419" lon="5.19082">
        <ele>702.7</ele>
        <time>2024-07-01T08:47:04Z</time>
      </trkpt>
      <trkpt lat="44.8542" lon="5.19082">
        <ele>702.8</ele>
        <time>2024-07-01T08:47:05Z</time>
      </trkpt>
      <trkpt lat="44.85421" lon="5.19082">
        <ele>702.8</ele>
        <time>2024-07-01T08:47:06Z</time>
      </trkpt>
      <trkpt lat="44.85421" lon="5.19082">
        <ele>702.8</ele>
        <time>2024-07-01T08:47:07Z</time>
      </trkpt>
      <trkpt lat="44.85421" lon="5.19083">
        <ele>702.9</ele>
        <time>2024-07-01T08:47:08Z</time>
      </trkpt>
      <trkpt lat="44.85421" lon="5.19084">
        <ele>702.9</ele>
        <time>2024-07-01T08:47:09Z</time>
      </trkpt>
      <trkpt lat="44.85422" lon="5.19085">
        <ele>703</ele>
        <time>2024-07-01T08:47:10Z</time>
      </trkpt>
      <trkpt lat="44.85423" lon="5.19085">
        <ele>703</ele>
        <time>2024-07-01T08:47:11Z</time>
      </trkpt>
      <trkpt lat="44.85423" lon="5.19085">
        <ele>703</ele>
        <time>2024-07-01T08:47:12Z</time>
      </trkpt>
      <trkpt lat="44.85423" lon="5.19085">
        <ele>703.1</ele>
        <time>2024-07-01T08:47:14Z</time>
      </trkpt>
      <trkpt lat="44.85423" lon="5.19086">
        <ele>703.1</ele>
        <time>2024-07-01T08:47:15Z</time>
      </trkpt>
      <trkpt lat="44.85423" lon="5.19086">
        <ele>703.1</ele>
        <time>2024-07-01T08:47:16Z</time>
      </trkpt>
      <trkpt lat="44.85424" lon="5.19086">
        <ele>703.1</ele>
        <time>2024-07-01T08:47:17Z</time>
      </trkpt>
      <trkpt lat="44.85424" lon="5.19086">
        <ele>703.1</ele>
        <time>2024-07-01T08:47:18Z</time>
      </trkpt>
      <trkpt lat="44.85425" lon="5.19086">
        <ele>703.1</ele>
        <time>2024-07-01T08:47:19Z</time>
      </trkpt>
      <trkpt lat="44.85425" lon="5.19086">
        <ele>703.2</ele>
        <time>2024-07-01T08:47:21Z</time>
      </trkpt>
      <trkpt lat="44.85425" lon="5.19085">
        <ele>703.2</ele>
        <time>2024-07-01T08:47:23Z</time>
      </trkpt>
      <trkpt lat="44.85426" lon="5.19085">
        <ele>703.2</ele>
        <time>2024-07-01T08:47:24Z</time>
      </trkpt>
      <trkpt lat="44.85425" lon="5.19085">
        <ele>703.2</ele>
        <time>2024-07-01T08:47:25Z</time>
      </trkpt>
      <trkpt lat="44.85425" lon="5.19086">
        <ele>703.2</ele>
        <time>2024-07-01T08:47:26Z</time>
      </trkpt>
      <trkpt lat="44.85425" lon="5.19086">
        <ele>703.2</ele>
        <time>2024-07-01T08:47:28Z</time>
      </trkpt>
      <trkpt lat="44.85425" lon="5.19086">
        <ele>703.2</ele>
        <time>2024-07-01T08:47:29Z</time>
      </trkpt>
      <trkpt lat="44.85425" lon="5.19086">
        <ele>703.2</ele>
        <time>2024-07-01T08:47:30Z</time>
      </trkpt>
      <trkpt lat="44.85425" lon="5.19086">
        <ele>703.3</ele>
        <time>2024-07-01T08:47:31Z</time>
      </trkpt>
      <trkpt lat="44.85425" lon="5.19086">
        <ele>703.3</ele>
        <time>2024-07-01T08:47:32Z</time>
      </trkpt>
      <trkpt lat="44.85426" lon="5.19086">
        <ele>703.3</ele>
        <time>2024-07-01T08:47:39Z</time>
      </trkpt>
      <trkpt lat="44.85426" lon="5.19086">
        <ele>703.3</ele>
        <time>2024-07-01T08:47:40Z</time>
      </trkpt>
      <trkpt lat="44.8543" lon="5.19092">
        <ele>703.6</ele>
        <time>2024-07-01T08:48:05Z</time>
      </trkpt>
      <trkpt lat="44.8543" lon="5.19092">
        <ele>703.6</ele>
        <time>2024-07-01T08:48:06Z</time>
      </trkpt>
      <trkpt lat="44.8543" lon="5.19092">
        <ele>703.6</ele>
        <time>2024-07-01T08:48:07Z</time>
      </trkpt>
      <trkpt lat="44.8543" lon="5.19092">
        <ele>703.6</ele>
        <time>2024-07-01T08:48:08Z</time>
      </trkpt>
      <trkpt lat="44.8543" lon="5.19092">
        <ele>703.6</ele>
        <time>2024-07-01T08:48:09Z</time>
      </trkpt>
      <trkpt lat="44.8543" lon="5.19092">
        <ele>703.6</ele>
        <time>2024-07-01T08:48:10Z</time>
      </trkpt>
      <trkpt lat="44.8543" lon="5.19092">
        <ele>703.6</ele>
        <time>2024-07-01T08:48:11Z</time>
      </trkpt>
      <trkpt lat="44.8543" lon="5.19094">
        <ele>703.7</ele>
        <time>2024-07-01T08:48:12Z</time>
      </trkpt>
      <trkpt lat="44.85429" lon="5.19094">
        <ele>703.7</ele>
        <time>2024-07-01T08:48:13Z</time>
      </trkpt>
      <trkpt lat="44.85429" lon="5.19093">
        <ele>703.7</ele>
        <time>2024-07-01T08:48:15Z</time>
      </trkpt>
      <trkpt lat="44.85429" lon="5.19093">
        <ele>703.7</ele>
        <time>2024-07-01T08:48:16Z</time>
      </trkpt>
      <trkpt lat="44.85429" lon="5.19093">
        <ele>703.8</ele>
        <time>2024-07-01T08:48:17Z</time>
      </trkpt>
      <trkpt lat="44.8543" lon="5.19093">
        <ele>703.8</ele>
        <time>2024-07-01T08:48:18Z</time>
      </trkpt>
      <trkpt lat="44.8543" lon="5.19093">
        <ele>703.8</ele>
        <time>2024-07-01T08:48:19Z</time>
      </trkpt>
      <trkpt lat="44.8543" lon="5.19092">
        <ele>703.8</ele>
        <time>2024-07-01T08:48:20Z</time>
      </trkpt>
      <trkpt lat="44.8543" lon="5.19092">
        <ele>703.8</ele>
        <time>2024-07-01T08:48:21Z</time>
      </trkpt>
      <trkpt lat="44.8543" lon="5.19092">
        <ele>703.8</ele>
        <time>2024-07-01T08:48:22Z</time>
      </trkpt>
      <trkpt lat="44.8543" lon="5.19092">
        <ele>703.8</ele>
        <time>2024-07-01T08:48:23Z</time>
      </trkpt>
      <trkpt lat="44.8543" lon="5.19092">
        <ele>703.8</ele>
        <time>2024-07-01T08:48:24Z</time>
      </trkpt>
      <trkpt lat="44.8543" lon="5.19093">
        <ele>703.8</ele>
        <time>2024-07-01T08:48:25Z</time>
      </trkpt>
      <trkpt lat="44.8543" lon="5.19093">
        <ele>703.8</ele>
        <time>2024-07-01T08:48:26Z</time>
      </trkpt>
      <trkpt lat="44.8543" lon="5.19093">
        <ele>703.8</ele>
        <time>2024-07-01T08:48:27Z</time>
      </trkpt>
      <trkpt lat="44.8543" lon="5.19093">
        <ele>703.8</ele>
        <time>2024-07-01T08:48:28Z</time>
      </trkpt>
      <trkpt lat="44.8543" lon="5.19092">
        <ele>703.8</ele>
        <time>2024-07-01T08:48:29Z</time>
      </trkpt>
      <trkpt lat="44.8543" lon="5.19092">
        <ele>703.9</ele>
        <time>2024-07-01T08:48:30Z</time>
      </trkpt>
      <trkpt lat="44.8543" lon="5.19092">
        <ele>703.9</ele>
        <time>2024-07-01T08:48:31Z</time>
      </trkpt>
      <trkpt lat="44.85431" lon="5.19092">
        <ele>703.9</ele>
        <time>2024-07-01T08:48:32Z</time>
      </trkpt>
      <trkpt lat="44.85431" lon="5.19092">
        <ele>703.9</ele>
        <time>2024-07-01T08:48:33Z</time>
      </trkpt>
      <trkpt lat="44.85431" lon="5.19092">
        <ele>703.9</ele>
        <time>2024-07-01T08:48:34Z</time>
      </trkpt>
      <trkpt lat="44.85433" lon="5.19096">
        <ele>704.1</ele>
        <time>2024-07-01T08:48:35Z</time>
      </trkpt>
      <trkpt lat="44.85435" lon="5.19097">
        <ele>704.2</ele>
        <time>2024-07-01T08:48:37Z</time>
      </trkpt>
      <trkpt lat="44.85436" lon="5.19098">
        <ele>704.2</ele>
        <time>2024-07-01T08:48:39Z</time>
      </trkpt>
      <trkpt lat="44.85438" lon="5.19097">
        <ele>704.3</ele>
        <time>2024-07-01T08:48:40Z</time>
      </trkpt>
      <trkpt lat="44.85439" lon="5.19097">
        <ele>704.4</ele>
        <time>2024-07-01T08:48:41Z</time>
      </trkpt>
      <trkpt lat="44.8544" lon="5.19096">
        <ele>704.4</ele>
        <time>2024-07-01T08:48:42Z</time>
      </trkpt>
      <trkpt lat="44.8544" lon="5.19096">
        <ele>704.4</ele>
        <time>2024-07-01T08:48:43Z</time>
      </trkpt>
      <trkpt lat="44.8544" lon="5.19095">
        <ele>704.5</ele>
        <time>2024-07-01T08:48:44Z</time>
      </trkpt>
      <trkpt lat="44.85441" lon="5.19095">
        <ele>704.5</ele>
        <time>2024-07-01T08:48:45Z</time>
      </trkpt>
      <trkpt lat="44.85441" lon="5.19096">
        <ele>704.5</ele>
        <time>2024-07-01T08:48:46Z</time>
      </trkpt>
      <trkpt lat="44.85442" lon="5.19096">
        <ele>704.6</ele>
        <time>2024-07-01T08:48:47Z</time>
      </trkpt>
      <trkpt lat="44.85445" lon="5.19096">
        <ele>704.7</ele>
        <time>2024-07-01T08:48:48Z</time>
      </trkpt>
      <trkpt lat="44.85446" lon="5.19096">
        <ele>704.8</ele>
        <time>2024-07-01T08:48:49Z</time>
      </trkpt>
      <trkpt lat="44.85446" lon="5.19096">
        <ele>704.8</ele>
        <time>2024-07-01T08:48:50Z</time>
      </trkpt>
      <trkpt lat="44.85447" lon="5.19096">
        <ele>704.9</ele>
        <time>2024-07-01T08:48:51Z</time>
      </trkpt>
      <trkpt lat="44.85448" lon="5.19095">
        <ele>704.9</ele>
        <time>2024-07-01T08:48:52Z</time>
      </trkpt>
      <trkpt lat="44.85448" lon="5.19095">
        <ele>704.9</ele>
        <time>2024-07-01T08:48:53Z</time>
      </trkpt>
      <trkpt lat="44.85448" lon="5.19094">
        <ele>705</ele>
        <time>2024-07-01T08:48:54Z</time>
      </trkpt>
      <trkpt lat="44.85448" lon="5.19094">
        <ele>705</ele>
        <time>2024-07-01T08:48:55Z</time>
      </trkpt>
      <trkpt lat="44.85449" lon="5.19094">
        <ele>705</ele>
        <time>2024-07-01T08:48:56Z</time>
      </trkpt>
      <trkpt lat="44.85449" lon="5.19093">
        <ele>705</ele>
        <time>2024-07-01T08:48:57Z</time>
      </trkpt>
      <trkpt lat="44.8545" lon="5.19093">
        <ele>705.1</ele>
        <time>2024-07-01T08:48:58Z</time>
      </trkpt>
      <trkpt lat="44.8545" lon="5.19092">
        <ele>705.1</ele>
        <time>2024-07-01T08:49:00Z</time>
      </trkpt>
      <trkpt lat="44.8545" lon="5.19092">
        <ele>705.1</ele>
        <time>2024-07-01T08:49:01Z</time>
      </trkpt>
      <trkpt lat="44.8545" lon="5.19092">
        <ele>705.1</ele>
        <time>2024-07-01T08:49:02Z</time>
      </trkpt>
      <trkpt lat="44.8545" lon="5.19092">
        <ele>705.1</ele>
        <time>2024-07-01T08:49:04Z</time>
      </trkpt>
      <trkpt lat="44.8545" lon="5.19092">
        <ele>705.2</ele>
        <time>2024-07-01T08:49:05Z</time>
      </trkpt>
      <trkpt lat="44.85451" lon="5.19091">
        <ele>705.2</ele>
        <time>2024-07-01T08:49:06Z</time>
      </trkpt>
      <trkpt lat="44.85451" lon="5.19091">
        <ele>705.2</ele>
        <time>2024-07-01T08:49:07Z</time>
      </trkpt>
      <trkpt lat="44.85451" lon="5.1909">
        <ele>705.2</ele>
        <time>2024-07-01T08:49:08Z</time>
      </trkpt>
      <trkpt lat="44.85452" lon="5.19091">
        <ele>705.3</ele>
        <time>2024-07-01T08:49:09Z</time>
      </trkpt>
      <trkpt lat="44.85452" lon="5.19091">
        <ele>705.3</ele>
        <time>2024-07-01T08:49:10Z</time>
      </trkpt>
      <trkpt lat="44.85452" lon="5.19092">
        <ele>705.3</ele>
        <time>2024-07-01T08:49:12Z</time>
      </trkpt>
      <trkpt lat="44.85453" lon="5.19092">
        <ele>705.4</ele>
        <time>2024-07-01T08:49:14Z</time>
      </trkpt>
      <trkpt lat="44.85454" lon="5.19091">
        <ele>705.4</ele>
        <time>2024-07-01T08:49:15Z</time>
      </trkpt>
      <trkpt lat="44.85454" lon="5.19091">
        <ele>705.5</ele>
        <time>2024-07-01T08:49:16Z</time>
      </trkpt>
      <trkpt lat="44.85455" lon="5.1909">
        <ele>705.5</ele>
        <time>2024-07-01T08:49:17Z</time>
      </trkpt>
      <trkpt lat="44.85455" lon="5.19089">
        <ele>705.6</ele>
        <time>2024-07-01T08:49:18Z</time>
      </trkpt>
      <trkpt lat="44.85456" lon="5.19087">
        <ele>705.7</ele>
        <time>2024-07-01T08:49:19Z</time>
      </trkpt>
      <trkpt lat="44.85457" lon="5.19087">
        <ele>705.8</ele>
        <time>2024-07-01T08:49:21Z</time>
      </trkpt>
      <trkpt lat="44.85458" lon="5.19086">
        <ele>705.9</ele>
        <time>2024-07-01T08:49:22Z</time>
      </trkpt>
      <trkpt lat="44.85459" lon="5.19086">
        <ele>705.9</ele>
        <time>2024-07-01T08:49:23Z</time>
      </trkpt>
      <trkpt lat="44.85459" lon="5.19087">
        <ele>706</ele>
        <time>2024-07-01T08:49:24Z</time>
      </trkpt>
      <trkpt lat="44.85459" lon="5.19087">
        <ele>706</ele>
        <time>2024-07-01T08:49:25Z</time>
      </trkpt>
      <trkpt lat="44.85459" lon="5.19087">
        <ele>706</ele>
        <time>2024-07-01T08:49:26Z</time>
      </trkpt>
      <trkpt lat="44.85459" lon="5.19088">
        <ele>706.1</ele>
        <time>2024-07-01T08:49:27Z</time>
      </trkpt>
      <trkpt lat="44.85458" lon="5.19088">
        <ele>706.1</ele>
        <time>2024-07-01T08:49:28Z</time>
      </trkpt>
      <trkpt lat="44.85457" lon="5.19088">
        <ele>706.2</ele>
        <time>2024-07-01T08:49:29Z</time>
      </trkpt>
      <trkpt lat="44.85457" lon="5.19088">
        <ele>706.2</ele>
        <time>2024-07-01T08:49:30Z</time>
      </trkpt>
      <trkpt lat="44.85457" lon="5.19088">
        <ele>706.2</ele>
        <time>2024-07-01T08:49:31Z</time>
      </trkpt>
      <trkpt lat="44.85457" lon="5.19088">
        <ele>706.2</ele>
        <time>2024-07-01T08:49:32Z</time>
      </trkpt>
      <trkpt lat="44.85457" lon="5.19088">
        <ele>706.2</ele>
        <time>2024-07-01T08:49:33Z</time>
      </trkpt>
      <trkpt lat="44.85458" lon="5.19088">
        <ele>706.2</ele>
        <time>2024-07-01T08:49:34Z</time>
      </trkpt>
      <trkpt lat="44.85458" lon="5.19088">
        <ele>706.2</ele>
        <time>2024-07-01T08:49:35Z</time>
      </trkpt>
      <trkpt lat="44.85458" lon="5.19089">
        <ele>706.3</ele>
        <time>2024-07-01T08:49:36Z</time>
      </trkpt>
      <trkpt lat="44.85458" lon="5.19089">
        <ele>706.3</ele>
        <time>2024-07-01T08:49:37Z</time>
      </trkpt>
      <trkpt lat="44.85458" lon="5.19089">
        <ele>706.3</ele>
        <time>2024-07-01T08:49:38Z</time>
      </trkpt>
      <trkpt lat="44.85458" lon="5.19089">
        <ele>706.3</ele>
        <time>2024-07-01T08:49:39Z</time>
      </trkpt>
      <trkpt lat="44.85458" lon="5.19089">
        <ele>706.3</ele>
        <time>2024-07-01T08:49:40Z</time>
      </trkpt>
      <trkpt lat="44.85458" lon="5.1909">
        <ele>706.3</ele>
        <time>2024-07-01T08:49:41Z</time>
      </trkpt>
      <trkpt lat="44.85459" lon="5.19091">
        <ele>706.4</ele>
        <time>2024-07-01T08:49:42Z</time>
      </trkpt>
      <trkpt lat="44.8546" lon="5.19093">
        <ele>706.6</ele>
        <time>2024-07-01T08:49:43Z</time>
      </trkpt>
      <trkpt lat="44.85461" lon="5.19093">
        <ele>706.7</ele>
        <time>2024-07-01T08:49:44Z</time>
      </trkpt>
      <trkpt lat="44.85461" lon="5.19094">
        <ele>706.7</ele>
        <time>2024-07-01T08:49:45Z</time>
      </trkpt>
      <trkpt lat="44.85463" lon="5.19096">
        <ele>706.8</ele>
        <time>2024-07-01T08:49:46Z</time>
      </trkpt>
      <trkpt lat="44.85463" lon="5.19096">
        <ele>706.9</ele>
        <time>2024-07-01T08:49:48Z</time>
      </trkpt>
      <trkpt lat="44.85464" lon="5.19097">
        <ele>706.9</ele>
        <time>2024-07-01T08:49:49Z</time>
      </trkpt>
      <trkpt lat="44.85465" lon="5.19097">
        <ele>707</ele>
        <time>2024-07-01T08:49:51Z</time>
      </trkpt>
      <trkpt lat="44.85466" lon="5.19097">
        <ele>707.1</ele>
        <time>2024-07-01T08:49:52Z</time>
      </trkpt>
      <trkpt lat="44.85466" lon="5.19097">
        <ele>707.2</ele>
        <time>2024-07-01T08:49:53Z</time>
      </trkpt>
      <trkpt lat="44.85467" lon="5.19098">
        <ele>707.2</ele>
        <time>2024-07-01T08:49:54Z</time>
      </trkpt>
      <trkpt lat="44.85467" lon="5.19098">
        <ele>707.2</ele>
        <time>2024-07-01T08:49:55Z</time>
      </trkpt>
      <trkpt lat="44.85467" lon="5.19098">
        <ele>707.3</ele>
        <time>2024-07-01T08:49:56Z</time>
      </trkpt>
      <trkpt lat="44.85468" lon="5.19098">
        <ele>707.3</ele>
        <time>2024-07-01T08:49:57Z</time>
      </trkpt>
      <trkpt lat="44.85469" lon="5.19098">
        <ele>707.4</ele>
        <time>2024-07-01T08:49:58Z</time>
      </trkpt>
      <trkpt lat="44.85469" lon="5.19098">
        <ele>707.4</ele>
        <time>2024-07-01T08:49:59Z</time>
      </trkpt>
      <trkpt lat="44.85469" lon="5.19098">
        <ele>707.4</ele>
        <time>2024-07-01T08:50:00Z</time>
      </trkpt>
      <trkpt lat="44.85469" lon="5.19099">
        <ele>707.4</ele>
        <time>2024-07-01T08:50:01Z</time>
      </trkpt>
      <trkpt lat="44.85469" lon="5.19099">
        <ele>707.4</ele>
        <time>2024-07-01T08:50:02Z</time>
      </trkpt>
      <trkpt lat="44.85469" lon="5.19099">
        <ele>707.5</ele>
        <time>2024-07-01T08:50:03Z</time>
      </trkpt>
      <trkpt lat="44.85469" lon="5.19099">
        <ele>707.5</ele>
        <time>2024-07-01T08:50:04Z</time>
      </trkpt>
      <trkpt lat="44.85469" lon="5.19099">
        <ele>707.5</ele>
        <time>2024-07-01T08:50:05Z</time>
      </trkpt>
      <trkpt lat="44.85469" lon="5.19099">
        <ele>707.5</ele>
        <time>2024-07-01T08:50:06Z</time>
      </trkpt>
      <trkpt lat="44.85469" lon="5.191">
        <ele>707.5</ele>
        <time>2024-07-01T08:50:07Z</time>
      </trkpt>
      <trkpt lat="44.85469" lon="5.191">
        <ele>707.5</ele>
        <time>2024-07-01T08:50:08Z</time>
      </trkpt>
      <trkpt lat="44.85469" lon="5.19101">
        <ele>707.6</ele>
        <time>2024-07-01T08:50:09Z</time>
      </trkpt>
      <trkpt lat="44.85468" lon="5.19101">
        <ele>707.6</ele>
        <time>2024-07-01T08:50:10Z</time>
      </trkpt>
      <trkpt lat="44.85468" lon="5.19101">
        <ele>707.6</ele>
        <time>2024-07-01T08:50:11Z</time>
      </trkpt>
      <trkpt lat="44.85468" lon="5.19101">
        <ele>707.6</ele>
        <time>2024-07-01T08:50:12Z</time>
      </trkpt>
      <trkpt lat="44.85468" lon="5.191">
        <ele>707.6</ele>
        <time>2024-07-01T08:50:13Z</time>
      </trkpt>
      <trkpt lat="44.85469" lon="5.191">
        <ele>707.7</ele>
        <time>2024-07-01T08:50:14Z</time>
      </trkpt>
      <trkpt lat="44.85469" lon="5.191">
        <ele>707.7</ele>
        <time>2024-07-01T08:50:15Z</time>
      </trkpt>
      <trkpt lat="44.85469" lon="5.191">
        <ele>707.7</ele>
        <time>2024-07-01T08:50:16Z</time>
      </trkpt>
      <trkpt lat="44.85469" lon="5.191">
        <ele>707.7</ele>
        <time>2024-07-01T08:50:17Z</time>
      </trkpt>
      <trkpt lat="44.85469" lon="5.191">
        <ele>707.7</ele>
        <time>2024-07-01T08:50:18Z</time>
      </trkpt>
      <trkpt lat="44.85469" lon="5.191">
        <ele>707.7</ele>
        <time>2024-07-01T08:50:19Z</time>
      </trkpt>
      <trkpt lat="44.85469" lon="5.191">
        <ele>707.7</ele>
        <time>2024-07-01T08:50:20Z</time>
      </trkpt>
      <trkpt lat="44.85469" lon="5.19101">
        <ele>707.7</ele>
        <time>2024-07-01T08:50:22Z</time>
      </trkpt>
      <trkpt lat="44.85469" lon="5.19101">
        <ele>707.8</ele>
        <time>2024-07-01T08:50:23Z</time>
      </trkpt>
      <trkpt lat="44.8547" lon="5.19102">
        <ele>707.8</ele>
        <time>2024-07-01T08:50:24Z</time>
      </trkpt>
      <trkpt lat="44.85471" lon="5.19102">
        <ele>707.9</ele>
        <time>2024-07-01T08:50:25Z</time>
      </trkpt>
      <trkpt lat="44.85472" lon="5.19102">
        <ele>708</ele>
        <time>2024-07-01T08:50:26Z</time>
      </trkpt>
      <trkpt lat="44.85472" lon="5.19102">
        <ele>708</ele>
        <time>2024-07-01T08:50:27Z</time>
      </trkpt>
      <trkpt lat="44.85472" lon="5.19102">
        <ele>708</ele>
        <time>2024-07-01T08:50:28Z</time>
      </trkpt>
      <trkpt lat="44.85471" lon="5.19102">
        <ele>708</ele>
        <time>2024-07-01T08:50:29Z</time>
      </trkpt>
      <trkpt lat="44.85471" lon="5.19102">
        <ele>708</ele>
        <time>2024-07-01T08:50:30Z</time>
      </trkpt>
      <trkpt lat="44.85471" lon="5.19102">
        <ele>708</ele>
        <time>2024-07-01T08:50:31Z</time>
      </trkpt>
      <trkpt lat="44.85471" lon="5.19102">
        <ele>708.1</ele>
        <time>2024-07-01T08:50:33Z</time>
      </trkpt>
      <trkpt lat="44.85471" lon="5.19102">
        <ele>708.1</ele>
        <time>2024-07-01T08:50:35Z</time>
      </trkpt>
      <trkpt lat="44.85471" lon="5.19102">
        <ele>708.1</ele>
        <time>2024-07-01T08:50:36Z</time>
      </trkpt>
      <trkpt lat="44.85471" lon="5.19102">
        <ele>708.1</ele>
        <time>2024-07-01T08:50:37Z</time>
      </trkpt>
      <trkpt lat="44.85471" lon="5.19102">
        <ele>708.1</ele>
        <time>2024-07-01T08:50:38Z</time>
      </trkpt>
      <trkpt lat="44.85471" lon="5.19102">
        <ele>708.1</ele>
        <time>2024-07-01T08:50:39Z</time>
      </trkpt>
      <trkpt lat="44.85471" lon="5.19102">
        <ele>708.1</ele>
        <time>2024-07-01T08:50:40Z</time>
      </trkpt>
      <trkpt lat="44.85471" lon="5.19102">
        <ele>708.1</ele>
        <time>2024-07-01T08:50:41Z</time>
      </trkpt>
      <trkpt lat="44.85471" lon="5.19102">
        <ele>708.1</ele>
        <time>2024-07-01T08:50:42Z</time>
      </trkpt>
      <trkpt lat="44.85471" lon="5.19102">
        <ele>708.1</ele>
        <time>2024-07-01T08:50:43Z</time>
      </trkpt>
      <trkpt lat="44.85471" lon="5.19102">
        <ele>708.1</ele>
        <time>2024-07-01T08:50:44Z</time>
      </trkpt>
      <trkpt lat="44.85471" lon="5.19102">
        <ele>708.1</ele>
        <time>2024-07-01T08:50:45Z</time>
      </trkpt>
      <trkpt lat="44.85471" lon="5.19102">
        <ele>708.1</ele>
        <time>2024-07-01T08:50:46Z</time>
      </trkpt>
      <trkpt lat="44.85471" lon="5.19102">
        <ele>708.1</ele>
        <time>2024-07-01T08:50:47Z</time>
      </trkpt>
      <trkpt lat="44.85471" lon="5.19102">
        <ele>708.1</ele>
        <time>2024-07-01T08:50:48Z</time>
      </trkpt>
      <trkpt lat="44.85471" lon="5.19102">
        <ele>708.1</ele>
        <time>2024-07-01T08:50:49Z</time>
      </trkpt>
      <trkpt lat="44.85472" lon="5.19101">
        <ele>708.2</ele>
        <time>2024-07-01T08:50:50Z</time>
      </trkpt>
      <trkpt lat="44.85472" lon="5.19101">
        <ele>708.2</ele>
        <time>2024-07-01T08:50:51Z</time>
      </trkpt>
      <trkpt lat="44.85472" lon="5.19101">
        <ele>708.2</ele>
        <time>2024-07-01T08:50:52Z</time>
      </trkpt>
      <trkpt lat="44.85472" lon="5.19101">
        <ele>708.2</ele>
        <time>2024-07-01T08:50:54Z</time>
      </trkpt>
      <trkpt lat="44.85472" lon="5.19101">
        <ele>708.2</ele>
        <time>2024-07-01T08:50:55Z</time>
      </trkpt>
      <trkpt lat="44.85472" lon="5.19101">
        <ele>708.2</ele>
        <time>2024-07-01T08:50:57Z</time>
      </trkpt>
      <trkpt lat="44.85473" lon="5.19101">
        <ele>708.2</ele>
        <time>2024-07-01T08:50:58Z</time>
      </trkpt>
      <trkpt lat="44.85473" lon="5.19102">
        <ele>708.3</ele>
        <time>2024-07-01T08:50:59Z</time>
      </trkpt>
      <trkpt lat="44.85474" lon="5.19103">
        <ele>708.3</ele>
        <time>2024-07-01T08:51:00Z</time>
      </trkpt>
      <trkpt lat="44.85476" lon="5.19104">
        <ele>708.4</ele>
        <time>2024-07-01T08:51:01Z</time>
      </trkpt>
      <trkpt lat="44.85478" lon="5.19105">
        <ele>708.6</ele>
        <time>2024-07-01T08:51:03Z</time>
      </trkpt>
      <trkpt lat="44.85479" lon="5.19106">
        <ele>708.6</ele>
        <time>2024-07-01T08:51:04Z</time>
      </trkpt>
      <trkpt lat="44.85481" lon="5.19105">
        <ele>708.7</ele>
        <time>2024-07-01T08:51:05Z</time>
      </trkpt>
      <trkpt lat="44.85483" lon="5.19103">
        <ele>708.8</ele>
        <time>2024-07-01T08:51:06Z</time>
      </trkpt>
      <trkpt lat="44.85484" lon="5.19102">
        <ele>708.9</ele>
        <time>2024-07-01T08:51:07Z</time>
      </trkpt>
      <trkpt lat="44.85484" lon="5.19102">
        <ele>708.9</ele>
        <time>2024-07-01T08:51:08Z</time>
      </trkpt>
      <trkpt lat="44.85484" lon="5.19101">
        <ele>708.9</ele>
        <time>2024-07-01T08:51:09Z</time>
      </trkpt>
      <trkpt lat="44.85484" lon="5.191">
        <ele>708.9</ele>
        <time>2024-07-01T08:51:10Z</time>
      </trkpt>
      <trkpt lat="44.85484" lon="5.191">
        <ele>708.9</ele>
        <time>2024-07-01T08:51:11Z</time>
      </trkpt>
      <trkpt lat="44.85484" lon="5.191">
        <ele>708.9</ele>
        <time>2024-07-01T08:51:12Z</time>
      </trkpt>
      <trkpt lat="44.85485" lon="5.19099">
        <ele>708.9</ele>
        <time>2024-07-01T08:51:13Z</time>
      </trkpt>
      <trkpt lat="44.85485" lon="5.19099">
        <ele>709</ele>
        <time>2024-07-01T08:51:14Z</time>
      </trkpt>
      <trkpt lat="44.85485" lon="5.19099">
        <ele>709</ele>
        <time>2024-07-01T08:51:15Z</time>
      </trkpt>
      <trkpt lat="44.85485" lon="5.19098">
        <ele>709</ele>
        <time>2024-07-01T08:51:16Z</time>
      </trkpt>
      <trkpt lat="44.85485" lon="5.19098">
        <ele>709</ele>
        <time>2024-07-01T08:51:17Z</time>
      </trkpt>
      <trkpt lat="44.85485" lon="5.19098">
        <ele>709</ele>
        <time>2024-07-01T08:51:18Z</time>
      </trkpt>
      <trkpt lat="44.85485" lon="5.19097">
        <ele>709</ele>
        <time>2024-07-01T08:51:19Z</time>
      </trkpt>
      <trkpt lat="44.85485" lon="5.19097">
        <ele>709</ele>
        <time>2024-07-01T08:51:20Z</time>
      </trkpt>
      <trkpt lat="44.85485" lon="5.19097">
        <ele>709</ele>
        <time>2024-07-01T08:51:21Z</time>
      </trkpt>
      <trkpt lat="44.85485" lon="5.19097">
        <ele>709</ele>
        <time>2024-07-01T08:51:22Z</time>
      </trkpt>
      <trkpt lat="44.85485" lon="5.19097">
        <ele>709</ele>
        <time>2024-07-01T08:51:23Z</time>
      </trkpt>
      <trkpt lat="44.85485" lon="5.19097">
        <ele>709</ele>
        <time>2024-07-01T08:51:24Z</time>
      </trkpt>
      <trkpt lat="44.85485" lon="5.19097">
        <ele>709</ele>
        <time>2024-07-01T08:51:25Z</time>
      </trkpt>
      <trkpt lat="44.85485" lon="5.19097">
        <ele>709</ele>
        <time>2024-07-01T08:51:26Z</time>
      </trkpt>
      <trkpt lat="44.85485" lon="5.19097">
        <ele>709</ele>
        <time>2024-07-01T08:51:27Z</time>
      </trkpt>
      <trkpt lat="44.85485" lon="5.19097">
        <ele>709</ele>
        <time>2024-07-01T08:51:28Z</time>
      </trkpt>
      <trkpt lat="44.85485" lon="5.19097">
        <ele>709</ele>
        <time>2024-07-01T08:51:29Z</time>
      </trkpt>
      <trkpt lat="44.85485" lon="5.19097">
        <ele>709.1</ele>
        <time>2024-07-01T08:51:30Z</time>
      </trkpt>
      <trkpt lat="44.85485" lon="5.19097">
        <ele>709.1</ele>
        <time>2024-07-01T08:51:31Z</time>
      </trkpt>
      <trkpt lat="44.85486" lon="5.19097">
        <ele>709.1</ele>
        <time>2024-07-01T08:51:32Z</time>
      </trkpt>
      <trkpt lat="44.85486" lon="5.19097">
        <ele>709.1</ele>
        <time>2024-07-01T08:51:33Z</time>
      </trkpt>
      <trkpt lat="44.85486" lon="5.19098">
        <ele>709.1</ele>
        <time>2024-07-01T08:51:35Z</time>
      </trkpt>
      <trkpt lat="44.85486" lon="5.19097">
        <ele>709.1</ele>
        <time>2024-07-01T08:51:36Z</time>
      </trkpt>
      <trkpt lat="44.85486" lon="5.19097">
        <ele>709.1</ele>
        <time>2024-07-01T08:51:37Z</time>
      </trkpt>
      <trkpt lat="44.85486" lon="5.19097">
        <ele>709.1</ele>
        <time>2024-07-01T08:51:38Z</time>
      </trkpt>
      <trkpt lat="44.85486" lon="5.19097">
        <ele>709.1</ele>
        <time>2024-07-01T08:51:39Z</time>
      </trkpt>
      <trkpt lat="44.85487" lon="5.19098">
        <ele>709.1</ele>
        <time>2024-07-01T08:51:40Z</time>
      </trkpt>
      <trkpt lat="44.85487" lon="5.19098">
        <ele>709.1</ele>
        <time>2024-07-01T08:51:41Z</time>
      </trkpt>
      <trkpt lat="44.85487" lon="5.19098">
        <ele>709.1</ele>
        <time>2024-07-01T08:51:42Z</time>
      </trkpt>
      <trkpt lat="44.85487" lon="5.19098">
        <ele>709.2</ele>
        <time>2024-07-01T08:51:43Z</time>
      </trkpt>
      <trkpt lat="44.85489" lon="5.19098">
        <ele>709.2</ele>
        <time>2024-07-01T08:51:44Z</time>
      </trkpt>
      <trkpt lat="44.8549" lon="5.19097">
        <ele>709.2</ele>
        <time>2024-07-01T08:51:46Z</time>
      </trkpt>
      <trkpt lat="44.85492" lon="5.19097">
        <ele>709.3</ele>
        <time>2024-07-01T08:51:47Z</time>
      </trkpt>
      <trkpt lat="44.85493" lon="5.19097">
        <ele>709.4</ele>
        <time>2024-07-01T08:51:48Z</time>
      </trkpt>
      <trkpt lat="44.85495" lon="5.19097">
        <ele>709.4</ele>
        <time>2024-07-01T08:51:49Z</time>
      </trkpt>
      <trkpt lat="44.85496" lon="5.19098">
        <ele>709.5</ele>
        <time>2024-07-01T08:51:50Z</time>
      </trkpt>
      <trkpt lat="44.85497" lon="5.19098">
        <ele>709.5</ele>
        <time>2024-07-01T08:51:52Z</time>
      </trkpt>
      <trkpt lat="44.85498" lon="5.19099">
        <ele>709.6</ele>
        <time>2024-07-01T08:51:53Z</time>
      </trkpt>
      <trkpt lat="44.85499" lon="5.19099">
        <ele>709.6</ele>
        <time>2024-07-01T08:51:54Z</time>
      </trkpt>
      <trkpt lat="44.85499" lon="5.191">
        <ele>709.7</ele>
        <time>2024-07-01T08:51:55Z</time>
      </trkpt>
      <trkpt lat="44.855" lon="5.191">
        <ele>709.7</ele>
        <time>2024-07-01T08:51:56Z</time>
      </trkpt>
      <trkpt lat="44.85501" lon="5.191">
        <ele>709.7</ele>
        <time>2024-07-01T08:51:57Z</time>
      </trkpt>
      <trkpt lat="44.85502" lon="5.19099">
        <ele>709.8</ele>
        <time>2024-07-01T08:51:58Z</time>
      </trkpt>
      <trkpt lat="44.85503" lon="5.19099">
        <ele>709.8</ele>
        <time>2024-07-01T08:51:59Z</time>
      </trkpt>
      <trkpt lat="44.85503" lon="5.191">
        <ele>709.8</ele>
        <time>2024-07-01T08:52:00Z</time>
      </trkpt>
      <trkpt lat="44.85503" lon="5.191">
        <ele>709.8</ele>
        <time>2024-07-01T08:52:01Z</time>
      </trkpt>
      <trkpt lat="44.85503" lon="5.191">
        <ele>709.8</ele>
        <time>2024-07-01T08:52:02Z</time>
      </trkpt>
      <trkpt lat="44.85503" lon="5.19099">
        <ele>709.8</ele>
        <time>2024-07-01T08:52:03Z</time>
      </trkpt>
      <trkpt lat="44.85503" lon="5.19099">
        <ele>709.8</ele>
        <time>2024-07-01T08:52:04Z</time>
      </trkpt>
      <trkpt lat="44.85503" lon="5.19099">
        <ele>709.8</ele>
        <time>2024-07-01T08:52:06Z</time>
      </trkpt>
      <trkpt lat="44.85504" lon="5.19099">
        <ele>709.9</ele>
        <time>2024-07-01T08:52:07Z</time>
      </trkpt>
      <trkpt lat="44.85505" lon="5.19099">
        <ele>709.9</ele>
        <time>2024-07-01T08:52:09Z</time>
      </trkpt>
      <trkpt lat="44.85505" lon="5.191">
        <ele>709.9</ele>
        <time>2024-07-01T08:52:10Z</time>
      </trkpt>
      <trkpt lat="44.85505" lon="5.191">
        <ele>709.9</ele>
        <time>2024-07-01T08:52:11Z</time>
      </trkpt>
      <trkpt lat="44.85504" lon="5.19099">
        <ele>710</ele>
        <time>2024-07-01T08:52:12Z</time>
      </trkpt>
      <trkpt lat="44.85503" lon="5.19099">
        <ele>710</ele>
        <time>2024-07-01T08:52:13Z</time>
      </trkpt>
      <trkpt lat="44.85502" lon="5.19098">
        <ele>710.1</ele>
        <time>2024-07-01T08:52:14Z</time>
      </trkpt>
      <trkpt lat="44.85497" lon="5.19097">
        <ele>710.2</ele>
        <time>2024-07-01T08:52:15Z</time>
      </trkpt>
      <trkpt lat="44.85496" lon="5.19097">
        <ele>710.3</ele>
        <time>2024-07-01T08:52:16Z</time>
      </trkpt>
      <trkpt lat="44.85497" lon="5.19098">
        <ele>710.3</ele>
        <time>2024-07-01T08:52:18Z</time>
      </trkpt>
      <trkpt lat="44.85498" lon="5.19099">
        <ele>710.4</ele>
        <time>2024-07-01T08:52:19Z</time>
      </trkpt>
      <trkpt lat="44.85499" lon="5.191">
        <ele>710.4</ele>
        <time>2024-07-01T08:52:20Z</time>
      </trkpt>
      <trkpt lat="44.85502" lon="5.19101">
        <ele>710.5</ele>
        <time>2024-07-01T08:52:21Z</time>
      </trkpt>
      <trkpt lat="44.85503" lon="5.19102">
        <ele>710.5</ele>
        <time>2024-07-01T08:52:22Z</time>
      </trkpt>
      <trkpt lat="44.85505" lon="5.19104">
        <ele>710.6</ele>
        <time>2024-07-01T08:52:23Z</time>
      </trkpt>
      <trkpt lat="44.85506" lon="5.19105">
        <ele>710.7</ele>
        <time>2024-07-01T08:52:24Z</time>
      </trkpt>
      <trkpt lat="44.85507" lon="5.19107">
        <ele>710.7</ele>
        <time>2024-07-01T08:52:25Z</time>
      </trkpt>
      <trkpt lat="44.85508" lon="5.19108">
        <ele>710.7</ele>
        <time>2024-07-01T08:52:26Z</time>
      </trkpt>
      <trkpt lat="44.85509" lon="5.19111">
        <ele>710.8</ele>
        <time>2024-07-01T08:52:27Z</time>
      </trkpt>
      <trkpt lat="44.8551" lon="5.19112">
        <ele>710.9</ele>
        <time>2024-07-01T08:52:29Z</time>
      </trkpt>
      <trkpt lat="44.85512" lon="5.19114">
        <ele>710.9</ele>
        <time>2024-07-01T08:52:30Z</time>
      </trkpt>
      <trkpt lat="44.85514" lon="5.19114">
        <ele>711</ele>
        <time>2024-07-01T08:52:32Z</time>
      </trkpt>
      <trkpt lat="44.85517" lon="5.19111">
        <ele>711.1</ele>
        <time>2024-07-01T08:52:33Z</time>
      </trkpt>
      <trkpt lat="44.85519" lon="5.19109">
        <ele>711.2</ele>
        <time>2024-07-01T08:52:34Z</time>
      </trkpt>
      <trkpt lat="44.8552" lon="5.19108">
        <ele>711.2</ele>
        <time>2024-07-01T08:52:35Z</time>
      </trkpt>
      <trkpt lat="44.85521" lon="5.19107">
        <ele>711.3</ele>
        <time>2024-07-01T08:52:36Z</time>
      </trkpt>
      <trkpt lat="44.85522" lon="5.19106">
        <ele>711.3</ele>
        <time>2024-07-01T08:52:37Z</time>
      </trkpt>
      <trkpt lat="44.85522" lon="5.19104">
        <ele>711.3</ele>
        <time>2024-07-01T08:52:38Z</time>
      </trkpt>
      <trkpt lat="44.85524" lon="5.19103">
        <ele>711.4</ele>
        <time>2024-07-01T08:52:39Z</time>
      </trkpt>
      <trkpt lat="44.85525" lon="5.19103">
        <ele>711.4</ele>
        <time>2024-07-01T08:52:40Z</time>
      </trkpt>
      <trkpt lat="44.85526" lon="5.19103">
        <ele>711.5</ele>
        <time>2024-07-01T08:52:41Z</time>
      </trkpt>
      <trkpt lat="44.85529" lon="5.19102">
        <ele>711.6</ele>
        <time>2024-07-01T08:52:43Z</time>
      </trkpt>
      <trkpt lat="44.85531" lon="5.19102">
        <ele>711.7</ele>
        <time>2024-07-01T08:52:45Z</time>
      </trkpt>
      <trkpt lat="44.85532" lon="5.19102">
        <ele>711.7</ele>
        <time>2024-07-01T08:52:46Z</time>
      </trkpt>
      <trkpt lat="44.85533" lon="5.19102">
        <ele>711.8</ele>
        <time>2024-07-01T08:52:47Z</time>
      </trkpt>
      <trkpt lat="44.85534" lon="5.19102">
        <ele>711.8</ele>
        <time>2024-07-01T08:52:48Z</time>
      </trkpt>
      <trkpt lat="44.85535" lon="5.19102">
        <ele>711.9</ele>
        <time>2024-07-01T08:52:49Z</time>
      </trkpt>
      <trkpt lat="44.85536" lon="5.19101">
        <ele>711.9</ele>
        <time>2024-07-01T08:52:50Z</time>
      </trkpt>
      <trkpt lat="44.85538" lon="5.19102">
        <ele>712</ele>
        <time>2024-07-01T08:52:51Z</time>
      </trkpt>
      <trkpt lat="44.85539" lon="5.19102">
        <ele>712</ele>
        <time>2024-07-01T08:52:53Z</time>
      </trkpt>
      <trkpt lat="44.8554" lon="5.19102">
        <ele>712.1</ele>
        <time>2024-07-01T08:52:54Z</time>
      </trkpt>
      <trkpt lat="44.85542" lon="5.19102">
        <ele>712.2</ele>
        <time>2024-07-01T08:52:55Z</time>
      </trkpt>
      <trkpt lat="44.85544" lon="5.19102">
        <ele>712.3</ele>
        <time>2024-07-01T08:52:57Z</time>
      </trkpt>
      <trkpt lat="44.85544" lon="5.19102">
        <ele>712.3</ele>
        <time>2024-07-01T08:52:59Z</time>
      </trkpt>
      <trkpt lat="44.85546" lon="5.19103">
        <ele>712.4</ele>
        <time>2024-07-01T08:53:00Z</time>
      </trkpt>
      <trkpt lat="44.85548" lon="5.19104">
        <ele>712.5</ele>
        <time>2024-07-01T08:53:02Z</time>
      </trkpt>
      <trkpt lat="44.85549" lon="5.19105">
        <ele>712.5</ele>
        <time>2024-07-01T08:53:04Z</time>
      </trkpt>
      <trkpt lat="44.85549" lon="5.19106">
        <ele>712.6</ele>
        <time>2024-07-01T08:53:05Z</time>
      </trkpt>
      <trkpt lat="44.8555" lon="5.19107">
        <ele>712.6</ele>
        <time>2024-07-01T08:53:06Z</time>
      </trkpt>
      <trkpt lat="44.85552" lon="5.19107">
        <ele>712.7</ele>
        <time>2024-07-01T08:53:07Z</time>
      </trkpt>
      <trkpt lat="44.85553" lon="5.19106">
        <ele>712.8</ele>
        <time>2024-07-01T08:53:09Z</time>
      </trkpt>
      <trkpt lat="44.85553" lon="5.19105">
        <ele>712.8</ele>
        <time>2024-07-01T08:53:10Z</time>
      </trkpt>
      <trkpt lat="44.85553" lon="5.19104">
        <ele>712.9</ele>
        <time>2024-07-01T08:53:11Z</time>
      </trkpt>
      <trkpt lat="44.85553" lon="5.19105">
        <ele>712.9</ele>
        <time>2024-07-01T08:53:12Z</time>
      </trkpt>
      <trkpt lat="44.85552" lon="5.19105">
        <ele>712.9</ele>
        <time>2024-07-01T08:53:13Z</time>
      </trkpt>
      <trkpt lat="44.85552" lon="5.19105">
        <ele>712.9</ele>
        <time>2024-07-01T08:53:14Z</time>
      </trkpt>
      <trkpt lat="44.85552" lon="5.19105">
        <ele>712.9</ele>
        <time>2024-07-01T08:53:15Z</time>
      </trkpt>
      <trkpt lat="44.85552" lon="5.19105">
        <ele>712.9</ele>
        <time>2024-07-01T08:53:16Z</time>
      </trkpt>
      <trkpt lat="44.85552" lon="5.19105">
        <ele>712.9</ele>
        <time>2024-07-01T08:53:17Z</time>
      </trkpt>
      <trkpt lat="44.85552" lon="5.19105">
        <ele>712.9</ele>
        <time>2024-07-01T08:53:18Z</time>
      </trkpt>
      <trkpt lat="44.85552" lon="5.19105">
        <ele>713</ele>
        <time>2024-07-01T08:53:19Z</time>
      </trkpt>
      <trkpt lat="44.85553" lon="5.19104">
        <ele>713</ele>
        <time>2024-07-01T08:53:20Z</time>
      </trkpt>
      <trkpt lat="44.85553" lon="5.19104">
        <ele>713</ele>
        <time>2024-07-01T08:53:21Z</time>
      </trkpt>
      <trkpt lat="44.85553" lon="5.19104">
        <ele>713</ele>
        <time>2024-07-01T08:53:22Z</time>
      </trkpt>
      <trkpt lat="44.85552" lon="5.19104">
        <ele>713</ele>
        <time>2024-07-01T08:53:23Z</time>
      </trkpt>
      <trkpt lat="44.85552" lon="5.19104">
        <ele>713</ele>
        <time>2024-07-01T08:53:24Z</time>
      </trkpt>
      <trkpt lat="44.85552" lon="5.19104">
        <ele>713</ele>
        <time>2024-07-01T08:53:25Z</time>
      </trkpt>
      <trkpt lat="44.85552" lon="5.19104">
        <ele>713</ele>
        <time>2024-07-01T08:53:26Z</time>
      </trkpt>
      <trkpt lat="44.85552" lon="5.19104">
        <ele>713</ele>
        <time>2024-07-01T08:53:27Z</time>
      </trkpt>
      <trkpt lat="44.85552" lon="5.19104">
        <ele>713</ele>
        <time>2024-07-01T08:53:28Z</time>
      </trkpt>
      <trkpt lat="44.85553" lon="5.19104">
        <ele>713</ele>
        <time>2024-07-01T08:53:29Z</time>
      </trkpt>
      <trkpt lat="44.85553" lon="5.19104">
        <ele>713</ele>
        <time>2024-07-01T08:53:30Z</time>
      </trkpt>
      <trkpt lat="44.85553" lon="5.19105">
        <ele>713.1</ele>
        <time>2024-07-01T08:53:31Z</time>
      </trkpt>
      <trkpt lat="44.85553" lon="5.19105">
        <ele>713.1</ele>
        <time>2024-07-01T08:53:32Z</time>
      </trkpt>
      <trkpt lat="44.85552" lon="5.19105">
        <ele>713.1</ele>
        <time>2024-07-01T08:53:33Z</time>
      </trkpt>
      <trkpt lat="44.85552" lon="5.19105">
        <ele>713.1</ele>
        <time>2024-07-01T08:53:34Z</time>
      </trkpt>
      <trkpt lat="44.85552" lon="5.19105">
        <ele>713.1</ele>
        <time>2024-07-01T08:53:35Z</time>
      </trkpt>
      <trkpt lat="44.85552" lon="5.19104">
        <ele>713.1</ele>
        <time>2024-07-01T08:53:36Z</time>
      </trkpt>
      <trkpt lat="44.85553" lon="5.19104">
        <ele>713.1</ele>
        <time>2024-07-01T08:53:37Z</time>
      </trkpt>
      <trkpt lat="44.85553" lon="5.19104">
        <ele>713.1</ele>
        <time>2024-07-01T08:53:38Z</time>
      </trkpt>
      <trkpt lat="44.85553" lon="5.19104">
        <ele>713.1</ele>
        <time>2024-07-01T08:53:39Z</time>
      </trkpt>
      <trkpt lat="44.85553" lon="5.19104">
        <ele>713.1</ele>
        <time>2024-07-01T08:53:40Z</time>
      </trkpt>
      <trkpt lat="44.85553" lon="5.19104">
        <ele>713.2</ele>
        <time>2024-07-01T08:53:41Z</time>
      </trkpt>
      <trkpt lat="44.85553" lon="5.19104">
        <ele>713.2</ele>
        <time>2024-07-01T08:53:42Z</time>
      </trkpt>
      <trkpt lat="44.85553" lon="5.19104">
        <ele>713.2</ele>
        <time>2024-07-01T08:53:43Z</time>
      </trkpt>
      <trkpt lat="44.85553" lon="5.19104">
        <ele>713.2</ele>
        <time>2024-07-01T08:53:44Z</time>
      </trkpt>
      <trkpt lat="44.85553" lon="5.19104">
        <ele>713.2</ele>
        <time>2024-07-01T08:53:45Z</time>
      </trkpt>
      <trkpt lat="44.85554" lon="5.19104">
        <ele>713.2</ele>
        <time>2024-07-01T08:53:46Z</time>
      </trkpt>
      <trkpt lat="44.85554" lon="5.19104">
        <ele>713.2</ele>
        <time>2024-07-01T08:53:48Z</time>
      </trkpt>
      <trkpt lat="44.85554" lon="5.19104">
        <ele>713.3</ele>
        <time>2024-07-01T08:53:49Z</time>
      </trkpt>
      <trkpt lat="44.85555" lon="5.19104">
        <ele>713.3</ele>
        <time>2024-07-01T08:53:50Z</time>
      </trkpt>
      <trkpt lat="44.85555" lon="5.19104">
        <ele>713.3</ele>
        <time>2024-07-01T08:53:51Z</time>
      </trkpt>
      <trkpt lat="44.85555" lon="5.19104">
        <ele>713.3</ele>
        <time>2024-07-01T08:53:52Z</time>
      </trkpt>
      <trkpt lat="44.85555" lon="5.19104">
        <ele>713.3</ele>
        <time>2024-07-01T08:53:53Z</time>
      </trkpt>
      <trkpt lat="44.85555" lon="5.19104">
        <ele>713.3</ele>
        <time>2024-07-01T08:53:54Z</time>
      </trkpt>
      <trkpt lat="44.85555" lon="5.19104">
        <ele>713.3</ele>
        <time>2024-07-01T08:53:55Z</time>
      </trkpt>
      <trkpt lat="44.85555" lon="5.19104">
        <ele>713.3</ele>
        <time>2024-07-01T08:53:56Z</time>
      </trkpt>
      <trkpt lat="44.85555" lon="5.19104">
        <ele>713.3</ele>
        <time>2024-07-01T08:53:58Z</time>
      </trkpt>
      <trkpt lat="44.85556" lon="5.19104">
        <ele>713.4</ele>
        <time>2024-07-01T08:53:59Z</time>
      </trkpt>
      <trkpt lat="44.85557" lon="5.19103">
        <ele>713.5</ele>
        <time>2024-07-01T08:54:00Z</time>
      </trkpt>
      <trkpt lat="44.85556" lon="5.19102">
        <ele>713.5</ele>
        <time>2024-07-01T08:54:02Z</time>
      </trkpt>
      <trkpt lat="44.85555" lon="5.19102">
        <ele>713.6</ele>
        <time>2024-07-01T08:54:03Z</time>
      </trkpt>
      <trkpt lat="44.85554" lon="5.19101">
        <ele>713.7</ele>
        <time>2024-07-01T08:54:04Z</time>
      </trkpt>
      <trkpt lat="44.85553" lon="5.19101">
        <ele>713.8</ele>
        <time>2024-07-01T08:54:05Z</time>
      </trkpt>
      <trkpt lat="44.85551" lon="5.19102">
        <ele>714</ele>
        <time>2024-07-01T08:54:06Z</time>
      </trkpt>
      <trkpt lat="44.85551" lon="5.19103">
        <ele>714.1</ele>
        <time>2024-07-01T08:54:07Z</time>
      </trkpt>
      <trkpt lat="44.8555" lon="5.19104">
        <ele>714.1</ele>
        <time>2024-07-01T08:54:08Z</time>
      </trkpt>
      <trkpt lat="44.85551" lon="5.19108">
        <ele>714.4</ele>
        <time>2024-07-01T08:54:09Z</time>
      </trkpt>
      <trkpt lat="44.85551" lon="5.1911">
        <ele>714.5</ele>
        <time>2024-07-01T08:54:11Z</time>
      </trkpt>
      <trkpt lat="44.85551" lon="5.19111">
        <ele>714.6</ele>
        <time>2024-07-01T08:54:12Z</time>
      </trkpt>
      <trkpt lat="44.85552" lon="5.19113">
        <ele>714.7</ele>
        <time>2024-07-01T08:54:13Z</time>
      </trkpt>
      <trkpt lat="44.85552" lon="5.19114">
        <ele>714.8</ele>
        <time>2024-07-01T08:54:15Z</time>
      </trkpt>
      <trkpt lat="44.85553" lon="5.19115">
        <ele>714.9</ele>
        <time>2024-07-01T08:54:16Z</time>
      </trkpt>
      <trkpt lat="44.85553" lon="5.19115">
        <ele>714.9</ele>
        <time>2024-07-01T08:54:17Z</time>
      </trkpt>
      <trkpt lat="44.85554" lon="5.19115">
        <ele>715</ele>
        <time>2024-07-01T08:54:18Z</time>
      </trkpt>
      <trkpt lat="44.85555" lon="5.19115">
        <ele>715.1</ele>
        <time>2024-07-01T08:54:20Z</time>
      </trkpt>
      <trkpt lat="44.85556" lon="5.19114">
        <ele>715.2</ele>
        <time>2024-07-01T08:54:21Z</time>
      </trkpt>
      <trkpt lat="44.85558" lon="5.19113">
        <ele>715.4</ele>
        <time>2024-07-01T08:54:22Z</time>
      </trkpt>
      <trkpt lat="44.85559" lon="5.19112">
        <ele>715.5</ele>
        <time>2024-07-01T08:54:23Z</time>
      </trkpt>
      <trkpt lat="44.8556" lon="5.19111">
        <ele>715.7</ele>
        <time>2024-07-01T08:54:24Z</time>
      </trkpt>
      <trkpt lat="44.8556" lon="5.19111">
        <ele>715.7</ele>
        <time>2024-07-01T08:54:25Z</time>
      </trkpt>
      <trkpt lat="44.85561" lon="5.1911">
        <ele>715.7</ele>
        <time>2024-07-01T08:54:26Z</time>
      </trkpt>
      <trkpt lat="44.85561" lon="5.1911">
        <ele>715.8</ele>
        <time>2024-07-01T08:54:27Z</time>
      </trkpt>
      <trkpt lat="44.85562" lon="5.1911">
        <ele>715.8</ele>
        <time>2024-07-01T08:54:28Z</time>
      </trkpt>
      <trkpt lat="44.85562" lon="5.19109">
        <ele>715.9</ele>
        <time>2024-07-01T08:54:29Z</time>
      </trkpt>
      <trkpt lat="44.85562" lon="5.19109">
        <ele>715.9</ele>
        <time>2024-07-01T08:54:30Z</time>
      </trkpt>
      <trkpt lat="44.85564" lon="5.19109">
        <ele>716</ele>
        <time>2024-07-01T08:54:31Z</time>
      </trkpt>
      <trkpt lat="44.85565" lon="5.19108">
        <ele>716.2</ele>
        <time>2024-07-01T08:54:32Z</time>
      </trkpt>
      <trkpt lat="44.85565" lon="5.19108">
        <ele>716.2</ele>
        <time>2024-07-01T08:54:33Z</time>
      </trkpt>
      <trkpt lat="44.85566" lon="5.19108">
        <ele>716.3</ele>
        <time>2024-07-01T08:54:34Z</time>
      </trkpt>
      <trkpt lat="44.85568" lon="5.19108">
        <ele>716.5</ele>
        <time>2024-07-01T08:54:36Z</time>
      </trkpt>
      <trkpt lat="44.85569" lon="5.19108">
        <ele>716.6</ele>
        <time>2024-07-01T08:54:37Z</time>
      </trkpt>
      <trkpt lat="44.8557" lon="5.19108">
        <ele>716.6</ele>
        <time>2024-07-01T08:54:38Z</time>
      </trkpt>
      <trkpt lat="44.8557" lon="5.19108">
        <ele>716.7</ele>
        <time>2024-07-01T08:54:39Z</time>
      </trkpt>
      <trkpt lat="44.85571" lon="5.19108">
        <ele>716.8</ele>
        <time>2024-07-01T08:54:40Z</time>
      </trkpt>
      <trkpt lat="44.85571" lon="5.19108">
        <ele>716.8</ele>
        <time>2024-07-01T08:54:41Z</time>
      </trkpt>
      <trkpt lat="44.85571" lon="5.19108">
        <ele>716.8</ele>
        <time>2024-07-01T08:54:42Z</time>
      </trkpt>
      <trkpt lat="44.85571" lon="5.19108">
        <ele>716.8</ele>
        <time>2024-07-01T08:54:43Z</time>
      </trkpt>
      <trkpt lat="44.85572" lon="5.19108">
        <ele>716.9</ele>
        <time>2024-07-01T08:54:45Z</time>
      </trkpt>
      <trkpt lat="44.85572" lon="5.19108">
        <ele>716.9</ele>
        <time>2024-07-01T08:54:46Z</time>
      </trkpt>
      <trkpt lat="44.85573" lon="5.19109">
        <ele>717</ele>
        <time>2024-07-01T08:54:47Z</time>
      </trkpt>
      <trkpt lat="44.85573" lon="5.19109">
        <ele>717</ele>
        <time>2024-07-01T08:54:48Z</time>
      </trkpt>
      <trkpt lat="44.85573" lon="5.1911">
        <ele>717.1</ele>
        <time>2024-07-01T08:54:49Z</time>
      </trkpt>
      <trkpt lat="44.85573" lon="5.1911">
        <ele>717.1</ele>
        <time>2024-07-01T08:54:50Z</time>
      </trkpt>
      <trkpt lat="44.85573" lon="5.1911">
        <ele>717.1</ele>
        <time>2024-07-01T08:54:51Z</time>
      </trkpt>
      <trkpt lat="44.85574" lon="5.19111">
        <ele>717.2</ele>
        <time>2024-07-01T08:54:52Z</time>
      </trkpt>
      <trkpt lat="44.85574" lon="5.19111">
        <ele>717.2</ele>
        <time>2024-07-01T08:54:54Z</time>
      </trkpt>
      <trkpt lat="44.85575" lon="5.19111">
        <ele>717.2</ele>
        <time>2024-07-01T08:54:55Z</time>
      </trkpt>
      <trkpt lat="44.85575" lon="5.19112">
        <ele>717.3</ele>
        <time>2024-07-01T08:54:56Z</time>
      </trkpt>
      <trkpt lat="44.85575" lon="5.19113">
        <ele>717.4</ele>
        <time>2024-07-01T08:54:57Z</time>
      </trkpt>
      <trkpt lat="44.85575" lon="5.19113">
        <ele>717.4</ele>
        <time>2024-07-01T08:54:58Z</time>
      </trkpt>
      <trkpt lat="44.85576" lon="5.19114">
        <ele>717.4</ele>
        <time>2024-07-01T08:54:59Z</time>
      </trkpt>
      <trkpt lat="44.85576" lon="5.19114">
        <ele>717.4</ele>
        <time>2024-07-01T08:55:01Z</time>
      </trkpt>
      <trkpt lat="44.85577" lon="5.19115">
        <ele>717.6</ele>
        <time>2024-07-01T08:55:02Z</time>
      </trkpt>
      <trkpt lat="44.85577" lon="5.19116">
        <ele>717.6</ele>
        <time>2024-07-01T08:55:03Z</time>
      </trkpt>
      <trkpt lat="44.85577" lon="5.19116">
        <ele>717.6</ele>
        <time>2024-07-01T08:55:04Z</time>
      </trkpt>
      <trkpt lat="44.85578" lon="5.19117">
        <ele>717.8</ele>
        <time>2024-07-01T08:55:05Z</time>
      </trkpt>
      <trkpt lat="44.85578" lon="5.19117">
        <ele>717.8</ele>
        <time>2024-07-01T08:55:06Z</time>
      </trkpt>
      <trkpt lat="44.85579" lon="5.19119">
        <ele>717.9</ele>
        <time>2024-07-01T08:55:07Z</time>
      </trkpt>
      <trkpt lat="44.8558" lon="5.1912">
        <ele>718</ele>
        <time>2024-07-01T08:55:08Z</time>
      </trkpt>
      <trkpt lat="44.8558" lon="5.1912">
        <ele>718</ele>
        <time>2024-07-01T08:55:09Z</time>
      </trkpt>
      <trkpt lat="44.8558" lon="5.19121">
        <ele>718.1</ele>
        <time>2024-07-01T08:55:10Z</time>
      </trkpt>
      <trkpt lat="44.8558" lon="5.19121">
        <ele>718.1</ele>
        <time>2024-07-01T08:55:11Z</time>
      </trkpt>
      <trkpt lat="44.8558" lon="5.19122">
        <ele>718.2</ele>
        <time>2024-07-01T08:55:12Z</time>
      </trkpt>
      <trkpt lat="44.8558" lon="5.19123">
        <ele>718.2</ele>
        <time>2024-07-01T08:55:13Z</time>
      </trkpt>
      <trkpt lat="44.8558" lon="5.19123">
        <ele>718.3</ele>
        <time>2024-07-01T08:55:14Z</time>
      </trkpt>
      <trkpt lat="44.8558" lon="5.19123">
        <ele>718.3</ele>
        <time>2024-07-01T08:55:15Z</time>
      </trkpt>
      <trkpt lat="44.8558" lon="5.19123">
        <ele>718.3</ele>
        <time>2024-07-01T08:55:16Z</time>
      </trkpt>
      <trkpt lat="44.8558" lon="5.19124">
        <ele>718.4</ele>
        <time>2024-07-01T08:55:17Z</time>
      </trkpt>
      <trkpt lat="44.8558" lon="5.19125">
        <ele>718.4</ele>
        <time>2024-07-01T08:55:18Z</time>
      </trkpt>
      <trkpt lat="44.8558" lon="5.19126">
        <ele>718.5</ele>
        <time>2024-07-01T08:55:19Z</time>
      </trkpt>
      <trkpt lat="44.8558" lon="5.19127">
        <ele>718.5</ele>
        <time>2024-07-01T08:55:21Z</time>
      </trkpt>
      <trkpt lat="44.8558" lon="5.19127">
        <ele>718.6</ele>
        <time>2024-07-01T08:55:22Z</time>
      </trkpt>
      <trkpt lat="44.8558" lon="5.19128">
        <ele>718.6</ele>
        <time>2024-07-01T08:55:23Z</time>
      </trkpt>
      <trkpt lat="44.8558" lon="5.19128">
        <ele>718.7</ele>
        <time>2024-07-01T08:55:24Z</time>
      </trkpt>
      <trkpt lat="44.85579" lon="5.19129">
        <ele>718.7</ele>
        <time>2024-07-01T08:55:25Z</time>
      </trkpt>
      <trkpt lat="44.85579" lon="5.19129">
        <ele>718.7</ele>
        <time>2024-07-01T08:55:26Z</time>
      </trkpt>
      <trkpt lat="44.85579" lon="5.1913">
        <ele>718.8</ele>
        <time>2024-07-01T08:55:27Z</time>
      </trkpt>
      <trkpt lat="44.85579" lon="5.19131">
        <ele>718.8</ele>
        <time>2024-07-01T08:55:28Z</time>
      </trkpt>
      <trkpt lat="44.85579" lon="5.19131">
        <ele>718.9</ele>
        <time>2024-07-01T08:55:29Z</time>
      </trkpt>
      <trkpt lat="44.85579" lon="5.19132">
        <ele>718.9</ele>
        <time>2024-07-01T08:55:30Z</time>
      </trkpt>
      <trkpt lat="44.85579" lon="5.19132">
        <ele>718.9</ele>
        <time>2024-07-01T08:55:31Z</time>
      </trkpt>
      <trkpt lat="44.85579" lon="5.19133">
        <ele>719</ele>
        <time>2024-07-01T08:55:32Z</time>
      </trkpt>
      <trkpt lat="44.85579" lon="5.19134">
        <ele>719</ele>
        <time>2024-07-01T08:55:33Z</time>
      </trkpt>
      <trkpt lat="44.85579" lon="5.19134">
        <ele>719.1</ele>
        <time>2024-07-01T08:55:34Z</time>
      </trkpt>
      <trkpt lat="44.85579" lon="5.19135">
        <ele>719.1</ele>
        <time>2024-07-01T08:55:35Z</time>
      </trkpt>
      <trkpt lat="44.85579" lon="5.19135">
        <ele>719.1</ele>
        <time>2024-07-01T08:55:36Z</time>
      </trkpt>
      <trkpt lat="44.85578" lon="5.19136">
        <ele>719.2</ele>
        <time>2024-07-01T08:55:37Z</time>
      </trkpt>
      <trkpt lat="44.85578" lon="5.19136">
        <ele>719.2</ele>
        <time>2024-07-01T08:55:38Z</time>
      </trkpt>
      <trkpt lat="44.85578" lon="5.19137">
        <ele>719.3</ele>
        <time>2024-07-01T08:55:39Z</time>
      </trkpt>
      <trkpt lat="44.85578" lon="5.19138">
        <ele>719.3</ele>
        <time>2024-07-01T08:55:40Z</time>
      </trkpt>
      <trkpt lat="44.85578" lon="5.19138">
        <ele>719.3</ele>
        <time>2024-07-01T08:55:41Z</time>
      </trkpt>
      <trkpt lat="44.85578" lon="5.19139">
        <ele>719.4</ele>
        <time>2024-07-01T08:55:42Z</time>
      </trkpt>
      <trkpt lat="44.85578" lon="5.19139">
        <ele>719.4</ele>
        <time>2024-07-01T08:55:43Z</time>
      </trkpt>
      <trkpt lat="44.85577" lon="5.19147">
        <ele>719.9</ele>
        <time>2024-07-01T08:55:44Z</time>
      </trkpt>
      <trkpt lat="44.85577" lon="5.1915">
        <ele>720.2</ele>
        <time>2024-07-01T08:55:45Z</time>
      </trkpt>
      <trkpt lat="44.85577" lon="5.19151">
        <ele>720.2</ele>
        <time>2024-07-01T08:55:46Z</time>
      </trkpt>
      <trkpt lat="44.85577" lon="5.19151">
        <ele>720.3</ele>
        <time>2024-07-01T08:55:47Z</time>
      </trkpt>
      <trkpt lat="44.85578" lon="5.19151">
        <ele>720.3</ele>
        <time>2024-07-01T08:55:48Z</time>
      </trkpt>
      <trkpt lat="44.85578" lon="5.19151">
        <ele>720.4</ele>
        <time>2024-07-01T08:55:49Z</time>
      </trkpt>
      <trkpt lat="44.85579" lon="5.19151">
        <ele>720.4</ele>
        <time>2024-07-01T08:55:50Z</time>
      </trkpt>
      <trkpt lat="44.85579" lon="5.19151">
        <ele>720.4</ele>
        <time>2024-07-01T08:55:51Z</time>
      </trkpt>
      <trkpt lat="44.8558" lon="5.19151">
        <ele>720.5</ele>
        <time>2024-07-01T08:55:52Z</time>
      </trkpt>
      <trkpt lat="44.8558" lon="5.19151">
        <ele>720.5</ele>
        <time>2024-07-01T08:55:53Z</time>
      </trkpt>
      <trkpt lat="44.8558" lon="5.19151">
        <ele>720.6</ele>
        <time>2024-07-01T08:55:54Z</time>
      </trkpt>
      <trkpt lat="44.85581" lon="5.19152">
        <ele>720.7</ele>
        <time>2024-07-01T08:55:55Z</time>
      </trkpt>
      <trkpt lat="44.85582" lon="5.19152">
        <ele>720.7</ele>
        <time>2024-07-01T08:55:56Z</time>
      </trkpt>
      <trkpt lat="44.85582" lon="5.19153">
        <ele>720.7</ele>
        <time>2024-07-01T08:55:57Z</time>
      </trkpt>
      <trkpt lat="44.85582" lon="5.19153">
        <ele>720.7</ele>
        <time>2024-07-01T08:55:58Z</time>
      </trkpt>
      <trkpt lat="44.85582" lon="5.19153">
        <ele>720.8</ele>
        <time>2024-07-01T08:55:59Z</time>
      </trkpt>
      <trkpt lat="44.85582" lon="5.19153">
        <ele>720.8</ele>
        <time>2024-07-01T08:56:00Z</time>
      </trkpt>
      <trkpt lat="44.85582" lon="5.19153">
        <ele>720.8</ele>
        <time>2024-07-01T08:56:01Z</time>
      </trkpt>
      <trkpt lat="44.85582" lon="5.19154">
        <ele>720.8</ele>
        <time>2024-07-01T08:56:02Z</time>
      </trkpt>
      <trkpt lat="44.85582" lon="5.19153">
        <ele>720.8</ele>
        <time>2024-07-01T08:56:03Z</time>
      </trkpt>
      <trkpt lat="44.85583" lon="5.19154">
        <ele>720.8</ele>
        <time>2024-07-01T08:56:04Z</time>
      </trkpt>
      <trkpt lat="44.85583" lon="5.19154">
        <ele>720.9</ele>
        <time>2024-07-01T08:56:05Z</time>
      </trkpt>
      <trkpt lat="44.85584" lon="5.19155">
        <ele>721</ele>
        <time>2024-07-01T08:56:06Z</time>
      </trkpt>
      <trkpt lat="44.85584" lon="5.19156">
        <ele>721.1</ele>
        <time>2024-07-01T08:56:07Z</time>
      </trkpt>
      <trkpt lat="44.85585" lon="5.19157">
        <ele>721.1</ele>
        <time>2024-07-01T08:56:08Z</time>
      </trkpt>
      <trkpt lat="44.85586" lon="5.19158">
        <ele>721.2</ele>
        <time>2024-07-01T08:56:09Z</time>
      </trkpt>
      <trkpt lat="44.85586" lon="5.19158">
        <ele>721.2</ele>
        <time>2024-07-01T08:56:10Z</time>
      </trkpt>
      <trkpt lat="44.85586" lon="5.19158">
        <ele>721.3</ele>
        <time>2024-07-01T08:56:11Z</time>
      </trkpt>
      <trkpt lat="44.85587" lon="5.19158">
        <ele>721.3</ele>
        <time>2024-07-01T08:56:12Z</time>
      </trkpt>
      <trkpt lat="44.85587" lon="5.19158">
        <ele>721.3</ele>
        <time>2024-07-01T08:56:13Z</time>
      </trkpt>
      <trkpt lat="44.85587" lon="5.19158">
        <ele>721.3</ele>
        <time>2024-07-01T08:56:14Z</time>
      </trkpt>
      <trkpt lat="44.85588" lon="5.19158">
        <ele>721.3</ele>
        <time>2024-07-01T08:56:15Z</time>
      </trkpt>
      <trkpt lat="44.85588" lon="5.19158">
        <ele>721.4</ele>
        <time>2024-07-01T08:56:16Z</time>
      </trkpt>
      <trkpt lat="44.85588" lon="5.19158">
        <ele>721.4</ele>
        <time>2024-07-01T08:56:17Z</time>
      </trkpt>
      <trkpt lat="44.85588" lon="5.19158">
        <ele>721.4</ele>
        <time>2024-07-01T08:56:18Z</time>
      </trkpt>
      <trkpt lat="44.85589" lon="5.19158">
        <ele>721.4</ele>
        <time>2024-07-01T08:56:19Z</time>
      </trkpt>
      <trkpt lat="44.85589" lon="5.19158">
        <ele>721.5</ele>
        <time>2024-07-01T08:56:20Z</time>
      </trkpt>
      <trkpt lat="44.85589" lon="5.19158">
        <ele>721.5</ele>
        <time>2024-07-01T08:56:21Z</time>
      </trkpt>
      <trkpt lat="44.85589" lon="5.19158">
        <ele>721.5</ele>
        <time>2024-07-01T08:56:22Z</time>
      </trkpt>
      <trkpt lat="44.8559" lon="5.19158">
        <ele>721.5</ele>
        <time>2024-07-01T08:56:23Z</time>
      </trkpt>
      <trkpt lat="44.8559" lon="5.19158">
        <ele>721.5</ele>
        <time>2024-07-01T08:56:24Z</time>
      </trkpt>
      <trkpt lat="44.8559" lon="5.19158">
        <ele>721.6</ele>
        <time>2024-07-01T08:56:25Z</time>
      </trkpt>
      <trkpt lat="44.85591" lon="5.19158">
        <ele>721.6</ele>
        <time>2024-07-01T08:56:26Z</time>
      </trkpt>
      <trkpt lat="44.85591" lon="5.19158">
        <ele>721.6</ele>
        <time>2024-07-01T08:56:27Z</time>
      </trkpt>
      <trkpt lat="44.85591" lon="5.19158">
        <ele>721.6</ele>
        <time>2024-07-01T08:56:28Z</time>
      </trkpt>
      <trkpt lat="44.85591" lon="5.19158">
        <ele>721.7</ele>
        <time>2024-07-01T08:56:29Z</time>
      </trkpt>
      <trkpt lat="44.85592" lon="5.19158">
        <ele>721.7</ele>
        <time>2024-07-01T08:56:30Z</time>
      </trkpt>
      <trkpt lat="44.85592" lon="5.19158">
        <ele>721.7</ele>
        <time>2024-07-01T08:56:31Z</time>
      </trkpt>
      <trkpt lat="44.85592" lon="5.19158">
        <ele>721.7</ele>
        <time>2024-07-01T08:56:32Z</time>
      </trkpt>
      <trkpt lat="44.85593" lon="5.19158">
        <ele>721.7</ele>
        <time>2024-07-01T08:56:33Z</time>
      </trkpt>
      <trkpt lat="44.85593" lon="5.19158">
        <ele>721.8</ele>
        <time>2024-07-01T08:56:34Z</time>
      </trkpt>
      <trkpt lat="44.85593" lon="5.19158">
        <ele>721.8</ele>
        <time>2024-07-01T08:56:35Z</time>
      </trkpt>
      <trkpt lat="44.85593" lon="5.19158">
        <ele>721.8</ele>
        <time>2024-07-01T08:56:36Z</time>
      </trkpt>
      <trkpt lat="44.85594" lon="5.19158">
        <ele>721.8</ele>
        <time>2024-07-01T08:56:37Z</time>
      </trkpt>
      <trkpt lat="44.85594" lon="5.19158">
        <ele>721.9</ele>
        <time>2024-07-01T08:56:38Z</time>
      </trkpt>
      <trkpt lat="44.85594" lon="5.19158">
        <ele>721.9</ele>
        <time>2024-07-01T08:56:39Z</time>
      </trkpt>
      <trkpt lat="44.85597" lon="5.19159">
        <ele>722.1</ele>
        <time>2024-07-01T08:56:40Z</time>
      </trkpt>
      <trkpt lat="44.85598" lon="5.19159">
        <ele>722.2</ele>
        <time>2024-07-01T08:56:42Z</time>
      </trkpt>
      <trkpt lat="44.85599" lon="5.19159">
        <ele>722.3</ele>
        <time>2024-07-01T08:56:43Z</time>
      </trkpt>
      <trkpt lat="44.85599" lon="5.19159">
        <ele>722.3</ele>
        <time>2024-07-01T08:56:44Z</time>
      </trkpt>
      <trkpt lat="44.85598" lon="5.19159">
        <ele>722.3</ele>
        <time>2024-07-01T08:56:45Z</time>
      </trkpt>
      <trkpt lat="44.85598" lon="5.19159">
        <ele>722.3</ele>
        <time>2024-07-01T08:56:46Z</time>
      </trkpt>
      <trkpt lat="44.85598" lon="5.19159">
        <ele>722.3</ele>
        <time>2024-07-01T08:56:47Z</time>
      </trkpt>
      <trkpt lat="44.85597" lon="5.19159">
        <ele>722.4</ele>
        <time>2024-07-01T08:56:48Z</time>
      </trkpt>
      <trkpt lat="44.85597" lon="5.19159">
        <ele>722.4</ele>
        <time>2024-07-01T08:56:49Z</time>
      </trkpt>
      <trkpt lat="44.85597" lon="5.19159">
        <ele>722.4</ele>
        <time>2024-07-01T08:56:50Z</time>
      </trkpt>
      <trkpt lat="44.85597" lon="5.19159">
        <ele>722.4</ele>
        <time>2024-07-01T08:56:51Z</time>
      </trkpt>
      <trkpt lat="44.85596" lon="5.19159">
        <ele>722.5</ele>
        <time>2024-07-01T08:56:52Z</time>
      </trkpt>
      <trkpt lat="44.85596" lon="5.19159">
        <ele>722.5</ele>
        <time>2024-07-01T08:56:53Z</time>
      </trkpt>
      <trkpt lat="44.85596" lon="5.19159">
        <ele>722.5</ele>
        <time>2024-07-01T08:56:54Z</time>
      </trkpt>
      <trkpt lat="44.85596" lon="5.19159">
        <ele>722.5</ele>
        <time>2024-07-01T08:56:55Z</time>
      </trkpt>
      <trkpt lat="44.85595" lon="5.19159">
        <ele>722.6</ele>
        <time>2024-07-01T08:56:56Z</time>
      </trkpt>
      <trkpt lat="44.85595" lon="5.19159">
        <ele>722.6</ele>
        <time>2024-07-01T08:56:57Z</time>
      </trkpt>
      <trkpt lat="44.85595" lon="5.19159">
        <ele>722.6</ele>
        <time>2024-07-01T08:56:58Z</time>
      </trkpt>
      <trkpt lat="44.85594" lon="5.19159">
        <ele>722.6</ele>
        <time>2024-07-01T08:56:59Z</time>
      </trkpt>
      <trkpt lat="44.85594" lon="5.19159">
        <ele>722.6</ele>
        <time>2024-07-01T08:57:00Z</time>
      </trkpt>
      <trkpt lat="44.85594" lon="5.19159">
        <ele>722.7</ele>
        <time>2024-07-01T08:57:01Z</time>
      </trkpt>
      <trkpt lat="44.85594" lon="5.19159">
        <ele>722.7</ele>
        <time>2024-07-01T08:57:02Z</time>
      </trkpt>
      <trkpt lat="44.85593" lon="5.19159">
        <ele>722.7</ele>
        <time>2024-07-01T08:57:03Z</time>
      </trkpt>
      <trkpt lat="44.85593" lon="5.19159">
        <ele>722.7</ele>
        <time>2024-07-01T08:57:04Z</time>
      </trkpt>
      <trkpt lat="44.85593" lon="5.19159">
        <ele>722.8</ele>
        <time>2024-07-01T08:57:05Z</time>
      </trkpt>
      <trkpt lat="44.85592" lon="5.19158">
        <ele>722.8</ele>
        <time>2024-07-01T08:57:06Z</time>
      </trkpt>
      <trkpt lat="44.8559" lon="5.19158">
        <ele>723</ele>
        <time>2024-07-01T08:57:07Z</time>
      </trkpt>
      <trkpt lat="44.85588" lon="5.19158">
        <ele>723.1</ele>
        <time>2024-07-01T08:57:08Z</time>
      </trkpt>
      <trkpt lat="44.85587" lon="5.19157">
        <ele>723.2</ele>
        <time>2024-07-01T08:57:09Z</time>
      </trkpt>
      <trkpt lat="44.85587" lon="5.19157">
        <ele>723.2</ele>
        <time>2024-07-01T08:57:10Z</time>
      </trkpt>
      <trkpt lat="44.85587" lon="5.19157">
        <ele>723.2</ele>
        <time>2024-07-01T08:57:11Z</time>
      </trkpt>
      <trkpt lat="44.85587" lon="5.19157">
        <ele>723.2</ele>
        <time>2024-07-01T08:57:12Z</time>
      </trkpt>
      <trkpt lat="44.85587" lon="5.19157">
        <ele>723.2</ele>
        <time>2024-07-01T08:57:13Z</time>
      </trkpt>
      <trkpt lat="44.85587" lon="5.19157">
        <ele>723.2</ele>
        <time>2024-07-01T08:57:14Z</time>
      </trkpt>
      <trkpt lat="44.85587" lon="5.19157">
        <ele>723.2</ele>
        <time>2024-07-01T08:57:15Z</time>
      </trkpt>
      <trkpt lat="44.85587" lon="5.19157">
        <ele>723.2</ele>
        <time>2024-07-01T08:57:16Z</time>
      </trkpt>
      <trkpt lat="44.85587" lon="5.19157">
        <ele>723.2</ele>
        <time>2024-07-01T08:57:17Z</time>
      </trkpt>
      <trkpt lat="44.85587" lon="5.19157">
        <ele>723.2</ele>
        <time>2024-07-01T08:57:18Z</time>
      </trkpt>
      <trkpt lat="44.85587" lon="5.19157">
        <ele>723.2</ele>
        <time>2024-07-01T08:57:19Z</time>
      </trkpt>
      <trkpt lat="44.85587" lon="5.19157">
        <ele>723.2</ele>
        <time>2024-07-01T08:57:20Z</time>
      </trkpt>
      <trkpt lat="44.85587" lon="5.19157">
        <ele>723.2</ele>
        <time>2024-07-01T08:57:21Z</time>
      </trkpt>
      <trkpt lat="44.85587" lon="5.19157">
        <ele>723.3</ele>
        <time>2024-07-01T08:57:22Z</time>
      </trkpt>
      <trkpt lat="44.85588" lon="5.19156">
        <ele>723.3</ele>
        <time>2024-07-01T08:57:23Z</time>
      </trkpt>
      <trkpt lat="44.85589" lon="5.19156">
        <ele>723.4</ele>
        <time>2024-07-01T08:57:24Z</time>
      </trkpt>
      <trkpt lat="44.85589" lon="5.19158">
        <ele>723.5</ele>
        <time>2024-07-01T08:57:25Z</time>
      </trkpt>
      <trkpt lat="44.8559" lon="5.19158">
        <ele>723.5</ele>
        <time>2024-07-01T08:57:26Z</time>
      </trkpt>
      <trkpt lat="44.8559" lon="5.19158">
        <ele>723.5</ele>
        <time>2024-07-01T08:57:27Z</time>
      </trkpt>
      <trkpt lat="44.85591" lon="5.19158">
        <ele>723.6</ele>
        <time>2024-07-01T08:57:28Z</time>
      </trkpt>
      <trkpt lat="44.85591" lon="5.19158">
        <ele>723.6</ele>
        <time>2024-07-01T08:57:29Z</time>
      </trkpt>
      <trkpt lat="44.85591" lon="5.19159">
        <ele>723.6</ele>
        <time>2024-07-01T08:57:31Z</time>
      </trkpt>
      <trkpt lat="44.85593" lon="5.19158">
        <ele>723.7</ele>
        <time>2024-07-01T08:57:32Z</time>
      </trkpt>
      <trkpt lat="44.85594" lon="5.19158">
        <ele>723.8</ele>
        <time>2024-07-01T08:57:34Z</time>
      </trkpt>
      <trkpt lat="44.85595" lon="5.19158">
        <ele>723.9</ele>
        <time>2024-07-01T08:57:35Z</time>
      </trkpt>
      <trkpt lat="44.85596" lon="5.19158">
        <ele>723.9</ele>
        <time>2024-07-01T08:57:36Z</time>
      </trkpt>
      <trkpt lat="44.85596" lon="5.19158">
        <ele>723.9</ele>
        <time>2024-07-01T08:57:37Z</time>
      </trkpt>
      <trkpt lat="44.85599" lon="5.19157">
        <ele>724</ele>
        <time>2024-07-01T08:57:38Z</time>
      </trkpt>
      <trkpt lat="44.856" lon="5.19157">
        <ele>724</ele>
        <time>2024-07-01T08:57:40Z</time>
      </trkpt>
      <trkpt lat="44.85601" lon="5.19157">
        <ele>724.1</ele>
        <time>2024-07-01T08:57:41Z</time>
      </trkpt>
      <trkpt lat="44.85602" lon="5.19156">
        <ele>724.1</ele>
        <time>2024-07-01T08:57:42Z</time>
      </trkpt>
      <trkpt lat="44.85602" lon="5.19156">
        <ele>724.2</ele>
        <time>2024-07-01T08:57:43Z</time>
      </trkpt>
      <trkpt lat="44.85602" lon="5.19155">
        <ele>724.2</ele>
        <time>2024-07-01T08:57:44Z</time>
      </trkpt>
      <trkpt lat="44.85602" lon="5.19155">
        <ele>724.2</ele>
        <time>2024-07-01T08:57:45Z</time>
      </trkpt>
      <trkpt lat="44.85602" lon="5.19156">
        <ele>724.2</ele>
        <time>2024-07-01T08:57:46Z</time>
      </trkpt>
      <trkpt lat="44.85603" lon="5.19156">
        <ele>724.2</ele>
        <time>2024-07-01T08:57:47Z</time>
      </trkpt>
      <trkpt lat="44.85604" lon="5.19156">
        <ele>724.3</ele>
        <time>2024-07-01T08:57:48Z</time>
      </trkpt>
      <trkpt lat="44.85604" lon="5.19156">
        <ele>724.3</ele>
        <time>2024-07-01T08:57:49Z</time>
      </trkpt>
      <trkpt lat="44.85605" lon="5.19156">
        <ele>724.3</ele>
        <time>2024-07-01T08:57:50Z</time>
      </trkpt>
      <trkpt lat="44.85606" lon="5.19156">
        <ele>724.3</ele>
        <time>2024-07-01T08:57:51Z</time>
      </trkpt>
      <trkpt lat="44.85607" lon="5.19155">
        <ele>724.4</ele>
        <time>2024-07-01T08:57:52Z</time>
      </trkpt>
      <trkpt lat="44.85607" lon="5.19154">
        <ele>724.4</ele>
        <time>2024-07-01T08:57:54Z</time>
      </trkpt>
      <trkpt lat="44.85608" lon="5.19153">
        <ele>724.4</ele>
        <time>2024-07-01T08:57:55Z</time>
      </trkpt>
      <trkpt lat="44.85609" lon="5.19152">
        <ele>724.5</ele>
        <time>2024-07-01T08:57:56Z</time>
      </trkpt>
      <trkpt lat="44.85611" lon="5.19153">
        <ele>724.6</ele>
        <time>2024-07-01T08:57:58Z</time>
      </trkpt>
      <trkpt lat="44.85612" lon="5.19153">
        <ele>724.6</ele>
        <time>2024-07-01T08:57:59Z</time>
      </trkpt>
      <trkpt lat="44.85613" lon="5.19154">
        <ele>724.7</ele>
        <time>2024-07-01T08:58:00Z</time>
      </trkpt>
      <trkpt lat="44.85614" lon="5.19155">
        <ele>724.7</ele>
        <time>2024-07-01T08:58:01Z</time>
      </trkpt>
      <trkpt lat="44.85614" lon="5.19155">
        <ele>724.7</ele>
        <time>2024-07-01T08:58:03Z</time>
      </trkpt>
      <trkpt lat="44.85614" lon="5.19155">
        <ele>724.7</ele>
        <time>2024-07-01T08:58:04Z</time>
      </trkpt>
      <trkpt lat="44.85615" lon="5.19155">
        <ele>724.7</ele>
        <time>2024-07-01T08:58:05Z</time>
      </trkpt>
      <trkpt lat="44.85618" lon="5.19153">
        <ele>724.8</ele>
        <time>2024-07-01T08:58:06Z</time>
      </trkpt>
      <trkpt lat="44.85619" lon="5.19152">
        <ele>724.9</ele>
        <time>2024-07-01T08:58:08Z</time>
      </trkpt>
      <trkpt lat="44.8562" lon="5.19152">
        <ele>724.9</ele>
        <time>2024-07-01T08:58:10Z</time>
      </trkpt>
      <trkpt lat="44.85621" lon="5.19151">
        <ele>725</ele>
        <time>2024-07-01T08:58:11Z</time>
      </trkpt>
      <trkpt lat="44.85623" lon="5.1915">
        <ele>725</ele>
        <time>2024-07-01T08:58:12Z</time>
      </trkpt>
      <trkpt lat="44.85624" lon="5.1915">
        <ele>725.1</ele>
        <time>2024-07-01T08:58:14Z</time>
      </trkpt>
      <trkpt lat="44.85625" lon="5.1915">
        <ele>725.1</ele>
        <time>2024-07-01T08:58:15Z</time>
      </trkpt>
      <trkpt lat="44.85625" lon="5.19149">
        <ele>725.1</ele>
        <time>2024-07-01T08:58:16Z</time>
      </trkpt>
      <trkpt lat="44.85627" lon="5.19148">
        <ele>725.2</ele>
        <time>2024-07-01T08:58:17Z</time>
      </trkpt>
      <trkpt lat="44.85629" lon="5.19147">
        <ele>725.2</ele>
        <time>2024-07-01T08:58:19Z</time>
      </trkpt>
      <trkpt lat="44.85629" lon="5.19147">
        <ele>725.3</ele>
        <time>2024-07-01T08:58:21Z</time>
      </trkpt>
      <trkpt lat="44.85629" lon="5.19146">
        <ele>725.3</ele>
        <time>2024-07-01T08:58:22Z</time>
      </trkpt>
      <trkpt lat="44.8563" lon="5.19145">
        <ele>725.3</ele>
        <time>2024-07-01T08:58:23Z</time>
      </trkpt>
      <trkpt lat="44.85631" lon="5.19144">
        <ele>725.4</ele>
        <time>2024-07-01T08:58:25Z</time>
      </trkpt>
      <trkpt lat="44.85632" lon="5.19142">
        <ele>725.5</ele>
        <time>2024-07-01T08:58:26Z</time>
      </trkpt>
      <trkpt lat="44.85633" lon="5.19142">
        <ele>725.5</ele>
        <time>2024-07-01T08:58:28Z</time>
      </trkpt>
      <trkpt lat="44.85634" lon="5.19141">
        <ele>725.6</ele>
        <time>2024-07-01T08:58:29Z</time>
      </trkpt>
      <trkpt lat="44.85634" lon="5.19139">
        <ele>725.6</ele>
        <time>2024-07-01T08:58:30Z</time>
      </trkpt>
      <trkpt lat="44.85635" lon="5.19139">
        <ele>725.7</ele>
        <time>2024-07-01T08:58:31Z</time>
      </trkpt>
      <trkpt lat="44.85636" lon="5.19138">
        <ele>725.7</ele>
        <time>2024-07-01T08:58:32Z</time>
      </trkpt>
      <trkpt lat="44.85637" lon="5.19137">
        <ele>725.8</ele>
        <time>2024-07-01T08:58:33Z</time>
      </trkpt>
      <trkpt lat="44.85638" lon="5.19136">
        <ele>725.8</ele>
        <time>2024-07-01T08:58:34Z</time>
      </trkpt>
      <trkpt lat="44.85638" lon="5.19135">
        <ele>725.8</ele>
        <time>2024-07-01T08:58:35Z</time>
      </trkpt>
      <trkpt lat="44.85639" lon="5.19135">
        <ele>725.9</ele>
        <time>2024-07-01T08:58:36Z</time>
      </trkpt>
      <trkpt lat="44.85639" lon="5.19134">
        <ele>725.9</ele>
        <time>2024-07-01T08:58:37Z</time>
      </trkpt>
      <trkpt lat="44.8564" lon="5.19133">
        <ele>726</ele>
        <time>2024-07-01T08:58:39Z</time>
      </trkpt>
      <trkpt lat="44.85638" lon="5.19134">
        <ele>726.1</ele>
        <time>2024-07-01T08:58:40Z</time>
      </trkpt>
      <trkpt lat="44.85638" lon="5.19135">
        <ele>726.1</ele>
        <time>2024-07-01T08:58:42Z</time>
      </trkpt>
      <trkpt lat="44.85638" lon="5.19135">
        <ele>726.1</ele>
        <time>2024-07-01T08:58:43Z</time>
      </trkpt>
      <trkpt lat="44.8564" lon="5.19134">
        <ele>726.3</ele>
        <time>2024-07-01T08:58:44Z</time>
      </trkpt>
      <trkpt lat="44.85641" lon="5.19132">
        <ele>726.4</ele>
        <time>2024-07-01T08:58:45Z</time>
      </trkpt>
      <trkpt lat="44.85643" lon="5.19129">
        <ele>726.5</ele>
        <time>2024-07-01T08:58:46Z</time>
      </trkpt>
      <trkpt lat="44.85644" lon="5.19127">
        <ele>726.6</ele>
        <time>2024-07-01T08:58:48Z</time>
      </trkpt>
      <trkpt lat="44.85646" lon="5.19125">
        <ele>726.7</ele>
        <time>2024-07-01T08:58:49Z</time>
      </trkpt>
      <trkpt lat="44.85647" lon="5.19124">
        <ele>726.8</ele>
        <time>2024-07-01T08:58:50Z</time>
      </trkpt>
      <trkpt lat="44.85649" lon="5.19121">
        <ele>727</ele>
        <time>2024-07-01T08:58:51Z</time>
      </trkpt>
      <trkpt lat="44.85651" lon="5.19121">
        <ele>727.1</ele>
        <time>2024-07-01T08:58:52Z</time>
      </trkpt>
      <trkpt lat="44.85653" lon="5.19118">
        <ele>727.2</ele>
        <time>2024-07-01T08:58:54Z</time>
      </trkpt>
      <trkpt lat="44.85654" lon="5.19117">
        <ele>727.3</ele>
        <time>2024-07-01T08:58:55Z</time>
      </trkpt>
      <trkpt lat="44.85655" lon="5.19114">
        <ele>727.4</ele>
        <time>2024-07-01T08:58:56Z</time>
      </trkpt>
      <trkpt lat="44.85655" lon="5.19112">
        <ele>727.5</ele>
        <time>2024-07-01T08:58:58Z</time>
      </trkpt>
      <trkpt lat="44.85656" lon="5.19109">
        <ele>727.6</ele>
        <time>2024-07-01T08:58:59Z</time>
      </trkpt>
      <trkpt lat="44.85656" lon="5.19108">
        <ele>727.6</ele>
        <time>2024-07-01T08:59:00Z</time>
      </trkpt>
      <trkpt lat="44.85657" lon="5.19107">
        <ele>727.7</ele>
        <time>2024-07-01T08:59:01Z</time>
      </trkpt>
      <trkpt lat="44.85657" lon="5.19104">
        <ele>727.8</ele>
        <time>2024-07-01T08:59:02Z</time>
      </trkpt>
      <trkpt lat="44.85657" lon="5.19103">
        <ele>727.8</ele>
        <time>2024-07-01T08:59:03Z</time>
      </trkpt>
      <trkpt lat="44.85657" lon="5.19102">
        <ele>727.9</ele>
        <time>2024-07-01T08:59:04Z</time>
      </trkpt>
      <trkpt lat="44.85657" lon="5.19099">
        <ele>728</ele>
        <time>2024-07-01T08:59:05Z</time>
      </trkpt>
      <trkpt lat="44.85657" lon="5.19097">
        <ele>728</ele>
        <time>2024-07-01T08:59:07Z</time>
      </trkpt>
      <trkpt lat="44.85657" lon="5.19096">
        <ele>728.1</ele>
        <time>2024-07-01T08:59:08Z</time>
      </trkpt>
      <trkpt lat="44.85657" lon="5.19095">
        <ele>728.1</ele>
        <time>2024-07-01T08:59:09Z</time>
      </trkpt>
      <trkpt lat="44.85657" lon="5.19093">
        <ele>728.2</ele>
        <time>2024-07-01T08:59:10Z</time>
      </trkpt>
      <trkpt lat="44.85657" lon="5.19092">
        <ele>728.2</ele>
        <time>2024-07-01T08:59:11Z</time>
      </trkpt>
      <trkpt lat="44.85657" lon="5.19089">
        <ele>728.3</ele>
        <time>2024-07-01T08:59:12Z</time>
      </trkpt>
      <trkpt lat="44.85657" lon="5.19087">
        <ele>728.3</ele>
        <time>2024-07-01T08:59:14Z</time>
      </trkpt>
      <trkpt lat="44.85657" lon="5.19086">
        <ele>728.4</ele>
        <time>2024-07-01T08:59:15Z</time>
      </trkpt>
      <trkpt lat="44.85657" lon="5.19085">
        <ele>728.4</ele>
        <time>2024-07-01T08:59:16Z</time>
      </trkpt>
      <trkpt lat="44.85656" lon="5.19084">
        <ele>728.5</ele>
        <time>2024-07-01T08:59:17Z</time>
      </trkpt>
      <trkpt lat="44.85655" lon="5.19083">
        <ele>728.5</ele>
        <time>2024-07-01T08:59:18Z</time>
      </trkpt>
      <trkpt lat="44.85654" lon="5.19081">
        <ele>728.6</ele>
        <time>2024-07-01T08:59:20Z</time>
      </trkpt>
      <trkpt lat="44.85654" lon="5.19078">
        <ele>728.7</ele>
        <time>2024-07-01T08:59:21Z</time>
      </trkpt>
      <trkpt lat="44.85654" lon="5.19076">
        <ele>728.7</ele>
        <time>2024-07-01T08:59:22Z</time>
      </trkpt>
      <trkpt lat="44.85654" lon="5.19075">
        <ele>728.8</ele>
        <time>2024-07-01T08:59:23Z</time>
      </trkpt>
      <trkpt lat="44.85653" lon="5.19072">
        <ele>728.9</ele>
        <time>2024-07-01T08:59:24Z</time>
      </trkpt>
      <trkpt lat="44.85653" lon="5.19071">
        <ele>728.9</ele>
        <time>2024-07-01T08:59:25Z</time>
      </trkpt>
      <trkpt lat="44.85653" lon="5.19069">
        <ele>728.9</ele>
        <time>2024-07-01T08:59:26Z</time>
      </trkpt>
      <trkpt lat="44.85652" lon="5.19066">
        <ele>729.1</ele>
        <time>2024-07-01T08:59:27Z</time>
      </trkpt>
      <trkpt lat="44.85652" lon="5.19063">
        <ele>729.1</ele>
        <time>2024-07-01T08:59:29Z</time>
      </trkpt>
      <trkpt lat="44.85652" lon="5.19062">
        <ele>729.2</ele>
        <time>2024-07-01T08:59:31Z</time>
      </trkpt>
      <trkpt lat="44.85652" lon="5.19061">
        <ele>729.2</ele>
        <time>2024-07-01T08:59:32Z</time>
      </trkpt>
      <trkpt lat="44.85652" lon="5.1906">
        <ele>729.3</ele>
        <time>2024-07-01T08:59:33Z</time>
      </trkpt>
      <trkpt lat="44.85652" lon="5.19058">
        <ele>729.3</ele>
        <time>2024-07-01T08:59:34Z</time>
      </trkpt>
      <trkpt lat="44.85652" lon="5.19056">
        <ele>729.4</ele>
        <time>2024-07-01T08:59:35Z</time>
      </trkpt>
      <trkpt lat="44.85653" lon="5.19054">
        <ele>729.4</ele>
        <time>2024-07-01T08:59:37Z</time>
      </trkpt>
      <trkpt lat="44.85653" lon="5.19053">
        <ele>729.5</ele>
        <time>2024-07-01T08:59:38Z</time>
      </trkpt>
      <trkpt lat="44.85653" lon="5.19052">
        <ele>729.5</ele>
        <time>2024-07-01T08:59:39Z</time>
      </trkpt>
      <trkpt lat="44.85653" lon="5.1905">
        <ele>729.6</ele>
        <time>2024-07-01T08:59:40Z</time>
      </trkpt>
      <trkpt lat="44.85653" lon="5.19048">
        <ele>729.6</ele>
        <time>2024-07-01T08:59:42Z</time>
      </trkpt>
      <trkpt lat="44.85653" lon="5.19048">
        <ele>729.6</ele>
        <time>2024-07-01T08:59:43Z</time>
      </trkpt>
      <trkpt lat="44.85653" lon="5.19047">
        <ele>729.7</ele>
        <time>2024-07-01T08:59:44Z</time>
      </trkpt>
      <trkpt lat="44.85652" lon="5.19046">
        <ele>729.7</ele>
        <time>2024-07-01T08:59:45Z</time>
      </trkpt>
      <trkpt lat="44.85652" lon="5.19044">
        <ele>729.7</ele>
        <time>2024-07-01T08:59:46Z</time>
      </trkpt>
      <trkpt lat="44.85652" lon="5.19043">
        <ele>729.8</ele>
        <time>2024-07-01T08:59:47Z</time>
      </trkpt>
      <trkpt lat="44.85652" lon="5.19042">
        <ele>729.8</ele>
        <time>2024-07-01T08:59:48Z</time>
      </trkpt>
      <trkpt lat="44.85651" lon="5.1904">
        <ele>729.9</ele>
        <time>2024-07-01T08:59:49Z</time>
      </trkpt>
      <trkpt lat="44.8565" lon="5.19038">
        <ele>729.9</ele>
        <time>2024-07-01T08:59:50Z</time>
      </trkpt>
      <trkpt lat="44.85649" lon="5.19038">
        <ele>730</ele>
        <time>2024-07-01T08:59:52Z</time>
      </trkpt>
      <trkpt lat="44.85649" lon="5.19037">
        <ele>730</ele>
        <time>2024-07-01T08:59:53Z</time>
      </trkpt>
      <trkpt lat="44.85648" lon="5.19035">
        <ele>730.1</ele>
        <time>2024-07-01T08:59:54Z</time>
      </trkpt>
      <trkpt lat="44.85648" lon="5.19034">
        <ele>730.1</ele>
        <time>2024-07-01T08:59:55Z</time>
      </trkpt>
      <trkpt lat="44.85647" lon="5.19033">
        <ele>730.1</ele>
        <time>2024-07-01T08:59:56Z</time>
      </trkpt>
      <trkpt lat="44.85648" lon="5.19031">
        <ele>730.2</ele>
        <time>2024-07-01T08:59:57Z</time>
      </trkpt>
      <trkpt lat="44.85648" lon="5.1903">
        <ele>730.2</ele>
        <time>2024-07-01T08:59:59Z</time>
      </trkpt>
      <trkpt lat="44.85649" lon="5.19029">
        <ele>730.3</ele>
        <time>2024-07-01T09:00:00Z</time>
      </trkpt>
      <trkpt lat="44.85649" lon="5.19028">
        <ele>730.3</ele>
        <time>2024-07-01T09:00:01Z</time>
      </trkpt>
      <trkpt lat="44.85649" lon="5.19026">
        <ele>730.3</ele>
        <time>2024-07-01T09:00:02Z</time>
      </trkpt>
      <trkpt lat="44.8565" lon="5.19025">
        <ele>730.4</ele>
        <time>2024-07-01T09:00:03Z</time>
      </trkpt>
      <trkpt lat="44.8565" lon="5.19026">
        <ele>730.4</ele>
        <time>2024-07-01T09:00:04Z</time>
      </trkpt>
      <trkpt lat="44.8565" lon="5.19027">
        <ele>730.4</ele>
        <time>2024-07-01T09:00:05Z</time>
      </trkpt>
      <trkpt lat="44.85651" lon="5.19026">
        <ele>730.5</ele>
        <time>2024-07-01T09:00:06Z</time>
      </trkpt>
      <trkpt lat="44.85652" lon="5.19028">
        <ele>730.5</ele>
        <time>2024-07-01T09:00:08Z</time>
      </trkpt>
      <trkpt lat="44.85652" lon="5.19028">
        <ele>730.5</ele>
        <time>2024-07-01T09:00:09Z</time>
      </trkpt>
      <trkpt lat="44.85653" lon="5.19029">
        <ele>730.6</ele>
        <time>2024-07-01T09:00:10Z</time>
      </trkpt>
      <trkpt lat="44.85652" lon="5.1903">
        <ele>730.6</ele>
        <time>2024-07-01T09:00:11Z</time>
      </trkpt>
      <trkpt lat="44.85652" lon="5.19031">
        <ele>730.6</ele>
        <time>2024-07-01T09:00:12Z</time>
      </trkpt>
      <trkpt lat="44.85652" lon="5.19033">
        <ele>730.7</ele>
        <time>2024-07-01T09:00:13Z</time>
      </trkpt>
      <trkpt lat="44.85652" lon="5.19032">
        <ele>730.7</ele>
        <time>2024-07-01T09:00:14Z</time>
      </trkpt>
      <trkpt lat="44.85652" lon="5.1903">
        <ele>730.7</ele>
        <time>2024-07-01T09:00:15Z</time>
      </trkpt>
      <trkpt lat="44.85652" lon="5.19029">
        <ele>730.7</ele>
        <time>2024-07-01T09:00:16Z</time>
      </trkpt>
      <trkpt lat="44.85653" lon="5.19028">
        <ele>730.8</ele>
        <time>2024-07-01T09:00:17Z</time>
      </trkpt>
      <trkpt lat="44.85653" lon="5.19026">
        <ele>730.8</ele>
        <time>2024-07-01T09:00:18Z</time>
      </trkpt>
      <trkpt lat="44.85654" lon="5.19024">
        <ele>730.9</ele>
        <time>2024-07-01T09:00:20Z</time>
      </trkpt>
      <trkpt lat="44.85655" lon="5.19022">
        <ele>730.9</ele>
        <time>2024-07-01T09:00:21Z</time>
      </trkpt>
      <trkpt lat="44.85656" lon="5.19021">
        <ele>730.9</ele>
        <time>2024-07-01T09:00:22Z</time>
      </trkpt>
      <trkpt lat="44.85658" lon="5.19018">
        <ele>731</ele>
        <time>2024-07-01T09:00:23Z</time>
      </trkpt>
      <trkpt lat="44.85659" lon="5.19017">
        <ele>731.1</ele>
        <time>2024-07-01T09:00:25Z</time>
      </trkpt>
      <trkpt lat="44.8566" lon="5.19015">
        <ele>731.1</ele>
        <time>2024-07-01T09:00:26Z</time>
      </trkpt>
      <trkpt lat="44.85661" lon="5.19015">
        <ele>731.1</ele>
        <time>2024-07-01T09:00:27Z</time>
      </trkpt>
      <trkpt lat="44.85662" lon="5.19014">
        <ele>731.2</ele>
        <time>2024-07-01T09:00:28Z</time>
      </trkpt>
      <trkpt lat="44.85663" lon="5.19013">
        <ele>731.2</ele>
        <time>2024-07-01T09:00:29Z</time>
      </trkpt>
      <trkpt lat="44.85664" lon="5.19013">
        <ele>731.3</ele>
        <time>2024-07-01T09:00:30Z</time>
      </trkpt>
      <trkpt lat="44.85664" lon="5.19013">
        <ele>731.3</ele>
        <time>2024-07-01T09:00:31Z</time>
      </trkpt>
      <trkpt lat="44.85664" lon="5.19012">
        <ele>731.3</ele>
        <time>2024-07-01T09:00:32Z</time>
      </trkpt>
      <trkpt lat="44.85665" lon="5.19012">
        <ele>731.3</ele>
        <time>2024-07-01T09:00:33Z</time>
      </trkpt>
      <trkpt lat="44.85665" lon="5.19012">
        <ele>731.3</ele>
        <time>2024-07-01T09:00:34Z</time>
      </trkpt>
      <trkpt lat="44.85665" lon="5.19012">
        <ele>731.3</ele>
        <time>2024-07-01T09:00:35Z</time>
      </trkpt>
      <trkpt lat="44.85665" lon="5.19012">
        <ele>731.3</ele>
        <time>2024-07-01T09:00:36Z</time>
      </trkpt>
      <trkpt lat="44.85665" lon="5.19012">
        <ele>731.3</ele>
        <time>2024-07-01T09:00:37Z</time>
      </trkpt>
      <trkpt lat="44.85665" lon="5.19011">
        <ele>731.3</ele>
        <time>2024-07-01T09:00:38Z</time>
      </trkpt>
      <trkpt lat="44.85666" lon="5.19011">
        <ele>731.3</ele>
        <time>2024-07-01T09:00:39Z</time>
      </trkpt>
      <trkpt lat="44.85666" lon="5.19011">
        <ele>731.3</ele>
        <time>2024-07-01T09:00:40Z</time>
      </trkpt>
      <trkpt lat="44.85666" lon="5.19011">
        <ele>731.3</ele>
        <time>2024-07-01T09:00:41Z</time>
      </trkpt>
      <trkpt lat="44.85666" lon="5.19011">
        <ele>731.3</ele>
        <time>2024-07-01T09:00:42Z</time>
      </trkpt>
      <trkpt lat="44.85666" lon="5.19011">
        <ele>731.4</ele>
        <time>2024-07-01T09:00:43Z</time>
      </trkpt>
      <trkpt lat="44.85666" lon="5.1901">
        <ele>731.4</ele>
        <time>2024-07-01T09:00:44Z</time>
      </trkpt>
      <trkpt lat="44.85666" lon="5.1901">
        <ele>731.4</ele>
        <time>2024-07-01T09:00:45Z</time>
      </trkpt>
      <trkpt lat="44.85668" lon="5.19009">
        <ele>731.4</ele>
        <time>2024-07-01T09:00:46Z</time>
      </trkpt>
      <trkpt lat="44.85669" lon="5.19008">
        <ele>731.5</ele>
        <time>2024-07-01T09:00:47Z</time>
      </trkpt>
      <trkpt lat="44.85669" lon="5.19007">
        <ele>731.5</ele>
        <time>2024-07-01T09:00:48Z</time>
      </trkpt>
      <trkpt lat="44.8567" lon="5.19007">
        <ele>731.5</ele>
        <time>2024-07-01T09:00:49Z</time>
      </trkpt>
      <trkpt lat="44.8567" lon="5.19006">
        <ele>731.5</ele>
        <time>2024-07-01T09:00:50Z</time>
      </trkpt>
      <trkpt lat="44.8567" lon="5.19006">
        <ele>731.6</ele>
        <time>2024-07-01T09:00:51Z</time>
      </trkpt>
      <trkpt lat="44.8567" lon="5.19006">
        <ele>731.6</ele>
        <time>2024-07-01T09:00:52Z</time>
      </trkpt>
      <trkpt lat="44.85671" lon="5.19004">
        <ele>731.6</ele>
        <time>2024-07-01T09:00:53Z</time>
      </trkpt>
      <trkpt lat="44.85671" lon="5.19001">
        <ele>731.7</ele>
        <time>2024-07-01T09:00:54Z</time>
      </trkpt>
      <trkpt lat="44.85672" lon="5.19001">
        <ele>731.7</ele>
        <time>2024-07-01T09:00:56Z</time>
      </trkpt>
      <trkpt lat="44.85672" lon="5.19">
        <ele>731.8</ele>
        <time>2024-07-01T09:00:57Z</time>
      </trkpt>
      <trkpt lat="44.85673" lon="5.19">
        <ele>731.8</ele>
        <time>2024-07-01T09:00:58Z</time>
      </trkpt>
      <trkpt lat="44.85675" lon="5.19">
        <ele>731.9</ele>
        <time>2024-07-01T09:00:59Z</time>
      </trkpt>
      <trkpt lat="44.85676" lon="5.18999">
        <ele>731.9</ele>
        <time>2024-07-01T09:01:01Z</time>
      </trkpt>
      <trkpt lat="44.85676" lon="5.18998">
        <ele>731.9</ele>
        <time>2024-07-01T09:01:02Z</time>
      </trkpt>
      <trkpt lat="44.85677" lon="5.18998">
        <ele>732</ele>
        <time>2024-07-01T09:01:03Z</time>
      </trkpt>
      <trkpt lat="44.85678" lon="5.18997">
        <ele>732</ele>
        <time>2024-07-01T09:01:04Z</time>
      </trkpt>
      <trkpt lat="44.85678" lon="5.18996">
        <ele>732</ele>
        <time>2024-07-01T09:01:05Z</time>
      </trkpt>
      <trkpt lat="44.85679" lon="5.18996">
        <ele>732</ele>
        <time>2024-07-01T09:01:06Z</time>
      </trkpt>
      <trkpt lat="44.85679" lon="5.18994">
        <ele>732.1</ele>
        <time>2024-07-01T09:01:07Z</time>
      </trkpt>
      <trkpt lat="44.85679" lon="5.18993">
        <ele>732.1</ele>
        <time>2024-07-01T09:01:08Z</time>
      </trkpt>
      <trkpt lat="44.8568" lon="5.18994">
        <ele>732.1</ele>
        <time>2024-07-01T09:01:09Z</time>
      </trkpt>
      <trkpt lat="44.8568" lon="5.18994">
        <ele>732.2</ele>
        <time>2024-07-01T09:01:10Z</time>
      </trkpt>
      <trkpt lat="44.8568" lon="5.18995">
        <ele>732.2</ele>
        <time>2024-07-01T09:01:11Z</time>
      </trkpt>
      <trkpt lat="44.8568" lon="5.18996">
        <ele>732.2</ele>
        <time>2024-07-01T09:01:12Z</time>
      </trkpt>
      <trkpt lat="44.8568" lon="5.18996">
        <ele>732.2</ele>
        <time>2024-07-01T09:01:13Z</time>
      </trkpt>
      <trkpt lat="44.8568" lon="5.18997">
        <ele>732.2</ele>
        <time>2024-07-01T09:01:14Z</time>
      </trkpt>
      <trkpt lat="44.85681" lon="5.18997">
        <ele>732.2</ele>
        <time>2024-07-01T09:01:15Z</time>
      </trkpt>
      <trkpt lat="44.85682" lon="5.18997">
        <ele>732.3</ele>
        <time>2024-07-01T09:01:16Z</time>
      </trkpt>
      <trkpt lat="44.85683" lon="5.18998">
        <ele>732.4</ele>
        <time>2024-07-01T09:01:17Z</time>
      </trkpt>
      <trkpt lat="44.85685" lon="5.18998">
        <ele>732.4</ele>
        <time>2024-07-01T09:01:18Z</time>
      </trkpt>
      <trkpt lat="44.85686" lon="5.18999">
        <ele>732.5</ele>
        <time>2024-07-01T09:01:19Z</time>
      </trkpt>
      <trkpt lat="44.85687" lon="5.19">
        <ele>732.5</ele>
        <time>2024-07-01T09:01:20Z</time>
      </trkpt>
      <trkpt lat="44.85688" lon="5.19">
        <ele>732.5</ele>
        <time>2024-07-01T09:01:21Z</time>
      </trkpt>
      <trkpt lat="44.85689" lon="5.19">
        <ele>732.6</ele>
        <time>2024-07-01T09:01:22Z</time>
      </trkpt>
      <trkpt lat="44.85691" lon="5.19001">
        <ele>732.7</ele>
        <time>2024-07-01T09:01:23Z</time>
      </trkpt>
      <trkpt lat="44.85691" lon="5.19002">
        <ele>732.7</ele>
        <time>2024-07-01T09:01:25Z</time>
      </trkpt>
      <trkpt lat="44.85692" lon="5.19003">
        <ele>732.7</ele>
        <time>2024-07-01T09:01:26Z</time>
      </trkpt>
      <trkpt lat="44.85693" lon="5.19003">
        <ele>732.8</ele>
        <time>2024-07-01T09:01:27Z</time>
      </trkpt>
      <trkpt lat="44.85693" lon="5.19004">
        <ele>732.8</ele>
        <time>2024-07-01T09:01:28Z</time>
      </trkpt>
      <trkpt lat="44.85695" lon="5.19006">
        <ele>732.9</ele>
        <time>2024-07-01T09:01:29Z</time>
      </trkpt>
      <trkpt lat="44.85696" lon="5.19007">
        <ele>732.9</ele>
        <time>2024-07-01T09:01:31Z</time>
      </trkpt>
      <trkpt lat="44.85696" lon="5.19008">
        <ele>733</ele>
        <time>2024-07-01T09:01:32Z</time>
      </trkpt>
      <trkpt lat="44.85696" lon="5.19009">
        <ele>733</ele>
        <time>2024-07-01T09:01:33Z</time>
      </trkpt>
      <trkpt lat="44.85697" lon="5.1901">
        <ele>733</ele>
        <time>2024-07-01T09:01:34Z</time>
      </trkpt>
      <trkpt lat="44.85697" lon="5.1901">
        <ele>733.1</ele>
        <time>2024-07-01T09:01:35Z</time>
      </trkpt>
      <trkpt lat="44.85698" lon="5.19011">
        <ele>733.1</ele>
        <time>2024-07-01T09:01:36Z</time>
      </trkpt>
      <trkpt lat="44.85698" lon="5.19011">
        <ele>733.1</ele>
        <time>2024-07-01T09:01:37Z</time>
      </trkpt>
      <trkpt lat="44.85699" lon="5.19011">
        <ele>733.1</ele>
        <time>2024-07-01T09:01:38Z</time>
      </trkpt>
      <trkpt lat="44.85699" lon="5.19011">
        <ele>733.1</ele>
        <time>2024-07-01T09:01:39Z</time>
      </trkpt>
      <trkpt lat="44.85699" lon="5.19011">
        <ele>733.1</ele>
        <time>2024-07-01T09:01:40Z</time>
      </trkpt>
      <trkpt lat="44.85699" lon="5.19011">
        <ele>733.2</ele>
        <time>2024-07-01T09:01:41Z</time>
      </trkpt>
      <trkpt lat="44.85699" lon="5.1901">
        <ele>733.2</ele>
        <time>2024-07-01T09:01:42Z</time>
      </trkpt>
      <trkpt lat="44.85698" lon="5.1901">
        <ele>733.2</ele>
        <time>2024-07-01T09:01:43Z</time>
      </trkpt>
      <trkpt lat="44.85699" lon="5.1901">
        <ele>733.2</ele>
        <time>2024-07-01T09:01:44Z</time>
      </trkpt>
      <trkpt lat="44.85698" lon="5.19011">
        <ele>733.2</ele>
        <time>2024-07-01T09:01:45Z</time>
      </trkpt>
      <trkpt lat="44.85698" lon="5.19012">
        <ele>733.2</ele>
        <time>2024-07-01T09:01:46Z</time>
      </trkpt>
      <trkpt lat="44.85698" lon="5.19013">
        <ele>733.3</ele>
        <time>2024-07-01T09:01:47Z</time>
      </trkpt>
      <trkpt lat="44.85699" lon="5.19014">
        <ele>733.3</ele>
        <time>2024-07-01T09:01:49Z</time>
      </trkpt>
      <trkpt lat="44.857" lon="5.19015">
        <ele>733.4</ele>
        <time>2024-07-01T09:01:50Z</time>
      </trkpt>
      <trkpt lat="44.857" lon="5.19016">
        <ele>733.4</ele>
        <time>2024-07-01T09:01:51Z</time>
      </trkpt>
      <trkpt lat="44.85701" lon="5.19018">
        <ele>733.5</ele>
        <time>2024-07-01T09:01:52Z</time>
      </trkpt>
      <trkpt lat="44.857" lon="5.19019">
        <ele>733.5</ele>
        <time>2024-07-01T09:01:53Z</time>
      </trkpt>
      <trkpt lat="44.857" lon="5.1902">
        <ele>733.6</ele>
        <time>2024-07-01T09:01:54Z</time>
      </trkpt>
      <trkpt lat="44.85699" lon="5.19021">
        <ele>733.6</ele>
        <time>2024-07-01T09:01:55Z</time>
      </trkpt>
      <trkpt lat="44.85699" lon="5.1902">
        <ele>733.6</ele>
        <time>2024-07-01T09:01:56Z</time>
      </trkpt>
      <trkpt lat="44.85699" lon="5.19019">
        <ele>733.7</ele>
        <time>2024-07-01T09:01:57Z</time>
      </trkpt>
      <trkpt lat="44.85698" lon="5.19018">
        <ele>733.7</ele>
        <time>2024-07-01T09:01:58Z</time>
      </trkpt>
      <trkpt lat="44.85698" lon="5.19018">
        <ele>733.7</ele>
        <time>2024-07-01T09:01:59Z</time>
      </trkpt>
      <trkpt lat="44.85698" lon="5.19017">
        <ele>733.7</ele>
        <time>2024-07-01T09:02:00Z</time>
      </trkpt>
      <trkpt lat="44.85698" lon="5.19017">
        <ele>733.7</ele>
        <time>2024-07-01T09:02:01Z</time>
      </trkpt>
      <trkpt lat="44.85698" lon="5.19017">
        <ele>733.7</ele>
        <time>2024-07-01T09:02:02Z</time>
      </trkpt>
      <trkpt lat="44.85698" lon="5.19017">
        <ele>733.8</ele>
        <time>2024-07-01T09:02:03Z</time>
      </trkpt>
      <trkpt lat="44.85698" lon="5.19017">
        <ele>733.8</ele>
        <time>2024-07-01T09:02:04Z</time>
      </trkpt>
      <trkpt lat="44.85697" lon="5.19017">
        <ele>733.8</ele>
        <time>2024-07-01T09:02:05Z</time>
      </trkpt>
      <trkpt lat="44.85697" lon="5.19017">
        <ele>733.8</ele>
        <time>2024-07-01T09:02:06Z</time>
      </trkpt>
      <trkpt lat="44.85697" lon="5.19018">
        <ele>733.8</ele>
        <time>2024-07-01T09:02:07Z</time>
      </trkpt>
      <trkpt lat="44.85696" lon="5.19018">
        <ele>733.9</ele>
        <time>2024-07-01T09:02:08Z</time>
      </trkpt>
      <trkpt lat="44.85695" lon="5.19018">
        <ele>733.9</ele>
        <time>2024-07-01T09:02:09Z</time>
      </trkpt>
      <trkpt lat="44.85695" lon="5.19018">
        <ele>733.9</ele>
        <time>2024-07-01T09:02:10Z</time>
      </trkpt>
      <trkpt lat="44.85695" lon="5.19018">
        <ele>733.9</ele>
        <time>2024-07-01T09:02:11Z</time>
      </trkpt>
      <trkpt lat="44.85695" lon="5.19018">
        <ele>733.9</ele>
        <time>2024-07-01T09:02:12Z</time>
      </trkpt>
      <trkpt lat="44.85695" lon="5.19018">
        <ele>733.9</ele>
        <time>2024-07-01T09:02:13Z</time>
      </trkpt>
      <trkpt lat="44.85695" lon="5.19018">
        <ele>733.9</ele>
        <time>2024-07-01T09:02:14Z</time>
      </trkpt>
      <trkpt lat="44.85695" lon="5.19018">
        <ele>734</ele>
        <time>2024-07-01T09:02:16Z</time>
      </trkpt>
      <trkpt lat="44.85695" lon="5.19018">
        <ele>734</ele>
        <time>2024-07-01T09:02:18Z</time>
      </trkpt>
      <trkpt lat="44.85695" lon="5.19018">
        <ele>734</ele>
        <time>2024-07-01T09:02:19Z</time>
      </trkpt>
      <trkpt lat="44.85696" lon="5.19018">
        <ele>734</ele>
        <time>2024-07-01T09:02:20Z</time>
      </trkpt>
      <trkpt lat="44.85697" lon="5.19018">
        <ele>734</ele>
        <time>2024-07-01T09:02:21Z</time>
      </trkpt>
      <trkpt lat="44.85697" lon="5.19018">
        <ele>734.1</ele>
        <time>2024-07-01T09:02:23Z</time>
      </trkpt>
      <trkpt lat="44.85697" lon="5.19018">
        <ele>734.1</ele>
        <time>2024-07-01T09:02:24Z</time>
      </trkpt>
      <trkpt lat="44.85697" lon="5.19018">
        <ele>734.1</ele>
        <time>2024-07-01T09:02:25Z</time>
      </trkpt>
      <trkpt lat="44.85697" lon="5.19019">
        <ele>734.1</ele>
        <time>2024-07-01T09:02:26Z</time>
      </trkpt>
      <trkpt lat="44.85698" lon="5.19019">
        <ele>734.1</ele>
        <time>2024-07-01T09:02:27Z</time>
      </trkpt>
      <trkpt lat="44.85698" lon="5.19019">
        <ele>734.1</ele>
        <time>2024-07-01T09:02:28Z</time>
      </trkpt>
      <trkpt lat="44.85698" lon="5.19019">
        <ele>734.2</ele>
        <time>2024-07-01T09:02:29Z</time>
      </trkpt>
      <trkpt lat="44.85698" lon="5.19018">
        <ele>734.2</ele>
        <time>2024-07-01T09:02:30Z</time>
      </trkpt>
      <trkpt lat="44.85696" lon="5.19017">
        <ele>734.3</ele>
        <time>2024-07-01T09:02:32Z</time>
      </trkpt>
      <trkpt lat="44.85696" lon="5.19019">
        <ele>734.4</ele>
        <time>2024-07-01T09:02:33Z</time>
      </trkpt>
      <trkpt lat="44.85697" lon="5.1902">
        <ele>734.4</ele>
        <time>2024-07-01T09:02:34Z</time>
      </trkpt>
      <trkpt lat="44.85697" lon="5.19021">
        <ele>734.5</ele>
        <time>2024-07-01T09:02:35Z</time>
      </trkpt>
      <trkpt lat="44.85698" lon="5.19022">
        <ele>734.5</ele>
        <time>2024-07-01T09:02:36Z</time>
      </trkpt>
      <trkpt lat="44.85699" lon="5.19022">
        <ele>734.6</ele>
        <time>2024-07-01T09:02:37Z</time>
      </trkpt>
      <trkpt lat="44.85701" lon="5.19022">
        <ele>734.7</ele>
        <time>2024-07-01T09:02:38Z</time>
      </trkpt>
      <trkpt lat="44.85702" lon="5.1902">
        <ele>734.8</ele>
        <time>2024-07-01T09:02:39Z</time>
      </trkpt>
      <trkpt lat="44.85704" lon="5.19019">
        <ele>734.9</ele>
        <time>2024-07-01T09:02:40Z</time>
      </trkpt>
      <trkpt lat="44.85706" lon="5.19017">
        <ele>735</ele>
        <time>2024-07-01T09:02:41Z</time>
      </trkpt>
      <trkpt lat="44.85709" lon="5.19016">
        <ele>735.3</ele>
        <time>2024-07-01T09:02:42Z</time>
      </trkpt>
      <trkpt lat="44.8571" lon="5.19016">
        <ele>735.3</ele>
        <time>2024-07-01T09:02:43Z</time>
      </trkpt>
      <trkpt lat="44.85714" lon="5.19017">
        <ele>735.6</ele>
        <time>2024-07-01T09:02:44Z</time>
      </trkpt>
      <trkpt lat="44.85717" lon="5.19019">
        <ele>735.8</ele>
        <time>2024-07-01T09:02:46Z</time>
      </trkpt>
      <trkpt lat="44.85718" lon="5.1902">
        <ele>735.8</ele>
        <time>2024-07-01T09:02:47Z</time>
      </trkpt>
      <trkpt lat="44.85719" lon="5.19021">
        <ele>735.9</ele>
        <time>2024-07-01T09:02:48Z</time>
      </trkpt>
      <trkpt lat="44.8572" lon="5.19021">
        <ele>736</ele>
        <time>2024-07-01T09:02:49Z</time>
      </trkpt>
      <trkpt lat="44.85721" lon="5.19022">
        <ele>736.1</ele>
        <time>2024-07-01T09:02:50Z</time>
      </trkpt>
      <trkpt lat="44.85723" lon="5.19022">
        <ele>736.2</ele>
        <time>2024-07-01T09:02:51Z</time>
      </trkpt>
      <trkpt lat="44.85728" lon="5.19016">
        <ele>736.6</ele>
        <time>2024-07-01T09:02:53Z</time>
      </trkpt>
      <trkpt lat="44.85731" lon="5.19014">
        <ele>736.8</ele>
        <time>2024-07-01T09:02:55Z</time>
      </trkpt>
      <trkpt lat="44.85731" lon="5.19013">
        <ele>736.9</ele>
        <time>2024-07-01T09:02:56Z</time>
      </trkpt>
      <trkpt lat="44.85733" lon="5.19011">
        <ele>737.1</ele>
        <time>2024-07-01T09:02:57Z</time>
      </trkpt>
      <trkpt lat="44.85734" lon="5.19011">
        <ele>737.1</ele>
        <time>2024-07-01T09:02:58Z</time>
      </trkpt>
      <trkpt lat="44.85735" lon="5.1901">
        <ele>737.2</ele>
        <time>2024-07-01T09:02:59Z</time>
      </trkpt>
      <trkpt lat="44.85737" lon="5.19009">
        <ele>737.3</ele>
        <time>2024-07-01T09:03:00Z</time>
      </trkpt>
      <trkpt lat="44.85738" lon="5.19008">
        <ele>737.4</ele>
        <time>2024-07-01T09:03:01Z</time>
      </trkpt>
      <trkpt lat="44.85739" lon="5.19008">
        <ele>737.4</ele>
        <time>2024-07-01T09:03:02Z</time>
      </trkpt>
      <trkpt lat="44.8574" lon="5.19006">
        <ele>737.6</ele>
        <time>2024-07-01T09:03:03Z</time>
      </trkpt>
      <trkpt lat="44.85741" lon="5.19005">
        <ele>737.6</ele>
        <time>2024-07-01T09:03:05Z</time>
      </trkpt>
      <trkpt lat="44.85741" lon="5.19005">
        <ele>737.7</ele>
        <time>2024-07-01T09:03:06Z</time>
      </trkpt>
      <trkpt lat="44.85742" lon="5.19004">
        <ele>737.7</ele>
        <time>2024-07-01T09:03:07Z</time>
      </trkpt>
      <trkpt lat="44.85742" lon="5.19003">
        <ele>737.8</ele>
        <time>2024-07-01T09:03:08Z</time>
      </trkpt>
      <trkpt lat="44.85743" lon="5.19002">
        <ele>737.8</ele>
        <time>2024-07-01T09:03:09Z</time>
      </trkpt>
      <trkpt lat="44.85742" lon="5.19">
        <ele>737.9</ele>
        <time>2024-07-01T09:03:10Z</time>
      </trkpt>
      <trkpt lat="44.85742" lon="5.18999">
        <ele>738</ele>
        <time>2024-07-01T09:03:12Z</time>
      </trkpt>
      <trkpt lat="44.85742" lon="5.18998">
        <ele>738</ele>
        <time>2024-07-01T09:03:13Z</time>
      </trkpt>
      <trkpt lat="44.85742" lon="5.18997">
        <ele>738.1</ele>
        <time>2024-07-01T09:03:14Z</time>
      </trkpt>
      <trkpt lat="44.85743" lon="5.18995">
        <ele>738.2</ele>
        <time>2024-07-01T09:03:15Z</time>
      </trkpt>
      <trkpt lat="44.85743" lon="5.18994">
        <ele>738.2</ele>
        <time>2024-07-01T09:03:17Z</time>
      </trkpt>
      <trkpt lat="44.85743" lon="5.18993">
        <ele>738.3</ele>
        <time>2024-07-01T09:03:18Z</time>
      </trkpt>
      <trkpt lat="44.85743" lon="5.18991">
        <ele>738.4</ele>
        <time>2024-07-01T09:03:19Z</time>
      </trkpt>
      <trkpt lat="44.85743" lon="5.1899">
        <ele>738.4</ele>
        <time>2024-07-01T09:03:20Z</time>
      </trkpt>
      <trkpt lat="44.85743" lon="5.18988">
        <ele>738.5</ele>
        <time>2024-07-01T09:03:21Z</time>
      </trkpt>
      <trkpt lat="44.85742" lon="5.18986">
        <ele>738.6</ele>
        <time>2024-07-01T09:03:22Z</time>
      </trkpt>
      <trkpt lat="44.85742" lon="5.18984">
        <ele>738.7</ele>
        <time>2024-07-01T09:03:24Z</time>
      </trkpt>
      <trkpt lat="44.85742" lon="5.18983">
        <ele>738.8</ele>
        <time>2024-07-01T09:03:25Z</time>
      </trkpt>
      <trkpt lat="44.85742" lon="5.18982">
        <ele>738.8</ele>
        <time>2024-07-01T09:03:26Z</time>
      </trkpt>
      <trkpt lat="44.85741" lon="5.1898">
        <ele>738.9</ele>
        <time>2024-07-01T09:03:27Z</time>
      </trkpt>
      <trkpt lat="44.85741" lon="5.18977">
        <ele>739.1</ele>
        <time>2024-07-01T09:03:29Z</time>
      </trkpt>
      <trkpt lat="44.85741" lon="5.18976">
        <ele>739.1</ele>
        <time>2024-07-01T09:03:30Z</time>
      </trkpt>
      <trkpt lat="44.85741" lon="5.18975">
        <ele>739.2</ele>
        <time>2024-07-01T09:03:32Z</time>
      </trkpt>
      <trkpt lat="44.85741" lon="5.18974">
        <ele>739.2</ele>
        <time>2024-07-01T09:03:33Z</time>
      </trkpt>
      <trkpt lat="44.8574" lon="5.18973">
        <ele>739.3</ele>
        <time>2024-07-01T09:03:34Z</time>
      </trkpt>
      <trkpt lat="44.85744" lon="5.18973">
        <ele>739.5</ele>
        <time>2024-07-01T09:03:35Z</time>
      </trkpt>
      <trkpt lat="44.85745" lon="5.18973">
        <ele>739.5</ele>
        <time>2024-07-01T09:03:36Z</time>
      </trkpt>
      <trkpt lat="44.8575" lon="5.18975">
        <ele>739.9</ele>
        <time>2024-07-01T09:03:37Z</time>
      </trkpt>
      <trkpt lat="44.85753" lon="5.18976">
        <ele>740.1</ele>
        <time>2024-07-01T09:03:38Z</time>
      </trkpt>
      <trkpt lat="44.85754" lon="5.18976">
        <ele>740.1</ele>
        <time>2024-07-01T09:03:39Z</time>
      </trkpt>
      <trkpt lat="44.85755" lon="5.18976">
        <ele>740.1</ele>
        <time>2024-07-01T09:03:40Z</time>
      </trkpt>
      <trkpt lat="44.85755" lon="5.18976">
        <ele>740.1</ele>
        <time>2024-07-01T09:03:41Z</time>
      </trkpt>
      <trkpt lat="44.85755" lon="5.18977">
        <ele>740.2</ele>
        <time>2024-07-01T09:03:42Z</time>
      </trkpt>
      <trkpt lat="44.85755" lon="5.18976">
        <ele>740.2</ele>
        <time>2024-07-01T09:03:43Z</time>
      </trkpt>
      <trkpt lat="44.85755" lon="5.18975">
        <ele>740.3</ele>
        <time>2024-07-01T09:03:44Z</time>
      </trkpt>
      <trkpt lat="44.85755" lon="5.18976">
        <ele>740.3</ele>
        <time>2024-07-01T09:03:45Z</time>
      </trkpt>
      <trkpt lat="44.85754" lon="5.18976">
        <ele>740.4</ele>
        <time>2024-07-01T09:03:46Z</time>
      </trkpt>
      <trkpt lat="44.85754" lon="5.18976">
        <ele>740.4</ele>
        <time>2024-07-01T09:03:47Z</time>
      </trkpt>
      <trkpt lat="44.85754" lon="5.18975">
        <ele>740.4</ele>
        <time>2024-07-01T09:03:48Z</time>
      </trkpt>
      <trkpt lat="44.85754" lon="5.18974">
        <ele>740.5</ele>
        <time>2024-07-01T09:03:50Z</time>
      </trkpt>
      <trkpt lat="44.85755" lon="5.18973">
        <ele>740.5</ele>
        <time>2024-07-01T09:03:51Z</time>
      </trkpt>
      <trkpt lat="44.85756" lon="5.18972">
        <ele>740.6</ele>
        <time>2024-07-01T09:03:52Z</time>
      </trkpt>
      <trkpt lat="44.85758" lon="5.18971">
        <ele>740.7</ele>
        <time>2024-07-01T09:03:53Z</time>
      </trkpt>
      <trkpt lat="44.85759" lon="5.18971">
        <ele>740.7</ele>
        <time>2024-07-01T09:03:55Z</time>
      </trkpt>
      <trkpt lat="44.8576" lon="5.18971">
        <ele>740.8</ele>
        <time>2024-07-01T09:03:56Z</time>
      </trkpt>
      <trkpt lat="44.8576" lon="5.18972">
        <ele>740.8</ele>
        <time>2024-07-01T09:03:57Z</time>
      </trkpt>
      <trkpt lat="44.85761" lon="5.18972">
        <ele>740.8</ele>
        <time>2024-07-01T09:03:58Z</time>
      </trkpt>
      <trkpt lat="44.85761" lon="5.18971">
        <ele>740.9</ele>
        <time>2024-07-01T09:03:59Z</time>
      </trkpt>
      <trkpt lat="44.85761" lon="5.18972">
        <ele>740.9</ele>
        <time>2024-07-01T09:04:00Z</time>
      </trkpt>
      <trkpt lat="44.8576" lon="5.18973">
        <ele>741</ele>
        <time>2024-07-01T09:04:01Z</time>
      </trkpt>
      <trkpt lat="44.8576" lon="5.18974">
        <ele>741</ele>
        <time>2024-07-01T09:04:03Z</time>
      </trkpt>
      <trkpt lat="44.8576" lon="5.18974">
        <ele>741</ele>
        <time>2024-07-01T09:04:04Z</time>
      </trkpt>
      <trkpt lat="44.8576" lon="5.18974">
        <ele>741</ele>
        <time>2024-07-01T09:04:05Z</time>
      </trkpt>
      <trkpt lat="44.8576" lon="5.18974">
        <ele>741</ele>
        <time>2024-07-01T09:04:06Z</time>
      </trkpt>
      <trkpt lat="44.85762" lon="5.18974">
        <ele>741.1</ele>
        <time>2024-07-01T09:04:07Z</time>
      </trkpt>
      <trkpt lat="44.85765" lon="5.18975">
        <ele>741.2</ele>
        <time>2024-07-01T09:04:09Z</time>
      </trkpt>
      <trkpt lat="44.85768" lon="5.18975">
        <ele>741.4</ele>
        <time>2024-07-01T09:04:10Z</time>
      </trkpt>
      <trkpt lat="44.85768" lon="5.18975">
        <ele>741.4</ele>
        <time>2024-07-01T09:04:11Z</time>
      </trkpt>
      <trkpt lat="44.85771" lon="5.18975">
        <ele>741.5</ele>
        <time>2024-07-01T09:04:12Z</time>
      </trkpt>
      <trkpt lat="44.85772" lon="5.18971">
        <ele>741.7</ele>
        <time>2024-07-01T09:04:14Z</time>
      </trkpt>
      <trkpt lat="44.85773" lon="5.18961">
        <ele>742</ele>
        <time>2024-07-01T09:04:15Z</time>
      </trkpt>
      <trkpt lat="44.85773" lon="5.18956">
        <ele>742.2</ele>
        <time>2024-07-01T09:04:17Z</time>
      </trkpt>
      <trkpt lat="44.85773" lon="5.18951">
        <ele>742.3</ele>
        <time>2024-07-01T09:04:18Z</time>
      </trkpt>
      <trkpt lat="44.8577" lon="5.18945">
        <ele>742.5</ele>
        <time>2024-07-01T09:04:19Z</time>
      </trkpt>
      <trkpt lat="44.85767" lon="5.1894">
        <ele>742.7</ele>
        <time>2024-07-01T09:04:21Z</time>
      </trkpt>
      <trkpt lat="44.85766" lon="5.18938">
        <ele>742.8</ele>
        <time>2024-07-01T09:04:23Z</time>
      </trkpt>
      <trkpt lat="44.85765" lon="5.18938">
        <ele>742.8</ele>
        <time>2024-07-01T09:04:24Z</time>
      </trkpt>
      <trkpt lat="44.85765" lon="5.18938">
        <ele>742.8</ele>
        <time>2024-07-01T09:04:25Z</time>
      </trkpt>
      <trkpt lat="44.85765" lon="5.18938">
        <ele>742.8</ele>
        <time>2024-07-01T09:04:26Z</time>
      </trkpt>
      <trkpt lat="44.85766" lon="5.18938">
        <ele>742.8</ele>
        <time>2024-07-01T09:04:27Z</time>
      </trkpt>
      <trkpt lat="44.85766" lon="5.18939">
        <ele>742.8</ele>
        <time>2024-07-01T09:04:28Z</time>
      </trkpt>
      <trkpt lat="44.85766" lon="5.18939">
        <ele>742.8</ele>
        <time>2024-07-01T09:04:29Z</time>
      </trkpt>
      <trkpt lat="44.85766" lon="5.18938">
        <ele>742.8</ele>
        <time>2024-07-01T09:04:30Z</time>
      </trkpt>
      <trkpt lat="44.85766" lon="5.18939">
        <ele>742.8</ele>
        <time>2024-07-01T09:04:31Z</time>
      </trkpt>
      <trkpt lat="44.85766" lon="5.18939">
        <ele>742.8</ele>
        <time>2024-07-01T09:04:32Z</time>
      </trkpt>
      <trkpt lat="44.85766" lon="5.18939">
        <ele>742.8</ele>
        <time>2024-07-01T09:04:33Z</time>
      </trkpt>
      <trkpt lat="44.85766" lon="5.18939">
        <ele>742.8</ele>
        <time>2024-07-01T09:04:34Z</time>
      </trkpt>
      <trkpt lat="44.85766" lon="5.18939">
        <ele>742.8</ele>
        <time>2024-07-01T09:04:35Z</time>
      </trkpt>
      <trkpt lat="44.85766" lon="5.18939">
        <ele>742.8</ele>
        <time>2024-07-01T09:04:36Z</time>
      </trkpt>
      <trkpt lat="44.85766" lon="5.18939">
        <ele>742.9</ele>
        <time>2024-07-01T09:04:37Z</time>
      </trkpt>
      <trkpt lat="44.85767" lon="5.18938">
        <ele>742.9</ele>
        <time>2024-07-01T09:04:38Z</time>
      </trkpt>
      <trkpt lat="44.85768" lon="5.18935">
        <ele>743</ele>
        <time>2024-07-01T09:04:40Z</time>
      </trkpt>
      <trkpt lat="44.8577" lon="5.18934">
        <ele>743</ele>
        <time>2024-07-01T09:04:42Z</time>
      </trkpt>
      <trkpt lat="44.85771" lon="5.18933">
        <ele>743.1</ele>
        <time>2024-07-01T09:04:43Z</time>
      </trkpt>
      <trkpt lat="44.85773" lon="5.18933">
        <ele>743.2</ele>
        <time>2024-07-01T09:04:44Z</time>
      </trkpt>
      <trkpt lat="44.85775" lon="5.18933">
        <ele>743.2</ele>
        <time>2024-07-01T09:04:46Z</time>
      </trkpt>
      <trkpt lat="44.85776" lon="5.18932">
        <ele>743.3</ele>
        <time>2024-07-01T09:04:47Z</time>
      </trkpt>
      <trkpt lat="44.85778" lon="5.18932">
        <ele>743.3</ele>
        <time>2024-07-01T09:04:48Z</time>
      </trkpt>
      <trkpt lat="44.85779" lon="5.18932">
        <ele>743.4</ele>
        <time>2024-07-01T09:04:49Z</time>
      </trkpt>
      <trkpt lat="44.8578" lon="5.18933">
        <ele>743.4</ele>
        <time>2024-07-01T09:04:50Z</time>
      </trkpt>
      <trkpt lat="44.85781" lon="5.18932">
        <ele>743.5</ele>
        <time>2024-07-01T09:04:52Z</time>
      </trkpt>
      <trkpt lat="44.85782" lon="5.18932">
        <ele>743.5</ele>
        <time>2024-07-01T09:04:54Z</time>
      </trkpt>
      <trkpt lat="44.85782" lon="5.18931">
        <ele>743.5</ele>
        <time>2024-07-01T09:04:56Z</time>
      </trkpt>
      <trkpt lat="44.85783" lon="5.1893">
        <ele>743.6</ele>
        <time>2024-07-01T09:04:57Z</time>
      </trkpt>
      <trkpt lat="44.85784" lon="5.18929">
        <ele>743.6</ele>
        <time>2024-07-01T09:04:58Z</time>
      </trkpt>
      <trkpt lat="44.85784" lon="5.18928">
        <ele>743.6</ele>
        <time>2024-07-01T09:04:59Z</time>
      </trkpt>
      <trkpt lat="44.85784" lon="5.18927">
        <ele>743.7</ele>
        <time>2024-07-01T09:05:00Z</time>
      </trkpt>
      <trkpt lat="44.85785" lon="5.18925">
        <ele>743.7</ele>
        <time>2024-07-01T09:05:01Z</time>
      </trkpt>
      <trkpt lat="44.85786" lon="5.18923">
        <ele>743.8</ele>
        <time>2024-07-01T09:05:03Z</time>
      </trkpt>
      <trkpt lat="44.85787" lon="5.18922">
        <ele>743.9</ele>
        <time>2024-07-01T09:05:05Z</time>
      </trkpt>
      <trkpt lat="44.85788" lon="5.18921">
        <ele>743.9</ele>
        <time>2024-07-01T09:05:06Z</time>
      </trkpt>
      <trkpt lat="44.8579" lon="5.18924">
        <ele>744.1</ele>
        <time>2024-07-01T09:05:07Z</time>
      </trkpt>
      <trkpt lat="44.85792" lon="5.18929">
        <ele>744.3</ele>
        <time>2024-07-01T09:05:08Z</time>
      </trkpt>
      <trkpt lat="44.85794" lon="5.18938">
        <ele>744.6</ele>
        <time>2024-07-01T09:05:09Z</time>
      </trkpt>
      <trkpt lat="44.85795" lon="5.18939">
        <ele>744.7</ele>
        <time>2024-07-01T09:05:10Z</time>
      </trkpt>
      <trkpt lat="44.85796" lon="5.1894">
        <ele>744.8</ele>
        <time>2024-07-01T09:05:11Z</time>
      </trkpt>
      <trkpt lat="44.85798" lon="5.1894">
        <ele>744.9</ele>
        <time>2024-07-01T09:05:12Z</time>
      </trkpt>
      <trkpt lat="44.858" lon="5.18941">
        <ele>744.9</ele>
        <time>2024-07-01T09:05:13Z</time>
      </trkpt>
      <trkpt lat="44.85803" lon="5.18942">
        <ele>745.1</ele>
        <time>2024-07-01T09:05:14Z</time>
      </trkpt>
      <trkpt lat="44.85807" lon="5.18943">
        <ele>745.3</ele>
        <time>2024-07-01T09:05:16Z</time>
      </trkpt>
      <trkpt lat="44.85808" lon="5.18944">
        <ele>745.4</ele>
        <time>2024-07-01T09:05:17Z</time>
      </trkpt>
      <trkpt lat="44.8581" lon="5.18945">
        <ele>745.5</ele>
        <time>2024-07-01T09:05:18Z</time>
      </trkpt>
      <trkpt lat="44.85811" lon="5.18946">
        <ele>745.6</ele>
        <time>2024-07-01T09:05:19Z</time>
      </trkpt>
      <trkpt lat="44.85813" lon="5.18947">
        <ele>745.7</ele>
        <time>2024-07-01T09:05:20Z</time>
      </trkpt>
      <trkpt lat="44.85815" lon="5.18947">
        <ele>745.8</ele>
        <time>2024-07-01T09:05:22Z</time>
      </trkpt>
      <trkpt lat="44.85816" lon="5.18947">
        <ele>745.8</ele>
        <time>2024-07-01T09:05:23Z</time>
      </trkpt>
      <trkpt lat="44.85817" lon="5.18947">
        <ele>745.9</ele>
        <time>2024-07-01T09:05:24Z</time>
      </trkpt>
      <trkpt lat="44.85818" lon="5.18946">
        <ele>745.9</ele>
        <time>2024-07-01T09:05:25Z</time>
      </trkpt>
      <trkpt lat="44.85819" lon="5.18947">
        <ele>746</ele>
        <time>2024-07-01T09:05:26Z</time>
      </trkpt>
      <trkpt lat="44.85819" lon="5.18944">
        <ele>746.1</ele>
        <time>2024-07-01T09:05:27Z</time>
      </trkpt>
      <trkpt lat="44.8582" lon="5.18943">
        <ele>746.1</ele>
        <time>2024-07-01T09:05:28Z</time>
      </trkpt>
      <trkpt lat="44.85821" lon="5.1894">
        <ele>746.2</ele>
        <time>2024-07-01T09:05:29Z</time>
      </trkpt>
      <trkpt lat="44.85822" lon="5.18939">
        <ele>746.3</ele>
        <time>2024-07-01T09:05:30Z</time>
      </trkpt>
      <trkpt lat="44.85823" lon="5.18937">
        <ele>746.4</ele>
        <time>2024-07-01T09:05:31Z</time>
      </trkpt>
      <trkpt lat="44.85824" lon="5.18936">
        <ele>746.4</ele>
        <time>2024-07-01T09:05:32Z</time>
      </trkpt>
      <trkpt lat="44.85824" lon="5.18935">
        <ele>746.4</ele>
        <time>2024-07-01T09:05:33Z</time>
      </trkpt>
      <trkpt lat="44.85825" lon="5.18934">
        <ele>746.5</ele>
        <time>2024-07-01T09:05:34Z</time>
      </trkpt>
      <trkpt lat="44.85826" lon="5.18933">
        <ele>746.5</ele>
        <time>2024-07-01T09:05:35Z</time>
      </trkpt>
      <trkpt lat="44.85826" lon="5.18932">
        <ele>746.6</ele>
        <time>2024-07-01T09:05:36Z</time>
      </trkpt>
      <trkpt lat="44.85827" lon="5.18931">
        <ele>746.6</ele>
        <time>2024-07-01T09:05:37Z</time>
      </trkpt>
      <trkpt lat="44.85828" lon="5.1893">
        <ele>746.7</ele>
        <time>2024-07-01T09:05:38Z</time>
      </trkpt>
      <trkpt lat="44.85828" lon="5.18928">
        <ele>746.7</ele>
        <time>2024-07-01T09:05:39Z</time>
      </trkpt>
      <trkpt lat="44.85828" lon="5.18925">
        <ele>746.8</ele>
        <time>2024-07-01T09:05:40Z</time>
      </trkpt>
      <trkpt lat="44.85829" lon="5.18924">
        <ele>746.9</ele>
        <time>2024-07-01T09:05:42Z</time>
      </trkpt>
      <trkpt lat="44.8583" lon="5.18923">
        <ele>746.9</ele>
        <time>2024-07-01T09:05:43Z</time>
      </trkpt>
      <trkpt lat="44.85831" lon="5.18921">
        <ele>747</ele>
        <time>2024-07-01T09:05:44Z</time>
      </trkpt>
      <trkpt lat="44.85831" lon="5.1892">
        <ele>747</ele>
        <time>2024-07-01T09:05:46Z</time>
      </trkpt>
      <trkpt lat="44.85832" lon="5.1892">
        <ele>747.1</ele>
        <time>2024-07-01T09:05:47Z</time>
      </trkpt>
      <trkpt lat="44.85833" lon="5.18919">
        <ele>747.1</ele>
        <time>2024-07-01T09:05:48Z</time>
      </trkpt>
      <trkpt lat="44.85833" lon="5.18917">
        <ele>747.1</ele>
        <time>2024-07-01T09:05:49Z</time>
      </trkpt>
      <trkpt lat="44.85834" lon="5.18916">
        <ele>747.2</ele>
        <time>2024-07-01T09:05:50Z</time>
      </trkpt>
      <trkpt lat="44.85836" lon="5.18916">
        <ele>747.3</ele>
        <time>2024-07-01T09:05:52Z</time>
      </trkpt>
      <trkpt lat="44.85837" lon="5.18915">
        <ele>747.3</ele>
        <time>2024-07-01T09:05:54Z</time>
      </trkpt>
      <trkpt lat="44.85838" lon="5.18915">
        <ele>747.3</ele>
        <time>2024-07-01T09:05:55Z</time>
      </trkpt>
      <trkpt lat="44.85839" lon="5.18915">
        <ele>747.4</ele>
        <time>2024-07-01T09:05:56Z</time>
      </trkpt>
      <trkpt lat="44.8584" lon="5.18914">
        <ele>747.4</ele>
        <time>2024-07-01T09:05:57Z</time>
      </trkpt>
      <trkpt lat="44.85841" lon="5.18913">
        <ele>747.5</ele>
        <time>2024-07-01T09:05:59Z</time>
      </trkpt>
      <trkpt lat="44.85842" lon="5.18913">
        <ele>747.5</ele>
        <time>2024-07-01T09:06:00Z</time>
      </trkpt>
      <trkpt lat="44.85842" lon="5.18913">
        <ele>747.5</ele>
        <time>2024-07-01T09:06:01Z</time>
      </trkpt>
      <trkpt lat="44.85843" lon="5.18912">
        <ele>747.6</ele>
        <time>2024-07-01T09:06:02Z</time>
      </trkpt>
      <trkpt lat="44.85844" lon="5.18913">
        <ele>747.6</ele>
        <time>2024-07-01T09:06:03Z</time>
      </trkpt>
      <trkpt lat="44.85845" lon="5.18914">
        <ele>747.7</ele>
        <time>2024-07-01T09:06:04Z</time>
      </trkpt>
      <trkpt lat="44.85846" lon="5.18913">
        <ele>747.7</ele>
        <time>2024-07-01T09:06:06Z</time>
      </trkpt>
      <trkpt lat="44.85846" lon="5.18912">
        <ele>747.8</ele>
        <time>2024-07-01T09:06:08Z</time>
      </trkpt>
      <trkpt lat="44.85845" lon="5.18911">
        <ele>747.8</ele>
        <time>2024-07-01T09:06:09Z</time>
      </trkpt>
      <trkpt lat="44.85845" lon="5.1891">
        <ele>747.8</ele>
        <time>2024-07-01T09:06:10Z</time>
      </trkpt>
      <trkpt lat="44.85844" lon="5.18909">
        <ele>747.9</ele>
        <time>2024-07-01T09:06:11Z</time>
      </trkpt>
      <trkpt lat="44.85844" lon="5.18907">
        <ele>747.9</ele>
        <time>2024-07-01T09:06:12Z</time>
      </trkpt>
      <trkpt lat="44.85844" lon="5.18906">
        <ele>748</ele>
        <time>2024-07-01T09:06:13Z</time>
      </trkpt>
      <trkpt lat="44.85845" lon="5.18906">
        <ele>748</ele>
        <time>2024-07-01T09:06:14Z</time>
      </trkpt>
      <trkpt lat="44.85846" lon="5.18905">
        <ele>748.1</ele>
        <time>2024-07-01T09:06:15Z</time>
      </trkpt>
      <trkpt lat="44.85846" lon="5.18904">
        <ele>748.1</ele>
        <time>2024-07-01T09:06:17Z</time>
      </trkpt>
      <trkpt lat="44.85846" lon="5.18903">
        <ele>748.1</ele>
        <time>2024-07-01T09:06:18Z</time>
      </trkpt>
      <trkpt lat="44.85845" lon="5.18903">
        <ele>748.1</ele>
        <time>2024-07-01T09:06:19Z</time>
      </trkpt>
      <trkpt lat="44.85845" lon="5.18903">
        <ele>748.1</ele>
        <time>2024-07-01T09:06:20Z</time>
      </trkpt>
      <trkpt lat="44.85845" lon="5.18903">
        <ele>748.1</ele>
        <time>2024-07-01T09:06:21Z</time>
      </trkpt>
      <trkpt lat="44.85845" lon="5.18903">
        <ele>748.2</ele>
        <time>2024-07-01T09:06:22Z</time>
      </trkpt>
      <trkpt lat="44.85845" lon="5.18902">
        <ele>748.2</ele>
        <time>2024-07-01T09:06:23Z</time>
      </trkpt>
      <trkpt lat="44.85845" lon="5.18902">
        <ele>748.2</ele>
        <time>2024-07-01T09:06:24Z</time>
      </trkpt>
      <trkpt lat="44.85844" lon="5.18902">
        <ele>748.2</ele>
        <time>2024-07-01T09:06:25Z</time>
      </trkpt>
      <trkpt lat="44.85844" lon="5.18902">
        <ele>748.2</ele>
        <time>2024-07-01T09:06:26Z</time>
      </trkpt>
      <trkpt lat="44.85844" lon="5.18901">
        <ele>748.2</ele>
        <time>2024-07-01T09:06:27Z</time>
      </trkpt>
      <trkpt lat="44.85844" lon="5.18901">
        <ele>748.2</ele>
        <time>2024-07-01T09:06:28Z</time>
      </trkpt>
      <trkpt lat="44.85844" lon="5.18901">
        <ele>748.2</ele>
        <time>2024-07-01T09:06:29Z</time>
      </trkpt>
      <trkpt lat="44.85844" lon="5.18901">
        <ele>748.3</ele>
        <time>2024-07-01T09:06:30Z</time>
      </trkpt>
      <trkpt lat="44.85843" lon="5.18901">
        <ele>748.3</ele>
        <time>2024-07-01T09:06:31Z</time>
      </trkpt>
      <trkpt lat="44.85843" lon="5.189">
        <ele>748.3</ele>
        <time>2024-07-01T09:06:32Z</time>
      </trkpt>
      <trkpt lat="44.85843" lon="5.189">
        <ele>748.3</ele>
        <time>2024-07-01T09:06:33Z</time>
      </trkpt>
      <trkpt lat="44.85843" lon="5.189">
        <ele>748.3</ele>
        <time>2024-07-01T09:06:34Z</time>
      </trkpt>
      <trkpt lat="44.85841" lon="5.18899">
        <ele>748.4</ele>
        <time>2024-07-01T09:06:35Z</time>
      </trkpt>
      <trkpt lat="44.8584" lon="5.18898">
        <ele>748.5</ele>
        <time>2024-07-01T09:06:36Z</time>
      </trkpt>
      <trkpt lat="44.85839" lon="5.18896">
        <ele>748.5</ele>
        <time>2024-07-01T09:06:37Z</time>
      </trkpt>
      <trkpt lat="44.85839" lon="5.18895">
        <ele>748.6</ele>
        <time>2024-07-01T09:06:38Z</time>
      </trkpt>
      <trkpt lat="44.85839" lon="5.18895">
        <ele>748.6</ele>
        <time>2024-07-01T09:06:39Z</time>
      </trkpt>
      <trkpt lat="44.85839" lon="5.18894">
        <ele>748.6</ele>
        <time>2024-07-01T09:06:40Z</time>
      </trkpt>
      <trkpt lat="44.85839" lon="5.18893">
        <ele>748.7</ele>
        <time>2024-07-01T09:06:42Z</time>
      </trkpt>
      <trkpt lat="44.8584" lon="5.18894">
        <ele>748.7</ele>
        <time>2024-07-01T09:06:43Z</time>
      </trkpt>
      <trkpt lat="44.85841" lon="5.18894">
        <ele>748.8</ele>
        <time>2024-07-01T09:06:45Z</time>
      </trkpt>
      <trkpt lat="44.85842" lon="5.18894">
        <ele>748.8</ele>
        <time>2024-07-01T09:06:46Z</time>
      </trkpt>
      <trkpt lat="44.85842" lon="5.18894">
        <ele>748.8</ele>
        <time>2024-07-01T09:06:47Z</time>
      </trkpt>
      <trkpt lat="44.85843" lon="5.18894">
        <ele>748.9</ele>
        <time>2024-07-01T09:06:48Z</time>
      </trkpt>
      <trkpt lat="44.85844" lon="5.18894">
        <ele>749</ele>
        <time>2024-07-01T09:06:49Z</time>
      </trkpt>
      <trkpt lat="44.85846" lon="5.18896">
        <ele>749.1</ele>
        <time>2024-07-01T09:06:50Z</time>
      </trkpt>
      <trkpt lat="44.85847" lon="5.18897">
        <ele>749.2</ele>
        <time>2024-07-01T09:06:52Z</time>
      </trkpt>
      <trkpt lat="44.85848" lon="5.18898">
        <ele>749.2</ele>
        <time>2024-07-01T09:06:53Z</time>
      </trkpt>
      <trkpt lat="44.8585" lon="5.18898">
        <ele>749.3</ele>
        <time>2024-07-01T09:06:54Z</time>
      </trkpt>
      <trkpt lat="44.85851" lon="5.18899">
        <ele>749.4</ele>
        <time>2024-07-01T09:06:55Z</time>
      </trkpt>
      <trkpt lat="44.85852" lon="5.18899">
        <ele>749.4</ele>
        <time>2024-07-01T09:06:56Z</time>
      </trkpt>
      <trkpt lat="44.85853" lon="5.18897">
        <ele>749.5</ele>
        <time>2024-07-01T09:06:57Z</time>
      </trkpt>
      <trkpt lat="44.85853" lon="5.18894">
        <ele>749.6</ele>
        <time>2024-07-01T09:06:58Z</time>
      </trkpt>
      <trkpt lat="44.85853" lon="5.18892">
        <ele>749.7</ele>
        <time>2024-07-01T09:06:59Z</time>
      </trkpt>
      <trkpt lat="44.85854" lon="5.1889">
        <ele>749.8</ele>
        <time>2024-07-01T09:07:00Z</time>
      </trkpt>
      <trkpt lat="44.85855" lon="5.18889">
        <ele>749.8</ele>
        <time>2024-07-01T09:07:01Z</time>
      </trkpt>
      <trkpt lat="44.85856" lon="5.18889">
        <ele>749.9</ele>
        <time>2024-07-01T09:07:02Z</time>
      </trkpt>
      <trkpt lat="44.85857" lon="5.18889">
        <ele>749.9</ele>
        <time>2024-07-01T09:07:03Z</time>
      </trkpt>
      <trkpt lat="44.85858" lon="5.18889">
        <ele>750</ele>
        <time>2024-07-01T09:07:05Z</time>
      </trkpt>
      <trkpt lat="44.85858" lon="5.18888">
        <ele>750</ele>
        <time>2024-07-01T09:07:06Z</time>
      </trkpt>
      <trkpt lat="44.85859" lon="5.18887">
        <ele>750.1</ele>
        <time>2024-07-01T09:07:07Z</time>
      </trkpt>
      <trkpt lat="44.8586" lon="5.18887">
        <ele>750.1</ele>
        <time>2024-07-01T09:07:08Z</time>
      </trkpt>
      <trkpt lat="44.85861" lon="5.18885">
        <ele>750.2</ele>
        <time>2024-07-01T09:07:09Z</time>
      </trkpt>
      <trkpt lat="44.85862" lon="5.18884">
        <ele>750.2</ele>
        <time>2024-07-01T09:07:10Z</time>
      </trkpt>
      <trkpt lat="44.85863" lon="5.18883">
        <ele>750.3</ele>
        <time>2024-07-01T09:07:11Z</time>
      </trkpt>
      <trkpt lat="44.85865" lon="5.18882">
        <ele>750.4</ele>
        <time>2024-07-01T09:07:12Z</time>
      </trkpt>
      <trkpt lat="44.85865" lon="5.18882">
        <ele>750.4</ele>
        <time>2024-07-01T09:07:13Z</time>
      </trkpt>
      <trkpt lat="44.85866" lon="5.18882">
        <ele>750.4</ele>
        <time>2024-07-01T09:07:15Z</time>
      </trkpt>
      <trkpt lat="44.85866" lon="5.18882">
        <ele>750.4</ele>
        <time>2024-07-01T09:07:16Z</time>
      </trkpt>
      <trkpt lat="44.85867" lon="5.18881">
        <ele>750.4</ele>
        <time>2024-07-01T09:07:17Z</time>
      </trkpt>
      <trkpt lat="44.85868" lon="5.18881">
        <ele>750.5</ele>
        <time>2024-07-01T09:07:18Z</time>
      </trkpt>
      <trkpt lat="44.85868" lon="5.18881">
        <ele>750.5</ele>
        <time>2024-07-01T09:07:19Z</time>
      </trkpt>
      <trkpt lat="44.85869" lon="5.18881">
        <ele>750.5</ele>
        <time>2024-07-01T09:07:20Z</time>
      </trkpt>
      <trkpt lat="44.85871" lon="5.18882">
        <ele>750.6</ele>
        <time>2024-07-01T09:07:22Z</time>
      </trkpt>
      <trkpt lat="44.85872" lon="5.18882">
        <ele>750.7</ele>
        <time>2024-07-01T09:07:24Z</time>
      </trkpt>
      <trkpt lat="44.85874" lon="5.18882">
        <ele>750.7</ele>
        <time>2024-07-01T09:07:25Z</time>
      </trkpt>
      <trkpt lat="44.85875" lon="5.18882">
        <ele>750.7</ele>
        <time>2024-07-01T09:07:26Z</time>
      </trkpt>
      <trkpt lat="44.85876" lon="5.18884">
        <ele>750.8</ele>
        <time>2024-07-01T09:07:27Z</time>
      </trkpt>
      <trkpt lat="44.85877" lon="5.18885">
        <ele>750.9</ele>
        <time>2024-07-01T09:07:28Z</time>
      </trkpt>
      <trkpt lat="44.85879" lon="5.18886">
        <ele>750.9</ele>
        <time>2024-07-01T09:07:30Z</time>
      </trkpt>
      <trkpt lat="44.8588" lon="5.18887">
        <ele>751</ele>
        <time>2024-07-01T09:07:31Z</time>
      </trkpt>
      <trkpt lat="44.85881" lon="5.18888">
        <ele>751.1</ele>
        <time>2024-07-01T09:07:32Z</time>
      </trkpt>
      <trkpt lat="44.85882" lon="5.18889">
        <ele>751.1</ele>
        <time>2024-07-01T09:07:34Z</time>
      </trkpt>
      <trkpt lat="44.85883" lon="5.18889">
        <ele>751.2</ele>
        <time>2024-07-01T09:07:35Z</time>
      </trkpt>
      <trkpt lat="44.85884" lon="5.1889">
        <ele>751.2</ele>
        <time>2024-07-01T09:07:36Z</time>
      </trkpt>
      <trkpt lat="44.85885" lon="5.18891">
        <ele>751.3</ele>
        <time>2024-07-01T09:07:37Z</time>
      </trkpt>
      <trkpt lat="44.85885" lon="5.18892">
        <ele>751.3</ele>
        <time>2024-07-01T09:07:38Z</time>
      </trkpt>
      <trkpt lat="44.85886" lon="5.18892">
        <ele>751.4</ele>
        <time>2024-07-01T09:07:39Z</time>
      </trkpt>
      <trkpt lat="44.85886" lon="5.18892">
        <ele>751.4</ele>
        <time>2024-07-01T09:07:40Z</time>
      </trkpt>
      <trkpt lat="44.85886" lon="5.18892">
        <ele>751.4</ele>
        <time>2024-07-01T09:07:41Z</time>
      </trkpt>
      <trkpt lat="44.85887" lon="5.18891">
        <ele>751.4</ele>
        <time>2024-07-01T09:07:42Z</time>
      </trkpt>
      <trkpt lat="44.85888" lon="5.18891">
        <ele>751.5</ele>
        <time>2024-07-01T09:07:44Z</time>
      </trkpt>
      <trkpt lat="44.85888" lon="5.18891">
        <ele>751.5</ele>
        <time>2024-07-01T09:07:45Z</time>
      </trkpt>
      <trkpt lat="44.85888" lon="5.18891">
        <ele>751.5</ele>
        <time>2024-07-01T09:07:46Z</time>
      </trkpt>
      <trkpt lat="44.85891" lon="5.18892">
        <ele>751.6</ele>
        <time>2024-07-01T09:07:47Z</time>
      </trkpt>
      <trkpt lat="44.85893" lon="5.18892">
        <ele>751.7</ele>
        <time>2024-07-01T09:07:49Z</time>
      </trkpt>
      <trkpt lat="44.85894" lon="5.18892">
        <ele>751.8</ele>
        <time>2024-07-01T09:07:50Z</time>
      </trkpt>
      <trkpt lat="44.85895" lon="5.18892">
        <ele>751.9</ele>
        <time>2024-07-01T09:07:51Z</time>
      </trkpt>
      <trkpt lat="44.85896" lon="5.18892">
        <ele>751.9</ele>
        <time>2024-07-01T09:07:52Z</time>
      </trkpt>
      <trkpt lat="44.85897" lon="5.18892">
        <ele>752</ele>
        <time>2024-07-01T09:07:53Z</time>
      </trkpt>
      <trkpt lat="44.85899" lon="5.18892">
        <ele>752</ele>
        <time>2024-07-01T09:07:54Z</time>
      </trkpt>
      <trkpt lat="44.859" lon="5.18892">
        <ele>752.1</ele>
        <time>2024-07-01T09:07:55Z</time>
      </trkpt>
      <trkpt lat="44.85902" lon="5.1889">
        <ele>752.2</ele>
        <time>2024-07-01T09:07:56Z</time>
      </trkpt>
      <trkpt lat="44.85902" lon="5.1889">
        <ele>752.3</ele>
        <time>2024-07-01T09:07:57Z</time>
      </trkpt>
      <trkpt lat="44.85903" lon="5.18889">
        <ele>752.3</ele>
        <time>2024-07-01T09:07:58Z</time>
      </trkpt>
      <trkpt lat="44.85905" lon="5.18887">
        <ele>752.5</ele>
        <time>2024-07-01T09:07:59Z</time>
      </trkpt>
      <trkpt lat="44.85905" lon="5.18886">
        <ele>752.5</ele>
        <time>2024-07-01T09:08:01Z</time>
      </trkpt>
      <trkpt lat="44.85906" lon="5.18886">
        <ele>752.5</ele>
        <time>2024-07-01T09:08:02Z</time>
      </trkpt>
      <trkpt lat="44.85907" lon="5.18885">
        <ele>752.6</ele>
        <time>2024-07-01T09:08:03Z</time>
      </trkpt>
      <trkpt lat="44.85907" lon="5.18884">
        <ele>752.7</ele>
        <time>2024-07-01T09:08:04Z</time>
      </trkpt>
      <trkpt lat="44.85908" lon="5.18884">
        <ele>752.7</ele>
        <time>2024-07-01T09:08:05Z</time>
      </trkpt>
      <trkpt lat="44.85909" lon="5.18884">
        <ele>752.8</ele>
        <time>2024-07-01T09:08:06Z</time>
      </trkpt>
      <trkpt lat="44.8591" lon="5.18885">
        <ele>752.8</ele>
        <time>2024-07-01T09:08:07Z</time>
      </trkpt>
      <trkpt lat="44.85912" lon="5.18885">
        <ele>752.9</ele>
        <time>2024-07-01T09:08:08Z</time>
      </trkpt>
      <trkpt lat="44.85913" lon="5.18888">
        <ele>753.1</ele>
        <time>2024-07-01T09:08:10Z</time>
      </trkpt>
      <trkpt lat="44.85914" lon="5.18889">
        <ele>753.2</ele>
        <time>2024-07-01T09:08:11Z</time>
      </trkpt>
      <trkpt lat="44.85916" lon="5.1889">
        <ele>753.3</ele>
        <time>2024-07-01T09:08:13Z</time>
      </trkpt>
      <trkpt lat="44.85917" lon="5.1889">
        <ele>753.4</ele>
        <time>2024-07-01T09:08:14Z</time>
      </trkpt>
      <trkpt lat="44.85918" lon="5.1889">
        <ele>753.4</ele>
        <time>2024-07-01T09:08:15Z</time>
      </trkpt>
      <trkpt lat="44.8592" lon="5.18889">
        <ele>753.6</ele>
        <time>2024-07-01T09:08:16Z</time>
      </trkpt>
      <trkpt lat="44.85921" lon="5.18888">
        <ele>753.6</ele>
        <time>2024-07-01T09:08:18Z</time>
      </trkpt>
      <trkpt lat="44.85922" lon="5.18889">
        <ele>753.7</ele>
        <time>2024-07-01T09:08:19Z</time>
      </trkpt>
      <trkpt lat="44.85923" lon="5.18889">
        <ele>753.7</ele>
        <time>2024-07-01T09:08:20Z</time>
      </trkpt>
      <trkpt lat="44.85924" lon="5.18891">
        <ele>753.9</ele>
        <time>2024-07-01T09:08:21Z</time>
      </trkpt>
      <trkpt lat="44.85925" lon="5.18892">
        <ele>753.9</ele>
        <time>2024-07-01T09:08:23Z</time>
      </trkpt>
      <trkpt lat="44.85926" lon="5.18893">
        <ele>754</ele>
        <time>2024-07-01T09:08:24Z</time>
      </trkpt>
      <trkpt lat="44.85927" lon="5.18893">
        <ele>754.1</ele>
        <time>2024-07-01T09:08:25Z</time>
      </trkpt>
      <trkpt lat="44.85928" lon="5.18894">
        <ele>754.1</ele>
        <time>2024-07-01T09:08:26Z</time>
      </trkpt>
      <trkpt lat="44.85929" lon="5.18894">
        <ele>754.2</ele>
        <time>2024-07-01T09:08:27Z</time>
      </trkpt>
      <trkpt lat="44.85931" lon="5.18894">
        <ele>754.3</ele>
        <time>2024-07-01T09:08:28Z</time>
      </trkpt>
      <trkpt lat="44.85933" lon="5.18894">
        <ele>754.4</ele>
        <time>2024-07-01T09:08:30Z</time>
      </trkpt>
      <trkpt lat="44.85934" lon="5.18894">
        <ele>754.5</ele>
        <time>2024-07-01T09:08:32Z</time>
      </trkpt>
      <trkpt lat="44.85935" lon="5.18895">
        <ele>754.6</ele>
        <time>2024-07-01T09:08:33Z</time>
      </trkpt>
      <trkpt lat="44.85936" lon="5.18897">
        <ele>754.7</ele>
        <time>2024-07-01T09:08:35Z</time>
      </trkpt>
      <trkpt lat="44.85937" lon="5.18898">
        <ele>754.7</ele>
        <time>2024-07-01T09:08:37Z</time>
      </trkpt>
      <trkpt lat="44.85937" lon="5.18899">
        <ele>754.7</ele>
        <time>2024-07-01T09:08:38Z</time>
      </trkpt>
      <trkpt lat="44.85938" lon="5.189">
        <ele>754.8</ele>
        <time>2024-07-01T09:08:39Z</time>
      </trkpt>
      <trkpt lat="44.85938" lon="5.189">
        <ele>754.8</ele>
        <time>2024-07-01T09:08:40Z</time>
      </trkpt>
      <trkpt lat="44.85939" lon="5.18901">
        <ele>754.9</ele>
        <time>2024-07-01T09:08:41Z</time>
      </trkpt>
      <trkpt lat="44.8594" lon="5.18902">
        <ele>754.9</ele>
        <time>2024-07-01T09:08:42Z</time>
      </trkpt>
      <trkpt lat="44.85941" lon="5.18903">
        <ele>755</ele>
        <time>2024-07-01T09:08:43Z</time>
      </trkpt>
      <trkpt lat="44.85942" lon="5.18905">
        <ele>755.1</ele>
        <time>2024-07-01T09:08:45Z</time>
      </trkpt>
      <trkpt lat="44.85943" lon="5.18907">
        <ele>755.2</ele>
        <time>2024-07-01T09:08:46Z</time>
      </trkpt>
      <trkpt lat="44.85943" lon="5.18907">
        <ele>755.2</ele>
        <time>2024-07-01T09:08:48Z</time>
      </trkpt>
      <trkpt lat="44.85944" lon="5.18908">
        <ele>755.2</ele>
        <time>2024-07-01T09:08:49Z</time>
      </trkpt>
      <trkpt lat="44.85944" lon="5.18909">
        <ele>755.3</ele>
        <time>2024-07-01T09:08:50Z</time>
      </trkpt>
      <trkpt lat="44.85945" lon="5.1891">
        <ele>755.3</ele>
        <time>2024-07-01T09:08:51Z</time>
      </trkpt>
      <trkpt lat="44.85946" lon="5.1891">
        <ele>755.4</ele>
        <time>2024-07-01T09:08:52Z</time>
      </trkpt>
      <trkpt lat="44.85946" lon="5.18911">
        <ele>755.4</ele>
        <time>2024-07-01T09:08:53Z</time>
      </trkpt>
      <trkpt lat="44.85947" lon="5.18911">
        <ele>755.4</ele>
        <time>2024-07-01T09:08:54Z</time>
      </trkpt>
      <trkpt lat="44.85948" lon="5.18912">
        <ele>755.5</ele>
        <time>2024-07-01T09:08:55Z</time>
      </trkpt>
      <trkpt lat="44.85948" lon="5.18912">
        <ele>755.5</ele>
        <time>2024-07-01T09:08:56Z</time>
      </trkpt>
      <trkpt lat="44.8595" lon="5.18913">
        <ele>755.6</ele>
        <time>2024-07-01T09:08:58Z</time>
      </trkpt>
      <trkpt lat="44.8595" lon="5.18912">
        <ele>755.6</ele>
        <time>2024-07-01T09:09:00Z</time>
      </trkpt>
      <trkpt lat="44.8595" lon="5.18912">
        <ele>755.6</ele>
        <time>2024-07-01T09:09:01Z</time>
      </trkpt>
      <trkpt lat="44.8595" lon="5.18911">
        <ele>755.6</ele>
        <time>2024-07-01T09:09:02Z</time>
      </trkpt>
      <trkpt lat="44.85951" lon="5.18911">
        <ele>755.7</ele>
        <time>2024-07-01T09:09:03Z</time>
      </trkpt>
      <trkpt lat="44.85952" lon="5.18911">
        <ele>755.7</ele>
        <time>2024-07-01T09:09:05Z</time>
      </trkpt>
      <trkpt lat="44.85953" lon="5.18911">
        <ele>755.8</ele>
        <time>2024-07-01T09:09:06Z</time>
      </trkpt>
      <trkpt lat="44.85953" lon="5.1891">
        <ele>755.8</ele>
        <time>2024-07-01T09:09:07Z</time>
      </trkpt>
      <trkpt lat="44.85953" lon="5.18911">
        <ele>755.8</ele>
        <time>2024-07-01T09:09:08Z</time>
      </trkpt>
      <trkpt lat="44.85952" lon="5.18913">
        <ele>755.9</ele>
        <time>2024-07-01T09:09:09Z</time>
      </trkpt>
      <trkpt lat="44.85951" lon="5.18914">
        <ele>755.9</ele>
        <time>2024-07-01T09:09:10Z</time>
      </trkpt>
      <trkpt lat="44.8595" lon="5.18916">
        <ele>756</ele>
        <time>2024-07-01T09:09:11Z</time>
      </trkpt>
      <trkpt lat="44.85949" lon="5.18915">
        <ele>756.1</ele>
        <time>2024-07-01T09:09:12Z</time>
      </trkpt>
      <trkpt lat="44.85949" lon="5.18915">
        <ele>756.1</ele>
        <time>2024-07-01T09:09:13Z</time>
      </trkpt>
      <trkpt lat="44.85949" lon="5.18915">
        <ele>756.1</ele>
        <time>2024-07-01T09:09:15Z</time>
      </trkpt>
      <trkpt lat="44.85949" lon="5.18915">
        <ele>756.1</ele>
        <time>2024-07-01T09:09:16Z</time>
      </trkpt>
      <trkpt lat="44.85948" lon="5.18915">
        <ele>756.1</ele>
        <time>2024-07-01T09:09:17Z</time>
      </trkpt>
      <trkpt lat="44.85949" lon="5.18915">
        <ele>756.1</ele>
        <time>2024-07-01T09:09:18Z</time>
      </trkpt>
      <trkpt lat="44.85949" lon="5.18915">
        <ele>756.1</ele>
        <time>2024-07-01T09:09:19Z</time>
      </trkpt>
      <trkpt lat="44.85949" lon="5.18915">
        <ele>756.2</ele>
        <time>2024-07-01T09:09:20Z</time>
      </trkpt>
      <trkpt lat="44.8595" lon="5.18915">
        <ele>756.2</ele>
        <time>2024-07-01T09:09:21Z</time>
      </trkpt>
      <trkpt lat="44.8595" lon="5.18916">
        <ele>756.2</ele>
        <time>2024-07-01T09:09:22Z</time>
      </trkpt>
      <trkpt lat="44.85951" lon="5.18917">
        <ele>756.3</ele>
        <time>2024-07-01T09:09:23Z</time>
      </trkpt>
      <trkpt lat="44.85952" lon="5.18918">
        <ele>756.3</ele>
        <time>2024-07-01T09:09:24Z</time>
      </trkpt>
      <trkpt lat="44.85953" lon="5.18919">
        <ele>756.4</ele>
        <time>2024-07-01T09:09:25Z</time>
      </trkpt>
      <trkpt lat="44.85955" lon="5.1892">
        <ele>756.5</ele>
        <time>2024-07-01T09:09:26Z</time>
      </trkpt>
      <trkpt lat="44.85955" lon="5.18922">
        <ele>756.6</ele>
        <time>2024-07-01T09:09:27Z</time>
      </trkpt>
      <trkpt lat="44.85954" lon="5.18923">
        <ele>756.6</ele>
        <time>2024-07-01T09:09:29Z</time>
      </trkpt>
      <trkpt lat="44.85953" lon="5.18924">
        <ele>756.7</ele>
        <time>2024-07-01T09:09:30Z</time>
      </trkpt>
      <trkpt lat="44.85953" lon="5.18925">
        <ele>756.7</ele>
        <time>2024-07-01T09:09:31Z</time>
      </trkpt>
      <trkpt lat="44.85953" lon="5.18926">
        <ele>756.8</ele>
        <time>2024-07-01T09:09:32Z</time>
      </trkpt>
      <trkpt lat="44.85954" lon="5.18926">
        <ele>756.8</ele>
        <time>2024-07-01T09:09:33Z</time>
      </trkpt>
      <trkpt lat="44.85955" lon="5.18926">
        <ele>756.8</ele>
        <time>2024-07-01T09:09:34Z</time>
      </trkpt>
      <trkpt lat="44.85955" lon="5.18926">
        <ele>756.9</ele>
        <time>2024-07-01T09:09:35Z</time>
      </trkpt>
      <trkpt lat="44.85956" lon="5.18925">
        <ele>756.9</ele>
        <time>2024-07-01T09:09:36Z</time>
      </trkpt>
      <trkpt lat="44.85957" lon="5.18926">
        <ele>757</ele>
        <time>2024-07-01T09:09:37Z</time>
      </trkpt>
      <trkpt lat="44.8596" lon="5.18927">
        <ele>757.2</ele>
        <time>2024-07-01T09:09:38Z</time>
      </trkpt>
      <trkpt lat="44.85962" lon="5.18929">
        <ele>757.3</ele>
        <time>2024-07-01T09:09:40Z</time>
      </trkpt>
      <trkpt lat="44.85962" lon="5.18931">
        <ele>757.4</ele>
        <time>2024-07-01T09:09:42Z</time>
      </trkpt>
      <trkpt lat="44.85962" lon="5.18933">
        <ele>757.5</ele>
        <time>2024-07-01T09:09:43Z</time>
      </trkpt>
      <trkpt lat="44.85963" lon="5.18934">
        <ele>757.5</ele>
        <time>2024-07-01T09:09:44Z</time>
      </trkpt>
      <trkpt lat="44.85963" lon="5.18935">
        <ele>757.6</ele>
        <time>2024-07-01T09:09:45Z</time>
      </trkpt>
      <trkpt lat="44.85964" lon="5.18937">
        <ele>757.6</ele>
        <time>2024-07-01T09:09:46Z</time>
      </trkpt>
      <trkpt lat="44.85964" lon="5.18937">
        <ele>757.7</ele>
        <time>2024-07-01T09:09:47Z</time>
      </trkpt>
      <trkpt lat="44.85965" lon="5.18938">
        <ele>757.7</ele>
        <time>2024-07-01T09:09:48Z</time>
      </trkpt>
      <trkpt lat="44.85965" lon="5.18939">
        <ele>757.8</ele>
        <time>2024-07-01T09:09:49Z</time>
      </trkpt>
      <trkpt lat="44.85965" lon="5.18939">
        <ele>757.8</ele>
        <time>2024-07-01T09:09:50Z</time>
      </trkpt>
      <trkpt lat="44.85965" lon="5.18939">
        <ele>757.8</ele>
        <time>2024-07-01T09:09:51Z</time>
      </trkpt>
      <trkpt lat="44.85965" lon="5.18939">
        <ele>757.8</ele>
        <time>2024-07-01T09:09:53Z</time>
      </trkpt>
      <trkpt lat="44.85965" lon="5.18939">
        <ele>757.8</ele>
        <time>2024-07-01T09:09:54Z</time>
      </trkpt>
      <trkpt lat="44.85965" lon="5.18939">
        <ele>757.8</ele>
        <time>2024-07-01T09:09:55Z</time>
      </trkpt>
      <trkpt lat="44.85965" lon="5.1894">
        <ele>757.9</ele>
        <time>2024-07-01T09:09:56Z</time>
      </trkpt>
      <trkpt lat="44.85965" lon="5.1894">
        <ele>757.9</ele>
        <time>2024-07-01T09:09:57Z</time>
      </trkpt>
      <trkpt lat="44.85965" lon="5.18941">
        <ele>757.9</ele>
        <time>2024-07-01T09:09:58Z</time>
      </trkpt>
      <trkpt lat="44.85965" lon="5.18941">
        <ele>757.9</ele>
        <time>2024-07-01T09:09:59Z</time>
      </trkpt>
      <trkpt lat="44.85965" lon="5.18942">
        <ele>758</ele>
        <time>2024-07-01T09:10:01Z</time>
      </trkpt>
      <trkpt lat="44.85965" lon="5.18943">
        <ele>758</ele>
        <time>2024-07-01T09:10:02Z</time>
      </trkpt>
      <trkpt lat="44.85965" lon="5.18944">
        <ele>758</ele>
        <time>2024-07-01T09:10:03Z</time>
      </trkpt>
      <trkpt lat="44.85965" lon="5.18944">
        <ele>758.1</ele>
        <time>2024-07-01T09:10:04Z</time>
      </trkpt>
      <trkpt lat="44.85965" lon="5.18945">
        <ele>758.1</ele>
        <time>2024-07-01T09:10:05Z</time>
      </trkpt>
      <trkpt lat="44.85965" lon="5.18946">
        <ele>758.2</ele>
        <time>2024-07-01T09:10:06Z</time>
      </trkpt>
      <trkpt lat="44.85966" lon="5.18948">
        <ele>758.2</ele>
        <time>2024-07-01T09:10:07Z</time>
      </trkpt>
      <trkpt lat="44.85966" lon="5.18948">
        <ele>758.2</ele>
        <time>2024-07-01T09:10:08Z</time>
      </trkpt>
      <trkpt lat="44.85966" lon="5.18948">
        <ele>758.2</ele>
        <time>2024-07-01T09:10:09Z</time>
      </trkpt>
      <trkpt lat="44.85966" lon="5.18948">
        <ele>758.3</ele>
        <time>2024-07-01T09:10:10Z</time>
      </trkpt>
      <trkpt lat="44.85966" lon="5.18948">
        <ele>758.3</ele>
        <time>2024-07-01T09:10:11Z</time>
      </trkpt>
      <trkpt lat="44.85967" lon="5.18949">
        <ele>758.3</ele>
        <time>2024-07-01T09:10:12Z</time>
      </trkpt>
      <trkpt lat="44.85967" lon="5.1895">
        <ele>758.3</ele>
        <time>2024-07-01T09:10:13Z</time>
      </trkpt>
      <trkpt lat="44.85967" lon="5.1895">
        <ele>758.4</ele>
        <time>2024-07-01T09:10:14Z</time>
      </trkpt>
      <trkpt lat="44.85968" lon="5.1895">
        <ele>758.4</ele>
        <time>2024-07-01T09:10:15Z</time>
      </trkpt>
      <trkpt lat="44.85969" lon="5.18951">
        <ele>758.4</ele>
        <time>2024-07-01T09:10:16Z</time>
      </trkpt>
      <trkpt lat="44.85969" lon="5.18951">
        <ele>758.5</ele>
        <time>2024-07-01T09:10:17Z</time>
      </trkpt>
      <trkpt lat="44.8597" lon="5.18952">
        <ele>758.5</ele>
        <time>2024-07-01T09:10:18Z</time>
      </trkpt>
      <trkpt lat="44.85972" lon="5.18953">
        <ele>758.6</ele>
        <time>2024-07-01T09:10:20Z</time>
      </trkpt>
      <trkpt lat="44.85973" lon="5.18953">
        <ele>758.7</ele>
        <time>2024-07-01T09:10:22Z</time>
      </trkpt>
      <trkpt lat="44.85974" lon="5.18954">
        <ele>758.7</ele>
        <time>2024-07-01T09:10:23Z</time>
      </trkpt>
      <trkpt lat="44.85975" lon="5.18954">
        <ele>758.8</ele>
        <time>2024-07-01T09:10:24Z</time>
      </trkpt>
      <trkpt lat="44.85976" lon="5.18954">
        <ele>758.8</ele>
        <time>2024-07-01T09:10:25Z</time>
      </trkpt>
      <trkpt lat="44.85977" lon="5.18953">
        <ele>758.9</ele>
        <time>2024-07-01T09:10:26Z</time>
      </trkpt>
      <trkpt lat="44.85977" lon="5.18953">
        <ele>758.9</ele>
        <time>2024-07-01T09:10:27Z</time>
      </trkpt>
      <trkpt lat="44.85977" lon="5.18954">
        <ele>758.9</ele>
        <time>2024-07-01T09:10:28Z</time>
      </trkpt>
      <trkpt lat="44.85976" lon="5.18954">
        <ele>759</ele>
        <time>2024-07-01T09:10:29Z</time>
      </trkpt>
      <trkpt lat="44.85975" lon="5.18953">
        <ele>759.1</ele>
        <time>2024-07-01T09:10:30Z</time>
      </trkpt>
      <trkpt lat="44.85975" lon="5.18953">
        <ele>759.1</ele>
        <time>2024-07-01T09:10:31Z</time>
      </trkpt>
      <trkpt lat="44.85974" lon="5.18953">
        <ele>759.1</ele>
        <time>2024-07-01T09:10:32Z</time>
      </trkpt>
      <trkpt lat="44.85975" lon="5.18953">
        <ele>759.1</ele>
        <time>2024-07-01T09:10:33Z</time>
      </trkpt>
      <trkpt lat="44.85976" lon="5.18954">
        <ele>759.2</ele>
        <time>2024-07-01T09:10:35Z</time>
      </trkpt>
      <trkpt lat="44.85977" lon="5.18955">
        <ele>759.3</ele>
        <time>2024-07-01T09:10:37Z</time>
      </trkpt>
      <trkpt lat="44.85979" lon="5.18956">
        <ele>759.4</ele>
        <time>2024-07-01T09:10:38Z</time>
      </trkpt>
      <trkpt lat="44.8598" lon="5.18956">
        <ele>759.4</ele>
        <time>2024-07-01T09:10:39Z</time>
      </trkpt>
      <trkpt lat="44.85981" lon="5.18957">
        <ele>759.5</ele>
        <time>2024-07-01T09:10:40Z</time>
      </trkpt>
      <trkpt lat="44.85982" lon="5.18958">
        <ele>759.6</ele>
        <time>2024-07-01T09:10:41Z</time>
      </trkpt>
      <trkpt lat="44.85984" lon="5.18959">
        <ele>759.7</ele>
        <time>2024-07-01T09:10:42Z</time>
      </trkpt>
      <trkpt lat="44.85986" lon="5.18959">
        <ele>759.8</ele>
        <time>2024-07-01T09:10:43Z</time>
      </trkpt>
      <trkpt lat="44.85988" lon="5.1896">
        <ele>760</ele>
        <time>2024-07-01T09:10:44Z</time>
      </trkpt>
      <trkpt lat="44.85993" lon="5.18959">
        <ele>760.4</ele>
        <time>2024-07-01T09:10:46Z</time>
      </trkpt>
      <trkpt lat="44.85995" lon="5.18959">
        <ele>760.6</ele>
        <time>2024-07-01T09:10:48Z</time>
      </trkpt>
      <trkpt lat="44.85995" lon="5.1896">
        <ele>760.6</ele>
        <time>2024-07-01T09:10:49Z</time>
      </trkpt>
      <trkpt lat="44.85997" lon="5.1896">
        <ele>760.8</ele>
        <time>2024-07-01T09:10:50Z</time>
      </trkpt>
      <trkpt lat="44.85999" lon="5.18961">
        <ele>761</ele>
        <time>2024-07-01T09:10:52Z</time>
      </trkpt>
      <trkpt lat="44.86" lon="5.18961">
        <ele>761.1</ele>
        <time>2024-07-01T09:10:54Z</time>
      </trkpt>
      <trkpt lat="44.86001" lon="5.18961">
        <ele>761.2</ele>
        <time>2024-07-01T09:10:55Z</time>
      </trkpt>
      <trkpt lat="44.86004" lon="5.18959">
        <ele>761.6</ele>
        <time>2024-07-01T09:10:56Z</time>
      </trkpt>
      <trkpt lat="44.86006" lon="5.18958">
        <ele>761.8</ele>
        <time>2024-07-01T09:10:58Z</time>
      </trkpt>
      <trkpt lat="44.86007" lon="5.18956">
        <ele>762</ele>
        <time>2024-07-01T09:10:59Z</time>
      </trkpt>
      <trkpt lat="44.86008" lon="5.18955">
        <ele>762.1</ele>
        <time>2024-07-01T09:11:00Z</time>
      </trkpt>
      <trkpt lat="44.86008" lon="5.18953">
        <ele>762.3</ele>
        <time>2024-07-01T09:11:01Z</time>
      </trkpt>
      <trkpt lat="44.86009" lon="5.18953">
        <ele>762.4</ele>
        <time>2024-07-01T09:11:02Z</time>
      </trkpt>
      <trkpt lat="44.8601" lon="5.18952">
        <ele>762.5</ele>
        <time>2024-07-01T09:11:03Z</time>
      </trkpt>
      <trkpt lat="44.86011" lon="5.18952">
        <ele>762.6</ele>
        <time>2024-07-01T09:11:04Z</time>
      </trkpt>
      <trkpt lat="44.86012" lon="5.18952">
        <ele>762.7</ele>
        <time>2024-07-01T09:11:05Z</time>
      </trkpt>
      <trkpt lat="44.86013" lon="5.18951">
        <ele>762.8</ele>
        <time>2024-07-01T09:11:06Z</time>
      </trkpt>
      <trkpt lat="44.86014" lon="5.18951">
        <ele>762.9</ele>
        <time>2024-07-01T09:11:07Z</time>
      </trkpt>
      <trkpt lat="44.86015" lon="5.1895">
        <ele>763</ele>
        <time>2024-07-01T09:11:08Z</time>
      </trkpt>
      <trkpt lat="44.86015" lon="5.18947">
        <ele>763.3</ele>
        <time>2024-07-01T09:11:09Z</time>
      </trkpt>
      <trkpt lat="44.86016" lon="5.18946">
        <ele>763.4</ele>
        <time>2024-07-01T09:11:11Z</time>
      </trkpt>
      <trkpt lat="44.86016" lon="5.18945">
        <ele>763.5</ele>
        <time>2024-07-01T09:11:12Z</time>
      </trkpt>
      <trkpt lat="44.86016" lon="5.18945">
        <ele>763.5</ele>
        <time>2024-07-01T09:11:13Z</time>
      </trkpt>
      <trkpt lat="44.86017" lon="5.18944">
        <ele>763.6</ele>
        <time>2024-07-01T09:11:14Z</time>
      </trkpt>
      <trkpt lat="44.86017" lon="5.18944">
        <ele>763.6</ele>
        <time>2024-07-01T09:11:15Z</time>
      </trkpt>
      <trkpt lat="44.86018" lon="5.18944">
        <ele>763.6</ele>
        <time>2024-07-01T09:11:16Z</time>
      </trkpt>
      <trkpt lat="44.86018" lon="5.18944">
        <ele>763.7</ele>
        <time>2024-07-01T09:11:17Z</time>
      </trkpt>
      <trkpt lat="44.86018" lon="5.18944">
        <ele>763.7</ele>
        <time>2024-07-01T09:11:18Z</time>
      </trkpt>
      <trkpt lat="44.86018" lon="5.18944">
        <ele>763.7</ele>
        <time>2024-07-01T09:11:19Z</time>
      </trkpt>
      <trkpt lat="44.86018" lon="5.18944">
        <ele>763.7</ele>
        <time>2024-07-01T09:11:20Z</time>
      </trkpt>
      <trkpt lat="44.86018" lon="5.18943">
        <ele>763.7</ele>
        <time>2024-07-01T09:11:21Z</time>
      </trkpt>
      <trkpt lat="44.86018" lon="5.18943">
        <ele>763.8</ele>
        <time>2024-07-01T09:11:22Z</time>
      </trkpt>
      <trkpt lat="44.86018" lon="5.18943">
        <ele>763.8</ele>
        <time>2024-07-01T09:11:23Z</time>
      </trkpt>
      <trkpt lat="44.86018" lon="5.18943">
        <ele>763.8</ele>
        <time>2024-07-01T09:11:25Z</time>
      </trkpt>
      <trkpt lat="44.86018" lon="5.18943">
        <ele>763.8</ele>
        <time>2024-07-01T09:11:26Z</time>
      </trkpt>
      <trkpt lat="44.86018" lon="5.18943">
        <ele>763.8</ele>
        <time>2024-07-01T09:11:27Z</time>
      </trkpt>
      <trkpt lat="44.86018" lon="5.18942">
        <ele>763.9</ele>
        <time>2024-07-01T09:11:28Z</time>
      </trkpt>
      <trkpt lat="44.86018" lon="5.18943">
        <ele>763.9</ele>
        <time>2024-07-01T09:11:29Z</time>
      </trkpt>
      <trkpt lat="44.86018" lon="5.18942">
        <ele>763.9</ele>
        <time>2024-07-01T09:11:30Z</time>
      </trkpt>
      <trkpt lat="44.86018" lon="5.18943">
        <ele>764</ele>
        <time>2024-07-01T09:11:31Z</time>
      </trkpt>
      <trkpt lat="44.86019" lon="5.18942">
        <ele>764.1</ele>
        <time>2024-07-01T09:11:32Z</time>
      </trkpt>
      <trkpt lat="44.86021" lon="5.18942">
        <ele>764.2</ele>
        <time>2024-07-01T09:11:33Z</time>
      </trkpt>
      <trkpt lat="44.86022" lon="5.18944">
        <ele>764.3</ele>
        <time>2024-07-01T09:11:35Z</time>
      </trkpt>
      <trkpt lat="44.86023" lon="5.18945">
        <ele>764.4</ele>
        <time>2024-07-01T09:11:36Z</time>
      </trkpt>
      <trkpt lat="44.86024" lon="5.18948">
        <ele>764.6</ele>
        <time>2024-07-01T09:11:37Z</time>
      </trkpt>
      <trkpt lat="44.86025" lon="5.18949">
        <ele>764.7</ele>
        <time>2024-07-01T09:11:39Z</time>
      </trkpt>
      <trkpt lat="44.86026" lon="5.18951">
        <ele>764.8</ele>
        <time>2024-07-01T09:11:40Z</time>
      </trkpt>
      <trkpt lat="44.86027" lon="5.18954">
        <ele>764.9</ele>
        <time>2024-07-01T09:11:41Z</time>
      </trkpt>
      <trkpt lat="44.86028" lon="5.18955">
        <ele>765</ele>
        <time>2024-07-01T09:11:42Z</time>
      </trkpt>
      <trkpt lat="44.86029" lon="5.18957">
        <ele>765</ele>
        <time>2024-07-01T09:11:43Z</time>
      </trkpt>
      <trkpt lat="44.86028" lon="5.18959">
        <ele>765.1</ele>
        <time>2024-07-01T09:11:44Z</time>
      </trkpt>
      <trkpt lat="44.86027" lon="5.18961">
        <ele>765.2</ele>
        <time>2024-07-01T09:11:46Z</time>
      </trkpt>
      <trkpt lat="44.86027" lon="5.18963">
        <ele>765.2</ele>
        <time>2024-07-01T09:11:47Z</time>
      </trkpt>
      <trkpt lat="44.86026" lon="5.18965">
        <ele>765.3</ele>
        <time>2024-07-01T09:11:48Z</time>
      </trkpt>
      <trkpt lat="44.86027" lon="5.18966">
        <ele>765.3</ele>
        <time>2024-07-01T09:11:49Z</time>
      </trkpt>
      <trkpt lat="44.86027" lon="5.18967">
        <ele>765.3</ele>
        <time>2024-07-01T09:11:50Z</time>
      </trkpt>
      <trkpt lat="44.86028" lon="5.18968">
        <ele>765.4</ele>
        <time>2024-07-01T09:11:51Z</time>
      </trkpt>
      <trkpt lat="44.86028" lon="5.18969">
        <ele>765.4</ele>
        <time>2024-07-01T09:11:52Z</time>
      </trkpt>
      <trkpt lat="44.86029" lon="5.1897">
        <ele>765.4</ele>
        <time>2024-07-01T09:11:53Z</time>
      </trkpt>
      <trkpt lat="44.86031" lon="5.18971">
        <ele>765.5</ele>
        <time>2024-07-01T09:11:54Z</time>
      </trkpt>
      <trkpt lat="44.86032" lon="5.18971">
        <ele>765.5</ele>
        <time>2024-07-01T09:11:56Z</time>
      </trkpt>
      <trkpt lat="44.86032" lon="5.18971">
        <ele>765.5</ele>
        <time>2024-07-01T09:11:57Z</time>
      </trkpt>
      <trkpt lat="44.86032" lon="5.1897">
        <ele>765.5</ele>
        <time>2024-07-01T09:11:58Z</time>
      </trkpt>
      <trkpt lat="44.86031" lon="5.1897">
        <ele>765.5</ele>
        <time>2024-07-01T09:11:59Z</time>
      </trkpt>
      <trkpt lat="44.86031" lon="5.18969">
        <ele>765.5</ele>
        <time>2024-07-01T09:12:00Z</time>
      </trkpt>
      <trkpt lat="44.86031" lon="5.18969">
        <ele>765.5</ele>
        <time>2024-07-01T09:12:01Z</time>
      </trkpt>
      <trkpt lat="44.86031" lon="5.18969">
        <ele>765.6</ele>
        <time>2024-07-01T09:12:02Z</time>
      </trkpt>
      <trkpt lat="44.86031" lon="5.18969">
        <ele>765.6</ele>
        <time>2024-07-01T09:12:03Z</time>
      </trkpt>
      <trkpt lat="44.86031" lon="5.18968">
        <ele>765.6</ele>
        <time>2024-07-01T09:12:04Z</time>
      </trkpt>
      <trkpt lat="44.86032" lon="5.18968">
        <ele>765.6</ele>
        <time>2024-07-01T09:12:05Z</time>
      </trkpt>
      <trkpt lat="44.86032" lon="5.18968">
        <ele>765.6</ele>
        <time>2024-07-01T09:12:06Z</time>
      </trkpt>
      <trkpt lat="44.86033" lon="5.18967">
        <ele>765.7</ele>
        <time>2024-07-01T09:12:07Z</time>
      </trkpt>
      <trkpt lat="44.86033" lon="5.18967">
        <ele>765.7</ele>
        <time>2024-07-01T09:12:08Z</time>
      </trkpt>
      <trkpt lat="44.86034" lon="5.18966">
        <ele>765.7</ele>
        <time>2024-07-01T09:12:09Z</time>
      </trkpt>
      <trkpt lat="44.86034" lon="5.18965">
        <ele>765.7</ele>
        <time>2024-07-01T09:12:10Z</time>
      </trkpt>
      <trkpt lat="44.86035" lon="5.18965">
        <ele>765.8</ele>
        <time>2024-07-01T09:12:11Z</time>
      </trkpt>
      <trkpt lat="44.86035" lon="5.18965">
        <ele>765.8</ele>
        <time>2024-07-01T09:12:12Z</time>
      </trkpt>
      <trkpt lat="44.86035" lon="5.18964">
        <ele>765.8</ele>
        <time>2024-07-01T09:12:13Z</time>
      </trkpt>
      <trkpt lat="44.86036" lon="5.18964">
        <ele>765.8</ele>
        <time>2024-07-01T09:12:14Z</time>
      </trkpt>
      <trkpt lat="44.86036" lon="5.18964">
        <ele>765.8</ele>
        <time>2024-07-01T09:12:16Z</time>
      </trkpt>
      <trkpt lat="44.86036" lon="5.18964">
        <ele>765.8</ele>
        <time>2024-07-01T09:12:17Z</time>
      </trkpt>
      <trkpt lat="44.86037" lon="5.18963">
        <ele>765.9</ele>
        <time>2024-07-01T09:12:19Z</time>
      </trkpt>
      <trkpt lat="44.86037" lon="5.18963">
        <ele>765.9</ele>
        <time>2024-07-01T09:12:20Z</time>
      </trkpt>
      <trkpt lat="44.86037" lon="5.18963">
        <ele>765.9</ele>
        <time>2024-07-01T09:12:21Z</time>
      </trkpt>
      <trkpt lat="44.86038" lon="5.18963">
        <ele>765.9</ele>
        <time>2024-07-01T09:12:22Z</time>
      </trkpt>
      <trkpt lat="44.86038" lon="5.18962">
        <ele>765.9</ele>
        <time>2024-07-01T09:12:23Z</time>
      </trkpt>
      <trkpt lat="44.86039" lon="5.18963">
        <ele>766</ele>
        <time>2024-07-01T09:12:24Z</time>
      </trkpt>
      <trkpt lat="44.8604" lon="5.18963">
        <ele>766.1</ele>
        <time>2024-07-01T09:12:25Z</time>
      </trkpt>
      <trkpt lat="44.86041" lon="5.18965">
        <ele>766.1</ele>
        <time>2024-07-01T09:12:26Z</time>
      </trkpt>
      <trkpt lat="44.86041" lon="5.18967">
        <ele>766.2</ele>
        <time>2024-07-01T09:12:27Z</time>
      </trkpt>
      <trkpt lat="44.86042" lon="5.18968">
        <ele>766.3</ele>
        <time>2024-07-01T09:12:28Z</time>
      </trkpt>
      <trkpt lat="44.86042" lon="5.18969">
        <ele>766.3</ele>
        <time>2024-07-01T09:12:30Z</time>
      </trkpt>
      <trkpt lat="44.86042" lon="5.1897">
        <ele>766.4</ele>
        <time>2024-07-01T09:12:31Z</time>
      </trkpt>
      <trkpt lat="44.86043" lon="5.18972">
        <ele>766.5</ele>
        <time>2024-07-01T09:12:32Z</time>
      </trkpt>
      <trkpt lat="44.86043" lon="5.18973">
        <ele>766.5</ele>
        <time>2024-07-01T09:12:33Z</time>
      </trkpt>
      <trkpt lat="44.86043" lon="5.18974">
        <ele>766.6</ele>
        <time>2024-07-01T09:12:34Z</time>
      </trkpt>
      <trkpt lat="44.86044" lon="5.18975">
        <ele>766.6</ele>
        <time>2024-07-01T09:12:35Z</time>
      </trkpt>
      <trkpt lat="44.86044" lon="5.18976">
        <ele>766.7</ele>
        <time>2024-07-01T09:12:36Z</time>
      </trkpt>
      <trkpt lat="44.86045" lon="5.18977">
        <ele>766.7</ele>
        <time>2024-07-01T09:12:37Z</time>
      </trkpt>
      <trkpt lat="44.86046" lon="5.18979">
        <ele>766.8</ele>
        <time>2024-07-01T09:12:38Z</time>
      </trkpt>
      <trkpt lat="44.86047" lon="5.1898">
        <ele>766.8</ele>
        <time>2024-07-01T09:12:40Z</time>
      </trkpt>
      <trkpt lat="44.86047" lon="5.1898">
        <ele>766.8</ele>
        <time>2024-07-01T09:12:41Z</time>
      </trkpt>
      <trkpt lat="44.86047" lon="5.18981">
        <ele>766.9</ele>
        <time>2024-07-01T09:12:42Z</time>
      </trkpt>
      <trkpt lat="44.86047" lon="5.18981">
        <ele>766.9</ele>
        <time>2024-07-01T09:12:43Z</time>
      </trkpt>
      <trkpt lat="44.86047" lon="5.18982">
        <ele>766.9</ele>
        <time>2024-07-01T09:12:44Z</time>
      </trkpt>
      <trkpt lat="44.86047" lon="5.18982">
        <ele>766.9</ele>
        <time>2024-07-01T09:12:45Z</time>
      </trkpt>
      <trkpt lat="44.86047" lon="5.18983">
        <ele>766.9</ele>
        <time>2024-07-01T09:12:46Z</time>
      </trkpt>
      <trkpt lat="44.86048" lon="5.18984">
        <ele>767</ele>
        <time>2024-07-01T09:12:47Z</time>
      </trkpt>
      <trkpt lat="44.86048" lon="5.18988">
        <ele>767</ele>
        <time>2024-07-01T09:12:48Z</time>
      </trkpt>
      <trkpt lat="44.86048" lon="5.18989">
        <ele>767.1</ele>
        <time>2024-07-01T09:12:50Z</time>
      </trkpt>
      <trkpt lat="44.86049" lon="5.1899">
        <ele>767.1</ele>
        <time>2024-07-01T09:12:51Z</time>
      </trkpt>
      <trkpt lat="44.8605" lon="5.18991">
        <ele>767.2</ele>
        <time>2024-07-01T09:12:52Z</time>
      </trkpt>
      <trkpt lat="44.86051" lon="5.18992">
        <ele>767.2</ele>
        <time>2024-07-01T09:12:54Z</time>
      </trkpt>
      <trkpt lat="44.86052" lon="5.18992">
        <ele>767.2</ele>
        <time>2024-07-01T09:12:56Z</time>
      </trkpt>
      <trkpt lat="44.86052" lon="5.18993">
        <ele>767.3</ele>
        <time>2024-07-01T09:12:57Z</time>
      </trkpt>
      <trkpt lat="44.86054" lon="5.18994">
        <ele>767.3</ele>
        <time>2024-07-01T09:12:58Z</time>
      </trkpt>
      <trkpt lat="44.86055" lon="5.18994">
        <ele>767.4</ele>
        <time>2024-07-01T09:12:59Z</time>
      </trkpt>
      <trkpt lat="44.86056" lon="5.18994">
        <ele>767.4</ele>
        <time>2024-07-01T09:13:00Z</time>
      </trkpt>
      <trkpt lat="44.86057" lon="5.18994">
        <ele>767.4</ele>
        <time>2024-07-01T09:13:02Z</time>
      </trkpt>
      <trkpt lat="44.86057" lon="5.18994">
        <ele>767.4</ele>
        <time>2024-07-01T09:13:04Z</time>
      </trkpt>
      <trkpt lat="44.86057" lon="5.18995">
        <ele>767.5</ele>
        <time>2024-07-01T09:13:05Z</time>
      </trkpt>
      <trkpt lat="44.86059" lon="5.18998">
        <ele>767.6</ele>
        <time>2024-07-01T09:13:06Z</time>
      </trkpt>
      <trkpt lat="44.86059" lon="5.18999">
        <ele>767.6</ele>
        <time>2024-07-01T09:13:07Z</time>
      </trkpt>
      <trkpt lat="44.8606" lon="5.19">
        <ele>767.7</ele>
        <time>2024-07-01T09:13:09Z</time>
      </trkpt>
      <trkpt lat="44.8606" lon="5.19001">
        <ele>767.7</ele>
        <time>2024-07-01T09:13:10Z</time>
      </trkpt>
      <trkpt lat="44.86061" lon="5.19002">
        <ele>767.7</ele>
        <time>2024-07-01T09:13:11Z</time>
      </trkpt>
      <trkpt lat="44.86061" lon="5.19003">
        <ele>767.8</ele>
        <time>2024-07-01T09:13:13Z</time>
      </trkpt>
      <trkpt lat="44.86062" lon="5.19004">
        <ele>767.8</ele>
        <time>2024-07-01T09:13:14Z</time>
      </trkpt>
      <trkpt lat="44.86062" lon="5.19005">
        <ele>767.9</ele>
        <time>2024-07-01T09:13:15Z</time>
      </trkpt>
      <trkpt lat="44.86063" lon="5.19006">
        <ele>767.9</ele>
        <time>2024-07-01T09:13:16Z</time>
      </trkpt>
      <trkpt lat="44.86064" lon="5.19007">
        <ele>768</ele>
        <time>2024-07-01T09:13:17Z</time>
      </trkpt>
      <trkpt lat="44.86064" lon="5.19007">
        <ele>768</ele>
        <time>2024-07-01T09:13:18Z</time>
      </trkpt>
      <trkpt lat="44.86066" lon="5.19008">
        <ele>768.1</ele>
        <time>2024-07-01T09:13:19Z</time>
      </trkpt>
      <trkpt lat="44.86068" lon="5.19009">
        <ele>768.2</ele>
        <time>2024-07-01T09:13:21Z</time>
      </trkpt>
      <trkpt lat="44.86068" lon="5.19009">
        <ele>768.3</ele>
        <time>2024-07-01T09:13:23Z</time>
      </trkpt>
      <trkpt lat="44.8607" lon="5.19011">
        <ele>768.4</ele>
        <time>2024-07-01T09:13:24Z</time>
      </trkpt>
      <trkpt lat="44.86072" lon="5.19012">
        <ele>768.5</ele>
        <time>2024-07-01T09:13:26Z</time>
      </trkpt>
      <trkpt lat="44.86073" lon="5.19012">
        <ele>768.6</ele>
        <time>2024-07-01T09:13:28Z</time>
      </trkpt>
      <trkpt lat="44.86074" lon="5.19013">
        <ele>768.7</ele>
        <time>2024-07-01T09:13:29Z</time>
      </trkpt>
      <trkpt lat="44.86075" lon="5.19013">
        <ele>768.7</ele>
        <time>2024-07-01T09:13:30Z</time>
      </trkpt>
      <trkpt lat="44.86076" lon="5.19014">
        <ele>768.8</ele>
        <time>2024-07-01T09:13:31Z</time>
      </trkpt>
      <trkpt lat="44.86078" lon="5.19014">
        <ele>768.9</ele>
        <time>2024-07-01T09:13:32Z</time>
      </trkpt>
      <trkpt lat="44.86079" lon="5.19014">
        <ele>769</ele>
        <time>2024-07-01T09:13:34Z</time>
      </trkpt>
      <trkpt lat="44.86081" lon="5.19014">
        <ele>769.1</ele>
        <time>2024-07-01T09:13:35Z</time>
      </trkpt>
      <trkpt lat="44.86082" lon="5.19014">
        <ele>769.1</ele>
        <time>2024-07-01T09:13:36Z</time>
      </trkpt>
      <trkpt lat="44.86083" lon="5.19014">
        <ele>769.2</ele>
        <time>2024-07-01T09:13:37Z</time>
      </trkpt>
      <trkpt lat="44.86084" lon="5.19014">
        <ele>769.3</ele>
        <time>2024-07-01T09:13:38Z</time>
      </trkpt>
      <trkpt lat="44.86085" lon="5.19014">
        <ele>769.3</ele>
        <time>2024-07-01T09:13:40Z</time>
      </trkpt>
      <trkpt lat="44.86086" lon="5.19014">
        <ele>769.3</ele>
        <time>2024-07-01T09:13:41Z</time>
      </trkpt>
      <trkpt lat="44.86087" lon="5.19014">
        <ele>769.4</ele>
        <time>2024-07-01T09:13:42Z</time>
      </trkpt>
      <trkpt lat="44.86087" lon="5.19014">
        <ele>769.4</ele>
        <time>2024-07-01T09:13:43Z</time>
      </trkpt>
      <trkpt lat="44.86088" lon="5.19014">
        <ele>769.4</ele>
        <time>2024-07-01T09:13:44Z</time>
      </trkpt>
      <trkpt lat="44.86089" lon="5.19015">
        <ele>769.5</ele>
        <time>2024-07-01T09:13:45Z</time>
      </trkpt>
      <trkpt lat="44.8609" lon="5.19016">
        <ele>769.5</ele>
        <time>2024-07-01T09:13:47Z</time>
      </trkpt>
      <trkpt lat="44.8609" lon="5.19016">
        <ele>769.6</ele>
        <time>2024-07-01T09:13:48Z</time>
      </trkpt>
      <trkpt lat="44.86089" lon="5.19016">
        <ele>769.6</ele>
        <time>2024-07-01T09:13:49Z</time>
      </trkpt>
      <trkpt lat="44.86089" lon="5.19016">
        <ele>769.6</ele>
        <time>2024-07-01T09:13:50Z</time>
      </trkpt>
      <trkpt lat="44.86088" lon="5.19015">
        <ele>769.6</ele>
        <time>2024-07-01T09:13:51Z</time>
      </trkpt>
      <trkpt lat="44.86088" lon="5.19015">
        <ele>769.7</ele>
        <time>2024-07-01T09:13:52Z</time>
      </trkpt>
      <trkpt lat="44.86087" lon="5.19015">
        <ele>769.7</ele>
        <time>2024-07-01T09:13:54Z</time>
      </trkpt>
      <trkpt lat="44.86087" lon="5.19014">
        <ele>769.7</ele>
        <time>2024-07-01T09:13:56Z</time>
      </trkpt>
      <trkpt lat="44.86087" lon="5.19014">
        <ele>769.7</ele>
        <time>2024-07-01T09:13:58Z</time>
      </trkpt>
      <trkpt lat="44.86087" lon="5.19013">
        <ele>769.7</ele>
        <time>2024-07-01T09:13:59Z</time>
      </trkpt>
      <trkpt lat="44.86088" lon="5.19013">
        <ele>769.8</ele>
        <time>2024-07-01T09:14:00Z</time>
      </trkpt>
      <trkpt lat="44.86089" lon="5.19012">
        <ele>769.8</ele>
        <time>2024-07-01T09:14:01Z</time>
      </trkpt>
      <trkpt lat="44.86091" lon="5.19011">
        <ele>769.9</ele>
        <time>2024-07-01T09:14:02Z</time>
      </trkpt>
      <trkpt lat="44.86092" lon="5.1901">
        <ele>769.9</ele>
        <time>2024-07-01T09:14:04Z</time>
      </trkpt>
      <trkpt lat="44.86092" lon="5.1901">
        <ele>769.9</ele>
        <time>2024-07-01T09:14:05Z</time>
      </trkpt>
      <trkpt lat="44.86093" lon="5.19009">
        <ele>769.9</ele>
        <time>2024-07-01T09:14:06Z</time>
      </trkpt>
      <trkpt lat="44.86094" lon="5.19009">
        <ele>770</ele>
        <time>2024-07-01T09:14:07Z</time>
      </trkpt>
      <trkpt lat="44.86095" lon="5.19009">
        <ele>770</ele>
        <time>2024-07-01T09:14:08Z</time>
      </trkpt>
      <trkpt lat="44.86095" lon="5.19009">
        <ele>770</ele>
        <time>2024-07-01T09:14:09Z</time>
      </trkpt>
      <trkpt lat="44.86096" lon="5.19009">
        <ele>770</ele>
        <time>2024-07-01T09:14:10Z</time>
      </trkpt>
      <trkpt lat="44.86097" lon="5.19008">
        <ele>770</ele>
        <time>2024-07-01T09:14:11Z</time>
      </trkpt>
      <trkpt lat="44.86098" lon="5.19009">
        <ele>770.1</ele>
        <time>2024-07-01T09:14:12Z</time>
      </trkpt>
      <trkpt lat="44.86099" lon="5.19009">
        <ele>770.1</ele>
        <time>2024-07-01T09:14:13Z</time>
      </trkpt>
      <trkpt lat="44.861" lon="5.19009">
        <ele>770.1</ele>
        <time>2024-07-01T09:14:14Z</time>
      </trkpt>
      <trkpt lat="44.861" lon="5.1901">
        <ele>770.1</ele>
        <time>2024-07-01T09:14:16Z</time>
      </trkpt>
      <trkpt lat="44.86101" lon="5.19011">
        <ele>770.1</ele>
        <time>2024-07-01T09:14:17Z</time>
      </trkpt>
      <trkpt lat="44.86102" lon="5.19012">
        <ele>770.2</ele>
        <time>2024-07-01T09:14:18Z</time>
      </trkpt>
      <trkpt lat="44.86103" lon="5.19013">
        <ele>770.2</ele>
        <time>2024-07-01T09:14:19Z</time>
      </trkpt>
      <trkpt lat="44.86104" lon="5.19013">
        <ele>770.2</ele>
        <time>2024-07-01T09:14:20Z</time>
      </trkpt>
      <trkpt lat="44.86105" lon="5.19014">
        <ele>770.2</ele>
        <time>2024-07-01T09:14:21Z</time>
      </trkpt>
      <trkpt lat="44.86106" lon="5.19014">
        <ele>770.2</ele>
        <time>2024-07-01T09:14:22Z</time>
      </trkpt>
      <trkpt lat="44.86107" lon="5.19014">
        <ele>770.3</ele>
        <time>2024-07-01T09:14:23Z</time>
      </trkpt>
      <trkpt lat="44.86108" lon="5.19014">
        <ele>770.3</ele>
        <time>2024-07-01T09:14:24Z</time>
      </trkpt>
      <trkpt lat="44.86108" lon="5.19014">
        <ele>770.3</ele>
        <time>2024-07-01T09:14:25Z</time>
      </trkpt>
      <trkpt lat="44.86109" lon="5.19014">
        <ele>770.3</ele>
        <time>2024-07-01T09:14:26Z</time>
      </trkpt>
      <trkpt lat="44.86109" lon="5.19015">
        <ele>770.3</ele>
        <time>2024-07-01T09:14:27Z</time>
      </trkpt>
      <trkpt lat="44.86109" lon="5.19016">
        <ele>770.3</ele>
        <time>2024-07-01T09:14:28Z</time>
      </trkpt>
      <trkpt lat="44.86109" lon="5.19016">
        <ele>770.3</ele>
        <time>2024-07-01T09:14:29Z</time>
      </trkpt>
      <trkpt lat="44.86108" lon="5.19016">
        <ele>770.3</ele>
        <time>2024-07-01T09:14:30Z</time>
      </trkpt>
      <trkpt lat="44.86108" lon="5.19016">
        <ele>770.3</ele>
        <time>2024-07-01T09:14:31Z</time>
      </trkpt>
      <trkpt lat="44.86108" lon="5.19016">
        <ele>770.3</ele>
        <time>2024-07-01T09:14:32Z</time>
      </trkpt>
      <trkpt lat="44.86108" lon="5.19016">
        <ele>770.3</ele>
        <time>2024-07-01T09:14:33Z</time>
      </trkpt>
      <trkpt lat="44.86108" lon="5.19016">
        <ele>770.3</ele>
        <time>2024-07-01T09:14:34Z</time>
      </trkpt>
      <trkpt lat="44.86108" lon="5.19016">
        <ele>770.3</ele>
        <time>2024-07-01T09:14:35Z</time>
      </trkpt>
      <trkpt lat="44.86108" lon="5.19016">
        <ele>770.3</ele>
        <time>2024-07-01T09:14:36Z</time>
      </trkpt>
      <trkpt lat="44.86108" lon="5.19016">
        <ele>770.3</ele>
        <time>2024-07-01T09:14:37Z</time>
      </trkpt>
      <trkpt lat="44.86108" lon="5.19016">
        <ele>770.3</ele>
        <time>2024-07-01T09:14:38Z</time>
      </trkpt>
      <trkpt lat="44.86108" lon="5.19016">
        <ele>770.3</ele>
        <time>2024-07-01T09:14:39Z</time>
      </trkpt>
      <trkpt lat="44.86108" lon="5.19016">
        <ele>770.3</ele>
        <time>2024-07-01T09:14:40Z</time>
      </trkpt>
      <trkpt lat="44.86108" lon="5.19016">
        <ele>770.3</ele>
        <time>2024-07-01T09:14:41Z</time>
      </trkpt>
      <trkpt lat="44.86108" lon="5.19016">
        <ele>770.3</ele>
        <time>2024-07-01T09:14:42Z</time>
      </trkpt>
      <trkpt lat="44.86108" lon="5.19016">
        <ele>770.3</ele>
        <time>2024-07-01T09:14:43Z</time>
      </trkpt>
      <trkpt lat="44.86108" lon="5.19016">
        <ele>770.4</ele>
        <time>2024-07-01T09:14:44Z</time>
      </trkpt>
      <trkpt lat="44.86108" lon="5.19016">
        <ele>770.4</ele>
        <time>2024-07-01T09:14:45Z</time>
      </trkpt>
      <trkpt lat="44.86108" lon="5.19016">
        <ele>770.4</ele>
        <time>2024-07-01T09:14:46Z</time>
      </trkpt>
      <trkpt lat="44.86108" lon="5.19016">
        <ele>770.4</ele>
        <time>2024-07-01T09:14:47Z</time>
      </trkpt>
      <trkpt lat="44.86108" lon="5.19016">
        <ele>770.4</ele>
        <time>2024-07-01T09:14:48Z</time>
      </trkpt>
      <trkpt lat="44.86108" lon="5.19015">
        <ele>770.4</ele>
        <time>2024-07-01T09:14:49Z</time>
      </trkpt>
      <trkpt lat="44.86108" lon="5.19015">
        <ele>770.4</ele>
        <time>2024-07-01T09:14:50Z</time>
      </trkpt>
      <trkpt lat="44.86108" lon="5.19015">
        <ele>770.4</ele>
        <time>2024-07-01T09:14:51Z</time>
      </trkpt>
      <trkpt lat="44.86108" lon="5.19015">
        <ele>770.4</ele>
        <time>2024-07-01T09:14:52Z</time>
      </trkpt>
      <trkpt lat="44.86108" lon="5.19015">
        <ele>770.4</ele>
        <time>2024-07-01T09:14:53Z</time>
      </trkpt>
      <trkpt lat="44.86108" lon="5.19015">
        <ele>770.4</ele>
        <time>2024-07-01T09:14:54Z</time>
      </trkpt>
      <trkpt lat="44.86108" lon="5.19015">
        <ele>770.4</ele>
        <time>2024-07-01T09:14:55Z</time>
      </trkpt>
      <trkpt lat="44.86108" lon="5.19015">
        <ele>770.4</ele>
        <time>2024-07-01T09:14:56Z</time>
      </trkpt>
      <trkpt lat="44.86108" lon="5.19015">
        <ele>770.4</ele>
        <time>2024-07-01T09:14:57Z</time>
      </trkpt>
      <trkpt lat="44.86108" lon="5.19015">
        <ele>770.4</ele>
        <time>2024-07-01T09:14:58Z</time>
      </trkpt>
      <trkpt lat="44.86108" lon="5.19015">
        <ele>770.4</ele>
        <time>2024-07-01T09:14:59Z</time>
      </trkpt>
      <trkpt lat="44.86108" lon="5.19016">
        <ele>770.4</ele>
        <time>2024-07-01T09:15:00Z</time>
      </trkpt>
      <trkpt lat="44.86108" lon="5.19016">
        <ele>770.4</ele>
        <time>2024-07-01T09:15:01Z</time>
      </trkpt>
      <trkpt lat="44.86107" lon="5.19016">
        <ele>770.4</ele>
        <time>2024-07-01T09:15:02Z</time>
      </trkpt>
      <trkpt lat="44.86108" lon="5.19015">
        <ele>770.4</ele>
        <time>2024-07-01T09:15:03Z</time>
      </trkpt>
      <trkpt lat="44.86108" lon="5.19014">
        <ele>770.4</ele>
        <time>2024-07-01T09:15:04Z</time>
      </trkpt>
      <trkpt lat="44.86109" lon="5.19013">
        <ele>770.4</ele>
        <time>2024-07-01T09:15:05Z</time>
      </trkpt>
      <trkpt lat="44.86108" lon="5.19013">
        <ele>770.5</ele>
        <time>2024-07-01T09:15:06Z</time>
      </trkpt>
      <trkpt lat="44.86108" lon="5.19013">
        <ele>770.5</ele>
        <time>2024-07-01T09:15:07Z</time>
      </trkpt>
      <trkpt lat="44.86108" lon="5.19013">
        <ele>770.5</ele>
        <time>2024-07-01T09:15:08Z</time>
      </trkpt>
      <trkpt lat="44.86108" lon="5.19012">
        <ele>770.5</ele>
        <time>2024-07-01T09:15:09Z</time>
      </trkpt>
      <trkpt lat="44.86108" lon="5.19012">
        <ele>770.5</ele>
        <time>2024-07-01T09:15:10Z</time>
      </trkpt>
      <trkpt lat="44.86108" lon="5.19013">
        <ele>770.5</ele>
        <time>2024-07-01T09:15:11Z</time>
      </trkpt>
      <trkpt lat="44.86108" lon="5.19012">
        <ele>770.5</ele>
        <time>2024-07-01T09:15:12Z</time>
      </trkpt>
      <trkpt lat="44.86107" lon="5.19012">
        <ele>770.5</ele>
        <time>2024-07-01T09:15:13Z</time>
      </trkpt>
      <trkpt lat="44.86107" lon="5.19012">
        <ele>770.5</ele>
        <time>2024-07-01T09:15:14Z</time>
      </trkpt>
      <trkpt lat="44.86107" lon="5.19012">
        <ele>770.5</ele>
        <time>2024-07-01T09:15:15Z</time>
      </trkpt>
      <trkpt lat="44.86107" lon="5.19011">
        <ele>770.5</ele>
        <time>2024-07-01T09:15:16Z</time>
      </trkpt>
      <trkpt lat="44.86107" lon="5.19011">
        <ele>770.5</ele>
        <time>2024-07-01T09:15:17Z</time>
      </trkpt>
      <trkpt lat="44.86107" lon="5.1901">
        <ele>770.5</ele>
        <time>2024-07-01T09:15:18Z</time>
      </trkpt>
      <trkpt lat="44.86106" lon="5.1901">
        <ele>770.5</ele>
        <time>2024-07-01T09:15:19Z</time>
      </trkpt>
      <trkpt lat="44.86106" lon="5.1901">
        <ele>770.6</ele>
        <time>2024-07-01T09:15:20Z</time>
      </trkpt>
      <trkpt lat="44.86106" lon="5.1901">
        <ele>770.6</ele>
        <time>2024-07-01T09:15:21Z</time>
      </trkpt>
      <trkpt lat="44.86106" lon="5.1901">
        <ele>770.6</ele>
        <time>2024-07-01T09:15:22Z</time>
      </trkpt>
      <trkpt lat="44.86106" lon="5.1901">
        <ele>770.6</ele>
        <time>2024-07-01T09:15:23Z</time>
      </trkpt>
      <trkpt lat="44.86106" lon="5.19009">
        <ele>770.6</ele>
        <time>2024-07-01T09:15:24Z</time>
      </trkpt>
      <trkpt lat="44.86107" lon="5.19007">
        <ele>770.6</ele>
        <time>2024-07-01T09:15:25Z</time>
      </trkpt>
      <trkpt lat="44.86107" lon="5.19006">
        <ele>770.6</ele>
        <time>2024-07-01T09:15:26Z</time>
      </trkpt>
      <trkpt lat="44.86108" lon="5.19005">
        <ele>770.7</ele>
        <time>2024-07-01T09:15:27Z</time>
      </trkpt>
      <trkpt lat="44.86109" lon="5.19004">
        <ele>770.7</ele>
        <time>2024-07-01T09:15:28Z</time>
      </trkpt>
      <trkpt lat="44.86109" lon="5.19004">
        <ele>770.7</ele>
        <time>2024-07-01T09:15:29Z</time>
      </trkpt>
      <trkpt lat="44.86109" lon="5.19004">
        <ele>770.7</ele>
        <time>2024-07-01T09:15:30Z</time>
      </trkpt>
      <trkpt lat="44.8611" lon="5.19004">
        <ele>770.7</ele>
        <time>2024-07-01T09:15:31Z</time>
      </trkpt>
      <trkpt lat="44.8611" lon="5.19004">
        <ele>770.7</ele>
        <time>2024-07-01T09:15:32Z</time>
      </trkpt>
      <trkpt lat="44.8611" lon="5.19004">
        <ele>770.7</ele>
        <time>2024-07-01T09:15:33Z</time>
      </trkpt>
      <trkpt lat="44.8611" lon="5.19004">
        <ele>770.7</ele>
        <time>2024-07-01T09:15:34Z</time>
      </trkpt>
      <trkpt lat="44.8611" lon="5.19003">
        <ele>770.8</ele>
        <time>2024-07-01T09:15:35Z</time>
      </trkpt>
      <trkpt lat="44.8611" lon="5.19003">
        <ele>770.8</ele>
        <time>2024-07-01T09:15:36Z</time>
      </trkpt>
      <trkpt lat="44.8611" lon="5.19003">
        <ele>770.8</ele>
        <time>2024-07-01T09:15:37Z</time>
      </trkpt>
      <trkpt lat="44.8611" lon="5.19003">
        <ele>770.8</ele>
        <time>2024-07-01T09:15:38Z</time>
      </trkpt>
      <trkpt lat="44.8611" lon="5.19003">
        <ele>770.8</ele>
        <time>2024-07-01T09:15:39Z</time>
      </trkpt>
      <trkpt lat="44.8611" lon="5.19003">
        <ele>770.8</ele>
        <time>2024-07-01T09:15:40Z</time>
      </trkpt>
      <trkpt lat="44.8611" lon="5.19003">
        <ele>770.8</ele>
        <time>2024-07-01T09:15:41Z</time>
      </trkpt>
      <trkpt lat="44.8611" lon="5.19003">
        <ele>770.8</ele>
        <time>2024-07-01T09:15:42Z</time>
      </trkpt>
      <trkpt lat="44.8611" lon="5.19003">
        <ele>770.8</ele>
        <time>2024-07-01T09:15:43Z</time>
      </trkpt>
      <trkpt lat="44.8611" lon="5.19003">
        <ele>770.8</ele>
        <time>2024-07-01T09:15:44Z</time>
      </trkpt>
      <trkpt lat="44.8611" lon="5.19003">
        <ele>770.8</ele>
        <time>2024-07-01T09:15:45Z</time>
      </trkpt>
      <trkpt lat="44.8611" lon="5.19003">
        <ele>770.8</ele>
        <time>2024-07-01T09:15:46Z</time>
      </trkpt>
      <trkpt lat="44.8611" lon="5.19003">
        <ele>770.8</ele>
        <time>2024-07-01T09:15:47Z</time>
      </trkpt>
      <trkpt lat="44.8611" lon="5.19003">
        <ele>770.8</ele>
        <time>2024-07-01T09:15:48Z</time>
      </trkpt>
      <trkpt lat="44.8611" lon="5.19003">
        <ele>770.8</ele>
        <time>2024-07-01T09:15:49Z</time>
      </trkpt>
      <trkpt lat="44.8611" lon="5.19003">
        <ele>770.8</ele>
        <time>2024-07-01T09:15:50Z</time>
      </trkpt>
      <trkpt lat="44.8611" lon="5.19003">
        <ele>770.8</ele>
        <time>2024-07-01T09:15:51Z</time>
      </trkpt>
      <trkpt lat="44.8611" lon="5.19003">
        <ele>770.8</ele>
        <time>2024-07-01T09:15:52Z</time>
      </trkpt>
      <trkpt lat="44.8611" lon="5.19003">
        <ele>770.8</ele>
        <time>2024-07-01T09:15:53Z</time>
      </trkpt>
      <trkpt lat="44.8611" lon="5.19003">
        <ele>770.8</ele>
        <time>2024-07-01T09:15:54Z</time>
      </trkpt>
      <trkpt lat="44.8611" lon="5.19003">
        <ele>770.8</ele>
        <time>2024-07-01T09:15:55Z</time>
      </trkpt>
      <trkpt lat="44.8611" lon="5.19003">
        <ele>770.8</ele>
        <time>2024-07-01T09:15:56Z</time>
      </trkpt>
      <trkpt lat="44.8611" lon="5.19003">
        <ele>770.8</ele>
        <time>2024-07-01T09:15:57Z</time>
      </trkpt>
      <trkpt lat="44.8611" lon="5.19003">
        <ele>770.8</ele>
        <time>2024-07-01T09:15:58Z</time>
      </trkpt>
      <trkpt lat="44.8611" lon="5.19003">
        <ele>770.8</ele>
        <time>2024-07-01T09:15:59Z</time>
      </trkpt>
      <trkpt lat="44.8611" lon="5.19003">
        <ele>770.8</ele>
        <time>2024-07-01T09:16:00Z</time>
      </trkpt>
      <trkpt lat="44.8611" lon="5.19003">
        <ele>770.8</ele>
        <time>2024-07-01T09:16:01Z</time>
      </trkpt>
      <trkpt lat="44.8611" lon="5.19003">
        <ele>770.8</ele>
        <time>2024-07-01T09:16:02Z</time>
      </trkpt>
      <trkpt lat="44.8611" lon="5.19003">
        <ele>770.8</ele>
        <time>2024-07-01T09:16:03Z</time>
      </trkpt>
      <trkpt lat="44.8611" lon="5.19003">
        <ele>770.8</ele>
        <time>2024-07-01T09:16:04Z</time>
      </trkpt>
      <trkpt lat="44.8611" lon="5.19003">
        <ele>770.8</ele>
        <time>2024-07-01T09:16:05Z</time>
      </trkpt>
      <trkpt lat="44.8611" lon="5.19004">
        <ele>770.8</ele>
        <time>2024-07-01T09:16:06Z</time>
      </trkpt>
      <trkpt lat="44.86111" lon="5.19004">
        <ele>770.8</ele>
        <time>2024-07-01T09:16:07Z</time>
      </trkpt>
      <trkpt lat="44.86111" lon="5.19004">
        <ele>770.8</ele>
        <time>2024-07-01T09:16:09Z</time>
      </trkpt>
      <trkpt lat="44.86111" lon="5.19004">
        <ele>770.8</ele>
        <time>2024-07-01T09:16:10Z</time>
      </trkpt>
      <trkpt lat="44.86111" lon="5.19004">
        <ele>770.8</ele>
        <time>2024-07-01T09:16:12Z</time>
      </trkpt>
      <trkpt lat="44.86111" lon="5.19004">
        <ele>770.8</ele>
        <time>2024-07-01T09:16:13Z</time>
      </trkpt>
      <trkpt lat="44.8611" lon="5.19004">
        <ele>770.8</ele>
        <time>2024-07-01T09:16:14Z</time>
      </trkpt>
      <trkpt lat="44.8611" lon="5.19004">
        <ele>770.8</ele>
        <time>2024-07-01T09:16:15Z</time>
      </trkpt>
      <trkpt lat="44.8611" lon="5.19004">
        <ele>770.9</ele>
        <time>2024-07-01T09:16:16Z</time>
      </trkpt>
      <trkpt lat="44.8611" lon="5.19004">
        <ele>770.9</ele>
        <time>2024-07-01T09:16:17Z</time>
      </trkpt>
      <trkpt lat="44.8611" lon="5.19004">
        <ele>770.9</ele>
        <time>2024-07-01T09:16:18Z</time>
      </trkpt>
      <trkpt lat="44.8611" lon="5.19004">
        <ele>770.9</ele>
        <time>2024-07-01T09:16:19Z</time>
      </trkpt>
      <trkpt lat="44.8611" lon="5.19004">
        <ele>770.9</ele>
        <time>2024-07-01T09:16:20Z</time>
      </trkpt>
      <trkpt lat="44.8611" lon="5.19003">
        <ele>770.9</ele>
        <time>2024-07-01T09:16:21Z</time>
      </trkpt>
      <trkpt lat="44.8611" lon="5.19003">
        <ele>770.9</ele>
        <time>2024-07-01T09:16:22Z</time>
      </trkpt>
      <trkpt lat="44.8611" lon="5.19003">
        <ele>770.9</ele>
        <time>2024-07-01T09:16:23Z</time>
      </trkpt>
      <trkpt lat="44.8611" lon="5.19003">
        <ele>770.9</ele>
        <time>2024-07-01T09:16:24Z</time>
      </trkpt>
      <trkpt lat="44.8611" lon="5.19003">
        <ele>770.9</ele>
        <time>2024-07-01T09:16:25Z</time>
      </trkpt>
      <trkpt lat="44.8611" lon="5.19002">
        <ele>770.9</ele>
        <time>2024-07-01T09:16:26Z</time>
      </trkpt>
      <trkpt lat="44.8611" lon="5.19002">
        <ele>770.9</ele>
        <time>2024-07-01T09:16:27Z</time>
      </trkpt>
      <trkpt lat="44.8611" lon="5.19003">
        <ele>770.9</ele>
        <time>2024-07-01T09:16:28Z</time>
      </trkpt>
      <trkpt lat="44.8611" lon="5.19003">
        <ele>770.9</ele>
        <time>2024-07-01T09:16:29Z</time>
      </trkpt>
      <trkpt lat="44.8611" lon="5.19003">
        <ele>770.9</ele>
        <time>2024-07-01T09:16:30Z</time>
      </trkpt>
      <trkpt lat="44.8611" lon="5.19003">
        <ele>770.9</ele>
        <time>2024-07-01T09:16:31Z</time>
      </trkpt>
      <trkpt lat="44.8611" lon="5.19003">
        <ele>770.9</ele>
        <time>2024-07-01T09:16:32Z</time>
      </trkpt>
      <trkpt lat="44.8611" lon="5.19003">
        <ele>770.9</ele>
        <time>2024-07-01T09:16:33Z</time>
      </trkpt>
      <trkpt lat="44.8611" lon="5.19003">
        <ele>770.9</ele>
        <time>2024-07-01T09:16:34Z</time>
      </trkpt>
      <trkpt lat="44.8611" lon="5.19003">
        <ele>770.9</ele>
        <time>2024-07-01T09:16:35Z</time>
      </trkpt>
      <trkpt lat="44.8611" lon="5.19003">
        <ele>770.9</ele>
        <time>2024-07-01T09:16:36Z</time>
      </trkpt>
      <trkpt lat="44.8611" lon="5.19003">
        <ele>770.9</ele>
        <time>2024-07-01T09:16:37Z</time>
      </trkpt>
      <trkpt lat="44.8611" lon="5.19003">
        <ele>770.9</ele>
        <time>2024-07-01T09:16:38Z</time>
      </trkpt>
      <trkpt lat="44.8611" lon="5.19003">
        <ele>770.9</ele>
        <time>2024-07-01T09:16:39Z</time>
      </trkpt>
      <trkpt lat="44.8611" lon="5.19003">
        <ele>770.9</ele>
        <time>2024-07-01T09:16:40Z</time>
      </trkpt>
      <trkpt lat="44.8611" lon="5.19003">
        <ele>770.9</ele>
        <time>2024-07-01T09:16:41Z</time>
      </trkpt>
      <trkpt lat="44.8611" lon="5.19003">
        <ele>770.9</ele>
        <time>2024-07-01T09:16:42Z</time>
      </trkpt>
      <trkpt lat="44.8611" lon="5.19003">
        <ele>770.9</ele>
        <time>2024-07-01T09:16:43Z</time>
      </trkpt>
      <trkpt lat="44.8611" lon="5.19003">
        <ele>770.9</ele>
        <time>2024-07-01T09:16:44Z</time>
      </trkpt>
      <trkpt lat="44.86111" lon="5.19003">
        <ele>771</ele>
        <time>2024-07-01T09:16:45Z</time>
      </trkpt>
      <trkpt lat="44.86112" lon="5.19003">
        <ele>771</ele>
        <time>2024-07-01T09:16:46Z</time>
      </trkpt>
      <trkpt lat="44.86115" lon="5.19002">
        <ele>771.1</ele>
        <time>2024-07-01T09:16:48Z</time>
      </trkpt>
      <trkpt lat="44.86116" lon="5.19002">
        <ele>771.1</ele>
        <time>2024-07-01T09:16:50Z</time>
      </trkpt>
      <trkpt lat="44.86118" lon="5.19002">
        <ele>771.2</ele>
        <time>2024-07-01T09:16:51Z</time>
      </trkpt>
      <trkpt lat="44.86119" lon="5.19002">
        <ele>771.2</ele>
        <time>2024-07-01T09:16:53Z</time>
      </trkpt>
      <trkpt lat="44.8612" lon="5.19001">
        <ele>771.2</ele>
        <time>2024-07-01T09:16:54Z</time>
      </trkpt>
      <trkpt lat="44.86121" lon="5.19">
        <ele>771.3</ele>
        <time>2024-07-01T09:16:55Z</time>
      </trkpt>
      <trkpt lat="44.86123" lon="5.18999">
        <ele>771.3</ele>
        <time>2024-07-01T09:16:56Z</time>
      </trkpt>
      <trkpt lat="44.86125" lon="5.18998">
        <ele>771.4</ele>
        <time>2024-07-01T09:16:57Z</time>
      </trkpt>
      <trkpt lat="44.86128" lon="5.18998">
        <ele>771.5</ele>
        <time>2024-07-01T09:16:59Z</time>
      </trkpt>
      <trkpt lat="44.8613" lon="5.18998">
        <ele>771.5</ele>
        <time>2024-07-01T09:17:01Z</time>
      </trkpt>
      <trkpt lat="44.86132" lon="5.18999">
        <ele>771.6</ele>
        <time>2024-07-01T09:17:02Z</time>
      </trkpt>
      <trkpt lat="44.86134" lon="5.19">
        <ele>771.6</ele>
        <time>2024-07-01T09:17:03Z</time>
      </trkpt>
      <trkpt lat="44.86135" lon="5.19">
        <ele>771.6</ele>
        <time>2024-07-01T09:17:04Z</time>
      </trkpt>
      <trkpt lat="44.86136" lon="5.19">
        <ele>771.7</ele>
        <time>2024-07-01T09:17:05Z</time>
      </trkpt>
      <trkpt lat="44.86136" lon="5.19">
        <ele>771.7</ele>
        <time>2024-07-01T09:17:06Z</time>
      </trkpt>
      <trkpt lat="44.86136" lon="5.19001">
        <ele>771.7</ele>
        <time>2024-07-01T09:17:07Z</time>
      </trkpt>
      <trkpt lat="44.86136" lon="5.19002">
        <ele>771.7</ele>
        <time>2024-07-01T09:17:08Z</time>
      </trkpt>
      <trkpt lat="44.86136" lon="5.19003">
        <ele>771.7</ele>
        <time>2024-07-01T09:17:09Z</time>
      </trkpt>
      <trkpt lat="44.86136" lon="5.19005">
        <ele>771.8</ele>
        <time>2024-07-01T09:17:10Z</time>
      </trkpt>
      <trkpt lat="44.86136" lon="5.19005">
        <ele>771.8</ele>
        <time>2024-07-01T09:17:12Z</time>
      </trkpt>
      <trkpt lat="44.86136" lon="5.19005">
        <ele>771.8</ele>
        <time>2024-07-01T09:17:13Z</time>
      </trkpt>
      <trkpt lat="44.86136" lon="5.19005">
        <ele>771.8</ele>
        <time>2024-07-01T09:17:14Z</time>
      </trkpt>
      <trkpt lat="44.86129" lon="5.19003">
        <ele>772</ele>
        <time>2024-07-01T09:17:16Z</time>
      </trkpt>
      <trkpt lat="44.86124" lon="5.19003">
        <ele>772.1</ele>
        <time>2024-07-01T09:17:17Z</time>
      </trkpt>
      <trkpt lat="44.86122" lon="5.19005">
        <ele>772.1</ele>
        <time>2024-07-01T09:17:18Z</time>
      </trkpt>
      <trkpt lat="44.86122" lon="5.19006">
        <ele>772.2</ele>
        <time>2024-07-01T09:17:19Z</time>
      </trkpt>
      <trkpt lat="44.86122" lon="5.19006">
        <ele>772.2</ele>
        <time>2024-07-01T09:17:20Z</time>
      </trkpt>
      <trkpt lat="44.86123" lon="5.19007">
        <ele>772.2</ele>
        <time>2024-07-01T09:17:21Z</time>
      </trkpt>
      <trkpt lat="44.86124" lon="5.19008">
        <ele>772.2</ele>
        <time>2024-07-01T09:17:22Z</time>
      </trkpt>
      <trkpt lat="44.86124" lon="5.19009">
        <ele>772.2</ele>
        <time>2024-07-01T09:17:23Z</time>
      </trkpt>
      <trkpt lat="44.86125" lon="5.19009">
        <ele>772.3</ele>
        <time>2024-07-01T09:17:24Z</time>
      </trkpt>
      <trkpt lat="44.86127" lon="5.19009">
        <ele>772.3</ele>
        <time>2024-07-01T09:17:25Z</time>
      </trkpt>
      <trkpt lat="44.86128" lon="5.19009">
        <ele>772.3</ele>
        <time>2024-07-01T09:17:26Z</time>
      </trkpt>
      <trkpt lat="44.86131" lon="5.19005">
        <ele>772.4</ele>
        <time>2024-07-01T09:17:27Z</time>
      </trkpt>
      <trkpt lat="44.86133" lon="5.19004">
        <ele>772.5</ele>
        <time>2024-07-01T09:17:28Z</time>
      </trkpt>
      <trkpt lat="44.86134" lon="5.19001">
        <ele>772.5</ele>
        <time>2024-07-01T09:17:30Z</time>
      </trkpt>
      <trkpt lat="44.86135" lon="5.18999">
        <ele>772.6</ele>
        <time>2024-07-01T09:17:31Z</time>
      </trkpt>
      <trkpt lat="44.86136" lon="5.18997">
        <ele>772.6</ele>
        <time>2024-07-01T09:17:32Z</time>
      </trkpt>
      <trkpt lat="44.86137" lon="5.18995">
        <ele>772.6</ele>
        <time>2024-07-01T09:17:33Z</time>
      </trkpt>
      <trkpt lat="44.86137" lon="5.18994">
        <ele>772.6</ele>
        <time>2024-07-01T09:17:34Z</time>
      </trkpt>
      <trkpt lat="44.86138" lon="5.18993">
        <ele>772.7</ele>
        <time>2024-07-01T09:17:35Z</time>
      </trkpt>
      <trkpt lat="44.86139" lon="5.18991">
        <ele>772.7</ele>
        <time>2024-07-01T09:17:36Z</time>
      </trkpt>
      <trkpt lat="44.8614" lon="5.1899">
        <ele>772.7</ele>
        <time>2024-07-01T09:17:37Z</time>
      </trkpt>
      <trkpt lat="44.86141" lon="5.18989">
        <ele>772.7</ele>
        <time>2024-07-01T09:17:38Z</time>
      </trkpt>
      <trkpt lat="44.86142" lon="5.1899">
        <ele>772.7</ele>
        <time>2024-07-01T09:17:39Z</time>
      </trkpt>
      <trkpt lat="44.86142" lon="5.1899">
        <ele>772.8</ele>
        <time>2024-07-01T09:17:40Z</time>
      </trkpt>
      <trkpt lat="44.86142" lon="5.1899">
        <ele>772.8</ele>
        <time>2024-07-01T09:17:41Z</time>
      </trkpt>
      <trkpt lat="44.86142" lon="5.18991">
        <ele>772.8</ele>
        <time>2024-07-01T09:17:42Z</time>
      </trkpt>
      <trkpt lat="44.86142" lon="5.1899">
        <ele>772.8</ele>
        <time>2024-07-01T09:17:43Z</time>
      </trkpt>
      <trkpt lat="44.86141" lon="5.1899">
        <ele>772.8</ele>
        <time>2024-07-01T09:17:44Z</time>
      </trkpt>
      <trkpt lat="44.86142" lon="5.18989">
        <ele>772.8</ele>
        <time>2024-07-01T09:17:46Z</time>
      </trkpt>
      <trkpt lat="44.86142" lon="5.18989">
        <ele>772.8</ele>
        <time>2024-07-01T09:17:47Z</time>
      </trkpt>
      <trkpt lat="44.86144" lon="5.18987">
        <ele>772.9</ele>
        <time>2024-07-01T09:17:48Z</time>
      </trkpt>
      <trkpt lat="44.86145" lon="5.18986">
        <ele>772.9</ele>
        <time>2024-07-01T09:17:50Z</time>
      </trkpt>
      <trkpt lat="44.86145" lon="5.18984">
        <ele>773</ele>
        <time>2024-07-01T09:17:51Z</time>
      </trkpt>
      <trkpt lat="44.86145" lon="5.18983">
        <ele>773</ele>
        <time>2024-07-01T09:17:52Z</time>
      </trkpt>
      <trkpt lat="44.86146" lon="5.18982">
        <ele>773</ele>
        <time>2024-07-01T09:17:53Z</time>
      </trkpt>
      <trkpt lat="44.86147" lon="5.18981">
        <ele>773</ele>
        <time>2024-07-01T09:17:54Z</time>
      </trkpt>
      <trkpt lat="44.86148" lon="5.18981">
        <ele>773.1</ele>
        <time>2024-07-01T09:17:55Z</time>
      </trkpt>
      <trkpt lat="44.86149" lon="5.18979">
        <ele>773.1</ele>
        <time>2024-07-01T09:17:56Z</time>
      </trkpt>
      <trkpt lat="44.8615" lon="5.18979">
        <ele>773.2</ele>
        <time>2024-07-01T09:17:57Z</time>
      </trkpt>
      <trkpt lat="44.86152" lon="5.18976">
        <ele>773.3</ele>
        <time>2024-07-01T09:17:58Z</time>
      </trkpt>
      <trkpt lat="44.86152" lon="5.18975">
        <ele>773.3</ele>
        <time>2024-07-01T09:17:59Z</time>
      </trkpt>
      <trkpt lat="44.86154" lon="5.18974">
        <ele>773.4</ele>
        <time>2024-07-01T09:18:00Z</time>
      </trkpt>
      <trkpt lat="44.86155" lon="5.18973">
        <ele>773.4</ele>
        <time>2024-07-01T09:18:01Z</time>
      </trkpt>
      <trkpt lat="44.86157" lon="5.1897">
        <ele>773.5</ele>
        <time>2024-07-01T09:18:02Z</time>
      </trkpt>
      <trkpt lat="44.86157" lon="5.18968">
        <ele>773.6</ele>
        <time>2024-07-01T09:18:04Z</time>
      </trkpt>
      <trkpt lat="44.86157" lon="5.18966">
        <ele>773.7</ele>
        <time>2024-07-01T09:18:05Z</time>
      </trkpt>
      <trkpt lat="44.86158" lon="5.18965">
        <ele>773.7</ele>
        <time>2024-07-01T09:18:06Z</time>
      </trkpt>
      <trkpt lat="44.86158" lon="5.18964">
        <ele>773.7</ele>
        <time>2024-07-01T09:18:07Z</time>
      </trkpt>
      <trkpt lat="44.86158" lon="5.18963">
        <ele>773.8</ele>
        <time>2024-07-01T09:18:08Z</time>
      </trkpt>
      <trkpt lat="44.86157" lon="5.18963">
        <ele>773.8</ele>
        <time>2024-07-01T09:18:09Z</time>
      </trkpt>
      <trkpt lat="44.86157" lon="5.18964">
        <ele>773.8</ele>
        <time>2024-07-01T09:18:10Z</time>
      </trkpt>
      <trkpt lat="44.86157" lon="5.18964">
        <ele>773.9</ele>
        <time>2024-07-01T09:18:12Z</time>
      </trkpt>
      <trkpt lat="44.86156" lon="5.18962">
        <ele>773.9</ele>
        <time>2024-07-01T09:18:13Z</time>
      </trkpt>
      <trkpt lat="44.86155" lon="5.18961">
        <ele>773.9</ele>
        <time>2024-07-01T09:18:14Z</time>
      </trkpt>
      <trkpt lat="44.86155" lon="5.18959">
        <ele>774</ele>
        <time>2024-07-01T09:18:15Z</time>
      </trkpt>
      <trkpt lat="44.86155" lon="5.18957">
        <ele>774.1</ele>
        <time>2024-07-01T09:18:16Z</time>
      </trkpt>
      <trkpt lat="44.86156" lon="5.18955">
        <ele>774.1</ele>
        <time>2024-07-01T09:18:18Z</time>
      </trkpt>
      <trkpt lat="44.86156" lon="5.18953">
        <ele>774.2</ele>
        <time>2024-07-01T09:18:19Z</time>
      </trkpt>
      <trkpt lat="44.86156" lon="5.18951">
        <ele>774.2</ele>
        <time>2024-07-01T09:18:21Z</time>
      </trkpt>
      <trkpt lat="44.86156" lon="5.1895">
        <ele>774.3</ele>
        <time>2024-07-01T09:18:22Z</time>
      </trkpt>
      <trkpt lat="44.86156" lon="5.18948">
        <ele>774.3</ele>
        <time>2024-07-01T09:18:23Z</time>
      </trkpt>
      <trkpt lat="44.86156" lon="5.18946">
        <ele>774.4</ele>
        <time>2024-07-01T09:18:24Z</time>
      </trkpt>
      <trkpt lat="44.86154" lon="5.18942">
        <ele>774.4</ele>
        <time>2024-07-01T09:18:26Z</time>
      </trkpt>
      <trkpt lat="44.86153" lon="5.18941">
        <ele>774.5</ele>
        <time>2024-07-01T09:18:28Z</time>
      </trkpt>
      <trkpt lat="44.86152" lon="5.18939">
        <ele>774.5</ele>
        <time>2024-07-01T09:18:29Z</time>
      </trkpt>
      <trkpt lat="44.86152" lon="5.18937">
        <ele>774.6</ele>
        <time>2024-07-01T09:18:30Z</time>
      </trkpt>
      <trkpt lat="44.86152" lon="5.18934">
        <ele>774.6</ele>
        <time>2024-07-01T09:18:31Z</time>
      </trkpt>
      <trkpt lat="44.86152" lon="5.18933">
        <ele>774.6</ele>
        <time>2024-07-01T09:18:32Z</time>
      </trkpt>
      <trkpt lat="44.86152" lon="5.18932">
        <ele>774.6</ele>
        <time>2024-07-01T09:18:33Z</time>
      </trkpt>
      <trkpt lat="44.86152" lon="5.1893">
        <ele>774.7</ele>
        <time>2024-07-01T09:18:34Z</time>
      </trkpt>
      <trkpt lat="44.86152" lon="5.18929">
        <ele>774.7</ele>
        <time>2024-07-01T09:18:35Z</time>
      </trkpt>
      <trkpt lat="44.86152" lon="5.18928">
        <ele>774.7</ele>
        <time>2024-07-01T09:18:36Z</time>
      </trkpt>
      <trkpt lat="44.86152" lon="5.18925">
        <ele>774.7</ele>
        <time>2024-07-01T09:18:37Z</time>
      </trkpt>
      <trkpt lat="44.86152" lon="5.18923">
        <ele>774.8</ele>
        <time>2024-07-01T09:18:39Z</time>
      </trkpt>
      <trkpt lat="44.86152" lon="5.18922">
        <ele>774.8</ele>
        <time>2024-07-01T09:18:40Z</time>
      </trkpt>
      <trkpt lat="44.86153" lon="5.18919">
        <ele>774.8</ele>
        <time>2024-07-01T09:18:41Z</time>
      </trkpt>
      <trkpt lat="44.86153" lon="5.18917">
        <ele>774.9</ele>
        <time>2024-07-01T09:18:43Z</time>
      </trkpt>
      <trkpt lat="44.86153" lon="5.18916">
        <ele>774.9</ele>
        <time>2024-07-01T09:18:44Z</time>
      </trkpt>
      <trkpt lat="44.86153" lon="5.18914">
        <ele>774.9</ele>
        <time>2024-07-01T09:18:45Z</time>
      </trkpt>
      <trkpt lat="44.86154" lon="5.18913">
        <ele>774.9</ele>
        <time>2024-07-01T09:18:46Z</time>
      </trkpt>
      <trkpt lat="44.86154" lon="5.18912">
        <ele>774.9</ele>
        <time>2024-07-01T09:18:47Z</time>
      </trkpt>
      <trkpt lat="44.86155" lon="5.18911">
        <ele>775</ele>
        <time>2024-07-01T09:18:48Z</time>
      </trkpt>
      <trkpt lat="44.86156" lon="5.18909">
        <ele>775</ele>
        <time>2024-07-01T09:18:49Z</time>
      </trkpt>
      <trkpt lat="44.86156" lon="5.18908">
        <ele>775</ele>
        <time>2024-07-01T09:18:50Z</time>
      </trkpt>
      <trkpt lat="44.86157" lon="5.18907">
        <ele>775</ele>
        <time>2024-07-01T09:18:51Z</time>
      </trkpt>
      <trkpt lat="44.86158" lon="5.18906">
        <ele>775.1</ele>
        <time>2024-07-01T09:18:52Z</time>
      </trkpt>
      <trkpt lat="44.86158" lon="5.18903">
        <ele>775.1</ele>
        <time>2024-07-01T09:18:53Z</time>
      </trkpt>
      <trkpt lat="44.86159" lon="5.18902">
        <ele>775.1</ele>
        <time>2024-07-01T09:18:55Z</time>
      </trkpt>
      <trkpt lat="44.86159" lon="5.18901">
        <ele>775.2</ele>
        <time>2024-07-01T09:18:56Z</time>
      </trkpt>
      <trkpt lat="44.8616" lon="5.18899">
        <ele>775.2</ele>
        <time>2024-07-01T09:18:57Z</time>
      </trkpt>
      <trkpt lat="44.86161" lon="5.18897">
        <ele>775.3</ele>
        <time>2024-07-01T09:18:59Z</time>
      </trkpt>
      <trkpt lat="44.86161" lon="5.18896">
        <ele>775.3</ele>
        <time>2024-07-01T09:19:00Z</time>
      </trkpt>
      <trkpt lat="44.86162" lon="5.18895">
        <ele>775.3</ele>
        <time>2024-07-01T09:19:01Z</time>
      </trkpt>
      <trkpt lat="44.86163" lon="5.18893">
        <ele>775.4</ele>
        <time>2024-07-01T09:19:02Z</time>
      </trkpt>
      <trkpt lat="44.86164" lon="5.18892">
        <ele>775.4</ele>
        <time>2024-07-01T09:19:04Z</time>
      </trkpt>
      <trkpt lat="44.86165" lon="5.18892">
        <ele>775.5</ele>
        <time>2024-07-01T09:19:05Z</time>
      </trkpt>
      <trkpt lat="44.86167" lon="5.18891">
        <ele>775.5</ele>
        <time>2024-07-01T09:19:06Z</time>
      </trkpt>
      <trkpt lat="44.86169" lon="5.1889">
        <ele>775.6</ele>
        <time>2024-07-01T09:19:07Z</time>
      </trkpt>
      <trkpt lat="44.8617" lon="5.1889">
        <ele>775.6</ele>
        <time>2024-07-01T09:19:08Z</time>
      </trkpt>
      <trkpt lat="44.86172" lon="5.1889">
        <ele>775.7</ele>
        <time>2024-07-01T09:19:09Z</time>
      </trkpt>
      <trkpt lat="44.86173" lon="5.18889">
        <ele>775.8</ele>
        <time>2024-07-01T09:19:10Z</time>
      </trkpt>
      <trkpt lat="44.86174" lon="5.18888">
        <ele>775.8</ele>
        <time>2024-07-01T09:19:11Z</time>
      </trkpt>
      <trkpt lat="44.86175" lon="5.18887">
        <ele>775.8</ele>
        <time>2024-07-01T09:19:12Z</time>
      </trkpt>
      <trkpt lat="44.86176" lon="5.18886">
        <ele>775.9</ele>
        <time>2024-07-01T09:19:13Z</time>
      </trkpt>
      <trkpt lat="44.86178" lon="5.18885">
        <ele>775.9</ele>
        <time>2024-07-01T09:19:14Z</time>
      </trkpt>
      <trkpt lat="44.86179" lon="5.18885">
        <ele>776</ele>
        <time>2024-07-01T09:19:15Z</time>
      </trkpt>
      <trkpt lat="44.8618" lon="5.18884">
        <ele>776</ele>
        <time>2024-07-01T09:19:16Z</time>
      </trkpt>
      <trkpt lat="44.86181" lon="5.18884">
        <ele>776.1</ele>
        <time>2024-07-01T09:19:17Z</time>
      </trkpt>
      <trkpt lat="44.86182" lon="5.18884">
        <ele>776.1</ele>
        <time>2024-07-01T09:19:18Z</time>
      </trkpt>
      <trkpt lat="44.86183" lon="5.18884">
        <ele>776.1</ele>
        <time>2024-07-01T09:19:19Z</time>
      </trkpt>
      <trkpt lat="44.86185" lon="5.18884">
        <ele>776.2</ele>
        <time>2024-07-01T09:19:20Z</time>
      </trkpt>
      <trkpt lat="44.86187" lon="5.18884">
        <ele>776.3</ele>
        <time>2024-07-01T09:19:22Z</time>
      </trkpt>
      <trkpt lat="44.86188" lon="5.18884">
        <ele>776.3</ele>
        <time>2024-07-01T09:19:23Z</time>
      </trkpt>
      <trkpt lat="44.86189" lon="5.18884">
        <ele>776.3</ele>
        <time>2024-07-01T09:19:24Z</time>
      </trkpt>
      <trkpt lat="44.8619" lon="5.18884">
        <ele>776.4</ele>
        <time>2024-07-01T09:19:25Z</time>
      </trkpt>
      <trkpt lat="44.86191" lon="5.18884">
        <ele>776.4</ele>
        <time>2024-07-01T09:19:26Z</time>
      </trkpt>
      <trkpt lat="44.86192" lon="5.18884">
        <ele>776.4</ele>
        <time>2024-07-01T09:19:27Z</time>
      </trkpt>
      <trkpt lat="44.86193" lon="5.18884">
        <ele>776.5</ele>
        <time>2024-07-01T09:19:28Z</time>
      </trkpt>
      <trkpt lat="44.86195" lon="5.18883">
        <ele>776.5</ele>
        <time>2024-07-01T09:19:29Z</time>
      </trkpt>
      <trkpt lat="44.86196" lon="5.18883">
        <ele>776.5</ele>
        <time>2024-07-01T09:19:31Z</time>
      </trkpt>
      <trkpt lat="44.86197" lon="5.18883">
        <ele>776.6</ele>
        <time>2024-07-01T09:19:32Z</time>
      </trkpt>
      <trkpt lat="44.86199" lon="5.18882">
        <ele>776.6</ele>
        <time>2024-07-01T09:19:33Z</time>
      </trkpt>
      <trkpt lat="44.862" lon="5.18882">
        <ele>776.6</ele>
        <time>2024-07-01T09:19:35Z</time>
      </trkpt>
      <trkpt lat="44.86201" lon="5.18883">
        <ele>776.6</ele>
        <time>2024-07-01T09:19:36Z</time>
      </trkpt>
      <trkpt lat="44.86202" lon="5.18883">
        <ele>776.6</ele>
        <time>2024-07-01T09:19:37Z</time>
      </trkpt>
      <trkpt lat="44.86203" lon="5.18884">
        <ele>776.7</ele>
        <time>2024-07-01T09:19:38Z</time>
      </trkpt>
      <trkpt lat="44.86204" lon="5.18884">
        <ele>776.7</ele>
        <time>2024-07-01T09:19:39Z</time>
      </trkpt>
      <trkpt lat="44.86205" lon="5.18884">
        <ele>776.7</ele>
        <time>2024-07-01T09:19:40Z</time>
      </trkpt>
      <trkpt lat="44.86206" lon="5.18885">
        <ele>776.7</ele>
        <time>2024-07-01T09:19:41Z</time>
      </trkpt>
      <trkpt lat="44.86207" lon="5.18885">
        <ele>776.7</ele>
        <time>2024-07-01T09:19:42Z</time>
      </trkpt>
      <trkpt lat="44.86208" lon="5.18885">
        <ele>776.7</ele>
        <time>2024-07-01T09:19:43Z</time>
      </trkpt>
      <trkpt lat="44.8621" lon="5.18885">
        <ele>776.8</ele>
        <time>2024-07-01T09:19:44Z</time>
      </trkpt>
      <trkpt lat="44.86211" lon="5.18885">
        <ele>776.8</ele>
        <time>2024-07-01T09:19:46Z</time>
      </trkpt>
      <trkpt lat="44.86212" lon="5.18885">
        <ele>776.8</ele>
        <time>2024-07-01T09:19:47Z</time>
      </trkpt>
      <trkpt lat="44.86213" lon="5.18885">
        <ele>776.8</ele>
        <time>2024-07-01T09:19:48Z</time>
      </trkpt>
      <trkpt lat="44.86214" lon="5.18885">
        <ele>776.8</ele>
        <time>2024-07-01T09:19:49Z</time>
      </trkpt>
      <trkpt lat="44.86215" lon="5.18885">
        <ele>776.8</ele>
        <time>2024-07-01T09:19:50Z</time>
      </trkpt>
      <trkpt lat="44.86216" lon="5.18884">
        <ele>776.8</ele>
        <time>2024-07-01T09:19:51Z</time>
      </trkpt>
      <trkpt lat="44.86217" lon="5.18884">
        <ele>776.9</ele>
        <time>2024-07-01T09:19:52Z</time>
      </trkpt>
      <trkpt lat="44.86218" lon="5.18884">
        <ele>776.9</ele>
        <time>2024-07-01T09:19:53Z</time>
      </trkpt>
      <trkpt lat="44.86219" lon="5.18884">
        <ele>776.9</ele>
        <time>2024-07-01T09:19:54Z</time>
      </trkpt>
      <trkpt lat="44.8622" lon="5.18884">
        <ele>776.9</ele>
        <time>2024-07-01T09:19:55Z</time>
      </trkpt>
      <trkpt lat="44.86222" lon="5.18884">
        <ele>776.9</ele>
        <time>2024-07-01T09:19:56Z</time>
      </trkpt>
      <trkpt lat="44.86222" lon="5.18884">
        <ele>776.9</ele>
        <time>2024-07-01T09:19:58Z</time>
      </trkpt>
      <trkpt lat="44.86223" lon="5.18884">
        <ele>776.9</ele>
        <time>2024-07-01T09:19:59Z</time>
      </trkpt>
      <trkpt lat="44.86224" lon="5.18886">
        <ele>777</ele>
        <time>2024-07-01T09:20:00Z</time>
      </trkpt>
      <trkpt lat="44.86225" lon="5.18887">
        <ele>777</ele>
        <time>2024-07-01T09:20:02Z</time>
      </trkpt>
      <trkpt lat="44.86226" lon="5.18888">
        <ele>777</ele>
        <time>2024-07-01T09:20:03Z</time>
      </trkpt>
      <trkpt lat="44.86227" lon="5.18889">
        <ele>777</ele>
        <time>2024-07-01T09:20:04Z</time>
      </trkpt>
      <trkpt lat="44.86227" lon="5.1889">
        <ele>777</ele>
        <time>2024-07-01T09:20:05Z</time>
      </trkpt>
      <trkpt lat="44.86228" lon="5.18891">
        <ele>777</ele>
        <time>2024-07-01T09:20:06Z</time>
      </trkpt>
      <trkpt lat="44.86229" lon="5.18891">
        <ele>777.1</ele>
        <time>2024-07-01T09:20:07Z</time>
      </trkpt>
      <trkpt lat="44.86229" lon="5.18891">
        <ele>777.1</ele>
        <time>2024-07-01T09:20:08Z</time>
      </trkpt>
      <trkpt lat="44.8623" lon="5.18891">
        <ele>777.1</ele>
        <time>2024-07-01T09:20:09Z</time>
      </trkpt>
      <trkpt lat="44.86231" lon="5.18892">
        <ele>777.1</ele>
        <time>2024-07-01T09:20:10Z</time>
      </trkpt>
      <trkpt lat="44.86232" lon="5.18893">
        <ele>777.1</ele>
        <time>2024-07-01T09:20:11Z</time>
      </trkpt>
      <trkpt lat="44.86232" lon="5.18894">
        <ele>777.1</ele>
        <time>2024-07-01T09:20:12Z</time>
      </trkpt>
      <trkpt lat="44.86233" lon="5.18894">
        <ele>777.1</ele>
        <time>2024-07-01T09:20:13Z</time>
      </trkpt>
      <trkpt lat="44.86234" lon="5.18894">
        <ele>777.2</ele>
        <time>2024-07-01T09:20:14Z</time>
      </trkpt>
      <trkpt lat="44.86235" lon="5.18894">
        <ele>777.2</ele>
        <time>2024-07-01T09:20:15Z</time>
      </trkpt>
      <trkpt lat="44.86237" lon="5.18893">
        <ele>777.2</ele>
        <time>2024-07-01T09:20:16Z</time>
      </trkpt>
      <trkpt lat="44.86238" lon="5.18892">
        <ele>777.2</ele>
        <time>2024-07-01T09:20:18Z</time>
      </trkpt>
      <trkpt lat="44.86238" lon="5.18892">
        <ele>777.2</ele>
        <time>2024-07-01T09:20:19Z</time>
      </trkpt>
      <trkpt lat="44.86238" lon="5.18892">
        <ele>777.2</ele>
        <time>2024-07-01T09:20:20Z</time>
      </trkpt>
      <trkpt lat="44.86238" lon="5.18893">
        <ele>777.2</ele>
        <time>2024-07-01T09:20:21Z</time>
      </trkpt>
      <trkpt lat="44.86239" lon="5.18893">
        <ele>777.3</ele>
        <time>2024-07-01T09:20:22Z</time>
      </trkpt>
      <trkpt lat="44.8624" lon="5.18894">
        <ele>777.3</ele>
        <time>2024-07-01T09:20:23Z</time>
      </trkpt>
      <trkpt lat="44.86241" lon="5.18894">
        <ele>777.3</ele>
        <time>2024-07-01T09:20:25Z</time>
      </trkpt>
      <trkpt lat="44.86241" lon="5.18894">
        <ele>777.3</ele>
        <time>2024-07-01T09:20:26Z</time>
      </trkpt>
      <trkpt lat="44.86242" lon="5.18894">
        <ele>777.3</ele>
        <time>2024-07-01T09:20:27Z</time>
      </trkpt>
      <trkpt lat="44.86243" lon="5.18894">
        <ele>777.3</ele>
        <time>2024-07-01T09:20:28Z</time>
      </trkpt>
      <trkpt lat="44.86244" lon="5.18895">
        <ele>777.4</ele>
        <time>2024-07-01T09:20:29Z</time>
      </trkpt>
      <trkpt lat="44.86245" lon="5.18896">
        <ele>777.4</ele>
        <time>2024-07-01T09:20:30Z</time>
      </trkpt>
      <trkpt lat="44.86246" lon="5.18896">
        <ele>777.4</ele>
        <time>2024-07-01T09:20:31Z</time>
      </trkpt>
      <trkpt lat="44.86246" lon="5.18897">
        <ele>777.4</ele>
        <time>2024-07-01T09:20:32Z</time>
      </trkpt>
      <trkpt lat="44.86247" lon="5.18897">
        <ele>777.4</ele>
        <time>2024-07-01T09:20:33Z</time>
      </trkpt>
      <trkpt lat="44.86248" lon="5.18898">
        <ele>777.4</ele>
        <time>2024-07-01T09:20:34Z</time>
      </trkpt>
      <trkpt lat="44.8625" lon="5.18899">
        <ele>777.5</ele>
        <time>2024-07-01T09:20:35Z</time>
      </trkpt>
      <trkpt lat="44.86252" lon="5.189">
        <ele>777.5</ele>
        <time>2024-07-01T09:20:36Z</time>
      </trkpt>
      <trkpt lat="44.86252" lon="5.189">
        <ele>777.5</ele>
        <time>2024-07-01T09:20:37Z</time>
      </trkpt>
      <trkpt lat="44.86253" lon="5.18901">
        <ele>777.5</ele>
        <time>2024-07-01T09:20:38Z</time>
      </trkpt>
      <trkpt lat="44.86254" lon="5.18901">
        <ele>777.5</ele>
        <time>2024-07-01T09:20:39Z</time>
      </trkpt>
      <trkpt lat="44.86255" lon="5.18902">
        <ele>777.6</ele>
        <time>2024-07-01T09:20:40Z</time>
      </trkpt>
      <trkpt lat="44.86256" lon="5.18903">
        <ele>777.6</ele>
        <time>2024-07-01T09:20:41Z</time>
      </trkpt>
      <trkpt lat="44.86258" lon="5.18904">
        <ele>777.6</ele>
        <time>2024-07-01T09:20:42Z</time>
      </trkpt>
      <trkpt lat="44.86259" lon="5.18904">
        <ele>777.6</ele>
        <time>2024-07-01T09:20:43Z</time>
      </trkpt>
      <trkpt lat="44.8626" lon="5.18904">
        <ele>777.6</ele>
        <time>2024-07-01T09:20:44Z</time>
      </trkpt>
      <trkpt lat="44.86261" lon="5.18904">
        <ele>777.6</ele>
        <time>2024-07-01T09:20:45Z</time>
      </trkpt>
      <trkpt lat="44.86262" lon="5.18905">
        <ele>777.6</ele>
        <time>2024-07-01T09:20:46Z</time>
      </trkpt>
      <trkpt lat="44.86263" lon="5.18905">
        <ele>777.7</ele>
        <time>2024-07-01T09:20:47Z</time>
      </trkpt>
      <trkpt lat="44.86264" lon="5.18905">
        <ele>777.7</ele>
        <time>2024-07-01T09:20:48Z</time>
      </trkpt>
      <trkpt lat="44.86265" lon="5.18906">
        <ele>777.7</ele>
        <time>2024-07-01T09:20:49Z</time>
      </trkpt>
      <trkpt lat="44.86265" lon="5.18906">
        <ele>777.7</ele>
        <time>2024-07-01T09:20:50Z</time>
      </trkpt>
      <trkpt lat="44.86266" lon="5.18906">
        <ele>777.7</ele>
        <time>2024-07-01T09:20:51Z</time>
      </trkpt>
      <trkpt lat="44.86266" lon="5.18906">
        <ele>777.7</ele>
        <time>2024-07-01T09:20:52Z</time>
      </trkpt>
      <trkpt lat="44.86266" lon="5.18906">
        <ele>777.7</ele>
        <time>2024-07-01T09:20:53Z</time>
      </trkpt>
      <trkpt lat="44.86266" lon="5.18906">
        <ele>777.7</ele>
        <time>2024-07-01T09:20:54Z</time>
      </trkpt>
      <trkpt lat="44.86269" lon="5.18906">
        <ele>777.7</ele>
        <time>2024-07-01T09:20:56Z</time>
      </trkpt>
      <trkpt lat="44.8627" lon="5.18907">
        <ele>777.7</ele>
        <time>2024-07-01T09:20:58Z</time>
      </trkpt>
      <trkpt lat="44.86271" lon="5.18907">
        <ele>777.8</ele>
        <time>2024-07-01T09:20:59Z</time>
      </trkpt>
      <trkpt lat="44.86272" lon="5.18908">
        <ele>777.8</ele>
        <time>2024-07-01T09:21:00Z</time>
      </trkpt>
      <trkpt lat="44.86273" lon="5.18908">
        <ele>777.8</ele>
        <time>2024-07-01T09:21:01Z</time>
      </trkpt>
      <trkpt lat="44.86274" lon="5.18909">
        <ele>777.8</ele>
        <time>2024-07-01T09:21:02Z</time>
      </trkpt>
      <trkpt lat="44.86275" lon="5.18909">
        <ele>777.8</ele>
        <time>2024-07-01T09:21:03Z</time>
      </trkpt>
      <trkpt lat="44.86276" lon="5.1891">
        <ele>777.8</ele>
        <time>2024-07-01T09:21:04Z</time>
      </trkpt>
      <trkpt lat="44.86277" lon="5.1891">
        <ele>777.8</ele>
        <time>2024-07-01T09:21:05Z</time>
      </trkpt>
      <trkpt lat="44.86277" lon="5.18911">
        <ele>777.8</ele>
        <time>2024-07-01T09:21:06Z</time>
      </trkpt>
      <trkpt lat="44.86279" lon="5.18912">
        <ele>777.8</ele>
        <time>2024-07-01T09:21:07Z</time>
      </trkpt>
      <trkpt lat="44.86279" lon="5.18913">
        <ele>777.9</ele>
        <time>2024-07-01T09:21:08Z</time>
      </trkpt>
      <trkpt lat="44.8628" lon="5.18913">
        <ele>777.9</ele>
        <time>2024-07-01T09:21:09Z</time>
      </trkpt>
      <trkpt lat="44.86281" lon="5.18914">
        <ele>777.9</ele>
        <time>2024-07-01T09:21:10Z</time>
      </trkpt>
      <trkpt lat="44.86282" lon="5.18915">
        <ele>777.9</ele>
        <time>2024-07-01T09:21:11Z</time>
      </trkpt>
      <trkpt lat="44.86283" lon="5.18916">
        <ele>777.9</ele>
        <time>2024-07-01T09:21:12Z</time>
      </trkpt>
      <trkpt lat="44.86286" lon="5.18917">
        <ele>778</ele>
        <time>2024-07-01T09:21:13Z</time>
      </trkpt>
      <trkpt lat="44.86287" lon="5.18918">
        <ele>778</ele>
        <time>2024-07-01T09:21:15Z</time>
      </trkpt>
      <trkpt lat="44.86288" lon="5.18918">
        <ele>778</ele>
        <time>2024-07-01T09:21:16Z</time>
      </trkpt>
      <trkpt lat="44.8629" lon="5.18919">
        <ele>778</ele>
        <time>2024-07-01T09:21:17Z</time>
      </trkpt>
      <trkpt lat="44.86291" lon="5.18919">
        <ele>778</ele>
        <time>2024-07-01T09:21:19Z</time>
      </trkpt>
      <trkpt lat="44.86293" lon="5.1892">
        <ele>778.1</ele>
        <time>2024-07-01T09:21:20Z</time>
      </trkpt>
      <trkpt lat="44.86293" lon="5.1892">
        <ele>778.1</ele>
        <time>2024-07-01T09:21:22Z</time>
      </trkpt>
      <trkpt lat="44.86294" lon="5.18921">
        <ele>778.1</ele>
        <time>2024-07-01T09:21:23Z</time>
      </trkpt>
      <trkpt lat="44.86297" lon="5.1892">
        <ele>778.1</ele>
        <time>2024-07-01T09:21:24Z</time>
      </trkpt>
      <trkpt lat="44.86298" lon="5.1892">
        <ele>778.2</ele>
        <time>2024-07-01T09:21:26Z</time>
      </trkpt>
      <trkpt lat="44.86299" lon="5.1892">
        <ele>778.2</ele>
        <time>2024-07-01T09:21:27Z</time>
      </trkpt>
      <trkpt lat="44.863" lon="5.1892">
        <ele>778.2</ele>
        <time>2024-07-01T09:21:28Z</time>
      </trkpt>
      <trkpt lat="44.86301" lon="5.18921">
        <ele>778.2</ele>
        <time>2024-07-01T09:21:29Z</time>
      </trkpt>
      <trkpt lat="44.86302" lon="5.18922">
        <ele>778.2</ele>
        <time>2024-07-01T09:21:30Z</time>
      </trkpt>
      <trkpt lat="44.86302" lon="5.18923">
        <ele>778.3</ele>
        <time>2024-07-01T09:21:31Z</time>
      </trkpt>
      <trkpt lat="44.86302" lon="5.18925">
        <ele>778.3</ele>
        <time>2024-07-01T09:21:32Z</time>
      </trkpt>
      <trkpt lat="44.86301" lon="5.18927">
        <ele>778.3</ele>
        <time>2024-07-01T09:21:33Z</time>
      </trkpt>
      <trkpt lat="44.86302" lon="5.18928">
        <ele>778.3</ele>
        <time>2024-07-01T09:21:34Z</time>
      </trkpt>
      <trkpt lat="44.86302" lon="5.1893">
        <ele>778.4</ele>
        <time>2024-07-01T09:21:35Z</time>
      </trkpt>
      <trkpt lat="44.863" lon="5.18931">
        <ele>778.4</ele>
        <time>2024-07-01T09:21:36Z</time>
      </trkpt>
      <trkpt lat="44.86297" lon="5.18933">
        <ele>778.5</ele>
        <time>2024-07-01T09:21:37Z</time>
      </trkpt>
      <trkpt lat="44.86296" lon="5.18935">
        <ele>778.5</ele>
        <time>2024-07-01T09:21:38Z</time>
      </trkpt>
      <trkpt lat="44.86296" lon="5.18937">
        <ele>778.6</ele>
        <time>2024-07-01T09:21:39Z</time>
      </trkpt>
      <trkpt lat="44.86297" lon="5.1894">
        <ele>778.6</ele>
        <time>2024-07-01T09:21:41Z</time>
      </trkpt>
      <trkpt lat="44.86298" lon="5.18941">
        <ele>778.7</ele>
        <time>2024-07-01T09:21:43Z</time>
      </trkpt>
      <trkpt lat="44.86299" lon="5.18942">
        <ele>778.7</ele>
        <time>2024-07-01T09:21:44Z</time>
      </trkpt>
      <trkpt lat="44.86301" lon="5.18943">
        <ele>778.7</ele>
        <time>2024-07-01T09:21:45Z</time>
      </trkpt>
      <trkpt lat="44.86302" lon="5.18945">
        <ele>778.8</ele>
        <time>2024-07-01T09:21:47Z</time>
      </trkpt>
      <trkpt lat="44.86302" lon="5.18945">
        <ele>778.8</ele>
        <time>2024-07-01T09:21:48Z</time>
      </trkpt>
      <trkpt lat="44.86302" lon="5.18946">
        <ele>778.8</ele>
        <time>2024-07-01T09:21:49Z</time>
      </trkpt>
      <trkpt lat="44.86302" lon="5.18947">
        <ele>778.8</ele>
        <time>2024-07-01T09:21:50Z</time>
      </trkpt>
      <trkpt lat="44.86303" lon="5.18947">
        <ele>778.8</ele>
        <time>2024-07-01T09:21:51Z</time>
      </trkpt>
      <trkpt lat="44.86303" lon="5.18948">
        <ele>778.9</ele>
        <time>2024-07-01T09:21:52Z</time>
      </trkpt>
      <trkpt lat="44.86303" lon="5.18949">
        <ele>778.9</ele>
        <time>2024-07-01T09:21:53Z</time>
      </trkpt>
      <trkpt lat="44.86303" lon="5.18949">
        <ele>778.9</ele>
        <time>2024-07-01T09:21:54Z</time>
      </trkpt>
      <trkpt lat="44.86303" lon="5.1895">
        <ele>778.9</ele>
        <time>2024-07-01T09:21:55Z</time>
      </trkpt>
      <trkpt lat="44.86304" lon="5.18951">
        <ele>778.9</ele>
        <time>2024-07-01T09:21:57Z</time>
      </trkpt>
      <trkpt lat="44.86304" lon="5.18951">
        <ele>778.9</ele>
        <time>2024-07-01T09:21:59Z</time>
      </trkpt>
      <trkpt lat="44.86304" lon="5.18952">
        <ele>778.9</ele>
        <time>2024-07-01T09:22:00Z</time>
      </trkpt>
      <trkpt lat="44.86305" lon="5.18953">
        <ele>779</ele>
        <time>2024-07-01T09:22:01Z</time>
      </trkpt>
      <trkpt lat="44.86306" lon="5.18956">
        <ele>779</ele>
        <time>2024-07-01T09:22:02Z</time>
      </trkpt>
      <trkpt lat="44.86306" lon="5.18957">
        <ele>779.1</ele>
        <time>2024-07-01T09:22:04Z</time>
      </trkpt>
      <trkpt lat="44.86307" lon="5.18958">
        <ele>779.1</ele>
        <time>2024-07-01T09:22:05Z</time>
      </trkpt>
      <trkpt lat="44.86307" lon="5.18959">
        <ele>779.1</ele>
        <time>2024-07-01T09:22:06Z</time>
      </trkpt>
      <trkpt lat="44.86307" lon="5.1896">
        <ele>779.1</ele>
        <time>2024-07-01T09:22:07Z</time>
      </trkpt>
      <trkpt lat="44.86307" lon="5.18961">
        <ele>779.2</ele>
        <time>2024-07-01T09:22:08Z</time>
      </trkpt>
      <trkpt lat="44.86307" lon="5.18962">
        <ele>779.2</ele>
        <time>2024-07-01T09:22:09Z</time>
      </trkpt>
      <trkpt lat="44.86307" lon="5.18965">
        <ele>779.2</ele>
        <time>2024-07-01T09:22:10Z</time>
      </trkpt>
      <trkpt lat="44.86308" lon="5.18967">
        <ele>779.3</ele>
        <time>2024-07-01T09:22:12Z</time>
      </trkpt>
      <trkpt lat="44.86309" lon="5.18967">
        <ele>779.3</ele>
        <time>2024-07-01T09:22:13Z</time>
      </trkpt>
      <trkpt lat="44.8631" lon="5.18968">
        <ele>779.3</ele>
        <time>2024-07-01T09:22:14Z</time>
      </trkpt>
      <trkpt lat="44.86311" lon="5.18968">
        <ele>779.3</ele>
        <time>2024-07-01T09:22:15Z</time>
      </trkpt>
      <trkpt lat="44.86311" lon="5.18968">
        <ele>779.4</ele>
        <time>2024-07-01T09:22:16Z</time>
      </trkpt>
      <trkpt lat="44.86311" lon="5.18969">
        <ele>779.4</ele>
        <time>2024-07-01T09:22:17Z</time>
      </trkpt>
      <trkpt lat="44.86312" lon="5.1897">
        <ele>779.4</ele>
        <time>2024-07-01T09:22:18Z</time>
      </trkpt>
      <trkpt lat="44.86312" lon="5.18972">
        <ele>779.4</ele>
        <time>2024-07-01T09:22:19Z</time>
      </trkpt>
      <trkpt lat="44.86313" lon="5.18973">
        <ele>779.5</ele>
        <time>2024-07-01T09:22:21Z</time>
      </trkpt>
      <trkpt lat="44.86314" lon="5.18973">
        <ele>779.5</ele>
        <time>2024-07-01T09:22:22Z</time>
      </trkpt>
      <trkpt lat="44.86315" lon="5.18973">
        <ele>779.5</ele>
        <time>2024-07-01T09:22:23Z</time>
      </trkpt>
      <trkpt lat="44.86316" lon="5.18973">
        <ele>779.5</ele>
        <time>2024-07-01T09:22:24Z</time>
      </trkpt>
      <trkpt lat="44.86316" lon="5.18974">
        <ele>779.6</ele>
        <time>2024-07-01T09:22:25Z</time>
      </trkpt>
      <trkpt lat="44.86316" lon="5.18976">
        <ele>779.6</ele>
        <time>2024-07-01T09:22:26Z</time>
      </trkpt>
      <trkpt lat="44.86316" lon="5.18978">
        <ele>779.6</ele>
        <time>2024-07-01T09:22:28Z</time>
      </trkpt>
      <trkpt lat="44.86317" lon="5.18979">
        <ele>779.6</ele>
        <time>2024-07-01T09:22:29Z</time>
      </trkpt>
      <trkpt lat="44.86317" lon="5.1898">
        <ele>779.7</ele>
        <time>2024-07-01T09:22:30Z</time>
      </trkpt>
      <trkpt lat="44.86318" lon="5.1898">
        <ele>779.7</ele>
        <time>2024-07-01T09:22:31Z</time>
      </trkpt>
      <trkpt lat="44.86319" lon="5.1898">
        <ele>779.7</ele>
        <time>2024-07-01T09:22:32Z</time>
      </trkpt>
      <trkpt lat="44.8632" lon="5.1898">
        <ele>779.7</ele>
        <time>2024-07-01T09:22:33Z</time>
      </trkpt>
      <trkpt lat="44.86321" lon="5.18979">
        <ele>779.8</ele>
        <time>2024-07-01T09:22:34Z</time>
      </trkpt>
      <trkpt lat="44.86322" lon="5.18979">
        <ele>779.8</ele>
        <time>2024-07-01T09:22:35Z</time>
      </trkpt>
      <trkpt lat="44.86322" lon="5.1898">
        <ele>779.8</ele>
        <time>2024-07-01T09:22:36Z</time>
      </trkpt>
      <trkpt lat="44.86323" lon="5.18981">
        <ele>779.8</ele>
        <time>2024-07-01T09:22:37Z</time>
      </trkpt>
      <trkpt lat="44.86323" lon="5.18982">
        <ele>779.8</ele>
        <time>2024-07-01T09:22:38Z</time>
      </trkpt>
      <trkpt lat="44.86324" lon="5.18983">
        <ele>779.9</ele>
        <time>2024-07-01T09:22:39Z</time>
      </trkpt>
      <trkpt lat="44.86324" lon="5.18984">
        <ele>779.9</ele>
        <time>2024-07-01T09:22:40Z</time>
      </trkpt>
      <trkpt lat="44.86325" lon="5.18985">
        <ele>779.9</ele>
        <time>2024-07-01T09:22:41Z</time>
      </trkpt>
      <trkpt lat="44.86325" lon="5.18985">
        <ele>779.9</ele>
        <time>2024-07-01T09:22:42Z</time>
      </trkpt>
      <trkpt lat="44.86326" lon="5.18986">
        <ele>779.9</ele>
        <time>2024-07-01T09:22:43Z</time>
      </trkpt>
      <trkpt lat="44.86327" lon="5.18985">
        <ele>779.9</ele>
        <time>2024-07-01T09:22:44Z</time>
      </trkpt>
      <trkpt lat="44.86328" lon="5.18985">
        <ele>780</ele>
        <time>2024-07-01T09:22:45Z</time>
      </trkpt>
      <trkpt lat="44.86329" lon="5.18985">
        <ele>780</ele>
        <time>2024-07-01T09:22:46Z</time>
      </trkpt>
      <trkpt lat="44.8633" lon="5.18984">
        <ele>780</ele>
        <time>2024-07-01T09:22:47Z</time>
      </trkpt>
      <trkpt lat="44.86331" lon="5.18984">
        <ele>780</ele>
        <time>2024-07-01T09:22:48Z</time>
      </trkpt>
      <trkpt lat="44.86331" lon="5.18984">
        <ele>780</ele>
        <time>2024-07-01T09:22:49Z</time>
      </trkpt>
      <trkpt lat="44.86332" lon="5.18983">
        <ele>780.1</ele>
        <time>2024-07-01T09:22:50Z</time>
      </trkpt>
      <trkpt lat="44.86332" lon="5.18983">
        <ele>780.1</ele>
        <time>2024-07-01T09:22:51Z</time>
      </trkpt>
      <trkpt lat="44.86333" lon="5.18983">
        <ele>780.1</ele>
        <time>2024-07-01T09:22:52Z</time>
      </trkpt>
      <trkpt lat="44.86334" lon="5.18983">
        <ele>780.1</ele>
        <time>2024-07-01T09:22:53Z</time>
      </trkpt>
      <trkpt lat="44.86334" lon="5.18983">
        <ele>780.1</ele>
        <time>2024-07-01T09:22:54Z</time>
      </trkpt>
      <trkpt lat="44.86335" lon="5.18983">
        <ele>780.1</ele>
        <time>2024-07-01T09:22:55Z</time>
      </trkpt>
      <trkpt lat="44.86336" lon="5.18983">
        <ele>780.2</ele>
        <time>2024-07-01T09:22:56Z</time>
      </trkpt>
      <trkpt lat="44.86336" lon="5.18982">
        <ele>780.2</ele>
        <time>2024-07-01T09:22:57Z</time>
      </trkpt>
      <trkpt lat="44.86337" lon="5.18981">
        <ele>780.2</ele>
        <time>2024-07-01T09:22:59Z</time>
      </trkpt>
      <trkpt lat="44.86337" lon="5.18981">
        <ele>780.2</ele>
        <time>2024-07-01T09:23:00Z</time>
      </trkpt>
      <trkpt lat="44.86338" lon="5.18981">
        <ele>780.2</ele>
        <time>2024-07-01T09:23:01Z</time>
      </trkpt>
      <trkpt lat="44.86338" lon="5.18981">
        <ele>780.2</ele>
        <time>2024-07-01T09:23:02Z</time>
      </trkpt>
      <trkpt lat="44.86339" lon="5.18981">
        <ele>780.3</ele>
        <time>2024-07-01T09:23:03Z</time>
      </trkpt>
      <trkpt lat="44.86339" lon="5.18981">
        <ele>780.3</ele>
        <time>2024-07-01T09:23:04Z</time>
      </trkpt>
      <trkpt lat="44.86341" lon="5.18982">
        <ele>780.3</ele>
        <time>2024-07-01T09:23:05Z</time>
      </trkpt>
      <trkpt lat="44.86342" lon="5.18983">
        <ele>780.4</ele>
        <time>2024-07-01T09:23:07Z</time>
      </trkpt>
      <trkpt lat="44.86342" lon="5.18983">
        <ele>780.4</ele>
        <time>2024-07-01T09:23:08Z</time>
      </trkpt>
      <trkpt lat="44.86343" lon="5.18984">
        <ele>780.4</ele>
        <time>2024-07-01T09:23:09Z</time>
      </trkpt>
      <trkpt lat="44.86344" lon="5.18985">
        <ele>780.5</ele>
        <time>2024-07-01T09:23:10Z</time>
      </trkpt>
      <trkpt lat="44.86344" lon="5.18986">
        <ele>780.5</ele>
        <time>2024-07-01T09:23:11Z</time>
      </trkpt>
      <trkpt lat="44.86345" lon="5.18987">
        <ele>780.5</ele>
        <time>2024-07-01T09:23:12Z</time>
      </trkpt>
      <trkpt lat="44.86347" lon="5.18988">
        <ele>780.6</ele>
        <time>2024-07-01T09:23:13Z</time>
      </trkpt>
      <trkpt lat="44.86348" lon="5.18988">
        <ele>780.7</ele>
        <time>2024-07-01T09:23:15Z</time>
      </trkpt>
      <trkpt lat="44.86349" lon="5.18988">
        <ele>780.7</ele>
        <time>2024-07-01T09:23:17Z</time>
      </trkpt>
      <trkpt lat="44.86352" lon="5.18988">
        <ele>780.8</ele>
        <time>2024-07-01T09:23:18Z</time>
      </trkpt>
      <trkpt lat="44.86352" lon="5.18988">
        <ele>780.9</ele>
        <time>2024-07-01T09:23:20Z</time>
      </trkpt>
      <trkpt lat="44.86353" lon="5.18987">
        <ele>780.9</ele>
        <time>2024-07-01T09:23:21Z</time>
      </trkpt>
      <trkpt lat="44.86354" lon="5.18987">
        <ele>780.9</ele>
        <time>2024-07-01T09:23:22Z</time>
      </trkpt>
      <trkpt lat="44.86355" lon="5.18987">
        <ele>781</ele>
        <time>2024-07-01T09:23:23Z</time>
      </trkpt>
      <trkpt lat="44.86356" lon="5.18986">
        <ele>781</ele>
        <time>2024-07-01T09:23:24Z</time>
      </trkpt>
      <trkpt lat="44.86357" lon="5.18987">
        <ele>781.1</ele>
        <time>2024-07-01T09:23:25Z</time>
      </trkpt>
      <trkpt lat="44.86358" lon="5.18987">
        <ele>781.1</ele>
        <time>2024-07-01T09:23:27Z</time>
      </trkpt>
      <trkpt lat="44.86359" lon="5.18986">
        <ele>781.2</ele>
        <time>2024-07-01T09:23:28Z</time>
      </trkpt>
      <trkpt lat="44.86359" lon="5.18986">
        <ele>781.2</ele>
        <time>2024-07-01T09:23:29Z</time>
      </trkpt>
      <trkpt lat="44.8636" lon="5.18985">
        <ele>781.2</ele>
        <time>2024-07-01T09:23:30Z</time>
      </trkpt>
      <trkpt lat="44.86361" lon="5.18985">
        <ele>781.3</ele>
        <time>2024-07-01T09:23:31Z</time>
      </trkpt>
      <trkpt lat="44.86361" lon="5.18984">
        <ele>781.3</ele>
        <time>2024-07-01T09:23:32Z</time>
      </trkpt>
      <trkpt lat="44.86362" lon="5.18984">
        <ele>781.3</ele>
        <time>2024-07-01T09:23:33Z</time>
      </trkpt>
      <trkpt lat="44.86363" lon="5.18983">
        <ele>781.4</ele>
        <time>2024-07-01T09:23:34Z</time>
      </trkpt>
      <trkpt lat="44.86364" lon="5.18982">
        <ele>781.4</ele>
        <time>2024-07-01T09:23:35Z</time>
      </trkpt>
      <trkpt lat="44.86364" lon="5.18981">
        <ele>781.5</ele>
        <time>2024-07-01T09:23:37Z</time>
      </trkpt>
      <trkpt lat="44.86365" lon="5.18981">
        <ele>781.5</ele>
        <time>2024-07-01T09:23:38Z</time>
      </trkpt>
      <trkpt lat="44.86366" lon="5.18979">
        <ele>781.5</ele>
        <time>2024-07-01T09:23:39Z</time>
      </trkpt>
      <trkpt lat="44.86367" lon="5.18979">
        <ele>781.6</ele>
        <time>2024-07-01T09:23:41Z</time>
      </trkpt>
      <trkpt lat="44.86367" lon="5.18978">
        <ele>781.6</ele>
        <time>2024-07-01T09:23:42Z</time>
      </trkpt>
      <trkpt lat="44.86368" lon="5.18977">
        <ele>781.7</ele>
        <time>2024-07-01T09:23:43Z</time>
      </trkpt>
      <trkpt lat="44.86369" lon="5.18977">
        <ele>781.7</ele>
        <time>2024-07-01T09:23:44Z</time>
      </trkpt>
      <trkpt lat="44.86371" lon="5.18975">
        <ele>781.8</ele>
        <time>2024-07-01T09:23:45Z</time>
      </trkpt>
      <trkpt lat="44.86371" lon="5.18974">
        <ele>781.8</ele>
        <time>2024-07-01T09:23:47Z</time>
      </trkpt>
      <trkpt lat="44.86372" lon="5.18973">
        <ele>781.8</ele>
        <time>2024-07-01T09:23:48Z</time>
      </trkpt>
      <trkpt lat="44.86372" lon="5.18972">
        <ele>781.9</ele>
        <time>2024-07-01T09:23:49Z</time>
      </trkpt>
      <trkpt lat="44.86373" lon="5.18971">
        <ele>781.9</ele>
        <time>2024-07-01T09:23:50Z</time>
      </trkpt>
      <trkpt lat="44.86374" lon="5.18969">
        <ele>782</ele>
        <time>2024-07-01T09:23:51Z</time>
      </trkpt>
      <trkpt lat="44.86374" lon="5.18968">
        <ele>782</ele>
        <time>2024-07-01T09:23:53Z</time>
      </trkpt>
      <trkpt lat="44.86375" lon="5.18967">
        <ele>782</ele>
        <time>2024-07-01T09:23:54Z</time>
      </trkpt>
      <trkpt lat="44.86375" lon="5.18965">
        <ele>782.1</ele>
        <time>2024-07-01T09:23:55Z</time>
      </trkpt>
      <trkpt lat="44.86374" lon="5.18963">
        <ele>782.1</ele>
        <time>2024-07-01T09:23:56Z</time>
      </trkpt>
      <trkpt lat="44.86373" lon="5.18963">
        <ele>782.1</ele>
        <time>2024-07-01T09:23:57Z</time>
      </trkpt>
      <trkpt lat="44.86372" lon="5.18962">
        <ele>782.2</ele>
        <time>2024-07-01T09:23:58Z</time>
      </trkpt>
      <trkpt lat="44.86371" lon="5.1896">
        <ele>782.2</ele>
        <time>2024-07-01T09:23:59Z</time>
      </trkpt>
      <trkpt lat="44.86372" lon="5.18959">
        <ele>782.2</ele>
        <time>2024-07-01T09:24:01Z</time>
      </trkpt>
      <trkpt lat="44.86373" lon="5.18959">
        <ele>782.3</ele>
        <time>2024-07-01T09:24:02Z</time>
      </trkpt>
      <trkpt lat="44.86374" lon="5.18958">
        <ele>782.3</ele>
        <time>2024-07-01T09:24:03Z</time>
      </trkpt>
      <trkpt lat="44.86375" lon="5.18956">
        <ele>782.3</ele>
        <time>2024-07-01T09:24:04Z</time>
      </trkpt>
      <trkpt lat="44.86376" lon="5.18955">
        <ele>782.4</ele>
        <time>2024-07-01T09:24:06Z</time>
      </trkpt>
      <trkpt lat="44.86377" lon="5.18955">
        <ele>782.4</ele>
        <time>2024-07-01T09:24:07Z</time>
      </trkpt>
      <trkpt lat="44.86378" lon="5.18953">
        <ele>782.4</ele>
        <time>2024-07-01T09:24:08Z</time>
      </trkpt>
      <trkpt lat="44.86378" lon="5.18952">
        <ele>782.5</ele>
        <time>2024-07-01T09:24:09Z</time>
      </trkpt>
      <trkpt lat="44.86379" lon="5.18952">
        <ele>782.5</ele>
        <time>2024-07-01T09:24:10Z</time>
      </trkpt>
      <trkpt lat="44.8638" lon="5.18952">
        <ele>782.5</ele>
        <time>2024-07-01T09:24:11Z</time>
      </trkpt>
      <trkpt lat="44.86381" lon="5.18952">
        <ele>782.5</ele>
        <time>2024-07-01T09:24:12Z</time>
      </trkpt>
      <trkpt lat="44.86383" lon="5.18953">
        <ele>782.6</ele>
        <time>2024-07-01T09:24:13Z</time>
      </trkpt>
      <trkpt lat="44.86385" lon="5.18954">
        <ele>782.6</ele>
        <time>2024-07-01T09:24:15Z</time>
      </trkpt>
      <trkpt lat="44.86387" lon="5.18955">
        <ele>782.7</ele>
        <time>2024-07-01T09:24:16Z</time>
      </trkpt>
      <trkpt lat="44.86388" lon="5.18956">
        <ele>782.7</ele>
        <time>2024-07-01T09:24:17Z</time>
      </trkpt>
      <trkpt lat="44.86389" lon="5.18957">
        <ele>782.7</ele>
        <time>2024-07-01T09:24:18Z</time>
      </trkpt>
      <trkpt lat="44.86391" lon="5.18957">
        <ele>782.8</ele>
        <time>2024-07-01T09:24:19Z</time>
      </trkpt>
      <trkpt lat="44.86391" lon="5.18957">
        <ele>782.8</ele>
        <time>2024-07-01T09:24:21Z</time>
      </trkpt>
      <trkpt lat="44.86393" lon="5.18957">
        <ele>782.8</ele>
        <time>2024-07-01T09:24:22Z</time>
      </trkpt>
      <trkpt lat="44.86393" lon="5.18957">
        <ele>782.8</ele>
        <time>2024-07-01T09:24:24Z</time>
      </trkpt>
      <trkpt lat="44.86393" lon="5.18955">
        <ele>782.9</ele>
        <time>2024-07-01T09:24:25Z</time>
      </trkpt>
      <trkpt lat="44.86393" lon="5.18955">
        <ele>782.9</ele>
        <time>2024-07-01T09:24:26Z</time>
      </trkpt>
      <trkpt lat="44.86394" lon="5.18951">
        <ele>782.9</ele>
        <time>2024-07-01T09:24:27Z</time>
      </trkpt>
      <trkpt lat="44.86395" lon="5.1895">
        <ele>783</ele>
        <time>2024-07-01T09:24:28Z</time>
      </trkpt>
      <trkpt lat="44.86395" lon="5.18947">
        <ele>783</ele>
        <time>2024-07-01T09:24:30Z</time>
      </trkpt>
      <trkpt lat="44.86396" lon="5.18944">
        <ele>783.1</ele>
        <time>2024-07-01T09:24:31Z</time>
      </trkpt>
      <trkpt lat="44.86396" lon="5.18942">
        <ele>783.1</ele>
        <time>2024-07-01T09:24:33Z</time>
      </trkpt>
      <trkpt lat="44.86396" lon="5.18941">
        <ele>783.1</ele>
        <time>2024-07-01T09:24:34Z</time>
      </trkpt>
      <trkpt lat="44.86396" lon="5.1894">
        <ele>783.1</ele>
        <time>2024-07-01T09:24:35Z</time>
      </trkpt>
      <trkpt lat="44.86396" lon="5.18939">
        <ele>783.2</ele>
        <time>2024-07-01T09:24:36Z</time>
      </trkpt>
      <trkpt lat="44.86396" lon="5.18938">
        <ele>783.2</ele>
        <time>2024-07-01T09:24:37Z</time>
      </trkpt>
      <trkpt lat="44.86396" lon="5.18937">
        <ele>783.2</ele>
        <time>2024-07-01T09:24:38Z</time>
      </trkpt>
      <trkpt lat="44.86398" lon="5.18935">
        <ele>783.2</ele>
        <time>2024-07-01T09:24:39Z</time>
      </trkpt>
      <trkpt lat="44.86399" lon="5.18934">
        <ele>783.2</ele>
        <time>2024-07-01T09:24:41Z</time>
      </trkpt>
      <trkpt lat="44.86399" lon="5.18934">
        <ele>783.3</ele>
        <time>2024-07-01T09:24:42Z</time>
      </trkpt>
      <trkpt lat="44.864" lon="5.18933">
        <ele>783.3</ele>
        <time>2024-07-01T09:24:43Z</time>
      </trkpt>
      <trkpt lat="44.86401" lon="5.18932">
        <ele>783.3</ele>
        <time>2024-07-01T09:24:44Z</time>
      </trkpt>
      <trkpt lat="44.86401" lon="5.18932">
        <ele>783.3</ele>
        <time>2024-07-01T09:24:45Z</time>
      </trkpt>
      <trkpt lat="44.86401" lon="5.18931">
        <ele>783.3</ele>
        <time>2024-07-01T09:24:46Z</time>
      </trkpt>
      <trkpt lat="44.86401" lon="5.18931">
        <ele>783.3</ele>
        <time>2024-07-01T09:24:47Z</time>
      </trkpt>
      <trkpt lat="44.86402" lon="5.1893">
        <ele>783.4</ele>
        <time>2024-07-01T09:24:48Z</time>
      </trkpt>
      <trkpt lat="44.86402" lon="5.1893">
        <ele>783.4</ele>
        <time>2024-07-01T09:24:49Z</time>
      </trkpt>
      <trkpt lat="44.86403" lon="5.18929">
        <ele>783.4</ele>
        <time>2024-07-01T09:24:50Z</time>
      </trkpt>
      <trkpt lat="44.86403" lon="5.18928">
        <ele>783.4</ele>
        <time>2024-07-01T09:24:51Z</time>
      </trkpt>
      <trkpt lat="44.86403" lon="5.18927">
        <ele>783.4</ele>
        <time>2024-07-01T09:24:52Z</time>
      </trkpt>
      <trkpt lat="44.86404" lon="5.18926">
        <ele>783.4</ele>
        <time>2024-07-01T09:24:53Z</time>
      </trkpt>
      <trkpt lat="44.86405" lon="5.18926">
        <ele>783.4</ele>
        <time>2024-07-01T09:24:54Z</time>
      </trkpt>
      <trkpt lat="44.86405" lon="5.18925">
        <ele>783.5</ele>
        <time>2024-07-01T09:24:55Z</time>
      </trkpt>
      <trkpt lat="44.86406" lon="5.18924">
        <ele>783.5</ele>
        <time>2024-07-01T09:24:56Z</time>
      </trkpt>
      <trkpt lat="44.86406" lon="5.18924">
        <ele>783.5</ele>
        <time>2024-07-01T09:24:58Z</time>
      </trkpt>
      <trkpt lat="44.86407" lon="5.18923">
        <ele>783.5</ele>
        <time>2024-07-01T09:24:59Z</time>
      </trkpt>
      <trkpt lat="44.86407" lon="5.18922">
        <ele>783.5</ele>
        <time>2024-07-01T09:25:00Z</time>
      </trkpt>
      <trkpt lat="44.86408" lon="5.18922">
        <ele>783.5</ele>
        <time>2024-07-01T09:25:01Z</time>
      </trkpt>
      <trkpt lat="44.86408" lon="5.18921">
        <ele>783.5</ele>
        <time>2024-07-01T09:25:02Z</time>
      </trkpt>
      <trkpt lat="44.86408" lon="5.18921">
        <ele>783.5</ele>
        <time>2024-07-01T09:25:03Z</time>
      </trkpt>
      <trkpt lat="44.86409" lon="5.18921">
        <ele>783.5</ele>
        <time>2024-07-01T09:25:04Z</time>
      </trkpt>
      <trkpt lat="44.8641" lon="5.18921">
        <ele>783.6</ele>
        <time>2024-07-01T09:25:05Z</time>
      </trkpt>
      <trkpt lat="44.86409" lon="5.18921">
        <ele>783.6</ele>
        <time>2024-07-01T09:25:06Z</time>
      </trkpt>
      <trkpt lat="44.86409" lon="5.1892">
        <ele>783.6</ele>
        <time>2024-07-01T09:25:07Z</time>
      </trkpt>
      <trkpt lat="44.8641" lon="5.1892">
        <ele>783.6</ele>
        <time>2024-07-01T09:25:08Z</time>
      </trkpt>
      <trkpt lat="44.86411" lon="5.1892">
        <ele>783.6</ele>
        <time>2024-07-01T09:25:09Z</time>
      </trkpt>
      <trkpt lat="44.86412" lon="5.18919">
        <ele>783.6</ele>
        <time>2024-07-01T09:25:10Z</time>
      </trkpt>
      <trkpt lat="44.86413" lon="5.18918">
        <ele>783.6</ele>
        <time>2024-07-01T09:25:12Z</time>
      </trkpt>
      <trkpt lat="44.86413" lon="5.18918">
        <ele>783.7</ele>
        <time>2024-07-01T09:25:13Z</time>
      </trkpt>
      <trkpt lat="44.86413" lon="5.18917">
        <ele>783.7</ele>
        <time>2024-07-01T09:25:14Z</time>
      </trkpt>
      <trkpt lat="44.86413" lon="5.18916">
        <ele>783.7</ele>
        <time>2024-07-01T09:25:15Z</time>
      </trkpt>
      <trkpt lat="44.86413" lon="5.18915">
        <ele>783.7</ele>
        <time>2024-07-01T09:25:16Z</time>
      </trkpt>
      <trkpt lat="44.86412" lon="5.18914">
        <ele>783.7</ele>
        <time>2024-07-01T09:25:17Z</time>
      </trkpt>
      <trkpt lat="44.86411" lon="5.18914">
        <ele>783.7</ele>
        <time>2024-07-01T09:25:18Z</time>
      </trkpt>
      <trkpt lat="44.86411" lon="5.18913">
        <ele>783.8</ele>
        <time>2024-07-01T09:25:19Z</time>
      </trkpt>
      <trkpt lat="44.8641" lon="5.1891">
        <ele>783.8</ele>
        <time>2024-07-01T09:25:21Z</time>
      </trkpt>
      <trkpt lat="44.8641" lon="5.18909">
        <ele>783.8</ele>
        <time>2024-07-01T09:25:23Z</time>
      </trkpt>
      <trkpt lat="44.8641" lon="5.18908">
        <ele>783.9</ele>
        <time>2024-07-01T09:25:24Z</time>
      </trkpt>
      <trkpt lat="44.86411" lon="5.18907">
        <ele>783.9</ele>
        <time>2024-07-01T09:25:25Z</time>
      </trkpt>
      <trkpt lat="44.86412" lon="5.18905">
        <ele>783.9</ele>
        <time>2024-07-01T09:25:26Z</time>
      </trkpt>
      <trkpt lat="44.86413" lon="5.18904">
        <ele>783.9</ele>
        <time>2024-07-01T09:25:28Z</time>
      </trkpt>
      <trkpt lat="44.86414" lon="5.18904">
        <ele>784</ele>
        <time>2024-07-01T09:25:29Z</time>
      </trkpt>
      <trkpt lat="44.86415" lon="5.18902">
        <ele>784</ele>
        <time>2024-07-01T09:25:30Z</time>
      </trkpt>
      <trkpt lat="44.86416" lon="5.18902">
        <ele>784</ele>
        <time>2024-07-01T09:25:31Z</time>
      </trkpt>
      <trkpt lat="44.86417" lon="5.18903">
        <ele>784.1</ele>
        <time>2024-07-01T09:25:32Z</time>
      </trkpt>
      <trkpt lat="44.86418" lon="5.18903">
        <ele>784.1</ele>
        <time>2024-07-01T09:25:33Z</time>
      </trkpt>
      <trkpt lat="44.86419" lon="5.18904">
        <ele>784.1</ele>
        <time>2024-07-01T09:25:34Z</time>
      </trkpt>
      <trkpt lat="44.8642" lon="5.18904">
        <ele>784.1</ele>
        <time>2024-07-01T09:25:35Z</time>
      </trkpt>
      <trkpt lat="44.86421" lon="5.18905">
        <ele>784.2</ele>
        <time>2024-07-01T09:25:36Z</time>
      </trkpt>
      <trkpt lat="44.86422" lon="5.18905">
        <ele>784.2</ele>
        <time>2024-07-01T09:25:37Z</time>
      </trkpt>
      <trkpt lat="44.86423" lon="5.18906">
        <ele>784.2</ele>
        <time>2024-07-01T09:25:38Z</time>
      </trkpt>
      <trkpt lat="44.86424" lon="5.18906">
        <ele>784.3</ele>
        <time>2024-07-01T09:25:39Z</time>
      </trkpt>
      <trkpt lat="44.86425" lon="5.18906">
        <ele>784.3</ele>
        <time>2024-07-01T09:25:40Z</time>
      </trkpt>
      <trkpt lat="44.86428" lon="5.18905">
        <ele>784.4</ele>
        <time>2024-07-01T09:25:41Z</time>
      </trkpt>
      <trkpt lat="44.86429" lon="5.18904">
        <ele>784.4</ele>
        <time>2024-07-01T09:25:43Z</time>
      </trkpt>
      <trkpt lat="44.8643" lon="5.18904">
        <ele>784.4</ele>
        <time>2024-07-01T09:25:44Z</time>
      </trkpt>
      <trkpt lat="44.8643" lon="5.18903">
        <ele>784.4</ele>
        <time>2024-07-01T09:25:45Z</time>
      </trkpt>
      <trkpt lat="44.86431" lon="5.18903">
        <ele>784.4</ele>
        <time>2024-07-01T09:25:46Z</time>
      </trkpt>
      <trkpt lat="44.86432" lon="5.18902">
        <ele>784.5</ele>
        <time>2024-07-01T09:25:47Z</time>
      </trkpt>
      <trkpt lat="44.86433" lon="5.18902">
        <ele>784.5</ele>
        <time>2024-07-01T09:25:48Z</time>
      </trkpt>
      <trkpt lat="44.86434" lon="5.18902">
        <ele>784.5</ele>
        <time>2024-07-01T09:25:50Z</time>
      </trkpt>
      <trkpt lat="44.86435" lon="5.18902">
        <ele>784.5</ele>
        <time>2024-07-01T09:25:51Z</time>
      </trkpt>
      <trkpt lat="44.86436" lon="5.18902">
        <ele>784.6</ele>
        <time>2024-07-01T09:25:52Z</time>
      </trkpt>
      <trkpt lat="44.86436" lon="5.18902">
        <ele>784.6</ele>
        <time>2024-07-01T09:25:53Z</time>
      </trkpt>
      <trkpt lat="44.86437" lon="5.18902">
        <ele>784.6</ele>
        <time>2024-07-01T09:25:54Z</time>
      </trkpt>
      <trkpt lat="44.86439" lon="5.18902">
        <ele>784.6</ele>
        <time>2024-07-01T09:25:55Z</time>
      </trkpt>
      <trkpt lat="44.8644" lon="5.18902">
        <ele>784.6</ele>
        <time>2024-07-01T09:25:57Z</time>
      </trkpt>
      <trkpt lat="44.8644" lon="5.18902">
        <ele>784.7</ele>
        <time>2024-07-01T09:25:58Z</time>
      </trkpt>
      <trkpt lat="44.86442" lon="5.18902">
        <ele>784.7</ele>
        <time>2024-07-01T09:25:59Z</time>
      </trkpt>
      <trkpt lat="44.86443" lon="5.18902">
        <ele>784.7</ele>
        <time>2024-07-01T09:26:01Z</time>
      </trkpt>
      <trkpt lat="44.86445" lon="5.18903">
        <ele>784.8</ele>
        <time>2024-07-01T09:26:02Z</time>
      </trkpt>
      <trkpt lat="44.86447" lon="5.18903">
        <ele>784.8</ele>
        <time>2024-07-01T09:26:04Z</time>
      </trkpt>
      <trkpt lat="44.86448" lon="5.18903">
        <ele>784.8</ele>
        <time>2024-07-01T09:26:06Z</time>
      </trkpt>
      <trkpt lat="44.86449" lon="5.18903">
        <ele>784.9</ele>
        <time>2024-07-01T09:26:07Z</time>
      </trkpt>
      <trkpt lat="44.8645" lon="5.18904">
        <ele>784.9</ele>
        <time>2024-07-01T09:26:08Z</time>
      </trkpt>
      <trkpt lat="44.86452" lon="5.18904">
        <ele>784.9</ele>
        <time>2024-07-01T09:26:09Z</time>
      </trkpt>
      <trkpt lat="44.86453" lon="5.18901">
        <ele>785</ele>
        <time>2024-07-01T09:26:11Z</time>
      </trkpt>
      <trkpt lat="44.86453" lon="5.189">
        <ele>785</ele>
        <time>2024-07-01T09:26:13Z</time>
      </trkpt>
      <trkpt lat="44.86453" lon="5.18899">
        <ele>785</ele>
        <time>2024-07-01T09:26:15Z</time>
      </trkpt>
      <trkpt lat="44.86452" lon="5.18897">
        <ele>785</ele>
        <time>2024-07-01T09:26:16Z</time>
      </trkpt>
      <trkpt lat="44.86452" lon="5.18896">
        <ele>785.1</ele>
        <time>2024-07-01T09:26:17Z</time>
      </trkpt>
      <trkpt lat="44.86452" lon="5.18895">
        <ele>785.1</ele>
        <time>2024-07-01T09:26:18Z</time>
      </trkpt>
      <trkpt lat="44.86451" lon="5.18893">
        <ele>785.1</ele>
        <time>2024-07-01T09:26:19Z</time>
      </trkpt>
      <trkpt lat="44.86451" lon="5.18892">
        <ele>785.1</ele>
        <time>2024-07-01T09:26:20Z</time>
      </trkpt>
      <trkpt lat="44.86448" lon="5.1889">
        <ele>785.2</ele>
        <time>2024-07-01T09:26:21Z</time>
      </trkpt>
      <trkpt lat="44.86447" lon="5.18887">
        <ele>785.3</ele>
        <time>2024-07-01T09:26:22Z</time>
      </trkpt>
      <trkpt lat="44.86447" lon="5.18885">
        <ele>785.3</ele>
        <time>2024-07-01T09:26:23Z</time>
      </trkpt>
      <trkpt lat="44.86448" lon="5.18883">
        <ele>785.3</ele>
        <time>2024-07-01T09:26:24Z</time>
      </trkpt>
      <trkpt lat="44.86449" lon="5.18881">
        <ele>785.4</ele>
        <time>2024-07-01T09:26:26Z</time>
      </trkpt>
      <trkpt lat="44.8645" lon="5.18879">
        <ele>785.4</ele>
        <time>2024-07-01T09:26:27Z</time>
      </trkpt>
      <trkpt lat="44.86451" lon="5.18878">
        <ele>785.5</ele>
        <time>2024-07-01T09:26:28Z</time>
      </trkpt>
      <trkpt lat="44.86452" lon="5.18874">
        <ele>785.5</ele>
        <time>2024-07-01T09:26:29Z</time>
      </trkpt>
      <trkpt lat="44.86453" lon="5.18872">
        <ele>785.6</ele>
        <time>2024-07-01T09:26:31Z</time>
      </trkpt>
      <trkpt lat="44.86454" lon="5.18871">
        <ele>785.6</ele>
        <time>2024-07-01T09:26:32Z</time>
      </trkpt>
      <trkpt lat="44.86454" lon="5.1887">
        <ele>785.6</ele>
        <time>2024-07-01T09:26:33Z</time>
      </trkpt>
      <trkpt lat="44.86456" lon="5.1887">
        <ele>785.7</ele>
        <time>2024-07-01T09:26:34Z</time>
      </trkpt>
      <trkpt lat="44.86457" lon="5.1887">
        <ele>785.7</ele>
        <time>2024-07-01T09:26:36Z</time>
      </trkpt>
      <trkpt lat="44.86457" lon="5.1887">
        <ele>785.7</ele>
        <time>2024-07-01T09:26:37Z</time>
      </trkpt>
      <trkpt lat="44.86458" lon="5.1887">
        <ele>785.8</ele>
        <time>2024-07-01T09:26:38Z</time>
      </trkpt>
      <trkpt lat="44.86458" lon="5.1887">
        <ele>785.8</ele>
        <time>2024-07-01T09:26:39Z</time>
      </trkpt>
      <trkpt lat="44.86459" lon="5.18871">
        <ele>785.8</ele>
        <time>2024-07-01T09:26:40Z</time>
      </trkpt>
      <trkpt lat="44.8646" lon="5.18871">
        <ele>785.8</ele>
        <time>2024-07-01T09:26:41Z</time>
      </trkpt>
      <trkpt lat="44.86461" lon="5.1887">
        <ele>785.9</ele>
        <time>2024-07-01T09:26:42Z</time>
      </trkpt>
      <trkpt lat="44.86463" lon="5.18869">
        <ele>785.9</ele>
        <time>2024-07-01T09:26:44Z</time>
      </trkpt>
      <trkpt lat="44.86464" lon="5.18868">
        <ele>786</ele>
        <time>2024-07-01T09:26:45Z</time>
      </trkpt>
      <trkpt lat="44.86466" lon="5.18868">
        <ele>786</ele>
        <time>2024-07-01T09:26:46Z</time>
      </trkpt>
      <trkpt lat="44.86467" lon="5.18867">
        <ele>786</ele>
        <time>2024-07-01T09:26:47Z</time>
      </trkpt>
      <trkpt lat="44.86468" lon="5.18867">
        <ele>786.1</ele>
        <time>2024-07-01T09:26:48Z</time>
      </trkpt>
      <trkpt lat="44.86469" lon="5.18867">
        <ele>786.1</ele>
        <time>2024-07-01T09:26:49Z</time>
      </trkpt>
      <trkpt lat="44.8647" lon="5.18867">
        <ele>786.1</ele>
        <time>2024-07-01T09:26:50Z</time>
      </trkpt>
      <trkpt lat="44.86471" lon="5.18867">
        <ele>786.2</ele>
        <time>2024-07-01T09:26:51Z</time>
      </trkpt>
      <trkpt lat="44.86472" lon="5.18866">
        <ele>786.2</ele>
        <time>2024-07-01T09:26:52Z</time>
      </trkpt>
      <trkpt lat="44.86473" lon="5.18866">
        <ele>786.2</ele>
        <time>2024-07-01T09:26:54Z</time>
      </trkpt>
      <trkpt lat="44.86475" lon="5.18866">
        <ele>786.3</ele>
        <time>2024-07-01T09:26:55Z</time>
      </trkpt>
      <trkpt lat="44.86476" lon="5.18866">
        <ele>786.3</ele>
        <time>2024-07-01T09:26:57Z</time>
      </trkpt>
      <trkpt lat="44.86477" lon="5.18866">
        <ele>786.3</ele>
        <time>2024-07-01T09:26:58Z</time>
      </trkpt>
      <trkpt lat="44.86478" lon="5.18867">
        <ele>786.3</ele>
        <time>2024-07-01T09:26:59Z</time>
      </trkpt>
      <trkpt lat="44.86478" lon="5.18867">
        <ele>786.4</ele>
        <time>2024-07-01T09:27:00Z</time>
      </trkpt>
      <trkpt lat="44.86479" lon="5.18867">
        <ele>786.4</ele>
        <time>2024-07-01T09:27:01Z</time>
      </trkpt>
      <trkpt lat="44.86481" lon="5.18867">
        <ele>786.4</ele>
        <time>2024-07-01T09:27:03Z</time>
      </trkpt>
      <trkpt lat="44.86482" lon="5.18868">
        <ele>786.4</ele>
        <time>2024-07-01T09:27:04Z</time>
      </trkpt>
      <trkpt lat="44.86482" lon="5.18869">
        <ele>786.4</ele>
        <time>2024-07-01T09:27:05Z</time>
      </trkpt>
      <trkpt lat="44.86481" lon="5.18869">
        <ele>786.5</ele>
        <time>2024-07-01T09:27:06Z</time>
      </trkpt>
      <trkpt lat="44.8648" lon="5.18868">
        <ele>786.5</ele>
        <time>2024-07-01T09:27:07Z</time>
      </trkpt>
      <trkpt lat="44.86478" lon="5.18868">
        <ele>786.5</ele>
        <time>2024-07-01T09:27:08Z</time>
      </trkpt>
      <trkpt lat="44.86477" lon="5.18867">
        <ele>786.6</ele>
        <time>2024-07-01T09:27:09Z</time>
      </trkpt>
      <trkpt lat="44.86477" lon="5.18867">
        <ele>786.6</ele>
        <time>2024-07-01T09:27:10Z</time>
      </trkpt>
      <trkpt lat="44.86477" lon="5.18867">
        <ele>786.6</ele>
        <time>2024-07-01T09:27:11Z</time>
      </trkpt>
      <trkpt lat="44.86477" lon="5.18867">
        <ele>786.6</ele>
        <time>2024-07-01T09:27:12Z</time>
      </trkpt>
      <trkpt lat="44.86477" lon="5.18868">
        <ele>786.6</ele>
        <time>2024-07-01T09:27:14Z</time>
      </trkpt>
      <trkpt lat="44.86477" lon="5.18868">
        <ele>786.6</ele>
        <time>2024-07-01T09:27:15Z</time>
      </trkpt>
      <trkpt lat="44.86477" lon="5.18869">
        <ele>786.6</ele>
        <time>2024-07-01T09:27:16Z</time>
      </trkpt>
      <trkpt lat="44.86478" lon="5.1887">
        <ele>786.6</ele>
        <time>2024-07-01T09:27:17Z</time>
      </trkpt>
      <trkpt lat="44.86478" lon="5.1887">
        <ele>786.6</ele>
        <time>2024-07-01T09:27:18Z</time>
      </trkpt>
      <trkpt lat="44.86478" lon="5.18871">
        <ele>786.6</ele>
        <time>2024-07-01T09:27:19Z</time>
      </trkpt>
      <trkpt lat="44.86478" lon="5.18871">
        <ele>786.6</ele>
        <time>2024-07-01T09:27:20Z</time>
      </trkpt>
      <trkpt lat="44.86479" lon="5.18872">
        <ele>786.6</ele>
        <time>2024-07-01T09:27:21Z</time>
      </trkpt>
      <trkpt lat="44.8648" lon="5.18873">
        <ele>786.6</ele>
        <time>2024-07-01T09:27:22Z</time>
      </trkpt>
      <trkpt lat="44.8648" lon="5.18873">
        <ele>786.6</ele>
        <time>2024-07-01T09:27:24Z</time>
      </trkpt>
      <trkpt lat="44.8648" lon="5.18873">
        <ele>786.6</ele>
        <time>2024-07-01T09:27:25Z</time>
      </trkpt>
      <trkpt lat="44.86481" lon="5.18872">
        <ele>786.7</ele>
        <time>2024-07-01T09:27:26Z</time>
      </trkpt>
      <trkpt lat="44.86482" lon="5.18872">
        <ele>786.7</ele>
        <time>2024-07-01T09:27:27Z</time>
      </trkpt>
      <trkpt lat="44.86482" lon="5.18872">
        <ele>786.7</ele>
        <time>2024-07-01T09:27:28Z</time>
      </trkpt>
      <trkpt lat="44.86482" lon="5.18871">
        <ele>786.7</ele>
        <time>2024-07-01T09:27:29Z</time>
      </trkpt>
      <trkpt lat="44.86483" lon="5.18871">
        <ele>786.7</ele>
        <time>2024-07-01T09:27:30Z</time>
      </trkpt>
      <trkpt lat="44.86483" lon="5.18871">
        <ele>786.7</ele>
        <time>2024-07-01T09:27:31Z</time>
      </trkpt>
      <trkpt lat="44.86483" lon="5.18871">
        <ele>786.7</ele>
        <time>2024-07-01T09:27:32Z</time>
      </trkpt>
      <trkpt lat="44.86484" lon="5.18871">
        <ele>786.7</ele>
        <time>2024-07-01T09:27:33Z</time>
      </trkpt>
      <trkpt lat="44.86484" lon="5.18871">
        <ele>786.7</ele>
        <time>2024-07-01T09:27:34Z</time>
      </trkpt>
      <trkpt lat="44.86485" lon="5.18871">
        <ele>786.7</ele>
        <time>2024-07-01T09:27:35Z</time>
      </trkpt>
      <trkpt lat="44.86485" lon="5.18871">
        <ele>786.7</ele>
        <time>2024-07-01T09:27:36Z</time>
      </trkpt>
      <trkpt lat="44.86488" lon="5.18871">
        <ele>786.7</ele>
        <time>2024-07-01T09:27:37Z</time>
      </trkpt>
      <trkpt lat="44.86489" lon="5.18871">
        <ele>786.8</ele>
        <time>2024-07-01T09:27:38Z</time>
      </trkpt>
      <trkpt lat="44.8649" lon="5.1887">
        <ele>786.8</ele>
        <time>2024-07-01T09:27:39Z</time>
      </trkpt>
      <trkpt lat="44.86491" lon="5.1887">
        <ele>786.8</ele>
        <time>2024-07-01T09:27:41Z</time>
      </trkpt>
      <trkpt lat="44.86492" lon="5.18869">
        <ele>786.8</ele>
        <time>2024-07-01T09:27:42Z</time>
      </trkpt>
      <trkpt lat="44.86492" lon="5.18868">
        <ele>786.8</ele>
        <time>2024-07-01T09:27:43Z</time>
      </trkpt>
      <trkpt lat="44.86492" lon="5.18867">
        <ele>786.8</ele>
        <time>2024-07-01T09:27:44Z</time>
      </trkpt>
      <trkpt lat="44.86493" lon="5.18866">
        <ele>786.8</ele>
        <time>2024-07-01T09:27:45Z</time>
      </trkpt>
      <trkpt lat="44.86493" lon="5.18866">
        <ele>786.8</ele>
        <time>2024-07-01T09:27:46Z</time>
      </trkpt>
      <trkpt lat="44.86494" lon="5.18865">
        <ele>786.9</ele>
        <time>2024-07-01T09:27:47Z</time>
      </trkpt>
      <trkpt lat="44.86495" lon="5.18865">
        <ele>786.9</ele>
        <time>2024-07-01T09:27:49Z</time>
      </trkpt>
      <trkpt lat="44.86496" lon="5.18864">
        <ele>786.9</ele>
        <time>2024-07-01T09:27:50Z</time>
      </trkpt>
      <trkpt lat="44.86497" lon="5.18863">
        <ele>786.9</ele>
        <time>2024-07-01T09:27:51Z</time>
      </trkpt>
      <trkpt lat="44.86499" lon="5.18863">
        <ele>786.9</ele>
        <time>2024-07-01T09:27:52Z</time>
      </trkpt>
      <trkpt lat="44.86499" lon="5.18863">
        <ele>786.9</ele>
        <time>2024-07-01T09:27:53Z</time>
      </trkpt>
      <trkpt lat="44.865" lon="5.18862">
        <ele>786.9</ele>
        <time>2024-07-01T09:27:55Z</time>
      </trkpt>
      <trkpt lat="44.865" lon="5.18862">
        <ele>786.9</ele>
        <time>2024-07-01T09:27:56Z</time>
      </trkpt>
      <trkpt lat="44.865" lon="5.18862">
        <ele>786.9</ele>
        <time>2024-07-01T09:27:57Z</time>
      </trkpt>
      <trkpt lat="44.86499" lon="5.18862">
        <ele>786.9</ele>
        <time>2024-07-01T09:27:58Z</time>
      </trkpt>
      <trkpt lat="44.86499" lon="5.18863">
        <ele>786.9</ele>
        <time>2024-07-01T09:27:59Z</time>
      </trkpt>
      <trkpt lat="44.86499" lon="5.18863">
        <ele>786.9</ele>
        <time>2024-07-01T09:28:00Z</time>
      </trkpt>
      <trkpt lat="44.86499" lon="5.18863">
        <ele>786.9</ele>
        <time>2024-07-01T09:28:01Z</time>
      </trkpt>
      <trkpt lat="44.86499" lon="5.18863">
        <ele>786.9</ele>
        <time>2024-07-01T09:28:02Z</time>
      </trkpt>
      <trkpt lat="44.86499" lon="5.18863">
        <ele>786.9</ele>
        <time>2024-07-01T09:28:03Z</time>
      </trkpt>
      <trkpt lat="44.86499" lon="5.18863">
        <ele>786.9</ele>
        <time>2024-07-01T09:28:04Z</time>
      </trkpt>
      <trkpt lat="44.86499" lon="5.18863">
        <ele>786.9</ele>
        <time>2024-07-01T09:28:05Z</time>
      </trkpt>
      <trkpt lat="44.86499" lon="5.18863">
        <ele>786.9</ele>
        <time>2024-07-01T09:28:06Z</time>
      </trkpt>
      <trkpt lat="44.86497" lon="5.18864">
        <ele>787</ele>
        <time>2024-07-01T09:28:07Z</time>
      </trkpt>
      <trkpt lat="44.86496" lon="5.18865">
        <ele>787</ele>
        <time>2024-07-01T09:28:08Z</time>
      </trkpt>
      <trkpt lat="44.86495" lon="5.18865">
        <ele>787</ele>
        <time>2024-07-01T09:28:09Z</time>
      </trkpt>
      <trkpt lat="44.86495" lon="5.18865">
        <ele>787</ele>
        <time>2024-07-01T09:28:10Z</time>
      </trkpt>
      <trkpt lat="44.86495" lon="5.18865">
        <ele>787</ele>
        <time>2024-07-01T09:28:11Z</time>
      </trkpt>
      <trkpt lat="44.86495" lon="5.18865">
        <ele>787</ele>
        <time>2024-07-01T09:28:12Z</time>
      </trkpt>
      <trkpt lat="44.86495" lon="5.18866">
        <ele>787</ele>
        <time>2024-07-01T09:28:13Z</time>
      </trkpt>
      <trkpt lat="44.86495" lon="5.18866">
        <ele>787</ele>
        <time>2024-07-01T09:28:14Z</time>
      </trkpt>
      <trkpt lat="44.86494" lon="5.18866">
        <ele>787</ele>
        <time>2024-07-01T09:28:15Z</time>
      </trkpt>
      <trkpt lat="44.86495" lon="5.18866">
        <ele>787</ele>
        <time>2024-07-01T09:28:16Z</time>
      </trkpt>
      <trkpt lat="44.86495" lon="5.18866">
        <ele>787</ele>
        <time>2024-07-01T09:28:17Z</time>
      </trkpt>
      <trkpt lat="44.86495" lon="5.18866">
        <ele>787</ele>
        <time>2024-07-01T09:28:18Z</time>
      </trkpt>
      <trkpt lat="44.86496" lon="5.18867">
        <ele>787</ele>
        <time>2024-07-01T09:28:19Z</time>
      </trkpt>
      <trkpt lat="44.86497" lon="5.18867">
        <ele>787</ele>
        <time>2024-07-01T09:28:20Z</time>
      </trkpt>
      <trkpt lat="44.86495" lon="5.18869">
        <ele>787</ele>
        <time>2024-07-01T09:28:22Z</time>
      </trkpt>
      <trkpt lat="44.86496" lon="5.1887">
        <ele>787.1</ele>
        <time>2024-07-01T09:28:23Z</time>
      </trkpt>
      <trkpt lat="44.86498" lon="5.18868">
        <ele>787.1</ele>
        <time>2024-07-01T09:28:25Z</time>
      </trkpt>
      <trkpt lat="44.865" lon="5.18867">
        <ele>787.1</ele>
        <time>2024-07-01T09:28:26Z</time>
      </trkpt>
      <trkpt lat="44.86501" lon="5.18866">
        <ele>787.1</ele>
        <time>2024-07-01T09:28:27Z</time>
      </trkpt>
      <trkpt lat="44.86502" lon="5.18865">
        <ele>787.1</ele>
        <time>2024-07-01T09:28:28Z</time>
      </trkpt>
      <trkpt lat="44.86505" lon="5.18865">
        <ele>787.1</ele>
        <time>2024-07-01T09:28:29Z</time>
      </trkpt>
      <trkpt lat="44.86505" lon="5.18864">
        <ele>787.1</ele>
        <time>2024-07-01T09:28:31Z</time>
      </trkpt>
      <trkpt lat="44.86506" lon="5.18863">
        <ele>787.1</ele>
        <time>2024-07-01T09:28:32Z</time>
      </trkpt>
      <trkpt lat="44.86507" lon="5.18863">
        <ele>787.1</ele>
        <time>2024-07-01T09:28:33Z</time>
      </trkpt>
      <trkpt lat="44.86508" lon="5.18863">
        <ele>787.2</ele>
        <time>2024-07-01T09:28:34Z</time>
      </trkpt>
      <trkpt lat="44.86509" lon="5.18863">
        <ele>787.2</ele>
        <time>2024-07-01T09:28:35Z</time>
      </trkpt>
      <trkpt lat="44.86511" lon="5.18863">
        <ele>787.2</ele>
        <time>2024-07-01T09:28:36Z</time>
      </trkpt>
      <trkpt lat="44.86512" lon="5.18863">
        <ele>787.2</ele>
        <time>2024-07-01T09:28:37Z</time>
      </trkpt>
      <trkpt lat="44.86513" lon="5.18862">
        <ele>787.2</ele>
        <time>2024-07-01T09:28:38Z</time>
      </trkpt>
      <trkpt lat="44.86516" lon="5.18861">
        <ele>787.2</ele>
        <time>2024-07-01T09:28:39Z</time>
      </trkpt>
      <trkpt lat="44.86517" lon="5.18861">
        <ele>787.2</ele>
        <time>2024-07-01T09:28:40Z</time>
      </trkpt>
      <trkpt lat="44.86518" lon="5.18861">
        <ele>787.2</ele>
        <time>2024-07-01T09:28:41Z</time>
      </trkpt>
      <trkpt lat="44.86518" lon="5.18861">
        <ele>787.2</ele>
        <time>2024-07-01T09:28:43Z</time>
      </trkpt>
      <trkpt lat="44.86519" lon="5.18861">
        <ele>787.3</ele>
        <time>2024-07-01T09:28:44Z</time>
      </trkpt>
      <trkpt lat="44.8652" lon="5.1886">
        <ele>787.3</ele>
        <time>2024-07-01T09:28:45Z</time>
      </trkpt>
      <trkpt lat="44.86521" lon="5.18858">
        <ele>787.3</ele>
        <time>2024-07-01T09:28:46Z</time>
      </trkpt>
      <trkpt lat="44.86522" lon="5.18857">
        <ele>787.3</ele>
        <time>2024-07-01T09:28:47Z</time>
      </trkpt>
      <trkpt lat="44.86523" lon="5.18855">
        <ele>787.3</ele>
        <time>2024-07-01T09:28:48Z</time>
      </trkpt>
      <trkpt lat="44.86524" lon="5.18855">
        <ele>787.4</ele>
        <time>2024-07-01T09:28:50Z</time>
      </trkpt>
      <trkpt lat="44.86525" lon="5.18855">
        <ele>787.4</ele>
        <time>2024-07-01T09:28:52Z</time>
      </trkpt>
      <trkpt lat="44.86526" lon="5.18855">
        <ele>787.4</ele>
        <time>2024-07-01T09:28:53Z</time>
      </trkpt>
      <trkpt lat="44.86526" lon="5.18856">
        <ele>787.4</ele>
        <time>2024-07-01T09:28:54Z</time>
      </trkpt>
      <trkpt lat="44.86528" lon="5.18858">
        <ele>787.4</ele>
        <time>2024-07-01T09:28:55Z</time>
      </trkpt>
      <trkpt lat="44.86529" lon="5.18859">
        <ele>787.5</ele>
        <time>2024-07-01T09:28:57Z</time>
      </trkpt>
      <trkpt lat="44.8653" lon="5.1886">
        <ele>787.5</ele>
        <time>2024-07-01T09:28:58Z</time>
      </trkpt>
      <trkpt lat="44.86531" lon="5.18862">
        <ele>787.5</ele>
        <time>2024-07-01T09:28:59Z</time>
      </trkpt>
      <trkpt lat="44.86531" lon="5.18864">
        <ele>787.6</ele>
        <time>2024-07-01T09:29:00Z</time>
      </trkpt>
      <trkpt lat="44.86532" lon="5.18865">
        <ele>787.6</ele>
        <time>2024-07-01T09:29:01Z</time>
      </trkpt>
      <trkpt lat="44.86533" lon="5.18868">
        <ele>787.7</ele>
        <time>2024-07-01T09:29:02Z</time>
      </trkpt>
      <trkpt lat="44.86533" lon="5.18868">
        <ele>787.7</ele>
        <time>2024-07-01T09:29:03Z</time>
      </trkpt>
      <trkpt lat="44.86534" lon="5.18869">
        <ele>787.7</ele>
        <time>2024-07-01T09:29:05Z</time>
      </trkpt>
      <trkpt lat="44.86534" lon="5.1887">
        <ele>787.7</ele>
        <time>2024-07-01T09:29:06Z</time>
      </trkpt>
      <trkpt lat="44.86535" lon="5.18871">
        <ele>787.7</ele>
        <time>2024-07-01T09:29:07Z</time>
      </trkpt>
      <trkpt lat="44.86536" lon="5.1887">
        <ele>787.8</ele>
        <time>2024-07-01T09:29:08Z</time>
      </trkpt>
      <trkpt lat="44.86536" lon="5.1887">
        <ele>787.8</ele>
        <time>2024-07-01T09:29:09Z</time>
      </trkpt>
      <trkpt lat="44.86536" lon="5.1887">
        <ele>787.8</ele>
        <time>2024-07-01T09:29:10Z</time>
      </trkpt>
      <trkpt lat="44.86536" lon="5.1887">
        <ele>787.8</ele>
        <time>2024-07-01T09:29:11Z</time>
      </trkpt>
      <trkpt lat="44.86536" lon="5.1887">
        <ele>787.8</ele>
        <time>2024-07-01T09:29:12Z</time>
      </trkpt>
      <trkpt lat="44.86536" lon="5.1887">
        <ele>787.8</ele>
        <time>2024-07-01T09:29:13Z</time>
      </trkpt>
      <trkpt lat="44.86536" lon="5.1887">
        <ele>787.8</ele>
        <time>2024-07-01T09:29:14Z</time>
      </trkpt>
      <trkpt lat="44.86537" lon="5.1887">
        <ele>787.8</ele>
        <time>2024-07-01T09:29:15Z</time>
      </trkpt>
      <trkpt lat="44.86537" lon="5.1887">
        <ele>787.8</ele>
        <time>2024-07-01T09:29:16Z</time>
      </trkpt>
      <trkpt lat="44.86537" lon="5.1887">
        <ele>787.8</ele>
        <time>2024-07-01T09:29:17Z</time>
      </trkpt>
      <trkpt lat="44.86537" lon="5.1887">
        <ele>787.8</ele>
        <time>2024-07-01T09:29:18Z</time>
      </trkpt>
      <trkpt lat="44.86537" lon="5.1887">
        <ele>787.8</ele>
        <time>2024-07-01T09:29:19Z</time>
      </trkpt>
      <trkpt lat="44.86537" lon="5.1887">
        <ele>787.8</ele>
        <time>2024-07-01T09:29:20Z</time>
      </trkpt>
      <trkpt lat="44.86537" lon="5.1887">
        <ele>787.8</ele>
        <time>2024-07-01T09:29:21Z</time>
      </trkpt>
      <trkpt lat="44.86538" lon="5.1887">
        <ele>787.8</ele>
        <time>2024-07-01T09:29:22Z</time>
      </trkpt>
      <trkpt lat="44.86538" lon="5.1887">
        <ele>787.8</ele>
        <time>2024-07-01T09:29:23Z</time>
      </trkpt>
      <trkpt lat="44.86538" lon="5.18869">
        <ele>787.8</ele>
        <time>2024-07-01T09:29:24Z</time>
      </trkpt>
      <trkpt lat="44.86538" lon="5.18869">
        <ele>787.8</ele>
        <time>2024-07-01T09:29:25Z</time>
      </trkpt>
      <trkpt lat="44.86538" lon="5.18869">
        <ele>787.8</ele>
        <time>2024-07-01T09:29:26Z</time>
      </trkpt>
      <trkpt lat="44.86538" lon="5.18869">
        <ele>787.8</ele>
        <time>2024-07-01T09:29:27Z</time>
      </trkpt>
      <trkpt lat="44.86538" lon="5.18869">
        <ele>787.8</ele>
        <time>2024-07-01T09:29:28Z</time>
      </trkpt>
      <trkpt lat="44.86539" lon="5.18869">
        <ele>787.8</ele>
        <time>2024-07-01T09:29:29Z</time>
      </trkpt>
      <trkpt lat="44.86539" lon="5.18869">
        <ele>787.9</ele>
        <time>2024-07-01T09:29:30Z</time>
      </trkpt>
      <trkpt lat="44.8654" lon="5.18869">
        <ele>787.9</ele>
        <time>2024-07-01T09:29:31Z</time>
      </trkpt>
      <trkpt lat="44.8654" lon="5.18869">
        <ele>787.9</ele>
        <time>2024-07-01T09:29:32Z</time>
      </trkpt>
      <trkpt lat="44.8654" lon="5.18869">
        <ele>787.9</ele>
        <time>2024-07-01T09:29:33Z</time>
      </trkpt>
      <trkpt lat="44.8654" lon="5.18869">
        <ele>787.9</ele>
        <time>2024-07-01T09:29:34Z</time>
      </trkpt>
      <trkpt lat="44.8654" lon="5.18869">
        <ele>787.9</ele>
        <time>2024-07-01T09:29:35Z</time>
      </trkpt>
      <trkpt lat="44.8654" lon="5.18869">
        <ele>787.9</ele>
        <time>2024-07-01T09:29:36Z</time>
      </trkpt>
      <trkpt lat="44.8654" lon="5.18869">
        <ele>787.9</ele>
        <time>2024-07-01T09:29:37Z</time>
      </trkpt>
      <trkpt lat="44.8654" lon="5.18869">
        <ele>787.9</ele>
        <time>2024-07-01T09:29:38Z</time>
      </trkpt>
      <trkpt lat="44.8654" lon="5.18869">
        <ele>787.9</ele>
        <time>2024-07-01T09:29:39Z</time>
      </trkpt>
      <trkpt lat="44.8654" lon="5.18869">
        <ele>787.9</ele>
        <time>2024-07-01T09:29:40Z</time>
      </trkpt>
      <trkpt lat="44.8654" lon="5.18869">
        <ele>787.9</ele>
        <time>2024-07-01T09:29:41Z</time>
      </trkpt>
      <trkpt lat="44.8654" lon="5.18869">
        <ele>787.9</ele>
        <time>2024-07-01T09:29:42Z</time>
      </trkpt>
      <trkpt lat="44.8654" lon="5.18869">
        <ele>787.9</ele>
        <time>2024-07-01T09:29:43Z</time>
      </trkpt>
      <trkpt lat="44.8654" lon="5.18869">
        <ele>787.9</ele>
        <time>2024-07-01T09:29:44Z</time>
      </trkpt>
      <trkpt lat="44.8654" lon="5.18869">
        <ele>787.9</ele>
        <time>2024-07-01T09:29:45Z</time>
      </trkpt>
      <trkpt lat="44.86541" lon="5.18868">
        <ele>787.9</ele>
        <time>2024-07-01T09:29:46Z</time>
      </trkpt>
      <trkpt lat="44.86541" lon="5.18868">
        <ele>787.9</ele>
        <time>2024-07-01T09:29:47Z</time>
      </trkpt>
      <trkpt lat="44.86541" lon="5.18868">
        <ele>787.9</ele>
        <time>2024-07-01T09:29:48Z</time>
      </trkpt>
      <trkpt lat="44.86541" lon="5.18868">
        <ele>787.9</ele>
        <time>2024-07-01T09:29:49Z</time>
      </trkpt>
      <trkpt lat="44.86541" lon="5.18868">
        <ele>787.9</ele>
        <time>2024-07-01T09:29:50Z</time>
      </trkpt>
      <trkpt lat="44.86541" lon="5.18868">
        <ele>787.9</ele>
        <time>2024-07-01T09:29:51Z</time>
      </trkpt>
      <trkpt lat="44.86541" lon="5.18868">
        <ele>787.9</ele>
        <time>2024-07-01T09:29:52Z</time>
      </trkpt>
      <trkpt lat="44.86541" lon="5.18868">
        <ele>787.9</ele>
        <time>2024-07-01T09:29:53Z</time>
      </trkpt>
      <trkpt lat="44.86541" lon="5.18868">
        <ele>787.9</ele>
        <time>2024-07-01T09:29:54Z</time>
      </trkpt>
      <trkpt lat="44.86541" lon="5.18867">
        <ele>787.9</ele>
        <time>2024-07-01T09:29:55Z</time>
      </trkpt>
      <trkpt lat="44.86541" lon="5.18867">
        <ele>788</ele>
        <time>2024-07-01T09:29:56Z</time>
      </trkpt>
      <trkpt lat="44.86541" lon="5.18868">
        <ele>788</ele>
        <time>2024-07-01T09:29:57Z</time>
      </trkpt>
      <trkpt lat="44.86541" lon="5.18868">
        <ele>788</ele>
        <time>2024-07-01T09:29:58Z</time>
      </trkpt>
      <trkpt lat="44.86541" lon="5.18868">
        <ele>788</ele>
        <time>2024-07-01T09:29:59Z</time>
      </trkpt>
      <trkpt lat="44.86541" lon="5.18867">
        <ele>788</ele>
        <time>2024-07-01T09:30:00Z</time>
      </trkpt>
      <trkpt lat="44.86541" lon="5.18867">
        <ele>788</ele>
        <time>2024-07-01T09:30:01Z</time>
      </trkpt>
      <trkpt lat="44.86541" lon="5.18868">
        <ele>788</ele>
        <time>2024-07-01T09:30:03Z</time>
      </trkpt>
      <trkpt lat="44.86542" lon="5.18867">
        <ele>788</ele>
        <time>2024-07-01T09:30:04Z</time>
      </trkpt>
      <trkpt lat="44.86542" lon="5.18868">
        <ele>788</ele>
        <time>2024-07-01T09:30:05Z</time>
      </trkpt>
      <trkpt lat="44.86542" lon="5.18868">
        <ele>788</ele>
        <time>2024-07-01T09:30:06Z</time>
      </trkpt>
      <trkpt lat="44.86542" lon="5.18868">
        <ele>788</ele>
        <time>2024-07-01T09:30:07Z</time>
      </trkpt>
      <trkpt lat="44.86542" lon="5.18867">
        <ele>788</ele>
        <time>2024-07-01T09:30:08Z</time>
      </trkpt>
      <trkpt lat="44.86542" lon="5.18867">
        <ele>788</ele>
        <time>2024-07-01T09:30:09Z</time>
      </trkpt>
      <trkpt lat="44.86541" lon="5.18867">
        <ele>788</ele>
        <time>2024-07-01T09:30:11Z</time>
      </trkpt>
      <trkpt lat="44.86541" lon="5.18867">
        <ele>788</ele>
        <time>2024-07-01T09:30:12Z</time>
      </trkpt>
      <trkpt lat="44.86541" lon="5.18867">
        <ele>788</ele>
        <time>2024-07-01T09:30:13Z</time>
      </trkpt>
      <trkpt lat="44.86541" lon="5.18867">
        <ele>788</ele>
        <time>2024-07-01T09:30:14Z</time>
      </trkpt>
      <trkpt lat="44.86541" lon="5.18867">
        <ele>788</ele>
        <time>2024-07-01T09:30:15Z</time>
      </trkpt>
      <trkpt lat="44.86541" lon="5.18867">
        <ele>788</ele>
        <time>2024-07-01T09:30:16Z</time>
      </trkpt>
      <trkpt lat="44.86541" lon="5.18866">
        <ele>788</ele>
        <time>2024-07-01T09:30:17Z</time>
      </trkpt>
      <trkpt lat="44.86541" lon="5.18866">
        <ele>788</ele>
        <time>2024-07-01T09:30:18Z</time>
      </trkpt>
      <trkpt lat="44.86541" lon="5.18866">
        <ele>788.1</ele>
        <time>2024-07-01T09:30:19Z</time>
      </trkpt>
      <trkpt lat="44.86541" lon="5.18866">
        <ele>788.1</ele>
        <time>2024-07-01T09:30:20Z</time>
      </trkpt>
      <trkpt lat="44.86542" lon="5.18866">
        <ele>788.1</ele>
        <time>2024-07-01T09:30:22Z</time>
      </trkpt>
      <trkpt lat="44.86542" lon="5.18865">
        <ele>788.1</ele>
        <time>2024-07-01T09:30:23Z</time>
      </trkpt>
      <trkpt lat="44.86543" lon="5.18865">
        <ele>788.1</ele>
        <time>2024-07-01T09:30:24Z</time>
      </trkpt>
      <trkpt lat="44.86543" lon="5.18865">
        <ele>788.1</ele>
        <time>2024-07-01T09:30:25Z</time>
      </trkpt>
      <trkpt lat="44.86544" lon="5.18865">
        <ele>788.2</ele>
        <time>2024-07-01T09:30:26Z</time>
      </trkpt>
      <trkpt lat="44.86546" lon="5.18864">
        <ele>788.2</ele>
        <time>2024-07-01T09:30:27Z</time>
      </trkpt>
      <trkpt lat="44.86546" lon="5.18864">
        <ele>788.2</ele>
        <time>2024-07-01T09:30:29Z</time>
      </trkpt>
      <trkpt lat="44.86547" lon="5.18864">
        <ele>788.2</ele>
        <time>2024-07-01T09:30:30Z</time>
      </trkpt>
      <trkpt lat="44.86545" lon="5.18866">
        <ele>788.3</ele>
        <time>2024-07-01T09:30:31Z</time>
      </trkpt>
      <trkpt lat="44.86544" lon="5.18868">
        <ele>788.4</ele>
        <time>2024-07-01T09:30:32Z</time>
      </trkpt>
      <trkpt lat="44.86543" lon="5.1887">
        <ele>788.5</ele>
        <time>2024-07-01T09:30:33Z</time>
      </trkpt>
      <trkpt lat="44.86542" lon="5.18871">
        <ele>788.5</ele>
        <time>2024-07-01T09:30:34Z</time>
      </trkpt>
      <trkpt lat="44.86542" lon="5.18872">
        <ele>788.5</ele>
        <time>2024-07-01T09:30:35Z</time>
      </trkpt>
      <trkpt lat="44.86542" lon="5.18874">
        <ele>788.6</ele>
        <time>2024-07-01T09:30:36Z</time>
      </trkpt>
      <trkpt lat="44.86543" lon="5.18874">
        <ele>788.6</ele>
        <time>2024-07-01T09:30:37Z</time>
      </trkpt>
      <trkpt lat="44.86543" lon="5.18875">
        <ele>788.7</ele>
        <time>2024-07-01T09:30:38Z</time>
      </trkpt>
      <trkpt lat="44.86544" lon="5.18876">
        <ele>788.7</ele>
        <time>2024-07-01T09:30:39Z</time>
      </trkpt>
      <trkpt lat="44.86544" lon="5.18877">
        <ele>788.7</ele>
        <time>2024-07-01T09:30:40Z</time>
      </trkpt>
      <trkpt lat="44.86544" lon="5.18877">
        <ele>788.7</ele>
        <time>2024-07-01T09:30:41Z</time>
      </trkpt>
      <trkpt lat="44.86544" lon="5.18878">
        <ele>788.7</ele>
        <time>2024-07-01T09:30:42Z</time>
      </trkpt>
      <trkpt lat="44.86544" lon="5.18878">
        <ele>788.8</ele>
        <time>2024-07-01T09:30:43Z</time>
      </trkpt>
      <trkpt lat="44.86545" lon="5.18879">
        <ele>788.8</ele>
        <time>2024-07-01T09:30:44Z</time>
      </trkpt>
      <trkpt lat="44.86545" lon="5.1888">
        <ele>788.8</ele>
        <time>2024-07-01T09:30:46Z</time>
      </trkpt>
      <trkpt lat="44.86545" lon="5.1888">
        <ele>788.8</ele>
        <time>2024-07-01T09:30:47Z</time>
      </trkpt>
      <trkpt lat="44.86545" lon="5.18881">
        <ele>788.9</ele>
        <time>2024-07-01T09:30:48Z</time>
      </trkpt>
      <trkpt lat="44.86545" lon="5.18882">
        <ele>788.9</ele>
        <time>2024-07-01T09:30:50Z</time>
      </trkpt>
      <trkpt lat="44.86546" lon="5.18882">
        <ele>788.9</ele>
        <time>2024-07-01T09:30:51Z</time>
      </trkpt>
      <trkpt lat="44.86546" lon="5.18883">
        <ele>788.9</ele>
        <time>2024-07-01T09:30:52Z</time>
      </trkpt>
      <trkpt lat="44.86546" lon="5.18883">
        <ele>788.9</ele>
        <time>2024-07-01T09:30:53Z</time>
      </trkpt>
      <trkpt lat="44.86547" lon="5.18883">
        <ele>789</ele>
        <time>2024-07-01T09:30:54Z</time>
      </trkpt>
      <trkpt lat="44.86547" lon="5.18883">
        <ele>789</ele>
        <time>2024-07-01T09:30:55Z</time>
      </trkpt>
      <trkpt lat="44.86547" lon="5.18884">
        <ele>789</ele>
        <time>2024-07-01T09:30:56Z</time>
      </trkpt>
      <trkpt lat="44.86548" lon="5.18884">
        <ele>789</ele>
        <time>2024-07-01T09:30:57Z</time>
      </trkpt>
      <trkpt lat="44.86548" lon="5.18884">
        <ele>789</ele>
        <time>2024-07-01T09:30:58Z</time>
      </trkpt>
      <trkpt lat="44.86549" lon="5.18885">
        <ele>789.1</ele>
        <time>2024-07-01T09:30:59Z</time>
      </trkpt>
      <trkpt lat="44.86549" lon="5.18885">
        <ele>789.1</ele>
        <time>2024-07-01T09:31:00Z</time>
      </trkpt>
      <trkpt lat="44.86549" lon="5.18885">
        <ele>789.1</ele>
        <time>2024-07-01T09:31:01Z</time>
      </trkpt>
      <trkpt lat="44.8655" lon="5.18886">
        <ele>789.1</ele>
        <time>2024-07-01T09:31:02Z</time>
      </trkpt>
      <trkpt lat="44.8655" lon="5.18886">
        <ele>789.1</ele>
        <time>2024-07-01T09:31:03Z</time>
      </trkpt>
      <trkpt lat="44.8655" lon="5.18886">
        <ele>789.2</ele>
        <time>2024-07-01T09:31:04Z</time>
      </trkpt>
      <trkpt lat="44.8655" lon="5.18886">
        <ele>789.2</ele>
        <time>2024-07-01T09:31:05Z</time>
      </trkpt>
      <trkpt lat="44.8655" lon="5.18886">
        <ele>789.2</ele>
        <time>2024-07-01T09:31:06Z</time>
      </trkpt>
      <trkpt lat="44.8655" lon="5.18887">
        <ele>789.2</ele>
        <time>2024-07-01T09:31:07Z</time>
      </trkpt>
      <trkpt lat="44.86551" lon="5.18887">
        <ele>789.2</ele>
        <time>2024-07-01T09:31:09Z</time>
      </trkpt>
      <trkpt lat="44.86552" lon="5.18886">
        <ele>789.3</ele>
        <time>2024-07-01T09:31:10Z</time>
      </trkpt>
      <trkpt lat="44.86553" lon="5.18886">
        <ele>789.3</ele>
        <time>2024-07-01T09:31:11Z</time>
      </trkpt>
      <trkpt lat="44.86553" lon="5.18886">
        <ele>789.3</ele>
        <time>2024-07-01T09:31:13Z</time>
      </trkpt>
      <trkpt lat="44.86553" lon="5.18887">
        <ele>789.3</ele>
        <time>2024-07-01T09:31:14Z</time>
      </trkpt>
      <trkpt lat="44.86553" lon="5.18887">
        <ele>789.3</ele>
        <time>2024-07-01T09:31:15Z</time>
      </trkpt>
      <trkpt lat="44.86553" lon="5.18887">
        <ele>789.4</ele>
        <time>2024-07-01T09:31:16Z</time>
      </trkpt>
      <trkpt lat="44.86553" lon="5.18887">
        <ele>789.4</ele>
        <time>2024-07-01T09:31:17Z</time>
      </trkpt>
      <trkpt lat="44.86553" lon="5.18888">
        <ele>789.4</ele>
        <time>2024-07-01T09:31:18Z</time>
      </trkpt>
      <trkpt lat="44.86554" lon="5.18888">
        <ele>789.4</ele>
        <time>2024-07-01T09:31:19Z</time>
      </trkpt>
      <trkpt lat="44.86553" lon="5.18889">
        <ele>789.4</ele>
        <time>2024-07-01T09:31:21Z</time>
      </trkpt>
      <trkpt lat="44.86553" lon="5.18889">
        <ele>789.4</ele>
        <time>2024-07-01T09:31:22Z</time>
      </trkpt>
      <trkpt lat="44.86553" lon="5.18889">
        <ele>789.4</ele>
        <time>2024-07-01T09:31:23Z</time>
      </trkpt>
      <trkpt lat="44.86553" lon="5.18889">
        <ele>789.5</ele>
        <time>2024-07-01T09:31:24Z</time>
      </trkpt>
      <trkpt lat="44.86553" lon="5.18889">
        <ele>789.5</ele>
        <time>2024-07-01T09:31:25Z</time>
      </trkpt>
      <trkpt lat="44.86553" lon="5.1889">
        <ele>789.5</ele>
        <time>2024-07-01T09:31:27Z</time>
      </trkpt>
      <trkpt lat="44.86552" lon="5.1889">
        <ele>789.5</ele>
        <time>2024-07-01T09:31:28Z</time>
      </trkpt>
      <trkpt lat="44.86552" lon="5.1889">
        <ele>789.5</ele>
        <time>2024-07-01T09:31:30Z</time>
      </trkpt>
      <trkpt lat="44.86552" lon="5.1889">
        <ele>789.5</ele>
        <time>2024-07-01T09:31:31Z</time>
      </trkpt>
      <trkpt lat="44.86552" lon="5.1889">
        <ele>789.5</ele>
        <time>2024-07-01T09:31:32Z</time>
      </trkpt>
      <trkpt lat="44.86552" lon="5.1889">
        <ele>789.5</ele>
        <time>2024-07-01T09:31:33Z</time>
      </trkpt>
      <trkpt lat="44.86552" lon="5.18891">
        <ele>789.5</ele>
        <time>2024-07-01T09:31:34Z</time>
      </trkpt>
      <trkpt lat="44.86551" lon="5.18891">
        <ele>789.5</ele>
        <time>2024-07-01T09:31:35Z</time>
      </trkpt>
      <trkpt lat="44.86551" lon="5.18891">
        <ele>789.5</ele>
        <time>2024-07-01T09:31:36Z</time>
      </trkpt>
      <trkpt lat="44.86551" lon="5.18891">
        <ele>789.6</ele>
        <time>2024-07-01T09:31:37Z</time>
      </trkpt>
      <trkpt lat="44.86551" lon="5.18891">
        <ele>789.6</ele>
        <time>2024-07-01T09:31:38Z</time>
      </trkpt>
      <trkpt lat="44.86552" lon="5.18891">
        <ele>789.6</ele>
        <time>2024-07-01T09:31:39Z</time>
      </trkpt>
      <trkpt lat="44.86552" lon="5.18892">
        <ele>789.6</ele>
        <time>2024-07-01T09:31:41Z</time>
      </trkpt>
      <trkpt lat="44.86552" lon="5.18893">
        <ele>789.7</ele>
        <time>2024-07-01T09:31:42Z</time>
      </trkpt>
      <trkpt lat="44.86552" lon="5.18894">
        <ele>789.7</ele>
        <time>2024-07-01T09:31:43Z</time>
      </trkpt>
      <trkpt lat="44.86552" lon="5.18896">
        <ele>789.8</ele>
        <time>2024-07-01T09:31:44Z</time>
      </trkpt>
      <trkpt lat="44.86555" lon="5.18897">
        <ele>789.9</ele>
        <time>2024-07-01T09:31:46Z</time>
      </trkpt>
      <trkpt lat="44.86556" lon="5.18897">
        <ele>790</ele>
        <time>2024-07-01T09:31:47Z</time>
      </trkpt>
      <trkpt lat="44.86559" lon="5.18899">
        <ele>790.1</ele>
        <time>2024-07-01T09:31:48Z</time>
      </trkpt>
      <trkpt lat="44.8656" lon="5.18899">
        <ele>790.1</ele>
        <time>2024-07-01T09:31:49Z</time>
      </trkpt>
      <trkpt lat="44.86562" lon="5.18899">
        <ele>790.2</ele>
        <time>2024-07-01T09:31:50Z</time>
      </trkpt>
      <trkpt lat="44.86564" lon="5.18899">
        <ele>790.3</ele>
        <time>2024-07-01T09:31:51Z</time>
      </trkpt>
      <trkpt lat="44.86565" lon="5.18898">
        <ele>790.4</ele>
        <time>2024-07-01T09:31:52Z</time>
      </trkpt>
      <trkpt lat="44.86568" lon="5.18897">
        <ele>790.5</ele>
        <time>2024-07-01T09:31:53Z</time>
      </trkpt>
      <trkpt lat="44.86569" lon="5.18896">
        <ele>790.5</ele>
        <time>2024-07-01T09:31:54Z</time>
      </trkpt>
      <trkpt lat="44.8657" lon="5.18896">
        <ele>790.6</ele>
        <time>2024-07-01T09:31:55Z</time>
      </trkpt>
      <trkpt lat="44.86573" lon="5.18895">
        <ele>790.7</ele>
        <time>2024-07-01T09:31:56Z</time>
      </trkpt>
      <trkpt lat="44.86574" lon="5.18894">
        <ele>790.7</ele>
        <time>2024-07-01T09:31:58Z</time>
      </trkpt>
      <trkpt lat="44.86576" lon="5.18894">
        <ele>790.8</ele>
        <time>2024-07-01T09:31:59Z</time>
      </trkpt>
      <trkpt lat="44.86577" lon="5.18893">
        <ele>790.8</ele>
        <time>2024-07-01T09:32:00Z</time>
      </trkpt>
      <trkpt lat="44.86578" lon="5.18893">
        <ele>790.9</ele>
        <time>2024-07-01T09:32:01Z</time>
      </trkpt>
      <trkpt lat="44.8658" lon="5.18891">
        <ele>791</ele>
        <time>2024-07-01T09:32:03Z</time>
      </trkpt>
      <trkpt lat="44.86581" lon="5.1889">
        <ele>791</ele>
        <time>2024-07-01T09:32:04Z</time>
      </trkpt>
      <trkpt lat="44.86582" lon="5.1889">
        <ele>791</ele>
        <time>2024-07-01T09:32:05Z</time>
      </trkpt>
      <trkpt lat="44.86583" lon="5.18889">
        <ele>791.1</ele>
        <time>2024-07-01T09:32:06Z</time>
      </trkpt>
      <trkpt lat="44.86584" lon="5.18888">
        <ele>791.1</ele>
        <time>2024-07-01T09:32:07Z</time>
      </trkpt>
      <trkpt lat="44.86585" lon="5.18887">
        <ele>791.2</ele>
        <time>2024-07-01T09:32:08Z</time>
      </trkpt>
      <trkpt lat="44.86586" lon="5.18887">
        <ele>791.2</ele>
        <time>2024-07-01T09:32:09Z</time>
      </trkpt>
      <trkpt lat="44.86587" lon="5.18886">
        <ele>791.2</ele>
        <time>2024-07-01T09:32:10Z</time>
      </trkpt>
      <trkpt lat="44.86588" lon="5.18885">
        <ele>791.3</ele>
        <time>2024-07-01T09:32:11Z</time>
      </trkpt>
      <trkpt lat="44.86589" lon="5.18885">
        <ele>791.3</ele>
        <time>2024-07-01T09:32:13Z</time>
      </trkpt>
      <trkpt lat="44.8659" lon="5.18885">
        <ele>791.3</ele>
        <time>2024-07-01T09:32:14Z</time>
      </trkpt>
      <trkpt lat="44.86591" lon="5.18885">
        <ele>791.4</ele>
        <time>2024-07-01T09:32:15Z</time>
      </trkpt>
      <trkpt lat="44.86592" lon="5.18883">
        <ele>791.4</ele>
        <time>2024-07-01T09:32:16Z</time>
      </trkpt>
      <trkpt lat="44.86593" lon="5.18883">
        <ele>791.4</ele>
        <time>2024-07-01T09:32:18Z</time>
      </trkpt>
      <trkpt lat="44.86594" lon="5.18882">
        <ele>791.5</ele>
        <time>2024-07-01T09:32:19Z</time>
      </trkpt>
      <trkpt lat="44.86595" lon="5.18882">
        <ele>791.5</ele>
        <time>2024-07-01T09:32:20Z</time>
      </trkpt>
      <trkpt lat="44.86595" lon="5.18882">
        <ele>791.5</ele>
        <time>2024-07-01T09:32:21Z</time>
      </trkpt>
      <trkpt lat="44.86596" lon="5.18884">
        <ele>791.6</ele>
        <time>2024-07-01T09:32:22Z</time>
      </trkpt>
      <trkpt lat="44.86597" lon="5.18886">
        <ele>791.6</ele>
        <time>2024-07-01T09:32:24Z</time>
      </trkpt>
      <trkpt lat="44.86598" lon="5.18887">
        <ele>791.7</ele>
        <time>2024-07-01T09:32:25Z</time>
      </trkpt>
      <trkpt lat="44.86598" lon="5.18888">
        <ele>791.7</ele>
        <time>2024-07-01T09:32:26Z</time>
      </trkpt>
      <trkpt lat="44.86598" lon="5.18889">
        <ele>791.7</ele>
        <time>2024-07-01T09:32:27Z</time>
      </trkpt>
      <trkpt lat="44.86598" lon="5.1889">
        <ele>791.7</ele>
        <time>2024-07-01T09:32:28Z</time>
      </trkpt>
      <trkpt lat="44.86599" lon="5.18891">
        <ele>791.8</ele>
        <time>2024-07-01T09:32:29Z</time>
      </trkpt>
      <trkpt lat="44.86599" lon="5.18891">
        <ele>791.8</ele>
        <time>2024-07-01T09:32:30Z</time>
      </trkpt>
      <trkpt lat="44.86599" lon="5.18892">
        <ele>791.8</ele>
        <time>2024-07-01T09:32:31Z</time>
      </trkpt>
      <trkpt lat="44.86599" lon="5.18892">
        <ele>791.8</ele>
        <time>2024-07-01T09:32:32Z</time>
      </trkpt>
      <trkpt lat="44.86599" lon="5.18892">
        <ele>791.8</ele>
        <time>2024-07-01T09:32:33Z</time>
      </trkpt>
      <trkpt lat="44.86599" lon="5.18892">
        <ele>791.8</ele>
        <time>2024-07-01T09:32:34Z</time>
      </trkpt>
      <trkpt lat="44.86599" lon="5.18892">
        <ele>791.8</ele>
        <time>2024-07-01T09:32:35Z</time>
      </trkpt>
      <trkpt lat="44.86599" lon="5.18892">
        <ele>791.8</ele>
        <time>2024-07-01T09:32:36Z</time>
      </trkpt>
      <trkpt lat="44.86599" lon="5.18893">
        <ele>791.8</ele>
        <time>2024-07-01T09:32:37Z</time>
      </trkpt>
      <trkpt lat="44.86599" lon="5.18893">
        <ele>791.8</ele>
        <time>2024-07-01T09:32:38Z</time>
      </trkpt>
      <trkpt lat="44.86599" lon="5.18893">
        <ele>791.8</ele>
        <time>2024-07-01T09:32:40Z</time>
      </trkpt>
      <trkpt lat="44.86599" lon="5.18893">
        <ele>791.9</ele>
        <time>2024-07-01T09:32:41Z</time>
      </trkpt>
      <trkpt lat="44.86599" lon="5.18893">
        <ele>791.9</ele>
        <time>2024-07-01T09:32:42Z</time>
      </trkpt>
      <trkpt lat="44.86599" lon="5.18893">
        <ele>791.9</ele>
        <time>2024-07-01T09:32:43Z</time>
      </trkpt>
      <trkpt lat="44.86599" lon="5.18893">
        <ele>791.9</ele>
        <time>2024-07-01T09:32:44Z</time>
      </trkpt>
      <trkpt lat="44.86598" lon="5.18894">
        <ele>791.9</ele>
        <time>2024-07-01T09:32:45Z</time>
      </trkpt>
      <trkpt lat="44.86598" lon="5.18893">
        <ele>791.9</ele>
        <time>2024-07-01T09:32:46Z</time>
      </trkpt>
      <trkpt lat="44.86598" lon="5.18893">
        <ele>791.9</ele>
        <time>2024-07-01T09:32:47Z</time>
      </trkpt>
      <trkpt lat="44.86598" lon="5.18893">
        <ele>791.9</ele>
        <time>2024-07-01T09:32:49Z</time>
      </trkpt>
      <trkpt lat="44.86598" lon="5.18893">
        <ele>791.9</ele>
        <time>2024-07-01T09:32:50Z</time>
      </trkpt>
      <trkpt lat="44.86598" lon="5.18892">
        <ele>791.9</ele>
        <time>2024-07-01T09:32:51Z</time>
      </trkpt>
      <trkpt lat="44.86599" lon="5.18891">
        <ele>792</ele>
        <time>2024-07-01T09:32:52Z</time>
      </trkpt>
      <trkpt lat="44.866" lon="5.18891">
        <ele>792</ele>
        <time>2024-07-01T09:32:54Z</time>
      </trkpt>
      <trkpt lat="44.86601" lon="5.18892">
        <ele>792</ele>
        <time>2024-07-01T09:32:55Z</time>
      </trkpt>
      <trkpt lat="44.86603" lon="5.18892">
        <ele>792.1</ele>
        <time>2024-07-01T09:32:56Z</time>
      </trkpt>
      <trkpt lat="44.86605" lon="5.18891">
        <ele>792.1</ele>
        <time>2024-07-01T09:32:57Z</time>
      </trkpt>
      <trkpt lat="44.86606" lon="5.1889">
        <ele>792.2</ele>
        <time>2024-07-01T09:32:58Z</time>
      </trkpt>
      <trkpt lat="44.86606" lon="5.1889">
        <ele>792.2</ele>
        <time>2024-07-01T09:33:00Z</time>
      </trkpt>
      <trkpt lat="44.86605" lon="5.18889">
        <ele>792.2</ele>
        <time>2024-07-01T09:33:01Z</time>
      </trkpt>
      <trkpt lat="44.86605" lon="5.18888">
        <ele>792.2</ele>
        <time>2024-07-01T09:33:02Z</time>
      </trkpt>
      <trkpt lat="44.86604" lon="5.18888">
        <ele>792.2</ele>
        <time>2024-07-01T09:33:03Z</time>
      </trkpt>
      <trkpt lat="44.86605" lon="5.18888">
        <ele>792.3</ele>
        <time>2024-07-01T09:33:04Z</time>
      </trkpt>
      <trkpt lat="44.86605" lon="5.18888">
        <ele>792.3</ele>
        <time>2024-07-01T09:33:05Z</time>
      </trkpt>
      <trkpt lat="44.86607" lon="5.18888">
        <ele>792.3</ele>
        <time>2024-07-01T09:33:06Z</time>
      </trkpt>
      <trkpt lat="44.8661" lon="5.18889">
        <ele>792.4</ele>
        <time>2024-07-01T09:33:07Z</time>
      </trkpt>
      <trkpt lat="44.86611" lon="5.18889">
        <ele>792.4</ele>
        <time>2024-07-01T09:33:08Z</time>
      </trkpt>
      <trkpt lat="44.86614" lon="5.18889">
        <ele>792.5</ele>
        <time>2024-07-01T09:33:09Z</time>
      </trkpt>
      <trkpt lat="44.86614" lon="5.18889">
        <ele>792.5</ele>
        <time>2024-07-01T09:33:10Z</time>
      </trkpt>
      <trkpt lat="44.86616" lon="5.18888">
        <ele>792.6</ele>
        <time>2024-07-01T09:33:11Z</time>
      </trkpt>
      <trkpt lat="44.86617" lon="5.18887">
        <ele>792.6</ele>
        <time>2024-07-01T09:33:12Z</time>
      </trkpt>
      <trkpt lat="44.86618" lon="5.18886">
        <ele>792.7</ele>
        <time>2024-07-01T09:33:13Z</time>
      </trkpt>
      <trkpt lat="44.86619" lon="5.18884">
        <ele>792.7</ele>
        <time>2024-07-01T09:33:14Z</time>
      </trkpt>
      <trkpt lat="44.8662" lon="5.18883">
        <ele>792.7</ele>
        <time>2024-07-01T09:33:16Z</time>
      </trkpt>
      <trkpt lat="44.86621" lon="5.18883">
        <ele>792.8</ele>
        <time>2024-07-01T09:33:17Z</time>
      </trkpt>
      <trkpt lat="44.86622" lon="5.18883">
        <ele>792.8</ele>
        <time>2024-07-01T09:33:18Z</time>
      </trkpt>
      <trkpt lat="44.86622" lon="5.18883">
        <ele>792.8</ele>
        <time>2024-07-01T09:33:19Z</time>
      </trkpt>
      <trkpt lat="44.86623" lon="5.18883">
        <ele>792.8</ele>
        <time>2024-07-01T09:33:20Z</time>
      </trkpt>
      <trkpt lat="44.86624" lon="5.18882">
        <ele>792.9</ele>
        <time>2024-07-01T09:33:21Z</time>
      </trkpt>
      <trkpt lat="44.86625" lon="5.18881">
        <ele>792.9</ele>
        <time>2024-07-01T09:33:22Z</time>
      </trkpt>
      <trkpt lat="44.86626" lon="5.1888">
        <ele>792.9</ele>
        <time>2024-07-01T09:33:23Z</time>
      </trkpt>
      <trkpt lat="44.86628" lon="5.1888">
        <ele>793</ele>
        <time>2024-07-01T09:33:24Z</time>
      </trkpt>
      <trkpt lat="44.86628" lon="5.1888">
        <ele>793</ele>
        <time>2024-07-01T09:33:26Z</time>
      </trkpt>
      <trkpt lat="44.86629" lon="5.1888">
        <ele>793</ele>
        <time>2024-07-01T09:33:27Z</time>
      </trkpt>
      <trkpt lat="44.86629" lon="5.1888">
        <ele>793.1</ele>
        <time>2024-07-01T09:33:28Z</time>
      </trkpt>
      <trkpt lat="44.8663" lon="5.18879">
        <ele>793.1</ele>
        <time>2024-07-01T09:33:30Z</time>
      </trkpt>
      <trkpt lat="44.86631" lon="5.18879">
        <ele>793.1</ele>
        <time>2024-07-01T09:33:31Z</time>
      </trkpt>
      <trkpt lat="44.86631" lon="5.18879">
        <ele>793.1</ele>
        <time>2024-07-01T09:33:32Z</time>
      </trkpt>
      <trkpt lat="44.86632" lon="5.18879">
        <ele>793.1</ele>
        <time>2024-07-01T09:33:33Z</time>
      </trkpt>
      <trkpt lat="44.86635" lon="5.1888">
        <ele>793.2</ele>
        <time>2024-07-01T09:33:34Z</time>
      </trkpt>
      <trkpt lat="44.86636" lon="5.1888">
        <ele>793.3</ele>
        <time>2024-07-01T09:33:35Z</time>
      </trkpt>
      <trkpt lat="44.86636" lon="5.1888">
        <ele>793.3</ele>
        <time>2024-07-01T09:33:36Z</time>
      </trkpt>
      <trkpt lat="44.86638" lon="5.18881">
        <ele>793.4</ele>
        <time>2024-07-01T09:33:38Z</time>
      </trkpt>
      <trkpt lat="44.86639" lon="5.18882">
        <ele>793.4</ele>
        <time>2024-07-01T09:33:39Z</time>
      </trkpt>
      <trkpt lat="44.86641" lon="5.18883">
        <ele>793.5</ele>
        <time>2024-07-01T09:33:40Z</time>
      </trkpt>
      <trkpt lat="44.86642" lon="5.18883">
        <ele>793.5</ele>
        <time>2024-07-01T09:33:41Z</time>
      </trkpt>
      <trkpt lat="44.86643" lon="5.18884">
        <ele>793.6</ele>
        <time>2024-07-01T09:33:42Z</time>
      </trkpt>
      <trkpt lat="44.86645" lon="5.18885">
        <ele>793.6</ele>
        <time>2024-07-01T09:33:43Z</time>
      </trkpt>
      <trkpt lat="44.86647" lon="5.18886">
        <ele>793.7</ele>
        <time>2024-07-01T09:33:44Z</time>
      </trkpt>
      <trkpt lat="44.86648" lon="5.18886">
        <ele>793.7</ele>
        <time>2024-07-01T09:33:45Z</time>
      </trkpt>
      <trkpt lat="44.86649" lon="5.18886">
        <ele>793.8</ele>
        <time>2024-07-01T09:33:46Z</time>
      </trkpt>
      <trkpt lat="44.86649" lon="5.18887">
        <ele>793.8</ele>
        <time>2024-07-01T09:33:47Z</time>
      </trkpt>
      <trkpt lat="44.8665" lon="5.18887">
        <ele>793.8</ele>
        <time>2024-07-01T09:33:48Z</time>
      </trkpt>
      <trkpt lat="44.86653" lon="5.18888">
        <ele>793.9</ele>
        <time>2024-07-01T09:33:49Z</time>
      </trkpt>
      <trkpt lat="44.86654" lon="5.1889">
        <ele>793.9</ele>
        <time>2024-07-01T09:33:51Z</time>
      </trkpt>
      <trkpt lat="44.86654" lon="5.1889">
        <ele>793.9</ele>
        <time>2024-07-01T09:33:53Z</time>
      </trkpt>
      <trkpt lat="44.86655" lon="5.1889">
        <ele>793.9</ele>
        <time>2024-07-01T09:33:54Z</time>
      </trkpt>
      <trkpt lat="44.86655" lon="5.18891">
        <ele>793.9</ele>
        <time>2024-07-01T09:33:55Z</time>
      </trkpt>
      <trkpt lat="44.86656" lon="5.18891">
        <ele>793.9</ele>
        <time>2024-07-01T09:33:56Z</time>
      </trkpt>
      <trkpt lat="44.86657" lon="5.18893">
        <ele>794</ele>
        <time>2024-07-01T09:33:57Z</time>
      </trkpt>
      <trkpt lat="44.86658" lon="5.18893">
        <ele>794</ele>
        <time>2024-07-01T09:33:59Z</time>
      </trkpt>
      <trkpt lat="44.86658" lon="5.18894">
        <ele>794</ele>
        <time>2024-07-01T09:34:00Z</time>
      </trkpt>
      <trkpt lat="44.86659" lon="5.18895">
        <ele>794</ele>
        <time>2024-07-01T09:34:01Z</time>
      </trkpt>
      <trkpt lat="44.86659" lon="5.18895">
        <ele>794</ele>
        <time>2024-07-01T09:34:02Z</time>
      </trkpt>
      <trkpt lat="44.8666" lon="5.18896">
        <ele>794</ele>
        <time>2024-07-01T09:34:03Z</time>
      </trkpt>
      <trkpt lat="44.86662" lon="5.18897">
        <ele>794</ele>
        <time>2024-07-01T09:34:04Z</time>
      </trkpt>
      <trkpt lat="44.86663" lon="5.18897">
        <ele>794</ele>
        <time>2024-07-01T09:34:06Z</time>
      </trkpt>
      <trkpt lat="44.86664" lon="5.18898">
        <ele>794</ele>
        <time>2024-07-01T09:34:07Z</time>
      </trkpt>
      <trkpt lat="44.86665" lon="5.18899">
        <ele>794</ele>
        <time>2024-07-01T09:34:09Z</time>
      </trkpt>
      <trkpt lat="44.86667" lon="5.18901">
        <ele>794</ele>
        <time>2024-07-01T09:34:10Z</time>
      </trkpt>
      <trkpt lat="44.86668" lon="5.18902">
        <ele>794</ele>
        <time>2024-07-01T09:34:12Z</time>
      </trkpt>
      <trkpt lat="44.86669" lon="5.18903">
        <ele>793.9</ele>
        <time>2024-07-01T09:34:13Z</time>
      </trkpt>
      <trkpt lat="44.8667" lon="5.18905">
        <ele>793.9</ele>
        <time>2024-07-01T09:34:15Z</time>
      </trkpt>
      <trkpt lat="44.86672" lon="5.18907">
        <ele>793.9</ele>
        <time>2024-07-01T09:34:17Z</time>
      </trkpt>
      <trkpt lat="44.86672" lon="5.18908">
        <ele>793.9</ele>
        <time>2024-07-01T09:34:19Z</time>
      </trkpt>
      <trkpt lat="44.86673" lon="5.18909">
        <ele>793.9</ele>
        <time>2024-07-01T09:34:20Z</time>
      </trkpt>
      <trkpt lat="44.86674" lon="5.18909">
        <ele>793.9</ele>
        <time>2024-07-01T09:34:21Z</time>
      </trkpt>
      <trkpt lat="44.86676" lon="5.1891">
        <ele>793.8</ele>
        <time>2024-07-01T09:34:22Z</time>
      </trkpt>
      <trkpt lat="44.86678" lon="5.18912">
        <ele>793.8</ele>
        <time>2024-07-01T09:34:24Z</time>
      </trkpt>
      <trkpt lat="44.86679" lon="5.18913">
        <ele>793.8</ele>
        <time>2024-07-01T09:34:26Z</time>
      </trkpt>
      <trkpt lat="44.86679" lon="5.18914">
        <ele>793.8</ele>
        <time>2024-07-01T09:34:27Z</time>
      </trkpt>
      <trkpt lat="44.8668" lon="5.18917">
        <ele>793.8</ele>
        <time>2024-07-01T09:34:28Z</time>
      </trkpt>
      <trkpt lat="44.86681" lon="5.18919">
        <ele>793.8</ele>
        <time>2024-07-01T09:34:30Z</time>
      </trkpt>
      <trkpt lat="44.86681" lon="5.1892">
        <ele>793.8</ele>
        <time>2024-07-01T09:34:31Z</time>
      </trkpt>
      <trkpt lat="44.86682" lon="5.18921">
        <ele>793.8</ele>
        <time>2024-07-01T09:34:32Z</time>
      </trkpt>
      <trkpt lat="44.86682" lon="5.18922">
        <ele>793.8</ele>
        <time>2024-07-01T09:34:33Z</time>
      </trkpt>
      <trkpt lat="44.86683" lon="5.18923">
        <ele>793.8</ele>
        <time>2024-07-01T09:34:34Z</time>
      </trkpt>
      <trkpt lat="44.86683" lon="5.18924">
        <ele>793.8</ele>
        <time>2024-07-01T09:34:35Z</time>
      </trkpt>
      <trkpt lat="44.86684" lon="5.18924">
        <ele>793.8</ele>
        <time>2024-07-01T09:34:36Z</time>
      </trkpt>
      <trkpt lat="44.86685" lon="5.18926">
        <ele>793.8</ele>
        <time>2024-07-01T09:34:37Z</time>
      </trkpt>
      <trkpt lat="44.86686" lon="5.18926">
        <ele>793.8</ele>
        <time>2024-07-01T09:34:39Z</time>
      </trkpt>
      <trkpt lat="44.86686" lon="5.18927">
        <ele>793.8</ele>
        <time>2024-07-01T09:34:40Z</time>
      </trkpt>
      <trkpt lat="44.86687" lon="5.18927">
        <ele>793.8</ele>
        <time>2024-07-01T09:34:41Z</time>
      </trkpt>
      <trkpt lat="44.86688" lon="5.18928">
        <ele>793.9</ele>
        <time>2024-07-01T09:34:42Z</time>
      </trkpt>
      <trkpt lat="44.86688" lon="5.18928">
        <ele>793.9</ele>
        <time>2024-07-01T09:34:43Z</time>
      </trkpt>
      <trkpt lat="44.86689" lon="5.18929">
        <ele>793.9</ele>
        <time>2024-07-01T09:34:44Z</time>
      </trkpt>
      <trkpt lat="44.8669" lon="5.18929">
        <ele>793.9</ele>
        <time>2024-07-01T09:34:45Z</time>
      </trkpt>
      <trkpt lat="44.8669" lon="5.1893">
        <ele>793.9</ele>
        <time>2024-07-01T09:34:46Z</time>
      </trkpt>
      <trkpt lat="44.8669" lon="5.18931">
        <ele>793.9</ele>
        <time>2024-07-01T09:34:47Z</time>
      </trkpt>
      <trkpt lat="44.86689" lon="5.18931">
        <ele>793.9</ele>
        <time>2024-07-01T09:34:48Z</time>
      </trkpt>
      <trkpt lat="44.86689" lon="5.18931">
        <ele>793.9</ele>
        <time>2024-07-01T09:34:49Z</time>
      </trkpt>
      <trkpt lat="44.86689" lon="5.18931">
        <ele>793.9</ele>
        <time>2024-07-01T09:34:50Z</time>
      </trkpt>
      <trkpt lat="44.86689" lon="5.18931">
        <ele>794</ele>
        <time>2024-07-01T09:34:51Z</time>
      </trkpt>
      <trkpt lat="44.86689" lon="5.18931">
        <ele>794</ele>
        <time>2024-07-01T09:34:52Z</time>
      </trkpt>
      <trkpt lat="44.86689" lon="5.18932">
        <ele>794</ele>
        <time>2024-07-01T09:34:53Z</time>
      </trkpt>
      <trkpt lat="44.86689" lon="5.18932">
        <ele>794</ele>
        <time>2024-07-01T09:34:54Z</time>
      </trkpt>
      <trkpt lat="44.86689" lon="5.18932">
        <ele>794</ele>
        <time>2024-07-01T09:34:55Z</time>
      </trkpt>
      <trkpt lat="44.86689" lon="5.18933">
        <ele>794</ele>
        <time>2024-07-01T09:34:56Z</time>
      </trkpt>
      <trkpt lat="44.86689" lon="5.18933">
        <ele>794</ele>
        <time>2024-07-01T09:34:57Z</time>
      </trkpt>
      <trkpt lat="44.86689" lon="5.18933">
        <ele>794</ele>
        <time>2024-07-01T09:34:58Z</time>
      </trkpt>
      <trkpt lat="44.86689" lon="5.18934">
        <ele>794</ele>
        <time>2024-07-01T09:34:59Z</time>
      </trkpt>
      <trkpt lat="44.86688" lon="5.18934">
        <ele>794</ele>
        <time>2024-07-01T09:35:00Z</time>
      </trkpt>
      <trkpt lat="44.86688" lon="5.18936">
        <ele>794.1</ele>
        <time>2024-07-01T09:35:01Z</time>
      </trkpt>
      <trkpt lat="44.86688" lon="5.18937">
        <ele>794.1</ele>
        <time>2024-07-01T09:35:02Z</time>
      </trkpt>
      <trkpt lat="44.86688" lon="5.18938">
        <ele>794.1</ele>
        <time>2024-07-01T09:35:03Z</time>
      </trkpt>
      <trkpt lat="44.86688" lon="5.1894">
        <ele>794.2</ele>
        <time>2024-07-01T09:35:04Z</time>
      </trkpt>
      <trkpt lat="44.86689" lon="5.18941">
        <ele>794.3</ele>
        <time>2024-07-01T09:35:05Z</time>
      </trkpt>
      <trkpt lat="44.8669" lon="5.18943">
        <ele>794.3</ele>
        <time>2024-07-01T09:35:06Z</time>
      </trkpt>
      <trkpt lat="44.86692" lon="5.18944">
        <ele>794.5</ele>
        <time>2024-07-01T09:35:07Z</time>
      </trkpt>
      <trkpt lat="44.86693" lon="5.18945">
        <ele>794.6</ele>
        <time>2024-07-01T09:35:09Z</time>
      </trkpt>
      <trkpt lat="44.86693" lon="5.18945">
        <ele>794.6</ele>
        <time>2024-07-01T09:35:10Z</time>
      </trkpt>
      <trkpt lat="44.86693" lon="5.18946">
        <ele>794.6</ele>
        <time>2024-07-01T09:35:11Z</time>
      </trkpt>
      <trkpt lat="44.86693" lon="5.18946">
        <ele>794.7</ele>
        <time>2024-07-01T09:35:12Z</time>
      </trkpt>
      <trkpt lat="44.86693" lon="5.18947">
        <ele>794.7</ele>
        <time>2024-07-01T09:35:13Z</time>
      </trkpt>
      <trkpt lat="44.86694" lon="5.18948">
        <ele>794.7</ele>
        <time>2024-07-01T09:35:14Z</time>
      </trkpt>
      <trkpt lat="44.86694" lon="5.18948">
        <ele>794.8</ele>
        <time>2024-07-01T09:35:15Z</time>
      </trkpt>
      <trkpt lat="44.86694" lon="5.18949">
        <ele>794.8</ele>
        <time>2024-07-01T09:35:16Z</time>
      </trkpt>
      <trkpt lat="44.86694" lon="5.18949">
        <ele>794.8</ele>
        <time>2024-07-01T09:35:17Z</time>
      </trkpt>
      <trkpt lat="44.86694" lon="5.1895">
        <ele>794.9</ele>
        <time>2024-07-01T09:35:19Z</time>
      </trkpt>
      <trkpt lat="44.86695" lon="5.1895">
        <ele>794.9</ele>
        <time>2024-07-01T09:35:20Z</time>
      </trkpt>
      <trkpt lat="44.86697" lon="5.18954">
        <ele>795.2</ele>
        <time>2024-07-01T09:35:21Z</time>
      </trkpt>
      <trkpt lat="44.86698" lon="5.18954">
        <ele>795.3</ele>
        <time>2024-07-01T09:35:22Z</time>
      </trkpt>
      <trkpt lat="44.86699" lon="5.18955">
        <ele>795.5</ele>
        <time>2024-07-01T09:35:23Z</time>
      </trkpt>
      <trkpt lat="44.867" lon="5.18957">
        <ele>795.7</ele>
        <time>2024-07-01T09:35:24Z</time>
      </trkpt>
      <trkpt lat="44.86701" lon="5.18959">
        <ele>795.8</ele>
        <time>2024-07-01T09:35:26Z</time>
      </trkpt>
      <trkpt lat="44.86701" lon="5.18959">
        <ele>795.8</ele>
        <time>2024-07-01T09:35:28Z</time>
      </trkpt>
      <trkpt lat="44.86701" lon="5.18959">
        <ele>795.9</ele>
        <time>2024-07-01T09:35:29Z</time>
      </trkpt>
      <trkpt lat="44.86702" lon="5.18959">
        <ele>796</ele>
        <time>2024-07-01T09:35:30Z</time>
      </trkpt>
      <trkpt lat="44.86703" lon="5.1896">
        <ele>796.1</ele>
        <time>2024-07-01T09:35:31Z</time>
      </trkpt>
      <trkpt lat="44.86704" lon="5.1896">
        <ele>796.1</ele>
        <time>2024-07-01T09:35:33Z</time>
      </trkpt>
      <trkpt lat="44.86704" lon="5.1896">
        <ele>796.2</ele>
        <time>2024-07-01T09:35:34Z</time>
      </trkpt>
      <trkpt lat="44.86705" lon="5.18959">
        <ele>796.2</ele>
        <time>2024-07-01T09:35:35Z</time>
      </trkpt>
      <trkpt lat="44.86706" lon="5.18958">
        <ele>796.3</ele>
        <time>2024-07-01T09:35:36Z</time>
      </trkpt>
      <trkpt lat="44.86706" lon="5.18958">
        <ele>796.3</ele>
        <time>2024-07-01T09:35:37Z</time>
      </trkpt>
      <trkpt lat="44.86705" lon="5.18958">
        <ele>796.4</ele>
        <time>2024-07-01T09:35:38Z</time>
      </trkpt>
      <trkpt lat="44.86705" lon="5.18957">
        <ele>796.4</ele>
        <time>2024-07-01T09:35:40Z</time>
      </trkpt>
      <trkpt lat="44.86705" lon="5.18956">
        <ele>796.4</ele>
        <time>2024-07-01T09:35:41Z</time>
      </trkpt>
      <trkpt lat="44.86704" lon="5.18954">
        <ele>796.5</ele>
        <time>2024-07-01T09:35:42Z</time>
      </trkpt>
      <trkpt lat="44.86704" lon="5.18953">
        <ele>796.5</ele>
        <time>2024-07-01T09:35:43Z</time>
      </trkpt>
      <trkpt lat="44.86704" lon="5.18952">
        <ele>796.6</ele>
        <time>2024-07-01T09:35:44Z</time>
      </trkpt>
      <trkpt lat="44.86705" lon="5.18952">
        <ele>796.6</ele>
        <time>2024-07-01T09:35:45Z</time>
      </trkpt>
      <trkpt lat="44.86705" lon="5.18952">
        <ele>796.6</ele>
        <time>2024-07-01T09:35:46Z</time>
      </trkpt>
      <trkpt lat="44.86705" lon="5.18953">
        <ele>796.6</ele>
        <time>2024-07-01T09:35:47Z</time>
      </trkpt>
      <trkpt lat="44.86705" lon="5.18954">
        <ele>796.7</ele>
        <time>2024-07-01T09:35:48Z</time>
      </trkpt>
      <trkpt lat="44.86705" lon="5.18954">
        <ele>796.7</ele>
        <time>2024-07-01T09:35:49Z</time>
      </trkpt>
      <trkpt lat="44.86705" lon="5.18954">
        <ele>796.7</ele>
        <time>2024-07-01T09:35:50Z</time>
      </trkpt>
      <trkpt lat="44.86705" lon="5.18954">
        <ele>796.7</ele>
        <time>2024-07-01T09:35:52Z</time>
      </trkpt>
      <trkpt lat="44.86705" lon="5.18954">
        <ele>796.7</ele>
        <time>2024-07-01T09:35:53Z</time>
      </trkpt>
      <trkpt lat="44.86705" lon="5.18954">
        <ele>796.7</ele>
        <time>2024-07-01T09:35:54Z</time>
      </trkpt>
      <trkpt lat="44.86705" lon="5.18954">
        <ele>796.7</ele>
        <time>2024-07-01T09:35:55Z</time>
      </trkpt>
      <trkpt lat="44.86705" lon="5.18954">
        <ele>796.7</ele>
        <time>2024-07-01T09:35:56Z</time>
      </trkpt>
      <trkpt lat="44.86705" lon="5.18953">
        <ele>796.8</ele>
        <time>2024-07-01T09:35:57Z</time>
      </trkpt>
      <trkpt lat="44.86706" lon="5.18951">
        <ele>796.8</ele>
        <time>2024-07-01T09:35:58Z</time>
      </trkpt>
      <trkpt lat="44.86708" lon="5.18951">
        <ele>796.9</ele>
        <time>2024-07-01T09:36:00Z</time>
      </trkpt>
      <trkpt lat="44.86709" lon="5.18952">
        <ele>796.9</ele>
        <time>2024-07-01T09:36:01Z</time>
      </trkpt>
      <trkpt lat="44.86709" lon="5.18952">
        <ele>796.9</ele>
        <time>2024-07-01T09:36:02Z</time>
      </trkpt>
      <trkpt lat="44.8671" lon="5.18952">
        <ele>796.9</ele>
        <time>2024-07-01T09:36:03Z</time>
      </trkpt>
      <trkpt lat="44.86711" lon="5.18952">
        <ele>796.9</ele>
        <time>2024-07-01T09:36:04Z</time>
      </trkpt>
      <trkpt lat="44.86712" lon="5.18953">
        <ele>797</ele>
        <time>2024-07-01T09:36:05Z</time>
      </trkpt>
      <trkpt lat="44.86714" lon="5.18953">
        <ele>797.1</ele>
        <time>2024-07-01T09:36:06Z</time>
      </trkpt>
      <trkpt lat="44.86714" lon="5.18953">
        <ele>797.1</ele>
        <time>2024-07-01T09:36:08Z</time>
      </trkpt>
      <trkpt lat="44.86715" lon="5.18952">
        <ele>797.1</ele>
        <time>2024-07-01T09:36:09Z</time>
      </trkpt>
      <trkpt lat="44.86715" lon="5.18951">
        <ele>797.1</ele>
        <time>2024-07-01T09:36:10Z</time>
      </trkpt>
      <trkpt lat="44.86714" lon="5.1895">
        <ele>797.1</ele>
        <time>2024-07-01T09:36:11Z</time>
      </trkpt>
      <trkpt lat="44.86714" lon="5.1895">
        <ele>797.1</ele>
        <time>2024-07-01T09:36:12Z</time>
      </trkpt>
      <trkpt lat="44.86714" lon="5.1895">
        <ele>797.1</ele>
        <time>2024-07-01T09:36:13Z</time>
      </trkpt>
      <trkpt lat="44.86714" lon="5.18949">
        <ele>797.2</ele>
        <time>2024-07-01T09:36:14Z</time>
      </trkpt>
      <trkpt lat="44.86713" lon="5.18949">
        <ele>797.3</ele>
        <time>2024-07-01T09:36:15Z</time>
      </trkpt>
      <trkpt lat="44.86712" lon="5.18949">
        <ele>797.4</ele>
        <time>2024-07-01T09:36:16Z</time>
      </trkpt>
      <trkpt lat="44.86712" lon="5.18948">
        <ele>797.4</ele>
        <time>2024-07-01T09:36:17Z</time>
      </trkpt>
      <trkpt lat="44.86713" lon="5.18947">
        <ele>797.5</ele>
        <time>2024-07-01T09:36:18Z</time>
      </trkpt>
      <trkpt lat="44.86713" lon="5.18947">
        <ele>797.6</ele>
        <time>2024-07-01T09:36:19Z</time>
      </trkpt>
      <trkpt lat="44.86714" lon="5.18947">
        <ele>797.6</ele>
        <time>2024-07-01T09:36:20Z</time>
      </trkpt>
      <trkpt lat="44.86714" lon="5.18947">
        <ele>797.7</ele>
        <time>2024-07-01T09:36:21Z</time>
      </trkpt>
      <trkpt lat="44.86713" lon="5.18946">
        <ele>797.8</ele>
        <time>2024-07-01T09:36:22Z</time>
      </trkpt>
      <trkpt lat="44.86711" lon="5.18944">
        <ele>798.2</ele>
        <time>2024-07-01T09:36:24Z</time>
      </trkpt>
      <trkpt lat="44.8671" lon="5.18943">
        <ele>798.6</ele>
        <time>2024-07-01T09:36:26Z</time>
      </trkpt>
      <trkpt lat="44.86709" lon="5.18942">
        <ele>798.8</ele>
        <time>2024-07-01T09:36:28Z</time>
      </trkpt>
      <trkpt lat="44.86708" lon="5.18941">
        <ele>799.1</ele>
        <time>2024-07-01T09:36:29Z</time>
      </trkpt>
      <trkpt lat="44.86707" lon="5.18942">
        <ele>799.2</ele>
        <time>2024-07-01T09:36:30Z</time>
      </trkpt>
      <trkpt lat="44.86706" lon="5.1894">
        <ele>799.5</ele>
        <time>2024-07-01T09:36:31Z</time>
      </trkpt>
      <trkpt lat="44.86705" lon="5.18941">
        <ele>799.9</ele>
        <time>2024-07-01T09:36:33Z</time>
      </trkpt>
      <trkpt lat="44.86704" lon="5.18941">
        <ele>800</ele>
        <time>2024-07-01T09:36:35Z</time>
      </trkpt>
      <trkpt lat="44.86703" lon="5.1894">
        <ele>800.2</ele>
        <time>2024-07-01T09:36:36Z</time>
      </trkpt>
      <trkpt lat="44.86701" lon="5.18942">
        <ele>800.7</ele>
        <time>2024-07-01T09:36:37Z</time>
      </trkpt>
      <trkpt lat="44.867" lon="5.18944">
        <ele>801.1</ele>
        <time>2024-07-01T09:36:39Z</time>
      </trkpt>
      <trkpt lat="44.86698" lon="5.18945">
        <ele>801.5</ele>
        <time>2024-07-01T09:36:41Z</time>
      </trkpt>
      <trkpt lat="44.86698" lon="5.18945">
        <ele>801.6</ele>
        <time>2024-07-01T09:36:43Z</time>
      </trkpt>
      <trkpt lat="44.86697" lon="5.18946">
        <ele>801.8</ele>
        <time>2024-07-01T09:36:44Z</time>
      </trkpt>
      <trkpt lat="44.86697" lon="5.18947">
        <ele>802</ele>
        <time>2024-07-01T09:36:46Z</time>
      </trkpt>
      <trkpt lat="44.86696" lon="5.18948">
        <ele>802.1</ele>
        <time>2024-07-01T09:36:48Z</time>
      </trkpt>
      <trkpt lat="44.86696" lon="5.18949">
        <ele>802.3</ele>
        <time>2024-07-01T09:36:49Z</time>
      </trkpt>
      <trkpt lat="44.86696" lon="5.18949">
        <ele>802.4</ele>
        <time>2024-07-01T09:36:50Z</time>
      </trkpt>
      <trkpt lat="44.86696" lon="5.18949">
        <ele>802.5</ele>
        <time>2024-07-01T09:36:52Z</time>
      </trkpt>
      <trkpt lat="44.86695" lon="5.18949">
        <ele>802.6</ele>
        <time>2024-07-01T09:36:53Z</time>
      </trkpt>
      <trkpt lat="44.86695" lon="5.18948">
        <ele>802.7</ele>
        <time>2024-07-01T09:36:54Z</time>
      </trkpt>
      <trkpt lat="44.86694" lon="5.18947">
        <ele>802.9</ele>
        <time>2024-07-01T09:36:55Z</time>
      </trkpt>
      <trkpt lat="44.86694" lon="5.18946">
        <ele>803</ele>
        <time>2024-07-01T09:36:56Z</time>
      </trkpt>
      <trkpt lat="44.86693" lon="5.18945">
        <ele>803.2</ele>
        <time>2024-07-01T09:36:57Z</time>
      </trkpt>
      <trkpt lat="44.86693" lon="5.18944">
        <ele>803.4</ele>
        <time>2024-07-01T09:36:58Z</time>
      </trkpt>
      <trkpt lat="44.86693" lon="5.18943">
        <ele>803.5</ele>
        <time>2024-07-01T09:36:59Z</time>
      </trkpt>
      <trkpt lat="44.86693" lon="5.18941">
        <ele>803.7</ele>
        <time>2024-07-01T09:37:00Z</time>
      </trkpt>
      <trkpt lat="44.86694" lon="5.1894">
        <ele>803.9</ele>
        <time>2024-07-01T09:37:01Z</time>
      </trkpt>
      <trkpt lat="44.86694" lon="5.18939">
        <ele>804</ele>
        <time>2024-07-01T09:37:02Z</time>
      </trkpt>
      <trkpt lat="44.86695" lon="5.18938">
        <ele>804.2</ele>
        <time>2024-07-01T09:37:03Z</time>
      </trkpt>
      <trkpt lat="44.86695" lon="5.18935">
        <ele>804.5</ele>
        <time>2024-07-01T09:37:04Z</time>
      </trkpt>
      <trkpt lat="44.86695" lon="5.18935">
        <ele>804.6</ele>
        <time>2024-07-01T09:37:05Z</time>
      </trkpt>
      <trkpt lat="44.86695" lon="5.18934">
        <ele>804.7</ele>
        <time>2024-07-01T09:37:07Z</time>
      </trkpt>
      <trkpt lat="44.86694" lon="5.18933">
        <ele>804.7</ele>
        <time>2024-07-01T09:37:09Z</time>
      </trkpt>
      <trkpt lat="44.86694" lon="5.18932">
        <ele>804.9</ele>
        <time>2024-07-01T09:37:10Z</time>
      </trkpt>
      <trkpt lat="44.86694" lon="5.18932">
        <ele>804.9</ele>
        <time>2024-07-01T09:37:11Z</time>
      </trkpt>
      <trkpt lat="44.86693" lon="5.18931">
        <ele>805.1</ele>
        <time>2024-07-01T09:37:12Z</time>
      </trkpt>
      <trkpt lat="44.86693" lon="5.18931">
        <ele>805.2</ele>
        <time>2024-07-01T09:37:13Z</time>
      </trkpt>
      <trkpt lat="44.86692" lon="5.1893">
        <ele>805.3</ele>
        <time>2024-07-01T09:37:14Z</time>
      </trkpt>
      <trkpt lat="44.86691" lon="5.1893">
        <ele>805.4</ele>
        <time>2024-07-01T09:37:15Z</time>
      </trkpt>
      <trkpt lat="44.86691" lon="5.18929">
        <ele>805.5</ele>
        <time>2024-07-01T09:37:16Z</time>
      </trkpt>
      <trkpt lat="44.8669" lon="5.18928">
        <ele>805.7</ele>
        <time>2024-07-01T09:37:17Z</time>
      </trkpt>
      <trkpt lat="44.8669" lon="5.18926">
        <ele>805.8</ele>
        <time>2024-07-01T09:37:19Z</time>
      </trkpt>
      <trkpt lat="44.86689" lon="5.18924">
        <ele>806</ele>
        <time>2024-07-01T09:37:21Z</time>
      </trkpt>
      <trkpt lat="44.86689" lon="5.18922">
        <ele>806.2</ele>
        <time>2024-07-01T09:37:23Z</time>
      </trkpt>
      <trkpt lat="44.86689" lon="5.18922">
        <ele>806.3</ele>
        <time>2024-07-01T09:37:24Z</time>
      </trkpt>
      <trkpt lat="44.86689" lon="5.1892">
        <ele>806.5</ele>
        <time>2024-07-01T09:37:25Z</time>
      </trkpt>
      <trkpt lat="44.8669" lon="5.18919">
        <ele>806.6</ele>
        <time>2024-07-01T09:37:27Z</time>
      </trkpt>
      <trkpt lat="44.8669" lon="5.18918">
        <ele>806.7</ele>
        <time>2024-07-01T09:37:28Z</time>
      </trkpt>
      <trkpt lat="44.86691" lon="5.18917">
        <ele>806.8</ele>
        <time>2024-07-01T09:37:29Z</time>
      </trkpt>
      <trkpt lat="44.86692" lon="5.18916">
        <ele>806.9</ele>
        <time>2024-07-01T09:37:31Z</time>
      </trkpt>
      <trkpt lat="44.86692" lon="5.18916">
        <ele>807</ele>
        <time>2024-07-01T09:37:32Z</time>
      </trkpt>
      <trkpt lat="44.86693" lon="5.18916">
        <ele>807</ele>
        <time>2024-07-01T09:37:33Z</time>
      </trkpt>
      <trkpt lat="44.86693" lon="5.18915">
        <ele>807.1</ele>
        <time>2024-07-01T09:37:34Z</time>
      </trkpt>
      <trkpt lat="44.86693" lon="5.18914">
        <ele>807.2</ele>
        <time>2024-07-01T09:37:35Z</time>
      </trkpt>
      <trkpt lat="44.86694" lon="5.18913">
        <ele>807.3</ele>
        <time>2024-07-01T09:37:37Z</time>
      </trkpt>
      <trkpt lat="44.86694" lon="5.18912">
        <ele>807.4</ele>
        <time>2024-07-01T09:37:38Z</time>
      </trkpt>
      <trkpt lat="44.86695" lon="5.18911">
        <ele>807.5</ele>
        <time>2024-07-01T09:37:39Z</time>
      </trkpt>
      <trkpt lat="44.86695" lon="5.18909">
        <ele>807.6</ele>
        <time>2024-07-01T09:37:40Z</time>
      </trkpt>
      <trkpt lat="44.86696" lon="5.18908">
        <ele>807.7</ele>
        <time>2024-07-01T09:37:42Z</time>
      </trkpt>
      <trkpt lat="44.86696" lon="5.18907">
        <ele>807.8</ele>
        <time>2024-07-01T09:37:43Z</time>
      </trkpt>
      <trkpt lat="44.86697" lon="5.18908">
        <ele>807.9</ele>
        <time>2024-07-01T09:37:44Z</time>
      </trkpt>
      <trkpt lat="44.86697" lon="5.18908">
        <ele>808</ele>
        <time>2024-07-01T09:37:46Z</time>
      </trkpt>
      <trkpt lat="44.86697" lon="5.18907">
        <ele>808</ele>
        <time>2024-07-01T09:37:47Z</time>
      </trkpt>
      <trkpt lat="44.86698" lon="5.18907">
        <ele>808.1</ele>
        <time>2024-07-01T09:37:48Z</time>
      </trkpt>
      <trkpt lat="44.86698" lon="5.18906">
        <ele>808.2</ele>
        <time>2024-07-01T09:37:49Z</time>
      </trkpt>
      <trkpt lat="44.86699" lon="5.18905">
        <ele>808.3</ele>
        <time>2024-07-01T09:37:50Z</time>
      </trkpt>
      <trkpt lat="44.867" lon="5.18904">
        <ele>808.4</ele>
        <time>2024-07-01T09:37:51Z</time>
      </trkpt>
      <trkpt lat="44.867" lon="5.18903">
        <ele>808.5</ele>
        <time>2024-07-01T09:37:52Z</time>
      </trkpt>
      <trkpt lat="44.867" lon="5.18902">
        <ele>808.6</ele>
        <time>2024-07-01T09:37:53Z</time>
      </trkpt>
      <trkpt lat="44.86701" lon="5.189">
        <ele>808.7</ele>
        <time>2024-07-01T09:37:54Z</time>
      </trkpt>
      <trkpt lat="44.86702" lon="5.18899">
        <ele>808.8</ele>
        <time>2024-07-01T09:37:55Z</time>
      </trkpt>
      <trkpt lat="44.86702" lon="5.18899">
        <ele>808.9</ele>
        <time>2024-07-01T09:37:56Z</time>
      </trkpt>
      <trkpt lat="44.86703" lon="5.18898">
        <ele>809</ele>
        <time>2024-07-01T09:37:57Z</time>
      </trkpt>
      <trkpt lat="44.86704" lon="5.18896">
        <ele>809.1</ele>
        <time>2024-07-01T09:37:58Z</time>
      </trkpt>
      <trkpt lat="44.86704" lon="5.18895">
        <ele>809.2</ele>
        <time>2024-07-01T09:38:00Z</time>
      </trkpt>
      <trkpt lat="44.86705" lon="5.18894">
        <ele>809.3</ele>
        <time>2024-07-01T09:38:01Z</time>
      </trkpt>
      <trkpt lat="44.86706" lon="5.18893">
        <ele>809.5</ele>
        <time>2024-07-01T09:38:02Z</time>
      </trkpt>
      <trkpt lat="44.86707" lon="5.18892">
        <ele>809.6</ele>
        <time>2024-07-01T09:38:03Z</time>
      </trkpt>
      <trkpt lat="44.86708" lon="5.18891">
        <ele>809.7</ele>
        <time>2024-07-01T09:38:05Z</time>
      </trkpt>
      <trkpt lat="44.86708" lon="5.18891">
        <ele>809.8</ele>
        <time>2024-07-01T09:38:06Z</time>
      </trkpt>
      <trkpt lat="44.86709" lon="5.1889">
        <ele>809.9</ele>
        <time>2024-07-01T09:38:07Z</time>
      </trkpt>
      <trkpt lat="44.86709" lon="5.18889">
        <ele>809.9</ele>
        <time>2024-07-01T09:38:08Z</time>
      </trkpt>
      <trkpt lat="44.8671" lon="5.18888">
        <ele>810</ele>
        <time>2024-07-01T09:38:09Z</time>
      </trkpt>
      <trkpt lat="44.8671" lon="5.18887">
        <ele>810.1</ele>
        <time>2024-07-01T09:38:10Z</time>
      </trkpt>
      <trkpt lat="44.86711" lon="5.18887">
        <ele>810.2</ele>
        <time>2024-07-01T09:38:11Z</time>
      </trkpt>
      <trkpt lat="44.86711" lon="5.18886">
        <ele>810.2</ele>
        <time>2024-07-01T09:38:12Z</time>
      </trkpt>
      <trkpt lat="44.86711" lon="5.18886">
        <ele>810.3</ele>
        <time>2024-07-01T09:38:13Z</time>
      </trkpt>
      <trkpt lat="44.86712" lon="5.18885">
        <ele>810.3</ele>
        <time>2024-07-01T09:38:14Z</time>
      </trkpt>
      <trkpt lat="44.86712" lon="5.18885">
        <ele>810.4</ele>
        <time>2024-07-01T09:38:15Z</time>
      </trkpt>
      <trkpt lat="44.86713" lon="5.18885">
        <ele>810.5</ele>
        <time>2024-07-01T09:38:16Z</time>
      </trkpt>
      <trkpt lat="44.86714" lon="5.18884">
        <ele>810.6</ele>
        <time>2024-07-01T09:38:17Z</time>
      </trkpt>
      <trkpt lat="44.86715" lon="5.18884">
        <ele>810.7</ele>
        <time>2024-07-01T09:38:19Z</time>
      </trkpt>
      <trkpt lat="44.86716" lon="5.18883">
        <ele>810.8</ele>
        <time>2024-07-01T09:38:20Z</time>
      </trkpt>
      <trkpt lat="44.86717" lon="5.18882">
        <ele>811</ele>
        <time>2024-07-01T09:38:21Z</time>
      </trkpt>
      <trkpt lat="44.86718" lon="5.1888">
        <ele>811.2</ele>
        <time>2024-07-01T09:38:22Z</time>
      </trkpt>
      <trkpt lat="44.86718" lon="5.18879">
        <ele>811.3</ele>
        <time>2024-07-01T09:38:24Z</time>
      </trkpt>
      <trkpt lat="44.86718" lon="5.18877">
        <ele>811.5</ele>
        <time>2024-07-01T09:38:25Z</time>
      </trkpt>
      <trkpt lat="44.86718" lon="5.18876">
        <ele>811.6</ele>
        <time>2024-07-01T09:38:27Z</time>
      </trkpt>
      <trkpt lat="44.86719" lon="5.18876">
        <ele>811.6</ele>
        <time>2024-07-01T09:38:28Z</time>
      </trkpt>
      <trkpt lat="44.86719" lon="5.18875">
        <ele>811.7</ele>
        <time>2024-07-01T09:38:29Z</time>
      </trkpt>
      <trkpt lat="44.8672" lon="5.18875">
        <ele>811.8</ele>
        <time>2024-07-01T09:38:30Z</time>
      </trkpt>
      <trkpt lat="44.86721" lon="5.18874">
        <ele>812</ele>
        <time>2024-07-01T09:38:31Z</time>
      </trkpt>
      <trkpt lat="44.86721" lon="5.18874">
        <ele>812</ele>
        <time>2024-07-01T09:38:33Z</time>
      </trkpt>
      <trkpt lat="44.86722" lon="5.18873">
        <ele>812.1</ele>
        <time>2024-07-01T09:38:34Z</time>
      </trkpt>
      <trkpt lat="44.86722" lon="5.18872">
        <ele>812.2</ele>
        <time>2024-07-01T09:38:35Z</time>
      </trkpt>
      <trkpt lat="44.86722" lon="5.18872">
        <ele>812.3</ele>
        <time>2024-07-01T09:38:36Z</time>
      </trkpt>
      <trkpt lat="44.86722" lon="5.18871">
        <ele>812.4</ele>
        <time>2024-07-01T09:38:37Z</time>
      </trkpt>
      <trkpt lat="44.86722" lon="5.1887">
        <ele>812.4</ele>
        <time>2024-07-01T09:38:38Z</time>
      </trkpt>
      <trkpt lat="44.86723" lon="5.18869">
        <ele>812.5</ele>
        <time>2024-07-01T09:38:39Z</time>
      </trkpt>
      <trkpt lat="44.86723" lon="5.18868">
        <ele>812.6</ele>
        <time>2024-07-01T09:38:40Z</time>
      </trkpt>
      <trkpt lat="44.86724" lon="5.18868">
        <ele>812.7</ele>
        <time>2024-07-01T09:38:41Z</time>
      </trkpt>
      <trkpt lat="44.86724" lon="5.18866">
        <ele>812.8</ele>
        <time>2024-07-01T09:38:42Z</time>
      </trkpt>
      <trkpt lat="44.86724" lon="5.18866">
        <ele>812.9</ele>
        <time>2024-07-01T09:38:43Z</time>
      </trkpt>
      <trkpt lat="44.86724" lon="5.18864">
        <ele>813</ele>
        <time>2024-07-01T09:38:44Z</time>
      </trkpt>
      <trkpt lat="44.86724" lon="5.18864">
        <ele>813.1</ele>
        <time>2024-07-01T09:38:45Z</time>
      </trkpt>
      <trkpt lat="44.86724" lon="5.18862">
        <ele>813.2</ele>
        <time>2024-07-01T09:38:46Z</time>
      </trkpt>
      <trkpt lat="44.86724" lon="5.18861">
        <ele>813.3</ele>
        <time>2024-07-01T09:38:47Z</time>
      </trkpt>
      <trkpt lat="44.86724" lon="5.1886">
        <ele>813.4</ele>
        <time>2024-07-01T09:38:48Z</time>
      </trkpt>
      <trkpt lat="44.86723" lon="5.18858">
        <ele>813.5</ele>
        <time>2024-07-01T09:38:49Z</time>
      </trkpt>
      <trkpt lat="44.86723" lon="5.18857">
        <ele>813.6</ele>
        <time>2024-07-01T09:38:51Z</time>
      </trkpt>
      <trkpt lat="44.86722" lon="5.18856">
        <ele>813.7</ele>
        <time>2024-07-01T09:38:52Z</time>
      </trkpt>
      <trkpt lat="44.86722" lon="5.18855">
        <ele>813.9</ele>
        <time>2024-07-01T09:38:53Z</time>
      </trkpt>
      <trkpt lat="44.86722" lon="5.18854">
        <ele>813.9</ele>
        <time>2024-07-01T09:38:55Z</time>
      </trkpt>
      <trkpt lat="44.86722" lon="5.18854">
        <ele>814</ele>
        <time>2024-07-01T09:38:56Z</time>
      </trkpt>
      <trkpt lat="44.86722" lon="5.18853">
        <ele>814</ele>
        <time>2024-07-01T09:38:57Z</time>
      </trkpt>
      <trkpt lat="44.86722" lon="5.18852">
        <ele>814.1</ele>
        <time>2024-07-01T09:38:58Z</time>
      </trkpt>
      <trkpt lat="44.86722" lon="5.1885">
        <ele>814.2</ele>
        <time>2024-07-01T09:38:59Z</time>
      </trkpt>
      <trkpt lat="44.86723" lon="5.18849">
        <ele>814.3</ele>
        <time>2024-07-01T09:39:00Z</time>
      </trkpt>
      <trkpt lat="44.86725" lon="5.18847">
        <ele>814.5</ele>
        <time>2024-07-01T09:39:01Z</time>
      </trkpt>
      <trkpt lat="44.86726" lon="5.18845">
        <ele>814.7</ele>
        <time>2024-07-01T09:39:03Z</time>
      </trkpt>
      <trkpt lat="44.86727" lon="5.18844">
        <ele>814.9</ele>
        <time>2024-07-01T09:39:05Z</time>
      </trkpt>
      <trkpt lat="44.86727" lon="5.18843">
        <ele>815</ele>
        <time>2024-07-01T09:39:06Z</time>
      </trkpt>
      <trkpt lat="44.86728" lon="5.18842">
        <ele>815.1</ele>
        <time>2024-07-01T09:39:07Z</time>
      </trkpt>
      <trkpt lat="44.86729" lon="5.18841">
        <ele>815.1</ele>
        <time>2024-07-01T09:39:08Z</time>
      </trkpt>
      <trkpt lat="44.86729" lon="5.1884">
        <ele>815.2</ele>
        <time>2024-07-01T09:39:09Z</time>
      </trkpt>
      <trkpt lat="44.8673" lon="5.18839">
        <ele>815.3</ele>
        <time>2024-07-01T09:39:10Z</time>
      </trkpt>
      <trkpt lat="44.8673" lon="5.18839">
        <ele>815.4</ele>
        <time>2024-07-01T09:39:11Z</time>
      </trkpt>
      <trkpt lat="44.8673" lon="5.18838">
        <ele>815.4</ele>
        <time>2024-07-01T09:39:12Z</time>
      </trkpt>
      <trkpt lat="44.8673" lon="5.18838">
        <ele>815.5</ele>
        <time>2024-07-01T09:39:13Z</time>
      </trkpt>
      <trkpt lat="44.86731" lon="5.18835">
        <ele>815.7</ele>
        <time>2024-07-01T09:39:15Z</time>
      </trkpt>
      <trkpt lat="44.86731" lon="5.18833">
        <ele>815.8</ele>
        <time>2024-07-01T09:39:16Z</time>
      </trkpt>
      <trkpt lat="44.86731" lon="5.18831">
        <ele>815.9</ele>
        <time>2024-07-01T09:39:18Z</time>
      </trkpt>
      <trkpt lat="44.86732" lon="5.18829">
        <ele>816.1</ele>
        <time>2024-07-01T09:39:19Z</time>
      </trkpt>
      <trkpt lat="44.86733" lon="5.18827">
        <ele>816.3</ele>
        <time>2024-07-01T09:39:21Z</time>
      </trkpt>
      <trkpt lat="44.86733" lon="5.18826">
        <ele>816.3</ele>
        <time>2024-07-01T09:39:22Z</time>
      </trkpt>
      <trkpt lat="44.86733" lon="5.18825">
        <ele>816.4</ele>
        <time>2024-07-01T09:39:23Z</time>
      </trkpt>
      <trkpt lat="44.86734" lon="5.18824">
        <ele>816.5</ele>
        <time>2024-07-01T09:39:24Z</time>
      </trkpt>
      <trkpt lat="44.86734" lon="5.18823">
        <ele>816.6</ele>
        <time>2024-07-01T09:39:25Z</time>
      </trkpt>
      <trkpt lat="44.86736" lon="5.18821">
        <ele>816.8</ele>
        <time>2024-07-01T09:39:26Z</time>
      </trkpt>
      <trkpt lat="44.86736" lon="5.1882">
        <ele>816.9</ele>
        <time>2024-07-01T09:39:27Z</time>
      </trkpt>
      <trkpt lat="44.86736" lon="5.18819">
        <ele>817</ele>
        <time>2024-07-01T09:39:29Z</time>
      </trkpt>
      <trkpt lat="44.86737" lon="5.18817">
        <ele>817.1</ele>
        <time>2024-07-01T09:39:30Z</time>
      </trkpt>
      <trkpt lat="44.86737" lon="5.18816">
        <ele>817.2</ele>
        <time>2024-07-01T09:39:31Z</time>
      </trkpt>
      <trkpt lat="44.86737" lon="5.18814">
        <ele>817.3</ele>
        <time>2024-07-01T09:39:32Z</time>
      </trkpt>
      <trkpt lat="44.86737" lon="5.18813">
        <ele>817.4</ele>
        <time>2024-07-01T09:39:33Z</time>
      </trkpt>
      <trkpt lat="44.86737" lon="5.18811">
        <ele>817.6</ele>
        <time>2024-07-01T09:39:34Z</time>
      </trkpt>
      <trkpt lat="44.86737" lon="5.1881">
        <ele>817.7</ele>
        <time>2024-07-01T09:39:35Z</time>
      </trkpt>
      <trkpt lat="44.86738" lon="5.18809">
        <ele>817.8</ele>
        <time>2024-07-01T09:39:36Z</time>
      </trkpt>
      <trkpt lat="44.86738" lon="5.18808">
        <ele>817.9</ele>
        <time>2024-07-01T09:39:37Z</time>
      </trkpt>
      <trkpt lat="44.86739" lon="5.18806">
        <ele>818</ele>
        <time>2024-07-01T09:39:38Z</time>
      </trkpt>
      <trkpt lat="44.8674" lon="5.18805">
        <ele>818.1</ele>
        <time>2024-07-01T09:39:39Z</time>
      </trkpt>
      <trkpt lat="44.86741" lon="5.18804">
        <ele>818.3</ele>
        <time>2024-07-01T09:39:40Z</time>
      </trkpt>
      <trkpt lat="44.86741" lon="5.18803">
        <ele>818.4</ele>
        <time>2024-07-01T09:39:41Z</time>
      </trkpt>
      <trkpt lat="44.86741" lon="5.18801">
        <ele>818.5</ele>
        <time>2024-07-01T09:39:42Z</time>
      </trkpt>
      <trkpt lat="44.86741" lon="5.18799">
        <ele>818.8</ele>
        <time>2024-07-01T09:39:43Z</time>
      </trkpt>
      <trkpt lat="44.86742" lon="5.18797">
        <ele>818.9</ele>
        <time>2024-07-01T09:39:45Z</time>
      </trkpt>
      <trkpt lat="44.86742" lon="5.18796">
        <ele>819</ele>
        <time>2024-07-01T09:39:46Z</time>
      </trkpt>
      <trkpt lat="44.86742" lon="5.18795">
        <ele>819.1</ele>
        <time>2024-07-01T09:39:47Z</time>
      </trkpt>
      <trkpt lat="44.86743" lon="5.18793">
        <ele>819.3</ele>
        <time>2024-07-01T09:39:48Z</time>
      </trkpt>
      <trkpt lat="44.86743" lon="5.18792">
        <ele>819.4</ele>
        <time>2024-07-01T09:39:49Z</time>
      </trkpt>
      <trkpt lat="44.86744" lon="5.18791">
        <ele>819.5</ele>
        <time>2024-07-01T09:39:50Z</time>
      </trkpt>
      <trkpt lat="44.86744" lon="5.1879">
        <ele>819.6</ele>
        <time>2024-07-01T09:39:52Z</time>
      </trkpt>
      <trkpt lat="44.86744" lon="5.18787">
        <ele>819.8</ele>
        <time>2024-07-01T09:39:53Z</time>
      </trkpt>
      <trkpt lat="44.86744" lon="5.18786">
        <ele>820</ele>
        <time>2024-07-01T09:39:55Z</time>
      </trkpt>
      <trkpt lat="44.86744" lon="5.18784">
        <ele>820.1</ele>
        <time>2024-07-01T09:39:56Z</time>
      </trkpt>
      <trkpt lat="44.86744" lon="5.18783">
        <ele>820.2</ele>
        <time>2024-07-01T09:39:57Z</time>
      </trkpt>
      <trkpt lat="44.86743" lon="5.18782">
        <ele>820.3</ele>
        <time>2024-07-01T09:39:58Z</time>
      </trkpt>
      <trkpt lat="44.86743" lon="5.18781">
        <ele>820.4</ele>
        <time>2024-07-01T09:39:59Z</time>
      </trkpt>
      <trkpt lat="44.86743" lon="5.18781">
        <ele>820.5</ele>
        <time>2024-07-01T09:40:00Z</time>
      </trkpt>
      <trkpt lat="44.86742" lon="5.18779">
        <ele>820.6</ele>
        <time>2024-07-01T09:40:01Z</time>
      </trkpt>
      <trkpt lat="44.86742" lon="5.18779">
        <ele>820.6</ele>
        <time>2024-07-01T09:40:02Z</time>
      </trkpt>
      <trkpt lat="44.86742" lon="5.18779">
        <ele>820.7</ele>
        <time>2024-07-01T09:40:03Z</time>
      </trkpt>
      <trkpt lat="44.86743" lon="5.18776">
        <ele>820.9</ele>
        <time>2024-07-01T09:40:04Z</time>
      </trkpt>
      <trkpt lat="44.86744" lon="5.18776">
        <ele>821</ele>
        <time>2024-07-01T09:40:06Z</time>
      </trkpt>
      <trkpt lat="44.86744" lon="5.18775">
        <ele>821.1</ele>
        <time>2024-07-01T09:40:07Z</time>
      </trkpt>
      <trkpt lat="44.86744" lon="5.18774">
        <ele>821.2</ele>
        <time>2024-07-01T09:40:08Z</time>
      </trkpt>
      <trkpt lat="44.86744" lon="5.18773">
        <ele>821.3</ele>
        <time>2024-07-01T09:40:09Z</time>
      </trkpt>
      <trkpt lat="44.86743" lon="5.18772">
        <ele>821.4</ele>
        <time>2024-07-01T09:40:10Z</time>
      </trkpt>
      <trkpt lat="44.86743" lon="5.1877">
        <ele>821.5</ele>
        <time>2024-07-01T09:40:11Z</time>
      </trkpt>
      <trkpt lat="44.86743" lon="5.18769">
        <ele>821.6</ele>
        <time>2024-07-01T09:40:12Z</time>
      </trkpt>
      <trkpt lat="44.86743" lon="5.18768">
        <ele>821.7</ele>
        <time>2024-07-01T09:40:13Z</time>
      </trkpt>
      <trkpt lat="44.86743" lon="5.18767">
        <ele>821.9</ele>
        <time>2024-07-01T09:40:14Z</time>
      </trkpt>
      <trkpt lat="44.86742" lon="5.18765">
        <ele>822</ele>
        <time>2024-07-01T09:40:15Z</time>
      </trkpt>
      <trkpt lat="44.86742" lon="5.18764">
        <ele>822.1</ele>
        <time>2024-07-01T09:40:16Z</time>
      </trkpt>
      <trkpt lat="44.86742" lon="5.18763">
        <ele>822.2</ele>
        <time>2024-07-01T09:40:17Z</time>
      </trkpt>
      <trkpt lat="44.86742" lon="5.18761">
        <ele>822.4</ele>
        <time>2024-07-01T09:40:18Z</time>
      </trkpt>
      <trkpt lat="44.86742" lon="5.18759">
        <ele>822.6</ele>
        <time>2024-07-01T09:40:19Z</time>
      </trkpt>
      <trkpt lat="44.86742" lon="5.18757">
        <ele>822.8</ele>
        <time>2024-07-01T09:40:21Z</time>
      </trkpt>
      <trkpt lat="44.86743" lon="5.18756">
        <ele>822.9</ele>
        <time>2024-07-01T09:40:23Z</time>
      </trkpt>
      <trkpt lat="44.86743" lon="5.18755">
        <ele>823</ele>
        <time>2024-07-01T09:40:24Z</time>
      </trkpt>
      <trkpt lat="44.86744" lon="5.18754">
        <ele>823.2</ele>
        <time>2024-07-01T09:40:25Z</time>
      </trkpt>
      <trkpt lat="44.86745" lon="5.18753">
        <ele>823.2</ele>
        <time>2024-07-01T09:40:26Z</time>
      </trkpt>
      <trkpt lat="44.86745" lon="5.18752">
        <ele>823.3</ele>
        <time>2024-07-01T09:40:27Z</time>
      </trkpt>
      <trkpt lat="44.86746" lon="5.18751">
        <ele>823.5</ele>
        <time>2024-07-01T09:40:28Z</time>
      </trkpt>
      <trkpt lat="44.86746" lon="5.1875">
        <ele>823.6</ele>
        <time>2024-07-01T09:40:29Z</time>
      </trkpt>
      <trkpt lat="44.86747" lon="5.18749">
        <ele>823.7</ele>
        <time>2024-07-01T09:40:30Z</time>
      </trkpt>
      <trkpt lat="44.86747" lon="5.18747">
        <ele>823.9</ele>
        <time>2024-07-01T09:40:31Z</time>
      </trkpt>
      <trkpt lat="44.86747" lon="5.18746">
        <ele>824</ele>
        <time>2024-07-01T09:40:33Z</time>
      </trkpt>
      <trkpt lat="44.86748" lon="5.18745">
        <ele>824.1</ele>
        <time>2024-07-01T09:40:34Z</time>
      </trkpt>
      <trkpt lat="44.86748" lon="5.18743">
        <ele>824.3</ele>
        <time>2024-07-01T09:40:35Z</time>
      </trkpt>
      <trkpt lat="44.86749" lon="5.18742">
        <ele>824.4</ele>
        <time>2024-07-01T09:40:36Z</time>
      </trkpt>
      <trkpt lat="44.86749" lon="5.18741">
        <ele>824.5</ele>
        <time>2024-07-01T09:40:37Z</time>
      </trkpt>
      <trkpt lat="44.8675" lon="5.1874">
        <ele>824.6</ele>
        <time>2024-07-01T09:40:38Z</time>
      </trkpt>
      <trkpt lat="44.86751" lon="5.18738">
        <ele>824.8</ele>
        <time>2024-07-01T09:40:39Z</time>
      </trkpt>
      <trkpt lat="44.86751" lon="5.18738">
        <ele>824.9</ele>
        <time>2024-07-01T09:40:40Z</time>
      </trkpt>
      <trkpt lat="44.86752" lon="5.18737">
        <ele>825</ele>
        <time>2024-07-01T09:40:41Z</time>
      </trkpt>
      <trkpt lat="44.86752" lon="5.18736">
        <ele>825.1</ele>
        <time>2024-07-01T09:40:42Z</time>
      </trkpt>
      <trkpt lat="44.86753" lon="5.18736">
        <ele>825.2</ele>
        <time>2024-07-01T09:40:43Z</time>
      </trkpt>
      <trkpt lat="44.86754" lon="5.18735">
        <ele>825.3</ele>
        <time>2024-07-01T09:40:44Z</time>
      </trkpt>
      <trkpt lat="44.86754" lon="5.18734">
        <ele>825.4</ele>
        <time>2024-07-01T09:40:45Z</time>
      </trkpt>
      <trkpt lat="44.86755" lon="5.18733">
        <ele>825.5</ele>
        <time>2024-07-01T09:40:46Z</time>
      </trkpt>
      <trkpt lat="44.86756" lon="5.18731">
        <ele>825.6</ele>
        <time>2024-07-01T09:40:47Z</time>
      </trkpt>
      <trkpt lat="44.86756" lon="5.18731">
        <ele>825.7</ele>
        <time>2024-07-01T09:40:48Z</time>
      </trkpt>
      <trkpt lat="44.86757" lon="5.1873">
        <ele>825.8</ele>
        <time>2024-07-01T09:40:49Z</time>
      </trkpt>
      <trkpt lat="44.86757" lon="5.18729">
        <ele>825.8</ele>
        <time>2024-07-01T09:40:50Z</time>
      </trkpt>
      <trkpt lat="44.86759" lon="5.18728">
        <ele>826</ele>
        <time>2024-07-01T09:40:51Z</time>
      </trkpt>
      <trkpt lat="44.86759" lon="5.18727">
        <ele>826.1</ele>
        <time>2024-07-01T09:40:53Z</time>
      </trkpt>
      <trkpt lat="44.8676" lon="5.18726">
        <ele>826.2</ele>
        <time>2024-07-01T09:40:54Z</time>
      </trkpt>
      <trkpt lat="44.86761" lon="5.18726">
        <ele>826.3</ele>
        <time>2024-07-01T09:40:56Z</time>
      </trkpt>
      <trkpt lat="44.86761" lon="5.18725">
        <ele>826.3</ele>
        <time>2024-07-01T09:40:57Z</time>
      </trkpt>
      <trkpt lat="44.86762" lon="5.18724">
        <ele>826.4</ele>
        <time>2024-07-01T09:40:58Z</time>
      </trkpt>
      <trkpt lat="44.86763" lon="5.18724">
        <ele>826.5</ele>
        <time>2024-07-01T09:40:59Z</time>
      </trkpt>
      <trkpt lat="44.86763" lon="5.18723">
        <ele>826.5</ele>
        <time>2024-07-01T09:41:00Z</time>
      </trkpt>
      <trkpt lat="44.86764" lon="5.18722">
        <ele>826.6</ele>
        <time>2024-07-01T09:41:01Z</time>
      </trkpt>
      <trkpt lat="44.86765" lon="5.18721">
        <ele>826.7</ele>
        <time>2024-07-01T09:41:02Z</time>
      </trkpt>
      <trkpt lat="44.86766" lon="5.1872">
        <ele>826.7</ele>
        <time>2024-07-01T09:41:03Z</time>
      </trkpt>
      <trkpt lat="44.86767" lon="5.18718">
        <ele>826.9</ele>
        <time>2024-07-01T09:41:04Z</time>
      </trkpt>
      <trkpt lat="44.86768" lon="5.18717">
        <ele>826.9</ele>
        <time>2024-07-01T09:41:06Z</time>
      </trkpt>
      <trkpt lat="44.86768" lon="5.18716">
        <ele>827</ele>
        <time>2024-07-01T09:41:07Z</time>
      </trkpt>
      <trkpt lat="44.86769" lon="5.18715">
        <ele>827</ele>
        <time>2024-07-01T09:41:08Z</time>
      </trkpt>
      <trkpt lat="44.86769" lon="5.18714">
        <ele>827</ele>
        <time>2024-07-01T09:41:09Z</time>
      </trkpt>
      <trkpt lat="44.8677" lon="5.18711">
        <ele>827.1</ele>
        <time>2024-07-01T09:41:10Z</time>
      </trkpt>
      <trkpt lat="44.8677" lon="5.18709">
        <ele>827.2</ele>
        <time>2024-07-01T09:41:12Z</time>
      </trkpt>
      <trkpt lat="44.86771" lon="5.18708">
        <ele>827.2</ele>
        <time>2024-07-01T09:41:13Z</time>
      </trkpt>
      <trkpt lat="44.86771" lon="5.18707">
        <ele>827.2</ele>
        <time>2024-07-01T09:41:14Z</time>
      </trkpt>
      <trkpt lat="44.86772" lon="5.18705">
        <ele>827.3</ele>
        <time>2024-07-01T09:41:15Z</time>
      </trkpt>
      <trkpt lat="44.86772" lon="5.18704">
        <ele>827.3</ele>
        <time>2024-07-01T09:41:16Z</time>
      </trkpt>
      <trkpt lat="44.86772" lon="5.18703">
        <ele>827.3</ele>
        <time>2024-07-01T09:41:17Z</time>
      </trkpt>
      <trkpt lat="44.86772" lon="5.18702">
        <ele>827.3</ele>
        <time>2024-07-01T09:41:18Z</time>
      </trkpt>
      <trkpt lat="44.86773" lon="5.18701">
        <ele>827.3</ele>
        <time>2024-07-01T09:41:19Z</time>
      </trkpt>
      <trkpt lat="44.86774" lon="5.18699">
        <ele>827.4</ele>
        <time>2024-07-01T09:41:20Z</time>
      </trkpt>
      <trkpt lat="44.86774" lon="5.18697">
        <ele>827.4</ele>
        <time>2024-07-01T09:41:21Z</time>
      </trkpt>
      <trkpt lat="44.86775" lon="5.18695">
        <ele>827.4</ele>
        <time>2024-07-01T09:41:23Z</time>
      </trkpt>
      <trkpt lat="44.86775" lon="5.18694">
        <ele>827.4</ele>
        <time>2024-07-01T09:41:24Z</time>
      </trkpt>
      <trkpt lat="44.86776" lon="5.18692">
        <ele>827.4</ele>
        <time>2024-07-01T09:41:26Z</time>
      </trkpt>
      <trkpt lat="44.86776" lon="5.18691">
        <ele>827.4</ele>
        <time>2024-07-01T09:41:27Z</time>
      </trkpt>
      <trkpt lat="44.86776" lon="5.1869">
        <ele>827.4</ele>
        <time>2024-07-01T09:41:29Z</time>
      </trkpt>
      <trkpt lat="44.86777" lon="5.18689">
        <ele>827.4</ele>
        <time>2024-07-01T09:41:30Z</time>
      </trkpt>
      <trkpt lat="44.86778" lon="5.18688">
        <ele>827.4</ele>
        <time>2024-07-01T09:41:31Z</time>
      </trkpt>
      <trkpt lat="44.86777" lon="5.18688">
        <ele>827.4</ele>
        <time>2024-07-01T09:41:33Z</time>
      </trkpt>
      <trkpt lat="44.86777" lon="5.18688">
        <ele>827.3</ele>
        <time>2024-07-01T09:41:34Z</time>
      </trkpt>
      <trkpt lat="44.86777" lon="5.18687">
        <ele>827.2</ele>
        <time>2024-07-01T09:41:35Z</time>
      </trkpt>
      <trkpt lat="44.86778" lon="5.18686">
        <ele>827.2</ele>
        <time>2024-07-01T09:41:36Z</time>
      </trkpt>
      <trkpt lat="44.86778" lon="5.18684">
        <ele>827.1</ele>
        <time>2024-07-01T09:41:37Z</time>
      </trkpt>
      <trkpt lat="44.86778" lon="5.18682">
        <ele>827</ele>
        <time>2024-07-01T09:41:39Z</time>
      </trkpt>
      <trkpt lat="44.86778" lon="5.18681">
        <ele>826.9</ele>
        <time>2024-07-01T09:41:40Z</time>
      </trkpt>
      <trkpt lat="44.86778" lon="5.18677">
        <ele>826.7</ele>
        <time>2024-07-01T09:41:41Z</time>
      </trkpt>
      <trkpt lat="44.86778" lon="5.18675">
        <ele>826.6</ele>
        <time>2024-07-01T09:41:43Z</time>
      </trkpt>
      <trkpt lat="44.86779" lon="5.18672">
        <ele>826.4</ele>
        <time>2024-07-01T09:41:45Z</time>
      </trkpt>
      <trkpt lat="44.86779" lon="5.18671">
        <ele>826.3</ele>
        <time>2024-07-01T09:41:46Z</time>
      </trkpt>
      <trkpt lat="44.86779" lon="5.18669">
        <ele>826.3</ele>
        <time>2024-07-01T09:41:47Z</time>
      </trkpt>
      <trkpt lat="44.8678" lon="5.18668">
        <ele>826.2</ele>
        <time>2024-07-01T09:41:48Z</time>
      </trkpt>
      <trkpt lat="44.8678" lon="5.18667">
        <ele>826.1</ele>
        <time>2024-07-01T09:41:49Z</time>
      </trkpt>
      <trkpt lat="44.86781" lon="5.18666">
        <ele>826</ele>
        <time>2024-07-01T09:41:50Z</time>
      </trkpt>
      <trkpt lat="44.86781" lon="5.18666">
        <ele>826</ele>
        <time>2024-07-01T09:41:51Z</time>
      </trkpt>
      <trkpt lat="44.86782" lon="5.18663">
        <ele>825.9</ele>
        <time>2024-07-01T09:41:52Z</time>
      </trkpt>
      <trkpt lat="44.86784" lon="5.18661">
        <ele>825.7</ele>
        <time>2024-07-01T09:41:54Z</time>
      </trkpt>
      <trkpt lat="44.86784" lon="5.18661">
        <ele>825.7</ele>
        <time>2024-07-01T09:41:56Z</time>
      </trkpt>
      <trkpt lat="44.86785" lon="5.1866">
        <ele>825.7</ele>
        <time>2024-07-01T09:41:57Z</time>
      </trkpt>
      <trkpt lat="44.86785" lon="5.18659">
        <ele>825.6</ele>
        <time>2024-07-01T09:41:58Z</time>
      </trkpt>
      <trkpt lat="44.86786" lon="5.18657">
        <ele>825.5</ele>
        <time>2024-07-01T09:41:59Z</time>
      </trkpt>
      <trkpt lat="44.86787" lon="5.18656">
        <ele>825.5</ele>
        <time>2024-07-01T09:42:01Z</time>
      </trkpt>
      <trkpt lat="44.86787" lon="5.18657">
        <ele>825.5</ele>
        <time>2024-07-01T09:42:02Z</time>
      </trkpt>
      <trkpt lat="44.86787" lon="5.18656">
        <ele>825.5</ele>
        <time>2024-07-01T09:42:03Z</time>
      </trkpt>
      <trkpt lat="44.86787" lon="5.18656">
        <ele>825.5</ele>
        <time>2024-07-01T09:42:04Z</time>
      </trkpt>
      <trkpt lat="44.86787" lon="5.18656">
        <ele>825.5</ele>
        <time>2024-07-01T09:42:05Z</time>
      </trkpt>
      <trkpt lat="44.86787" lon="5.18656">
        <ele>825.5</ele>
        <time>2024-07-01T09:42:06Z</time>
      </trkpt>
      <trkpt lat="44.86787" lon="5.18655">
        <ele>825.5</ele>
        <time>2024-07-01T09:42:07Z</time>
      </trkpt>
      <trkpt lat="44.86787" lon="5.18655">
        <ele>825.5</ele>
        <time>2024-07-01T09:42:08Z</time>
      </trkpt>
      <trkpt lat="44.86787" lon="5.18655">
        <ele>825.5</ele>
        <time>2024-07-01T09:42:09Z</time>
      </trkpt>
      <trkpt lat="44.86787" lon="5.18654">
        <ele>825.4</ele>
        <time>2024-07-01T09:42:10Z</time>
      </trkpt>
      <trkpt lat="44.86787" lon="5.18653">
        <ele>825.4</ele>
        <time>2024-07-01T09:42:11Z</time>
      </trkpt>
      <trkpt lat="44.86787" lon="5.18653">
        <ele>825.4</ele>
        <time>2024-07-01T09:42:13Z</time>
      </trkpt>
      <trkpt lat="44.86787" lon="5.18653">
        <ele>825.4</ele>
        <time>2024-07-01T09:42:14Z</time>
      </trkpt>
      <trkpt lat="44.86785" lon="5.18653">
        <ele>825.4</ele>
        <time>2024-07-01T09:42:15Z</time>
      </trkpt>
      <trkpt lat="44.86785" lon="5.18653">
        <ele>825.4</ele>
        <time>2024-07-01T09:42:16Z</time>
      </trkpt>
      <trkpt lat="44.86785" lon="5.18654">
        <ele>825.4</ele>
        <time>2024-07-01T09:42:17Z</time>
      </trkpt>
      <trkpt lat="44.86785" lon="5.18654">
        <ele>825.4</ele>
        <time>2024-07-01T09:42:18Z</time>
      </trkpt>
      <trkpt lat="44.86785" lon="5.18654">
        <ele>825.4</ele>
        <time>2024-07-01T09:42:19Z</time>
      </trkpt>
      <trkpt lat="44.86786" lon="5.18654">
        <ele>825.4</ele>
        <time>2024-07-01T09:42:20Z</time>
      </trkpt>
      <trkpt lat="44.86786" lon="5.18654">
        <ele>825.4</ele>
        <time>2024-07-01T09:42:21Z</time>
      </trkpt>
      <trkpt lat="44.86787" lon="5.18654">
        <ele>825.4</ele>
        <time>2024-07-01T09:42:22Z</time>
      </trkpt>
      <trkpt lat="44.86787" lon="5.18654">
        <ele>825.4</ele>
        <time>2024-07-01T09:42:23Z</time>
      </trkpt>
      <trkpt lat="44.86788" lon="5.18653">
        <ele>825.4</ele>
        <time>2024-07-01T09:42:24Z</time>
      </trkpt>
      <trkpt lat="44.86789" lon="5.18652">
        <ele>825.4</ele>
        <time>2024-07-01T09:42:25Z</time>
      </trkpt>
      <trkpt lat="44.86789" lon="5.18651">
        <ele>825.4</ele>
        <time>2024-07-01T09:42:26Z</time>
      </trkpt>
      <trkpt lat="44.8679" lon="5.18651">
        <ele>825.4</ele>
        <time>2024-07-01T09:42:27Z</time>
      </trkpt>
      <trkpt lat="44.8679" lon="5.1865">
        <ele>825.4</ele>
        <time>2024-07-01T09:42:28Z</time>
      </trkpt>
      <trkpt lat="44.86792" lon="5.18649">
        <ele>825.4</ele>
        <time>2024-07-01T09:42:29Z</time>
      </trkpt>
      <trkpt lat="44.86792" lon="5.1865">
        <ele>825.5</ele>
        <time>2024-07-01T09:42:31Z</time>
      </trkpt>
      <trkpt lat="44.86792" lon="5.18651">
        <ele>825.5</ele>
        <time>2024-07-01T09:42:32Z</time>
      </trkpt>
      <trkpt lat="44.86793" lon="5.18651">
        <ele>825.5</ele>
        <time>2024-07-01T09:42:33Z</time>
      </trkpt>
      <trkpt lat="44.86794" lon="5.18652">
        <ele>825.5</ele>
        <time>2024-07-01T09:42:34Z</time>
      </trkpt>
      <trkpt lat="44.86794" lon="5.18653">
        <ele>825.6</ele>
        <time>2024-07-01T09:42:35Z</time>
      </trkpt>
      <trkpt lat="44.86794" lon="5.18654">
        <ele>825.6</ele>
        <time>2024-07-01T09:42:36Z</time>
      </trkpt>
      <trkpt lat="44.86794" lon="5.18655">
        <ele>825.6</ele>
        <time>2024-07-01T09:42:37Z</time>
      </trkpt>
      <trkpt lat="44.86794" lon="5.18654">
        <ele>825.6</ele>
        <time>2024-07-01T09:42:38Z</time>
      </trkpt>
      <trkpt lat="44.86795" lon="5.18655">
        <ele>825.6</ele>
        <time>2024-07-01T09:42:39Z</time>
      </trkpt>
      <trkpt lat="44.86795" lon="5.18655">
        <ele>825.6</ele>
        <time>2024-07-01T09:42:40Z</time>
      </trkpt>
      <trkpt lat="44.86796" lon="5.18656">
        <ele>825.7</ele>
        <time>2024-07-01T09:42:41Z</time>
      </trkpt>
      <trkpt lat="44.86797" lon="5.18656">
        <ele>825.7</ele>
        <time>2024-07-01T09:42:42Z</time>
      </trkpt>
      <trkpt lat="44.86797" lon="5.18657">
        <ele>825.7</ele>
        <time>2024-07-01T09:42:43Z</time>
      </trkpt>
      <trkpt lat="44.86797" lon="5.18658">
        <ele>825.8</ele>
        <time>2024-07-01T09:42:44Z</time>
      </trkpt>
      <trkpt lat="44.86798" lon="5.18659">
        <ele>825.8</ele>
        <time>2024-07-01T09:42:45Z</time>
      </trkpt>
      <trkpt lat="44.86798" lon="5.1866">
        <ele>825.8</ele>
        <time>2024-07-01T09:42:46Z</time>
      </trkpt>
      <trkpt lat="44.86798" lon="5.18662">
        <ele>825.9</ele>
        <time>2024-07-01T09:42:48Z</time>
      </trkpt>
      <trkpt lat="44.86798" lon="5.18663">
        <ele>825.9</ele>
        <time>2024-07-01T09:42:50Z</time>
      </trkpt>
      <trkpt lat="44.86799" lon="5.18664">
        <ele>825.9</ele>
        <time>2024-07-01T09:42:51Z</time>
      </trkpt>
      <trkpt lat="44.86799" lon="5.18665">
        <ele>826</ele>
        <time>2024-07-01T09:42:52Z</time>
      </trkpt>
      <trkpt lat="44.86799" lon="5.18666">
        <ele>826</ele>
        <time>2024-07-01T09:42:53Z</time>
      </trkpt>
      <trkpt lat="44.86799" lon="5.18666">
        <ele>826</ele>
        <time>2024-07-01T09:42:54Z</time>
      </trkpt>
      <trkpt lat="44.86799" lon="5.18667">
        <ele>826</ele>
        <time>2024-07-01T09:42:55Z</time>
      </trkpt>
      <trkpt lat="44.86799" lon="5.18666">
        <ele>826</ele>
        <time>2024-07-01T09:42:56Z</time>
      </trkpt>
      <trkpt lat="44.868" lon="5.18667">
        <ele>826.1</ele>
        <time>2024-07-01T09:42:57Z</time>
      </trkpt>
      <trkpt lat="44.86801" lon="5.18667">
        <ele>826.1</ele>
        <time>2024-07-01T09:42:59Z</time>
      </trkpt>
      <trkpt lat="44.86802" lon="5.18668">
        <ele>826.1</ele>
        <time>2024-07-01T09:43:00Z</time>
      </trkpt>
      <trkpt lat="44.86803" lon="5.18668">
        <ele>826.1</ele>
        <time>2024-07-01T09:43:01Z</time>
      </trkpt>
      <trkpt lat="44.86803" lon="5.18668">
        <ele>826.2</ele>
        <time>2024-07-01T09:43:03Z</time>
      </trkpt>
      <trkpt lat="44.86804" lon="5.18669">
        <ele>826.2</ele>
        <time>2024-07-01T09:43:04Z</time>
      </trkpt>
      <trkpt lat="44.86805" lon="5.18669">
        <ele>826.2</ele>
        <time>2024-07-01T09:43:05Z</time>
      </trkpt>
      <trkpt lat="44.86806" lon="5.1867">
        <ele>826.2</ele>
        <time>2024-07-01T09:43:06Z</time>
      </trkpt>
      <trkpt lat="44.86807" lon="5.18671">
        <ele>826.3</ele>
        <time>2024-07-01T09:43:07Z</time>
      </trkpt>
      <trkpt lat="44.86808" lon="5.18671">
        <ele>826.3</ele>
        <time>2024-07-01T09:43:08Z</time>
      </trkpt>
      <trkpt lat="44.86808" lon="5.1867">
        <ele>826.3</ele>
        <time>2024-07-01T09:43:10Z</time>
      </trkpt>
      <trkpt lat="44.8681" lon="5.18669">
        <ele>826.3</ele>
        <time>2024-07-01T09:43:11Z</time>
      </trkpt>
      <trkpt lat="44.86811" lon="5.18669">
        <ele>826.3</ele>
        <time>2024-07-01T09:43:13Z</time>
      </trkpt>
      <trkpt lat="44.86811" lon="5.18669">
        <ele>826.3</ele>
        <time>2024-07-01T09:43:14Z</time>
      </trkpt>
      <trkpt lat="44.86812" lon="5.1867">
        <ele>826.3</ele>
        <time>2024-07-01T09:43:15Z</time>
      </trkpt>
      <trkpt lat="44.86813" lon="5.1867">
        <ele>826.3</ele>
        <time>2024-07-01T09:43:16Z</time>
      </trkpt>
      <trkpt lat="44.86814" lon="5.18671">
        <ele>826.3</ele>
        <time>2024-07-01T09:43:17Z</time>
      </trkpt>
      <trkpt lat="44.86816" lon="5.18672">
        <ele>826.3</ele>
        <time>2024-07-01T09:43:18Z</time>
      </trkpt>
      <trkpt lat="44.86817" lon="5.18672">
        <ele>826.3</ele>
        <time>2024-07-01T09:43:20Z</time>
      </trkpt>
      <trkpt lat="44.86818" lon="5.18672">
        <ele>826.3</ele>
        <time>2024-07-01T09:43:21Z</time>
      </trkpt>
      <trkpt lat="44.8682" lon="5.18673">
        <ele>826.3</ele>
        <time>2024-07-01T09:43:22Z</time>
      </trkpt>
      <trkpt lat="44.86821" lon="5.18673">
        <ele>826.2</ele>
        <time>2024-07-01T09:43:24Z</time>
      </trkpt>
      <trkpt lat="44.86821" lon="5.18673">
        <ele>826.2</ele>
        <time>2024-07-01T09:43:25Z</time>
      </trkpt>
      <trkpt lat="44.86822" lon="5.18672">
        <ele>826.2</ele>
        <time>2024-07-01T09:43:26Z</time>
      </trkpt>
      <trkpt lat="44.86823" lon="5.18672">
        <ele>826.2</ele>
        <time>2024-07-01T09:43:27Z</time>
      </trkpt>
      <trkpt lat="44.86824" lon="5.18672">
        <ele>826.2</ele>
        <time>2024-07-01T09:43:28Z</time>
      </trkpt>
      <trkpt lat="44.86825" lon="5.18671">
        <ele>826.2</ele>
        <time>2024-07-01T09:43:29Z</time>
      </trkpt>
      <trkpt lat="44.86827" lon="5.18671">
        <ele>826.2</ele>
        <time>2024-07-01T09:43:30Z</time>
      </trkpt>
      <trkpt lat="44.86828" lon="5.1867">
        <ele>826.2</ele>
        <time>2024-07-01T09:43:32Z</time>
      </trkpt>
      <trkpt lat="44.8683" lon="5.18669">
        <ele>826.1</ele>
        <time>2024-07-01T09:43:33Z</time>
      </trkpt>
      <trkpt lat="44.8683" lon="5.18669">
        <ele>826.1</ele>
        <time>2024-07-01T09:43:35Z</time>
      </trkpt>
      <trkpt lat="44.86832" lon="5.18668">
        <ele>826.1</ele>
        <time>2024-07-01T09:43:36Z</time>
      </trkpt>
      <trkpt lat="44.86832" lon="5.18668">
        <ele>826.1</ele>
        <time>2024-07-01T09:43:37Z</time>
      </trkpt>
      <trkpt lat="44.86833" lon="5.18668">
        <ele>826.1</ele>
        <time>2024-07-01T09:43:39Z</time>
      </trkpt>
      <trkpt lat="44.86834" lon="5.18668">
        <ele>826.1</ele>
        <time>2024-07-01T09:43:40Z</time>
      </trkpt>
      <trkpt lat="44.86835" lon="5.18668">
        <ele>826.1</ele>
        <time>2024-07-01T09:43:41Z</time>
      </trkpt>
      <trkpt lat="44.86836" lon="5.18668">
        <ele>826</ele>
        <time>2024-07-01T09:43:42Z</time>
      </trkpt>
      <trkpt lat="44.86838" lon="5.18668">
        <ele>826</ele>
        <time>2024-07-01T09:43:43Z</time>
      </trkpt>
      <trkpt lat="44.86839" lon="5.18668">
        <ele>826</ele>
        <time>2024-07-01T09:43:44Z</time>
      </trkpt>
      <trkpt lat="44.86841" lon="5.18669">
        <ele>826</ele>
        <time>2024-07-01T09:43:45Z</time>
      </trkpt>
      <trkpt lat="44.86842" lon="5.18669">
        <ele>825.9</ele>
        <time>2024-07-01T09:43:47Z</time>
      </trkpt>
      <trkpt lat="44.86842" lon="5.18669">
        <ele>825.9</ele>
        <time>2024-07-01T09:43:48Z</time>
      </trkpt>
      <trkpt lat="44.86844" lon="5.18669">
        <ele>825.9</ele>
        <time>2024-07-01T09:43:49Z</time>
      </trkpt>
      <trkpt lat="44.86845" lon="5.18669">
        <ele>825.9</ele>
        <time>2024-07-01T09:43:50Z</time>
      </trkpt>
      <trkpt lat="44.86846" lon="5.18669">
        <ele>825.8</ele>
        <time>2024-07-01T09:43:51Z</time>
      </trkpt>
      <trkpt lat="44.86847" lon="5.18669">
        <ele>825.8</ele>
        <time>2024-07-01T09:43:52Z</time>
      </trkpt>
      <trkpt lat="44.86848" lon="5.18669">
        <ele>825.8</ele>
        <time>2024-07-01T09:43:53Z</time>
      </trkpt>
      <trkpt lat="44.8685" lon="5.1867">
        <ele>825.7</ele>
        <time>2024-07-01T09:43:54Z</time>
      </trkpt>
      <trkpt lat="44.8685" lon="5.1867">
        <ele>825.7</ele>
        <time>2024-07-01T09:43:55Z</time>
      </trkpt>
      <trkpt lat="44.86852" lon="5.18671">
        <ele>825.7</ele>
        <time>2024-07-01T09:43:56Z</time>
      </trkpt>
      <trkpt lat="44.86854" lon="5.18671">
        <ele>825.6</ele>
        <time>2024-07-01T09:43:57Z</time>
      </trkpt>
      <trkpt lat="44.86855" lon="5.1867">
        <ele>825.6</ele>
        <time>2024-07-01T09:43:59Z</time>
      </trkpt>
      <trkpt lat="44.86856" lon="5.1867">
        <ele>825.6</ele>
        <time>2024-07-01T09:44:00Z</time>
      </trkpt>
      <trkpt lat="44.86857" lon="5.1867">
        <ele>825.6</ele>
        <time>2024-07-01T09:44:01Z</time>
      </trkpt>
      <trkpt lat="44.86858" lon="5.18671">
        <ele>825.5</ele>
        <time>2024-07-01T09:44:02Z</time>
      </trkpt>
      <trkpt lat="44.86859" lon="5.18671">
        <ele>825.5</ele>
        <time>2024-07-01T09:44:03Z</time>
      </trkpt>
      <trkpt lat="44.8686" lon="5.18671">
        <ele>825.5</ele>
        <time>2024-07-01T09:44:04Z</time>
      </trkpt>
      <trkpt lat="44.86861" lon="5.18671">
        <ele>825.4</ele>
        <time>2024-07-01T09:44:05Z</time>
      </trkpt>
      <trkpt lat="44.86862" lon="5.18671">
        <ele>825.4</ele>
        <time>2024-07-01T09:44:06Z</time>
      </trkpt>
      <trkpt lat="44.86863" lon="5.18671">
        <ele>825.4</ele>
        <time>2024-07-01T09:44:07Z</time>
      </trkpt>
      <trkpt lat="44.86865" lon="5.18671">
        <ele>825.3</ele>
        <time>2024-07-01T09:44:08Z</time>
      </trkpt>
      <trkpt lat="44.86866" lon="5.18671">
        <ele>825.3</ele>
        <time>2024-07-01T09:44:09Z</time>
      </trkpt>
      <trkpt lat="44.86867" lon="5.18672">
        <ele>825.3</ele>
        <time>2024-07-01T09:44:10Z</time>
      </trkpt>
      <trkpt lat="44.86868" lon="5.18672">
        <ele>825.3</ele>
        <time>2024-07-01T09:44:11Z</time>
      </trkpt>
      <trkpt lat="44.86871" lon="5.18672">
        <ele>825.2</ele>
        <time>2024-07-01T09:44:12Z</time>
      </trkpt>
      <trkpt lat="44.86874" lon="5.18673">
        <ele>825.1</ele>
        <time>2024-07-01T09:44:14Z</time>
      </trkpt>
      <trkpt lat="44.86874" lon="5.18673">
        <ele>825.1</ele>
        <time>2024-07-01T09:44:15Z</time>
      </trkpt>
      <trkpt lat="44.86875" lon="5.18673">
        <ele>825.1</ele>
        <time>2024-07-01T09:44:16Z</time>
      </trkpt>
      <trkpt lat="44.86876" lon="5.18673">
        <ele>825.1</ele>
        <time>2024-07-01T09:44:17Z</time>
      </trkpt>
      <trkpt lat="44.86878" lon="5.18674">
        <ele>825.1</ele>
        <time>2024-07-01T09:44:19Z</time>
      </trkpt>
      <trkpt lat="44.86879" lon="5.18675">
        <ele>825</ele>
        <time>2024-07-01T09:44:20Z</time>
      </trkpt>
      <trkpt lat="44.86881" lon="5.18675">
        <ele>825</ele>
        <time>2024-07-01T09:44:22Z</time>
      </trkpt>
      <trkpt lat="44.86882" lon="5.18676">
        <ele>825</ele>
        <time>2024-07-01T09:44:23Z</time>
      </trkpt>
      <trkpt lat="44.86883" lon="5.18676">
        <ele>824.9</ele>
        <time>2024-07-01T09:44:24Z</time>
      </trkpt>
      <trkpt lat="44.86885" lon="5.18677">
        <ele>824.9</ele>
        <time>2024-07-01T09:44:25Z</time>
      </trkpt>
      <trkpt lat="44.86886" lon="5.18678">
        <ele>824.8</ele>
        <time>2024-07-01T09:44:27Z</time>
      </trkpt>
      <trkpt lat="44.86889" lon="5.1868">
        <ele>824.8</ele>
        <time>2024-07-01T09:44:28Z</time>
      </trkpt>
      <trkpt lat="44.8689" lon="5.1868">
        <ele>824.8</ele>
        <time>2024-07-01T09:44:29Z</time>
      </trkpt>
      <trkpt lat="44.86891" lon="5.18681">
        <ele>824.7</ele>
        <time>2024-07-01T09:44:31Z</time>
      </trkpt>
      <trkpt lat="44.86892" lon="5.18682">
        <ele>824.7</ele>
        <time>2024-07-01T09:44:32Z</time>
      </trkpt>
      <trkpt lat="44.86893" lon="5.18682">
        <ele>824.7</ele>
        <time>2024-07-01T09:44:33Z</time>
      </trkpt>
      <trkpt lat="44.86894" lon="5.18683">
        <ele>824.6</ele>
        <time>2024-07-01T09:44:34Z</time>
      </trkpt>
      <trkpt lat="44.86894" lon="5.18684">
        <ele>824.6</ele>
        <time>2024-07-01T09:44:35Z</time>
      </trkpt>
      <trkpt lat="44.86895" lon="5.18684">
        <ele>824.5</ele>
        <time>2024-07-01T09:44:36Z</time>
      </trkpt>
      <trkpt lat="44.86897" lon="5.18685">
        <ele>824.5</ele>
        <time>2024-07-01T09:44:37Z</time>
      </trkpt>
      <trkpt lat="44.86898" lon="5.18685">
        <ele>824.5</ele>
        <time>2024-07-01T09:44:38Z</time>
      </trkpt>
      <trkpt lat="44.869" lon="5.18686">
        <ele>824.4</ele>
        <time>2024-07-01T09:44:39Z</time>
      </trkpt>
      <trkpt lat="44.869" lon="5.18686">
        <ele>824.4</ele>
        <time>2024-07-01T09:44:40Z</time>
      </trkpt>
      <trkpt lat="44.86901" lon="5.18686">
        <ele>824.3</ele>
        <time>2024-07-01T09:44:41Z</time>
      </trkpt>
      <trkpt lat="44.86903" lon="5.18687">
        <ele>824.3</ele>
        <time>2024-07-01T09:44:42Z</time>
      </trkpt>
      <trkpt lat="44.86905" lon="5.18687">
        <ele>824.2</ele>
        <time>2024-07-01T09:44:44Z</time>
      </trkpt>
      <trkpt lat="44.86906" lon="5.18688">
        <ele>824.2</ele>
        <time>2024-07-01T09:44:45Z</time>
      </trkpt>
      <trkpt lat="44.86907" lon="5.18688">
        <ele>824.1</ele>
        <time>2024-07-01T09:44:46Z</time>
      </trkpt>
      <trkpt lat="44.86908" lon="5.18688">
        <ele>824.1</ele>
        <time>2024-07-01T09:44:47Z</time>
      </trkpt>
      <trkpt lat="44.8691" lon="5.1869">
        <ele>824</ele>
        <time>2024-07-01T09:44:48Z</time>
      </trkpt>
      <trkpt lat="44.86911" lon="5.1869">
        <ele>824</ele>
        <time>2024-07-01T09:44:50Z</time>
      </trkpt>
      <trkpt lat="44.86913" lon="5.18691">
        <ele>823.9</ele>
        <time>2024-07-01T09:44:51Z</time>
      </trkpt>
      <trkpt lat="44.86914" lon="5.18691">
        <ele>823.9</ele>
        <time>2024-07-01T09:44:52Z</time>
      </trkpt>
      <trkpt lat="44.86915" lon="5.18692">
        <ele>823.8</ele>
        <time>2024-07-01T09:44:53Z</time>
      </trkpt>
      <trkpt lat="44.86917" lon="5.18693">
        <ele>823.8</ele>
        <time>2024-07-01T09:44:54Z</time>
      </trkpt>
      <trkpt lat="44.86918" lon="5.18693">
        <ele>823.7</ele>
        <time>2024-07-01T09:44:55Z</time>
      </trkpt>
      <trkpt lat="44.86918" lon="5.18694">
        <ele>823.7</ele>
        <time>2024-07-01T09:44:56Z</time>
      </trkpt>
      <trkpt lat="44.86921" lon="5.18695">
        <ele>823.6</ele>
        <time>2024-07-01T09:44:57Z</time>
      </trkpt>
      <trkpt lat="44.86922" lon="5.18695">
        <ele>823.6</ele>
        <time>2024-07-01T09:44:58Z</time>
      </trkpt>
      <trkpt lat="44.86923" lon="5.18695">
        <ele>823.6</ele>
        <time>2024-07-01T09:44:59Z</time>
      </trkpt>
      <trkpt lat="44.86923" lon="5.18695">
        <ele>823.5</ele>
        <time>2024-07-01T09:45:00Z</time>
      </trkpt>
      <trkpt lat="44.86925" lon="5.18695">
        <ele>823.5</ele>
        <time>2024-07-01T09:45:01Z</time>
      </trkpt>
      <trkpt lat="44.86927" lon="5.18695">
        <ele>823.5</ele>
        <time>2024-07-01T09:45:02Z</time>
      </trkpt>
      <trkpt lat="44.86929" lon="5.18695">
        <ele>823.4</ele>
        <time>2024-07-01T09:45:04Z</time>
      </trkpt>
      <trkpt lat="44.8693" lon="5.18695">
        <ele>823.4</ele>
        <time>2024-07-01T09:45:05Z</time>
      </trkpt>
      <trkpt lat="44.86931" lon="5.18696">
        <ele>823.4</ele>
        <time>2024-07-01T09:45:06Z</time>
      </trkpt>
      <trkpt lat="44.86932" lon="5.18697">
        <ele>823.3</ele>
        <time>2024-07-01T09:45:07Z</time>
      </trkpt>
      <trkpt lat="44.86933" lon="5.18698">
        <ele>823.3</ele>
        <time>2024-07-01T09:45:08Z</time>
      </trkpt>
      <trkpt lat="44.86935" lon="5.18698">
        <ele>823.3</ele>
        <time>2024-07-01T09:45:09Z</time>
      </trkpt>
      <trkpt lat="44.86936" lon="5.18699">
        <ele>823.2</ele>
        <time>2024-07-01T09:45:10Z</time>
      </trkpt>
      <trkpt lat="44.86937" lon="5.187">
        <ele>823.2</ele>
        <time>2024-07-01T09:45:11Z</time>
      </trkpt>
      <trkpt lat="44.86938" lon="5.187">
        <ele>823.2</ele>
        <time>2024-07-01T09:45:12Z</time>
      </trkpt>
      <trkpt lat="44.8694" lon="5.18701">
        <ele>823.1</ele>
        <time>2024-07-01T09:45:13Z</time>
      </trkpt>
      <trkpt lat="44.86941" lon="5.18701">
        <ele>823.1</ele>
        <time>2024-07-01T09:45:14Z</time>
      </trkpt>
      <trkpt lat="44.86942" lon="5.18702">
        <ele>823.1</ele>
        <time>2024-07-01T09:45:16Z</time>
      </trkpt>
      <trkpt lat="44.86944" lon="5.18702">
        <ele>823.1</ele>
        <time>2024-07-01T09:45:18Z</time>
      </trkpt>
      <trkpt lat="44.86945" lon="5.18702">
        <ele>823.1</ele>
        <time>2024-07-01T09:45:19Z</time>
      </trkpt>
      <trkpt lat="44.86945" lon="5.18702">
        <ele>823</ele>
        <time>2024-07-01T09:45:20Z</time>
      </trkpt>
      <trkpt lat="44.86947" lon="5.18703">
        <ele>823</ele>
        <time>2024-07-01T09:45:21Z</time>
      </trkpt>
      <trkpt lat="44.86949" lon="5.18703">
        <ele>823</ele>
        <time>2024-07-01T09:45:23Z</time>
      </trkpt>
      <trkpt lat="44.8695" lon="5.18703">
        <ele>822.9</ele>
        <time>2024-07-01T09:45:24Z</time>
      </trkpt>
      <trkpt lat="44.86951" lon="5.18704">
        <ele>822.9</ele>
        <time>2024-07-01T09:45:25Z</time>
      </trkpt>
      <trkpt lat="44.86952" lon="5.18704">
        <ele>822.9</ele>
        <time>2024-07-01T09:45:26Z</time>
      </trkpt>
      <trkpt lat="44.86953" lon="5.18705">
        <ele>822.9</ele>
        <time>2024-07-01T09:45:27Z</time>
      </trkpt>
      <trkpt lat="44.86954" lon="5.18705">
        <ele>822.9</ele>
        <time>2024-07-01T09:45:28Z</time>
      </trkpt>
      <trkpt lat="44.86955" lon="5.18707">
        <ele>822.9</ele>
        <time>2024-07-01T09:45:29Z</time>
      </trkpt>
      <trkpt lat="44.86957" lon="5.18708">
        <ele>822.8</ele>
        <time>2024-07-01T09:45:30Z</time>
      </trkpt>
      <trkpt lat="44.86957" lon="5.18709">
        <ele>822.8</ele>
        <time>2024-07-01T09:45:32Z</time>
      </trkpt>
      <trkpt lat="44.86958" lon="5.1871">
        <ele>822.8</ele>
        <time>2024-07-01T09:45:33Z</time>
      </trkpt>
      <trkpt lat="44.86959" lon="5.18711">
        <ele>822.8</ele>
        <time>2024-07-01T09:45:34Z</time>
      </trkpt>
      <trkpt lat="44.86961" lon="5.18713">
        <ele>822.8</ele>
        <time>2024-07-01T09:45:35Z</time>
      </trkpt>
      <trkpt lat="44.86961" lon="5.18714">
        <ele>822.8</ele>
        <time>2024-07-01T09:45:36Z</time>
      </trkpt>
      <trkpt lat="44.86962" lon="5.18714">
        <ele>822.8</ele>
        <time>2024-07-01T09:45:37Z</time>
      </trkpt>
      <trkpt lat="44.86963" lon="5.18715">
        <ele>822.8</ele>
        <time>2024-07-01T09:45:38Z</time>
      </trkpt>
      <trkpt lat="44.86964" lon="5.18716">
        <ele>822.8</ele>
        <time>2024-07-01T09:45:39Z</time>
      </trkpt>
      <trkpt lat="44.86964" lon="5.18717">
        <ele>822.8</ele>
        <time>2024-07-01T09:45:40Z</time>
      </trkpt>
      <trkpt lat="44.86965" lon="5.18718">
        <ele>822.8</ele>
        <time>2024-07-01T09:45:41Z</time>
      </trkpt>
      <trkpt lat="44.86966" lon="5.1872">
        <ele>822.8</ele>
        <time>2024-07-01T09:45:42Z</time>
      </trkpt>
      <trkpt lat="44.86966" lon="5.18721">
        <ele>822.8</ele>
        <time>2024-07-01T09:45:43Z</time>
      </trkpt>
      <trkpt lat="44.86966" lon="5.18723">
        <ele>822.8</ele>
        <time>2024-07-01T09:45:44Z</time>
      </trkpt>
      <trkpt lat="44.86966" lon="5.18724">
        <ele>822.8</ele>
        <time>2024-07-01T09:45:45Z</time>
      </trkpt>
      <trkpt lat="44.86968" lon="5.18727">
        <ele>822.8</ele>
        <time>2024-07-01T09:45:46Z</time>
      </trkpt>
      <trkpt lat="44.86968" lon="5.18729">
        <ele>822.8</ele>
        <time>2024-07-01T09:45:48Z</time>
      </trkpt>
      <trkpt lat="44.86969" lon="5.1873">
        <ele>822.8</ele>
        <time>2024-07-01T09:45:49Z</time>
      </trkpt>
      <trkpt lat="44.8697" lon="5.18733">
        <ele>822.7</ele>
        <time>2024-07-01T09:45:50Z</time>
      </trkpt>
      <trkpt lat="44.86971" lon="5.18734">
        <ele>822.7</ele>
        <time>2024-07-01T09:45:52Z</time>
      </trkpt>
      <trkpt lat="44.86973" lon="5.18736">
        <ele>822.7</ele>
        <time>2024-07-01T09:45:53Z</time>
      </trkpt>
      <trkpt lat="44.86974" lon="5.18737">
        <ele>822.7</ele>
        <time>2024-07-01T09:45:54Z</time>
      </trkpt>
      <trkpt lat="44.86974" lon="5.18737">
        <ele>822.7</ele>
        <time>2024-07-01T09:45:55Z</time>
      </trkpt>
      <trkpt lat="44.86976" lon="5.1874">
        <ele>822.7</ele>
        <time>2024-07-01T09:45:56Z</time>
      </trkpt>
      <trkpt lat="44.86976" lon="5.1874">
        <ele>822.7</ele>
        <time>2024-07-01T09:45:57Z</time>
      </trkpt>
      <trkpt lat="44.86977" lon="5.18741">
        <ele>822.6</ele>
        <time>2024-07-01T09:45:58Z</time>
      </trkpt>
      <trkpt lat="44.86979" lon="5.18743">
        <ele>822.6</ele>
        <time>2024-07-01T09:45:59Z</time>
      </trkpt>
      <trkpt lat="44.8698" lon="5.18744">
        <ele>822.6</ele>
        <time>2024-07-01T09:46:01Z</time>
      </trkpt>
      <trkpt lat="44.86982" lon="5.18747">
        <ele>822.5</ele>
        <time>2024-07-01T09:46:02Z</time>
      </trkpt>
      <trkpt lat="44.86983" lon="5.18748">
        <ele>822.4</ele>
        <time>2024-07-01T09:46:04Z</time>
      </trkpt>
      <trkpt lat="44.86984" lon="5.18749">
        <ele>822.4</ele>
        <time>2024-07-01T09:46:05Z</time>
      </trkpt>
      <trkpt lat="44.86985" lon="5.1875">
        <ele>822.3</ele>
        <time>2024-07-01T09:46:06Z</time>
      </trkpt>
      <trkpt lat="44.86986" lon="5.18751">
        <ele>822.2</ele>
        <time>2024-07-01T09:46:07Z</time>
      </trkpt>
      <trkpt lat="44.86987" lon="5.18753">
        <ele>822.2</ele>
        <time>2024-07-01T09:46:09Z</time>
      </trkpt>
      <trkpt lat="44.86988" lon="5.18753">
        <ele>822.1</ele>
        <time>2024-07-01T09:46:10Z</time>
      </trkpt>
      <trkpt lat="44.86989" lon="5.18756">
        <ele>822</ele>
        <time>2024-07-01T09:46:11Z</time>
      </trkpt>
      <trkpt lat="44.86989" lon="5.18757">
        <ele>821.9</ele>
        <time>2024-07-01T09:46:12Z</time>
      </trkpt>
      <trkpt lat="44.86989" lon="5.18759">
        <ele>821.8</ele>
        <time>2024-07-01T09:46:13Z</time>
      </trkpt>
      <trkpt lat="44.8699" lon="5.1876">
        <ele>821.8</ele>
        <time>2024-07-01T09:46:14Z</time>
      </trkpt>
      <trkpt lat="44.86991" lon="5.18762">
        <ele>821.6</ele>
        <time>2024-07-01T09:46:15Z</time>
      </trkpt>
      <trkpt lat="44.86992" lon="5.18764">
        <ele>821.5</ele>
        <time>2024-07-01T09:46:16Z</time>
      </trkpt>
      <trkpt lat="44.86994" lon="5.18765">
        <ele>821.4</ele>
        <time>2024-07-01T09:46:17Z</time>
      </trkpt>
      <trkpt lat="44.86994" lon="5.18766">
        <ele>821.3</ele>
        <time>2024-07-01T09:46:18Z</time>
      </trkpt>
      <trkpt lat="44.86995" lon="5.18768">
        <ele>821.2</ele>
        <time>2024-07-01T09:46:19Z</time>
      </trkpt>
      <trkpt lat="44.86995" lon="5.18768">
        <ele>821.1</ele>
        <time>2024-07-01T09:46:20Z</time>
      </trkpt>
      <trkpt lat="44.86994" lon="5.18768">
        <ele>821.1</ele>
        <time>2024-07-01T09:46:21Z</time>
      </trkpt>
      <trkpt lat="44.86994" lon="5.18768">
        <ele>821.1</ele>
        <time>2024-07-01T09:46:22Z</time>
      </trkpt>
      <trkpt lat="44.86994" lon="5.18768">
        <ele>821</ele>
        <time>2024-07-01T09:46:23Z</time>
      </trkpt>
      <trkpt lat="44.86994" lon="5.18768">
        <ele>821</ele>
        <time>2024-07-01T09:46:24Z</time>
      </trkpt>
      <trkpt lat="44.86994" lon="5.18768">
        <ele>821</ele>
        <time>2024-07-01T09:46:25Z</time>
      </trkpt>
      <trkpt lat="44.86993" lon="5.18768">
        <ele>821</ele>
        <time>2024-07-01T09:46:26Z</time>
      </trkpt>
      <trkpt lat="44.86994" lon="5.18768">
        <ele>821</ele>
        <time>2024-07-01T09:46:27Z</time>
      </trkpt>
      <trkpt lat="44.86994" lon="5.18768">
        <ele>821</ele>
        <time>2024-07-01T09:46:29Z</time>
      </trkpt>
      <trkpt lat="44.86994" lon="5.18768">
        <ele>820.9</ele>
        <time>2024-07-01T09:46:30Z</time>
      </trkpt>
      <trkpt lat="44.86995" lon="5.18768">
        <ele>820.9</ele>
        <time>2024-07-01T09:46:31Z</time>
      </trkpt>
      <trkpt lat="44.86997" lon="5.18768">
        <ele>820.7</ele>
        <time>2024-07-01T09:46:32Z</time>
      </trkpt>
      <trkpt lat="44.86998" lon="5.18768">
        <ele>820.6</ele>
        <time>2024-07-01T09:46:34Z</time>
      </trkpt>
      <trkpt lat="44.86999" lon="5.18768">
        <ele>820.5</ele>
        <time>2024-07-01T09:46:35Z</time>
      </trkpt>
      <trkpt lat="44.87" lon="5.18767">
        <ele>820.5</ele>
        <time>2024-07-01T09:46:36Z</time>
      </trkpt>
      <trkpt lat="44.87001" lon="5.18767">
        <ele>820.4</ele>
        <time>2024-07-01T09:46:37Z</time>
      </trkpt>
      <trkpt lat="44.87001" lon="5.18766">
        <ele>820.3</ele>
        <time>2024-07-01T09:46:38Z</time>
      </trkpt>
      <trkpt lat="44.87002" lon="5.18766">
        <ele>820.2</ele>
        <time>2024-07-01T09:46:39Z</time>
      </trkpt>
      <trkpt lat="44.87004" lon="5.18765">
        <ele>820.1</ele>
        <time>2024-07-01T09:46:40Z</time>
      </trkpt>
      <trkpt lat="44.87005" lon="5.18765">
        <ele>819.9</ele>
        <time>2024-07-01T09:46:41Z</time>
      </trkpt>
      <trkpt lat="44.87006" lon="5.18765">
        <ele>819.8</ele>
        <time>2024-07-01T09:46:42Z</time>
      </trkpt>
      <trkpt lat="44.87007" lon="5.18765">
        <ele>819.7</ele>
        <time>2024-07-01T09:46:44Z</time>
      </trkpt>
      <trkpt lat="44.87008" lon="5.18765">
        <ele>819.6</ele>
        <time>2024-07-01T09:46:45Z</time>
      </trkpt>
      <trkpt lat="44.87009" lon="5.18765">
        <ele>819.6</ele>
        <time>2024-07-01T09:46:46Z</time>
      </trkpt>
      <trkpt lat="44.8701" lon="5.18765">
        <ele>819.5</ele>
        <time>2024-07-01T09:46:47Z</time>
      </trkpt>
      <trkpt lat="44.8701" lon="5.18766">
        <ele>819.4</ele>
        <time>2024-07-01T09:46:48Z</time>
      </trkpt>
      <trkpt lat="44.87011" lon="5.18767">
        <ele>819.4</ele>
        <time>2024-07-01T09:46:49Z</time>
      </trkpt>
      <trkpt lat="44.87012" lon="5.18768">
        <ele>819.3</ele>
        <time>2024-07-01T09:46:50Z</time>
      </trkpt>
      <trkpt lat="44.87012" lon="5.1877">
        <ele>819.1</ele>
        <time>2024-07-01T09:46:51Z</time>
      </trkpt>
      <trkpt lat="44.87013" lon="5.18771">
        <ele>819.1</ele>
        <time>2024-07-01T09:46:52Z</time>
      </trkpt>
      <trkpt lat="44.87013" lon="5.18772">
        <ele>819.1</ele>
        <time>2024-07-01T09:46:53Z</time>
      </trkpt>
      <trkpt lat="44.87013" lon="5.18772">
        <ele>819.1</ele>
        <time>2024-07-01T09:46:54Z</time>
      </trkpt>
      <trkpt lat="44.87013" lon="5.18771">
        <ele>819.1</ele>
        <time>2024-07-01T09:46:55Z</time>
      </trkpt>
      <trkpt lat="44.87014" lon="5.18772">
        <ele>819</ele>
        <time>2024-07-01T09:46:56Z</time>
      </trkpt>
      <trkpt lat="44.87014" lon="5.18772">
        <ele>819</ele>
        <time>2024-07-01T09:46:57Z</time>
      </trkpt>
      <trkpt lat="44.87016" lon="5.18772">
        <ele>819</ele>
        <time>2024-07-01T09:46:58Z</time>
      </trkpt>
      <trkpt lat="44.87019" lon="5.18771">
        <ele>818.9</ele>
        <time>2024-07-01T09:46:59Z</time>
      </trkpt>
      <trkpt lat="44.8702" lon="5.18771">
        <ele>818.8</ele>
        <time>2024-07-01T09:47:00Z</time>
      </trkpt>
      <trkpt lat="44.87021" lon="5.18771">
        <ele>818.8</ele>
        <time>2024-07-01T09:47:01Z</time>
      </trkpt>
      <trkpt lat="44.87022" lon="5.18772">
        <ele>818.8</ele>
        <time>2024-07-01T09:47:02Z</time>
      </trkpt>
      <trkpt lat="44.87023" lon="5.18773">
        <ele>818.7</ele>
        <time>2024-07-01T09:47:03Z</time>
      </trkpt>
      <trkpt lat="44.87026" lon="5.18773">
        <ele>818.6</ele>
        <time>2024-07-01T09:47:04Z</time>
      </trkpt>
      <trkpt lat="44.87027" lon="5.18773">
        <ele>818.6</ele>
        <time>2024-07-01T09:47:06Z</time>
      </trkpt>
      <trkpt lat="44.87028" lon="5.18774">
        <ele>818.6</ele>
        <time>2024-07-01T09:47:07Z</time>
      </trkpt>
      <trkpt lat="44.87029" lon="5.18774">
        <ele>818.5</ele>
        <time>2024-07-01T09:47:09Z</time>
      </trkpt>
      <trkpt lat="44.87029" lon="5.18774">
        <ele>818.5</ele>
        <time>2024-07-01T09:47:10Z</time>
      </trkpt>
      <trkpt lat="44.87031" lon="5.18774">
        <ele>818.5</ele>
        <time>2024-07-01T09:47:11Z</time>
      </trkpt>
      <trkpt lat="44.87032" lon="5.18774">
        <ele>818.4</ele>
        <time>2024-07-01T09:47:13Z</time>
      </trkpt>
      <trkpt lat="44.87033" lon="5.18773">
        <ele>818.4</ele>
        <time>2024-07-01T09:47:14Z</time>
      </trkpt>
      <trkpt lat="44.87035" lon="5.18772">
        <ele>818.3</ele>
        <time>2024-07-01T09:47:16Z</time>
      </trkpt>
      <trkpt lat="44.87035" lon="5.18771">
        <ele>818.3</ele>
        <time>2024-07-01T09:47:17Z</time>
      </trkpt>
      <trkpt lat="44.87036" lon="5.18771">
        <ele>818.3</ele>
        <time>2024-07-01T09:47:18Z</time>
      </trkpt>
      <trkpt lat="44.87036" lon="5.18771">
        <ele>818.3</ele>
        <time>2024-07-01T09:47:19Z</time>
      </trkpt>
      <trkpt lat="44.87038" lon="5.18771">
        <ele>818.2</ele>
        <time>2024-07-01T09:47:20Z</time>
      </trkpt>
      <trkpt lat="44.87038" lon="5.18772">
        <ele>818.2</ele>
        <time>2024-07-01T09:47:21Z</time>
      </trkpt>
      <trkpt lat="44.87038" lon="5.18774">
        <ele>818.2</ele>
        <time>2024-07-01T09:47:22Z</time>
      </trkpt>
      <trkpt lat="44.87038" lon="5.18775">
        <ele>818.1</ele>
        <time>2024-07-01T09:47:23Z</time>
      </trkpt>
      <trkpt lat="44.87038" lon="5.18776">
        <ele>818.1</ele>
        <time>2024-07-01T09:47:24Z</time>
      </trkpt>
      <trkpt lat="44.87038" lon="5.18776">
        <ele>818.1</ele>
        <time>2024-07-01T09:47:25Z</time>
      </trkpt>
      <trkpt lat="44.87038" lon="5.18776">
        <ele>818.1</ele>
        <time>2024-07-01T09:47:26Z</time>
      </trkpt>
      <trkpt lat="44.87039" lon="5.18776">
        <ele>818.1</ele>
        <time>2024-07-01T09:47:27Z</time>
      </trkpt>
      <trkpt lat="44.87039" lon="5.18776">
        <ele>818.1</ele>
        <time>2024-07-01T09:47:28Z</time>
      </trkpt>
      <trkpt lat="44.87039" lon="5.18776">
        <ele>818.1</ele>
        <time>2024-07-01T09:47:29Z</time>
      </trkpt>
      <trkpt lat="44.8704" lon="5.18775">
        <ele>818.1</ele>
        <time>2024-07-01T09:47:30Z</time>
      </trkpt>
      <trkpt lat="44.87044" lon="5.18774">
        <ele>818</ele>
        <time>2024-07-01T09:47:32Z</time>
      </trkpt>
      <trkpt lat="44.87045" lon="5.18774">
        <ele>817.9</ele>
        <time>2024-07-01T09:47:33Z</time>
      </trkpt>
      <trkpt lat="44.87046" lon="5.18774">
        <ele>817.9</ele>
        <time>2024-07-01T09:47:34Z</time>
      </trkpt>
      <trkpt lat="44.87047" lon="5.18775">
        <ele>817.9</ele>
        <time>2024-07-01T09:47:35Z</time>
      </trkpt>
      <trkpt lat="44.87048" lon="5.18775">
        <ele>817.8</ele>
        <time>2024-07-01T09:47:36Z</time>
      </trkpt>
      <trkpt lat="44.87049" lon="5.18776">
        <ele>817.8</ele>
        <time>2024-07-01T09:47:37Z</time>
      </trkpt>
      <trkpt lat="44.8705" lon="5.18776">
        <ele>817.8</ele>
        <time>2024-07-01T09:47:38Z</time>
      </trkpt>
      <trkpt lat="44.87051" lon="5.18776">
        <ele>817.8</ele>
        <time>2024-07-01T09:47:39Z</time>
      </trkpt>
      <trkpt lat="44.87052" lon="5.18775">
        <ele>817.8</ele>
        <time>2024-07-01T09:47:40Z</time>
      </trkpt>
      <trkpt lat="44.87053" lon="5.18776">
        <ele>817.8</ele>
        <time>2024-07-01T09:47:41Z</time>
      </trkpt>
      <trkpt lat="44.87054" lon="5.18776">
        <ele>817.7</ele>
        <time>2024-07-01T09:47:42Z</time>
      </trkpt>
      <trkpt lat="44.87055" lon="5.18778">
        <ele>817.7</ele>
        <time>2024-07-01T09:47:43Z</time>
      </trkpt>
      <trkpt lat="44.87056" lon="5.18779">
        <ele>817.7</ele>
        <time>2024-07-01T09:47:44Z</time>
      </trkpt>
      <trkpt lat="44.87056" lon="5.1878">
        <ele>817.7</ele>
        <time>2024-07-01T09:47:45Z</time>
      </trkpt>
      <trkpt lat="44.87057" lon="5.18781">
        <ele>817.7</ele>
        <time>2024-07-01T09:47:47Z</time>
      </trkpt>
      <trkpt lat="44.87057" lon="5.18783">
        <ele>817.7</ele>
        <time>2024-07-01T09:47:48Z</time>
      </trkpt>
      <trkpt lat="44.87057" lon="5.18785">
        <ele>817.7</ele>
        <time>2024-07-01T09:47:49Z</time>
      </trkpt>
      <trkpt lat="44.87057" lon="5.18786">
        <ele>817.7</ele>
        <time>2024-07-01T09:47:51Z</time>
      </trkpt>
      <trkpt lat="44.87057" lon="5.18788">
        <ele>817.7</ele>
        <time>2024-07-01T09:47:52Z</time>
      </trkpt>
      <trkpt lat="44.87057" lon="5.1879">
        <ele>817.7</ele>
        <time>2024-07-01T09:47:53Z</time>
      </trkpt>
      <trkpt lat="44.87058" lon="5.1879">
        <ele>817.7</ele>
        <time>2024-07-01T09:47:54Z</time>
      </trkpt>
      <trkpt lat="44.87058" lon="5.18791">
        <ele>817.7</ele>
        <time>2024-07-01T09:47:55Z</time>
      </trkpt>
      <trkpt lat="44.87058" lon="5.18791">
        <ele>817.7</ele>
        <time>2024-07-01T09:47:56Z</time>
      </trkpt>
      <trkpt lat="44.87058" lon="5.18791">
        <ele>817.8</ele>
        <time>2024-07-01T09:47:57Z</time>
      </trkpt>
      <trkpt lat="44.87058" lon="5.18792">
        <ele>817.8</ele>
        <time>2024-07-01T09:47:58Z</time>
      </trkpt>
      <trkpt lat="44.87057" lon="5.18792">
        <ele>817.8</ele>
        <time>2024-07-01T09:47:59Z</time>
      </trkpt>
      <trkpt lat="44.87057" lon="5.18792">
        <ele>817.8</ele>
        <time>2024-07-01T09:48:00Z</time>
      </trkpt>
      <trkpt lat="44.87057" lon="5.18792">
        <ele>817.8</ele>
        <time>2024-07-01T09:48:01Z</time>
      </trkpt>
      <trkpt lat="44.87057" lon="5.18793">
        <ele>817.8</ele>
        <time>2024-07-01T09:48:02Z</time>
      </trkpt>
      <trkpt lat="44.87057" lon="5.18793">
        <ele>817.8</ele>
        <time>2024-07-01T09:48:03Z</time>
      </trkpt>
      <trkpt lat="44.87057" lon="5.18793">
        <ele>817.8</ele>
        <time>2024-07-01T09:48:05Z</time>
      </trkpt>
      <trkpt lat="44.87057" lon="5.18794">
        <ele>817.8</ele>
        <time>2024-07-01T09:48:06Z</time>
      </trkpt>
      <trkpt lat="44.87057" lon="5.18794">
        <ele>817.9</ele>
        <time>2024-07-01T09:48:07Z</time>
      </trkpt>
      <trkpt lat="44.87057" lon="5.18794">
        <ele>817.9</ele>
        <time>2024-07-01T09:48:08Z</time>
      </trkpt>
      <trkpt lat="44.87057" lon="5.18794">
        <ele>817.9</ele>
        <time>2024-07-01T09:48:09Z</time>
      </trkpt>
      <trkpt lat="44.87056" lon="5.18795">
        <ele>817.9</ele>
        <time>2024-07-01T09:48:10Z</time>
      </trkpt>
      <trkpt lat="44.87056" lon="5.18795">
        <ele>817.9</ele>
        <time>2024-07-01T09:48:11Z</time>
      </trkpt>
      <trkpt lat="44.87056" lon="5.18797">
        <ele>818</ele>
        <time>2024-07-01T09:48:12Z</time>
      </trkpt>
      <trkpt lat="44.87054" lon="5.18799">
        <ele>818.1</ele>
        <time>2024-07-01T09:48:13Z</time>
      </trkpt>
      <trkpt lat="44.87053" lon="5.188">
        <ele>818.2</ele>
        <time>2024-07-01T09:48:14Z</time>
      </trkpt>
      <trkpt lat="44.87053" lon="5.18801">
        <ele>818.2</ele>
        <time>2024-07-01T09:48:15Z</time>
      </trkpt>
      <trkpt lat="44.87051" lon="5.18802">
        <ele>818.4</ele>
        <time>2024-07-01T09:48:16Z</time>
      </trkpt>
      <trkpt lat="44.8705" lon="5.18803">
        <ele>818.5</ele>
        <time>2024-07-01T09:48:18Z</time>
      </trkpt>
      <trkpt lat="44.87049" lon="5.18804">
        <ele>818.6</ele>
        <time>2024-07-01T09:48:19Z</time>
      </trkpt>
      <trkpt lat="44.87048" lon="5.18805">
        <ele>818.6</ele>
        <time>2024-07-01T09:48:20Z</time>
      </trkpt>
      <trkpt lat="44.87047" lon="5.18807">
        <ele>818.8</ele>
        <time>2024-07-01T09:48:21Z</time>
      </trkpt>
      <trkpt lat="44.87046" lon="5.18809">
        <ele>818.9</ele>
        <time>2024-07-01T09:48:23Z</time>
      </trkpt>
      <trkpt lat="44.87045" lon="5.18811">
        <ele>819.1</ele>
        <time>2024-07-01T09:48:24Z</time>
      </trkpt>
      <trkpt lat="44.87045" lon="5.18813">
        <ele>819.2</ele>
        <time>2024-07-01T09:48:26Z</time>
      </trkpt>
      <trkpt lat="44.87044" lon="5.18814">
        <ele>819.3</ele>
        <time>2024-07-01T09:48:27Z</time>
      </trkpt>
      <trkpt lat="44.87043" lon="5.18815">
        <ele>819.5</ele>
        <time>2024-07-01T09:48:28Z</time>
      </trkpt>
      <trkpt lat="44.87043" lon="5.18816">
        <ele>819.5</ele>
        <time>2024-07-01T09:48:29Z</time>
      </trkpt>
      <trkpt lat="44.87043" lon="5.18817">
        <ele>819.6</ele>
        <time>2024-07-01T09:48:30Z</time>
      </trkpt>
      <trkpt lat="44.87042" lon="5.18818">
        <ele>819.7</ele>
        <time>2024-07-01T09:48:31Z</time>
      </trkpt>
      <trkpt lat="44.87042" lon="5.1882">
        <ele>819.8</ele>
        <time>2024-07-01T09:48:32Z</time>
      </trkpt>
      <trkpt lat="44.87042" lon="5.18821">
        <ele>819.9</ele>
        <time>2024-07-01T09:48:33Z</time>
      </trkpt>
      <trkpt lat="44.87041" lon="5.18822">
        <ele>820</ele>
        <time>2024-07-01T09:48:34Z</time>
      </trkpt>
      <trkpt lat="44.87041" lon="5.18823">
        <ele>820.1</ele>
        <time>2024-07-01T09:48:35Z</time>
      </trkpt>
      <trkpt lat="44.87041" lon="5.18825">
        <ele>820.3</ele>
        <time>2024-07-01T09:48:36Z</time>
      </trkpt>
      <trkpt lat="44.8704" lon="5.18826">
        <ele>820.4</ele>
        <time>2024-07-01T09:48:37Z</time>
      </trkpt>
      <trkpt lat="44.8704" lon="5.18827">
        <ele>820.5</ele>
        <time>2024-07-01T09:48:38Z</time>
      </trkpt>
      <trkpt lat="44.8704" lon="5.18828">
        <ele>820.6</ele>
        <time>2024-07-01T09:48:39Z</time>
      </trkpt>
      <trkpt lat="44.87039" lon="5.18829">
        <ele>820.7</ele>
        <time>2024-07-01T09:48:40Z</time>
      </trkpt>
      <trkpt lat="44.87039" lon="5.1883">
        <ele>820.7</ele>
        <time>2024-07-01T09:48:41Z</time>
      </trkpt>
      <trkpt lat="44.87039" lon="5.18833">
        <ele>821</ele>
        <time>2024-07-01T09:48:42Z</time>
      </trkpt>
      <trkpt lat="44.87038" lon="5.18834">
        <ele>821.1</ele>
        <time>2024-07-01T09:48:44Z</time>
      </trkpt>
      <trkpt lat="44.87038" lon="5.18835">
        <ele>821.2</ele>
        <time>2024-07-01T09:48:45Z</time>
      </trkpt>
      <trkpt lat="44.87038" lon="5.18836">
        <ele>821.3</ele>
        <time>2024-07-01T09:48:46Z</time>
      </trkpt>
      <trkpt lat="44.87038" lon="5.18838">
        <ele>821.5</ele>
        <time>2024-07-01T09:48:47Z</time>
      </trkpt>
      <trkpt lat="44.87037" lon="5.1884">
        <ele>821.6</ele>
        <time>2024-07-01T09:48:48Z</time>
      </trkpt>
      <trkpt lat="44.87037" lon="5.18841">
        <ele>821.7</ele>
        <time>2024-07-01T09:48:49Z</time>
      </trkpt>
      <trkpt lat="44.87037" lon="5.18842">
        <ele>821.8</ele>
        <time>2024-07-01T09:48:50Z</time>
      </trkpt>
      <trkpt lat="44.87037" lon="5.18843">
        <ele>821.9</ele>
        <time>2024-07-01T09:48:51Z</time>
      </trkpt>
      <trkpt lat="44.87037" lon="5.18845">
        <ele>822</ele>
        <time>2024-07-01T09:48:52Z</time>
      </trkpt>
      <trkpt lat="44.87037" lon="5.18847">
        <ele>822.3</ele>
        <time>2024-07-01T09:48:53Z</time>
      </trkpt>
      <trkpt lat="44.87037" lon="5.18849">
        <ele>822.4</ele>
        <time>2024-07-01T09:48:55Z</time>
      </trkpt>
      <trkpt lat="44.87037" lon="5.1885">
        <ele>822.5</ele>
        <time>2024-07-01T09:48:56Z</time>
      </trkpt>
      <trkpt lat="44.87037" lon="5.18852">
        <ele>822.6</ele>
        <time>2024-07-01T09:48:57Z</time>
      </trkpt>
      <trkpt lat="44.87037" lon="5.18853">
        <ele>822.7</ele>
        <time>2024-07-01T09:48:58Z</time>
      </trkpt>
      <trkpt lat="44.87037" lon="5.18854">
        <ele>822.8</ele>
        <time>2024-07-01T09:48:59Z</time>
      </trkpt>
      <trkpt lat="44.87038" lon="5.18855">
        <ele>822.9</ele>
        <time>2024-07-01T09:49:00Z</time>
      </trkpt>
      <trkpt lat="44.87039" lon="5.18856">
        <ele>823</ele>
        <time>2024-07-01T09:49:01Z</time>
      </trkpt>
      <trkpt lat="44.87039" lon="5.18856">
        <ele>823</ele>
        <time>2024-07-01T09:49:02Z</time>
      </trkpt>
      <trkpt lat="44.87041" lon="5.18858">
        <ele>823.2</ele>
        <time>2024-07-01T09:49:03Z</time>
      </trkpt>
      <trkpt lat="44.87042" lon="5.18859">
        <ele>823.3</ele>
        <time>2024-07-01T09:49:04Z</time>
      </trkpt>
      <trkpt lat="44.87043" lon="5.18859">
        <ele>823.4</ele>
        <time>2024-07-01T09:49:06Z</time>
      </trkpt>
      <trkpt lat="44.87043" lon="5.18859">
        <ele>823.4</ele>
        <time>2024-07-01T09:49:07Z</time>
      </trkpt>
      <trkpt lat="44.87044" lon="5.1886">
        <ele>823.5</ele>
        <time>2024-07-01T09:49:08Z</time>
      </trkpt>
      <trkpt lat="44.87045" lon="5.18861">
        <ele>823.6</ele>
        <time>2024-07-01T09:49:09Z</time>
      </trkpt>
      <trkpt lat="44.87046" lon="5.18861">
        <ele>823.7</ele>
        <time>2024-07-01T09:49:10Z</time>
      </trkpt>
      <trkpt lat="44.87047" lon="5.18862">
        <ele>823.7</ele>
        <time>2024-07-01T09:49:11Z</time>
      </trkpt>
      <trkpt lat="44.87047" lon="5.18862">
        <ele>823.8</ele>
        <time>2024-07-01T09:49:12Z</time>
      </trkpt>
      <trkpt lat="44.87049" lon="5.18863">
        <ele>823.9</ele>
        <time>2024-07-01T09:49:13Z</time>
      </trkpt>
      <trkpt lat="44.8705" lon="5.18864">
        <ele>824</ele>
        <time>2024-07-01T09:49:15Z</time>
      </trkpt>
      <trkpt lat="44.87052" lon="5.18865">
        <ele>824.1</ele>
        <time>2024-07-01T09:49:16Z</time>
      </trkpt>
      <trkpt lat="44.87053" lon="5.18865">
        <ele>824.2</ele>
        <time>2024-07-01T09:49:18Z</time>
      </trkpt>
      <trkpt lat="44.87054" lon="5.18866">
        <ele>824.2</ele>
        <time>2024-07-01T09:49:19Z</time>
      </trkpt>
      <trkpt lat="44.87055" lon="5.18867">
        <ele>824.3</ele>
        <time>2024-07-01T09:49:20Z</time>
      </trkpt>
      <trkpt lat="44.87055" lon="5.18867">
        <ele>824.4</ele>
        <time>2024-07-01T09:49:21Z</time>
      </trkpt>
      <trkpt lat="44.87058" lon="5.18869">
        <ele>824.5</ele>
        <time>2024-07-01T09:49:22Z</time>
      </trkpt>
      <trkpt lat="44.87058" lon="5.1887">
        <ele>824.5</ele>
        <time>2024-07-01T09:49:24Z</time>
      </trkpt>
      <trkpt lat="44.87059" lon="5.1887">
        <ele>824.6</ele>
        <time>2024-07-01T09:49:25Z</time>
      </trkpt>
      <trkpt lat="44.87061" lon="5.18872">
        <ele>824.7</ele>
        <time>2024-07-01T09:49:26Z</time>
      </trkpt>
      <trkpt lat="44.87062" lon="5.18873">
        <ele>824.8</ele>
        <time>2024-07-01T09:49:28Z</time>
      </trkpt>
      <trkpt lat="44.87062" lon="5.18873">
        <ele>824.8</ele>
        <time>2024-07-01T09:49:29Z</time>
      </trkpt>
      <trkpt lat="44.87063" lon="5.18874">
        <ele>824.9</ele>
        <time>2024-07-01T09:49:30Z</time>
      </trkpt>
      <trkpt lat="44.87064" lon="5.18874">
        <ele>824.9</ele>
        <time>2024-07-01T09:49:31Z</time>
      </trkpt>
      <trkpt lat="44.87065" lon="5.18875">
        <ele>825</ele>
        <time>2024-07-01T09:49:32Z</time>
      </trkpt>
      <trkpt lat="44.87066" lon="5.18876">
        <ele>825.1</ele>
        <time>2024-07-01T09:49:33Z</time>
      </trkpt>
      <trkpt lat="44.87067" lon="5.18876">
        <ele>825.1</ele>
        <time>2024-07-01T09:49:34Z</time>
      </trkpt>
      <trkpt lat="44.87068" lon="5.18876">
        <ele>825.2</ele>
        <time>2024-07-01T09:49:35Z</time>
      </trkpt>
      <trkpt lat="44.87069" lon="5.18876">
        <ele>825.2</ele>
        <time>2024-07-01T09:49:36Z</time>
      </trkpt>
      <trkpt lat="44.8707" lon="5.18877">
        <ele>825.3</ele>
        <time>2024-07-01T09:49:37Z</time>
      </trkpt>
      <trkpt lat="44.87071" lon="5.18877">
        <ele>825.4</ele>
        <time>2024-07-01T09:49:38Z</time>
      </trkpt>
      <trkpt lat="44.87072" lon="5.18878">
        <ele>825.4</ele>
        <time>2024-07-01T09:49:39Z</time>
      </trkpt>
      <trkpt lat="44.87073" lon="5.18878">
        <ele>825.5</ele>
        <time>2024-07-01T09:49:41Z</time>
      </trkpt>
      <trkpt lat="44.87074" lon="5.18878">
        <ele>825.5</ele>
        <time>2024-07-01T09:49:42Z</time>
      </trkpt>
      <trkpt lat="44.87076" lon="5.18879">
        <ele>825.6</ele>
        <time>2024-07-01T09:49:43Z</time>
      </trkpt>
      <trkpt lat="44.87077" lon="5.18879">
        <ele>825.7</ele>
        <time>2024-07-01T09:49:44Z</time>
      </trkpt>
      <trkpt lat="44.87078" lon="5.18879">
        <ele>825.8</ele>
        <time>2024-07-01T09:49:45Z</time>
      </trkpt>
      <trkpt lat="44.87079" lon="5.18879">
        <ele>825.9</ele>
        <time>2024-07-01T09:49:47Z</time>
      </trkpt>
      <trkpt lat="44.8708" lon="5.18879">
        <ele>825.9</ele>
        <time>2024-07-01T09:49:48Z</time>
      </trkpt>
      <trkpt lat="44.87081" lon="5.1888">
        <ele>826</ele>
        <time>2024-07-01T09:49:50Z</time>
      </trkpt>
      <trkpt lat="44.87082" lon="5.1888">
        <ele>826.1</ele>
        <time>2024-07-01T09:49:51Z</time>
      </trkpt>
      <trkpt lat="44.87083" lon="5.1888">
        <ele>826.1</ele>
        <time>2024-07-01T09:49:52Z</time>
      </trkpt>
      <trkpt lat="44.87085" lon="5.1888">
        <ele>826.2</ele>
        <time>2024-07-01T09:49:53Z</time>
      </trkpt>
      <trkpt lat="44.87086" lon="5.1888">
        <ele>826.3</ele>
        <time>2024-07-01T09:49:54Z</time>
      </trkpt>
      <trkpt lat="44.87086" lon="5.18879">
        <ele>826.4</ele>
        <time>2024-07-01T09:49:55Z</time>
      </trkpt>
      <trkpt lat="44.87085" lon="5.18877">
        <ele>826.5</ele>
        <time>2024-07-01T09:49:57Z</time>
      </trkpt>
      <trkpt lat="44.87084" lon="5.18877">
        <ele>826.5</ele>
        <time>2024-07-01T09:49:58Z</time>
      </trkpt>
      <trkpt lat="44.87084" lon="5.18877">
        <ele>826.6</ele>
        <time>2024-07-01T09:49:59Z</time>
      </trkpt>
      <trkpt lat="44.87084" lon="5.18877">
        <ele>826.6</ele>
        <time>2024-07-01T09:50:00Z</time>
      </trkpt>
      <trkpt lat="44.87084" lon="5.18877">
        <ele>826.6</ele>
        <time>2024-07-01T09:50:01Z</time>
      </trkpt>
      <trkpt lat="44.87084" lon="5.18877">
        <ele>826.6</ele>
        <time>2024-07-01T09:50:02Z</time>
      </trkpt>
      <trkpt lat="44.87084" lon="5.18877">
        <ele>826.6</ele>
        <time>2024-07-01T09:50:03Z</time>
      </trkpt>
      <trkpt lat="44.87084" lon="5.18877">
        <ele>826.6</ele>
        <time>2024-07-01T09:50:04Z</time>
      </trkpt>
      <trkpt lat="44.87084" lon="5.18876">
        <ele>826.6</ele>
        <time>2024-07-01T09:50:05Z</time>
      </trkpt>
      <trkpt lat="44.87084" lon="5.18876">
        <ele>826.6</ele>
        <time>2024-07-01T09:50:06Z</time>
      </trkpt>
      <trkpt lat="44.87084" lon="5.18876">
        <ele>826.6</ele>
        <time>2024-07-01T09:50:07Z</time>
      </trkpt>
      <trkpt lat="44.87083" lon="5.18876">
        <ele>826.7</ele>
        <time>2024-07-01T09:50:08Z</time>
      </trkpt>
      <trkpt lat="44.87083" lon="5.18876">
        <ele>826.7</ele>
        <time>2024-07-01T09:50:09Z</time>
      </trkpt>
      <trkpt lat="44.87083" lon="5.18876">
        <ele>826.7</ele>
        <time>2024-07-01T09:50:10Z</time>
      </trkpt>
      <trkpt lat="44.87083" lon="5.18875">
        <ele>826.7</ele>
        <time>2024-07-01T09:50:11Z</time>
      </trkpt>
      <trkpt lat="44.87083" lon="5.18875">
        <ele>826.7</ele>
        <time>2024-07-01T09:50:12Z</time>
      </trkpt>
      <trkpt lat="44.87083" lon="5.18875">
        <ele>826.7</ele>
        <time>2024-07-01T09:50:13Z</time>
      </trkpt>
      <trkpt lat="44.87084" lon="5.18875">
        <ele>826.7</ele>
        <time>2024-07-01T09:50:14Z</time>
      </trkpt>
      <trkpt lat="44.87084" lon="5.18875">
        <ele>826.7</ele>
        <time>2024-07-01T09:50:15Z</time>
      </trkpt>
      <trkpt lat="44.87084" lon="5.18875">
        <ele>826.7</ele>
        <time>2024-07-01T09:50:16Z</time>
      </trkpt>
      <trkpt lat="44.87084" lon="5.18875">
        <ele>826.7</ele>
        <time>2024-07-01T09:50:17Z</time>
      </trkpt>
      <trkpt lat="44.87085" lon="5.18875">
        <ele>826.8</ele>
        <time>2024-07-01T09:50:18Z</time>
      </trkpt>
      <trkpt lat="44.87087" lon="5.18874">
        <ele>826.9</ele>
        <time>2024-07-01T09:50:19Z</time>
      </trkpt>
      <trkpt lat="44.87088" lon="5.18873">
        <ele>827</ele>
        <time>2024-07-01T09:50:21Z</time>
      </trkpt>
      <trkpt lat="44.87088" lon="5.18872">
        <ele>827</ele>
        <time>2024-07-01T09:50:22Z</time>
      </trkpt>
      <trkpt lat="44.87088" lon="5.18872">
        <ele>827</ele>
        <time>2024-07-01T09:50:23Z</time>
      </trkpt>
      <trkpt lat="44.87088" lon="5.18872">
        <ele>827.1</ele>
        <time>2024-07-01T09:50:24Z</time>
      </trkpt>
      <trkpt lat="44.87089" lon="5.18872">
        <ele>827.1</ele>
        <time>2024-07-01T09:50:25Z</time>
      </trkpt>
      <trkpt lat="44.87089" lon="5.18873">
        <ele>827.1</ele>
        <time>2024-07-01T09:50:26Z</time>
      </trkpt>
      <trkpt lat="44.87089" lon="5.18873">
        <ele>827.1</ele>
        <time>2024-07-01T09:50:27Z</time>
      </trkpt>
      <trkpt lat="44.8709" lon="5.18873">
        <ele>827.1</ele>
        <time>2024-07-01T09:50:28Z</time>
      </trkpt>
      <trkpt lat="44.8709" lon="5.18873">
        <ele>827.2</ele>
        <time>2024-07-01T09:50:29Z</time>
      </trkpt>
      <trkpt lat="44.8709" lon="5.18874">
        <ele>827.2</ele>
        <time>2024-07-01T09:50:30Z</time>
      </trkpt>
      <trkpt lat="44.87091" lon="5.18874">
        <ele>827.2</ele>
        <time>2024-07-01T09:50:31Z</time>
      </trkpt>
      <trkpt lat="44.87091" lon="5.18874">
        <ele>827.2</ele>
        <time>2024-07-01T09:50:32Z</time>
      </trkpt>
      <trkpt lat="44.87092" lon="5.18874">
        <ele>827.3</ele>
        <time>2024-07-01T09:50:33Z</time>
      </trkpt>
      <trkpt lat="44.87092" lon="5.18875">
        <ele>827.3</ele>
        <time>2024-07-01T09:50:34Z</time>
      </trkpt>
      <trkpt lat="44.87092" lon="5.18875">
        <ele>827.3</ele>
        <time>2024-07-01T09:50:35Z</time>
      </trkpt>
      <trkpt lat="44.87093" lon="5.18875">
        <ele>827.3</ele>
        <time>2024-07-01T09:50:36Z</time>
      </trkpt>
      <trkpt lat="44.87093" lon="5.18875">
        <ele>827.4</ele>
        <time>2024-07-01T09:50:37Z</time>
      </trkpt>
      <trkpt lat="44.87093" lon="5.18875">
        <ele>827.4</ele>
        <time>2024-07-01T09:50:38Z</time>
      </trkpt>
      <trkpt lat="44.87094" lon="5.18876">
        <ele>827.4</ele>
        <time>2024-07-01T09:50:39Z</time>
      </trkpt>
      <trkpt lat="44.87094" lon="5.18876">
        <ele>827.4</ele>
        <time>2024-07-01T09:50:41Z</time>
      </trkpt>
      <trkpt lat="44.87094" lon="5.18876">
        <ele>827.4</ele>
        <time>2024-07-01T09:50:42Z</time>
      </trkpt>
      <trkpt lat="44.87095" lon="5.18876">
        <ele>827.5</ele>
        <time>2024-07-01T09:50:43Z</time>
      </trkpt>
      <trkpt lat="44.87098" lon="5.18877">
        <ele>827.6</ele>
        <time>2024-07-01T09:50:44Z</time>
      </trkpt>
      <trkpt lat="44.87102" lon="5.18877">
        <ele>827.8</ele>
        <time>2024-07-01T09:50:45Z</time>
      </trkpt>
      <trkpt lat="44.87103" lon="5.18877">
        <ele>827.9</ele>
        <time>2024-07-01T09:50:47Z</time>
      </trkpt>
      <trkpt lat="44.87104" lon="5.18878">
        <ele>827.9</ele>
        <time>2024-07-01T09:50:48Z</time>
      </trkpt>
      <trkpt lat="44.87105" lon="5.18878">
        <ele>827.9</ele>
        <time>2024-07-01T09:50:49Z</time>
      </trkpt>
      <trkpt lat="44.87106" lon="5.18879">
        <ele>828</ele>
        <time>2024-07-01T09:50:50Z</time>
      </trkpt>
      <trkpt lat="44.87107" lon="5.18879">
        <ele>828</ele>
        <time>2024-07-01T09:50:51Z</time>
      </trkpt>
      <trkpt lat="44.87109" lon="5.1888">
        <ele>828.1</ele>
        <time>2024-07-01T09:50:52Z</time>
      </trkpt>
      <trkpt lat="44.87109" lon="5.18881">
        <ele>828.2</ele>
        <time>2024-07-01T09:50:54Z</time>
      </trkpt>
      <trkpt lat="44.8711" lon="5.18881">
        <ele>828.2</ele>
        <time>2024-07-01T09:50:55Z</time>
      </trkpt>
      <trkpt lat="44.87111" lon="5.18881">
        <ele>828.2</ele>
        <time>2024-07-01T09:50:56Z</time>
      </trkpt>
      <trkpt lat="44.87112" lon="5.18882">
        <ele>828.3</ele>
        <time>2024-07-01T09:50:57Z</time>
      </trkpt>
      <trkpt lat="44.87113" lon="5.18883">
        <ele>828.3</ele>
        <time>2024-07-01T09:50:58Z</time>
      </trkpt>
      <trkpt lat="44.87114" lon="5.18883">
        <ele>828.4</ele>
        <time>2024-07-01T09:51:00Z</time>
      </trkpt>
      <trkpt lat="44.87114" lon="5.18883">
        <ele>828.4</ele>
        <time>2024-07-01T09:51:01Z</time>
      </trkpt>
      <trkpt lat="44.87115" lon="5.18883">
        <ele>828.4</ele>
        <time>2024-07-01T09:51:02Z</time>
      </trkpt>
      <trkpt lat="44.87116" lon="5.18884">
        <ele>828.5</ele>
        <time>2024-07-01T09:51:03Z</time>
      </trkpt>
      <trkpt lat="44.87118" lon="5.18885">
        <ele>828.5</ele>
        <time>2024-07-01T09:51:04Z</time>
      </trkpt>
      <trkpt lat="44.8712" lon="5.18884">
        <ele>828.6</ele>
        <time>2024-07-01T09:51:06Z</time>
      </trkpt>
      <trkpt lat="44.87121" lon="5.18884">
        <ele>828.6</ele>
        <time>2024-07-01T09:51:07Z</time>
      </trkpt>
      <trkpt lat="44.87121" lon="5.18883">
        <ele>828.7</ele>
        <time>2024-07-01T09:51:09Z</time>
      </trkpt>
      <trkpt lat="44.87123" lon="5.18883">
        <ele>828.7</ele>
        <time>2024-07-01T09:51:10Z</time>
      </trkpt>
      <trkpt lat="44.87124" lon="5.18884">
        <ele>828.8</ele>
        <time>2024-07-01T09:51:11Z</time>
      </trkpt>
      <trkpt lat="44.87125" lon="5.18884">
        <ele>828.8</ele>
        <time>2024-07-01T09:51:13Z</time>
      </trkpt>
      <trkpt lat="44.87126" lon="5.18884">
        <ele>828.9</ele>
        <time>2024-07-01T09:51:14Z</time>
      </trkpt>
      <trkpt lat="44.87128" lon="5.18884">
        <ele>828.9</ele>
        <time>2024-07-01T09:51:15Z</time>
      </trkpt>
      <trkpt lat="44.87128" lon="5.18884">
        <ele>828.9</ele>
        <time>2024-07-01T09:51:16Z</time>
      </trkpt>
      <trkpt lat="44.8713" lon="5.18885">
        <ele>829</ele>
        <time>2024-07-01T09:51:17Z</time>
      </trkpt>
      <trkpt lat="44.87131" lon="5.18885">
        <ele>829.1</ele>
        <time>2024-07-01T09:51:18Z</time>
      </trkpt>
      <trkpt lat="44.87133" lon="5.18885">
        <ele>829.1</ele>
        <time>2024-07-01T09:51:19Z</time>
      </trkpt>
      <trkpt lat="44.87134" lon="5.18885">
        <ele>829.2</ele>
        <time>2024-07-01T09:51:21Z</time>
      </trkpt>
      <trkpt lat="44.87135" lon="5.18885">
        <ele>829.2</ele>
        <time>2024-07-01T09:51:22Z</time>
      </trkpt>
      <trkpt lat="44.87136" lon="5.18885">
        <ele>829.3</ele>
        <time>2024-07-01T09:51:23Z</time>
      </trkpt>
      <trkpt lat="44.87137" lon="5.18884">
        <ele>829.3</ele>
        <time>2024-07-01T09:51:24Z</time>
      </trkpt>
      <trkpt lat="44.87138" lon="5.18884">
        <ele>829.4</ele>
        <time>2024-07-01T09:51:25Z</time>
      </trkpt>
      <trkpt lat="44.8714" lon="5.18883">
        <ele>829.5</ele>
        <time>2024-07-01T09:51:26Z</time>
      </trkpt>
      <trkpt lat="44.87141" lon="5.18883">
        <ele>829.5</ele>
        <time>2024-07-01T09:51:28Z</time>
      </trkpt>
      <trkpt lat="44.87142" lon="5.18882">
        <ele>829.6</ele>
        <time>2024-07-01T09:51:29Z</time>
      </trkpt>
      <trkpt lat="44.87143" lon="5.18882">
        <ele>829.7</ele>
        <time>2024-07-01T09:51:30Z</time>
      </trkpt>
      <trkpt lat="44.87144" lon="5.18882">
        <ele>829.7</ele>
        <time>2024-07-01T09:51:31Z</time>
      </trkpt>
      <trkpt lat="44.87145" lon="5.18882">
        <ele>829.8</ele>
        <time>2024-07-01T09:51:32Z</time>
      </trkpt>
      <trkpt lat="44.87145" lon="5.18882">
        <ele>829.8</ele>
        <time>2024-07-01T09:51:33Z</time>
      </trkpt>
      <trkpt lat="44.87146" lon="5.18882">
        <ele>829.8</ele>
        <time>2024-07-01T09:51:34Z</time>
      </trkpt>
      <trkpt lat="44.87147" lon="5.18882">
        <ele>829.9</ele>
        <time>2024-07-01T09:51:35Z</time>
      </trkpt>
      <trkpt lat="44.87147" lon="5.18882">
        <ele>829.9</ele>
        <time>2024-07-01T09:51:36Z</time>
      </trkpt>
      <trkpt lat="44.87148" lon="5.18882">
        <ele>829.9</ele>
        <time>2024-07-01T09:51:37Z</time>
      </trkpt>
      <trkpt lat="44.8715" lon="5.18882">
        <ele>830.1</ele>
        <time>2024-07-01T09:51:38Z</time>
      </trkpt>
      <trkpt lat="44.87151" lon="5.18882">
        <ele>830.1</ele>
        <time>2024-07-01T09:51:39Z</time>
      </trkpt>
      <trkpt lat="44.87152" lon="5.18882">
        <ele>830.2</ele>
        <time>2024-07-01T09:51:40Z</time>
      </trkpt>
      <trkpt lat="44.87153" lon="5.18883">
        <ele>830.2</ele>
        <time>2024-07-01T09:51:42Z</time>
      </trkpt>
      <trkpt lat="44.87155" lon="5.18883">
        <ele>830.3</ele>
        <time>2024-07-01T09:51:43Z</time>
      </trkpt>
      <trkpt lat="44.87155" lon="5.18883">
        <ele>830.4</ele>
        <time>2024-07-01T09:51:45Z</time>
      </trkpt>
      <trkpt lat="44.87157" lon="5.18883">
        <ele>830.5</ele>
        <time>2024-07-01T09:51:46Z</time>
      </trkpt>
      <trkpt lat="44.87159" lon="5.18883">
        <ele>830.6</ele>
        <time>2024-07-01T09:51:48Z</time>
      </trkpt>
      <trkpt lat="44.87161" lon="5.18884">
        <ele>830.7</ele>
        <time>2024-07-01T09:51:49Z</time>
      </trkpt>
      <trkpt lat="44.87163" lon="5.18884">
        <ele>830.9</ele>
        <time>2024-07-01T09:51:51Z</time>
      </trkpt>
      <trkpt lat="44.87165" lon="5.18884">
        <ele>831</ele>
        <time>2024-07-01T09:51:52Z</time>
      </trkpt>
      <trkpt lat="44.87166" lon="5.18884">
        <ele>831.1</ele>
        <time>2024-07-01T09:51:53Z</time>
      </trkpt>
      <trkpt lat="44.87169" lon="5.18884">
        <ele>831.4</ele>
        <time>2024-07-01T09:51:55Z</time>
      </trkpt>
      <trkpt lat="44.87171" lon="5.18884">
        <ele>831.5</ele>
        <time>2024-07-01T09:51:56Z</time>
      </trkpt>
      <trkpt lat="44.87172" lon="5.18884">
        <ele>831.6</ele>
        <time>2024-07-01T09:51:58Z</time>
      </trkpt>
      <trkpt lat="44.87173" lon="5.18884">
        <ele>831.7</ele>
        <time>2024-07-01T09:51:59Z</time>
      </trkpt>
      <trkpt lat="44.87174" lon="5.18884">
        <ele>831.8</ele>
        <time>2024-07-01T09:52:01Z</time>
      </trkpt>
      <trkpt lat="44.87177" lon="5.18883">
        <ele>832</ele>
        <time>2024-07-01T09:52:02Z</time>
      </trkpt>
      <trkpt lat="44.87178" lon="5.18883">
        <ele>832.1</ele>
        <time>2024-07-01T09:52:04Z</time>
      </trkpt>
      <trkpt lat="44.87179" lon="5.18884">
        <ele>832.2</ele>
        <time>2024-07-01T09:52:05Z</time>
      </trkpt>
      <trkpt lat="44.87181" lon="5.18884">
        <ele>832.4</ele>
        <time>2024-07-01T09:52:06Z</time>
      </trkpt>
      <trkpt lat="44.87182" lon="5.18884">
        <ele>832.5</ele>
        <time>2024-07-01T09:52:08Z</time>
      </trkpt>
      <trkpt lat="44.87184" lon="5.18884">
        <ele>832.6</ele>
        <time>2024-07-01T09:52:09Z</time>
      </trkpt>
      <trkpt lat="44.87184" lon="5.18883">
        <ele>832.6</ele>
        <time>2024-07-01T09:52:10Z</time>
      </trkpt>
      <trkpt lat="44.87186" lon="5.18884">
        <ele>832.7</ele>
        <time>2024-07-01T09:52:11Z</time>
      </trkpt>
      <trkpt lat="44.87187" lon="5.18884">
        <ele>832.8</ele>
        <time>2024-07-01T09:52:12Z</time>
      </trkpt>
      <trkpt lat="44.87189" lon="5.18884">
        <ele>833</ele>
        <time>2024-07-01T09:52:13Z</time>
      </trkpt>
      <trkpt lat="44.8719" lon="5.18884">
        <ele>833.1</ele>
        <time>2024-07-01T09:52:15Z</time>
      </trkpt>
      <trkpt lat="44.87192" lon="5.18883">
        <ele>833.2</ele>
        <time>2024-07-01T09:52:16Z</time>
      </trkpt>
      <trkpt lat="44.87194" lon="5.18883">
        <ele>833.3</ele>
        <time>2024-07-01T09:52:18Z</time>
      </trkpt>
      <trkpt lat="44.87195" lon="5.18883">
        <ele>833.4</ele>
        <time>2024-07-01T09:52:19Z</time>
      </trkpt>
      <trkpt lat="44.87196" lon="5.18882">
        <ele>833.4</ele>
        <time>2024-07-01T09:52:20Z</time>
      </trkpt>
      <trkpt lat="44.87197" lon="5.18882">
        <ele>833.5</ele>
        <time>2024-07-01T09:52:21Z</time>
      </trkpt>
      <trkpt lat="44.87198" lon="5.18882">
        <ele>833.6</ele>
        <time>2024-07-01T09:52:22Z</time>
      </trkpt>
      <trkpt lat="44.87199" lon="5.18882">
        <ele>833.6</ele>
        <time>2024-07-01T09:52:23Z</time>
      </trkpt>
      <trkpt lat="44.872" lon="5.18881">
        <ele>833.7</ele>
        <time>2024-07-01T09:52:24Z</time>
      </trkpt>
      <trkpt lat="44.87201" lon="5.18881">
        <ele>833.8</ele>
        <time>2024-07-01T09:52:25Z</time>
      </trkpt>
      <trkpt lat="44.87202" lon="5.1888">
        <ele>833.8</ele>
        <time>2024-07-01T09:52:26Z</time>
      </trkpt>
      <trkpt lat="44.87203" lon="5.1888">
        <ele>833.9</ele>
        <time>2024-07-01T09:52:27Z</time>
      </trkpt>
      <trkpt lat="44.87204" lon="5.1888">
        <ele>833.9</ele>
        <time>2024-07-01T09:52:28Z</time>
      </trkpt>
      <trkpt lat="44.87205" lon="5.18879">
        <ele>834</ele>
        <time>2024-07-01T09:52:29Z</time>
      </trkpt>
      <trkpt lat="44.87206" lon="5.18879">
        <ele>834.1</ele>
        <time>2024-07-01T09:52:30Z</time>
      </trkpt>
      <trkpt lat="44.87207" lon="5.18878">
        <ele>834.1</ele>
        <time>2024-07-01T09:52:31Z</time>
      </trkpt>
      <trkpt lat="44.87208" lon="5.18878">
        <ele>834.2</ele>
        <time>2024-07-01T09:52:32Z</time>
      </trkpt>
      <trkpt lat="44.87209" lon="5.18878">
        <ele>834.3</ele>
        <time>2024-07-01T09:52:33Z</time>
      </trkpt>
      <trkpt lat="44.8721" lon="5.18877">
        <ele>834.4</ele>
        <time>2024-07-01T09:52:34Z</time>
      </trkpt>
      <trkpt lat="44.87211" lon="5.18877">
        <ele>834.4</ele>
        <time>2024-07-01T09:52:35Z</time>
      </trkpt>
      <trkpt lat="44.87212" lon="5.18876">
        <ele>834.5</ele>
        <time>2024-07-01T09:52:36Z</time>
      </trkpt>
      <trkpt lat="44.87213" lon="5.18876">
        <ele>834.6</ele>
        <time>2024-07-01T09:52:37Z</time>
      </trkpt>
      <trkpt lat="44.87214" lon="5.18875">
        <ele>834.6</ele>
        <time>2024-07-01T09:52:38Z</time>
      </trkpt>
      <trkpt lat="44.87216" lon="5.18875">
        <ele>834.7</ele>
        <time>2024-07-01T09:52:39Z</time>
      </trkpt>
      <trkpt lat="44.87216" lon="5.18874">
        <ele>834.8</ele>
        <time>2024-07-01T09:52:40Z</time>
      </trkpt>
      <trkpt lat="44.87219" lon="5.18874">
        <ele>834.9</ele>
        <time>2024-07-01T09:52:41Z</time>
      </trkpt>
      <trkpt lat="44.8722" lon="5.18873">
        <ele>835</ele>
        <time>2024-07-01T09:52:43Z</time>
      </trkpt>
      <trkpt lat="44.87221" lon="5.18873">
        <ele>835.1</ele>
        <time>2024-07-01T09:52:44Z</time>
      </trkpt>
      <trkpt lat="44.87222" lon="5.18873">
        <ele>835.1</ele>
        <time>2024-07-01T09:52:45Z</time>
      </trkpt>
      <trkpt lat="44.87223" lon="5.18873">
        <ele>835.2</ele>
        <time>2024-07-01T09:52:46Z</time>
      </trkpt>
      <trkpt lat="44.87224" lon="5.18872">
        <ele>835.3</ele>
        <time>2024-07-01T09:52:47Z</time>
      </trkpt>
      <trkpt lat="44.87225" lon="5.18872">
        <ele>835.3</ele>
        <time>2024-07-01T09:52:48Z</time>
      </trkpt>
      <trkpt lat="44.87226" lon="5.18872">
        <ele>835.4</ele>
        <time>2024-07-01T09:52:49Z</time>
      </trkpt>
      <trkpt lat="44.87226" lon="5.18871">
        <ele>835.4</ele>
        <time>2024-07-01T09:52:50Z</time>
      </trkpt>
      <trkpt lat="44.87228" lon="5.1887">
        <ele>835.5</ele>
        <time>2024-07-01T09:52:51Z</time>
      </trkpt>
      <trkpt lat="44.87229" lon="5.1887">
        <ele>835.6</ele>
        <time>2024-07-01T09:52:53Z</time>
      </trkpt>
      <trkpt lat="44.8723" lon="5.1887">
        <ele>835.7</ele>
        <time>2024-07-01T09:52:54Z</time>
      </trkpt>
      <trkpt lat="44.87232" lon="5.18869">
        <ele>835.8</ele>
        <time>2024-07-01T09:52:55Z</time>
      </trkpt>
      <trkpt lat="44.87233" lon="5.18869">
        <ele>835.9</ele>
        <time>2024-07-01T09:52:57Z</time>
      </trkpt>
      <trkpt lat="44.87235" lon="5.18868">
        <ele>836</ele>
        <time>2024-07-01T09:52:58Z</time>
      </trkpt>
      <trkpt lat="44.87236" lon="5.18867">
        <ele>836</ele>
        <time>2024-07-01T09:53:00Z</time>
      </trkpt>
      <trkpt lat="44.87237" lon="5.18866">
        <ele>836.1</ele>
        <time>2024-07-01T09:53:01Z</time>
      </trkpt>
      <trkpt lat="44.87238" lon="5.18865">
        <ele>836.2</ele>
        <time>2024-07-01T09:53:02Z</time>
      </trkpt>
      <trkpt lat="44.87239" lon="5.18865">
        <ele>836.3</ele>
        <time>2024-07-01T09:53:04Z</time>
      </trkpt>
      <trkpt lat="44.8724" lon="5.18864">
        <ele>836.3</ele>
        <time>2024-07-01T09:53:05Z</time>
      </trkpt>
      <trkpt lat="44.87241" lon="5.18863">
        <ele>836.4</ele>
        <time>2024-07-01T09:53:06Z</time>
      </trkpt>
      <trkpt lat="44.87242" lon="5.18863">
        <ele>836.4</ele>
        <time>2024-07-01T09:53:07Z</time>
      </trkpt>
      <trkpt lat="44.87243" lon="5.18862">
        <ele>836.5</ele>
        <time>2024-07-01T09:53:08Z</time>
      </trkpt>
      <trkpt lat="44.87245" lon="5.1886">
        <ele>836.6</ele>
        <time>2024-07-01T09:53:09Z</time>
      </trkpt>
      <trkpt lat="44.87245" lon="5.18859">
        <ele>836.7</ele>
        <time>2024-07-01T09:53:11Z</time>
      </trkpt>
      <trkpt lat="44.87247" lon="5.18857">
        <ele>836.9</ele>
        <time>2024-07-01T09:53:12Z</time>
      </trkpt>
      <trkpt lat="44.87249" lon="5.18855">
        <ele>837</ele>
        <time>2024-07-01T09:53:14Z</time>
      </trkpt>
      <trkpt lat="44.8725" lon="5.18854">
        <ele>837.1</ele>
        <time>2024-07-01T09:53:15Z</time>
      </trkpt>
      <trkpt lat="44.87251" lon="5.18853">
        <ele>837.1</ele>
        <time>2024-07-01T09:53:16Z</time>
      </trkpt>
      <trkpt lat="44.87252" lon="5.18852">
        <ele>837.2</ele>
        <time>2024-07-01T09:53:18Z</time>
      </trkpt>
      <trkpt lat="44.87253" lon="5.18851">
        <ele>837.3</ele>
        <time>2024-07-01T09:53:19Z</time>
      </trkpt>
      <trkpt lat="44.87254" lon="5.1885">
        <ele>837.4</ele>
        <time>2024-07-01T09:53:21Z</time>
      </trkpt>
      <trkpt lat="44.87255" lon="5.18849">
        <ele>837.4</ele>
        <time>2024-07-01T09:53:22Z</time>
      </trkpt>
      <trkpt lat="44.87256" lon="5.18848">
        <ele>837.5</ele>
        <time>2024-07-01T09:53:23Z</time>
      </trkpt>
      <trkpt lat="44.87257" lon="5.18847">
        <ele>837.5</ele>
        <time>2024-07-01T09:53:24Z</time>
      </trkpt>
      <trkpt lat="44.87257" lon="5.18846">
        <ele>837.6</ele>
        <time>2024-07-01T09:53:25Z</time>
      </trkpt>
      <trkpt lat="44.87258" lon="5.18845">
        <ele>837.6</ele>
        <time>2024-07-01T09:53:26Z</time>
      </trkpt>
      <trkpt lat="44.87259" lon="5.18845">
        <ele>837.6</ele>
        <time>2024-07-01T09:53:27Z</time>
      </trkpt>
      <trkpt lat="44.87259" lon="5.18845">
        <ele>837.6</ele>
        <time>2024-07-01T09:53:28Z</time>
      </trkpt>
      <trkpt lat="44.8726" lon="5.18845">
        <ele>837.7</ele>
        <time>2024-07-01T09:53:29Z</time>
      </trkpt>
      <trkpt lat="44.87261" lon="5.18846">
        <ele>837.7</ele>
        <time>2024-07-01T09:53:30Z</time>
      </trkpt>
      <trkpt lat="44.87261" lon="5.18846">
        <ele>837.7</ele>
        <time>2024-07-01T09:53:32Z</time>
      </trkpt>
      <trkpt lat="44.87261" lon="5.18846">
        <ele>837.7</ele>
        <time>2024-07-01T09:53:33Z</time>
      </trkpt>
      <trkpt lat="44.87261" lon="5.18846">
        <ele>837.7</ele>
        <time>2024-07-01T09:53:34Z</time>
      </trkpt>
      <trkpt lat="44.87261" lon="5.18846">
        <ele>837.7</ele>
        <time>2024-07-01T09:53:35Z</time>
      </trkpt>
      <trkpt lat="44.87262" lon="5.18846">
        <ele>837.8</ele>
        <time>2024-07-01T09:53:36Z</time>
      </trkpt>
      <trkpt lat="44.87262" lon="5.18846">
        <ele>837.8</ele>
        <time>2024-07-01T09:53:37Z</time>
      </trkpt>
      <trkpt lat="44.87262" lon="5.18846">
        <ele>837.8</ele>
        <time>2024-07-01T09:53:38Z</time>
      </trkpt>
      <trkpt lat="44.87263" lon="5.18845">
        <ele>837.8</ele>
        <time>2024-07-01T09:53:39Z</time>
      </trkpt>
      <trkpt lat="44.87263" lon="5.18845">
        <ele>837.8</ele>
        <time>2024-07-01T09:53:40Z</time>
      </trkpt>
      <trkpt lat="44.87263" lon="5.18845">
        <ele>837.8</ele>
        <time>2024-07-01T09:53:41Z</time>
      </trkpt>
      <trkpt lat="44.87263" lon="5.18845">
        <ele>837.8</ele>
        <time>2024-07-01T09:53:42Z</time>
      </trkpt>
      <trkpt lat="44.87263" lon="5.18845">
        <ele>837.8</ele>
        <time>2024-07-01T09:53:43Z</time>
      </trkpt>
      <trkpt lat="44.87264" lon="5.18844">
        <ele>837.8</ele>
        <time>2024-07-01T09:53:44Z</time>
      </trkpt>
      <trkpt lat="44.87264" lon="5.18845">
        <ele>837.8</ele>
        <time>2024-07-01T09:53:45Z</time>
      </trkpt>
      <trkpt lat="44.87264" lon="5.18845">
        <ele>837.8</ele>
        <time>2024-07-01T09:53:46Z</time>
      </trkpt>
      <trkpt lat="44.87264" lon="5.18845">
        <ele>837.9</ele>
        <time>2024-07-01T09:53:47Z</time>
      </trkpt>
      <trkpt lat="44.87265" lon="5.18845">
        <ele>837.9</ele>
        <time>2024-07-01T09:53:49Z</time>
      </trkpt>
      <trkpt lat="44.87265" lon="5.18845">
        <ele>837.9</ele>
        <time>2024-07-01T09:53:50Z</time>
      </trkpt>
      <trkpt lat="44.87265" lon="5.18845">
        <ele>837.9</ele>
        <time>2024-07-01T09:53:51Z</time>
      </trkpt>
      <trkpt lat="44.87265" lon="5.18845">
        <ele>837.9</ele>
        <time>2024-07-01T09:53:52Z</time>
      </trkpt>
      <trkpt lat="44.87265" lon="5.18845">
        <ele>837.9</ele>
        <time>2024-07-01T09:53:53Z</time>
      </trkpt>
      <trkpt lat="44.87265" lon="5.18845">
        <ele>837.9</ele>
        <time>2024-07-01T09:53:54Z</time>
      </trkpt>
      <trkpt lat="44.87265" lon="5.18845">
        <ele>837.9</ele>
        <time>2024-07-01T09:53:55Z</time>
      </trkpt>
      <trkpt lat="44.87265" lon="5.18845">
        <ele>837.9</ele>
        <time>2024-07-01T09:53:56Z</time>
      </trkpt>
      <trkpt lat="44.87266" lon="5.18846">
        <ele>837.9</ele>
        <time>2024-07-01T09:53:57Z</time>
      </trkpt>
      <trkpt lat="44.87267" lon="5.18848">
        <ele>837.9</ele>
        <time>2024-07-01T09:53:58Z</time>
      </trkpt>
      <trkpt lat="44.87267" lon="5.18849">
        <ele>838</ele>
        <time>2024-07-01T09:53:59Z</time>
      </trkpt>
      <trkpt lat="44.87267" lon="5.18849">
        <ele>838</ele>
        <time>2024-07-01T09:54:00Z</time>
      </trkpt>
      <trkpt lat="44.87267" lon="5.18849">
        <ele>838</ele>
        <time>2024-07-01T09:54:01Z</time>
      </trkpt>
      <trkpt lat="44.87268" lon="5.18849">
        <ele>838</ele>
        <time>2024-07-01T09:54:02Z</time>
      </trkpt>
      <trkpt lat="44.87268" lon="5.18848">
        <ele>838</ele>
        <time>2024-07-01T09:54:03Z</time>
      </trkpt>
      <trkpt lat="44.87269" lon="5.18848">
        <ele>838</ele>
        <time>2024-07-01T09:54:04Z</time>
      </trkpt>
      <trkpt lat="44.87269" lon="5.18847">
        <ele>838</ele>
        <time>2024-07-01T09:54:05Z</time>
      </trkpt>
      <trkpt lat="44.87269" lon="5.18847">
        <ele>838</ele>
        <time>2024-07-01T09:54:06Z</time>
      </trkpt>
      <trkpt lat="44.87269" lon="5.18847">
        <ele>838</ele>
        <time>2024-07-01T09:54:07Z</time>
      </trkpt>
      <trkpt lat="44.87269" lon="5.18847">
        <ele>838</ele>
        <time>2024-07-01T09:54:08Z</time>
      </trkpt>
      <trkpt lat="44.87269" lon="5.18847">
        <ele>838</ele>
        <time>2024-07-01T09:54:09Z</time>
      </trkpt>
      <trkpt lat="44.87269" lon="5.18847">
        <ele>838</ele>
        <time>2024-07-01T09:54:10Z</time>
      </trkpt>
      <trkpt lat="44.87268" lon="5.18847">
        <ele>838</ele>
        <time>2024-07-01T09:54:11Z</time>
      </trkpt>
      <trkpt lat="44.87269" lon="5.18847">
        <ele>838.1</ele>
        <time>2024-07-01T09:54:12Z</time>
      </trkpt>
      <trkpt lat="44.8727" lon="5.18847">
        <ele>838.1</ele>
        <time>2024-07-01T09:54:13Z</time>
      </trkpt>
      <trkpt lat="44.87271" lon="5.18847">
        <ele>838.1</ele>
        <time>2024-07-01T09:54:14Z</time>
      </trkpt>
      <trkpt lat="44.87272" lon="5.18847">
        <ele>838.1</ele>
        <time>2024-07-01T09:54:15Z</time>
      </trkpt>
      <trkpt lat="44.87273" lon="5.18847">
        <ele>838.1</ele>
        <time>2024-07-01T09:54:16Z</time>
      </trkpt>
      <trkpt lat="44.87275" lon="5.18846">
        <ele>838.2</ele>
        <time>2024-07-01T09:54:17Z</time>
      </trkpt>
      <trkpt lat="44.87277" lon="5.18847">
        <ele>838.2</ele>
        <time>2024-07-01T09:54:18Z</time>
      </trkpt>
      <trkpt lat="44.87279" lon="5.18847">
        <ele>838.2</ele>
        <time>2024-07-01T09:54:19Z</time>
      </trkpt>
      <trkpt lat="44.8728" lon="5.18847">
        <ele>838.3</ele>
        <time>2024-07-01T09:54:20Z</time>
      </trkpt>
      <trkpt lat="44.87281" lon="5.18846">
        <ele>838.2</ele>
        <time>2024-07-01T09:54:21Z</time>
      </trkpt>
      <trkpt lat="44.87284" lon="5.18845">
        <ele>838</ele>
        <time>2024-07-01T09:54:22Z</time>
      </trkpt>
      <trkpt lat="44.87284" lon="5.18845">
        <ele>838</ele>
        <time>2024-07-01T09:54:23Z</time>
      </trkpt>
      <trkpt lat="44.87285" lon="5.18844">
        <ele>837.9</ele>
        <time>2024-07-01T09:54:25Z</time>
      </trkpt>
      <trkpt lat="44.87287" lon="5.18844">
        <ele>837.8</ele>
        <time>2024-07-01T09:54:26Z</time>
      </trkpt>
      <trkpt lat="44.87289" lon="5.18843">
        <ele>837.7</ele>
        <time>2024-07-01T09:54:27Z</time>
      </trkpt>
      <trkpt lat="44.8729" lon="5.18843">
        <ele>837.6</ele>
        <time>2024-07-01T09:54:29Z</time>
      </trkpt>
      <trkpt lat="44.87291" lon="5.18843">
        <ele>837.6</ele>
        <time>2024-07-01T09:54:30Z</time>
      </trkpt>
      <trkpt lat="44.87293" lon="5.18843">
        <ele>837.5</ele>
        <time>2024-07-01T09:54:31Z</time>
      </trkpt>
      <trkpt lat="44.87293" lon="5.18843">
        <ele>837.4</ele>
        <time>2024-07-01T09:54:33Z</time>
      </trkpt>
      <trkpt lat="44.87294" lon="5.18843">
        <ele>837.4</ele>
        <time>2024-07-01T09:54:34Z</time>
      </trkpt>
      <trkpt lat="44.87296" lon="5.18843">
        <ele>837.3</ele>
        <time>2024-07-01T09:54:35Z</time>
      </trkpt>
      <trkpt lat="44.87297" lon="5.18843">
        <ele>837.2</ele>
        <time>2024-07-01T09:54:37Z</time>
      </trkpt>
      <trkpt lat="44.87297" lon="5.18843">
        <ele>837.2</ele>
        <time>2024-07-01T09:54:38Z</time>
      </trkpt>
      <trkpt lat="44.87299" lon="5.18842">
        <ele>837</ele>
        <time>2024-07-01T09:54:39Z</time>
      </trkpt>
      <trkpt lat="44.87299" lon="5.18843">
        <ele>837</ele>
        <time>2024-07-01T09:54:40Z</time>
      </trkpt>
      <trkpt lat="44.873" lon="5.18843">
        <ele>837</ele>
        <time>2024-07-01T09:54:41Z</time>
      </trkpt>
      <trkpt lat="44.87301" lon="5.18843">
        <ele>836.9</ele>
        <time>2024-07-01T09:54:42Z</time>
      </trkpt>
      <trkpt lat="44.87301" lon="5.18844">
        <ele>836.8</ele>
        <time>2024-07-01T09:54:43Z</time>
      </trkpt>
      <trkpt lat="44.87303" lon="5.18844">
        <ele>836.7</ele>
        <time>2024-07-01T09:54:44Z</time>
      </trkpt>
      <trkpt lat="44.87305" lon="5.18845">
        <ele>836.6</ele>
        <time>2024-07-01T09:54:46Z</time>
      </trkpt>
      <trkpt lat="44.87306" lon="5.18846">
        <ele>836.5</ele>
        <time>2024-07-01T09:54:47Z</time>
      </trkpt>
      <trkpt lat="44.87307" lon="5.18846">
        <ele>836.4</ele>
        <time>2024-07-01T09:54:48Z</time>
      </trkpt>
      <trkpt lat="44.87308" lon="5.18847">
        <ele>836.3</ele>
        <time>2024-07-01T09:54:50Z</time>
      </trkpt>
      <trkpt lat="44.87308" lon="5.18847">
        <ele>836.3</ele>
        <time>2024-07-01T09:54:51Z</time>
      </trkpt>
      <trkpt lat="44.87309" lon="5.18848">
        <ele>836.2</ele>
        <time>2024-07-01T09:54:52Z</time>
      </trkpt>
      <trkpt lat="44.8731" lon="5.18848">
        <ele>836.1</ele>
        <time>2024-07-01T09:54:53Z</time>
      </trkpt>
      <trkpt lat="44.87312" lon="5.18849">
        <ele>836</ele>
        <time>2024-07-01T09:54:54Z</time>
      </trkpt>
      <trkpt lat="44.87313" lon="5.18849">
        <ele>835.9</ele>
        <time>2024-07-01T09:54:56Z</time>
      </trkpt>
      <trkpt lat="44.87314" lon="5.1885">
        <ele>835.8</ele>
        <time>2024-07-01T09:54:57Z</time>
      </trkpt>
      <trkpt lat="44.87316" lon="5.18851">
        <ele>835.7</ele>
        <time>2024-07-01T09:54:58Z</time>
      </trkpt>
      <trkpt lat="44.87317" lon="5.18851">
        <ele>835.6</ele>
        <time>2024-07-01T09:54:59Z</time>
      </trkpt>
      <trkpt lat="44.87318" lon="5.18852">
        <ele>835.5</ele>
        <time>2024-07-01T09:55:01Z</time>
      </trkpt>
      <trkpt lat="44.87319" lon="5.18852">
        <ele>835.4</ele>
        <time>2024-07-01T09:55:02Z</time>
      </trkpt>
      <trkpt lat="44.8732" lon="5.18852">
        <ele>835.3</ele>
        <time>2024-07-01T09:55:03Z</time>
      </trkpt>
      <trkpt lat="44.87322" lon="5.18853">
        <ele>835.2</ele>
        <time>2024-07-01T09:55:04Z</time>
      </trkpt>
      <trkpt lat="44.87323" lon="5.18853">
        <ele>835.1</ele>
        <time>2024-07-01T09:55:05Z</time>
      </trkpt>
      <trkpt lat="44.87324" lon="5.18853">
        <ele>835</ele>
        <time>2024-07-01T09:55:07Z</time>
      </trkpt>
      <trkpt lat="44.87325" lon="5.18853">
        <ele>835</ele>
        <time>2024-07-01T09:55:08Z</time>
      </trkpt>
      <trkpt lat="44.87326" lon="5.18853">
        <ele>834.9</ele>
        <time>2024-07-01T09:55:09Z</time>
      </trkpt>
      <trkpt lat="44.87327" lon="5.18853">
        <ele>834.8</ele>
        <time>2024-07-01T09:55:10Z</time>
      </trkpt>
      <trkpt lat="44.87328" lon="5.18853">
        <ele>834.7</ele>
        <time>2024-07-01T09:55:11Z</time>
      </trkpt>
      <trkpt lat="44.8733" lon="5.18853">
        <ele>834.6</ele>
        <time>2024-07-01T09:55:12Z</time>
      </trkpt>
      <trkpt lat="44.8733" lon="5.18853">
        <ele>834.6</ele>
        <time>2024-07-01T09:55:13Z</time>
      </trkpt>
      <trkpt lat="44.87331" lon="5.18853">
        <ele>834.5</ele>
        <time>2024-07-01T09:55:14Z</time>
      </trkpt>
      <trkpt lat="44.87332" lon="5.18853">
        <ele>834.5</ele>
        <time>2024-07-01T09:55:15Z</time>
      </trkpt>
      <trkpt lat="44.87334" lon="5.18854">
        <ele>834.3</ele>
        <time>2024-07-01T09:55:16Z</time>
      </trkpt>
      <trkpt lat="44.87335" lon="5.18855">
        <ele>834.3</ele>
        <time>2024-07-01T09:55:18Z</time>
      </trkpt>
      <trkpt lat="44.87335" lon="5.18855">
        <ele>834.2</ele>
        <time>2024-07-01T09:55:19Z</time>
      </trkpt>
      <trkpt lat="44.87337" lon="5.18856">
        <ele>834.2</ele>
        <time>2024-07-01T09:55:20Z</time>
      </trkpt>
      <trkpt lat="44.87337" lon="5.18857">
        <ele>834.1</ele>
        <time>2024-07-01T09:55:21Z</time>
      </trkpt>
      <trkpt lat="44.87338" lon="5.18857">
        <ele>834.1</ele>
        <time>2024-07-01T09:55:22Z</time>
      </trkpt>
      <trkpt lat="44.87339" lon="5.18857">
        <ele>834</ele>
        <time>2024-07-01T09:55:23Z</time>
      </trkpt>
      <trkpt lat="44.8734" lon="5.18858">
        <ele>833.9</ele>
        <time>2024-07-01T09:55:24Z</time>
      </trkpt>
      <trkpt lat="44.87341" lon="5.18859">
        <ele>833.9</ele>
        <time>2024-07-01T09:55:25Z</time>
      </trkpt>
      <trkpt lat="44.87343" lon="5.1886">
        <ele>833.8</ele>
        <time>2024-07-01T09:55:26Z</time>
      </trkpt>
      <trkpt lat="44.87344" lon="5.1886">
        <ele>833.7</ele>
        <time>2024-07-01T09:55:28Z</time>
      </trkpt>
      <trkpt lat="44.87345" lon="5.18861">
        <ele>833.6</ele>
        <time>2024-07-01T09:55:29Z</time>
      </trkpt>
      <trkpt lat="44.87346" lon="5.18861">
        <ele>833.5</ele>
        <time>2024-07-01T09:55:30Z</time>
      </trkpt>
      <trkpt lat="44.87347" lon="5.18861">
        <ele>833.5</ele>
        <time>2024-07-01T09:55:31Z</time>
      </trkpt>
      <trkpt lat="44.87349" lon="5.18862">
        <ele>833.3</ele>
        <time>2024-07-01T09:55:32Z</time>
      </trkpt>
      <trkpt lat="44.8735" lon="5.18862">
        <ele>833.2</ele>
        <time>2024-07-01T09:55:33Z</time>
      </trkpt>
      <trkpt lat="44.87351" lon="5.18863">
        <ele>833.2</ele>
        <time>2024-07-01T09:55:35Z</time>
      </trkpt>
      <trkpt lat="44.87352" lon="5.18863">
        <ele>833.1</ele>
        <time>2024-07-01T09:55:36Z</time>
      </trkpt>
      <trkpt lat="44.87355" lon="5.18864">
        <ele>832.9</ele>
        <time>2024-07-01T09:55:37Z</time>
      </trkpt>
      <trkpt lat="44.87356" lon="5.18864">
        <ele>832.8</ele>
        <time>2024-07-01T09:55:39Z</time>
      </trkpt>
      <trkpt lat="44.87357" lon="5.18864">
        <ele>832.8</ele>
        <time>2024-07-01T09:55:40Z</time>
      </trkpt>
      <trkpt lat="44.87358" lon="5.18864">
        <ele>832.7</ele>
        <time>2024-07-01T09:55:41Z</time>
      </trkpt>
      <trkpt lat="44.87361" lon="5.18865">
        <ele>832.5</ele>
        <time>2024-07-01T09:55:42Z</time>
      </trkpt>
      <trkpt lat="44.87362" lon="5.18865">
        <ele>832.5</ele>
        <time>2024-07-01T09:55:44Z</time>
      </trkpt>
      <trkpt lat="44.87363" lon="5.18866">
        <ele>832.4</ele>
        <time>2024-07-01T09:55:45Z</time>
      </trkpt>
      <trkpt lat="44.87364" lon="5.18866">
        <ele>832.3</ele>
        <time>2024-07-01T09:55:46Z</time>
      </trkpt>
      <trkpt lat="44.87365" lon="5.18866">
        <ele>832.3</ele>
        <time>2024-07-01T09:55:47Z</time>
      </trkpt>
      <trkpt lat="44.87366" lon="5.18867">
        <ele>832.2</ele>
        <time>2024-07-01T09:55:48Z</time>
      </trkpt>
      <trkpt lat="44.87367" lon="5.18867">
        <ele>832.1</ele>
        <time>2024-07-01T09:55:49Z</time>
      </trkpt>
      <trkpt lat="44.87368" lon="5.18868">
        <ele>832.1</ele>
        <time>2024-07-01T09:55:50Z</time>
      </trkpt>
      <trkpt lat="44.8737" lon="5.18868">
        <ele>831.9</ele>
        <time>2024-07-01T09:55:51Z</time>
      </trkpt>
      <trkpt lat="44.87371" lon="5.18869">
        <ele>831.8</ele>
        <time>2024-07-01T09:55:53Z</time>
      </trkpt>
      <trkpt lat="44.87372" lon="5.18869">
        <ele>831.8</ele>
        <time>2024-07-01T09:55:54Z</time>
      </trkpt>
      <trkpt lat="44.87373" lon="5.18869">
        <ele>831.7</ele>
        <time>2024-07-01T09:55:55Z</time>
      </trkpt>
      <trkpt lat="44.87375" lon="5.1887">
        <ele>831.6</ele>
        <time>2024-07-01T09:55:56Z</time>
      </trkpt>
      <trkpt lat="44.87376" lon="5.18871">
        <ele>831.5</ele>
        <time>2024-07-01T09:55:58Z</time>
      </trkpt>
      <trkpt lat="44.87377" lon="5.18871">
        <ele>831.4</ele>
        <time>2024-07-01T09:55:59Z</time>
      </trkpt>
      <trkpt lat="44.87378" lon="5.18871">
        <ele>831.4</ele>
        <time>2024-07-01T09:56:00Z</time>
      </trkpt>
      <trkpt lat="44.87379" lon="5.18872">
        <ele>831.3</ele>
        <time>2024-07-01T09:56:01Z</time>
      </trkpt>
      <trkpt lat="44.87381" lon="5.18872">
        <ele>831.2</ele>
        <time>2024-07-01T09:56:02Z</time>
      </trkpt>
      <trkpt lat="44.87382" lon="5.18873">
        <ele>831.1</ele>
        <time>2024-07-01T09:56:04Z</time>
      </trkpt>
      <trkpt lat="44.87383" lon="5.18873">
        <ele>831</ele>
        <time>2024-07-01T09:56:05Z</time>
      </trkpt>
      <trkpt lat="44.87384" lon="5.18874">
        <ele>830.9</ele>
        <time>2024-07-01T09:56:06Z</time>
      </trkpt>
      <trkpt lat="44.87385" lon="5.18874">
        <ele>830.9</ele>
        <time>2024-07-01T09:56:07Z</time>
      </trkpt>
      <trkpt lat="44.87386" lon="5.18875">
        <ele>830.8</ele>
        <time>2024-07-01T09:56:08Z</time>
      </trkpt>
      <trkpt lat="44.87387" lon="5.18875">
        <ele>830.7</ele>
        <time>2024-07-01T09:56:09Z</time>
      </trkpt>
      <trkpt lat="44.87388" lon="5.18876">
        <ele>830.7</ele>
        <time>2024-07-01T09:56:10Z</time>
      </trkpt>
      <trkpt lat="44.8739" lon="5.18876">
        <ele>830.6</ele>
        <time>2024-07-01T09:56:11Z</time>
      </trkpt>
      <trkpt lat="44.87391" lon="5.18877">
        <ele>830.5</ele>
        <time>2024-07-01T09:56:12Z</time>
      </trkpt>
      <trkpt lat="44.87392" lon="5.18877">
        <ele>830.4</ele>
        <time>2024-07-01T09:56:13Z</time>
      </trkpt>
      <trkpt lat="44.87393" lon="5.18878">
        <ele>830.3</ele>
        <time>2024-07-01T09:56:14Z</time>
      </trkpt>
      <trkpt lat="44.87394" lon="5.18878">
        <ele>830.3</ele>
        <time>2024-07-01T09:56:15Z</time>
      </trkpt>
      <trkpt lat="44.87395" lon="5.18879">
        <ele>830.2</ele>
        <time>2024-07-01T09:56:16Z</time>
      </trkpt>
      <trkpt lat="44.87396" lon="5.18879">
        <ele>830.1</ele>
        <time>2024-07-01T09:56:17Z</time>
      </trkpt>
      <trkpt lat="44.87397" lon="5.1888">
        <ele>830</ele>
        <time>2024-07-01T09:56:18Z</time>
      </trkpt>
      <trkpt lat="44.87399" lon="5.18881">
        <ele>829.9</ele>
        <time>2024-07-01T09:56:19Z</time>
      </trkpt>
      <trkpt lat="44.874" lon="5.18881">
        <ele>829.8</ele>
        <time>2024-07-01T09:56:21Z</time>
      </trkpt>
      <trkpt lat="44.87401" lon="5.18882">
        <ele>829.7</ele>
        <time>2024-07-01T09:56:22Z</time>
      </trkpt>
      <trkpt lat="44.87402" lon="5.18882">
        <ele>829.7</ele>
        <time>2024-07-01T09:56:23Z</time>
      </trkpt>
      <trkpt lat="44.87405" lon="5.18884">
        <ele>829.4</ele>
        <time>2024-07-01T09:56:24Z</time>
      </trkpt>
      <trkpt lat="44.87406" lon="5.18884">
        <ele>829.4</ele>
        <time>2024-07-01T09:56:26Z</time>
      </trkpt>
      <trkpt lat="44.87407" lon="5.18885">
        <ele>829.3</ele>
        <time>2024-07-01T09:56:27Z</time>
      </trkpt>
      <trkpt lat="44.87408" lon="5.18886">
        <ele>829.2</ele>
        <time>2024-07-01T09:56:28Z</time>
      </trkpt>
      <trkpt lat="44.87409" lon="5.18886">
        <ele>829.1</ele>
        <time>2024-07-01T09:56:29Z</time>
      </trkpt>
      <trkpt lat="44.8741" lon="5.18887">
        <ele>829</ele>
        <time>2024-07-01T09:56:30Z</time>
      </trkpt>
      <trkpt lat="44.87411" lon="5.18887">
        <ele>829</ele>
        <time>2024-07-01T09:56:31Z</time>
      </trkpt>
      <trkpt lat="44.87412" lon="5.18888">
        <ele>828.9</ele>
        <time>2024-07-01T09:56:32Z</time>
      </trkpt>
      <trkpt lat="44.87414" lon="5.18889">
        <ele>828.7</ele>
        <time>2024-07-01T09:56:33Z</time>
      </trkpt>
      <trkpt lat="44.87416" lon="5.1889">
        <ele>828.6</ele>
        <time>2024-07-01T09:56:34Z</time>
      </trkpt>
      <trkpt lat="44.87416" lon="5.1889">
        <ele>828.5</ele>
        <time>2024-07-01T09:56:36Z</time>
      </trkpt>
      <trkpt lat="44.87418" lon="5.1889">
        <ele>828.4</ele>
        <time>2024-07-01T09:56:37Z</time>
      </trkpt>
      <trkpt lat="44.87419" lon="5.1889">
        <ele>828.3</ele>
        <time>2024-07-01T09:56:38Z</time>
      </trkpt>
      <trkpt lat="44.8742" lon="5.18891">
        <ele>828.2</ele>
        <time>2024-07-01T09:56:39Z</time>
      </trkpt>
      <trkpt lat="44.87421" lon="5.18891">
        <ele>828.1</ele>
        <time>2024-07-01T09:56:40Z</time>
      </trkpt>
      <trkpt lat="44.87422" lon="5.18891">
        <ele>828.1</ele>
        <time>2024-07-01T09:56:41Z</time>
      </trkpt>
      <trkpt lat="44.87423" lon="5.18892">
        <ele>828</ele>
        <time>2024-07-01T09:56:42Z</time>
      </trkpt>
      <trkpt lat="44.87425" lon="5.18892">
        <ele>827.8</ele>
        <time>2024-07-01T09:56:43Z</time>
      </trkpt>
      <trkpt lat="44.87427" lon="5.18892">
        <ele>827.7</ele>
        <time>2024-07-01T09:56:45Z</time>
      </trkpt>
      <trkpt lat="44.87427" lon="5.18893">
        <ele>827.6</ele>
        <time>2024-07-01T09:56:46Z</time>
      </trkpt>
      <trkpt lat="44.87429" lon="5.18893">
        <ele>827.6</ele>
        <time>2024-07-01T09:56:47Z</time>
      </trkpt>
      <trkpt lat="44.87431" lon="5.18894">
        <ele>827.4</ele>
        <time>2024-07-01T09:56:48Z</time>
      </trkpt>
      <trkpt lat="44.87432" lon="5.18894">
        <ele>827.3</ele>
        <time>2024-07-01T09:56:49Z</time>
      </trkpt>
      <trkpt lat="44.87433" lon="5.18894">
        <ele>827.2</ele>
        <time>2024-07-01T09:56:51Z</time>
      </trkpt>
      <trkpt lat="44.87434" lon="5.18895">
        <ele>827.2</ele>
        <time>2024-07-01T09:56:52Z</time>
      </trkpt>
      <trkpt lat="44.87436" lon="5.18895">
        <ele>827</ele>
        <time>2024-07-01T09:56:53Z</time>
      </trkpt>
      <trkpt lat="44.87437" lon="5.18894">
        <ele>826.9</ele>
        <time>2024-07-01T09:56:55Z</time>
      </trkpt>
      <trkpt lat="44.87438" lon="5.18894">
        <ele>826.9</ele>
        <time>2024-07-01T09:56:56Z</time>
      </trkpt>
      <trkpt lat="44.87439" lon="5.18893">
        <ele>826.8</ele>
        <time>2024-07-01T09:56:57Z</time>
      </trkpt>
      <trkpt lat="44.8744" lon="5.18893">
        <ele>826.7</ele>
        <time>2024-07-01T09:56:58Z</time>
      </trkpt>
      <trkpt lat="44.87441" lon="5.18893">
        <ele>826.6</ele>
        <time>2024-07-01T09:56:59Z</time>
      </trkpt>
      <trkpt lat="44.87442" lon="5.18893">
        <ele>826.6</ele>
        <time>2024-07-01T09:57:00Z</time>
      </trkpt>
      <trkpt lat="44.87444" lon="5.18894">
        <ele>826.5</ele>
        <time>2024-07-01T09:57:01Z</time>
      </trkpt>
      <trkpt lat="44.87445" lon="5.18894">
        <ele>826.4</ele>
        <time>2024-07-01T09:57:02Z</time>
      </trkpt>
      <trkpt lat="44.87447" lon="5.18895">
        <ele>826.3</ele>
        <time>2024-07-01T09:57:03Z</time>
      </trkpt>
      <trkpt lat="44.87448" lon="5.18895">
        <ele>826.2</ele>
        <time>2024-07-01T09:57:04Z</time>
      </trkpt>
      <trkpt lat="44.87449" lon="5.18895">
        <ele>826.1</ele>
        <time>2024-07-01T09:57:06Z</time>
      </trkpt>
      <trkpt lat="44.87451" lon="5.18896">
        <ele>826</ele>
        <time>2024-07-01T09:57:07Z</time>
      </trkpt>
      <trkpt lat="44.87453" lon="5.18897">
        <ele>825.9</ele>
        <time>2024-07-01T09:57:09Z</time>
      </trkpt>
      <trkpt lat="44.87454" lon="5.18898">
        <ele>825.9</ele>
        <time>2024-07-01T09:57:11Z</time>
      </trkpt>
      <trkpt lat="44.87456" lon="5.18898">
        <ele>825.8</ele>
        <time>2024-07-01T09:57:12Z</time>
      </trkpt>
      <trkpt lat="44.87457" lon="5.18899">
        <ele>825.7</ele>
        <time>2024-07-01T09:57:13Z</time>
      </trkpt>
      <trkpt lat="44.87459" lon="5.18901">
        <ele>825.6</ele>
        <time>2024-07-01T09:57:15Z</time>
      </trkpt>
      <trkpt lat="44.8746" lon="5.18902">
        <ele>825.5</ele>
        <time>2024-07-01T09:57:17Z</time>
      </trkpt>
      <trkpt lat="44.87461" lon="5.18902">
        <ele>825.5</ele>
        <time>2024-07-01T09:57:18Z</time>
      </trkpt>
      <trkpt lat="44.87462" lon="5.18902">
        <ele>825.4</ele>
        <time>2024-07-01T09:57:19Z</time>
      </trkpt>
      <trkpt lat="44.87464" lon="5.18903">
        <ele>825.4</ele>
        <time>2024-07-01T09:57:20Z</time>
      </trkpt>
      <trkpt lat="44.87465" lon="5.18904">
        <ele>825.3</ele>
        <time>2024-07-01T09:57:21Z</time>
      </trkpt>
      <trkpt lat="44.87466" lon="5.18905">
        <ele>825.2</ele>
        <time>2024-07-01T09:57:22Z</time>
      </trkpt>
      <trkpt lat="44.87467" lon="5.18906">
        <ele>825.2</ele>
        <time>2024-07-01T09:57:24Z</time>
      </trkpt>
      <trkpt lat="44.87468" lon="5.18907">
        <ele>825.2</ele>
        <time>2024-07-01T09:57:25Z</time>
      </trkpt>
      <trkpt lat="44.87469" lon="5.18907">
        <ele>825.1</ele>
        <time>2024-07-01T09:57:26Z</time>
      </trkpt>
      <trkpt lat="44.87469" lon="5.18908">
        <ele>825.1</ele>
        <time>2024-07-01T09:57:27Z</time>
      </trkpt>
      <trkpt lat="44.8747" lon="5.18909">
        <ele>825</ele>
        <time>2024-07-01T09:57:28Z</time>
      </trkpt>
      <trkpt lat="44.87471" lon="5.18909">
        <ele>825</ele>
        <time>2024-07-01T09:57:29Z</time>
      </trkpt>
      <trkpt lat="44.87472" lon="5.18911">
        <ele>825</ele>
        <time>2024-07-01T09:57:30Z</time>
      </trkpt>
      <trkpt lat="44.87472" lon="5.18912">
        <ele>824.9</ele>
        <time>2024-07-01T09:57:31Z</time>
      </trkpt>
      <trkpt lat="44.87472" lon="5.18913">
        <ele>824.9</ele>
        <time>2024-07-01T09:57:32Z</time>
      </trkpt>
      <trkpt lat="44.87473" lon="5.18914">
        <ele>824.9</ele>
        <time>2024-07-01T09:57:33Z</time>
      </trkpt>
      <trkpt lat="44.87473" lon="5.18917">
        <ele>824.8</ele>
        <time>2024-07-01T09:57:34Z</time>
      </trkpt>
      <trkpt lat="44.87474" lon="5.18918">
        <ele>824.8</ele>
        <time>2024-07-01T09:57:35Z</time>
      </trkpt>
      <trkpt lat="44.87474" lon="5.18918">
        <ele>824.8</ele>
        <time>2024-07-01T09:57:37Z</time>
      </trkpt>
      <trkpt lat="44.87474" lon="5.1892">
        <ele>824.8</ele>
        <time>2024-07-01T09:57:38Z</time>
      </trkpt>
      <trkpt lat="44.87474" lon="5.18923">
        <ele>824.7</ele>
        <time>2024-07-01T09:57:40Z</time>
      </trkpt>
      <trkpt lat="44.87473" lon="5.18924">
        <ele>824.7</ele>
        <time>2024-07-01T09:57:41Z</time>
      </trkpt>
      <trkpt lat="44.87473" lon="5.18926">
        <ele>824.7</ele>
        <time>2024-07-01T09:57:42Z</time>
      </trkpt>
      <trkpt lat="44.87472" lon="5.18928">
        <ele>824.6</ele>
        <time>2024-07-01T09:57:44Z</time>
      </trkpt>
      <trkpt lat="44.87471" lon="5.1893">
        <ele>824.6</ele>
        <time>2024-07-01T09:57:45Z</time>
      </trkpt>
      <trkpt lat="44.8747" lon="5.18933">
        <ele>824.6</ele>
        <time>2024-07-01T09:57:46Z</time>
      </trkpt>
      <trkpt lat="44.8747" lon="5.18935">
        <ele>824.5</ele>
        <time>2024-07-01T09:57:47Z</time>
      </trkpt>
      <trkpt lat="44.87469" lon="5.18937">
        <ele>824.5</ele>
        <time>2024-07-01T09:57:49Z</time>
      </trkpt>
      <trkpt lat="44.87469" lon="5.18938">
        <ele>824.5</ele>
        <time>2024-07-01T09:57:50Z</time>
      </trkpt>
      <trkpt lat="44.87468" lon="5.1894">
        <ele>824.5</ele>
        <time>2024-07-01T09:57:51Z</time>
      </trkpt>
      <trkpt lat="44.87468" lon="5.18941">
        <ele>824.5</ele>
        <time>2024-07-01T09:57:52Z</time>
      </trkpt>
      <trkpt lat="44.87468" lon="5.18942">
        <ele>824.4</ele>
        <time>2024-07-01T09:57:53Z</time>
      </trkpt>
      <trkpt lat="44.87468" lon="5.18944">
        <ele>824.4</ele>
        <time>2024-07-01T09:57:54Z</time>
      </trkpt>
      <trkpt lat="44.87467" lon="5.18946">
        <ele>824.4</ele>
        <time>2024-07-01T09:57:55Z</time>
      </trkpt>
      <trkpt lat="44.87467" lon="5.18948">
        <ele>824.4</ele>
        <time>2024-07-01T09:57:57Z</time>
      </trkpt>
      <trkpt lat="44.87466" lon="5.18949">
        <ele>824.4</ele>
        <time>2024-07-01T09:57:58Z</time>
      </trkpt>
      <trkpt lat="44.87466" lon="5.18951">
        <ele>824.4</ele>
        <time>2024-07-01T09:57:59Z</time>
      </trkpt>
      <trkpt lat="44.87466" lon="5.18953">
        <ele>824.4</ele>
        <time>2024-07-01T09:58:00Z</time>
      </trkpt>
      <trkpt lat="44.87465" lon="5.18955">
        <ele>824.4</ele>
        <time>2024-07-01T09:58:02Z</time>
      </trkpt>
      <trkpt lat="44.87465" lon="5.18956">
        <ele>824.4</ele>
        <time>2024-07-01T09:58:03Z</time>
      </trkpt>
      <trkpt lat="44.87464" lon="5.18957">
        <ele>824.4</ele>
        <time>2024-07-01T09:58:04Z</time>
      </trkpt>
      <trkpt lat="44.87462" lon="5.18959">
        <ele>824.4</ele>
        <time>2024-07-01T09:58:05Z</time>
      </trkpt>
      <trkpt lat="44.87462" lon="5.1896">
        <ele>824.4</ele>
        <time>2024-07-01T09:58:07Z</time>
      </trkpt>
      <trkpt lat="44.87461" lon="5.1896">
        <ele>824.4</ele>
        <time>2024-07-01T09:58:08Z</time>
      </trkpt>
      <trkpt lat="44.8746" lon="5.18962">
        <ele>824.4</ele>
        <time>2024-07-01T09:58:09Z</time>
      </trkpt>
      <trkpt lat="44.87459" lon="5.18963">
        <ele>824.4</ele>
        <time>2024-07-01T09:58:11Z</time>
      </trkpt>
      <trkpt lat="44.87458" lon="5.18963">
        <ele>824.4</ele>
        <time>2024-07-01T09:58:12Z</time>
      </trkpt>
      <trkpt lat="44.87457" lon="5.18963">
        <ele>824.4</ele>
        <time>2024-07-01T09:58:13Z</time>
      </trkpt>
      <trkpt lat="44.87457" lon="5.18964">
        <ele>824.4</ele>
        <time>2024-07-01T09:58:14Z</time>
      </trkpt>
      <trkpt lat="44.87456" lon="5.18965">
        <ele>824.4</ele>
        <time>2024-07-01T09:58:15Z</time>
      </trkpt>
      <trkpt lat="44.87455" lon="5.18966">
        <ele>824.5</ele>
        <time>2024-07-01T09:58:16Z</time>
      </trkpt>
      <trkpt lat="44.87454" lon="5.18967">
        <ele>824.5</ele>
        <time>2024-07-01T09:58:17Z</time>
      </trkpt>
      <trkpt lat="44.87453" lon="5.18969">
        <ele>824.5</ele>
        <time>2024-07-01T09:58:19Z</time>
      </trkpt>
      <trkpt lat="44.87452" lon="5.1897">
        <ele>824.5</ele>
        <time>2024-07-01T09:58:20Z</time>
      </trkpt>
      <trkpt lat="44.87452" lon="5.18971">
        <ele>824.6</ele>
        <time>2024-07-01T09:58:21Z</time>
      </trkpt>
      <trkpt lat="44.87451" lon="5.18972">
        <ele>824.6</ele>
        <time>2024-07-01T09:58:22Z</time>
      </trkpt>
      <trkpt lat="44.87451" lon="5.18973">
        <ele>824.6</ele>
        <time>2024-07-01T09:58:23Z</time>
      </trkpt>
      <trkpt lat="44.8745" lon="5.18974">
        <ele>824.6</ele>
        <time>2024-07-01T09:58:24Z</time>
      </trkpt>
      <trkpt lat="44.87449" lon="5.18976">
        <ele>824.6</ele>
        <time>2024-07-01T09:58:25Z</time>
      </trkpt>
      <trkpt lat="44.87448" lon="5.18977">
        <ele>824.7</ele>
        <time>2024-07-01T09:58:26Z</time>
      </trkpt>
      <trkpt lat="44.87448" lon="5.18977">
        <ele>824.7</ele>
        <time>2024-07-01T09:58:27Z</time>
      </trkpt>
      <trkpt lat="44.87447" lon="5.18979">
        <ele>824.7</ele>
        <time>2024-07-01T09:58:28Z</time>
      </trkpt>
      <trkpt lat="44.87446" lon="5.18979">
        <ele>824.7</ele>
        <time>2024-07-01T09:58:29Z</time>
      </trkpt>
      <trkpt lat="44.87445" lon="5.1898">
        <ele>824.8</ele>
        <time>2024-07-01T09:58:30Z</time>
      </trkpt>
      <trkpt lat="44.87444" lon="5.18981">
        <ele>824.8</ele>
        <time>2024-07-01T09:58:31Z</time>
      </trkpt>
      <trkpt lat="44.87443" lon="5.18981">
        <ele>824.8</ele>
        <time>2024-07-01T09:58:32Z</time>
      </trkpt>
      <trkpt lat="44.87443" lon="5.18981">
        <ele>824.8</ele>
        <time>2024-07-01T09:58:33Z</time>
      </trkpt>
      <trkpt lat="44.87442" lon="5.18982">
        <ele>824.9</ele>
        <time>2024-07-01T09:58:34Z</time>
      </trkpt>
      <trkpt lat="44.87441" lon="5.18983">
        <ele>824.9</ele>
        <time>2024-07-01T09:58:35Z</time>
      </trkpt>
      <trkpt lat="44.87438" lon="5.18984">
        <ele>825</ele>
        <time>2024-07-01T09:58:36Z</time>
      </trkpt>
      <trkpt lat="44.87438" lon="5.18985">
        <ele>825</ele>
        <time>2024-07-01T09:58:38Z</time>
      </trkpt>
      <trkpt lat="44.87437" lon="5.18985">
        <ele>825</ele>
        <time>2024-07-01T09:58:39Z</time>
      </trkpt>
      <trkpt lat="44.87436" lon="5.18986">
        <ele>825</ele>
        <time>2024-07-01T09:58:40Z</time>
      </trkpt>
      <trkpt lat="44.87435" lon="5.18986">
        <ele>825.1</ele>
        <time>2024-07-01T09:58:41Z</time>
      </trkpt>
      <trkpt lat="44.87434" lon="5.18987">
        <ele>825.1</ele>
        <time>2024-07-01T09:58:42Z</time>
      </trkpt>
      <trkpt lat="44.87432" lon="5.18989">
        <ele>825.2</ele>
        <time>2024-07-01T09:58:43Z</time>
      </trkpt>
      <trkpt lat="44.87431" lon="5.1899">
        <ele>825.2</ele>
        <time>2024-07-01T09:58:44Z</time>
      </trkpt>
      <trkpt lat="44.8743" lon="5.18991">
        <ele>825.3</ele>
        <time>2024-07-01T09:58:45Z</time>
      </trkpt>
      <trkpt lat="44.87429" lon="5.18992">
        <ele>825.3</ele>
        <time>2024-07-01T09:58:47Z</time>
      </trkpt>
      <trkpt lat="44.87428" lon="5.18993">
        <ele>825.3</ele>
        <time>2024-07-01T09:58:48Z</time>
      </trkpt>
      <trkpt lat="44.87426" lon="5.18995">
        <ele>825.4</ele>
        <time>2024-07-01T09:58:49Z</time>
      </trkpt>
      <trkpt lat="44.87426" lon="5.18996">
        <ele>825.4</ele>
        <time>2024-07-01T09:58:50Z</time>
      </trkpt>
      <trkpt lat="44.87425" lon="5.18996">
        <ele>825.4</ele>
        <time>2024-07-01T09:58:51Z</time>
      </trkpt>
      <trkpt lat="44.87425" lon="5.18998">
        <ele>825.5</ele>
        <time>2024-07-01T09:58:52Z</time>
      </trkpt>
      <trkpt lat="44.87424" lon="5.18999">
        <ele>825.5</ele>
        <time>2024-07-01T09:58:53Z</time>
      </trkpt>
      <trkpt lat="44.87423" lon="5.19">
        <ele>825.6</ele>
        <time>2024-07-01T09:58:54Z</time>
      </trkpt>
      <trkpt lat="44.87422" lon="5.19001">
        <ele>825.6</ele>
        <time>2024-07-01T09:58:55Z</time>
      </trkpt>
      <trkpt lat="44.87422" lon="5.19002">
        <ele>825.6</ele>
        <time>2024-07-01T09:58:56Z</time>
      </trkpt>
      <trkpt lat="44.87421" lon="5.19003">
        <ele>825.7</ele>
        <time>2024-07-01T09:58:57Z</time>
      </trkpt>
      <trkpt lat="44.8742" lon="5.19004">
        <ele>825.7</ele>
        <time>2024-07-01T09:58:58Z</time>
      </trkpt>
      <trkpt lat="44.87419" lon="5.19005">
        <ele>825.7</ele>
        <time>2024-07-01T09:58:59Z</time>
      </trkpt>
      <trkpt lat="44.87418" lon="5.19005">
        <ele>825.7</ele>
        <time>2024-07-01T09:59:00Z</time>
      </trkpt>
      <trkpt lat="44.87417" lon="5.19006">
        <ele>825.8</ele>
        <time>2024-07-01T09:59:01Z</time>
      </trkpt>
      <trkpt lat="44.87416" lon="5.19007">
        <ele>825.8</ele>
        <time>2024-07-01T09:59:02Z</time>
      </trkpt>
      <trkpt lat="44.87415" lon="5.19007">
        <ele>825.9</ele>
        <time>2024-07-01T09:59:03Z</time>
      </trkpt>
      <trkpt lat="44.87414" lon="5.19007">
        <ele>825.9</ele>
        <time>2024-07-01T09:59:04Z</time>
      </trkpt>
      <trkpt lat="44.87412" lon="5.19009">
        <ele>826</ele>
        <time>2024-07-01T09:59:05Z</time>
      </trkpt>
      <trkpt lat="44.87411" lon="5.19009">
        <ele>826</ele>
        <time>2024-07-01T09:59:07Z</time>
      </trkpt>
      <trkpt lat="44.87409" lon="5.19011">
        <ele>826.1</ele>
        <time>2024-07-01T09:59:08Z</time>
      </trkpt>
      <trkpt lat="44.87408" lon="5.19011">
        <ele>826.1</ele>
        <time>2024-07-01T09:59:10Z</time>
      </trkpt>
      <trkpt lat="44.87407" lon="5.19011">
        <ele>826.1</ele>
        <time>2024-07-01T09:59:11Z</time>
      </trkpt>
      <trkpt lat="44.87406" lon="5.19012">
        <ele>826.2</ele>
        <time>2024-07-01T09:59:12Z</time>
      </trkpt>
      <trkpt lat="44.87405" lon="5.19012">
        <ele>826.2</ele>
        <time>2024-07-01T09:59:13Z</time>
      </trkpt>
      <trkpt lat="44.87404" lon="5.19013">
        <ele>826.2</ele>
        <time>2024-07-01T09:59:14Z</time>
      </trkpt>
      <trkpt lat="44.87403" lon="5.19014">
        <ele>826.3</ele>
        <time>2024-07-01T09:59:15Z</time>
      </trkpt>
      <trkpt lat="44.87402" lon="5.19014">
        <ele>826.3</ele>
        <time>2024-07-01T09:59:16Z</time>
      </trkpt>
      <trkpt lat="44.87401" lon="5.19015">
        <ele>826.4</ele>
        <time>2024-07-01T09:59:17Z</time>
      </trkpt>
      <trkpt lat="44.87399" lon="5.19017">
        <ele>826.4</ele>
        <time>2024-07-01T09:59:18Z</time>
      </trkpt>
      <trkpt lat="44.87398" lon="5.19018">
        <ele>826.5</ele>
        <time>2024-07-01T09:59:20Z</time>
      </trkpt>
      <trkpt lat="44.87397" lon="5.19018">
        <ele>826.5</ele>
        <time>2024-07-01T09:59:21Z</time>
      </trkpt>
      <trkpt lat="44.87396" lon="5.19019">
        <ele>826.5</ele>
        <time>2024-07-01T09:59:22Z</time>
      </trkpt>
      <trkpt lat="44.87394" lon="5.19021">
        <ele>826.6</ele>
        <time>2024-07-01T09:59:23Z</time>
      </trkpt>
      <trkpt lat="44.87393" lon="5.19022">
        <ele>826.7</ele>
        <time>2024-07-01T09:59:25Z</time>
      </trkpt>
      <trkpt lat="44.87392" lon="5.19023">
        <ele>826.7</ele>
        <time>2024-07-01T09:59:26Z</time>
      </trkpt>
      <trkpt lat="44.87391" lon="5.19023">
        <ele>826.8</ele>
        <time>2024-07-01T09:59:27Z</time>
      </trkpt>
      <trkpt lat="44.8739" lon="5.19024">
        <ele>826.8</ele>
        <time>2024-07-01T09:59:28Z</time>
      </trkpt>
      <trkpt lat="44.87389" lon="5.19024">
        <ele>826.8</ele>
        <time>2024-07-01T09:59:29Z</time>
      </trkpt>
      <trkpt lat="44.87389" lon="5.19025">
        <ele>826.9</ele>
        <time>2024-07-01T09:59:30Z</time>
      </trkpt>
      <trkpt lat="44.87388" lon="5.19026">
        <ele>826.9</ele>
        <time>2024-07-01T09:59:31Z</time>
      </trkpt>
      <trkpt lat="44.87386" lon="5.19027">
        <ele>827</ele>
        <time>2024-07-01T09:59:32Z</time>
      </trkpt>
      <trkpt lat="44.87385" lon="5.19027">
        <ele>827</ele>
        <time>2024-07-01T09:59:34Z</time>
      </trkpt>
      <trkpt lat="44.87384" lon="5.19028">
        <ele>827.1</ele>
        <time>2024-07-01T09:59:35Z</time>
      </trkpt>
      <trkpt lat="44.87383" lon="5.19028">
        <ele>827.1</ele>
        <time>2024-07-01T09:59:36Z</time>
      </trkpt>
      <trkpt lat="44.8738" lon="5.19029">
        <ele>827.2</ele>
        <time>2024-07-01T09:59:37Z</time>
      </trkpt>
      <trkpt lat="44.8738" lon="5.1903">
        <ele>827.2</ele>
        <time>2024-07-01T09:59:39Z</time>
      </trkpt>
      <trkpt lat="44.87379" lon="5.19031">
        <ele>827.2</ele>
        <time>2024-07-01T09:59:40Z</time>
      </trkpt>
      <trkpt lat="44.87377" lon="5.19032">
        <ele>827.3</ele>
        <time>2024-07-01T09:59:41Z</time>
      </trkpt>
      <trkpt lat="44.87376" lon="5.19032">
        <ele>827.3</ele>
        <time>2024-07-01T09:59:43Z</time>
      </trkpt>
      <trkpt lat="44.87375" lon="5.19032">
        <ele>827.3</ele>
        <time>2024-07-01T09:59:44Z</time>
      </trkpt>
      <trkpt lat="44.87374" lon="5.19033">
        <ele>827.4</ele>
        <time>2024-07-01T09:59:45Z</time>
      </trkpt>
      <trkpt lat="44.87373" lon="5.19034">
        <ele>827.4</ele>
        <time>2024-07-01T09:59:46Z</time>
      </trkpt>
      <trkpt lat="44.87372" lon="5.19034">
        <ele>827.4</ele>
        <time>2024-07-01T09:59:47Z</time>
      </trkpt>
      <trkpt lat="44.87371" lon="5.19035">
        <ele>827.5</ele>
        <time>2024-07-01T09:59:48Z</time>
      </trkpt>
      <trkpt lat="44.8737" lon="5.19036">
        <ele>827.5</ele>
        <time>2024-07-01T09:59:49Z</time>
      </trkpt>
      <trkpt lat="44.87368" lon="5.19037">
        <ele>827.6</ele>
        <time>2024-07-01T09:59:50Z</time>
      </trkpt>
      <trkpt lat="44.87367" lon="5.19038">
        <ele>827.6</ele>
        <time>2024-07-01T09:59:52Z</time>
      </trkpt>
      <trkpt lat="44.87366" lon="5.19039">
        <ele>827.7</ele>
        <time>2024-07-01T09:59:53Z</time>
      </trkpt>
      <trkpt lat="44.87364" lon="5.1904">
        <ele>827.7</ele>
        <time>2024-07-01T09:59:54Z</time>
      </trkpt>
      <trkpt lat="44.87363" lon="5.1904">
        <ele>827.8</ele>
        <time>2024-07-01T09:59:56Z</time>
      </trkpt>
      <trkpt lat="44.87362" lon="5.19041">
        <ele>827.8</ele>
        <time>2024-07-01T09:59:57Z</time>
      </trkpt>
      <trkpt lat="44.87361" lon="5.19042">
        <ele>827.8</ele>
        <time>2024-07-01T09:59:58Z</time>
      </trkpt>
      <trkpt lat="44.87359" lon="5.19043">
        <ele>827.9</ele>
        <time>2024-07-01T09:59:59Z</time>
      </trkpt>
      <trkpt lat="44.87358" lon="5.19044">
        <ele>827.9</ele>
        <time>2024-07-01T10:00:01Z</time>
      </trkpt>
      <trkpt lat="44.87357" lon="5.19044">
        <ele>828</ele>
        <time>2024-07-01T10:00:02Z</time>
      </trkpt>
      <trkpt lat="44.87355" lon="5.19045">
        <ele>828</ele>
        <time>2024-07-01T10:00:03Z</time>
      </trkpt>
      <trkpt lat="44.87354" lon="5.19046">
        <ele>828.1</ele>
        <time>2024-07-01T10:00:05Z</time>
      </trkpt>
      <trkpt lat="44.87353" lon="5.19047">
        <ele>828.1</ele>
        <time>2024-07-01T10:00:06Z</time>
      </trkpt>
      <trkpt lat="44.87352" lon="5.19047">
        <ele>828.1</ele>
        <time>2024-07-01T10:00:07Z</time>
      </trkpt>
      <trkpt lat="44.87351" lon="5.19048">
        <ele>828.2</ele>
        <time>2024-07-01T10:00:08Z</time>
      </trkpt>
      <trkpt lat="44.8735" lon="5.19049">
        <ele>828.2</ele>
        <time>2024-07-01T10:00:09Z</time>
      </trkpt>
      <trkpt lat="44.87349" lon="5.1905">
        <ele>828.3</ele>
        <time>2024-07-01T10:00:10Z</time>
      </trkpt>
      <trkpt lat="44.87348" lon="5.19051">
        <ele>828.3</ele>
        <time>2024-07-01T10:00:11Z</time>
      </trkpt>
      <trkpt lat="44.87347" lon="5.19052">
        <ele>828.4</ele>
        <time>2024-07-01T10:00:12Z</time>
      </trkpt>
      <trkpt lat="44.87346" lon="5.19052">
        <ele>828.4</ele>
        <time>2024-07-01T10:00:13Z</time>
      </trkpt>
      <trkpt lat="44.87345" lon="5.19053">
        <ele>828.4</ele>
        <time>2024-07-01T10:00:14Z</time>
      </trkpt>
      <trkpt lat="44.87344" lon="5.19053">
        <ele>828.5</ele>
        <time>2024-07-01T10:00:15Z</time>
      </trkpt>
      <trkpt lat="44.87343" lon="5.19054">
        <ele>828.5</ele>
        <time>2024-07-01T10:00:16Z</time>
      </trkpt>
      <trkpt lat="44.87341" lon="5.19055">
        <ele>828.6</ele>
        <time>2024-07-01T10:00:17Z</time>
      </trkpt>
      <trkpt lat="44.8734" lon="5.19056">
        <ele>828.7</ele>
        <time>2024-07-01T10:00:19Z</time>
      </trkpt>
      <trkpt lat="44.87339" lon="5.19056">
        <ele>828.7</ele>
        <time>2024-07-01T10:00:20Z</time>
      </trkpt>
      <trkpt lat="44.87337" lon="5.19057">
        <ele>828.8</ele>
        <time>2024-07-01T10:00:21Z</time>
      </trkpt>
      <trkpt lat="44.87336" lon="5.19058">
        <ele>828.9</ele>
        <time>2024-07-01T10:00:23Z</time>
      </trkpt>
      <trkpt lat="44.87335" lon="5.19058">
        <ele>828.9</ele>
        <time>2024-07-01T10:00:24Z</time>
      </trkpt>
      <trkpt lat="44.87334" lon="5.19059">
        <ele>828.9</ele>
        <time>2024-07-01T10:00:25Z</time>
      </trkpt>
      <trkpt lat="44.87333" lon="5.19059">
        <ele>829</ele>
        <time>2024-07-01T10:00:26Z</time>
      </trkpt>
      <trkpt lat="44.87332" lon="5.1906">
        <ele>829</ele>
        <time>2024-07-01T10:00:27Z</time>
      </trkpt>
      <trkpt lat="44.87331" lon="5.19061">
        <ele>829.1</ele>
        <time>2024-07-01T10:00:28Z</time>
      </trkpt>
      <trkpt lat="44.8733" lon="5.19061">
        <ele>829.1</ele>
        <time>2024-07-01T10:00:29Z</time>
      </trkpt>
      <trkpt lat="44.8733" lon="5.19062">
        <ele>829.2</ele>
        <time>2024-07-01T10:00:30Z</time>
      </trkpt>
      <trkpt lat="44.87328" lon="5.19063">
        <ele>829.3</ele>
        <time>2024-07-01T10:00:31Z</time>
      </trkpt>
      <trkpt lat="44.87327" lon="5.19064">
        <ele>829.3</ele>
        <time>2024-07-01T10:00:33Z</time>
      </trkpt>
      <trkpt lat="44.87326" lon="5.19065">
        <ele>829.4</ele>
        <time>2024-07-01T10:00:34Z</time>
      </trkpt>
      <trkpt lat="44.87325" lon="5.19065">
        <ele>829.4</ele>
        <time>2024-07-01T10:00:35Z</time>
      </trkpt>
      <trkpt lat="44.87324" lon="5.19066">
        <ele>829.5</ele>
        <time>2024-07-01T10:00:36Z</time>
      </trkpt>
      <trkpt lat="44.87324" lon="5.19067">
        <ele>829.5</ele>
        <time>2024-07-01T10:00:37Z</time>
      </trkpt>
      <trkpt lat="44.87323" lon="5.19068">
        <ele>829.6</ele>
        <time>2024-07-01T10:00:38Z</time>
      </trkpt>
      <trkpt lat="44.87321" lon="5.19069">
        <ele>829.7</ele>
        <time>2024-07-01T10:00:39Z</time>
      </trkpt>
      <trkpt lat="44.8732" lon="5.1907">
        <ele>829.8</ele>
        <time>2024-07-01T10:00:40Z</time>
      </trkpt>
      <trkpt lat="44.87319" lon="5.1907">
        <ele>829.8</ele>
        <time>2024-07-01T10:00:41Z</time>
      </trkpt>
      <trkpt lat="44.87318" lon="5.19071">
        <ele>829.8</ele>
        <time>2024-07-01T10:00:42Z</time>
      </trkpt>
      <trkpt lat="44.87316" lon="5.19073">
        <ele>830</ele>
        <time>2024-07-01T10:00:43Z</time>
      </trkpt>
      <trkpt lat="44.87315" lon="5.19074">
        <ele>830</ele>
        <time>2024-07-01T10:00:45Z</time>
      </trkpt>
      <trkpt lat="44.87313" lon="5.19075">
        <ele>830.2</ele>
        <time>2024-07-01T10:00:46Z</time>
      </trkpt>
      <trkpt lat="44.87312" lon="5.19076">
        <ele>830.2</ele>
        <time>2024-07-01T10:00:47Z</time>
      </trkpt>
      <trkpt lat="44.8731" lon="5.19077">
        <ele>830.3</ele>
        <time>2024-07-01T10:00:49Z</time>
      </trkpt>
      <trkpt lat="44.87309" lon="5.19077">
        <ele>830.4</ele>
        <time>2024-07-01T10:00:50Z</time>
      </trkpt>
      <trkpt lat="44.87308" lon="5.19078">
        <ele>830.4</ele>
        <time>2024-07-01T10:00:51Z</time>
      </trkpt>
      <trkpt lat="44.87307" lon="5.19078">
        <ele>830.5</ele>
        <time>2024-07-01T10:00:53Z</time>
      </trkpt>
      <trkpt lat="44.87305" lon="5.1908">
        <ele>830.6</ele>
        <time>2024-07-01T10:00:54Z</time>
      </trkpt>
      <trkpt lat="44.87304" lon="5.1908">
        <ele>830.7</ele>
        <time>2024-07-01T10:00:56Z</time>
      </trkpt>
      <trkpt lat="44.87303" lon="5.19081">
        <ele>830.7</ele>
        <time>2024-07-01T10:00:57Z</time>
      </trkpt>
      <trkpt lat="44.87302" lon="5.19081">
        <ele>830.8</ele>
        <time>2024-07-01T10:00:58Z</time>
      </trkpt>
      <trkpt lat="44.873" lon="5.19082">
        <ele>830.8</ele>
        <time>2024-07-01T10:00:59Z</time>
      </trkpt>
      <trkpt lat="44.87299" lon="5.19082">
        <ele>830.9</ele>
        <time>2024-07-01T10:01:00Z</time>
      </trkpt>
      <trkpt lat="44.87298" lon="5.19082">
        <ele>831</ele>
        <time>2024-07-01T10:01:01Z</time>
      </trkpt>
      <trkpt lat="44.87297" lon="5.19083">
        <ele>831</ele>
        <time>2024-07-01T10:01:02Z</time>
      </trkpt>
      <trkpt lat="44.87295" lon="5.19084">
        <ele>831.1</ele>
        <time>2024-07-01T10:01:03Z</time>
      </trkpt>
      <trkpt lat="44.87294" lon="5.19085">
        <ele>831.2</ele>
        <time>2024-07-01T10:01:05Z</time>
      </trkpt>
      <trkpt lat="44.87292" lon="5.19086">
        <ele>831.3</ele>
        <time>2024-07-01T10:01:06Z</time>
      </trkpt>
      <trkpt lat="44.87291" lon="5.19087">
        <ele>831.4</ele>
        <time>2024-07-01T10:01:07Z</time>
      </trkpt>
      <trkpt lat="44.8729" lon="5.19087">
        <ele>831.4</ele>
        <time>2024-07-01T10:01:08Z</time>
      </trkpt>
      <trkpt lat="44.87289" lon="5.19088">
        <ele>831.5</ele>
        <time>2024-07-01T10:01:09Z</time>
      </trkpt>
      <trkpt lat="44.87288" lon="5.19089">
        <ele>831.6</ele>
        <time>2024-07-01T10:01:11Z</time>
      </trkpt>
      <trkpt lat="44.87287" lon="5.19089">
        <ele>831.6</ele>
        <time>2024-07-01T10:01:12Z</time>
      </trkpt>
      <trkpt lat="44.87286" lon="5.19089">
        <ele>831.7</ele>
        <time>2024-07-01T10:01:13Z</time>
      </trkpt>
      <trkpt lat="44.87285" lon="5.1909">
        <ele>831.8</ele>
        <time>2024-07-01T10:01:14Z</time>
      </trkpt>
      <trkpt lat="44.87284" lon="5.1909">
        <ele>831.8</ele>
        <time>2024-07-01T10:01:15Z</time>
      </trkpt>
      <trkpt lat="44.87283" lon="5.19091">
        <ele>831.9</ele>
        <time>2024-07-01T10:01:16Z</time>
      </trkpt>
      <trkpt lat="44.87281" lon="5.19092">
        <ele>832</ele>
        <time>2024-07-01T10:01:17Z</time>
      </trkpt>
      <trkpt lat="44.8728" lon="5.19093">
        <ele>832.1</ele>
        <time>2024-07-01T10:01:19Z</time>
      </trkpt>
      <trkpt lat="44.87279" lon="5.19094">
        <ele>832.2</ele>
        <time>2024-07-01T10:01:20Z</time>
      </trkpt>
      <trkpt lat="44.87277" lon="5.19096">
        <ele>832.3</ele>
        <time>2024-07-01T10:01:21Z</time>
      </trkpt>
      <trkpt lat="44.87277" lon="5.19097">
        <ele>832.3</ele>
        <time>2024-07-01T10:01:23Z</time>
      </trkpt>
      <trkpt lat="44.87275" lon="5.19098">
        <ele>832.5</ele>
        <time>2024-07-01T10:01:24Z</time>
      </trkpt>
      <trkpt lat="44.87274" lon="5.19099">
        <ele>832.5</ele>
        <time>2024-07-01T10:01:25Z</time>
      </trkpt>
      <trkpt lat="44.87272" lon="5.19101">
        <ele>832.7</ele>
        <time>2024-07-01T10:01:27Z</time>
      </trkpt>
      <trkpt lat="44.87271" lon="5.19102">
        <ele>832.8</ele>
        <time>2024-07-01T10:01:28Z</time>
      </trkpt>
      <trkpt lat="44.8727" lon="5.19103">
        <ele>832.8</ele>
        <time>2024-07-01T10:01:29Z</time>
      </trkpt>
      <trkpt lat="44.87269" lon="5.19104">
        <ele>832.9</ele>
        <time>2024-07-01T10:01:31Z</time>
      </trkpt>
      <trkpt lat="44.87268" lon="5.19106">
        <ele>833</ele>
        <time>2024-07-01T10:01:32Z</time>
      </trkpt>
      <trkpt lat="44.87267" lon="5.19106">
        <ele>833.1</ele>
        <time>2024-07-01T10:01:34Z</time>
      </trkpt>
      <trkpt lat="44.87266" lon="5.19107">
        <ele>833.1</ele>
        <time>2024-07-01T10:01:35Z</time>
      </trkpt>
      <trkpt lat="44.87265" lon="5.19108">
        <ele>833.2</ele>
        <time>2024-07-01T10:01:36Z</time>
      </trkpt>
      <trkpt lat="44.87263" lon="5.19109">
        <ele>833.3</ele>
        <time>2024-07-01T10:01:37Z</time>
      </trkpt>
      <trkpt lat="44.87261" lon="5.1911">
        <ele>833.5</ele>
        <time>2024-07-01T10:01:39Z</time>
      </trkpt>
      <trkpt lat="44.8726" lon="5.19111">
        <ele>833.5</ele>
        <time>2024-07-01T10:01:40Z</time>
      </trkpt>
      <trkpt lat="44.87259" lon="5.19111">
        <ele>833.6</ele>
        <time>2024-07-01T10:01:41Z</time>
      </trkpt>
      <trkpt lat="44.87257" lon="5.19112">
        <ele>833.7</ele>
        <time>2024-07-01T10:01:42Z</time>
      </trkpt>
      <trkpt lat="44.87255" lon="5.19113">
        <ele>833.8</ele>
        <time>2024-07-01T10:01:44Z</time>
      </trkpt>
      <trkpt lat="44.87254" lon="5.19113">
        <ele>833.8</ele>
        <time>2024-07-01T10:01:45Z</time>
      </trkpt>
      <trkpt lat="44.87253" lon="5.19114">
        <ele>833.9</ele>
        <time>2024-07-01T10:01:46Z</time>
      </trkpt>
      <trkpt lat="44.87252" lon="5.19114">
        <ele>834</ele>
        <time>2024-07-01T10:01:47Z</time>
      </trkpt>
      <trkpt lat="44.87249" lon="5.19115">
        <ele>834.1</ele>
        <time>2024-07-01T10:01:48Z</time>
      </trkpt>
      <trkpt lat="44.87248" lon="5.19116">
        <ele>834.2</ele>
        <time>2024-07-01T10:01:49Z</time>
      </trkpt>
      <trkpt lat="44.87247" lon="5.19117">
        <ele>834.2</ele>
        <time>2024-07-01T10:01:51Z</time>
      </trkpt>
      <trkpt lat="44.87246" lon="5.19117">
        <ele>834.3</ele>
        <time>2024-07-01T10:01:52Z</time>
      </trkpt>
      <trkpt lat="44.87244" lon="5.19118">
        <ele>834.4</ele>
        <time>2024-07-01T10:01:53Z</time>
      </trkpt>
      <trkpt lat="44.87243" lon="5.19118">
        <ele>834.4</ele>
        <time>2024-07-01T10:01:54Z</time>
      </trkpt>
      <trkpt lat="44.87242" lon="5.19119">
        <ele>834.5</ele>
        <time>2024-07-01T10:01:55Z</time>
      </trkpt>
      <trkpt lat="44.8724" lon="5.19119">
        <ele>834.6</ele>
        <time>2024-07-01T10:01:56Z</time>
      </trkpt>
      <trkpt lat="44.87238" lon="5.19118">
        <ele>834.7</ele>
        <time>2024-07-01T10:01:57Z</time>
      </trkpt>
      <trkpt lat="44.87237" lon="5.19118">
        <ele>834.8</ele>
        <time>2024-07-01T10:01:58Z</time>
      </trkpt>
      <trkpt lat="44.87236" lon="5.19118">
        <ele>834.8</ele>
        <time>2024-07-01T10:01:59Z</time>
      </trkpt>
      <trkpt lat="44.87234" lon="5.19118">
        <ele>834.9</ele>
        <time>2024-07-01T10:02:01Z</time>
      </trkpt>
      <trkpt lat="44.87233" lon="5.19118">
        <ele>834.9</ele>
        <time>2024-07-01T10:02:02Z</time>
      </trkpt>
      <trkpt lat="44.87232" lon="5.19119">
        <ele>835</ele>
        <time>2024-07-01T10:02:03Z</time>
      </trkpt>
      <trkpt lat="44.87231" lon="5.19118">
        <ele>835</ele>
        <time>2024-07-01T10:02:04Z</time>
      </trkpt>
      <trkpt lat="44.8723" lon="5.19119">
        <ele>835.1</ele>
        <time>2024-07-01T10:02:05Z</time>
      </trkpt>
      <trkpt lat="44.87229" lon="5.19118">
        <ele>835.1</ele>
        <time>2024-07-01T10:02:06Z</time>
      </trkpt>
      <trkpt lat="44.87227" lon="5.19118">
        <ele>835.2</ele>
        <time>2024-07-01T10:02:07Z</time>
      </trkpt>
      <trkpt lat="44.87226" lon="5.19118">
        <ele>835.2</ele>
        <time>2024-07-01T10:02:08Z</time>
      </trkpt>
      <trkpt lat="44.87225" lon="5.19118">
        <ele>835.3</ele>
        <time>2024-07-01T10:02:09Z</time>
      </trkpt>
      <trkpt lat="44.87224" lon="5.19118">
        <ele>835.3</ele>
        <time>2024-07-01T10:02:10Z</time>
      </trkpt>
      <trkpt lat="44.87223" lon="5.19118">
        <ele>835.3</ele>
        <time>2024-07-01T10:02:11Z</time>
      </trkpt>
      <trkpt lat="44.87221" lon="5.19119">
        <ele>835.3</ele>
        <time>2024-07-01T10:02:12Z</time>
      </trkpt>
      <trkpt lat="44.8722" lon="5.19119">
        <ele>835.4</ele>
        <time>2024-07-01T10:02:13Z</time>
      </trkpt>
      <trkpt lat="44.87219" lon="5.19119">
        <ele>835.4</ele>
        <time>2024-07-01T10:02:14Z</time>
      </trkpt>
      <trkpt lat="44.87218" lon="5.19119">
        <ele>835.4</ele>
        <time>2024-07-01T10:02:15Z</time>
      </trkpt>
      <trkpt lat="44.87217" lon="5.1912">
        <ele>835.4</ele>
        <time>2024-07-01T10:02:16Z</time>
      </trkpt>
      <trkpt lat="44.87216" lon="5.1912">
        <ele>835.4</ele>
        <time>2024-07-01T10:02:17Z</time>
      </trkpt>
      <trkpt lat="44.87215" lon="5.1912">
        <ele>835.5</ele>
        <time>2024-07-01T10:02:18Z</time>
      </trkpt>
      <trkpt lat="44.87214" lon="5.19121">
        <ele>835.5</ele>
        <time>2024-07-01T10:02:19Z</time>
      </trkpt>
      <trkpt lat="44.87213" lon="5.19121">
        <ele>835.5</ele>
        <time>2024-07-01T10:02:20Z</time>
      </trkpt>
      <trkpt lat="44.87212" lon="5.19121">
        <ele>835.5</ele>
        <time>2024-07-01T10:02:21Z</time>
      </trkpt>
      <trkpt lat="44.87211" lon="5.19121">
        <ele>835.5</ele>
        <time>2024-07-01T10:02:22Z</time>
      </trkpt>
      <trkpt lat="44.8721" lon="5.19122">
        <ele>835.5</ele>
        <time>2024-07-01T10:02:23Z</time>
      </trkpt>
      <trkpt lat="44.87208" lon="5.19122">
        <ele>835.6</ele>
        <time>2024-07-01T10:02:24Z</time>
      </trkpt>
      <trkpt lat="44.87207" lon="5.19122">
        <ele>835.6</ele>
        <time>2024-07-01T10:02:25Z</time>
      </trkpt>
      <trkpt lat="44.87206" lon="5.19122">
        <ele>835.6</ele>
        <time>2024-07-01T10:02:26Z</time>
      </trkpt>
      <trkpt lat="44.87204" lon="5.19123">
        <ele>835.6</ele>
        <time>2024-07-01T10:02:27Z</time>
      </trkpt>
      <trkpt lat="44.87203" lon="5.19124">
        <ele>835.6</ele>
        <time>2024-07-01T10:02:28Z</time>
      </trkpt>
      <trkpt lat="44.87202" lon="5.19124">
        <ele>835.6</ele>
        <time>2024-07-01T10:02:30Z</time>
      </trkpt>
      <trkpt lat="44.87201" lon="5.19125">
        <ele>835.7</ele>
        <time>2024-07-01T10:02:31Z</time>
      </trkpt>
      <trkpt lat="44.87199" lon="5.19125">
        <ele>835.7</ele>
        <time>2024-07-01T10:02:32Z</time>
      </trkpt>
      <trkpt lat="44.87196" lon="5.19125">
        <ele>835.7</ele>
        <time>2024-07-01T10:02:34Z</time>
      </trkpt>
      <trkpt lat="44.87195" lon="5.19125">
        <ele>835.8</ele>
        <time>2024-07-01T10:02:35Z</time>
      </trkpt>
      <trkpt lat="44.87194" lon="5.19125">
        <ele>835.8</ele>
        <time>2024-07-01T10:02:37Z</time>
      </trkpt>
      <trkpt lat="44.87192" lon="5.19125">
        <ele>835.8</ele>
        <time>2024-07-01T10:02:38Z</time>
      </trkpt>
      <trkpt lat="44.87191" lon="5.19125">
        <ele>835.9</ele>
        <time>2024-07-01T10:02:39Z</time>
      </trkpt>
      <trkpt lat="44.8719" lon="5.19125">
        <ele>835.9</ele>
        <time>2024-07-01T10:02:40Z</time>
      </trkpt>
      <trkpt lat="44.87188" lon="5.19125">
        <ele>835.9</ele>
        <time>2024-07-01T10:02:41Z</time>
      </trkpt>
      <trkpt lat="44.87187" lon="5.19125">
        <ele>836</ele>
        <time>2024-07-01T10:02:42Z</time>
      </trkpt>
      <trkpt lat="44.87186" lon="5.19125">
        <ele>836</ele>
        <time>2024-07-01T10:02:43Z</time>
      </trkpt>
      <trkpt lat="44.87184" lon="5.19126">
        <ele>836.1</ele>
        <time>2024-07-01T10:02:44Z</time>
      </trkpt>
      <trkpt lat="44.87183" lon="5.19126">
        <ele>836.1</ele>
        <time>2024-07-01T10:02:45Z</time>
      </trkpt>
      <trkpt lat="44.87182" lon="5.19126">
        <ele>836.1</ele>
        <time>2024-07-01T10:02:46Z</time>
      </trkpt>
      <trkpt lat="44.8718" lon="5.19126">
        <ele>836.2</ele>
        <time>2024-07-01T10:02:47Z</time>
      </trkpt>
      <trkpt lat="44.87179" lon="5.19126">
        <ele>836.2</ele>
        <time>2024-07-01T10:02:48Z</time>
      </trkpt>
      <trkpt lat="44.87178" lon="5.19126">
        <ele>836.3</ele>
        <time>2024-07-01T10:02:49Z</time>
      </trkpt>
      <trkpt lat="44.87177" lon="5.19126">
        <ele>836.3</ele>
        <time>2024-07-01T10:02:50Z</time>
      </trkpt>
      <trkpt lat="44.87176" lon="5.19126">
        <ele>836.3</ele>
        <time>2024-07-01T10:02:51Z</time>
      </trkpt>
      <trkpt lat="44.87175" lon="5.19127">
        <ele>836.4</ele>
        <time>2024-07-01T10:02:52Z</time>
      </trkpt>
      <trkpt lat="44.87174" lon="5.19127">
        <ele>836.5</ele>
        <time>2024-07-01T10:02:53Z</time>
      </trkpt>
      <trkpt lat="44.87172" lon="5.19127">
        <ele>836.6</ele>
        <time>2024-07-01T10:02:54Z</time>
      </trkpt>
      <trkpt lat="44.87171" lon="5.19127">
        <ele>836.6</ele>
        <time>2024-07-01T10:02:55Z</time>
      </trkpt>
      <trkpt lat="44.8717" lon="5.19127">
        <ele>836.6</ele>
        <time>2024-07-01T10:02:56Z</time>
      </trkpt>
      <trkpt lat="44.87169" lon="5.19128">
        <ele>836.7</ele>
        <time>2024-07-01T10:02:57Z</time>
      </trkpt>
      <trkpt lat="44.87166" lon="5.19129">
        <ele>836.9</ele>
        <time>2024-07-01T10:02:58Z</time>
      </trkpt>
      <trkpt lat="44.87165" lon="5.19129">
        <ele>836.9</ele>
        <time>2024-07-01T10:02:59Z</time>
      </trkpt>
      <trkpt lat="44.87164" lon="5.19129">
        <ele>837</ele>
        <time>2024-07-01T10:03:01Z</time>
      </trkpt>
      <trkpt lat="44.87163" lon="5.1913">
        <ele>837.1</ele>
        <time>2024-07-01T10:03:02Z</time>
      </trkpt>
      <trkpt lat="44.87162" lon="5.1913">
        <ele>837.1</ele>
        <time>2024-07-01T10:03:03Z</time>
      </trkpt>
      <trkpt lat="44.8716" lon="5.1913">
        <ele>837.2</ele>
        <time>2024-07-01T10:03:04Z</time>
      </trkpt>
      <trkpt lat="44.87159" lon="5.19131">
        <ele>837.2</ele>
        <time>2024-07-01T10:03:05Z</time>
      </trkpt>
      <trkpt lat="44.87158" lon="5.19131">
        <ele>837.3</ele>
        <time>2024-07-01T10:03:06Z</time>
      </trkpt>
      <trkpt lat="44.87157" lon="5.19131">
        <ele>837.4</ele>
        <time>2024-07-01T10:03:07Z</time>
      </trkpt>
      <trkpt lat="44.87156" lon="5.19131">
        <ele>837.4</ele>
        <time>2024-07-01T10:03:08Z</time>
      </trkpt>
      <trkpt lat="44.87155" lon="5.19131">
        <ele>837.5</ele>
        <time>2024-07-01T10:03:09Z</time>
      </trkpt>
      <trkpt lat="44.87154" lon="5.19131">
        <ele>837.5</ele>
        <time>2024-07-01T10:03:10Z</time>
      </trkpt>
      <trkpt lat="44.87153" lon="5.19132">
        <ele>837.6</ele>
        <time>2024-07-01T10:03:11Z</time>
      </trkpt>
      <trkpt lat="44.87152" lon="5.19132">
        <ele>837.7</ele>
        <time>2024-07-01T10:03:12Z</time>
      </trkpt>
      <trkpt lat="44.8715" lon="5.19133">
        <ele>837.8</ele>
        <time>2024-07-01T10:03:13Z</time>
      </trkpt>
      <trkpt lat="44.87149" lon="5.19133">
        <ele>837.8</ele>
        <time>2024-07-01T10:03:15Z</time>
      </trkpt>
      <trkpt lat="44.87148" lon="5.19134">
        <ele>837.9</ele>
        <time>2024-07-01T10:03:16Z</time>
      </trkpt>
      <trkpt lat="44.87146" lon="5.19135">
        <ele>838</ele>
        <time>2024-07-01T10:03:17Z</time>
      </trkpt>
      <trkpt lat="44.87145" lon="5.19135">
        <ele>838.1</ele>
        <time>2024-07-01T10:03:19Z</time>
      </trkpt>
      <trkpt lat="44.87144" lon="5.19135">
        <ele>838.1</ele>
        <time>2024-07-01T10:03:20Z</time>
      </trkpt>
      <trkpt lat="44.87143" lon="5.19136">
        <ele>838.1</ele>
        <time>2024-07-01T10:03:21Z</time>
      </trkpt>
      <trkpt lat="44.87142" lon="5.19136">
        <ele>838.2</ele>
        <time>2024-07-01T10:03:22Z</time>
      </trkpt>
      <trkpt lat="44.87141" lon="5.19136">
        <ele>838.2</ele>
        <time>2024-07-01T10:03:23Z</time>
      </trkpt>
      <trkpt lat="44.87138" lon="5.19137">
        <ele>838.3</ele>
        <time>2024-07-01T10:03:24Z</time>
      </trkpt>
      <trkpt lat="44.87137" lon="5.19137">
        <ele>838.4</ele>
        <time>2024-07-01T10:03:26Z</time>
      </trkpt>
      <trkpt lat="44.87136" lon="5.19137">
        <ele>838.4</ele>
        <time>2024-07-01T10:03:27Z</time>
      </trkpt>
      <trkpt lat="44.87135" lon="5.19138">
        <ele>838.5</ele>
        <time>2024-07-01T10:03:28Z</time>
      </trkpt>
      <trkpt lat="44.87134" lon="5.19138">
        <ele>838.6</ele>
        <time>2024-07-01T10:03:29Z</time>
      </trkpt>
      <trkpt lat="44.87133" lon="5.19138">
        <ele>838.6</ele>
        <time>2024-07-01T10:03:30Z</time>
      </trkpt>
      <trkpt lat="44.87132" lon="5.19138">
        <ele>838.6</ele>
        <time>2024-07-01T10:03:31Z</time>
      </trkpt>
      <trkpt lat="44.87131" lon="5.19139">
        <ele>838.7</ele>
        <time>2024-07-01T10:03:32Z</time>
      </trkpt>
      <trkpt lat="44.87129" lon="5.19139">
        <ele>838.7</ele>
        <time>2024-07-01T10:03:33Z</time>
      </trkpt>
      <trkpt lat="44.87128" lon="5.1914">
        <ele>838.8</ele>
        <time>2024-07-01T10:03:34Z</time>
      </trkpt>
      <trkpt lat="44.87127" lon="5.1914">
        <ele>838.8</ele>
        <time>2024-07-01T10:03:35Z</time>
      </trkpt>
      <trkpt lat="44.87125" lon="5.19141">
        <ele>838.9</ele>
        <time>2024-07-01T10:03:36Z</time>
      </trkpt>
      <trkpt lat="44.87124" lon="5.19141">
        <ele>839</ele>
        <time>2024-07-01T10:03:38Z</time>
      </trkpt>
      <trkpt lat="44.87122" lon="5.19141">
        <ele>839</ele>
        <time>2024-07-01T10:03:39Z</time>
      </trkpt>
      <trkpt lat="44.87122" lon="5.19142">
        <ele>839.1</ele>
        <time>2024-07-01T10:03:40Z</time>
      </trkpt>
      <trkpt lat="44.87121" lon="5.19141">
        <ele>839.1</ele>
        <time>2024-07-01T10:03:41Z</time>
      </trkpt>
      <trkpt lat="44.8712" lon="5.19142">
        <ele>839.2</ele>
        <time>2024-07-01T10:03:42Z</time>
      </trkpt>
      <trkpt lat="44.87119" lon="5.19142">
        <ele>839.2</ele>
        <time>2024-07-01T10:03:43Z</time>
      </trkpt>
      <trkpt lat="44.87117" lon="5.19141">
        <ele>839.3</ele>
        <time>2024-07-01T10:03:44Z</time>
      </trkpt>
      <trkpt lat="44.87116" lon="5.19141">
        <ele>839.3</ele>
        <time>2024-07-01T10:03:45Z</time>
      </trkpt>
      <trkpt lat="44.87115" lon="5.19141">
        <ele>839.3</ele>
        <time>2024-07-01T10:03:46Z</time>
      </trkpt>
      <trkpt lat="44.87113" lon="5.1914">
        <ele>839.4</ele>
        <time>2024-07-01T10:03:47Z</time>
      </trkpt>
      <trkpt lat="44.87112" lon="5.1914">
        <ele>839.4</ele>
        <time>2024-07-01T10:03:48Z</time>
      </trkpt>
      <trkpt lat="44.87112" lon="5.1914">
        <ele>839.5</ele>
        <time>2024-07-01T10:03:49Z</time>
      </trkpt>
      <trkpt lat="44.87111" lon="5.19139">
        <ele>839.5</ele>
        <time>2024-07-01T10:03:50Z</time>
      </trkpt>
      <trkpt lat="44.8711" lon="5.19139">
        <ele>839.6</ele>
        <time>2024-07-01T10:03:51Z</time>
      </trkpt>
      <trkpt lat="44.87109" lon="5.19139">
        <ele>839.6</ele>
        <time>2024-07-01T10:03:52Z</time>
      </trkpt>
      <trkpt lat="44.87108" lon="5.19139">
        <ele>839.6</ele>
        <time>2024-07-01T10:03:53Z</time>
      </trkpt>
      <trkpt lat="44.87106" lon="5.19138">
        <ele>839.7</ele>
        <time>2024-07-01T10:03:54Z</time>
      </trkpt>
      <trkpt lat="44.87105" lon="5.19138">
        <ele>839.7</ele>
        <time>2024-07-01T10:03:55Z</time>
      </trkpt>
      <trkpt lat="44.87104" lon="5.19137">
        <ele>839.7</ele>
        <time>2024-07-01T10:03:56Z</time>
      </trkpt>
      <trkpt lat="44.87103" lon="5.19137">
        <ele>839.8</ele>
        <time>2024-07-01T10:03:57Z</time>
      </trkpt>
      <trkpt lat="44.87102" lon="5.19137">
        <ele>839.8</ele>
        <time>2024-07-01T10:03:58Z</time>
      </trkpt>
      <trkpt lat="44.87101" lon="5.19136">
        <ele>839.9</ele>
        <time>2024-07-01T10:03:59Z</time>
      </trkpt>
      <trkpt lat="44.871" lon="5.19136">
        <ele>839.9</ele>
        <time>2024-07-01T10:04:00Z</time>
      </trkpt>
      <trkpt lat="44.87099" lon="5.19135">
        <ele>839.9</ele>
        <time>2024-07-01T10:04:01Z</time>
      </trkpt>
      <trkpt lat="44.87097" lon="5.19134">
        <ele>840</ele>
        <time>2024-07-01T10:04:02Z</time>
      </trkpt>
      <trkpt lat="44.87096" lon="5.19134">
        <ele>840</ele>
        <time>2024-07-01T10:04:03Z</time>
      </trkpt>
      <trkpt lat="44.87094" lon="5.19133">
        <ele>840</ele>
        <time>2024-07-01T10:04:05Z</time>
      </trkpt>
      <trkpt lat="44.87093" lon="5.19133">
        <ele>840.1</ele>
        <time>2024-07-01T10:04:06Z</time>
      </trkpt>
      <trkpt lat="44.87092" lon="5.19133">
        <ele>840.1</ele>
        <time>2024-07-01T10:04:07Z</time>
      </trkpt>
      <trkpt lat="44.87091" lon="5.19133">
        <ele>840.1</ele>
        <time>2024-07-01T10:04:08Z</time>
      </trkpt>
      <trkpt lat="44.8709" lon="5.19133">
        <ele>840.1</ele>
        <time>2024-07-01T10:04:09Z</time>
      </trkpt>
      <trkpt lat="44.87089" lon="5.19133">
        <ele>840.2</ele>
        <time>2024-07-01T10:04:10Z</time>
      </trkpt>
      <trkpt lat="44.87086" lon="5.19133">
        <ele>840.2</ele>
        <time>2024-07-01T10:04:11Z</time>
      </trkpt>
      <trkpt lat="44.87085" lon="5.19133">
        <ele>840.2</ele>
        <time>2024-07-01T10:04:13Z</time>
      </trkpt>
      <trkpt lat="44.87084" lon="5.19133">
        <ele>840.2</ele>
        <time>2024-07-01T10:04:14Z</time>
      </trkpt>
      <trkpt lat="44.87083" lon="5.19133">
        <ele>840.2</ele>
        <time>2024-07-01T10:04:15Z</time>
      </trkpt>
      <trkpt lat="44.87081" lon="5.19133">
        <ele>840.2</ele>
        <time>2024-07-01T10:04:16Z</time>
      </trkpt>
      <trkpt lat="44.87079" lon="5.19133">
        <ele>840.2</ele>
        <time>2024-07-01T10:04:17Z</time>
      </trkpt>
      <trkpt lat="44.87079" lon="5.19133">
        <ele>840.2</ele>
        <time>2024-07-01T10:04:18Z</time>
      </trkpt>
      <trkpt lat="44.87078" lon="5.19133">
        <ele>840.2</ele>
        <time>2024-07-01T10:04:19Z</time>
      </trkpt>
      <trkpt lat="44.87075" lon="5.19132">
        <ele>840.2</ele>
        <time>2024-07-01T10:04:20Z</time>
      </trkpt>
      <trkpt lat="44.87074" lon="5.19132">
        <ele>840.2</ele>
        <time>2024-07-01T10:04:21Z</time>
      </trkpt>
      <trkpt lat="44.87072" lon="5.19132">
        <ele>840.2</ele>
        <time>2024-07-01T10:04:23Z</time>
      </trkpt>
      <trkpt lat="44.87071" lon="5.19132">
        <ele>840.2</ele>
        <time>2024-07-01T10:04:24Z</time>
      </trkpt>
      <trkpt lat="44.8707" lon="5.19133">
        <ele>840.2</ele>
        <time>2024-07-01T10:04:25Z</time>
      </trkpt>
      <trkpt lat="44.87068" lon="5.19133">
        <ele>840.1</ele>
        <time>2024-07-01T10:04:26Z</time>
      </trkpt>
      <trkpt lat="44.87067" lon="5.19133">
        <ele>840.1</ele>
        <time>2024-07-01T10:04:27Z</time>
      </trkpt>
      <trkpt lat="44.87066" lon="5.19133">
        <ele>840.1</ele>
        <time>2024-07-01T10:04:28Z</time>
      </trkpt>
      <trkpt lat="44.87065" lon="5.19133">
        <ele>840.1</ele>
        <time>2024-07-01T10:04:29Z</time>
      </trkpt>
      <trkpt lat="44.87063" lon="5.19133">
        <ele>840</ele>
        <time>2024-07-01T10:04:30Z</time>
      </trkpt>
      <trkpt lat="44.87062" lon="5.19133">
        <ele>840</ele>
        <time>2024-07-01T10:04:32Z</time>
      </trkpt>
      <trkpt lat="44.87061" lon="5.19133">
        <ele>840</ele>
        <time>2024-07-01T10:04:33Z</time>
      </trkpt>
      <trkpt lat="44.8706" lon="5.19133">
        <ele>839.9</ele>
        <time>2024-07-01T10:04:34Z</time>
      </trkpt>
      <trkpt lat="44.87057" lon="5.19133">
        <ele>839.9</ele>
        <time>2024-07-01T10:04:35Z</time>
      </trkpt>
      <trkpt lat="44.87056" lon="5.19132">
        <ele>839.9</ele>
        <time>2024-07-01T10:04:37Z</time>
      </trkpt>
      <trkpt lat="44.87055" lon="5.19132">
        <ele>839.8</ele>
        <time>2024-07-01T10:04:38Z</time>
      </trkpt>
      <trkpt lat="44.87054" lon="5.19132">
        <ele>839.8</ele>
        <time>2024-07-01T10:04:39Z</time>
      </trkpt>
      <trkpt lat="44.87053" lon="5.19132">
        <ele>839.8</ele>
        <time>2024-07-01T10:04:40Z</time>
      </trkpt>
      <trkpt lat="44.87052" lon="5.19132">
        <ele>839.8</ele>
        <time>2024-07-01T10:04:41Z</time>
      </trkpt>
      <trkpt lat="44.87051" lon="5.19132">
        <ele>839.7</ele>
        <time>2024-07-01T10:04:42Z</time>
      </trkpt>
      <trkpt lat="44.87049" lon="5.19132">
        <ele>839.7</ele>
        <time>2024-07-01T10:04:43Z</time>
      </trkpt>
      <trkpt lat="44.87047" lon="5.19132">
        <ele>839.7</ele>
        <time>2024-07-01T10:04:44Z</time>
      </trkpt>
      <trkpt lat="44.87046" lon="5.19132">
        <ele>839.6</ele>
        <time>2024-07-01T10:04:45Z</time>
      </trkpt>
      <trkpt lat="44.87045" lon="5.19132">
        <ele>839.6</ele>
        <time>2024-07-01T10:04:46Z</time>
      </trkpt>
      <trkpt lat="44.87044" lon="5.19132">
        <ele>839.6</ele>
        <time>2024-07-01T10:04:48Z</time>
      </trkpt>
      <trkpt lat="44.87041" lon="5.19131">
        <ele>839.6</ele>
        <time>2024-07-01T10:04:49Z</time>
      </trkpt>
      <trkpt lat="44.8704" lon="5.19131">
        <ele>839.6</ele>
        <time>2024-07-01T10:04:51Z</time>
      </trkpt>
      <trkpt lat="44.87039" lon="5.19131">
        <ele>839.5</ele>
        <time>2024-07-01T10:04:52Z</time>
      </trkpt>
      <trkpt lat="44.87038" lon="5.1913">
        <ele>839.5</ele>
        <time>2024-07-01T10:04:53Z</time>
      </trkpt>
      <trkpt lat="44.87036" lon="5.1913">
        <ele>839.5</ele>
        <time>2024-07-01T10:04:54Z</time>
      </trkpt>
      <trkpt lat="44.87034" lon="5.19131">
        <ele>839.5</ele>
        <time>2024-07-01T10:04:55Z</time>
      </trkpt>
      <trkpt lat="44.87033" lon="5.19131">
        <ele>839.5</ele>
        <time>2024-07-01T10:04:57Z</time>
      </trkpt>
      <trkpt lat="44.87032" lon="5.19131">
        <ele>839.5</ele>
        <time>2024-07-01T10:04:58Z</time>
      </trkpt>
      <trkpt lat="44.8703" lon="5.19131">
        <ele>839.5</ele>
        <time>2024-07-01T10:04:59Z</time>
      </trkpt>
      <trkpt lat="44.87029" lon="5.19131">
        <ele>839.5</ele>
        <time>2024-07-01T10:05:00Z</time>
      </trkpt>
      <trkpt lat="44.87028" lon="5.19131">
        <ele>839.5</ele>
        <time>2024-07-01T10:05:01Z</time>
      </trkpt>
      <trkpt lat="44.87026" lon="5.19131">
        <ele>839.5</ele>
        <time>2024-07-01T10:05:02Z</time>
      </trkpt>
      <trkpt lat="44.87024" lon="5.19131">
        <ele>839.5</ele>
        <time>2024-07-01T10:05:03Z</time>
      </trkpt>
      <trkpt lat="44.87022" lon="5.19131">
        <ele>839.6</ele>
        <time>2024-07-01T10:05:05Z</time>
      </trkpt>
      <trkpt lat="44.87021" lon="5.19131">
        <ele>839.6</ele>
        <time>2024-07-01T10:05:06Z</time>
      </trkpt>
      <trkpt lat="44.87021" lon="5.19131">
        <ele>839.6</ele>
        <time>2024-07-01T10:05:07Z</time>
      </trkpt>
      <trkpt lat="44.87018" lon="5.19131">
        <ele>839.6</ele>
        <time>2024-07-01T10:05:08Z</time>
      </trkpt>
      <trkpt lat="44.87017" lon="5.19131">
        <ele>839.6</ele>
        <time>2024-07-01T10:05:10Z</time>
      </trkpt>
      <trkpt lat="44.87016" lon="5.1913">
        <ele>839.6</ele>
        <time>2024-07-01T10:05:11Z</time>
      </trkpt>
      <trkpt lat="44.87013" lon="5.1913">
        <ele>839.6</ele>
        <time>2024-07-01T10:05:12Z</time>
      </trkpt>
      <trkpt lat="44.87011" lon="5.1913">
        <ele>839.7</ele>
        <time>2024-07-01T10:05:14Z</time>
      </trkpt>
      <trkpt lat="44.8701" lon="5.1913">
        <ele>839.7</ele>
        <time>2024-07-01T10:05:15Z</time>
      </trkpt>
      <trkpt lat="44.87009" lon="5.1913">
        <ele>839.7</ele>
        <time>2024-07-01T10:05:17Z</time>
      </trkpt>
      <trkpt lat="44.87007" lon="5.1913">
        <ele>839.7</ele>
        <time>2024-07-01T10:05:18Z</time>
      </trkpt>
      <trkpt lat="44.87006" lon="5.19129">
        <ele>839.8</ele>
        <time>2024-07-01T10:05:19Z</time>
      </trkpt>
      <trkpt lat="44.87005" lon="5.19129">
        <ele>839.8</ele>
        <time>2024-07-01T10:05:20Z</time>
      </trkpt>
      <trkpt lat="44.87004" lon="5.19129">
        <ele>839.8</ele>
        <time>2024-07-01T10:05:21Z</time>
      </trkpt>
      <trkpt lat="44.87003" lon="5.19129">
        <ele>839.8</ele>
        <time>2024-07-01T10:05:22Z</time>
      </trkpt>
      <trkpt lat="44.87002" lon="5.19129">
        <ele>839.9</ele>
        <time>2024-07-01T10:05:23Z</time>
      </trkpt>
      <trkpt lat="44.87001" lon="5.19129">
        <ele>839.9</ele>
        <time>2024-07-01T10:05:24Z</time>
      </trkpt>
      <trkpt lat="44.86999" lon="5.19128">
        <ele>839.9</ele>
        <time>2024-07-01T10:05:25Z</time>
      </trkpt>
      <trkpt lat="44.86998" lon="5.19128">
        <ele>840</ele>
        <time>2024-07-01T10:05:26Z</time>
      </trkpt>
      <trkpt lat="44.86996" lon="5.19128">
        <ele>840.1</ele>
        <time>2024-07-01T10:05:27Z</time>
      </trkpt>
      <trkpt lat="44.86995" lon="5.19127">
        <ele>840.1</ele>
        <time>2024-07-01T10:05:29Z</time>
      </trkpt>
      <trkpt lat="44.86994" lon="5.19127">
        <ele>840.2</ele>
        <time>2024-07-01T10:05:30Z</time>
      </trkpt>
      <trkpt lat="44.86993" lon="5.19127">
        <ele>840.2</ele>
        <time>2024-07-01T10:05:31Z</time>
      </trkpt>
      <trkpt lat="44.86992" lon="5.19127">
        <ele>840.2</ele>
        <time>2024-07-01T10:05:32Z</time>
      </trkpt>
      <trkpt lat="44.86991" lon="5.19126">
        <ele>840.3</ele>
        <time>2024-07-01T10:05:33Z</time>
      </trkpt>
      <trkpt lat="44.8699" lon="5.19126">
        <ele>840.3</ele>
        <time>2024-07-01T10:05:34Z</time>
      </trkpt>
      <trkpt lat="44.86989" lon="5.19126">
        <ele>840.4</ele>
        <time>2024-07-01T10:05:35Z</time>
      </trkpt>
      <trkpt lat="44.86988" lon="5.19126">
        <ele>840.5</ele>
        <time>2024-07-01T10:05:36Z</time>
      </trkpt>
      <trkpt lat="44.86987" lon="5.19125">
        <ele>840.5</ele>
        <time>2024-07-01T10:05:37Z</time>
      </trkpt>
      <trkpt lat="44.86986" lon="5.19125">
        <ele>840.5</ele>
        <time>2024-07-01T10:05:38Z</time>
      </trkpt>
      <trkpt lat="44.86983" lon="5.19124">
        <ele>840.7</ele>
        <time>2024-07-01T10:05:39Z</time>
      </trkpt>
      <trkpt lat="44.86983" lon="5.19124">
        <ele>840.7</ele>
        <time>2024-07-01T10:05:41Z</time>
      </trkpt>
      <trkpt lat="44.86982" lon="5.19123">
        <ele>840.8</ele>
        <time>2024-07-01T10:05:42Z</time>
      </trkpt>
      <trkpt lat="44.8698" lon="5.19123">
        <ele>840.8</ele>
        <time>2024-07-01T10:05:43Z</time>
      </trkpt>
      <trkpt lat="44.86979" lon="5.19122">
        <ele>840.9</ele>
        <time>2024-07-01T10:05:44Z</time>
      </trkpt>
      <trkpt lat="44.86977" lon="5.19122">
        <ele>841</ele>
        <time>2024-07-01T10:05:45Z</time>
      </trkpt>
      <trkpt lat="44.86976" lon="5.19121">
        <ele>841.1</ele>
        <time>2024-07-01T10:05:46Z</time>
      </trkpt>
      <trkpt lat="44.86975" lon="5.19121">
        <ele>841.1</ele>
        <time>2024-07-01T10:05:48Z</time>
      </trkpt>
      <trkpt lat="44.86974" lon="5.1912">
        <ele>841.2</ele>
        <time>2024-07-01T10:05:49Z</time>
      </trkpt>
      <trkpt lat="44.86972" lon="5.1912">
        <ele>841.3</ele>
        <time>2024-07-01T10:05:50Z</time>
      </trkpt>
      <trkpt lat="44.86971" lon="5.1912">
        <ele>841.4</ele>
        <time>2024-07-01T10:05:51Z</time>
      </trkpt>
      <trkpt lat="44.8697" lon="5.19119">
        <ele>841.4</ele>
        <time>2024-07-01T10:05:52Z</time>
      </trkpt>
      <trkpt lat="44.86968" lon="5.19119">
        <ele>841.5</ele>
        <time>2024-07-01T10:05:53Z</time>
      </trkpt>
      <trkpt lat="44.86967" lon="5.19119">
        <ele>841.6</ele>
        <time>2024-07-01T10:05:54Z</time>
      </trkpt>
      <trkpt lat="44.86966" lon="5.19119">
        <ele>841.6</ele>
        <time>2024-07-01T10:05:56Z</time>
      </trkpt>
      <trkpt lat="44.86965" lon="5.19119">
        <ele>841.7</ele>
        <time>2024-07-01T10:05:57Z</time>
      </trkpt>
      <trkpt lat="44.86962" lon="5.19118">
        <ele>841.8</ele>
        <time>2024-07-01T10:05:58Z</time>
      </trkpt>
      <trkpt lat="44.86961" lon="5.19118">
        <ele>841.9</ele>
        <time>2024-07-01T10:06:00Z</time>
      </trkpt>
      <trkpt lat="44.86959" lon="5.19117">
        <ele>842</ele>
        <time>2024-07-01T10:06:01Z</time>
      </trkpt>
      <trkpt lat="44.86957" lon="5.19116">
        <ele>842.1</ele>
        <time>2024-07-01T10:06:03Z</time>
      </trkpt>
      <trkpt lat="44.86957" lon="5.19116">
        <ele>842.1</ele>
        <time>2024-07-01T10:06:04Z</time>
      </trkpt>
      <trkpt lat="44.86954" lon="5.19115">
        <ele>842.3</ele>
        <time>2024-07-01T10:06:05Z</time>
      </trkpt>
      <trkpt lat="44.86953" lon="5.19114">
        <ele>842.3</ele>
        <time>2024-07-01T10:06:06Z</time>
      </trkpt>
      <trkpt lat="44.86951" lon="5.19112">
        <ele>842.4</ele>
        <time>2024-07-01T10:06:08Z</time>
      </trkpt>
      <trkpt lat="44.86949" lon="5.19112">
        <ele>842.5</ele>
        <time>2024-07-01T10:06:09Z</time>
      </trkpt>
      <trkpt lat="44.86949" lon="5.19111">
        <ele>842.5</ele>
        <time>2024-07-01T10:06:10Z</time>
      </trkpt>
      <trkpt lat="44.86948" lon="5.19111">
        <ele>842.5</ele>
        <time>2024-07-01T10:06:12Z</time>
      </trkpt>
      <trkpt lat="44.86946" lon="5.1911">
        <ele>842.6</ele>
        <time>2024-07-01T10:06:13Z</time>
      </trkpt>
      <trkpt lat="44.86945" lon="5.19109">
        <ele>842.6</ele>
        <time>2024-07-01T10:06:14Z</time>
      </trkpt>
      <trkpt lat="44.86944" lon="5.19109">
        <ele>842.7</ele>
        <time>2024-07-01T10:06:15Z</time>
      </trkpt>
      <trkpt lat="44.86943" lon="5.19109">
        <ele>842.7</ele>
        <time>2024-07-01T10:06:16Z</time>
      </trkpt>
      <trkpt lat="44.86941" lon="5.19108">
        <ele>842.8</ele>
        <time>2024-07-01T10:06:17Z</time>
      </trkpt>
      <trkpt lat="44.86939" lon="5.19108">
        <ele>842.8</ele>
        <time>2024-07-01T10:06:18Z</time>
      </trkpt>
      <trkpt lat="44.86938" lon="5.19108">
        <ele>842.9</ele>
        <time>2024-07-01T10:06:19Z</time>
      </trkpt>
      <trkpt lat="44.86937" lon="5.19107">
        <ele>842.9</ele>
        <time>2024-07-01T10:06:21Z</time>
      </trkpt>
      <trkpt lat="44.86936" lon="5.19107">
        <ele>842.9</ele>
        <time>2024-07-01T10:06:22Z</time>
      </trkpt>
      <trkpt lat="44.86934" lon="5.19107">
        <ele>843</ele>
        <time>2024-07-01T10:06:23Z</time>
      </trkpt>
      <trkpt lat="44.86933" lon="5.19107">
        <ele>843</ele>
        <time>2024-07-01T10:06:24Z</time>
      </trkpt>
      <trkpt lat="44.86931" lon="5.19107">
        <ele>843</ele>
        <time>2024-07-01T10:06:25Z</time>
      </trkpt>
      <trkpt lat="44.8693" lon="5.19107">
        <ele>843.1</ele>
        <time>2024-07-01T10:06:27Z</time>
      </trkpt>
      <trkpt lat="44.86929" lon="5.19107">
        <ele>843.1</ele>
        <time>2024-07-01T10:06:28Z</time>
      </trkpt>
      <trkpt lat="44.86928" lon="5.19106">
        <ele>843.1</ele>
        <time>2024-07-01T10:06:29Z</time>
      </trkpt>
      <trkpt lat="44.86926" lon="5.19106">
        <ele>843.1</ele>
        <time>2024-07-01T10:06:30Z</time>
      </trkpt>
      <trkpt lat="44.86925" lon="5.19107">
        <ele>843.1</ele>
        <time>2024-07-01T10:06:31Z</time>
      </trkpt>
      <trkpt lat="44.86924" lon="5.19107">
        <ele>843.2</ele>
        <time>2024-07-01T10:06:32Z</time>
      </trkpt>
      <trkpt lat="44.86923" lon="5.19107">
        <ele>843.2</ele>
        <time>2024-07-01T10:06:33Z</time>
      </trkpt>
      <trkpt lat="44.86922" lon="5.19106">
        <ele>843.2</ele>
        <time>2024-07-01T10:06:34Z</time>
      </trkpt>
      <trkpt lat="44.86921" lon="5.19106">
        <ele>843.2</ele>
        <time>2024-07-01T10:06:35Z</time>
      </trkpt>
      <trkpt lat="44.8692" lon="5.19106">
        <ele>843.2</ele>
        <time>2024-07-01T10:06:36Z</time>
      </trkpt>
      <trkpt lat="44.86919" lon="5.19106">
        <ele>843.3</ele>
        <time>2024-07-01T10:06:37Z</time>
      </trkpt>
      <trkpt lat="44.86917" lon="5.19106">
        <ele>843.3</ele>
        <time>2024-07-01T10:06:38Z</time>
      </trkpt>
      <trkpt lat="44.86914" lon="5.19105">
        <ele>843.3</ele>
        <time>2024-07-01T10:06:39Z</time>
      </trkpt>
      <trkpt lat="44.86914" lon="5.19105">
        <ele>843.3</ele>
        <time>2024-07-01T10:06:41Z</time>
      </trkpt>
      <trkpt lat="44.86913" lon="5.19105">
        <ele>843.3</ele>
        <time>2024-07-01T10:06:42Z</time>
      </trkpt>
      <trkpt lat="44.8691" lon="5.19105">
        <ele>843.4</ele>
        <time>2024-07-01T10:06:43Z</time>
      </trkpt>
      <trkpt lat="44.86909" lon="5.19105">
        <ele>843.4</ele>
        <time>2024-07-01T10:06:44Z</time>
      </trkpt>
      <trkpt lat="44.86908" lon="5.19105">
        <ele>843.4</ele>
        <time>2024-07-01T10:06:46Z</time>
      </trkpt>
      <trkpt lat="44.86907" lon="5.19104">
        <ele>843.4</ele>
        <time>2024-07-01T10:06:47Z</time>
      </trkpt>
      <trkpt lat="44.86906" lon="5.19104">
        <ele>843.4</ele>
        <time>2024-07-01T10:06:48Z</time>
      </trkpt>
      <trkpt lat="44.86905" lon="5.19104">
        <ele>843.4</ele>
        <time>2024-07-01T10:06:49Z</time>
      </trkpt>
      <trkpt lat="44.86904" lon="5.19104">
        <ele>843.4</ele>
        <time>2024-07-01T10:06:50Z</time>
      </trkpt>
      <trkpt lat="44.86903" lon="5.19104">
        <ele>843.4</ele>
        <time>2024-07-01T10:06:51Z</time>
      </trkpt>
      <trkpt lat="44.86902" lon="5.19103">
        <ele>843.4</ele>
        <time>2024-07-01T10:06:52Z</time>
      </trkpt>
      <trkpt lat="44.86901" lon="5.19103">
        <ele>843.4</ele>
        <time>2024-07-01T10:06:53Z</time>
      </trkpt>
      <trkpt lat="44.869" lon="5.19103">
        <ele>843.5</ele>
        <time>2024-07-01T10:06:54Z</time>
      </trkpt>
      <trkpt lat="44.86899" lon="5.19102">
        <ele>843.5</ele>
        <time>2024-07-01T10:06:55Z</time>
      </trkpt>
      <trkpt lat="44.86898" lon="5.19102">
        <ele>843.5</ele>
        <time>2024-07-01T10:06:56Z</time>
      </trkpt>
      <trkpt lat="44.86897" lon="5.19102">
        <ele>843.5</ele>
        <time>2024-07-01T10:06:57Z</time>
      </trkpt>
      <trkpt lat="44.86894" lon="5.19103">
        <ele>843.5</ele>
        <time>2024-07-01T10:06:58Z</time>
      </trkpt>
      <trkpt lat="44.86893" lon="5.19103">
        <ele>843.5</ele>
        <time>2024-07-01T10:07:00Z</time>
      </trkpt>
      <trkpt lat="44.86891" lon="5.19104">
        <ele>843.5</ele>
        <time>2024-07-01T10:07:01Z</time>
      </trkpt>
      <trkpt lat="44.8689" lon="5.19104">
        <ele>843.5</ele>
        <time>2024-07-01T10:07:02Z</time>
      </trkpt>
      <trkpt lat="44.8689" lon="5.19104">
        <ele>843.5</ele>
        <time>2024-07-01T10:07:03Z</time>
      </trkpt>
      <trkpt lat="44.86889" lon="5.19104">
        <ele>843.5</ele>
        <time>2024-07-01T10:07:04Z</time>
      </trkpt>
      <trkpt lat="44.86887" lon="5.19104">
        <ele>843.6</ele>
        <time>2024-07-01T10:07:05Z</time>
      </trkpt>
      <trkpt lat="44.86887" lon="5.19105">
        <ele>843.6</ele>
        <time>2024-07-01T10:07:06Z</time>
      </trkpt>
      <trkpt lat="44.86886" lon="5.19105">
        <ele>843.6</ele>
        <time>2024-07-01T10:07:07Z</time>
      </trkpt>
      <trkpt lat="44.86883" lon="5.19106">
        <ele>843.6</ele>
        <time>2024-07-01T10:07:08Z</time>
      </trkpt>
      <trkpt lat="44.86882" lon="5.19106">
        <ele>843.6</ele>
        <time>2024-07-01T10:07:10Z</time>
      </trkpt>
      <trkpt lat="44.8688" lon="5.19106">
        <ele>843.6</ele>
        <time>2024-07-01T10:07:11Z</time>
      </trkpt>
      <trkpt lat="44.86879" lon="5.19106">
        <ele>843.6</ele>
        <time>2024-07-01T10:07:12Z</time>
      </trkpt>
      <trkpt lat="44.86878" lon="5.19106">
        <ele>843.6</ele>
        <time>2024-07-01T10:07:13Z</time>
      </trkpt>
      <trkpt lat="44.86876" lon="5.19106">
        <ele>843.5</ele>
        <time>2024-07-01T10:07:14Z</time>
      </trkpt>
      <trkpt lat="44.86876" lon="5.19106">
        <ele>843.5</ele>
        <time>2024-07-01T10:07:16Z</time>
      </trkpt>
      <trkpt lat="44.86874" lon="5.19106">
        <ele>843.5</ele>
        <time>2024-07-01T10:07:17Z</time>
      </trkpt>
      <trkpt lat="44.86872" lon="5.19106">
        <ele>843.5</ele>
        <time>2024-07-01T10:07:19Z</time>
      </trkpt>
      <trkpt lat="44.86871" lon="5.19106">
        <ele>843.5</ele>
        <time>2024-07-01T10:07:20Z</time>
      </trkpt>
      <trkpt lat="44.8687" lon="5.19106">
        <ele>843.5</ele>
        <time>2024-07-01T10:07:21Z</time>
      </trkpt>
      <trkpt lat="44.86869" lon="5.19106">
        <ele>843.5</ele>
        <time>2024-07-01T10:07:22Z</time>
      </trkpt>
      <trkpt lat="44.86868" lon="5.19106">
        <ele>843.5</ele>
        <time>2024-07-01T10:07:23Z</time>
      </trkpt>
      <trkpt lat="44.86867" lon="5.19106">
        <ele>843.4</ele>
        <time>2024-07-01T10:07:24Z</time>
      </trkpt>
      <trkpt lat="44.86866" lon="5.19107">
        <ele>843.4</ele>
        <time>2024-07-01T10:07:25Z</time>
      </trkpt>
      <trkpt lat="44.86863" lon="5.19107">
        <ele>843.4</ele>
        <time>2024-07-01T10:07:26Z</time>
      </trkpt>
      <trkpt lat="44.86863" lon="5.19107">
        <ele>843.4</ele>
        <time>2024-07-01T10:07:28Z</time>
      </trkpt>
      <trkpt lat="44.86861" lon="5.19107">
        <ele>843.4</ele>
        <time>2024-07-01T10:07:29Z</time>
      </trkpt>
      <trkpt lat="44.8686" lon="5.19107">
        <ele>843.3</ele>
        <time>2024-07-01T10:07:30Z</time>
      </trkpt>
      <trkpt lat="44.86858" lon="5.19107">
        <ele>843.3</ele>
        <time>2024-07-01T10:07:31Z</time>
      </trkpt>
      <trkpt lat="44.86857" lon="5.19108">
        <ele>843.3</ele>
        <time>2024-07-01T10:07:33Z</time>
      </trkpt>
      <trkpt lat="44.86856" lon="5.19108">
        <ele>843.3</ele>
        <time>2024-07-01T10:07:34Z</time>
      </trkpt>
      <trkpt lat="44.86855" lon="5.19108">
        <ele>843.2</ele>
        <time>2024-07-01T10:07:35Z</time>
      </trkpt>
      <trkpt lat="44.86854" lon="5.19109">
        <ele>843.2</ele>
        <time>2024-07-01T10:07:36Z</time>
      </trkpt>
      <trkpt lat="44.86853" lon="5.19109">
        <ele>843.2</ele>
        <time>2024-07-01T10:07:37Z</time>
      </trkpt>
      <trkpt lat="44.86852" lon="5.1911">
        <ele>843.2</ele>
        <time>2024-07-01T10:07:38Z</time>
      </trkpt>
      <trkpt lat="44.86851" lon="5.1911">
        <ele>843.2</ele>
        <time>2024-07-01T10:07:39Z</time>
      </trkpt>
      <trkpt lat="44.86849" lon="5.19111">
        <ele>843.1</ele>
        <time>2024-07-01T10:07:40Z</time>
      </trkpt>
      <trkpt lat="44.86848" lon="5.19112">
        <ele>843.1</ele>
        <time>2024-07-01T10:07:41Z</time>
      </trkpt>
      <trkpt lat="44.86847" lon="5.19112">
        <ele>843.1</ele>
        <time>2024-07-01T10:07:43Z</time>
      </trkpt>
      <trkpt lat="44.86844" lon="5.19113">
        <ele>843.1</ele>
        <time>2024-07-01T10:07:44Z</time>
      </trkpt>
      <trkpt lat="44.86843" lon="5.19113">
        <ele>843.1</ele>
        <time>2024-07-01T10:07:46Z</time>
      </trkpt>
      <trkpt lat="44.86842" lon="5.19113">
        <ele>843.1</ele>
        <time>2024-07-01T10:07:47Z</time>
      </trkpt>
      <trkpt lat="44.86841" lon="5.19113">
        <ele>843.1</ele>
        <time>2024-07-01T10:07:48Z</time>
      </trkpt>
      <trkpt lat="44.8684" lon="5.19112">
        <ele>843.1</ele>
        <time>2024-07-01T10:07:49Z</time>
      </trkpt>
      <trkpt lat="44.86839" lon="5.19112">
        <ele>843.1</ele>
        <time>2024-07-01T10:07:50Z</time>
      </trkpt>
      <trkpt lat="44.86838" lon="5.19112">
        <ele>843</ele>
        <time>2024-07-01T10:07:51Z</time>
      </trkpt>
      <trkpt lat="44.86837" lon="5.19112">
        <ele>843</ele>
        <time>2024-07-01T10:07:52Z</time>
      </trkpt>
      <trkpt lat="44.86835" lon="5.19112">
        <ele>843</ele>
        <time>2024-07-01T10:07:53Z</time>
      </trkpt>
      <trkpt lat="44.86833" lon="5.19112">
        <ele>843</ele>
        <time>2024-07-01T10:07:55Z</time>
      </trkpt>
      <trkpt lat="44.86832" lon="5.19112">
        <ele>842.9</ele>
        <time>2024-07-01T10:07:56Z</time>
      </trkpt>
      <trkpt lat="44.8683" lon="5.19112">
        <ele>842.9</ele>
        <time>2024-07-01T10:07:57Z</time>
      </trkpt>
      <trkpt lat="44.86829" lon="5.19112">
        <ele>842.9</ele>
        <time>2024-07-01T10:07:59Z</time>
      </trkpt>
      <trkpt lat="44.86827" lon="5.19112">
        <ele>842.8</ele>
        <time>2024-07-01T10:08:00Z</time>
      </trkpt>
      <trkpt lat="44.86827" lon="5.19111">
        <ele>842.8</ele>
        <time>2024-07-01T10:08:01Z</time>
      </trkpt>
      <trkpt lat="44.86826" lon="5.19111">
        <ele>842.8</ele>
        <time>2024-07-01T10:08:02Z</time>
      </trkpt>
      <trkpt lat="44.86824" lon="5.19111">
        <ele>842.7</ele>
        <time>2024-07-01T10:08:03Z</time>
      </trkpt>
      <trkpt lat="44.86823" lon="5.19111">
        <ele>842.7</ele>
        <time>2024-07-01T10:08:04Z</time>
      </trkpt>
      <trkpt lat="44.86822" lon="5.19111">
        <ele>842.7</ele>
        <time>2024-07-01T10:08:05Z</time>
      </trkpt>
      <trkpt lat="44.86821" lon="5.19111">
        <ele>842.7</ele>
        <time>2024-07-01T10:08:06Z</time>
      </trkpt>
      <trkpt lat="44.86819" lon="5.19111">
        <ele>842.6</ele>
        <time>2024-07-01T10:08:07Z</time>
      </trkpt>
      <trkpt lat="44.86817" lon="5.19111">
        <ele>842.6</ele>
        <time>2024-07-01T10:08:09Z</time>
      </trkpt>
      <trkpt lat="44.86816" lon="5.19111">
        <ele>842.5</ele>
        <time>2024-07-01T10:08:11Z</time>
      </trkpt>
      <trkpt lat="44.86814" lon="5.19111">
        <ele>842.5</ele>
        <time>2024-07-01T10:08:12Z</time>
      </trkpt>
      <trkpt lat="44.86812" lon="5.19112">
        <ele>842.4</ele>
        <time>2024-07-01T10:08:14Z</time>
      </trkpt>
      <trkpt lat="44.86811" lon="5.19112">
        <ele>842.4</ele>
        <time>2024-07-01T10:08:16Z</time>
      </trkpt>
      <trkpt lat="44.8681" lon="5.19112">
        <ele>842.3</ele>
        <time>2024-07-01T10:08:17Z</time>
      </trkpt>
      <trkpt lat="44.86807" lon="5.19112">
        <ele>842.2</ele>
        <time>2024-07-01T10:08:18Z</time>
      </trkpt>
      <trkpt lat="44.86806" lon="5.19112">
        <ele>842.2</ele>
        <time>2024-07-01T10:08:19Z</time>
      </trkpt>
      <trkpt lat="44.86804" lon="5.19113">
        <ele>842.1</ele>
        <time>2024-07-01T10:08:21Z</time>
      </trkpt>
      <trkpt lat="44.86803" lon="5.19113">
        <ele>842.1</ele>
        <time>2024-07-01T10:08:23Z</time>
      </trkpt>
      <trkpt lat="44.86801" lon="5.19114">
        <ele>842</ele>
        <time>2024-07-01T10:08:24Z</time>
      </trkpt>
      <trkpt lat="44.868" lon="5.19115">
        <ele>841.9</ele>
        <time>2024-07-01T10:08:26Z</time>
      </trkpt>
      <trkpt lat="44.86798" lon="5.19116">
        <ele>841.8</ele>
        <time>2024-07-01T10:08:27Z</time>
      </trkpt>
      <trkpt lat="44.86796" lon="5.19117">
        <ele>841.7</ele>
        <time>2024-07-01T10:08:29Z</time>
      </trkpt>
      <trkpt lat="44.86795" lon="5.19118">
        <ele>841.7</ele>
        <time>2024-07-01T10:08:30Z</time>
      </trkpt>
      <trkpt lat="44.86794" lon="5.19118">
        <ele>841.7</ele>
        <time>2024-07-01T10:08:32Z</time>
      </trkpt>
      <trkpt lat="44.86793" lon="5.19119">
        <ele>841.6</ele>
        <time>2024-07-01T10:08:33Z</time>
      </trkpt>
      <trkpt lat="44.8679" lon="5.19119">
        <ele>841.5</ele>
        <time>2024-07-01T10:08:34Z</time>
      </trkpt>
      <trkpt lat="44.86789" lon="5.1912">
        <ele>841.5</ele>
        <time>2024-07-01T10:08:35Z</time>
      </trkpt>
      <trkpt lat="44.86787" lon="5.1912">
        <ele>841.4</ele>
        <time>2024-07-01T10:08:37Z</time>
      </trkpt>
      <trkpt lat="44.86786" lon="5.19121">
        <ele>841.4</ele>
        <time>2024-07-01T10:08:38Z</time>
      </trkpt>
      <trkpt lat="44.86784" lon="5.19121">
        <ele>841.4</ele>
        <time>2024-07-01T10:08:39Z</time>
      </trkpt>
      <trkpt lat="44.86783" lon="5.19121">
        <ele>841.3</ele>
        <time>2024-07-01T10:08:41Z</time>
      </trkpt>
      <trkpt lat="44.86782" lon="5.19121">
        <ele>841.3</ele>
        <time>2024-07-01T10:08:42Z</time>
      </trkpt>
      <trkpt lat="44.8678" lon="5.19122">
        <ele>841.3</ele>
        <time>2024-07-01T10:08:43Z</time>
      </trkpt>
      <trkpt lat="44.86779" lon="5.19122">
        <ele>841.3</ele>
        <time>2024-07-01T10:08:44Z</time>
      </trkpt>
      <trkpt lat="44.86778" lon="5.19122">
        <ele>841.2</ele>
        <time>2024-07-01T10:08:45Z</time>
      </trkpt>
      <trkpt lat="44.86777" lon="5.19123">
        <ele>841.2</ele>
        <time>2024-07-01T10:08:46Z</time>
      </trkpt>
      <trkpt lat="44.86776" lon="5.19123">
        <ele>841.2</ele>
        <time>2024-07-01T10:08:47Z</time>
      </trkpt>
      <trkpt lat="44.86775" lon="5.19123">
        <ele>841.2</ele>
        <time>2024-07-01T10:08:48Z</time>
      </trkpt>
      <trkpt lat="44.86773" lon="5.19124">
        <ele>841.2</ele>
        <time>2024-07-01T10:08:49Z</time>
      </trkpt>
      <trkpt lat="44.86771" lon="5.19124">
        <ele>841.1</ele>
        <time>2024-07-01T10:08:51Z</time>
      </trkpt>
      <trkpt lat="44.8677" lon="5.19124">
        <ele>841.1</ele>
        <time>2024-07-01T10:08:52Z</time>
      </trkpt>
      <trkpt lat="44.86769" lon="5.19124">
        <ele>841.1</ele>
        <time>2024-07-01T10:08:53Z</time>
      </trkpt>
      <trkpt lat="44.86768" lon="5.19124">
        <ele>841.1</ele>
        <time>2024-07-01T10:08:54Z</time>
      </trkpt>
      <trkpt lat="44.86767" lon="5.19125">
        <ele>841.1</ele>
        <time>2024-07-01T10:08:55Z</time>
      </trkpt>
      <trkpt lat="44.86766" lon="5.19125">
        <ele>841</ele>
        <time>2024-07-01T10:08:56Z</time>
      </trkpt>
      <trkpt lat="44.86765" lon="5.19125">
        <ele>841</ele>
        <time>2024-07-01T10:08:57Z</time>
      </trkpt>
      <trkpt lat="44.86764" lon="5.19126">
        <ele>841</ele>
        <time>2024-07-01T10:08:58Z</time>
      </trkpt>
      <trkpt lat="44.86762" lon="5.19126">
        <ele>840.9</ele>
        <time>2024-07-01T10:08:59Z</time>
      </trkpt>
      <trkpt lat="44.86762" lon="5.19126">
        <ele>840.9</ele>
        <time>2024-07-01T10:09:00Z</time>
      </trkpt>
      <trkpt lat="44.8676" lon="5.19127">
        <ele>840.8</ele>
        <time>2024-07-01T10:09:01Z</time>
      </trkpt>
      <trkpt lat="44.86759" lon="5.19127">
        <ele>840.8</ele>
        <time>2024-07-01T10:09:02Z</time>
      </trkpt>
      <trkpt lat="44.86758" lon="5.19128">
        <ele>840.8</ele>
        <time>2024-07-01T10:09:03Z</time>
      </trkpt>
      <trkpt lat="44.86756" lon="5.19129">
        <ele>840.6</ele>
        <time>2024-07-01T10:09:04Z</time>
      </trkpt>
      <trkpt lat="44.86755" lon="5.19129">
        <ele>840.6</ele>
        <time>2024-07-01T10:09:05Z</time>
      </trkpt>
      <trkpt lat="44.86754" lon="5.19129">
        <ele>840.5</ele>
        <time>2024-07-01T10:09:06Z</time>
      </trkpt>
      <trkpt lat="44.86753" lon="5.19129">
        <ele>840.4</ele>
        <time>2024-07-01T10:09:08Z</time>
      </trkpt>
      <trkpt lat="44.86752" lon="5.1913">
        <ele>840.4</ele>
        <time>2024-07-01T10:09:09Z</time>
      </trkpt>
      <trkpt lat="44.86749" lon="5.19131">
        <ele>840.2</ele>
        <time>2024-07-01T10:09:10Z</time>
      </trkpt>
      <trkpt lat="44.86748" lon="5.19131">
        <ele>840.1</ele>
        <time>2024-07-01T10:09:12Z</time>
      </trkpt>
      <trkpt lat="44.86748" lon="5.19131">
        <ele>840.1</ele>
        <time>2024-07-01T10:09:13Z</time>
      </trkpt>
      <trkpt lat="44.86747" lon="5.19132">
        <ele>840</ele>
        <time>2024-07-01T10:09:14Z</time>
      </trkpt>
      <trkpt lat="44.86747" lon="5.19132">
        <ele>840</ele>
        <time>2024-07-01T10:09:15Z</time>
      </trkpt>
      <trkpt lat="44.86745" lon="5.19134">
        <ele>839.8</ele>
        <time>2024-07-01T10:09:16Z</time>
      </trkpt>
      <trkpt lat="44.86744" lon="5.19135">
        <ele>839.7</ele>
        <time>2024-07-01T10:09:18Z</time>
      </trkpt>
      <trkpt lat="44.86743" lon="5.19137">
        <ele>839.6</ele>
        <time>2024-07-01T10:09:19Z</time>
      </trkpt>
      <trkpt lat="44.86743" lon="5.19137">
        <ele>839.6</ele>
        <time>2024-07-01T10:09:20Z</time>
      </trkpt>
      <trkpt lat="44.86742" lon="5.19139">
        <ele>839.4</ele>
        <time>2024-07-01T10:09:21Z</time>
      </trkpt>
      <trkpt lat="44.86741" lon="5.1914">
        <ele>839.4</ele>
        <time>2024-07-01T10:09:22Z</time>
      </trkpt>
      <trkpt lat="44.86741" lon="5.19141">
        <ele>839.3</ele>
        <time>2024-07-01T10:09:23Z</time>
      </trkpt>
      <trkpt lat="44.8674" lon="5.19143">
        <ele>839.2</ele>
        <time>2024-07-01T10:09:24Z</time>
      </trkpt>
      <trkpt lat="44.8674" lon="5.19144">
        <ele>839.1</ele>
        <time>2024-07-01T10:09:25Z</time>
      </trkpt>
      <trkpt lat="44.8674" lon="5.19146">
        <ele>839.1</ele>
        <time>2024-07-01T10:09:26Z</time>
      </trkpt>
      <trkpt lat="44.86739" lon="5.19147">
        <ele>839</ele>
        <time>2024-07-01T10:09:27Z</time>
      </trkpt>
      <trkpt lat="44.86739" lon="5.19148">
        <ele>838.9</ele>
        <time>2024-07-01T10:09:28Z</time>
      </trkpt>
      <trkpt lat="44.86739" lon="5.1915">
        <ele>838.9</ele>
        <time>2024-07-01T10:09:29Z</time>
      </trkpt>
      <trkpt lat="44.86739" lon="5.1915">
        <ele>838.8</ele>
        <time>2024-07-01T10:09:30Z</time>
      </trkpt>
      <trkpt lat="44.86739" lon="5.19153">
        <ele>838.7</ele>
        <time>2024-07-01T10:09:31Z</time>
      </trkpt>
      <trkpt lat="44.86739" lon="5.19155">
        <ele>838.6</ele>
        <time>2024-07-01T10:09:32Z</time>
      </trkpt>
      <trkpt lat="44.86738" lon="5.19156">
        <ele>838.6</ele>
        <time>2024-07-01T10:09:34Z</time>
      </trkpt>
      <trkpt lat="44.86738" lon="5.19156">
        <ele>838.6</ele>
        <time>2024-07-01T10:09:35Z</time>
      </trkpt>
      <trkpt lat="44.86738" lon="5.19157">
        <ele>838.5</ele>
        <time>2024-07-01T10:09:36Z</time>
      </trkpt>
      <trkpt lat="44.86737" lon="5.19157">
        <ele>838.5</ele>
        <time>2024-07-01T10:09:37Z</time>
      </trkpt>
      <trkpt lat="44.86737" lon="5.19159">
        <ele>838.5</ele>
        <time>2024-07-01T10:09:38Z</time>
      </trkpt>
      <trkpt lat="44.86737" lon="5.1916">
        <ele>838.4</ele>
        <time>2024-07-01T10:09:39Z</time>
      </trkpt>
      <trkpt lat="44.86736" lon="5.19161">
        <ele>838.4</ele>
        <time>2024-07-01T10:09:40Z</time>
      </trkpt>
      <trkpt lat="44.86736" lon="5.19162">
        <ele>838.3</ele>
        <time>2024-07-01T10:09:41Z</time>
      </trkpt>
      <trkpt lat="44.86736" lon="5.19163">
        <ele>838.3</ele>
        <time>2024-07-01T10:09:42Z</time>
      </trkpt>
      <trkpt lat="44.86735" lon="5.19164">
        <ele>838.2</ele>
        <time>2024-07-01T10:09:43Z</time>
      </trkpt>
      <trkpt lat="44.86733" lon="5.19167">
        <ele>838.1</ele>
        <time>2024-07-01T10:09:44Z</time>
      </trkpt>
      <trkpt lat="44.86732" lon="5.19168">
        <ele>838.1</ele>
        <time>2024-07-01T10:09:45Z</time>
      </trkpt>
      <trkpt lat="44.86731" lon="5.19168">
        <ele>838.1</ele>
        <time>2024-07-01T10:09:47Z</time>
      </trkpt>
      <trkpt lat="44.86731" lon="5.19169">
        <ele>838</ele>
        <time>2024-07-01T10:09:48Z</time>
      </trkpt>
      <trkpt lat="44.86729" lon="5.19169">
        <ele>838</ele>
        <time>2024-07-01T10:09:49Z</time>
      </trkpt>
      <trkpt lat="44.86727" lon="5.1917">
        <ele>837.9</ele>
        <time>2024-07-01T10:09:50Z</time>
      </trkpt>
      <trkpt lat="44.86726" lon="5.1917">
        <ele>837.9</ele>
        <time>2024-07-01T10:09:52Z</time>
      </trkpt>
      <trkpt lat="44.86724" lon="5.19171">
        <ele>837.8</ele>
        <time>2024-07-01T10:09:53Z</time>
      </trkpt>
      <trkpt lat="44.86724" lon="5.19171">
        <ele>837.8</ele>
        <time>2024-07-01T10:09:54Z</time>
      </trkpt>
      <trkpt lat="44.86723" lon="5.19172">
        <ele>837.8</ele>
        <time>2024-07-01T10:09:56Z</time>
      </trkpt>
      <trkpt lat="44.86722" lon="5.19172">
        <ele>837.7</ele>
        <time>2024-07-01T10:09:57Z</time>
      </trkpt>
      <trkpt lat="44.8672" lon="5.19173">
        <ele>837.7</ele>
        <time>2024-07-01T10:09:58Z</time>
      </trkpt>
      <trkpt lat="44.86719" lon="5.19173">
        <ele>837.7</ele>
        <time>2024-07-01T10:10:00Z</time>
      </trkpt>
      <trkpt lat="44.86718" lon="5.19173">
        <ele>837.6</ele>
        <time>2024-07-01T10:10:01Z</time>
      </trkpt>
      <trkpt lat="44.86716" lon="5.19173">
        <ele>837.6</ele>
        <time>2024-07-01T10:10:02Z</time>
      </trkpt>
      <trkpt lat="44.86713" lon="5.19172">
        <ele>837.6</ele>
        <time>2024-07-01T10:10:03Z</time>
      </trkpt>
      <trkpt lat="44.86713" lon="5.19172">
        <ele>837.5</ele>
        <time>2024-07-01T10:10:04Z</time>
      </trkpt>
      <trkpt lat="44.86712" lon="5.19171">
        <ele>837.5</ele>
        <time>2024-07-01T10:10:06Z</time>
      </trkpt>
      <trkpt lat="44.8671" lon="5.19171">
        <ele>837.5</ele>
        <time>2024-07-01T10:10:07Z</time>
      </trkpt>
      <trkpt lat="44.86708" lon="5.19171">
        <ele>837.5</ele>
        <time>2024-07-01T10:10:08Z</time>
      </trkpt>
      <trkpt lat="44.86706" lon="5.19172">
        <ele>837.5</ele>
        <time>2024-07-01T10:10:10Z</time>
      </trkpt>
      <trkpt lat="44.86706" lon="5.19172">
        <ele>837.4</ele>
        <time>2024-07-01T10:10:11Z</time>
      </trkpt>
      <trkpt lat="44.86703" lon="5.19172">
        <ele>837.4</ele>
        <time>2024-07-01T10:10:12Z</time>
      </trkpt>
      <trkpt lat="44.86702" lon="5.19173">
        <ele>837.4</ele>
        <time>2024-07-01T10:10:14Z</time>
      </trkpt>
      <trkpt lat="44.86699" lon="5.19173">
        <ele>837.3</ele>
        <time>2024-07-01T10:10:15Z</time>
      </trkpt>
      <trkpt lat="44.86698" lon="5.19173">
        <ele>837.3</ele>
        <time>2024-07-01T10:10:16Z</time>
      </trkpt>
      <trkpt lat="44.86697" lon="5.19174">
        <ele>837.3</ele>
        <time>2024-07-01T10:10:17Z</time>
      </trkpt>
      <trkpt lat="44.86695" lon="5.19175">
        <ele>837.2</ele>
        <time>2024-07-01T10:10:19Z</time>
      </trkpt>
      <trkpt lat="44.86694" lon="5.19175">
        <ele>837.2</ele>
        <time>2024-07-01T10:10:20Z</time>
      </trkpt>
      <trkpt lat="44.86693" lon="5.19176">
        <ele>837.2</ele>
        <time>2024-07-01T10:10:21Z</time>
      </trkpt>
      <trkpt lat="44.86692" lon="5.19176">
        <ele>837.2</ele>
        <time>2024-07-01T10:10:22Z</time>
      </trkpt>
      <trkpt lat="44.8669" lon="5.19177">
        <ele>837.1</ele>
        <time>2024-07-01T10:10:23Z</time>
      </trkpt>
      <trkpt lat="44.86689" lon="5.19178">
        <ele>837</ele>
        <time>2024-07-01T10:10:25Z</time>
      </trkpt>
      <trkpt lat="44.86688" lon="5.19178">
        <ele>837</ele>
        <time>2024-07-01T10:10:26Z</time>
      </trkpt>
      <trkpt lat="44.86687" lon="5.19178">
        <ele>837</ele>
        <time>2024-07-01T10:10:27Z</time>
      </trkpt>
      <trkpt lat="44.86686" lon="5.19179">
        <ele>836.9</ele>
        <time>2024-07-01T10:10:28Z</time>
      </trkpt>
      <trkpt lat="44.86685" lon="5.19179">
        <ele>836.9</ele>
        <time>2024-07-01T10:10:29Z</time>
      </trkpt>
      <trkpt lat="44.86683" lon="5.1918">
        <ele>836.8</ele>
        <time>2024-07-01T10:10:30Z</time>
      </trkpt>
      <trkpt lat="44.86682" lon="5.19179">
        <ele>836.8</ele>
        <time>2024-07-01T10:10:32Z</time>
      </trkpt>
      <trkpt lat="44.86681" lon="5.19179">
        <ele>836.7</ele>
        <time>2024-07-01T10:10:33Z</time>
      </trkpt>
      <trkpt lat="44.86679" lon="5.19179">
        <ele>836.7</ele>
        <time>2024-07-01T10:10:34Z</time>
      </trkpt>
      <trkpt lat="44.86678" lon="5.19178">
        <ele>836.6</ele>
        <time>2024-07-01T10:10:35Z</time>
      </trkpt>
      <trkpt lat="44.86676" lon="5.19177">
        <ele>836.5</ele>
        <time>2024-07-01T10:10:36Z</time>
      </trkpt>
      <trkpt lat="44.86675" lon="5.19177">
        <ele>836.5</ele>
        <time>2024-07-01T10:10:37Z</time>
      </trkpt>
      <trkpt lat="44.86673" lon="5.19177">
        <ele>836.4</ele>
        <time>2024-07-01T10:10:39Z</time>
      </trkpt>
      <trkpt lat="44.86672" lon="5.19177">
        <ele>836.3</ele>
        <time>2024-07-01T10:10:40Z</time>
      </trkpt>
      <trkpt lat="44.86671" lon="5.19177">
        <ele>836.3</ele>
        <time>2024-07-01T10:10:41Z</time>
      </trkpt>
      <trkpt lat="44.86669" lon="5.19177">
        <ele>836.2</ele>
        <time>2024-07-01T10:10:42Z</time>
      </trkpt>
      <trkpt lat="44.86668" lon="5.19177">
        <ele>836.2</ele>
        <time>2024-07-01T10:10:43Z</time>
      </trkpt>
      <trkpt lat="44.86667" lon="5.19177">
        <ele>836.2</ele>
        <time>2024-07-01T10:10:44Z</time>
      </trkpt>
      <trkpt lat="44.86664" lon="5.19177">
        <ele>836.1</ele>
        <time>2024-07-01T10:10:45Z</time>
      </trkpt>
      <trkpt lat="44.86663" lon="5.19176">
        <ele>836</ele>
        <time>2024-07-01T10:10:46Z</time>
      </trkpt>
      <trkpt lat="44.86662" lon="5.19176">
        <ele>836</ele>
        <time>2024-07-01T10:10:47Z</time>
      </trkpt>
      <trkpt lat="44.8666" lon="5.19175">
        <ele>836</ele>
        <time>2024-07-01T10:10:49Z</time>
      </trkpt>
      <trkpt lat="44.8666" lon="5.19175">
        <ele>835.9</ele>
        <time>2024-07-01T10:10:50Z</time>
      </trkpt>
      <trkpt lat="44.86658" lon="5.19174">
        <ele>835.9</ele>
        <time>2024-07-01T10:10:51Z</time>
      </trkpt>
      <trkpt lat="44.86656" lon="5.19173">
        <ele>835.9</ele>
        <time>2024-07-01T10:10:52Z</time>
      </trkpt>
      <trkpt lat="44.86654" lon="5.19172">
        <ele>835.8</ele>
        <time>2024-07-01T10:10:54Z</time>
      </trkpt>
      <trkpt lat="44.86653" lon="5.19172">
        <ele>835.8</ele>
        <time>2024-07-01T10:10:55Z</time>
      </trkpt>
      <trkpt lat="44.86653" lon="5.19171">
        <ele>835.8</ele>
        <time>2024-07-01T10:10:56Z</time>
      </trkpt>
      <trkpt lat="44.86651" lon="5.1917">
        <ele>835.7</ele>
        <time>2024-07-01T10:10:57Z</time>
      </trkpt>
      <trkpt lat="44.8665" lon="5.1917">
        <ele>835.7</ele>
        <time>2024-07-01T10:10:58Z</time>
      </trkpt>
      <trkpt lat="44.86649" lon="5.19169">
        <ele>835.7</ele>
        <time>2024-07-01T10:10:59Z</time>
      </trkpt>
      <trkpt lat="44.86648" lon="5.19169">
        <ele>835.6</ele>
        <time>2024-07-01T10:11:00Z</time>
      </trkpt>
      <trkpt lat="44.86647" lon="5.19168">
        <ele>835.6</ele>
        <time>2024-07-01T10:11:01Z</time>
      </trkpt>
      <trkpt lat="44.86645" lon="5.19168">
        <ele>835.5</ele>
        <time>2024-07-01T10:11:02Z</time>
      </trkpt>
      <trkpt lat="44.86643" lon="5.19167">
        <ele>835.4</ele>
        <time>2024-07-01T10:11:03Z</time>
      </trkpt>
      <trkpt lat="44.86642" lon="5.19167">
        <ele>835.3</ele>
        <time>2024-07-01T10:11:05Z</time>
      </trkpt>
      <trkpt lat="44.8664" lon="5.19166">
        <ele>835.3</ele>
        <time>2024-07-01T10:11:06Z</time>
      </trkpt>
      <trkpt lat="44.86639" lon="5.19166">
        <ele>835.2</ele>
        <time>2024-07-01T10:11:07Z</time>
      </trkpt>
      <trkpt lat="44.86638" lon="5.19166">
        <ele>835.1</ele>
        <time>2024-07-01T10:11:09Z</time>
      </trkpt>
      <trkpt lat="44.86637" lon="5.19165">
        <ele>835.1</ele>
        <time>2024-07-01T10:11:10Z</time>
      </trkpt>
      <trkpt lat="44.86636" lon="5.19165">
        <ele>835</ele>
        <time>2024-07-01T10:11:11Z</time>
      </trkpt>
      <trkpt lat="44.86632" lon="5.19164">
        <ele>834.8</ele>
        <time>2024-07-01T10:11:12Z</time>
      </trkpt>
      <trkpt lat="44.86631" lon="5.19164">
        <ele>834.7</ele>
        <time>2024-07-01T10:11:14Z</time>
      </trkpt>
      <trkpt lat="44.8663" lon="5.19163">
        <ele>834.7</ele>
        <time>2024-07-01T10:11:15Z</time>
      </trkpt>
      <trkpt lat="44.86629" lon="5.19163">
        <ele>834.6</ele>
        <time>2024-07-01T10:11:16Z</time>
      </trkpt>
      <trkpt lat="44.86628" lon="5.19163">
        <ele>834.5</ele>
        <time>2024-07-01T10:11:18Z</time>
      </trkpt>
      <trkpt lat="44.86627" lon="5.19163">
        <ele>834.4</ele>
        <time>2024-07-01T10:11:19Z</time>
      </trkpt>
      <trkpt lat="44.86626" lon="5.19162">
        <ele>834.4</ele>
        <time>2024-07-01T10:11:20Z</time>
      </trkpt>
      <trkpt lat="44.86624" lon="5.19162">
        <ele>834.3</ele>
        <time>2024-07-01T10:11:21Z</time>
      </trkpt>
      <trkpt lat="44.86623" lon="5.19161">
        <ele>834.2</ele>
        <time>2024-07-01T10:11:22Z</time>
      </trkpt>
      <trkpt lat="44.86622" lon="5.19161">
        <ele>834.1</ele>
        <time>2024-07-01T10:11:23Z</time>
      </trkpt>
      <trkpt lat="44.86621" lon="5.19161">
        <ele>834.1</ele>
        <time>2024-07-01T10:11:24Z</time>
      </trkpt>
      <trkpt lat="44.86619" lon="5.1916">
        <ele>833.9</ele>
        <time>2024-07-01T10:11:25Z</time>
      </trkpt>
      <trkpt lat="44.86618" lon="5.1916">
        <ele>833.8</ele>
        <time>2024-07-01T10:11:27Z</time>
      </trkpt>
      <trkpt lat="44.86617" lon="5.19159">
        <ele>833.8</ele>
        <time>2024-07-01T10:11:28Z</time>
      </trkpt>
      <trkpt lat="44.86616" lon="5.19159">
        <ele>833.7</ele>
        <time>2024-07-01T10:11:29Z</time>
      </trkpt>
      <trkpt lat="44.86614" lon="5.19158">
        <ele>833.6</ele>
        <time>2024-07-01T10:11:30Z</time>
      </trkpt>
      <trkpt lat="44.86612" lon="5.19158">
        <ele>833.4</ele>
        <time>2024-07-01T10:11:32Z</time>
      </trkpt>
      <trkpt lat="44.86612" lon="5.19157">
        <ele>833.4</ele>
        <time>2024-07-01T10:11:33Z</time>
      </trkpt>
      <trkpt lat="44.8661" lon="5.19157">
        <ele>833.3</ele>
        <time>2024-07-01T10:11:34Z</time>
      </trkpt>
      <trkpt lat="44.86608" lon="5.19156">
        <ele>833.2</ele>
        <time>2024-07-01T10:11:35Z</time>
      </trkpt>
      <trkpt lat="44.86607" lon="5.19156">
        <ele>833.1</ele>
        <time>2024-07-01T10:11:37Z</time>
      </trkpt>
      <trkpt lat="44.86606" lon="5.19155">
        <ele>833</ele>
        <time>2024-07-01T10:11:38Z</time>
      </trkpt>
      <trkpt lat="44.86604" lon="5.19154">
        <ele>832.9</ele>
        <time>2024-07-01T10:11:39Z</time>
      </trkpt>
      <trkpt lat="44.86603" lon="5.19153">
        <ele>832.8</ele>
        <time>2024-07-01T10:11:41Z</time>
      </trkpt>
      <trkpt lat="44.86601" lon="5.19152">
        <ele>832.7</ele>
        <time>2024-07-01T10:11:42Z</time>
      </trkpt>
      <trkpt lat="44.866" lon="5.19152">
        <ele>832.6</ele>
        <time>2024-07-01T10:11:43Z</time>
      </trkpt>
      <trkpt lat="44.86599" lon="5.19151">
        <ele>832.5</ele>
        <time>2024-07-01T10:11:44Z</time>
      </trkpt>
      <trkpt lat="44.86598" lon="5.19151">
        <ele>832.4</ele>
        <time>2024-07-01T10:11:45Z</time>
      </trkpt>
      <trkpt lat="44.86595" lon="5.1915">
        <ele>832.2</ele>
        <time>2024-07-01T10:11:46Z</time>
      </trkpt>
      <trkpt lat="44.86594" lon="5.1915">
        <ele>832.2</ele>
        <time>2024-07-01T10:11:48Z</time>
      </trkpt>
      <trkpt lat="44.86593" lon="5.19149">
        <ele>832.1</ele>
        <time>2024-07-01T10:11:49Z</time>
      </trkpt>
      <trkpt lat="44.86592" lon="5.19149">
        <ele>832</ele>
        <time>2024-07-01T10:11:50Z</time>
      </trkpt>
      <trkpt lat="44.86589" lon="5.19148">
        <ele>831.8</ele>
        <time>2024-07-01T10:11:51Z</time>
      </trkpt>
      <trkpt lat="44.86589" lon="5.19148">
        <ele>831.7</ele>
        <time>2024-07-01T10:11:53Z</time>
      </trkpt>
      <trkpt lat="44.86587" lon="5.19147">
        <ele>831.6</ele>
        <time>2024-07-01T10:11:54Z</time>
      </trkpt>
      <trkpt lat="44.86586" lon="5.19147">
        <ele>831.6</ele>
        <time>2024-07-01T10:11:55Z</time>
      </trkpt>
      <trkpt lat="44.86585" lon="5.19146">
        <ele>831.5</ele>
        <time>2024-07-01T10:11:56Z</time>
      </trkpt>
      <trkpt lat="44.86584" lon="5.19146">
        <ele>831.4</ele>
        <time>2024-07-01T10:11:57Z</time>
      </trkpt>
      <trkpt lat="44.86583" lon="5.19146">
        <ele>831.3</ele>
        <time>2024-07-01T10:11:58Z</time>
      </trkpt>
      <trkpt lat="44.86582" lon="5.19146">
        <ele>831.2</ele>
        <time>2024-07-01T10:11:59Z</time>
      </trkpt>
      <trkpt lat="44.86581" lon="5.19145">
        <ele>831.2</ele>
        <time>2024-07-01T10:12:00Z</time>
      </trkpt>
      <trkpt lat="44.86579" lon="5.19144">
        <ele>831</ele>
        <time>2024-07-01T10:12:01Z</time>
      </trkpt>
      <trkpt lat="44.86578" lon="5.19144">
        <ele>830.9</ele>
        <time>2024-07-01T10:12:03Z</time>
      </trkpt>
      <trkpt lat="44.86577" lon="5.19143">
        <ele>830.8</ele>
        <time>2024-07-01T10:12:04Z</time>
      </trkpt>
      <trkpt lat="44.86576" lon="5.19143">
        <ele>830.7</ele>
        <time>2024-07-01T10:12:05Z</time>
      </trkpt>
      <trkpt lat="44.86573" lon="5.19142">
        <ele>830.6</ele>
        <time>2024-07-01T10:12:06Z</time>
      </trkpt>
      <trkpt lat="44.86572" lon="5.19142">
        <ele>830.5</ele>
        <time>2024-07-01T10:12:08Z</time>
      </trkpt>
      <trkpt lat="44.86571" lon="5.19142">
        <ele>830.4</ele>
        <time>2024-07-01T10:12:09Z</time>
      </trkpt>
      <trkpt lat="44.86569" lon="5.19141">
        <ele>830.2</ele>
        <time>2024-07-01T10:12:10Z</time>
      </trkpt>
      <trkpt lat="44.86567" lon="5.1914">
        <ele>830.1</ele>
        <time>2024-07-01T10:12:11Z</time>
      </trkpt>
      <trkpt lat="44.86567" lon="5.19139">
        <ele>830</ele>
        <time>2024-07-01T10:12:13Z</time>
      </trkpt>
      <trkpt lat="44.86566" lon="5.19138">
        <ele>829.9</ele>
        <time>2024-07-01T10:12:14Z</time>
      </trkpt>
      <trkpt lat="44.86565" lon="5.19138">
        <ele>829.8</ele>
        <time>2024-07-01T10:12:15Z</time>
      </trkpt>
      <trkpt lat="44.86564" lon="5.19137">
        <ele>829.7</ele>
        <time>2024-07-01T10:12:16Z</time>
      </trkpt>
      <trkpt lat="44.86562" lon="5.19137">
        <ele>829.6</ele>
        <time>2024-07-01T10:12:17Z</time>
      </trkpt>
      <trkpt lat="44.86561" lon="5.19136">
        <ele>829.5</ele>
        <time>2024-07-01T10:12:18Z</time>
      </trkpt>
      <trkpt lat="44.8656" lon="5.19136">
        <ele>829.4</ele>
        <time>2024-07-01T10:12:19Z</time>
      </trkpt>
      <trkpt lat="44.86559" lon="5.19135">
        <ele>829.3</ele>
        <time>2024-07-01T10:12:20Z</time>
      </trkpt>
      <trkpt lat="44.86558" lon="5.19134">
        <ele>829.2</ele>
        <time>2024-07-01T10:12:21Z</time>
      </trkpt>
      <trkpt lat="44.86557" lon="5.19134">
        <ele>829.1</ele>
        <time>2024-07-01T10:12:22Z</time>
      </trkpt>
      <trkpt lat="44.86556" lon="5.19134">
        <ele>829.1</ele>
        <time>2024-07-01T10:12:23Z</time>
      </trkpt>
      <trkpt lat="44.86556" lon="5.19134">
        <ele>829</ele>
        <time>2024-07-01T10:12:24Z</time>
      </trkpt>
      <trkpt lat="44.86554" lon="5.19135">
        <ele>828.9</ele>
        <time>2024-07-01T10:12:25Z</time>
      </trkpt>
      <trkpt lat="44.86554" lon="5.19135">
        <ele>828.8</ele>
        <time>2024-07-01T10:12:26Z</time>
      </trkpt>
      <trkpt lat="44.86554" lon="5.19135">
        <ele>828.8</ele>
        <time>2024-07-01T10:12:27Z</time>
      </trkpt>
      <trkpt lat="44.86553" lon="5.19135">
        <ele>828.8</ele>
        <time>2024-07-01T10:12:28Z</time>
      </trkpt>
      <trkpt lat="44.86553" lon="5.19135">
        <ele>828.7</ele>
        <time>2024-07-01T10:12:29Z</time>
      </trkpt>
      <trkpt lat="44.86553" lon="5.19135">
        <ele>828.7</ele>
        <time>2024-07-01T10:12:30Z</time>
      </trkpt>
      <trkpt lat="44.86552" lon="5.19135">
        <ele>828.7</ele>
        <time>2024-07-01T10:12:31Z</time>
      </trkpt>
      <trkpt lat="44.86552" lon="5.19135">
        <ele>828.6</ele>
        <time>2024-07-01T10:12:32Z</time>
      </trkpt>
      <trkpt lat="44.86549" lon="5.19135">
        <ele>828.4</ele>
        <time>2024-07-01T10:12:33Z</time>
      </trkpt>
      <trkpt lat="44.86548" lon="5.19136">
        <ele>828.3</ele>
        <time>2024-07-01T10:12:34Z</time>
      </trkpt>
      <trkpt lat="44.86544" lon="5.19136">
        <ele>827.9</ele>
        <time>2024-07-01T10:12:35Z</time>
      </trkpt>
      <trkpt lat="44.86542" lon="5.19135">
        <ele>827.8</ele>
        <time>2024-07-01T10:12:36Z</time>
      </trkpt>
      <trkpt lat="44.8654" lon="5.19135">
        <ele>827.6</ele>
        <time>2024-07-01T10:12:38Z</time>
      </trkpt>
      <trkpt lat="44.86539" lon="5.19135">
        <ele>827.5</ele>
        <time>2024-07-01T10:12:39Z</time>
      </trkpt>
      <trkpt lat="44.86538" lon="5.19134">
        <ele>827.4</ele>
        <time>2024-07-01T10:12:40Z</time>
      </trkpt>
      <trkpt lat="44.86537" lon="5.19134">
        <ele>827.3</ele>
        <time>2024-07-01T10:12:41Z</time>
      </trkpt>
      <trkpt lat="44.86534" lon="5.19134">
        <ele>827</ele>
        <time>2024-07-01T10:12:42Z</time>
      </trkpt>
      <trkpt lat="44.86533" lon="5.19134">
        <ele>826.9</ele>
        <time>2024-07-01T10:12:44Z</time>
      </trkpt>
      <trkpt lat="44.86532" lon="5.19132">
        <ele>826.8</ele>
        <time>2024-07-01T10:12:45Z</time>
      </trkpt>
      <trkpt lat="44.86529" lon="5.19131">
        <ele>826.5</ele>
        <time>2024-07-01T10:12:46Z</time>
      </trkpt>
      <trkpt lat="44.86528" lon="5.1913">
        <ele>826.3</ele>
        <time>2024-07-01T10:12:48Z</time>
      </trkpt>
      <trkpt lat="44.86527" lon="5.19129">
        <ele>826.2</ele>
        <time>2024-07-01T10:12:49Z</time>
      </trkpt>
      <trkpt lat="44.86526" lon="5.19128">
        <ele>826.1</ele>
        <time>2024-07-01T10:12:50Z</time>
      </trkpt>
      <trkpt lat="44.86525" lon="5.19128">
        <ele>826</ele>
        <time>2024-07-01T10:12:51Z</time>
      </trkpt>
      <trkpt lat="44.86523" lon="5.19126">
        <ele>825.8</ele>
        <time>2024-07-01T10:12:52Z</time>
      </trkpt>
      <trkpt lat="44.86522" lon="5.19126">
        <ele>825.7</ele>
        <time>2024-07-01T10:12:54Z</time>
      </trkpt>
      <trkpt lat="44.86521" lon="5.19125">
        <ele>825.6</ele>
        <time>2024-07-01T10:12:55Z</time>
      </trkpt>
      <trkpt lat="44.86519" lon="5.19123">
        <ele>825.4</ele>
        <time>2024-07-01T10:12:56Z</time>
      </trkpt>
      <trkpt lat="44.86518" lon="5.19123">
        <ele>825.3</ele>
        <time>2024-07-01T10:12:58Z</time>
      </trkpt>
      <trkpt lat="44.86518" lon="5.19122">
        <ele>825.2</ele>
        <time>2024-07-01T10:12:59Z</time>
      </trkpt>
      <trkpt lat="44.86517" lon="5.19122">
        <ele>825.2</ele>
        <time>2024-07-01T10:13:00Z</time>
      </trkpt>
      <trkpt lat="44.86516" lon="5.19121">
        <ele>825.1</ele>
        <time>2024-07-01T10:13:01Z</time>
      </trkpt>
      <trkpt lat="44.86514" lon="5.1912">
        <ele>824.9</ele>
        <time>2024-07-01T10:13:02Z</time>
      </trkpt>
      <trkpt lat="44.86513" lon="5.19119">
        <ele>824.8</ele>
        <time>2024-07-01T10:13:04Z</time>
      </trkpt>
      <trkpt lat="44.86512" lon="5.19119">
        <ele>824.7</ele>
        <time>2024-07-01T10:13:05Z</time>
      </trkpt>
      <trkpt lat="44.86511" lon="5.19119">
        <ele>824.6</ele>
        <time>2024-07-01T10:13:06Z</time>
      </trkpt>
      <trkpt lat="44.8651" lon="5.19118">
        <ele>824.6</ele>
        <time>2024-07-01T10:13:07Z</time>
      </trkpt>
      <trkpt lat="44.8651" lon="5.19117">
        <ele>824.5</ele>
        <time>2024-07-01T10:13:08Z</time>
      </trkpt>
      <trkpt lat="44.86509" lon="5.19117">
        <ele>824.4</ele>
        <time>2024-07-01T10:13:09Z</time>
      </trkpt>
      <trkpt lat="44.86508" lon="5.19116">
        <ele>824.4</ele>
        <time>2024-07-01T10:13:10Z</time>
      </trkpt>
      <trkpt lat="44.86507" lon="5.19115">
        <ele>824.3</ele>
        <time>2024-07-01T10:13:11Z</time>
      </trkpt>
      <trkpt lat="44.86505" lon="5.19114">
        <ele>824.2</ele>
        <time>2024-07-01T10:13:12Z</time>
      </trkpt>
      <trkpt lat="44.86505" lon="5.19114">
        <ele>824.1</ele>
        <time>2024-07-01T10:13:14Z</time>
      </trkpt>
      <trkpt lat="44.86504" lon="5.19113">
        <ele>824.1</ele>
        <time>2024-07-01T10:13:15Z</time>
      </trkpt>
      <trkpt lat="44.86503" lon="5.19112">
        <ele>824</ele>
        <time>2024-07-01T10:13:16Z</time>
      </trkpt>
      <trkpt lat="44.86502" lon="5.19112">
        <ele>823.9</ele>
        <time>2024-07-01T10:13:17Z</time>
      </trkpt>
      <trkpt lat="44.86501" lon="5.19111">
        <ele>823.9</ele>
        <time>2024-07-01T10:13:18Z</time>
      </trkpt>
      <trkpt lat="44.865" lon="5.19111">
        <ele>823.8</ele>
        <time>2024-07-01T10:13:19Z</time>
      </trkpt>
      <trkpt lat="44.86499" lon="5.19111">
        <ele>823.8</ele>
        <time>2024-07-01T10:13:20Z</time>
      </trkpt>
      <trkpt lat="44.86498" lon="5.19111">
        <ele>823.7</ele>
        <time>2024-07-01T10:13:21Z</time>
      </trkpt>
      <trkpt lat="44.86496" lon="5.1911">
        <ele>823.6</ele>
        <time>2024-07-01T10:13:22Z</time>
      </trkpt>
      <trkpt lat="44.86494" lon="5.19109">
        <ele>823.6</ele>
        <time>2024-07-01T10:13:23Z</time>
      </trkpt>
      <trkpt lat="44.86493" lon="5.19109">
        <ele>823.5</ele>
        <time>2024-07-01T10:13:25Z</time>
      </trkpt>
      <trkpt lat="44.86492" lon="5.19108">
        <ele>823.5</ele>
        <time>2024-07-01T10:13:26Z</time>
      </trkpt>
      <trkpt lat="44.8649" lon="5.19107">
        <ele>823.5</ele>
        <time>2024-07-01T10:13:27Z</time>
      </trkpt>
      <trkpt lat="44.8649" lon="5.19107">
        <ele>823.4</ele>
        <time>2024-07-01T10:13:28Z</time>
      </trkpt>
      <trkpt lat="44.86489" lon="5.19107">
        <ele>823.4</ele>
        <time>2024-07-01T10:13:29Z</time>
      </trkpt>
      <trkpt lat="44.86488" lon="5.19106">
        <ele>823.4</ele>
        <time>2024-07-01T10:13:30Z</time>
      </trkpt>
      <trkpt lat="44.86487" lon="5.19106">
        <ele>823.4</ele>
        <time>2024-07-01T10:13:31Z</time>
      </trkpt>
      <trkpt lat="44.86486" lon="5.19105">
        <ele>823.4</ele>
        <time>2024-07-01T10:13:32Z</time>
      </trkpt>
      <trkpt lat="44.86485" lon="5.19105">
        <ele>823.3</ele>
        <time>2024-07-01T10:13:33Z</time>
      </trkpt>
      <trkpt lat="44.86483" lon="5.19105">
        <ele>823.3</ele>
        <time>2024-07-01T10:13:34Z</time>
      </trkpt>
      <trkpt lat="44.86483" lon="5.19104">
        <ele>823.3</ele>
        <time>2024-07-01T10:13:35Z</time>
      </trkpt>
      <trkpt lat="44.86482" lon="5.19104">
        <ele>823.3</ele>
        <time>2024-07-01T10:13:36Z</time>
      </trkpt>
      <trkpt lat="44.8648" lon="5.19104">
        <ele>823.3</ele>
        <time>2024-07-01T10:13:37Z</time>
      </trkpt>
      <trkpt lat="44.86479" lon="5.19104">
        <ele>823.3</ele>
        <time>2024-07-01T10:13:38Z</time>
      </trkpt>
      <trkpt lat="44.86477" lon="5.19104">
        <ele>823.2</ele>
        <time>2024-07-01T10:13:39Z</time>
      </trkpt>
      <trkpt lat="44.86476" lon="5.19104">
        <ele>823.2</ele>
        <time>2024-07-01T10:13:41Z</time>
      </trkpt>
      <trkpt lat="44.86475" lon="5.19104">
        <ele>823.2</ele>
        <time>2024-07-01T10:13:42Z</time>
      </trkpt>
      <trkpt lat="44.86473" lon="5.19103">
        <ele>823.2</ele>
        <time>2024-07-01T10:13:43Z</time>
      </trkpt>
      <trkpt lat="44.86472" lon="5.19103">
        <ele>823.2</ele>
        <time>2024-07-01T10:13:45Z</time>
      </trkpt>
      <trkpt lat="44.86471" lon="5.19103">
        <ele>823.2</ele>
        <time>2024-07-01T10:13:46Z</time>
      </trkpt>
      <trkpt lat="44.8647" lon="5.19103">
        <ele>823.2</ele>
        <time>2024-07-01T10:13:47Z</time>
      </trkpt>
      <trkpt lat="44.86469" lon="5.19103">
        <ele>823.2</ele>
        <time>2024-07-01T10:13:48Z</time>
      </trkpt>
      <trkpt lat="44.86468" lon="5.19103">
        <ele>823.2</ele>
        <time>2024-07-01T10:13:49Z</time>
      </trkpt>
      <trkpt lat="44.86467" lon="5.19103">
        <ele>823.2</ele>
        <time>2024-07-01T10:13:50Z</time>
      </trkpt>
      <trkpt lat="44.86466" lon="5.19103">
        <ele>823.2</ele>
        <time>2024-07-01T10:13:51Z</time>
      </trkpt>
      <trkpt lat="44.86465" lon="5.19103">
        <ele>823.1</ele>
        <time>2024-07-01T10:13:52Z</time>
      </trkpt>
      <trkpt lat="44.86464" lon="5.19102">
        <ele>823.1</ele>
        <time>2024-07-01T10:13:53Z</time>
      </trkpt>
      <trkpt lat="44.86464" lon="5.19101">
        <ele>823.1</ele>
        <time>2024-07-01T10:13:54Z</time>
      </trkpt>
      <trkpt lat="44.86462" lon="5.191">
        <ele>823.1</ele>
        <time>2024-07-01T10:13:55Z</time>
      </trkpt>
      <trkpt lat="44.86461" lon="5.19099">
        <ele>823.1</ele>
        <time>2024-07-01T10:13:56Z</time>
      </trkpt>
      <trkpt lat="44.86461" lon="5.19098">
        <ele>823.1</ele>
        <time>2024-07-01T10:13:57Z</time>
      </trkpt>
      <trkpt lat="44.86461" lon="5.19097">
        <ele>823.1</ele>
        <time>2024-07-01T10:13:58Z</time>
      </trkpt>
      <trkpt lat="44.86459" lon="5.19095">
        <ele>823.1</ele>
        <time>2024-07-01T10:13:59Z</time>
      </trkpt>
      <trkpt lat="44.86458" lon="5.19095">
        <ele>823.1</ele>
        <time>2024-07-01T10:14:01Z</time>
      </trkpt>
      <trkpt lat="44.86457" lon="5.19093">
        <ele>823.1</ele>
        <time>2024-07-01T10:14:02Z</time>
      </trkpt>
      <trkpt lat="44.86457" lon="5.19092">
        <ele>823</ele>
        <time>2024-07-01T10:14:03Z</time>
      </trkpt>
      <trkpt lat="44.86458" lon="5.19091">
        <ele>823</ele>
        <time>2024-07-01T10:14:04Z</time>
      </trkpt>
      <trkpt lat="44.86457" lon="5.1909">
        <ele>823</ele>
        <time>2024-07-01T10:14:05Z</time>
      </trkpt>
      <trkpt lat="44.86457" lon="5.19089">
        <ele>823</ele>
        <time>2024-07-01T10:14:06Z</time>
      </trkpt>
      <trkpt lat="44.86457" lon="5.19089">
        <ele>823</ele>
        <time>2024-07-01T10:14:07Z</time>
      </trkpt>
      <trkpt lat="44.86456" lon="5.19088">
        <ele>823</ele>
        <time>2024-07-01T10:14:08Z</time>
      </trkpt>
      <trkpt lat="44.86456" lon="5.19087">
        <ele>823</ele>
        <time>2024-07-01T10:14:09Z</time>
      </trkpt>
      <trkpt lat="44.86456" lon="5.19087">
        <ele>823</ele>
        <time>2024-07-01T10:14:10Z</time>
      </trkpt>
      <trkpt lat="44.86455" lon="5.19086">
        <ele>823</ele>
        <time>2024-07-01T10:14:11Z</time>
      </trkpt>
      <trkpt lat="44.86455" lon="5.19086">
        <ele>823</ele>
        <time>2024-07-01T10:14:13Z</time>
      </trkpt>
      <trkpt lat="44.86455" lon="5.19085">
        <ele>822.9</ele>
        <time>2024-07-01T10:14:15Z</time>
      </trkpt>
      <trkpt lat="44.86454" lon="5.19084">
        <ele>822.9</ele>
        <time>2024-07-01T10:14:16Z</time>
      </trkpt>
      <trkpt lat="44.86425" lon="5.19071">
        <ele>823</ele>
        <time>2024-07-01T10:14:17Z</time>
      </trkpt>
      <trkpt lat="44.86411" lon="5.19068">
        <ele>822.9</ele>
        <time>2024-07-01T10:14:18Z</time>
      </trkpt>
      <trkpt lat="44.86382" lon="5.19067">
        <ele>823</ele>
        <time>2024-07-01T10:14:19Z</time>
      </trkpt>
      <trkpt lat="44.86354" lon="5.19072">
        <ele>822.5</ele>
        <time>2024-07-01T10:14:20Z</time>
      </trkpt>
      <trkpt lat="44.86326" lon="5.19081">
        <ele>821.5</ele>
        <time>2024-07-01T10:14:21Z</time>
      </trkpt>
      <trkpt lat="44.86134" lon="5.19106">
        <ele>812.2</ele>
        <time>2024-07-01T10:16:45Z</time>
      </trkpt>
      <trkpt lat="44.86135" lon="5.19105">
        <ele>812.1</ele>
        <time>2024-07-01T10:16:46Z</time>
      </trkpt>
      <trkpt lat="44.86136" lon="5.19105">
        <ele>812</ele>
        <time>2024-07-01T10:16:47Z</time>
      </trkpt>
      <trkpt lat="44.86139" lon="5.19104">
        <ele>811.8</ele>
        <time>2024-07-01T10:16:48Z</time>
      </trkpt>
      <trkpt lat="44.8614" lon="5.19103">
        <ele>811.7</ele>
        <time>2024-07-01T10:16:49Z</time>
      </trkpt>
      <trkpt lat="44.86143" lon="5.19102">
        <ele>811.5</ele>
        <time>2024-07-01T10:16:50Z</time>
      </trkpt>
      <trkpt lat="44.86144" lon="5.19102">
        <ele>811.4</ele>
        <time>2024-07-01T10:16:51Z</time>
      </trkpt>
      <trkpt lat="44.86144" lon="5.19102">
        <ele>811.4</ele>
        <time>2024-07-01T10:16:52Z</time>
      </trkpt>
      <trkpt lat="44.86147" lon="5.19101">
        <ele>811.2</ele>
        <time>2024-07-01T10:16:53Z</time>
      </trkpt>
      <trkpt lat="44.86148" lon="5.191">
        <ele>811.1</ele>
        <time>2024-07-01T10:16:54Z</time>
      </trkpt>
      <trkpt lat="44.86149" lon="5.19099">
        <ele>811</ele>
        <time>2024-07-01T10:16:55Z</time>
      </trkpt>
      <trkpt lat="44.8615" lon="5.19097">
        <ele>810.9</ele>
        <time>2024-07-01T10:16:56Z</time>
      </trkpt>
      <trkpt lat="44.86153" lon="5.19096">
        <ele>811.2</ele>
        <time>2024-07-01T10:16:58Z</time>
      </trkpt>
      <trkpt lat="44.86154" lon="5.19096">
        <ele>811.2</ele>
        <time>2024-07-01T10:16:59Z</time>
      </trkpt>
      <trkpt lat="44.86157" lon="5.19096">
        <ele>811.4</ele>
        <time>2024-07-01T10:17:00Z</time>
      </trkpt>
      <trkpt lat="44.86161" lon="5.19096">
        <ele>811.5</ele>
        <time>2024-07-01T10:17:01Z</time>
      </trkpt>
      <trkpt lat="44.86163" lon="5.19095">
        <ele>811.6</ele>
        <time>2024-07-01T10:17:02Z</time>
      </trkpt>
      <trkpt lat="44.86165" lon="5.19096">
        <ele>811.8</ele>
        <time>2024-07-01T10:17:03Z</time>
      </trkpt>
      <trkpt lat="44.86166" lon="5.19096">
        <ele>811.8</ele>
        <time>2024-07-01T10:17:04Z</time>
      </trkpt>
      <trkpt lat="44.86171" lon="5.19095">
        <ele>812</ele>
        <time>2024-07-01T10:17:05Z</time>
      </trkpt>
      <trkpt lat="44.86173" lon="5.19095">
        <ele>812.2</ele>
        <time>2024-07-01T10:17:06Z</time>
      </trkpt>
      <trkpt lat="44.86174" lon="5.19094">
        <ele>812.2</ele>
        <time>2024-07-01T10:17:08Z</time>
      </trkpt>
      <trkpt lat="44.86176" lon="5.19093">
        <ele>812.3</ele>
        <time>2024-07-01T10:17:09Z</time>
      </trkpt>
      <trkpt lat="44.86179" lon="5.19091">
        <ele>812.5</ele>
        <time>2024-07-01T10:17:10Z</time>
      </trkpt>
      <trkpt lat="44.86181" lon="5.19089">
        <ele>812.7</ele>
        <time>2024-07-01T10:17:12Z</time>
      </trkpt>
      <trkpt lat="44.86183" lon="5.19089">
        <ele>812.7</ele>
        <time>2024-07-01T10:17:13Z</time>
      </trkpt>
      <trkpt lat="44.86185" lon="5.19088">
        <ele>812.8</ele>
        <time>2024-07-01T10:17:14Z</time>
      </trkpt>
      <trkpt lat="44.86188" lon="5.19086">
        <ele>813</ele>
        <time>2024-07-01T10:17:15Z</time>
      </trkpt>
      <trkpt lat="44.86189" lon="5.19086">
        <ele>813.1</ele>
        <time>2024-07-01T10:17:16Z</time>
      </trkpt>
      <trkpt lat="44.86191" lon="5.19085">
        <ele>813.2</ele>
        <time>2024-07-01T10:17:18Z</time>
      </trkpt>
      <trkpt lat="44.86193" lon="5.19084">
        <ele>813.3</ele>
        <time>2024-07-01T10:17:19Z</time>
      </trkpt>
      <trkpt lat="44.86195" lon="5.19083">
        <ele>813.5</ele>
        <time>2024-07-01T10:17:20Z</time>
      </trkpt>
      <trkpt lat="44.86197" lon="5.19082">
        <ele>813.6</ele>
        <time>2024-07-01T10:17:22Z</time>
      </trkpt>
      <trkpt lat="44.86198" lon="5.19081">
        <ele>813.6</ele>
        <time>2024-07-01T10:17:23Z</time>
      </trkpt>
      <trkpt lat="44.86199" lon="5.19081">
        <ele>813.7</ele>
        <time>2024-07-01T10:17:24Z</time>
      </trkpt>
      <trkpt lat="44.86201" lon="5.19081">
        <ele>813.8</ele>
        <time>2024-07-01T10:17:25Z</time>
      </trkpt>
      <trkpt lat="44.86204" lon="5.19081">
        <ele>814</ele>
        <time>2024-07-01T10:17:26Z</time>
      </trkpt>
      <trkpt lat="44.86204" lon="5.19082">
        <ele>814</ele>
        <time>2024-07-01T10:17:27Z</time>
      </trkpt>
      <trkpt lat="44.86205" lon="5.19083">
        <ele>814.1</ele>
        <time>2024-07-01T10:17:28Z</time>
      </trkpt>
      <trkpt lat="44.86206" lon="5.19085">
        <ele>814.2</ele>
        <time>2024-07-01T10:17:30Z</time>
      </trkpt>
      <trkpt lat="44.86208" lon="5.19086">
        <ele>814.3</ele>
        <time>2024-07-01T10:17:31Z</time>
      </trkpt>
      <trkpt lat="44.86208" lon="5.19085">
        <ele>814.3</ele>
        <time>2024-07-01T10:17:32Z</time>
      </trkpt>
      <trkpt lat="44.8621" lon="5.19085">
        <ele>814.4</ele>
        <time>2024-07-01T10:17:34Z</time>
      </trkpt>
      <trkpt lat="44.8621" lon="5.19085">
        <ele>814.4</ele>
        <time>2024-07-01T10:17:36Z</time>
      </trkpt>
      <trkpt lat="44.8621" lon="5.19087">
        <ele>814.5</ele>
        <time>2024-07-01T10:17:37Z</time>
      </trkpt>
      <trkpt lat="44.86211" lon="5.19088">
        <ele>814.6</ele>
        <time>2024-07-01T10:17:38Z</time>
      </trkpt>
      <trkpt lat="44.8621" lon="5.19089">
        <ele>814.6</ele>
        <time>2024-07-01T10:17:39Z</time>
      </trkpt>
      <trkpt lat="44.86209" lon="5.19092">
        <ele>814.8</ele>
        <time>2024-07-01T10:17:40Z</time>
      </trkpt>
      <trkpt lat="44.86209" lon="5.19095">
        <ele>814.9</ele>
        <time>2024-07-01T10:17:41Z</time>
      </trkpt>
      <trkpt lat="44.86208" lon="5.19098">
        <ele>815</ele>
        <time>2024-07-01T10:17:42Z</time>
      </trkpt>
      <trkpt lat="44.86208" lon="5.19099">
        <ele>815.1</ele>
        <time>2024-07-01T10:17:43Z</time>
      </trkpt>
      <trkpt lat="44.86207" lon="5.19101">
        <ele>815.2</ele>
        <time>2024-07-01T10:17:44Z</time>
      </trkpt>
      <trkpt lat="44.86206" lon="5.19105">
        <ele>815.3</ele>
        <time>2024-07-01T10:17:45Z</time>
      </trkpt>
      <trkpt lat="44.86204" lon="5.19108">
        <ele>815.2</ele>
        <time>2024-07-01T10:17:46Z</time>
      </trkpt>
      <trkpt lat="44.86203" lon="5.19109">
        <ele>815</ele>
        <time>2024-07-01T10:17:48Z</time>
      </trkpt>
      <trkpt lat="44.86202" lon="5.1911">
        <ele>814.9</ele>
        <time>2024-07-01T10:17:49Z</time>
      </trkpt>
      <trkpt lat="44.862" lon="5.19111">
        <ele>814.8</ele>
        <time>2024-07-01T10:17:50Z</time>
      </trkpt>
      <trkpt lat="44.86197" lon="5.19112">
        <ele>814.5</ele>
        <time>2024-07-01T10:17:51Z</time>
      </trkpt>
      <trkpt lat="44.86197" lon="5.19112">
        <ele>814.4</ele>
        <time>2024-07-01T10:17:52Z</time>
      </trkpt>
      <trkpt lat="44.86195" lon="5.19113">
        <ele>814.2</ele>
        <time>2024-07-01T10:17:53Z</time>
      </trkpt>
      <trkpt lat="44.86194" lon="5.19113">
        <ele>814.1</ele>
        <time>2024-07-01T10:17:54Z</time>
      </trkpt>
      <trkpt lat="44.86192" lon="5.19113">
        <ele>814</ele>
        <time>2024-07-01T10:17:55Z</time>
      </trkpt>
      <trkpt lat="44.86191" lon="5.19114">
        <ele>813.9</ele>
        <time>2024-07-01T10:17:56Z</time>
      </trkpt>
      <trkpt lat="44.8619" lon="5.19114">
        <ele>813.8</ele>
        <time>2024-07-01T10:17:57Z</time>
      </trkpt>
      <trkpt lat="44.86189" lon="5.19114">
        <ele>813.7</ele>
        <time>2024-07-01T10:17:58Z</time>
      </trkpt>
      <trkpt lat="44.86187" lon="5.19114">
        <ele>813.5</ele>
        <time>2024-07-01T10:17:59Z</time>
      </trkpt>
      <trkpt lat="44.86185" lon="5.19112">
        <ele>813.3</ele>
        <time>2024-07-01T10:18:01Z</time>
      </trkpt>
      <trkpt lat="44.86184" lon="5.19111">
        <ele>813.2</ele>
        <time>2024-07-01T10:18:02Z</time>
      </trkpt>
      <trkpt lat="44.86184" lon="5.19111">
        <ele>813.1</ele>
        <time>2024-07-01T10:18:03Z</time>
      </trkpt>
      <trkpt lat="44.86182" lon="5.19111">
        <ele>813</ele>
        <time>2024-07-01T10:18:04Z</time>
      </trkpt>
      <trkpt lat="44.86181" lon="5.19112">
        <ele>812.9</ele>
        <time>2024-07-01T10:18:05Z</time>
      </trkpt>
      <trkpt lat="44.8618" lon="5.19112">
        <ele>812.8</ele>
        <time>2024-07-01T10:18:06Z</time>
      </trkpt>
      <trkpt lat="44.86178" lon="5.19114">
        <ele>812.6</ele>
        <time>2024-07-01T10:18:07Z</time>
      </trkpt>
      <trkpt lat="44.86177" lon="5.19115">
        <ele>812.5</ele>
        <time>2024-07-01T10:18:08Z</time>
      </trkpt>
      <trkpt lat="44.86176" lon="5.19116">
        <ele>812.4</ele>
        <time>2024-07-01T10:18:10Z</time>
      </trkpt>
      <trkpt lat="44.86175" lon="5.19116">
        <ele>812.3</ele>
        <time>2024-07-01T10:18:11Z</time>
      </trkpt>
      <trkpt lat="44.86173" lon="5.19118">
        <ele>812.1</ele>
        <time>2024-07-01T10:18:12Z</time>
      </trkpt>
      <trkpt lat="44.86173" lon="5.19119">
        <ele>812.1</ele>
        <time>2024-07-01T10:18:14Z</time>
      </trkpt>
      <trkpt lat="44.86172" lon="5.1912">
        <ele>812</ele>
        <time>2024-07-01T10:18:15Z</time>
      </trkpt>
      <trkpt lat="44.86171" lon="5.1912">
        <ele>811.9</ele>
        <time>2024-07-01T10:18:16Z</time>
      </trkpt>
      <trkpt lat="44.8617" lon="5.19121">
        <ele>811.8</ele>
        <time>2024-07-01T10:18:17Z</time>
      </trkpt>
      <trkpt lat="44.86169" lon="5.19123">
        <ele>811.6</ele>
        <time>2024-07-01T10:18:18Z</time>
      </trkpt>
      <trkpt lat="44.86168" lon="5.19124">
        <ele>811.6</ele>
        <time>2024-07-01T10:18:20Z</time>
      </trkpt>
      <trkpt lat="44.86167" lon="5.19123">
        <ele>811.5</ele>
        <time>2024-07-01T10:18:21Z</time>
      </trkpt>
      <trkpt lat="44.86167" lon="5.19124">
        <ele>811.5</ele>
        <time>2024-07-01T10:18:22Z</time>
      </trkpt>
      <trkpt lat="44.86165" lon="5.19126">
        <ele>811.3</ele>
        <time>2024-07-01T10:18:23Z</time>
      </trkpt>
      <trkpt lat="44.86164" lon="5.19126">
        <ele>811.2</ele>
        <time>2024-07-01T10:18:25Z</time>
      </trkpt>
      <trkpt lat="44.86163" lon="5.19127">
        <ele>811.2</ele>
        <time>2024-07-01T10:18:26Z</time>
      </trkpt>
      <trkpt lat="44.86162" lon="5.19128">
        <ele>811.1</ele>
        <time>2024-07-01T10:18:27Z</time>
      </trkpt>
      <trkpt lat="44.86161" lon="5.19128">
        <ele>811</ele>
        <time>2024-07-01T10:18:28Z</time>
      </trkpt>
      <trkpt lat="44.86159" lon="5.19129">
        <ele>810.8</ele>
        <time>2024-07-01T10:18:29Z</time>
      </trkpt>
      <trkpt lat="44.86158" lon="5.1913">
        <ele>810.7</ele>
        <time>2024-07-01T10:18:31Z</time>
      </trkpt>
      <trkpt lat="44.86157" lon="5.19131">
        <ele>810.6</ele>
        <time>2024-07-01T10:18:32Z</time>
      </trkpt>
      <trkpt lat="44.86155" lon="5.19132">
        <ele>810.5</ele>
        <time>2024-07-01T10:18:33Z</time>
      </trkpt>
      <trkpt lat="44.86154" lon="5.19133">
        <ele>810.4</ele>
        <time>2024-07-01T10:18:35Z</time>
      </trkpt>
      <trkpt lat="44.86153" lon="5.19133">
        <ele>810.3</ele>
        <time>2024-07-01T10:18:36Z</time>
      </trkpt>
      <trkpt lat="44.86152" lon="5.19134">
        <ele>810.2</ele>
        <time>2024-07-01T10:18:37Z</time>
      </trkpt>
      <trkpt lat="44.86151" lon="5.19135">
        <ele>810.2</ele>
        <time>2024-07-01T10:18:38Z</time>
      </trkpt>
      <trkpt lat="44.86148" lon="5.19136">
        <ele>810</ele>
        <time>2024-07-01T10:18:39Z</time>
      </trkpt>
      <trkpt lat="44.86147" lon="5.19136">
        <ele>809.9</ele>
        <time>2024-07-01T10:18:41Z</time>
      </trkpt>
      <trkpt lat="44.86146" lon="5.19136">
        <ele>809.8</ele>
        <time>2024-07-01T10:18:42Z</time>
      </trkpt>
      <trkpt lat="44.86145" lon="5.19137">
        <ele>809.7</ele>
        <time>2024-07-01T10:18:43Z</time>
      </trkpt>
      <trkpt lat="44.86143" lon="5.19137">
        <ele>809.6</ele>
        <time>2024-07-01T10:18:44Z</time>
      </trkpt>
      <trkpt lat="44.86142" lon="5.19138">
        <ele>809.5</ele>
        <time>2024-07-01T10:18:46Z</time>
      </trkpt>
      <trkpt lat="44.86141" lon="5.19138">
        <ele>809.5</ele>
        <time>2024-07-01T10:18:47Z</time>
      </trkpt>
      <trkpt lat="44.8614" lon="5.19139">
        <ele>809.4</ele>
        <time>2024-07-01T10:18:48Z</time>
      </trkpt>
      <trkpt lat="44.86139" lon="5.19139">
        <ele>809.3</ele>
        <time>2024-07-01T10:18:49Z</time>
      </trkpt>
      <trkpt lat="44.86138" lon="5.19139">
        <ele>809.2</ele>
        <time>2024-07-01T10:18:50Z</time>
      </trkpt>
      <trkpt lat="44.86136" lon="5.1914">
        <ele>809.1</ele>
        <time>2024-07-01T10:18:51Z</time>
      </trkpt>
      <trkpt lat="44.86134" lon="5.1914">
        <ele>808.9</ele>
        <time>2024-07-01T10:18:52Z</time>
      </trkpt>
      <trkpt lat="44.86133" lon="5.19141">
        <ele>808.9</ele>
        <time>2024-07-01T10:18:54Z</time>
      </trkpt>
      <trkpt lat="44.86132" lon="5.19141">
        <ele>808.8</ele>
        <time>2024-07-01T10:18:55Z</time>
      </trkpt>
      <trkpt lat="44.86131" lon="5.19142">
        <ele>808.7</ele>
        <time>2024-07-01T10:18:56Z</time>
      </trkpt>
      <trkpt lat="44.8613" lon="5.19142">
        <ele>808.7</ele>
        <time>2024-07-01T10:18:57Z</time>
      </trkpt>
      <trkpt lat="44.86129" lon="5.19143">
        <ele>808.6</ele>
        <time>2024-07-01T10:18:58Z</time>
      </trkpt>
      <trkpt lat="44.86128" lon="5.19143">
        <ele>808.5</ele>
        <time>2024-07-01T10:18:59Z</time>
      </trkpt>
      <trkpt lat="44.86127" lon="5.19143">
        <ele>808.4</ele>
        <time>2024-07-01T10:19:00Z</time>
      </trkpt>
      <trkpt lat="44.86126" lon="5.19144">
        <ele>808.3</ele>
        <time>2024-07-01T10:19:01Z</time>
      </trkpt>
      <trkpt lat="44.86124" lon="5.19144">
        <ele>808.2</ele>
        <time>2024-07-01T10:19:02Z</time>
      </trkpt>
      <trkpt lat="44.86122" lon="5.19145">
        <ele>808.1</ele>
        <time>2024-07-01T10:19:03Z</time>
      </trkpt>
      <trkpt lat="44.86121" lon="5.19146">
        <ele>808</ele>
        <time>2024-07-01T10:19:05Z</time>
      </trkpt>
      <trkpt lat="44.8612" lon="5.19146">
        <ele>807.9</ele>
        <time>2024-07-01T10:19:06Z</time>
      </trkpt>
      <trkpt lat="44.86117" lon="5.19147">
        <ele>807.7</ele>
        <time>2024-07-01T10:19:07Z</time>
      </trkpt>
      <trkpt lat="44.86116" lon="5.19148">
        <ele>807.7</ele>
        <time>2024-07-01T10:19:09Z</time>
      </trkpt>
      <trkpt lat="44.86115" lon="5.19148">
        <ele>807.6</ele>
        <time>2024-07-01T10:19:10Z</time>
      </trkpt>
      <trkpt lat="44.86114" lon="5.19148">
        <ele>807.5</ele>
        <time>2024-07-01T10:19:11Z</time>
      </trkpt>
      <trkpt lat="44.86113" lon="5.19149">
        <ele>807.4</ele>
        <time>2024-07-01T10:19:12Z</time>
      </trkpt>
      <trkpt lat="44.86112" lon="5.1915">
        <ele>807.4</ele>
        <time>2024-07-01T10:19:13Z</time>
      </trkpt>
      <trkpt lat="44.8611" lon="5.19149">
        <ele>807.3</ele>
        <time>2024-07-01T10:19:14Z</time>
      </trkpt>
      <trkpt lat="44.86109" lon="5.19149">
        <ele>807.2</ele>
        <time>2024-07-01T10:19:16Z</time>
      </trkpt>
      <trkpt lat="44.86108" lon="5.19149">
        <ele>807.2</ele>
        <time>2024-07-01T10:19:17Z</time>
      </trkpt>
      <trkpt lat="44.86108" lon="5.19149">
        <ele>807.1</ele>
        <time>2024-07-01T10:19:18Z</time>
      </trkpt>
      <trkpt lat="44.86106" lon="5.19149">
        <ele>807.1</ele>
        <time>2024-07-01T10:19:19Z</time>
      </trkpt>
      <trkpt lat="44.86105" lon="5.19149">
        <ele>807</ele>
        <time>2024-07-01T10:19:20Z</time>
      </trkpt>
      <trkpt lat="44.86104" lon="5.19149">
        <ele>806.9</ele>
        <time>2024-07-01T10:19:21Z</time>
      </trkpt>
      <trkpt lat="44.86103" lon="5.19149">
        <ele>806.9</ele>
        <time>2024-07-01T10:19:22Z</time>
      </trkpt>
      <trkpt lat="44.86101" lon="5.19149">
        <ele>806.8</ele>
        <time>2024-07-01T10:19:23Z</time>
      </trkpt>
      <trkpt lat="44.86101" lon="5.19148">
        <ele>806.7</ele>
        <time>2024-07-01T10:19:24Z</time>
      </trkpt>
      <trkpt lat="44.86098" lon="5.19148">
        <ele>806.6</ele>
        <time>2024-07-01T10:19:25Z</time>
      </trkpt>
      <trkpt lat="44.86096" lon="5.19147">
        <ele>806.5</ele>
        <time>2024-07-01T10:19:26Z</time>
      </trkpt>
      <trkpt lat="44.86095" lon="5.19147">
        <ele>806.5</ele>
        <time>2024-07-01T10:19:28Z</time>
      </trkpt>
      <trkpt lat="44.86095" lon="5.19147">
        <ele>806.4</ele>
        <time>2024-07-01T10:19:29Z</time>
      </trkpt>
      <trkpt lat="44.86092" lon="5.19147">
        <ele>806.3</ele>
        <time>2024-07-01T10:19:30Z</time>
      </trkpt>
      <trkpt lat="44.86091" lon="5.19147">
        <ele>806.2</ele>
        <time>2024-07-01T10:19:32Z</time>
      </trkpt>
      <trkpt lat="44.86089" lon="5.19146">
        <ele>806.1</ele>
        <time>2024-07-01T10:19:33Z</time>
      </trkpt>
      <trkpt lat="44.86088" lon="5.19147">
        <ele>806.1</ele>
        <time>2024-07-01T10:19:34Z</time>
      </trkpt>
      <trkpt lat="44.86087" lon="5.19147">
        <ele>806</ele>
        <time>2024-07-01T10:19:35Z</time>
      </trkpt>
      <trkpt lat="44.86084" lon="5.19147">
        <ele>805.8</ele>
        <time>2024-07-01T10:19:36Z</time>
      </trkpt>
      <trkpt lat="44.86083" lon="5.19147">
        <ele>805.8</ele>
        <time>2024-07-01T10:19:38Z</time>
      </trkpt>
      <trkpt lat="44.86082" lon="5.19147">
        <ele>805.7</ele>
        <time>2024-07-01T10:19:39Z</time>
      </trkpt>
      <trkpt lat="44.86079" lon="5.19148">
        <ele>805.5</ele>
        <time>2024-07-01T10:19:40Z</time>
      </trkpt>
      <trkpt lat="44.86078" lon="5.19148">
        <ele>805.5</ele>
        <time>2024-07-01T10:19:41Z</time>
      </trkpt>
      <trkpt lat="44.86075" lon="5.19148">
        <ele>805.3</ele>
        <time>2024-07-01T10:19:43Z</time>
      </trkpt>
      <trkpt lat="44.86075" lon="5.19148">
        <ele>805.2</ele>
        <time>2024-07-01T10:19:44Z</time>
      </trkpt>
      <trkpt lat="44.86074" lon="5.19148">
        <ele>805.2</ele>
        <time>2024-07-01T10:19:45Z</time>
      </trkpt>
      <trkpt lat="44.86072" lon="5.19149">
        <ele>805</ele>
        <time>2024-07-01T10:19:46Z</time>
      </trkpt>
      <trkpt lat="44.86071" lon="5.19149">
        <ele>805</ele>
        <time>2024-07-01T10:19:47Z</time>
      </trkpt>
      <trkpt lat="44.86069" lon="5.19149">
        <ele>804.9</ele>
        <time>2024-07-01T10:19:48Z</time>
      </trkpt>
      <trkpt lat="44.86068" lon="5.19149">
        <ele>804.8</ele>
        <time>2024-07-01T10:19:50Z</time>
      </trkpt>
      <trkpt lat="44.86067" lon="5.19149">
        <ele>804.7</ele>
        <time>2024-07-01T10:19:51Z</time>
      </trkpt>
      <trkpt lat="44.86066" lon="5.19149">
        <ele>804.7</ele>
        <time>2024-07-01T10:19:52Z</time>
      </trkpt>
      <trkpt lat="44.86065" lon="5.19149">
        <ele>804.5</ele>
        <time>2024-07-01T10:19:53Z</time>
      </trkpt>
      <trkpt lat="44.86064" lon="5.19149">
        <ele>804.5</ele>
        <time>2024-07-01T10:19:54Z</time>
      </trkpt>
      <trkpt lat="44.86063" lon="5.19148">
        <ele>804.4</ele>
        <time>2024-07-01T10:19:55Z</time>
      </trkpt>
      <trkpt lat="44.86061" lon="5.19148">
        <ele>804.3</ele>
        <time>2024-07-01T10:19:56Z</time>
      </trkpt>
      <trkpt lat="44.86061" lon="5.19148">
        <ele>804.2</ele>
        <time>2024-07-01T10:19:57Z</time>
      </trkpt>
      <trkpt lat="44.8606" lon="5.19148">
        <ele>804.1</ele>
        <time>2024-07-01T10:19:58Z</time>
      </trkpt>
      <trkpt lat="44.86058" lon="5.19148">
        <ele>803.9</ele>
        <time>2024-07-01T10:19:59Z</time>
      </trkpt>
      <trkpt lat="44.86056" lon="5.19148">
        <ele>803.8</ele>
        <time>2024-07-01T10:20:01Z</time>
      </trkpt>
      <trkpt lat="44.86055" lon="5.19148">
        <ele>803.7</ele>
        <time>2024-07-01T10:20:02Z</time>
      </trkpt>
      <trkpt lat="44.86053" lon="5.19149">
        <ele>803.5</ele>
        <time>2024-07-01T10:20:03Z</time>
      </trkpt>
      <trkpt lat="44.86051" lon="5.19149">
        <ele>803.4</ele>
        <time>2024-07-01T10:20:05Z</time>
      </trkpt>
      <trkpt lat="44.86049" lon="5.1915">
        <ele>803.2</ele>
        <time>2024-07-01T10:20:06Z</time>
      </trkpt>
      <trkpt lat="44.86048" lon="5.1915">
        <ele>803.2</ele>
        <time>2024-07-01T10:20:07Z</time>
      </trkpt>
      <trkpt lat="44.86047" lon="5.1915">
        <ele>803.1</ele>
        <time>2024-07-01T10:20:08Z</time>
      </trkpt>
      <trkpt lat="44.86046" lon="5.19151">
        <ele>803</ele>
        <time>2024-07-01T10:20:09Z</time>
      </trkpt>
      <trkpt lat="44.86045" lon="5.19151">
        <ele>802.9</ele>
        <time>2024-07-01T10:20:10Z</time>
      </trkpt>
      <trkpt lat="44.86044" lon="5.19152">
        <ele>802.8</ele>
        <time>2024-07-01T10:20:11Z</time>
      </trkpt>
      <trkpt lat="44.86043" lon="5.19152">
        <ele>802.7</ele>
        <time>2024-07-01T10:20:12Z</time>
      </trkpt>
      <trkpt lat="44.86041" lon="5.19152">
        <ele>802.6</ele>
        <time>2024-07-01T10:20:14Z</time>
      </trkpt>
      <trkpt lat="44.86039" lon="5.19153">
        <ele>802.4</ele>
        <time>2024-07-01T10:20:15Z</time>
      </trkpt>
      <trkpt lat="44.86038" lon="5.19154">
        <ele>802.3</ele>
        <time>2024-07-01T10:20:17Z</time>
      </trkpt>
      <trkpt lat="44.86037" lon="5.19154">
        <ele>802.2</ele>
        <time>2024-07-01T10:20:18Z</time>
      </trkpt>
      <trkpt lat="44.86036" lon="5.19154">
        <ele>802.1</ele>
        <time>2024-07-01T10:20:19Z</time>
      </trkpt>
      <trkpt lat="44.86035" lon="5.19154">
        <ele>802</ele>
        <time>2024-07-01T10:20:20Z</time>
      </trkpt>
      <trkpt lat="44.86033" lon="5.19155">
        <ele>801.9</ele>
        <time>2024-07-01T10:20:21Z</time>
      </trkpt>
      <trkpt lat="44.86031" lon="5.19155">
        <ele>801.7</ele>
        <time>2024-07-01T10:20:22Z</time>
      </trkpt>
      <trkpt lat="44.8603" lon="5.19156">
        <ele>801.7</ele>
        <time>2024-07-01T10:20:24Z</time>
      </trkpt>
      <trkpt lat="44.86029" lon="5.19157">
        <ele>801.6</ele>
        <time>2024-07-01T10:20:25Z</time>
      </trkpt>
      <trkpt lat="44.86028" lon="5.19157">
        <ele>801.5</ele>
        <time>2024-07-01T10:20:26Z</time>
      </trkpt>
      <trkpt lat="44.86026" lon="5.19158">
        <ele>801.4</ele>
        <time>2024-07-01T10:20:27Z</time>
      </trkpt>
      <trkpt lat="44.86025" lon="5.19158">
        <ele>801.3</ele>
        <time>2024-07-01T10:20:29Z</time>
      </trkpt>
      <trkpt lat="44.86024" lon="5.19158">
        <ele>801.2</ele>
        <time>2024-07-01T10:20:30Z</time>
      </trkpt>
      <trkpt lat="44.86022" lon="5.19159">
        <ele>801.1</ele>
        <time>2024-07-01T10:20:31Z</time>
      </trkpt>
      <trkpt lat="44.86022" lon="5.19159">
        <ele>801.1</ele>
        <time>2024-07-01T10:20:32Z</time>
      </trkpt>
      <trkpt lat="44.86021" lon="5.19159">
        <ele>801</ele>
        <time>2024-07-01T10:20:33Z</time>
      </trkpt>
      <trkpt lat="44.86019" lon="5.1916">
        <ele>800.9</ele>
        <time>2024-07-01T10:20:34Z</time>
      </trkpt>
      <trkpt lat="44.86017" lon="5.1916">
        <ele>800.8</ele>
        <time>2024-07-01T10:20:35Z</time>
      </trkpt>
      <trkpt lat="44.86016" lon="5.1916">
        <ele>800.7</ele>
        <time>2024-07-01T10:20:37Z</time>
      </trkpt>
      <trkpt lat="44.86015" lon="5.1916">
        <ele>800.7</ele>
        <time>2024-07-01T10:20:38Z</time>
      </trkpt>
      <trkpt lat="44.86013" lon="5.19161">
        <ele>800.5</ele>
        <time>2024-07-01T10:20:39Z</time>
      </trkpt>
      <trkpt lat="44.86012" lon="5.19161">
        <ele>800.5</ele>
        <time>2024-07-01T10:20:41Z</time>
      </trkpt>
      <trkpt lat="44.86011" lon="5.19161">
        <ele>800.4</ele>
        <time>2024-07-01T10:20:42Z</time>
      </trkpt>
      <trkpt lat="44.8601" lon="5.19161">
        <ele>800.4</ele>
        <time>2024-07-01T10:20:43Z</time>
      </trkpt>
      <trkpt lat="44.86008" lon="5.19161">
        <ele>800.3</ele>
        <time>2024-07-01T10:20:44Z</time>
      </trkpt>
      <trkpt lat="44.86006" lon="5.19162">
        <ele>800.2</ele>
        <time>2024-07-01T10:20:45Z</time>
      </trkpt>
      <trkpt lat="44.86005" lon="5.19162">
        <ele>800.2</ele>
        <time>2024-07-01T10:20:46Z</time>
      </trkpt>
      <trkpt lat="44.86003" lon="5.19163">
        <ele>800.1</ele>
        <time>2024-07-01T10:20:47Z</time>
      </trkpt>
      <trkpt lat="44.86003" lon="5.19164">
        <ele>800.1</ele>
        <time>2024-07-01T10:20:49Z</time>
      </trkpt>
      <trkpt lat="44.86002" lon="5.19164">
        <ele>800.1</ele>
        <time>2024-07-01T10:20:50Z</time>
      </trkpt>
      <trkpt lat="44.86" lon="5.19166">
        <ele>800</ele>
        <time>2024-07-01T10:20:51Z</time>
      </trkpt>
      <trkpt lat="44.85999" lon="5.19166">
        <ele>800</ele>
        <time>2024-07-01T10:20:53Z</time>
      </trkpt>
      <trkpt lat="44.85997" lon="5.19167">
        <ele>799.9</ele>
        <time>2024-07-01T10:20:54Z</time>
      </trkpt>
      <trkpt lat="44.85997" lon="5.19167">
        <ele>799.9</ele>
        <time>2024-07-01T10:20:55Z</time>
      </trkpt>
      <trkpt lat="44.85996" lon="5.19168">
        <ele>799.9</ele>
        <time>2024-07-01T10:20:56Z</time>
      </trkpt>
      <trkpt lat="44.85994" lon="5.19169">
        <ele>799.9</ele>
        <time>2024-07-01T10:20:57Z</time>
      </trkpt>
      <trkpt lat="44.85992" lon="5.1917">
        <ele>799.8</ele>
        <time>2024-07-01T10:20:58Z</time>
      </trkpt>
      <trkpt lat="44.85992" lon="5.19171">
        <ele>799.8</ele>
        <time>2024-07-01T10:21:00Z</time>
      </trkpt>
      <trkpt lat="44.85991" lon="5.19171">
        <ele>799.8</ele>
        <time>2024-07-01T10:21:01Z</time>
      </trkpt>
      <trkpt lat="44.8599" lon="5.19172">
        <ele>799.8</ele>
        <time>2024-07-01T10:21:02Z</time>
      </trkpt>
      <trkpt lat="44.85989" lon="5.19173">
        <ele>799.8</ele>
        <time>2024-07-01T10:21:03Z</time>
      </trkpt>
      <trkpt lat="44.85987" lon="5.19174">
        <ele>799.7</ele>
        <time>2024-07-01T10:21:04Z</time>
      </trkpt>
      <trkpt lat="44.85986" lon="5.19174">
        <ele>799.7</ele>
        <time>2024-07-01T10:21:05Z</time>
      </trkpt>
      <trkpt lat="44.85985" lon="5.19175">
        <ele>799.7</ele>
        <time>2024-07-01T10:21:06Z</time>
      </trkpt>
      <trkpt lat="44.85984" lon="5.19176">
        <ele>799.7</ele>
        <time>2024-07-01T10:21:07Z</time>
      </trkpt>
      <trkpt lat="44.85984" lon="5.19176">
        <ele>799.7</ele>
        <time>2024-07-01T10:21:08Z</time>
      </trkpt>
      <trkpt lat="44.85982" lon="5.19178">
        <ele>799.7</ele>
        <time>2024-07-01T10:21:09Z</time>
      </trkpt>
      <trkpt lat="44.85981" lon="5.19179">
        <ele>799.7</ele>
        <time>2024-07-01T10:21:10Z</time>
      </trkpt>
      <trkpt lat="44.8598" lon="5.19179">
        <ele>799.7</ele>
        <time>2024-07-01T10:21:12Z</time>
      </trkpt>
      <trkpt lat="44.85979" lon="5.19179">
        <ele>799.7</ele>
        <time>2024-07-01T10:21:13Z</time>
      </trkpt>
      <trkpt lat="44.85977" lon="5.1918">
        <ele>799.7</ele>
        <time>2024-07-01T10:21:14Z</time>
      </trkpt>
      <trkpt lat="44.85977" lon="5.1918">
        <ele>799.7</ele>
        <time>2024-07-01T10:21:15Z</time>
      </trkpt>
      <trkpt lat="44.85975" lon="5.19181">
        <ele>799.7</ele>
        <time>2024-07-01T10:21:16Z</time>
      </trkpt>
      <trkpt lat="44.85974" lon="5.19181">
        <ele>799.7</ele>
        <time>2024-07-01T10:21:17Z</time>
      </trkpt>
      <trkpt lat="44.85972" lon="5.19181">
        <ele>799.7</ele>
        <time>2024-07-01T10:21:18Z</time>
      </trkpt>
      <trkpt lat="44.85971" lon="5.19181">
        <ele>799.7</ele>
        <time>2024-07-01T10:21:19Z</time>
      </trkpt>
      <trkpt lat="44.85969" lon="5.19181">
        <ele>799.7</ele>
        <time>2024-07-01T10:21:20Z</time>
      </trkpt>
      <trkpt lat="44.85968" lon="5.19181">
        <ele>799.7</ele>
        <time>2024-07-01T10:21:22Z</time>
      </trkpt>
      <trkpt lat="44.85966" lon="5.19182">
        <ele>799.7</ele>
        <time>2024-07-01T10:21:23Z</time>
      </trkpt>
      <trkpt lat="44.85965" lon="5.19182">
        <ele>799.7</ele>
        <time>2024-07-01T10:21:24Z</time>
      </trkpt>
      <trkpt lat="44.85964" lon="5.19182">
        <ele>799.7</ele>
        <time>2024-07-01T10:21:25Z</time>
      </trkpt>
      <trkpt lat="44.85962" lon="5.19182">
        <ele>799.8</ele>
        <time>2024-07-01T10:21:26Z</time>
      </trkpt>
      <trkpt lat="44.85961" lon="5.19182">
        <ele>799.8</ele>
        <time>2024-07-01T10:21:27Z</time>
      </trkpt>
      <trkpt lat="44.85959" lon="5.19183">
        <ele>799.8</ele>
        <time>2024-07-01T10:21:28Z</time>
      </trkpt>
      <trkpt lat="44.85957" lon="5.19183">
        <ele>799.8</ele>
        <time>2024-07-01T10:21:29Z</time>
      </trkpt>
      <trkpt lat="44.85956" lon="5.19183">
        <ele>799.8</ele>
        <time>2024-07-01T10:21:30Z</time>
      </trkpt>
      <trkpt lat="44.85955" lon="5.19184">
        <ele>799.8</ele>
        <time>2024-07-01T10:21:31Z</time>
      </trkpt>
      <trkpt lat="44.85954" lon="5.19185">
        <ele>799.8</ele>
        <time>2024-07-01T10:21:33Z</time>
      </trkpt>
      <trkpt lat="44.85952" lon="5.19186">
        <ele>799.8</ele>
        <time>2024-07-01T10:21:34Z</time>
      </trkpt>
      <trkpt lat="44.85951" lon="5.19186">
        <ele>799.8</ele>
        <time>2024-07-01T10:21:35Z</time>
      </trkpt>
      <trkpt lat="44.8595" lon="5.19187">
        <ele>799.8</ele>
        <time>2024-07-01T10:21:36Z</time>
      </trkpt>
      <trkpt lat="44.85948" lon="5.19188">
        <ele>799.8</ele>
        <time>2024-07-01T10:21:37Z</time>
      </trkpt>
      <trkpt lat="44.85948" lon="5.19188">
        <ele>799.8</ele>
        <time>2024-07-01T10:21:38Z</time>
      </trkpt>
      <trkpt lat="44.85946" lon="5.1919">
        <ele>799.8</ele>
        <time>2024-07-01T10:21:39Z</time>
      </trkpt>
      <trkpt lat="44.85943" lon="5.19192">
        <ele>799.8</ele>
        <time>2024-07-01T10:21:41Z</time>
      </trkpt>
      <trkpt lat="44.85942" lon="5.19193">
        <ele>799.7</ele>
        <time>2024-07-01T10:21:42Z</time>
      </trkpt>
      <trkpt lat="44.85941" lon="5.19193">
        <ele>799.7</ele>
        <time>2024-07-01T10:21:43Z</time>
      </trkpt>
      <trkpt lat="44.8594" lon="5.19194">
        <ele>799.7</ele>
        <time>2024-07-01T10:21:45Z</time>
      </trkpt>
      <trkpt lat="44.85939" lon="5.19195">
        <ele>799.7</ele>
        <time>2024-07-01T10:21:46Z</time>
      </trkpt>
      <trkpt lat="44.85939" lon="5.19196">
        <ele>799.6</ele>
        <time>2024-07-01T10:21:47Z</time>
      </trkpt>
      <trkpt lat="44.85938" lon="5.19197">
        <ele>799.6</ele>
        <time>2024-07-01T10:21:48Z</time>
      </trkpt>
      <trkpt lat="44.85936" lon="5.19198">
        <ele>799.6</ele>
        <time>2024-07-01T10:21:49Z</time>
      </trkpt>
      <trkpt lat="44.85935" lon="5.19199">
        <ele>799.5</ele>
        <time>2024-07-01T10:21:50Z</time>
      </trkpt>
      <trkpt lat="44.85935" lon="5.192">
        <ele>799.5</ele>
        <time>2024-07-01T10:21:52Z</time>
      </trkpt>
      <trkpt lat="44.85934" lon="5.19201">
        <ele>799.4</ele>
        <time>2024-07-01T10:21:53Z</time>
      </trkpt>
      <trkpt lat="44.85932" lon="5.19202">
        <ele>799.4</ele>
        <time>2024-07-01T10:21:54Z</time>
      </trkpt>
      <trkpt lat="44.85931" lon="5.19203">
        <ele>799.3</ele>
        <time>2024-07-01T10:21:56Z</time>
      </trkpt>
      <trkpt lat="44.8593" lon="5.19204">
        <ele>799.3</ele>
        <time>2024-07-01T10:21:57Z</time>
      </trkpt>
      <trkpt lat="44.85929" lon="5.19204">
        <ele>799.2</ele>
        <time>2024-07-01T10:21:58Z</time>
      </trkpt>
      <trkpt lat="44.85928" lon="5.19205">
        <ele>799.2</ele>
        <time>2024-07-01T10:21:59Z</time>
      </trkpt>
      <trkpt lat="44.85927" lon="5.19206">
        <ele>799.2</ele>
        <time>2024-07-01T10:22:00Z</time>
      </trkpt>
      <trkpt lat="44.85925" lon="5.19207">
        <ele>799.1</ele>
        <time>2024-07-01T10:22:01Z</time>
      </trkpt>
      <trkpt lat="44.85923" lon="5.19209">
        <ele>799</ele>
        <time>2024-07-01T10:22:03Z</time>
      </trkpt>
      <trkpt lat="44.85922" lon="5.1921">
        <ele>798.9</ele>
        <time>2024-07-01T10:22:04Z</time>
      </trkpt>
      <trkpt lat="44.85921" lon="5.19211">
        <ele>798.9</ele>
        <time>2024-07-01T10:22:06Z</time>
      </trkpt>
      <trkpt lat="44.8592" lon="5.19212">
        <ele>798.8</ele>
        <time>2024-07-01T10:22:07Z</time>
      </trkpt>
      <trkpt lat="44.85918" lon="5.19213">
        <ele>798.7</ele>
        <time>2024-07-01T10:22:08Z</time>
      </trkpt>
      <trkpt lat="44.85917" lon="5.19214">
        <ele>798.7</ele>
        <time>2024-07-01T10:22:09Z</time>
      </trkpt>
      <trkpt lat="44.85916" lon="5.19214">
        <ele>798.7</ele>
        <time>2024-07-01T10:22:10Z</time>
      </trkpt>
      <trkpt lat="44.85914" lon="5.19216">
        <ele>798.6</ele>
        <time>2024-07-01T10:22:11Z</time>
      </trkpt>
      <trkpt lat="44.85913" lon="5.19216">
        <ele>798.5</ele>
        <time>2024-07-01T10:22:12Z</time>
      </trkpt>
      <trkpt lat="44.85911" lon="5.19218">
        <ele>798.4</ele>
        <time>2024-07-01T10:22:14Z</time>
      </trkpt>
      <trkpt lat="44.85909" lon="5.19218">
        <ele>798.4</ele>
        <time>2024-07-01T10:22:16Z</time>
      </trkpt>
      <trkpt lat="44.85908" lon="5.1922">
        <ele>798.3</ele>
        <time>2024-07-01T10:22:17Z</time>
      </trkpt>
      <trkpt lat="44.85907" lon="5.1922">
        <ele>798.3</ele>
        <time>2024-07-01T10:22:18Z</time>
      </trkpt>
      <trkpt lat="44.85906" lon="5.19221">
        <ele>798.2</ele>
        <time>2024-07-01T10:22:19Z</time>
      </trkpt>
      <trkpt lat="44.85904" lon="5.19222">
        <ele>798.2</ele>
        <time>2024-07-01T10:22:20Z</time>
      </trkpt>
      <trkpt lat="44.85902" lon="5.19223">
        <ele>798.1</ele>
        <time>2024-07-01T10:22:21Z</time>
      </trkpt>
      <trkpt lat="44.85901" lon="5.19223">
        <ele>798.1</ele>
        <time>2024-07-01T10:22:22Z</time>
      </trkpt>
      <trkpt lat="44.859" lon="5.19224">
        <ele>798</ele>
        <time>2024-07-01T10:22:23Z</time>
      </trkpt>
      <trkpt lat="44.85899" lon="5.19224">
        <ele>798</ele>
        <time>2024-07-01T10:22:25Z</time>
      </trkpt>
      <trkpt lat="44.85897" lon="5.19225">
        <ele>797.9</ele>
        <time>2024-07-01T10:22:26Z</time>
      </trkpt>
      <trkpt lat="44.85896" lon="5.19225">
        <ele>797.9</ele>
        <time>2024-07-01T10:22:27Z</time>
      </trkpt>
      <trkpt lat="44.85895" lon="5.19225">
        <ele>797.9</ele>
        <time>2024-07-01T10:22:28Z</time>
      </trkpt>
      <trkpt lat="44.85894" lon="5.19226">
        <ele>797.8</ele>
        <time>2024-07-01T10:22:29Z</time>
      </trkpt>
      <trkpt lat="44.85893" lon="5.19226">
        <ele>797.8</ele>
        <time>2024-07-01T10:22:30Z</time>
      </trkpt>
      <trkpt lat="44.85891" lon="5.19227">
        <ele>797.8</ele>
        <time>2024-07-01T10:22:31Z</time>
      </trkpt>
      <trkpt lat="44.85889" lon="5.19228">
        <ele>797.7</ele>
        <time>2024-07-01T10:22:32Z</time>
      </trkpt>
      <trkpt lat="44.85887" lon="5.19229">
        <ele>797.6</ele>
        <time>2024-07-01T10:22:33Z</time>
      </trkpt>
      <trkpt lat="44.85886" lon="5.1923">
        <ele>797.6</ele>
        <time>2024-07-01T10:22:35Z</time>
      </trkpt>
      <trkpt lat="44.85885" lon="5.19231">
        <ele>797.6</ele>
        <time>2024-07-01T10:22:36Z</time>
      </trkpt>
      <trkpt lat="44.85884" lon="5.19231">
        <ele>797.6</ele>
        <time>2024-07-01T10:22:37Z</time>
      </trkpt>
      <trkpt lat="44.85883" lon="5.19232">
        <ele>797.6</ele>
        <time>2024-07-01T10:22:38Z</time>
      </trkpt>
      <trkpt lat="44.85881" lon="5.19233">
        <ele>797.5</ele>
        <time>2024-07-01T10:22:39Z</time>
      </trkpt>
      <trkpt lat="44.8588" lon="5.19233">
        <ele>797.5</ele>
        <time>2024-07-01T10:22:40Z</time>
      </trkpt>
      <trkpt lat="44.8588" lon="5.19234">
        <ele>797.5</ele>
        <time>2024-07-01T10:22:41Z</time>
      </trkpt>
      <trkpt lat="44.85878" lon="5.19235">
        <ele>797.5</ele>
        <time>2024-07-01T10:22:42Z</time>
      </trkpt>
      <trkpt lat="44.85877" lon="5.19235">
        <ele>797.4</ele>
        <time>2024-07-01T10:22:43Z</time>
      </trkpt>
      <trkpt lat="44.85875" lon="5.19237">
        <ele>797.4</ele>
        <time>2024-07-01T10:22:44Z</time>
      </trkpt>
      <trkpt lat="44.85874" lon="5.19238">
        <ele>797.4</ele>
        <time>2024-07-01T10:22:46Z</time>
      </trkpt>
      <trkpt lat="44.85872" lon="5.1924">
        <ele>797.3</ele>
        <time>2024-07-01T10:22:47Z</time>
      </trkpt>
      <trkpt lat="44.85871" lon="5.19241">
        <ele>797.3</ele>
        <time>2024-07-01T10:22:48Z</time>
      </trkpt>
      <trkpt lat="44.85869" lon="5.19242">
        <ele>797.2</ele>
        <time>2024-07-01T10:22:50Z</time>
      </trkpt>
      <trkpt lat="44.85868" lon="5.19243">
        <ele>797.2</ele>
        <time>2024-07-01T10:22:51Z</time>
      </trkpt>
      <trkpt lat="44.85868" lon="5.19244">
        <ele>797.2</ele>
        <time>2024-07-01T10:22:52Z</time>
      </trkpt>
      <trkpt lat="44.85866" lon="5.19245">
        <ele>797.1</ele>
        <time>2024-07-01T10:22:53Z</time>
      </trkpt>
      <trkpt lat="44.85865" lon="5.19246">
        <ele>797.1</ele>
        <time>2024-07-01T10:22:54Z</time>
      </trkpt>
      <trkpt lat="44.85865" lon="5.19247">
        <ele>797</ele>
        <time>2024-07-01T10:22:55Z</time>
      </trkpt>
      <trkpt lat="44.85863" lon="5.1925">
        <ele>796.9</ele>
        <time>2024-07-01T10:22:56Z</time>
      </trkpt>
      <trkpt lat="44.85862" lon="5.19251">
        <ele>796.9</ele>
        <time>2024-07-01T10:22:57Z</time>
      </trkpt>
      <trkpt lat="44.85861" lon="5.19252">
        <ele>796.8</ele>
        <time>2024-07-01T10:22:58Z</time>
      </trkpt>
      <trkpt lat="44.8586" lon="5.19254">
        <ele>796.7</ele>
        <time>2024-07-01T10:23:00Z</time>
      </trkpt>
      <trkpt lat="44.8586" lon="5.19254">
        <ele>796.7</ele>
        <time>2024-07-01T10:23:01Z</time>
      </trkpt>
      <trkpt lat="44.85858" lon="5.19257">
        <ele>796.5</ele>
        <time>2024-07-01T10:23:02Z</time>
      </trkpt>
      <trkpt lat="44.85857" lon="5.19258">
        <ele>796.4</ele>
        <time>2024-07-01T10:23:03Z</time>
      </trkpt>
      <trkpt lat="44.85856" lon="5.19259">
        <ele>796.4</ele>
        <time>2024-07-01T10:23:04Z</time>
      </trkpt>
      <trkpt lat="44.85855" lon="5.1926">
        <ele>796.3</ele>
        <time>2024-07-01T10:23:05Z</time>
      </trkpt>
      <trkpt lat="44.85854" lon="5.19261">
        <ele>796.2</ele>
        <time>2024-07-01T10:23:07Z</time>
      </trkpt>
      <trkpt lat="44.85852" lon="5.19262">
        <ele>796.1</ele>
        <time>2024-07-01T10:23:08Z</time>
      </trkpt>
      <trkpt lat="44.85851" lon="5.19263">
        <ele>796</ele>
        <time>2024-07-01T10:23:09Z</time>
      </trkpt>
      <trkpt lat="44.85851" lon="5.19263">
        <ele>796</ele>
        <time>2024-07-01T10:23:10Z</time>
      </trkpt>
      <trkpt lat="44.8585" lon="5.19264">
        <ele>795.9</ele>
        <time>2024-07-01T10:23:11Z</time>
      </trkpt>
      <trkpt lat="44.85849" lon="5.19265">
        <ele>795.8</ele>
        <time>2024-07-01T10:23:12Z</time>
      </trkpt>
      <trkpt lat="44.85848" lon="5.19265">
        <ele>795.7</ele>
        <time>2024-07-01T10:23:13Z</time>
      </trkpt>
      <trkpt lat="44.85846" lon="5.19266">
        <ele>795.6</ele>
        <time>2024-07-01T10:23:14Z</time>
      </trkpt>
      <trkpt lat="44.85845" lon="5.19267">
        <ele>795.5</ele>
        <time>2024-07-01T10:23:15Z</time>
      </trkpt>
      <trkpt lat="44.85844" lon="5.19267">
        <ele>795.5</ele>
        <time>2024-07-01T10:23:16Z</time>
      </trkpt>
      <trkpt lat="44.85843" lon="5.19267">
        <ele>795.4</ele>
        <time>2024-07-01T10:23:17Z</time>
      </trkpt>
      <trkpt lat="44.85842" lon="5.19268">
        <ele>795.4</ele>
        <time>2024-07-01T10:23:18Z</time>
      </trkpt>
      <trkpt lat="44.8584" lon="5.1927">
        <ele>795.2</ele>
        <time>2024-07-01T10:23:19Z</time>
      </trkpt>
      <trkpt lat="44.8584" lon="5.1927">
        <ele>795.1</ele>
        <time>2024-07-01T10:23:21Z</time>
      </trkpt>
      <trkpt lat="44.85839" lon="5.19272">
        <ele>795.1</ele>
        <time>2024-07-01T10:23:22Z</time>
      </trkpt>
      <trkpt lat="44.85838" lon="5.19273">
        <ele>795</ele>
        <time>2024-07-01T10:23:23Z</time>
      </trkpt>
      <trkpt lat="44.85837" lon="5.19273">
        <ele>794.9</ele>
        <time>2024-07-01T10:23:24Z</time>
      </trkpt>
      <trkpt lat="44.85836" lon="5.19274">
        <ele>794.9</ele>
        <time>2024-07-01T10:23:25Z</time>
      </trkpt>
      <trkpt lat="44.85833" lon="5.19276">
        <ele>794.7</ele>
        <time>2024-07-01T10:23:26Z</time>
      </trkpt>
      <trkpt lat="44.85832" lon="5.19276">
        <ele>794.7</ele>
        <time>2024-07-01T10:23:28Z</time>
      </trkpt>
      <trkpt lat="44.85831" lon="5.19277">
        <ele>794.6</ele>
        <time>2024-07-01T10:23:29Z</time>
      </trkpt>
      <trkpt lat="44.85829" lon="5.19278">
        <ele>794.5</ele>
        <time>2024-07-01T10:23:30Z</time>
      </trkpt>
      <trkpt lat="44.85828" lon="5.19279">
        <ele>794.5</ele>
        <time>2024-07-01T10:23:32Z</time>
      </trkpt>
      <trkpt lat="44.85827" lon="5.19279">
        <ele>794.4</ele>
        <time>2024-07-01T10:23:33Z</time>
      </trkpt>
      <trkpt lat="44.85826" lon="5.1928">
        <ele>794.4</ele>
        <time>2024-07-01T10:23:34Z</time>
      </trkpt>
      <trkpt lat="44.85825" lon="5.1928">
        <ele>794.3</ele>
        <time>2024-07-01T10:23:35Z</time>
      </trkpt>
      <trkpt lat="44.85823" lon="5.19281">
        <ele>794.3</ele>
        <time>2024-07-01T10:23:36Z</time>
      </trkpt>
      <trkpt lat="44.85821" lon="5.19281">
        <ele>794.2</ele>
        <time>2024-07-01T10:23:37Z</time>
      </trkpt>
      <trkpt lat="44.8582" lon="5.19282">
        <ele>794.2</ele>
        <time>2024-07-01T10:23:38Z</time>
      </trkpt>
      <trkpt lat="44.85819" lon="5.19282">
        <ele>794.2</ele>
        <time>2024-07-01T10:23:40Z</time>
      </trkpt>
      <trkpt lat="44.85817" lon="5.19284">
        <ele>794.1</ele>
        <time>2024-07-01T10:23:41Z</time>
      </trkpt>
      <trkpt lat="44.85816" lon="5.19284">
        <ele>794.1</ele>
        <time>2024-07-01T10:23:42Z</time>
      </trkpt>
      <trkpt lat="44.85815" lon="5.19285">
        <ele>794.1</ele>
        <time>2024-07-01T10:23:43Z</time>
      </trkpt>
      <trkpt lat="44.85813" lon="5.19286">
        <ele>794.1</ele>
        <time>2024-07-01T10:23:44Z</time>
      </trkpt>
      <trkpt lat="44.85812" lon="5.19287">
        <ele>794</ele>
        <time>2024-07-01T10:23:46Z</time>
      </trkpt>
      <trkpt lat="44.85811" lon="5.19288">
        <ele>794</ele>
        <time>2024-07-01T10:23:47Z</time>
      </trkpt>
      <trkpt lat="44.85808" lon="5.19289">
        <ele>794</ele>
        <time>2024-07-01T10:23:48Z</time>
      </trkpt>
      <trkpt lat="44.85808" lon="5.19291">
        <ele>794</ele>
        <time>2024-07-01T10:23:49Z</time>
      </trkpt>
      <trkpt lat="44.85807" lon="5.19292">
        <ele>794</ele>
        <time>2024-07-01T10:23:50Z</time>
      </trkpt>
      <trkpt lat="44.85806" lon="5.19292">
        <ele>794</ele>
        <time>2024-07-01T10:23:52Z</time>
      </trkpt>
      <trkpt lat="44.85804" lon="5.19293">
        <ele>794</ele>
        <time>2024-07-01T10:23:53Z</time>
      </trkpt>
      <trkpt lat="44.85803" lon="5.19293">
        <ele>794</ele>
        <time>2024-07-01T10:23:54Z</time>
      </trkpt>
      <trkpt lat="44.85802" lon="5.19294">
        <ele>794</ele>
        <time>2024-07-01T10:23:55Z</time>
      </trkpt>
      <trkpt lat="44.85802" lon="5.19295">
        <ele>794</ele>
        <time>2024-07-01T10:23:56Z</time>
      </trkpt>
      <trkpt lat="44.858" lon="5.19296">
        <ele>794</ele>
        <time>2024-07-01T10:23:57Z</time>
      </trkpt>
      <trkpt lat="44.858" lon="5.19296">
        <ele>794</ele>
        <time>2024-07-01T10:23:58Z</time>
      </trkpt>
      <trkpt lat="44.85799" lon="5.19296">
        <ele>794</ele>
        <time>2024-07-01T10:23:59Z</time>
      </trkpt>
      <trkpt lat="44.85798" lon="5.19296">
        <ele>794</ele>
        <time>2024-07-01T10:24:00Z</time>
      </trkpt>
      <trkpt lat="44.85797" lon="5.19298">
        <ele>794</ele>
        <time>2024-07-01T10:24:01Z</time>
      </trkpt>
      <trkpt lat="44.85796" lon="5.19299">
        <ele>794</ele>
        <time>2024-07-01T10:24:02Z</time>
      </trkpt>
      <trkpt lat="44.85795" lon="5.19299">
        <ele>794</ele>
        <time>2024-07-01T10:24:03Z</time>
      </trkpt>
      <trkpt lat="44.85794" lon="5.19299">
        <ele>794</ele>
        <time>2024-07-01T10:24:04Z</time>
      </trkpt>
      <trkpt lat="44.85793" lon="5.19299">
        <ele>794</ele>
        <time>2024-07-01T10:24:05Z</time>
      </trkpt>
      <trkpt lat="44.85792" lon="5.193">
        <ele>794</ele>
        <time>2024-07-01T10:24:06Z</time>
      </trkpt>
      <trkpt lat="44.85791" lon="5.19301">
        <ele>794</ele>
        <time>2024-07-01T10:24:07Z</time>
      </trkpt>
      <trkpt lat="44.8579" lon="5.19301">
        <ele>794</ele>
        <time>2024-07-01T10:24:08Z</time>
      </trkpt>
      <trkpt lat="44.85789" lon="5.19302">
        <ele>794.1</ele>
        <time>2024-07-01T10:24:09Z</time>
      </trkpt>
      <trkpt lat="44.85788" lon="5.19303">
        <ele>794.1</ele>
        <time>2024-07-01T10:24:10Z</time>
      </trkpt>
      <trkpt lat="44.85787" lon="5.19303">
        <ele>794.1</ele>
        <time>2024-07-01T10:24:11Z</time>
      </trkpt>
      <trkpt lat="44.85785" lon="5.19305">
        <ele>794.1</ele>
        <time>2024-07-01T10:24:12Z</time>
      </trkpt>
      <trkpt lat="44.85784" lon="5.19306">
        <ele>794.1</ele>
        <time>2024-07-01T10:24:14Z</time>
      </trkpt>
      <trkpt lat="44.85783" lon="5.19307">
        <ele>794.1</ele>
        <time>2024-07-01T10:24:15Z</time>
      </trkpt>
      <trkpt lat="44.85782" lon="5.19308">
        <ele>794.1</ele>
        <time>2024-07-01T10:24:17Z</time>
      </trkpt>
      <trkpt lat="44.85781" lon="5.19308">
        <ele>794.1</ele>
        <time>2024-07-01T10:24:18Z</time>
      </trkpt>
      <trkpt lat="44.8578" lon="5.19309">
        <ele>794.2</ele>
        <time>2024-07-01T10:24:19Z</time>
      </trkpt>
      <trkpt lat="44.85779" lon="5.19309">
        <ele>794.2</ele>
        <time>2024-07-01T10:24:20Z</time>
      </trkpt>
      <trkpt lat="44.85778" lon="5.1931">
        <ele>794.2</ele>
        <time>2024-07-01T10:24:21Z</time>
      </trkpt>
      <trkpt lat="44.85776" lon="5.19312">
        <ele>794.2</ele>
        <time>2024-07-01T10:24:22Z</time>
      </trkpt>
      <trkpt lat="44.85776" lon="5.19313">
        <ele>794.2</ele>
        <time>2024-07-01T10:24:23Z</time>
      </trkpt>
      <trkpt lat="44.85775" lon="5.19313">
        <ele>794.2</ele>
        <time>2024-07-01T10:24:25Z</time>
      </trkpt>
      <trkpt lat="44.85773" lon="5.19314">
        <ele>794.2</ele>
        <time>2024-07-01T10:24:26Z</time>
      </trkpt>
      <trkpt lat="44.85772" lon="5.19313">
        <ele>794.2</ele>
        <time>2024-07-01T10:24:27Z</time>
      </trkpt>
      <trkpt lat="44.8577" lon="5.19314">
        <ele>794.2</ele>
        <time>2024-07-01T10:24:29Z</time>
      </trkpt>
      <trkpt lat="44.85769" lon="5.19314">
        <ele>794.2</ele>
        <time>2024-07-01T10:24:30Z</time>
      </trkpt>
      <trkpt lat="44.85767" lon="5.19315">
        <ele>794.1</ele>
        <time>2024-07-01T10:24:31Z</time>
      </trkpt>
      <trkpt lat="44.85767" lon="5.19315">
        <ele>794.1</ele>
        <time>2024-07-01T10:24:32Z</time>
      </trkpt>
      <trkpt lat="44.85766" lon="5.19316">
        <ele>794.1</ele>
        <time>2024-07-01T10:24:33Z</time>
      </trkpt>
      <trkpt lat="44.85764" lon="5.19317">
        <ele>794</ele>
        <time>2024-07-01T10:24:34Z</time>
      </trkpt>
      <trkpt lat="44.85762" lon="5.19317">
        <ele>794</ele>
        <time>2024-07-01T10:24:36Z</time>
      </trkpt>
      <trkpt lat="44.8576" lon="5.19318">
        <ele>793.9</ele>
        <time>2024-07-01T10:24:37Z</time>
      </trkpt>
      <trkpt lat="44.85759" lon="5.19319">
        <ele>793.9</ele>
        <time>2024-07-01T10:24:38Z</time>
      </trkpt>
      <trkpt lat="44.85758" lon="5.1932">
        <ele>793.8</ele>
        <time>2024-07-01T10:24:39Z</time>
      </trkpt>
      <trkpt lat="44.85756" lon="5.19321">
        <ele>793.8</ele>
        <time>2024-07-01T10:24:41Z</time>
      </trkpt>
      <trkpt lat="44.85756" lon="5.19321">
        <ele>793.8</ele>
        <time>2024-07-01T10:24:42Z</time>
      </trkpt>
      <trkpt lat="44.85753" lon="5.19323">
        <ele>793.7</ele>
        <time>2024-07-01T10:24:43Z</time>
      </trkpt>
      <trkpt lat="44.85752" lon="5.19323">
        <ele>793.6</ele>
        <time>2024-07-01T10:24:44Z</time>
      </trkpt>
      <trkpt lat="44.85751" lon="5.19324">
        <ele>793.6</ele>
        <time>2024-07-01T10:24:45Z</time>
      </trkpt>
      <trkpt lat="44.8575" lon="5.19325">
        <ele>793.6</ele>
        <time>2024-07-01T10:24:46Z</time>
      </trkpt>
      <trkpt lat="44.85749" lon="5.19326">
        <ele>793.5</ele>
        <time>2024-07-01T10:24:48Z</time>
      </trkpt>
      <trkpt lat="44.85748" lon="5.19327">
        <ele>793.5</ele>
        <time>2024-07-01T10:24:49Z</time>
      </trkpt>
      <trkpt lat="44.85747" lon="5.19328">
        <ele>793.4</ele>
        <time>2024-07-01T10:24:50Z</time>
      </trkpt>
      <trkpt lat="44.85746" lon="5.19329">
        <ele>793.4</ele>
        <time>2024-07-01T10:24:51Z</time>
      </trkpt>
      <trkpt lat="44.85744" lon="5.1933">
        <ele>793.3</ele>
        <time>2024-07-01T10:24:52Z</time>
      </trkpt>
      <trkpt lat="44.85743" lon="5.1933">
        <ele>793.3</ele>
        <time>2024-07-01T10:24:53Z</time>
      </trkpt>
      <trkpt lat="44.85742" lon="5.19331">
        <ele>793.3</ele>
        <time>2024-07-01T10:24:54Z</time>
      </trkpt>
      <trkpt lat="44.85742" lon="5.19332">
        <ele>793.3</ele>
        <time>2024-07-01T10:24:55Z</time>
      </trkpt>
      <trkpt lat="44.85741" lon="5.19334">
        <ele>793.2</ele>
        <time>2024-07-01T10:24:56Z</time>
      </trkpt>
      <trkpt lat="44.85741" lon="5.19335">
        <ele>793.2</ele>
        <time>2024-07-01T10:24:57Z</time>
      </trkpt>
      <trkpt lat="44.8574" lon="5.19337">
        <ele>793.2</ele>
        <time>2024-07-01T10:24:58Z</time>
      </trkpt>
      <trkpt lat="44.85739" lon="5.19338">
        <ele>793.2</ele>
        <time>2024-07-01T10:24:59Z</time>
      </trkpt>
      <trkpt lat="44.85738" lon="5.19338">
        <ele>793.1</ele>
        <time>2024-07-01T10:25:00Z</time>
      </trkpt>
      <trkpt lat="44.85737" lon="5.19339">
        <ele>793.1</ele>
        <time>2024-07-01T10:25:01Z</time>
      </trkpt>
      <trkpt lat="44.85735" lon="5.1934">
        <ele>793.1</ele>
        <time>2024-07-01T10:25:02Z</time>
      </trkpt>
      <trkpt lat="44.85734" lon="5.1934">
        <ele>793.1</ele>
        <time>2024-07-01T10:25:03Z</time>
      </trkpt>
      <trkpt lat="44.85733" lon="5.1934">
        <ele>793</ele>
        <time>2024-07-01T10:25:04Z</time>
      </trkpt>
      <trkpt lat="44.85732" lon="5.19341">
        <ele>793</ele>
        <time>2024-07-01T10:25:05Z</time>
      </trkpt>
      <trkpt lat="44.8573" lon="5.19342">
        <ele>793</ele>
        <time>2024-07-01T10:25:06Z</time>
      </trkpt>
      <trkpt lat="44.85729" lon="5.19343">
        <ele>793</ele>
        <time>2024-07-01T10:25:07Z</time>
      </trkpt>
      <trkpt lat="44.85728" lon="5.19343">
        <ele>792.9</ele>
        <time>2024-07-01T10:25:08Z</time>
      </trkpt>
      <trkpt lat="44.85727" lon="5.19344">
        <ele>792.9</ele>
        <time>2024-07-01T10:25:09Z</time>
      </trkpt>
      <trkpt lat="44.85725" lon="5.19344">
        <ele>792.9</ele>
        <time>2024-07-01T10:25:11Z</time>
      </trkpt>
      <trkpt lat="44.85724" lon="5.19345">
        <ele>792.8</ele>
        <time>2024-07-01T10:25:12Z</time>
      </trkpt>
      <trkpt lat="44.85723" lon="5.19346">
        <ele>792.8</ele>
        <time>2024-07-01T10:25:13Z</time>
      </trkpt>
      <trkpt lat="44.85722" lon="5.19346">
        <ele>792.8</ele>
        <time>2024-07-01T10:25:14Z</time>
      </trkpt>
      <trkpt lat="44.85721" lon="5.19347">
        <ele>792.7</ele>
        <time>2024-07-01T10:25:15Z</time>
      </trkpt>
      <trkpt lat="44.85719" lon="5.19348">
        <ele>792.7</ele>
        <time>2024-07-01T10:25:16Z</time>
      </trkpt>
      <trkpt lat="44.85716" lon="5.19349">
        <ele>792.6</ele>
        <time>2024-07-01T10:25:18Z</time>
      </trkpt>
      <trkpt lat="44.85715" lon="5.1935">
        <ele>792.6</ele>
        <time>2024-07-01T10:25:20Z</time>
      </trkpt>
      <trkpt lat="44.85714" lon="5.19351">
        <ele>792.5</ele>
        <time>2024-07-01T10:25:21Z</time>
      </trkpt>
      <trkpt lat="44.85713" lon="5.19352">
        <ele>792.5</ele>
        <time>2024-07-01T10:25:22Z</time>
      </trkpt>
      <trkpt lat="44.85712" lon="5.19352">
        <ele>792.5</ele>
        <time>2024-07-01T10:25:23Z</time>
      </trkpt>
      <trkpt lat="44.8571" lon="5.19352">
        <ele>792.4</ele>
        <time>2024-07-01T10:25:24Z</time>
      </trkpt>
      <trkpt lat="44.85708" lon="5.19352">
        <ele>792.4</ele>
        <time>2024-07-01T10:25:26Z</time>
      </trkpt>
      <trkpt lat="44.85707" lon="5.19353">
        <ele>792.3</ele>
        <time>2024-07-01T10:25:27Z</time>
      </trkpt>
      <trkpt lat="44.85706" lon="5.19353">
        <ele>792.3</ele>
        <time>2024-07-01T10:25:28Z</time>
      </trkpt>
      <trkpt lat="44.85704" lon="5.19354">
        <ele>792.3</ele>
        <time>2024-07-01T10:25:29Z</time>
      </trkpt>
      <trkpt lat="44.85703" lon="5.19354">
        <ele>792.3</ele>
        <time>2024-07-01T10:25:31Z</time>
      </trkpt>
      <trkpt lat="44.85702" lon="5.19354">
        <ele>792.3</ele>
        <time>2024-07-01T10:25:32Z</time>
      </trkpt>
      <trkpt lat="44.85701" lon="5.19354">
        <ele>792.2</ele>
        <time>2024-07-01T10:25:33Z</time>
      </trkpt>
      <trkpt lat="44.857" lon="5.19354">
        <ele>792.2</ele>
        <time>2024-07-01T10:25:34Z</time>
      </trkpt>
      <trkpt lat="44.85698" lon="5.19354">
        <ele>792.2</ele>
        <time>2024-07-01T10:25:35Z</time>
      </trkpt>
      <trkpt lat="44.85697" lon="5.19354">
        <ele>792.2</ele>
        <time>2024-07-01T10:25:36Z</time>
      </trkpt>
      <trkpt lat="44.85696" lon="5.19355">
        <ele>792.2</ele>
        <time>2024-07-01T10:25:37Z</time>
      </trkpt>
      <trkpt lat="44.85694" lon="5.19356">
        <ele>792.2</ele>
        <time>2024-07-01T10:25:38Z</time>
      </trkpt>
      <trkpt lat="44.85693" lon="5.19357">
        <ele>792.2</ele>
        <time>2024-07-01T10:25:40Z</time>
      </trkpt>
      <trkpt lat="44.85692" lon="5.19361">
        <ele>792.1</ele>
        <time>2024-07-01T10:25:41Z</time>
      </trkpt>
      <trkpt lat="44.85691" lon="5.19364">
        <ele>792.1</ele>
        <time>2024-07-01T10:25:43Z</time>
      </trkpt>
      <trkpt lat="44.85692" lon="5.19366">
        <ele>792.1</ele>
        <time>2024-07-01T10:25:44Z</time>
      </trkpt>
      <trkpt lat="44.85692" lon="5.19369">
        <ele>792.1</ele>
        <time>2024-07-01T10:25:45Z</time>
      </trkpt>
      <trkpt lat="44.85692" lon="5.1937">
        <ele>792.1</ele>
        <time>2024-07-01T10:25:46Z</time>
      </trkpt>
      <trkpt lat="44.85692" lon="5.19372">
        <ele>792.1</ele>
        <time>2024-07-01T10:25:47Z</time>
      </trkpt>
      <trkpt lat="44.85691" lon="5.19374">
        <ele>792</ele>
        <time>2024-07-01T10:25:48Z</time>
      </trkpt>
      <trkpt lat="44.8569" lon="5.19378">
        <ele>792</ele>
        <time>2024-07-01T10:25:49Z</time>
      </trkpt>
      <trkpt lat="44.8569" lon="5.19379">
        <ele>792</ele>
        <time>2024-07-01T10:25:50Z</time>
      </trkpt>
      <trkpt lat="44.85689" lon="5.19381">
        <ele>792</ele>
        <time>2024-07-01T10:25:52Z</time>
      </trkpt>
      <trkpt lat="44.85688" lon="5.19382">
        <ele>791.9</ele>
        <time>2024-07-01T10:25:53Z</time>
      </trkpt>
      <trkpt lat="44.85686" lon="5.19384">
        <ele>791.9</ele>
        <time>2024-07-01T10:25:54Z</time>
      </trkpt>
      <trkpt lat="44.85685" lon="5.19384">
        <ele>791.9</ele>
        <time>2024-07-01T10:25:55Z</time>
      </trkpt>
      <trkpt lat="44.85685" lon="5.19385">
        <ele>791.9</ele>
        <time>2024-07-01T10:25:56Z</time>
      </trkpt>
      <trkpt lat="44.85684" lon="5.19385">
        <ele>791.9</ele>
        <time>2024-07-01T10:25:57Z</time>
      </trkpt>
      <trkpt lat="44.85683" lon="5.19386">
        <ele>791.8</ele>
        <time>2024-07-01T10:25:58Z</time>
      </trkpt>
      <trkpt lat="44.85682" lon="5.19386">
        <ele>791.8</ele>
        <time>2024-07-01T10:25:59Z</time>
      </trkpt>
      <trkpt lat="44.85679" lon="5.19386">
        <ele>791.8</ele>
        <time>2024-07-01T10:26:00Z</time>
      </trkpt>
      <trkpt lat="44.85679" lon="5.19386">
        <ele>791.8</ele>
        <time>2024-07-01T10:26:01Z</time>
      </trkpt>
      <trkpt lat="44.85678" lon="5.19386">
        <ele>791.7</ele>
        <time>2024-07-01T10:26:02Z</time>
      </trkpt>
      <trkpt lat="44.85676" lon="5.19386">
        <ele>791.7</ele>
        <time>2024-07-01T10:26:03Z</time>
      </trkpt>
      <trkpt lat="44.85675" lon="5.19386">
        <ele>791.7</ele>
        <time>2024-07-01T10:26:04Z</time>
      </trkpt>
      <trkpt lat="44.85674" lon="5.19386">
        <ele>791.7</ele>
        <time>2024-07-01T10:26:05Z</time>
      </trkpt>
      <trkpt lat="44.85671" lon="5.19386">
        <ele>791.6</ele>
        <time>2024-07-01T10:26:06Z</time>
      </trkpt>
      <trkpt lat="44.8567" lon="5.19386">
        <ele>791.5</ele>
        <time>2024-07-01T10:26:07Z</time>
      </trkpt>
      <trkpt lat="44.85668" lon="5.19385">
        <ele>791.5</ele>
        <time>2024-07-01T10:26:09Z</time>
      </trkpt>
      <trkpt lat="44.85667" lon="5.19385">
        <ele>791.4</ele>
        <time>2024-07-01T10:26:10Z</time>
      </trkpt>
      <trkpt lat="44.85666" lon="5.19385">
        <ele>791.4</ele>
        <time>2024-07-01T10:26:11Z</time>
      </trkpt>
      <trkpt lat="44.85665" lon="5.19385">
        <ele>791.3</ele>
        <time>2024-07-01T10:26:12Z</time>
      </trkpt>
      <trkpt lat="44.85663" lon="5.19385">
        <ele>791.2</ele>
        <time>2024-07-01T10:26:13Z</time>
      </trkpt>
      <trkpt lat="44.8566" lon="5.19385">
        <ele>791.1</ele>
        <time>2024-07-01T10:26:14Z</time>
      </trkpt>
      <trkpt lat="44.85659" lon="5.19385">
        <ele>791.1</ele>
        <time>2024-07-01T10:26:15Z</time>
      </trkpt>
      <trkpt lat="44.85657" lon="5.19385">
        <ele>791</ele>
        <time>2024-07-01T10:26:17Z</time>
      </trkpt>
      <trkpt lat="44.85656" lon="5.19385">
        <ele>790.9</ele>
        <time>2024-07-01T10:26:18Z</time>
      </trkpt>
      <trkpt lat="44.85653" lon="5.19386">
        <ele>790.7</ele>
        <time>2024-07-01T10:26:19Z</time>
      </trkpt>
      <trkpt lat="44.85651" lon="5.19386">
        <ele>790.6</ele>
        <time>2024-07-01T10:26:20Z</time>
      </trkpt>
      <trkpt lat="44.8565" lon="5.19386">
        <ele>790.5</ele>
        <time>2024-07-01T10:26:22Z</time>
      </trkpt>
      <trkpt lat="44.85648" lon="5.19386">
        <ele>790.4</ele>
        <time>2024-07-01T10:26:23Z</time>
      </trkpt>
      <trkpt lat="44.85647" lon="5.19386">
        <ele>790.4</ele>
        <time>2024-07-01T10:26:24Z</time>
      </trkpt>
      <trkpt lat="44.85644" lon="5.19387">
        <ele>790.1</ele>
        <time>2024-07-01T10:26:25Z</time>
      </trkpt>
      <trkpt lat="44.85643" lon="5.19388">
        <ele>790.1</ele>
        <time>2024-07-01T10:26:26Z</time>
      </trkpt>
      <trkpt lat="44.85642" lon="5.19388">
        <ele>790</ele>
        <time>2024-07-01T10:26:27Z</time>
      </trkpt>
      <trkpt lat="44.8564" lon="5.19389">
        <ele>789.9</ele>
        <time>2024-07-01T10:26:29Z</time>
      </trkpt>
      <trkpt lat="44.85638" lon="5.19389">
        <ele>789.7</ele>
        <time>2024-07-01T10:26:30Z</time>
      </trkpt>
      <trkpt lat="44.85635" lon="5.1939">
        <ele>789.5</ele>
        <time>2024-07-01T10:26:32Z</time>
      </trkpt>
      <trkpt lat="44.85632" lon="5.19391">
        <ele>789.3</ele>
        <time>2024-07-01T10:26:34Z</time>
      </trkpt>
      <trkpt lat="44.85631" lon="5.19391">
        <ele>789.2</ele>
        <time>2024-07-01T10:26:35Z</time>
      </trkpt>
      <trkpt lat="44.85629" lon="5.19391">
        <ele>789.1</ele>
        <time>2024-07-01T10:26:36Z</time>
      </trkpt>
      <trkpt lat="44.85628" lon="5.19392">
        <ele>789</ele>
        <time>2024-07-01T10:26:37Z</time>
      </trkpt>
      <trkpt lat="44.85627" lon="5.19392">
        <ele>788.8</ele>
        <time>2024-07-01T10:26:39Z</time>
      </trkpt>
      <trkpt lat="44.85625" lon="5.19392">
        <ele>788.7</ele>
        <time>2024-07-01T10:26:40Z</time>
      </trkpt>
      <trkpt lat="44.85622" lon="5.19393">
        <ele>788.5</ele>
        <time>2024-07-01T10:26:41Z</time>
      </trkpt>
      <trkpt lat="44.8562" lon="5.19394">
        <ele>788.4</ele>
        <time>2024-07-01T10:26:43Z</time>
      </trkpt>
      <trkpt lat="44.85619" lon="5.19394">
        <ele>788.3</ele>
        <time>2024-07-01T10:26:44Z</time>
      </trkpt>
      <trkpt lat="44.85618" lon="5.19394">
        <ele>788.2</ele>
        <time>2024-07-01T10:26:45Z</time>
      </trkpt>
      <trkpt lat="44.85617" lon="5.19395">
        <ele>788.2</ele>
        <time>2024-07-01T10:26:46Z</time>
      </trkpt>
      <trkpt lat="44.85615" lon="5.19396">
        <ele>788.1</ele>
        <time>2024-07-01T10:26:47Z</time>
      </trkpt>
      <trkpt lat="44.85614" lon="5.19396">
        <ele>788</ele>
        <time>2024-07-01T10:26:48Z</time>
      </trkpt>
      <trkpt lat="44.85613" lon="5.19396">
        <ele>788</ele>
        <time>2024-07-01T10:26:49Z</time>
      </trkpt>
      <trkpt lat="44.85612" lon="5.19397">
        <ele>788</ele>
        <time>2024-07-01T10:26:50Z</time>
      </trkpt>
      <trkpt lat="44.85611" lon="5.19397">
        <ele>787.9</ele>
        <time>2024-07-01T10:26:51Z</time>
      </trkpt>
      <trkpt lat="44.8561" lon="5.19397">
        <ele>787.9</ele>
        <time>2024-07-01T10:26:52Z</time>
      </trkpt>
      <trkpt lat="44.85609" lon="5.19397">
        <ele>787.8</ele>
        <time>2024-07-01T10:26:53Z</time>
      </trkpt>
      <trkpt lat="44.85607" lon="5.19398">
        <ele>787.8</ele>
        <time>2024-07-01T10:26:54Z</time>
      </trkpt>
      <trkpt lat="44.85606" lon="5.19398">
        <ele>787.7</ele>
        <time>2024-07-01T10:26:55Z</time>
      </trkpt>
      <trkpt lat="44.85605" lon="5.19399">
        <ele>787.7</ele>
        <time>2024-07-01T10:26:56Z</time>
      </trkpt>
      <trkpt lat="44.85603" lon="5.19399">
        <ele>787.6</ele>
        <time>2024-07-01T10:26:57Z</time>
      </trkpt>
      <trkpt lat="44.85602" lon="5.19399">
        <ele>787.5</ele>
        <time>2024-07-01T10:26:59Z</time>
      </trkpt>
      <trkpt lat="44.85601" lon="5.19399">
        <ele>787.5</ele>
        <time>2024-07-01T10:27:00Z</time>
      </trkpt>
      <trkpt lat="44.85598" lon="5.194">
        <ele>787.4</ele>
        <time>2024-07-01T10:27:01Z</time>
      </trkpt>
      <trkpt lat="44.85597" lon="5.194">
        <ele>787.4</ele>
        <time>2024-07-01T10:27:03Z</time>
      </trkpt>
      <trkpt lat="44.85596" lon="5.194">
        <ele>787.3</ele>
        <time>2024-07-01T10:27:04Z</time>
      </trkpt>
      <trkpt lat="44.85595" lon="5.194">
        <ele>787.3</ele>
        <time>2024-07-01T10:27:05Z</time>
      </trkpt>
      <trkpt lat="44.85594" lon="5.194">
        <ele>787.2</ele>
        <time>2024-07-01T10:27:06Z</time>
      </trkpt>
      <trkpt lat="44.85593" lon="5.19401">
        <ele>787.1</ele>
        <time>2024-07-01T10:27:07Z</time>
      </trkpt>
      <trkpt lat="44.85591" lon="5.19402">
        <ele>787</ele>
        <time>2024-07-01T10:27:08Z</time>
      </trkpt>
      <trkpt lat="44.8559" lon="5.19402">
        <ele>787</ele>
        <time>2024-07-01T10:27:10Z</time>
      </trkpt>
      <trkpt lat="44.85587" lon="5.19404">
        <ele>786.8</ele>
        <time>2024-07-01T10:27:11Z</time>
      </trkpt>
      <trkpt lat="44.85586" lon="5.19405">
        <ele>786.8</ele>
        <time>2024-07-01T10:27:12Z</time>
      </trkpt>
      <trkpt lat="44.85584" lon="5.19406">
        <ele>786.6</ele>
        <time>2024-07-01T10:27:14Z</time>
      </trkpt>
      <trkpt lat="44.85583" lon="5.19406">
        <ele>786.6</ele>
        <time>2024-07-01T10:27:15Z</time>
      </trkpt>
      <trkpt lat="44.85583" lon="5.19407">
        <ele>786.6</ele>
        <time>2024-07-01T10:27:16Z</time>
      </trkpt>
      <trkpt lat="44.85581" lon="5.19407">
        <ele>786.5</ele>
        <time>2024-07-01T10:27:17Z</time>
      </trkpt>
      <trkpt lat="44.85579" lon="5.19408">
        <ele>786.3</ele>
        <time>2024-07-01T10:27:18Z</time>
      </trkpt>
      <trkpt lat="44.85578" lon="5.19409">
        <ele>786.2</ele>
        <time>2024-07-01T10:27:19Z</time>
      </trkpt>
      <trkpt lat="44.85576" lon="5.1941">
        <ele>786.2</ele>
        <time>2024-07-01T10:27:21Z</time>
      </trkpt>
      <trkpt lat="44.85574" lon="5.1941">
        <ele>786</ele>
        <time>2024-07-01T10:27:22Z</time>
      </trkpt>
      <trkpt lat="44.85573" lon="5.19411">
        <ele>785.9</ele>
        <time>2024-07-01T10:27:23Z</time>
      </trkpt>
      <trkpt lat="44.85571" lon="5.19411">
        <ele>785.9</ele>
        <time>2024-07-01T10:27:24Z</time>
      </trkpt>
      <trkpt lat="44.8557" lon="5.19412">
        <ele>785.8</ele>
        <time>2024-07-01T10:27:26Z</time>
      </trkpt>
      <trkpt lat="44.85569" lon="5.19412">
        <ele>785.7</ele>
        <time>2024-07-01T10:27:27Z</time>
      </trkpt>
      <trkpt lat="44.85568" lon="5.19413">
        <ele>785.7</ele>
        <time>2024-07-01T10:27:28Z</time>
      </trkpt>
      <trkpt lat="44.85567" lon="5.19413">
        <ele>785.6</ele>
        <time>2024-07-01T10:27:29Z</time>
      </trkpt>
      <trkpt lat="44.85566" lon="5.19414">
        <ele>785.5</ele>
        <time>2024-07-01T10:27:30Z</time>
      </trkpt>
      <trkpt lat="44.85563" lon="5.19415">
        <ele>785.3</ele>
        <time>2024-07-01T10:27:31Z</time>
      </trkpt>
      <trkpt lat="44.85561" lon="5.19416">
        <ele>785.3</ele>
        <time>2024-07-01T10:27:33Z</time>
      </trkpt>
      <trkpt lat="44.8556" lon="5.19417">
        <ele>785.2</ele>
        <time>2024-07-01T10:27:34Z</time>
      </trkpt>
      <trkpt lat="44.85559" lon="5.19417">
        <ele>785.1</ele>
        <time>2024-07-01T10:27:35Z</time>
      </trkpt>
      <trkpt lat="44.85557" lon="5.19418">
        <ele>785</ele>
        <time>2024-07-01T10:27:37Z</time>
      </trkpt>
      <trkpt lat="44.85556" lon="5.19419">
        <ele>785</ele>
        <time>2024-07-01T10:27:38Z</time>
      </trkpt>
      <trkpt lat="44.85555" lon="5.1942">
        <ele>784.9</ele>
        <time>2024-07-01T10:27:39Z</time>
      </trkpt>
      <trkpt lat="44.85554" lon="5.1942">
        <ele>784.8</ele>
        <time>2024-07-01T10:27:40Z</time>
      </trkpt>
      <trkpt lat="44.85553" lon="5.19419">
        <ele>784.8</ele>
        <time>2024-07-01T10:27:41Z</time>
      </trkpt>
      <trkpt lat="44.85551" lon="5.19421">
        <ele>784.6</ele>
        <time>2024-07-01T10:27:42Z</time>
      </trkpt>
      <trkpt lat="44.8555" lon="5.19421">
        <ele>784.6</ele>
        <time>2024-07-01T10:27:43Z</time>
      </trkpt>
      <trkpt lat="44.85549" lon="5.19421">
        <ele>784.5</ele>
        <time>2024-07-01T10:27:45Z</time>
      </trkpt>
      <trkpt lat="44.85547" lon="5.1942">
        <ele>784.4</ele>
        <time>2024-07-01T10:27:46Z</time>
      </trkpt>
      <trkpt lat="44.85545" lon="5.1942">
        <ele>784.3</ele>
        <time>2024-07-01T10:27:48Z</time>
      </trkpt>
      <trkpt lat="44.85544" lon="5.1942">
        <ele>784.2</ele>
        <time>2024-07-01T10:27:49Z</time>
      </trkpt>
      <trkpt lat="44.85543" lon="5.1942">
        <ele>784.2</ele>
        <time>2024-07-01T10:27:50Z</time>
      </trkpt>
      <trkpt lat="44.85541" lon="5.19423">
        <ele>784</ele>
        <time>2024-07-01T10:27:51Z</time>
      </trkpt>
      <trkpt lat="44.8554" lon="5.19424">
        <ele>783.9</ele>
        <time>2024-07-01T10:27:52Z</time>
      </trkpt>
      <trkpt lat="44.85539" lon="5.19425">
        <ele>783.9</ele>
        <time>2024-07-01T10:27:53Z</time>
      </trkpt>
      <trkpt lat="44.85538" lon="5.19426">
        <ele>783.8</ele>
        <time>2024-07-01T10:27:54Z</time>
      </trkpt>
      <trkpt lat="44.85536" lon="5.19428">
        <ele>783.7</ele>
        <time>2024-07-01T10:27:56Z</time>
      </trkpt>
      <trkpt lat="44.85535" lon="5.19429">
        <ele>783.6</ele>
        <time>2024-07-01T10:27:57Z</time>
      </trkpt>
      <trkpt lat="44.85533" lon="5.19431">
        <ele>783.5</ele>
        <time>2024-07-01T10:27:59Z</time>
      </trkpt>
      <trkpt lat="44.85532" lon="5.19432">
        <ele>783.4</ele>
        <time>2024-07-01T10:28:00Z</time>
      </trkpt>
      <trkpt lat="44.85532" lon="5.19433">
        <ele>783.4</ele>
        <time>2024-07-01T10:28:01Z</time>
      </trkpt>
      <trkpt lat="44.85531" lon="5.19434">
        <ele>783.3</ele>
        <time>2024-07-01T10:28:02Z</time>
      </trkpt>
      <trkpt lat="44.85528" lon="5.19437">
        <ele>783.1</ele>
        <time>2024-07-01T10:28:03Z</time>
      </trkpt>
      <trkpt lat="44.85528" lon="5.19438">
        <ele>783</ele>
        <time>2024-07-01T10:28:04Z</time>
      </trkpt>
      <trkpt lat="44.85527" lon="5.19439">
        <ele>783</ele>
        <time>2024-07-01T10:28:06Z</time>
      </trkpt>
      <trkpt lat="44.85525" lon="5.19441">
        <ele>782.9</ele>
        <time>2024-07-01T10:28:07Z</time>
      </trkpt>
      <trkpt lat="44.85524" lon="5.19443">
        <ele>782.8</ele>
        <time>2024-07-01T10:28:09Z</time>
      </trkpt>
      <trkpt lat="44.85524" lon="5.19443">
        <ele>782.8</ele>
        <time>2024-07-01T10:28:10Z</time>
      </trkpt>
      <trkpt lat="44.85523" lon="5.19444">
        <ele>782.7</ele>
        <time>2024-07-01T10:28:11Z</time>
      </trkpt>
      <trkpt lat="44.85522" lon="5.19445">
        <ele>782.7</ele>
        <time>2024-07-01T10:28:12Z</time>
      </trkpt>
      <trkpt lat="44.8552" lon="5.19446">
        <ele>782.6</ele>
        <time>2024-07-01T10:28:13Z</time>
      </trkpt>
      <trkpt lat="44.85519" lon="5.19447">
        <ele>782.5</ele>
        <time>2024-07-01T10:28:14Z</time>
      </trkpt>
      <trkpt lat="44.85518" lon="5.19447">
        <ele>782.5</ele>
        <time>2024-07-01T10:28:16Z</time>
      </trkpt>
      <trkpt lat="44.85516" lon="5.19449">
        <ele>782.4</ele>
        <time>2024-07-01T10:28:17Z</time>
      </trkpt>
      <trkpt lat="44.85516" lon="5.19449">
        <ele>782.3</ele>
        <time>2024-07-01T10:28:19Z</time>
      </trkpt>
      <trkpt lat="44.85515" lon="5.1945">
        <ele>782.3</ele>
        <time>2024-07-01T10:28:20Z</time>
      </trkpt>
      <trkpt lat="44.85513" lon="5.1945">
        <ele>782.2</ele>
        <time>2024-07-01T10:28:21Z</time>
      </trkpt>
      <trkpt lat="44.85512" lon="5.19451">
        <ele>782.2</ele>
        <time>2024-07-01T10:28:22Z</time>
      </trkpt>
      <trkpt lat="44.8551" lon="5.19452">
        <ele>782</ele>
        <time>2024-07-01T10:28:23Z</time>
      </trkpt>
      <trkpt lat="44.85509" lon="5.19453">
        <ele>782</ele>
        <time>2024-07-01T10:28:25Z</time>
      </trkpt>
      <trkpt lat="44.85508" lon="5.19453">
        <ele>781.9</ele>
        <time>2024-07-01T10:28:26Z</time>
      </trkpt>
      <trkpt lat="44.85508" lon="5.19454">
        <ele>781.9</ele>
        <time>2024-07-01T10:28:27Z</time>
      </trkpt>
      <trkpt lat="44.85507" lon="5.19456">
        <ele>781.8</ele>
        <time>2024-07-01T10:28:28Z</time>
      </trkpt>
      <trkpt lat="44.85506" lon="5.19457">
        <ele>781.8</ele>
        <time>2024-07-01T10:28:29Z</time>
      </trkpt>
      <trkpt lat="44.85505" lon="5.19457">
        <ele>781.7</ele>
        <time>2024-07-01T10:28:30Z</time>
      </trkpt>
      <trkpt lat="44.85505" lon="5.19458">
        <ele>781.7</ele>
        <time>2024-07-01T10:28:31Z</time>
      </trkpt>
      <trkpt lat="44.85504" lon="5.19458">
        <ele>781.6</ele>
        <time>2024-07-01T10:28:32Z</time>
      </trkpt>
      <trkpt lat="44.85502" lon="5.19459">
        <ele>781.5</ele>
        <time>2024-07-01T10:28:33Z</time>
      </trkpt>
      <trkpt lat="44.85501" lon="5.19459">
        <ele>781.5</ele>
        <time>2024-07-01T10:28:34Z</time>
      </trkpt>
      <trkpt lat="44.85501" lon="5.19459">
        <ele>781.4</ele>
        <time>2024-07-01T10:28:36Z</time>
      </trkpt>
      <trkpt lat="44.855" lon="5.19458">
        <ele>781.4</ele>
        <time>2024-07-01T10:28:37Z</time>
      </trkpt>
      <trkpt lat="44.85499" lon="5.19457">
        <ele>781.3</ele>
        <time>2024-07-01T10:28:38Z</time>
      </trkpt>
      <trkpt lat="44.85497" lon="5.19456">
        <ele>781.2</ele>
        <time>2024-07-01T10:28:39Z</time>
      </trkpt>
      <trkpt lat="44.85496" lon="5.19454">
        <ele>781.1</ele>
        <time>2024-07-01T10:28:41Z</time>
      </trkpt>
      <trkpt lat="44.85495" lon="5.19454">
        <ele>781.1</ele>
        <time>2024-07-01T10:28:42Z</time>
      </trkpt>
      <trkpt lat="44.85494" lon="5.19453">
        <ele>781</ele>
        <time>2024-07-01T10:28:43Z</time>
      </trkpt>
      <trkpt lat="44.85493" lon="5.19452">
        <ele>781</ele>
        <time>2024-07-01T10:28:44Z</time>
      </trkpt>
      <trkpt lat="44.85492" lon="5.19451">
        <ele>780.9</ele>
        <time>2024-07-01T10:28:45Z</time>
      </trkpt>
      <trkpt lat="44.85492" lon="5.1945">
        <ele>780.8</ele>
        <time>2024-07-01T10:28:47Z</time>
      </trkpt>
      <trkpt lat="44.85492" lon="5.1945">
        <ele>780.8</ele>
        <time>2024-07-01T10:28:48Z</time>
      </trkpt>
      <trkpt lat="44.8549" lon="5.1945">
        <ele>780.8</ele>
        <time>2024-07-01T10:28:49Z</time>
      </trkpt>
      <trkpt lat="44.8549" lon="5.19452">
        <ele>780.7</ele>
        <time>2024-07-01T10:28:50Z</time>
      </trkpt>
      <trkpt lat="44.85489" lon="5.19453">
        <ele>780.6</ele>
        <time>2024-07-01T10:28:52Z</time>
      </trkpt>
      <trkpt lat="44.85488" lon="5.19454">
        <ele>780.6</ele>
        <time>2024-07-01T10:28:53Z</time>
      </trkpt>
      <trkpt lat="44.85487" lon="5.19454">
        <ele>780.5</ele>
        <time>2024-07-01T10:28:54Z</time>
      </trkpt>
      <trkpt lat="44.85487" lon="5.19454">
        <ele>780.5</ele>
        <time>2024-07-01T10:28:55Z</time>
      </trkpt>
      <trkpt lat="44.85485" lon="5.19454">
        <ele>780.4</ele>
        <time>2024-07-01T10:28:56Z</time>
      </trkpt>
      <trkpt lat="44.85484" lon="5.19454">
        <ele>780.4</ele>
        <time>2024-07-01T10:28:58Z</time>
      </trkpt>
      <trkpt lat="44.85483" lon="5.19454">
        <ele>780.3</ele>
        <time>2024-07-01T10:28:59Z</time>
      </trkpt>
      <trkpt lat="44.85483" lon="5.19455">
        <ele>780.3</ele>
        <time>2024-07-01T10:29:00Z</time>
      </trkpt>
      <trkpt lat="44.85482" lon="5.19455">
        <ele>780.3</ele>
        <time>2024-07-01T10:29:01Z</time>
      </trkpt>
      <trkpt lat="44.85481" lon="5.19455">
        <ele>780.2</ele>
        <time>2024-07-01T10:29:02Z</time>
      </trkpt>
      <trkpt lat="44.85478" lon="5.19455">
        <ele>780.1</ele>
        <time>2024-07-01T10:29:03Z</time>
      </trkpt>
      <trkpt lat="44.85478" lon="5.19456">
        <ele>780</ele>
        <time>2024-07-01T10:29:05Z</time>
      </trkpt>
      <trkpt lat="44.85477" lon="5.19456">
        <ele>780</ele>
        <time>2024-07-01T10:29:06Z</time>
      </trkpt>
      <trkpt lat="44.85476" lon="5.19456">
        <ele>779.9</ele>
        <time>2024-07-01T10:29:07Z</time>
      </trkpt>
      <trkpt lat="44.85474" lon="5.19457">
        <ele>779.8</ele>
        <time>2024-07-01T10:29:08Z</time>
      </trkpt>
      <trkpt lat="44.85472" lon="5.19457">
        <ele>779.8</ele>
        <time>2024-07-01T10:29:10Z</time>
      </trkpt>
      <trkpt lat="44.85472" lon="5.19458">
        <ele>779.7</ele>
        <time>2024-07-01T10:29:11Z</time>
      </trkpt>
      <trkpt lat="44.85471" lon="5.19458">
        <ele>779.7</ele>
        <time>2024-07-01T10:29:12Z</time>
      </trkpt>
      <trkpt lat="44.8547" lon="5.19459">
        <ele>779.6</ele>
        <time>2024-07-01T10:29:13Z</time>
      </trkpt>
      <trkpt lat="44.85469" lon="5.19459">
        <ele>779.6</ele>
        <time>2024-07-01T10:29:15Z</time>
      </trkpt>
      <trkpt lat="44.85468" lon="5.19459">
        <ele>779.5</ele>
        <time>2024-07-01T10:29:16Z</time>
      </trkpt>
      <trkpt lat="44.85467" lon="5.19459">
        <ele>779.5</ele>
        <time>2024-07-01T10:29:17Z</time>
      </trkpt>
      <trkpt lat="44.85465" lon="5.19461">
        <ele>779.4</ele>
        <time>2024-07-01T10:29:18Z</time>
      </trkpt>
      <trkpt lat="44.85463" lon="5.19461">
        <ele>779.3</ele>
        <time>2024-07-01T10:29:20Z</time>
      </trkpt>
      <trkpt lat="44.85463" lon="5.19462">
        <ele>779.2</ele>
        <time>2024-07-01T10:29:21Z</time>
      </trkpt>
      <trkpt lat="44.85461" lon="5.19462">
        <ele>779.2</ele>
        <time>2024-07-01T10:29:22Z</time>
      </trkpt>
      <trkpt lat="44.85459" lon="5.19463">
        <ele>779.1</ele>
        <time>2024-07-01T10:29:23Z</time>
      </trkpt>
      <trkpt lat="44.85458" lon="5.19464">
        <ele>779</ele>
        <time>2024-07-01T10:29:25Z</time>
      </trkpt>
      <trkpt lat="44.85458" lon="5.19464">
        <ele>779</ele>
        <time>2024-07-01T10:29:26Z</time>
      </trkpt>
      <trkpt lat="44.85457" lon="5.19465">
        <ele>779</ele>
        <time>2024-07-01T10:29:27Z</time>
      </trkpt>
      <trkpt lat="44.85455" lon="5.19466">
        <ele>778.9</ele>
        <time>2024-07-01T10:29:28Z</time>
      </trkpt>
      <trkpt lat="44.85454" lon="5.19466">
        <ele>778.8</ele>
        <time>2024-07-01T10:29:30Z</time>
      </trkpt>
      <trkpt lat="44.85453" lon="5.19467">
        <ele>778.8</ele>
        <time>2024-07-01T10:29:31Z</time>
      </trkpt>
      <trkpt lat="44.85452" lon="5.19467">
        <ele>778.7</ele>
        <time>2024-07-01T10:29:32Z</time>
      </trkpt>
      <trkpt lat="44.85452" lon="5.19468">
        <ele>778.7</ele>
        <time>2024-07-01T10:29:33Z</time>
      </trkpt>
      <trkpt lat="44.8545" lon="5.19468">
        <ele>778.6</ele>
        <time>2024-07-01T10:29:34Z</time>
      </trkpt>
      <trkpt lat="44.85449" lon="5.19469">
        <ele>778.6</ele>
        <time>2024-07-01T10:29:36Z</time>
      </trkpt>
      <trkpt lat="44.85448" lon="5.1947">
        <ele>778.5</ele>
        <time>2024-07-01T10:29:37Z</time>
      </trkpt>
      <trkpt lat="44.85447" lon="5.19471">
        <ele>778.5</ele>
        <time>2024-07-01T10:29:38Z</time>
      </trkpt>
      <trkpt lat="44.85446" lon="5.19472">
        <ele>778.4</ele>
        <time>2024-07-01T10:29:39Z</time>
      </trkpt>
      <trkpt lat="44.85445" lon="5.19473">
        <ele>778.4</ele>
        <time>2024-07-01T10:29:40Z</time>
      </trkpt>
      <trkpt lat="44.85445" lon="5.19473">
        <ele>778.3</ele>
        <time>2024-07-01T10:29:41Z</time>
      </trkpt>
      <trkpt lat="44.85443" lon="5.19475">
        <ele>778.3</ele>
        <time>2024-07-01T10:29:42Z</time>
      </trkpt>
      <trkpt lat="44.85442" lon="5.19476">
        <ele>778.2</ele>
        <time>2024-07-01T10:29:44Z</time>
      </trkpt>
      <trkpt lat="44.85441" lon="5.19476">
        <ele>778.2</ele>
        <time>2024-07-01T10:29:45Z</time>
      </trkpt>
      <trkpt lat="44.8544" lon="5.19477">
        <ele>778.1</ele>
        <time>2024-07-01T10:29:46Z</time>
      </trkpt>
      <trkpt lat="44.85438" lon="5.1948">
        <ele>778</ele>
        <time>2024-07-01T10:29:47Z</time>
      </trkpt>
      <trkpt lat="44.85437" lon="5.19481">
        <ele>778</ele>
        <time>2024-07-01T10:29:48Z</time>
      </trkpt>
      <trkpt lat="44.85436" lon="5.19483">
        <ele>777.9</ele>
        <time>2024-07-01T10:29:49Z</time>
      </trkpt>
      <trkpt lat="44.85436" lon="5.19486">
        <ele>777.9</ele>
        <time>2024-07-01T10:29:51Z</time>
      </trkpt>
      <trkpt lat="44.85435" lon="5.19487">
        <ele>777.8</ele>
        <time>2024-07-01T10:29:52Z</time>
      </trkpt>
      <trkpt lat="44.85435" lon="5.19488">
        <ele>777.8</ele>
        <time>2024-07-01T10:29:53Z</time>
      </trkpt>
      <trkpt lat="44.85434" lon="5.19489">
        <ele>777.8</ele>
        <time>2024-07-01T10:29:54Z</time>
      </trkpt>
      <trkpt lat="44.85434" lon="5.19491">
        <ele>777.7</ele>
        <time>2024-07-01T10:29:55Z</time>
      </trkpt>
      <trkpt lat="44.85434" lon="5.19493">
        <ele>777.7</ele>
        <time>2024-07-01T10:29:56Z</time>
      </trkpt>
      <trkpt lat="44.85434" lon="5.19494">
        <ele>777.6</ele>
        <time>2024-07-01T10:29:57Z</time>
      </trkpt>
      <trkpt lat="44.85435" lon="5.19495">
        <ele>777.6</ele>
        <time>2024-07-01T10:29:58Z</time>
      </trkpt>
      <trkpt lat="44.85434" lon="5.19496">
        <ele>777.6</ele>
        <time>2024-07-01T10:29:59Z</time>
      </trkpt>
      <trkpt lat="44.85433" lon="5.19496">
        <ele>777.5</ele>
        <time>2024-07-01T10:30:00Z</time>
      </trkpt>
      <trkpt lat="44.85432" lon="5.19497">
        <ele>777.5</ele>
        <time>2024-07-01T10:30:02Z</time>
      </trkpt>
      <trkpt lat="44.85431" lon="5.19498">
        <ele>777.5</ele>
        <time>2024-07-01T10:30:03Z</time>
      </trkpt>
      <trkpt lat="44.85431" lon="5.19498">
        <ele>777.5</ele>
        <time>2024-07-01T10:30:04Z</time>
      </trkpt>
      <trkpt lat="44.8543" lon="5.19499">
        <ele>777.4</ele>
        <time>2024-07-01T10:30:05Z</time>
      </trkpt>
      <trkpt lat="44.85429" lon="5.195">
        <ele>777.4</ele>
        <time>2024-07-01T10:30:06Z</time>
      </trkpt>
      <trkpt lat="44.85427" lon="5.19502">
        <ele>777.3</ele>
        <time>2024-07-01T10:30:07Z</time>
      </trkpt>
      <trkpt lat="44.85426" lon="5.19502">
        <ele>777.3</ele>
        <time>2024-07-01T10:30:08Z</time>
      </trkpt>
      <trkpt lat="44.85426" lon="5.19503">
        <ele>777.3</ele>
        <time>2024-07-01T10:30:09Z</time>
      </trkpt>
      <trkpt lat="44.85425" lon="5.19504">
        <ele>777.2</ele>
        <time>2024-07-01T10:30:10Z</time>
      </trkpt>
      <trkpt lat="44.85424" lon="5.19505">
        <ele>777.2</ele>
        <time>2024-07-01T10:30:11Z</time>
      </trkpt>
      <trkpt lat="44.85423" lon="5.19505">
        <ele>777.1</ele>
        <time>2024-07-01T10:30:12Z</time>
      </trkpt>
      <trkpt lat="44.85422" lon="5.19506">
        <ele>777.1</ele>
        <time>2024-07-01T10:30:13Z</time>
      </trkpt>
      <trkpt lat="44.85421" lon="5.19506">
        <ele>777.1</ele>
        <time>2024-07-01T10:30:14Z</time>
      </trkpt>
      <trkpt lat="44.8542" lon="5.19507">
        <ele>777</ele>
        <time>2024-07-01T10:30:15Z</time>
      </trkpt>
      <trkpt lat="44.85419" lon="5.19508">
        <ele>777</ele>
        <time>2024-07-01T10:30:16Z</time>
      </trkpt>
      <trkpt lat="44.85418" lon="5.19507">
        <ele>777</ele>
        <time>2024-07-01T10:30:17Z</time>
      </trkpt>
      <trkpt lat="44.85416" lon="5.19508">
        <ele>776.9</ele>
        <time>2024-07-01T10:30:18Z</time>
      </trkpt>
      <trkpt lat="44.85415" lon="5.19508">
        <ele>776.9</ele>
        <time>2024-07-01T10:30:19Z</time>
      </trkpt>
      <trkpt lat="44.85413" lon="5.19508">
        <ele>776.8</ele>
        <time>2024-07-01T10:30:20Z</time>
      </trkpt>
      <trkpt lat="44.8541" lon="5.19509">
        <ele>776.7</ele>
        <time>2024-07-01T10:30:21Z</time>
      </trkpt>
      <trkpt lat="44.85409" lon="5.19509">
        <ele>776.7</ele>
        <time>2024-07-01T10:30:22Z</time>
      </trkpt>
      <trkpt lat="44.85407" lon="5.19511">
        <ele>776.6</ele>
        <time>2024-07-01T10:30:23Z</time>
      </trkpt>
      <trkpt lat="44.85406" lon="5.19511">
        <ele>776.6</ele>
        <time>2024-07-01T10:30:24Z</time>
      </trkpt>
      <trkpt lat="44.85402" lon="5.19512">
        <ele>776.5</ele>
        <time>2024-07-01T10:30:25Z</time>
      </trkpt>
      <trkpt lat="44.854" lon="5.19512">
        <ele>776.4</ele>
        <time>2024-07-01T10:30:27Z</time>
      </trkpt>
      <trkpt lat="44.85399" lon="5.19512">
        <ele>776.3</ele>
        <time>2024-07-01T10:30:28Z</time>
      </trkpt>
      <trkpt lat="44.85397" lon="5.19512">
        <ele>776.3</ele>
        <time>2024-07-01T10:30:29Z</time>
      </trkpt>
      <trkpt lat="44.85394" lon="5.19513">
        <ele>776.1</ele>
        <time>2024-07-01T10:30:30Z</time>
      </trkpt>
      <trkpt lat="44.85391" lon="5.19514">
        <ele>776</ele>
        <time>2024-07-01T10:30:32Z</time>
      </trkpt>
      <trkpt lat="44.8539" lon="5.19515">
        <ele>776</ele>
        <time>2024-07-01T10:30:33Z</time>
      </trkpt>
      <trkpt lat="44.85389" lon="5.19516">
        <ele>775.9</ele>
        <time>2024-07-01T10:30:34Z</time>
      </trkpt>
      <trkpt lat="44.85388" lon="5.19516">
        <ele>775.9</ele>
        <time>2024-07-01T10:30:35Z</time>
      </trkpt>
      <trkpt lat="44.85387" lon="5.19518">
        <ele>775.8</ele>
        <time>2024-07-01T10:30:37Z</time>
      </trkpt>
      <trkpt lat="44.85386" lon="5.19518">
        <ele>775.8</ele>
        <time>2024-07-01T10:30:38Z</time>
      </trkpt>
      <trkpt lat="44.85385" lon="5.19519">
        <ele>775.7</ele>
        <time>2024-07-01T10:30:39Z</time>
      </trkpt>
      <trkpt lat="44.85383" lon="5.1952">
        <ele>775.7</ele>
        <time>2024-07-01T10:30:40Z</time>
      </trkpt>
      <trkpt lat="44.85382" lon="5.1952">
        <ele>775.6</ele>
        <time>2024-07-01T10:30:42Z</time>
      </trkpt>
      <trkpt lat="44.85381" lon="5.19521">
        <ele>775.6</ele>
        <time>2024-07-01T10:30:43Z</time>
      </trkpt>
      <trkpt lat="44.8538" lon="5.19522">
        <ele>775.5</ele>
        <time>2024-07-01T10:30:44Z</time>
      </trkpt>
      <trkpt lat="44.85379" lon="5.19522">
        <ele>775.5</ele>
        <time>2024-07-01T10:30:45Z</time>
      </trkpt>
      <trkpt lat="44.85377" lon="5.19524">
        <ele>775.4</ele>
        <time>2024-07-01T10:30:46Z</time>
      </trkpt>
      <trkpt lat="44.85375" lon="5.19525">
        <ele>775.3</ele>
        <time>2024-07-01T10:30:48Z</time>
      </trkpt>
      <trkpt lat="44.85374" lon="5.19525">
        <ele>775.2</ele>
        <time>2024-07-01T10:30:49Z</time>
      </trkpt>
      <trkpt lat="44.85373" lon="5.19526">
        <ele>775.2</ele>
        <time>2024-07-01T10:30:50Z</time>
      </trkpt>
      <trkpt lat="44.8537" lon="5.19526">
        <ele>775</ele>
        <time>2024-07-01T10:30:51Z</time>
      </trkpt>
      <trkpt lat="44.85369" lon="5.19527">
        <ele>775</ele>
        <time>2024-07-01T10:30:52Z</time>
      </trkpt>
      <trkpt lat="44.85368" lon="5.19527">
        <ele>774.9</ele>
        <time>2024-07-01T10:30:54Z</time>
      </trkpt>
      <trkpt lat="44.85367" lon="5.19526">
        <ele>774.8</ele>
        <time>2024-07-01T10:30:55Z</time>
      </trkpt>
      <trkpt lat="44.85364" lon="5.19527">
        <ele>774.7</ele>
        <time>2024-07-01T10:30:56Z</time>
      </trkpt>
      <trkpt lat="44.85363" lon="5.19527">
        <ele>774.6</ele>
        <time>2024-07-01T10:30:57Z</time>
      </trkpt>
      <trkpt lat="44.85361" lon="5.19528">
        <ele>774.5</ele>
        <time>2024-07-01T10:30:59Z</time>
      </trkpt>
      <trkpt lat="44.8536" lon="5.19529">
        <ele>774.5</ele>
        <time>2024-07-01T10:31:00Z</time>
      </trkpt>
      <trkpt lat="44.85359" lon="5.19529">
        <ele>774.4</ele>
        <time>2024-07-01T10:31:01Z</time>
      </trkpt>
      <trkpt lat="44.85357" lon="5.19531">
        <ele>774.3</ele>
        <time>2024-07-01T10:31:02Z</time>
      </trkpt>
      <trkpt lat="44.85357" lon="5.19531">
        <ele>774.3</ele>
        <time>2024-07-01T10:31:03Z</time>
      </trkpt>
      <trkpt lat="44.85356" lon="5.19531">
        <ele>774.2</ele>
        <time>2024-07-01T10:31:04Z</time>
      </trkpt>
      <trkpt lat="44.85353" lon="5.19533">
        <ele>774.1</ele>
        <time>2024-07-01T10:31:05Z</time>
      </trkpt>
      <trkpt lat="44.85352" lon="5.19534">
        <ele>774.1</ele>
        <time>2024-07-01T10:31:06Z</time>
      </trkpt>
      <trkpt lat="44.85351" lon="5.19534">
        <ele>774</ele>
        <time>2024-07-01T10:31:07Z</time>
      </trkpt>
      <trkpt lat="44.8535" lon="5.19536">
        <ele>773.9</ele>
        <time>2024-07-01T10:31:09Z</time>
      </trkpt>
      <trkpt lat="44.85349" lon="5.19538">
        <ele>773.8</ele>
        <time>2024-07-01T10:31:10Z</time>
      </trkpt>
      <trkpt lat="44.85348" lon="5.19539">
        <ele>773.8</ele>
        <time>2024-07-01T10:31:11Z</time>
      </trkpt>
      <trkpt lat="44.85346" lon="5.19541">
        <ele>773.7</ele>
        <time>2024-07-01T10:31:12Z</time>
      </trkpt>
      <trkpt lat="44.85345" lon="5.19542">
        <ele>773.6</ele>
        <time>2024-07-01T10:31:13Z</time>
      </trkpt>
      <trkpt lat="44.85343" lon="5.19543">
        <ele>773.5</ele>
        <time>2024-07-01T10:31:15Z</time>
      </trkpt>
      <trkpt lat="44.85343" lon="5.19544">
        <ele>773.5</ele>
        <time>2024-07-01T10:31:16Z</time>
      </trkpt>
      <trkpt lat="44.85342" lon="5.19545">
        <ele>773.4</ele>
        <time>2024-07-01T10:31:17Z</time>
      </trkpt>
      <trkpt lat="44.8534" lon="5.19547">
        <ele>773.3</ele>
        <time>2024-07-01T10:31:18Z</time>
      </trkpt>
      <trkpt lat="44.85339" lon="5.19548">
        <ele>773.3</ele>
        <time>2024-07-01T10:31:19Z</time>
      </trkpt>
      <trkpt lat="44.85338" lon="5.19549">
        <ele>773.2</ele>
        <time>2024-07-01T10:31:21Z</time>
      </trkpt>
      <trkpt lat="44.85337" lon="5.1955">
        <ele>773.2</ele>
        <time>2024-07-01T10:31:22Z</time>
      </trkpt>
      <trkpt lat="44.85335" lon="5.19552">
        <ele>773.1</ele>
        <time>2024-07-01T10:31:23Z</time>
      </trkpt>
      <trkpt lat="44.85333" lon="5.19554">
        <ele>773</ele>
        <time>2024-07-01T10:31:25Z</time>
      </trkpt>
      <trkpt lat="44.85332" lon="5.19554">
        <ele>773</ele>
        <time>2024-07-01T10:31:26Z</time>
      </trkpt>
      <trkpt lat="44.85332" lon="5.19555">
        <ele>772.9</ele>
        <time>2024-07-01T10:31:27Z</time>
      </trkpt>
      <trkpt lat="44.85329" lon="5.19557">
        <ele>772.8</ele>
        <time>2024-07-01T10:31:28Z</time>
      </trkpt>
      <trkpt lat="44.85328" lon="5.19558">
        <ele>772.8</ele>
        <time>2024-07-01T10:31:29Z</time>
      </trkpt>
      <trkpt lat="44.85327" lon="5.19559">
        <ele>772.7</ele>
        <time>2024-07-01T10:31:30Z</time>
      </trkpt>
      <trkpt lat="44.85326" lon="5.19561">
        <ele>772.6</ele>
        <time>2024-07-01T10:31:32Z</time>
      </trkpt>
      <trkpt lat="44.85326" lon="5.19561">
        <ele>772.6</ele>
        <time>2024-07-01T10:31:33Z</time>
      </trkpt>
      <trkpt lat="44.85324" lon="5.19564">
        <ele>772.5</ele>
        <time>2024-07-01T10:31:34Z</time>
      </trkpt>
      <trkpt lat="44.85322" lon="5.19567">
        <ele>772.4</ele>
        <time>2024-07-01T10:31:36Z</time>
      </trkpt>
      <trkpt lat="44.85321" lon="5.19569">
        <ele>772.3</ele>
        <time>2024-07-01T10:31:38Z</time>
      </trkpt>
      <trkpt lat="44.85321" lon="5.1957">
        <ele>772.3</ele>
        <time>2024-07-01T10:31:40Z</time>
      </trkpt>
      <trkpt lat="44.8532" lon="5.1957">
        <ele>772.2</ele>
        <time>2024-07-01T10:31:41Z</time>
      </trkpt>
      <trkpt lat="44.85317" lon="5.19571">
        <ele>772.1</ele>
        <time>2024-07-01T10:31:43Z</time>
      </trkpt>
      <trkpt lat="44.85316" lon="5.19571">
        <ele>772</ele>
        <time>2024-07-01T10:31:44Z</time>
      </trkpt>
      <trkpt lat="44.85314" lon="5.19571">
        <ele>771.9</ele>
        <time>2024-07-01T10:31:46Z</time>
      </trkpt>
      <trkpt lat="44.85313" lon="5.1957">
        <ele>771.9</ele>
        <time>2024-07-01T10:31:48Z</time>
      </trkpt>
      <trkpt lat="44.85312" lon="5.19569">
        <ele>771.8</ele>
        <time>2024-07-01T10:31:49Z</time>
      </trkpt>
      <trkpt lat="44.85312" lon="5.19569">
        <ele>771.8</ele>
        <time>2024-07-01T10:31:51Z</time>
      </trkpt>
      <trkpt lat="44.85312" lon="5.19569">
        <ele>771.8</ele>
        <time>2024-07-01T10:31:52Z</time>
      </trkpt>
      <trkpt lat="44.85313" lon="5.1957">
        <ele>771.8</ele>
        <time>2024-07-01T10:31:53Z</time>
      </trkpt>
      <trkpt lat="44.85313" lon="5.1957">
        <ele>771.7</ele>
        <time>2024-07-01T10:31:54Z</time>
      </trkpt>
      <trkpt lat="44.85313" lon="5.1957">
        <ele>771.7</ele>
        <time>2024-07-01T10:31:56Z</time>
      </trkpt>
      <trkpt lat="44.85313" lon="5.1957">
        <ele>771.7</ele>
        <time>2024-07-01T10:31:57Z</time>
      </trkpt>
      <trkpt lat="44.85313" lon="5.1957">
        <ele>771.7</ele>
        <time>2024-07-01T10:31:58Z</time>
      </trkpt>
      <trkpt lat="44.85312" lon="5.1957">
        <ele>771.7</ele>
        <time>2024-07-01T10:31:59Z</time>
      </trkpt>
      <trkpt lat="44.85312" lon="5.1957">
        <ele>771.7</ele>
        <time>2024-07-01T10:32:01Z</time>
      </trkpt>
      <trkpt lat="44.85309" lon="5.1957">
        <ele>771.5</ele>
        <time>2024-07-01T10:32:02Z</time>
      </trkpt>
      <trkpt lat="44.85307" lon="5.19571">
        <ele>771.4</ele>
        <time>2024-07-01T10:32:04Z</time>
      </trkpt>
      <trkpt lat="44.85306" lon="5.19572">
        <ele>771.4</ele>
        <time>2024-07-01T10:32:05Z</time>
      </trkpt>
      <trkpt lat="44.85305" lon="5.19573">
        <ele>771.3</ele>
        <time>2024-07-01T10:32:06Z</time>
      </trkpt>
      <trkpt lat="44.85304" lon="5.19573">
        <ele>771.3</ele>
        <time>2024-07-01T10:32:07Z</time>
      </trkpt>
      <trkpt lat="44.85303" lon="5.19574">
        <ele>771.2</ele>
        <time>2024-07-01T10:32:08Z</time>
      </trkpt>
      <trkpt lat="44.85301" lon="5.19575">
        <ele>771.1</ele>
        <time>2024-07-01T10:32:09Z</time>
      </trkpt>
      <trkpt lat="44.85299" lon="5.19575">
        <ele>771</ele>
        <time>2024-07-01T10:32:11Z</time>
      </trkpt>
      <trkpt lat="44.85299" lon="5.19576">
        <ele>771</ele>
        <time>2024-07-01T10:32:12Z</time>
      </trkpt>
      <trkpt lat="44.85298" lon="5.19577">
        <ele>770.9</ele>
        <time>2024-07-01T10:32:13Z</time>
      </trkpt>
      <trkpt lat="44.85299" lon="5.19578">
        <ele>770.9</ele>
        <time>2024-07-01T10:32:14Z</time>
      </trkpt>
      <trkpt lat="44.853" lon="5.19579">
        <ele>770.8</ele>
        <time>2024-07-01T10:32:15Z</time>
      </trkpt>
      <trkpt lat="44.85301" lon="5.19579">
        <ele>770.8</ele>
        <time>2024-07-01T10:32:16Z</time>
      </trkpt>
      <trkpt lat="44.85301" lon="5.19579">
        <ele>770.7</ele>
        <time>2024-07-01T10:32:18Z</time>
      </trkpt>
      <trkpt lat="44.85302" lon="5.19579">
        <ele>770.7</ele>
        <time>2024-07-01T10:32:19Z</time>
      </trkpt>
      <trkpt lat="44.85303" lon="5.19579">
        <ele>770.7</ele>
        <time>2024-07-01T10:32:20Z</time>
      </trkpt>
      <trkpt lat="44.85303" lon="5.19579">
        <ele>770.6</ele>
        <time>2024-07-01T10:32:21Z</time>
      </trkpt>
      <trkpt lat="44.85303" lon="5.19579">
        <ele>770.6</ele>
        <time>2024-07-01T10:32:22Z</time>
      </trkpt>
      <trkpt lat="44.85303" lon="5.19578">
        <ele>770.6</ele>
        <time>2024-07-01T10:32:23Z</time>
      </trkpt>
      <trkpt lat="44.85303" lon="5.19578">
        <ele>770.6</ele>
        <time>2024-07-01T10:32:24Z</time>
      </trkpt>
      <trkpt lat="44.85303" lon="5.19578">
        <ele>770.6</ele>
        <time>2024-07-01T10:32:25Z</time>
      </trkpt>
      <trkpt lat="44.85303" lon="5.19578">
        <ele>770.6</ele>
        <time>2024-07-01T10:32:26Z</time>
      </trkpt>
      <trkpt lat="44.85303" lon="5.19578">
        <ele>770.6</ele>
        <time>2024-07-01T10:32:27Z</time>
      </trkpt>
      <trkpt lat="44.85303" lon="5.19578">
        <ele>770.6</ele>
        <time>2024-07-01T10:32:28Z</time>
      </trkpt>
      <trkpt lat="44.85303" lon="5.19578">
        <ele>770.6</ele>
        <time>2024-07-01T10:32:29Z</time>
      </trkpt>
      <trkpt lat="44.85303" lon="5.19579">
        <ele>770.6</ele>
        <time>2024-07-01T10:32:30Z</time>
      </trkpt>
      <trkpt lat="44.85302" lon="5.19579">
        <ele>770.5</ele>
        <time>2024-07-01T10:32:31Z</time>
      </trkpt>
      <trkpt lat="44.85302" lon="5.19579">
        <ele>770.5</ele>
        <time>2024-07-01T10:32:32Z</time>
      </trkpt>
      <trkpt lat="44.85301" lon="5.19581">
        <ele>770.4</ele>
        <time>2024-07-01T10:32:33Z</time>
      </trkpt>
      <trkpt lat="44.85301" lon="5.19582">
        <ele>770.4</ele>
        <time>2024-07-01T10:32:35Z</time>
      </trkpt>
      <trkpt lat="44.853" lon="5.19583">
        <ele>770.3</ele>
        <time>2024-07-01T10:32:36Z</time>
      </trkpt>
      <trkpt lat="44.85299" lon="5.19584">
        <ele>770.2</ele>
        <time>2024-07-01T10:32:37Z</time>
      </trkpt>
      <trkpt lat="44.85299" lon="5.19585">
        <ele>770.2</ele>
        <time>2024-07-01T10:32:38Z</time>
      </trkpt>
      <trkpt lat="44.85298" lon="5.19586">
        <ele>770.1</ele>
        <time>2024-07-01T10:32:39Z</time>
      </trkpt>
      <trkpt lat="44.85297" lon="5.19586">
        <ele>770.1</ele>
        <time>2024-07-01T10:32:40Z</time>
      </trkpt>
      <trkpt lat="44.85295" lon="5.19587">
        <ele>770</ele>
        <time>2024-07-01T10:32:41Z</time>
      </trkpt>
      <trkpt lat="44.85295" lon="5.19586">
        <ele>769.9</ele>
        <time>2024-07-01T10:32:42Z</time>
      </trkpt>
      <trkpt lat="44.85294" lon="5.19586">
        <ele>769.9</ele>
        <time>2024-07-01T10:32:43Z</time>
      </trkpt>
      <trkpt lat="44.85293" lon="5.19586">
        <ele>769.8</ele>
        <time>2024-07-01T10:32:44Z</time>
      </trkpt>
      <trkpt lat="44.85291" lon="5.19586">
        <ele>769.7</ele>
        <time>2024-07-01T10:32:45Z</time>
      </trkpt>
      <trkpt lat="44.8529" lon="5.19586">
        <ele>769.6</ele>
        <time>2024-07-01T10:32:47Z</time>
      </trkpt>
      <trkpt lat="44.85289" lon="5.19586">
        <ele>769.6</ele>
        <time>2024-07-01T10:32:48Z</time>
      </trkpt>
      <trkpt lat="44.85288" lon="5.19586">
        <ele>769.5</ele>
        <time>2024-07-01T10:32:49Z</time>
      </trkpt>
      <trkpt lat="44.85287" lon="5.19586">
        <ele>769.4</ele>
        <time>2024-07-01T10:32:50Z</time>
      </trkpt>
      <trkpt lat="44.85286" lon="5.19586">
        <ele>769.4</ele>
        <time>2024-07-01T10:32:51Z</time>
      </trkpt>
      <trkpt lat="44.85286" lon="5.19586">
        <ele>769.3</ele>
        <time>2024-07-01T10:32:52Z</time>
      </trkpt>
      <trkpt lat="44.85284" lon="5.19586">
        <ele>769.2</ele>
        <time>2024-07-01T10:32:53Z</time>
      </trkpt>
      <trkpt lat="44.85283" lon="5.19586">
        <ele>769.2</ele>
        <time>2024-07-01T10:32:55Z</time>
      </trkpt>
      <trkpt lat="44.85282" lon="5.19586">
        <ele>769.1</ele>
        <time>2024-07-01T10:32:56Z</time>
      </trkpt>
      <trkpt lat="44.85281" lon="5.19586">
        <ele>769</ele>
        <time>2024-07-01T10:32:57Z</time>
      </trkpt>
      <trkpt lat="44.85281" lon="5.19586">
        <ele>769</ele>
        <time>2024-07-01T10:32:58Z</time>
      </trkpt>
      <trkpt lat="44.8528" lon="5.19586">
        <ele>768.9</ele>
        <time>2024-07-01T10:32:59Z</time>
      </trkpt>
      <trkpt lat="44.85279" lon="5.19587">
        <ele>768.9</ele>
        <time>2024-07-01T10:33:00Z</time>
      </trkpt>
      <trkpt lat="44.85278" lon="5.19587">
        <ele>768.8</ele>
        <time>2024-07-01T10:33:01Z</time>
      </trkpt>
      <trkpt lat="44.85277" lon="5.19587">
        <ele>768.7</ele>
        <time>2024-07-01T10:33:02Z</time>
      </trkpt>
      <trkpt lat="44.85275" lon="5.19588">
        <ele>768.6</ele>
        <time>2024-07-01T10:33:03Z</time>
      </trkpt>
      <trkpt lat="44.85274" lon="5.19588">
        <ele>768.5</ele>
        <time>2024-07-01T10:33:05Z</time>
      </trkpt>
      <trkpt lat="44.85273" lon="5.19588">
        <ele>768.5</ele>
        <time>2024-07-01T10:33:06Z</time>
      </trkpt>
      <trkpt lat="44.85272" lon="5.19588">
        <ele>768.4</ele>
        <time>2024-07-01T10:33:07Z</time>
      </trkpt>
      <trkpt lat="44.85271" lon="5.19589">
        <ele>768.3</ele>
        <time>2024-07-01T10:33:08Z</time>
      </trkpt>
      <trkpt lat="44.8527" lon="5.19589">
        <ele>768.2</ele>
        <time>2024-07-01T10:33:10Z</time>
      </trkpt>
      <trkpt lat="44.85269" lon="5.19589">
        <ele>768.2</ele>
        <time>2024-07-01T10:33:11Z</time>
      </trkpt>
      <trkpt lat="44.85268" lon="5.19589">
        <ele>768.1</ele>
        <time>2024-07-01T10:33:12Z</time>
      </trkpt>
      <trkpt lat="44.85266" lon="5.19589">
        <ele>768</ele>
        <time>2024-07-01T10:33:13Z</time>
      </trkpt>
      <trkpt lat="44.85265" lon="5.1959">
        <ele>768</ele>
        <time>2024-07-01T10:33:15Z</time>
      </trkpt>
      <trkpt lat="44.85264" lon="5.1959">
        <ele>767.9</ele>
        <time>2024-07-01T10:33:16Z</time>
      </trkpt>
      <trkpt lat="44.85263" lon="5.1959">
        <ele>767.9</ele>
        <time>2024-07-01T10:33:17Z</time>
      </trkpt>
      <trkpt lat="44.85263" lon="5.1959">
        <ele>767.9</ele>
        <time>2024-07-01T10:33:18Z</time>
      </trkpt>
      <trkpt lat="44.8526" lon="5.19591">
        <ele>767.7</ele>
        <time>2024-07-01T10:33:19Z</time>
      </trkpt>
      <trkpt lat="44.85259" lon="5.19592">
        <ele>767.7</ele>
        <time>2024-07-01T10:33:20Z</time>
      </trkpt>
      <trkpt lat="44.85259" lon="5.19592">
        <ele>767.6</ele>
        <time>2024-07-01T10:33:22Z</time>
      </trkpt>
      <trkpt lat="44.85258" lon="5.19592">
        <ele>767.6</ele>
        <time>2024-07-01T10:33:23Z</time>
      </trkpt>
      <trkpt lat="44.85257" lon="5.19592">
        <ele>767.5</ele>
        <time>2024-07-01T10:33:24Z</time>
      </trkpt>
      <trkpt lat="44.85254" lon="5.19592">
        <ele>767.4</ele>
        <time>2024-07-01T10:33:25Z</time>
      </trkpt>
      <trkpt lat="44.85253" lon="5.19592">
        <ele>767.3</ele>
        <time>2024-07-01T10:33:27Z</time>
      </trkpt>
      <trkpt lat="44.85252" lon="5.19593">
        <ele>767.3</ele>
        <time>2024-07-01T10:33:28Z</time>
      </trkpt>
      <trkpt lat="44.85251" lon="5.19593">
        <ele>767.2</ele>
        <time>2024-07-01T10:33:29Z</time>
      </trkpt>
      <trkpt lat="44.8525" lon="5.19593">
        <ele>767.2</ele>
        <time>2024-07-01T10:33:30Z</time>
      </trkpt>
      <trkpt lat="44.85248" lon="5.19593">
        <ele>767.1</ele>
        <time>2024-07-01T10:33:31Z</time>
      </trkpt>
      <trkpt lat="44.85246" lon="5.19594">
        <ele>767</ele>
        <time>2024-07-01T10:33:33Z</time>
      </trkpt>
      <trkpt lat="44.85245" lon="5.19594">
        <ele>766.9</ele>
        <time>2024-07-01T10:33:34Z</time>
      </trkpt>
      <trkpt lat="44.85244" lon="5.19595">
        <ele>766.9</ele>
        <time>2024-07-01T10:33:35Z</time>
      </trkpt>
      <trkpt lat="44.85244" lon="5.19595">
        <ele>766.8</ele>
        <time>2024-07-01T10:33:37Z</time>
      </trkpt>
      <trkpt lat="44.85243" lon="5.19596">
        <ele>766.7</ele>
        <time>2024-07-01T10:33:38Z</time>
      </trkpt>
      <trkpt lat="44.85241" lon="5.19597">
        <ele>766.6</ele>
        <time>2024-07-01T10:33:39Z</time>
      </trkpt>
      <trkpt lat="44.85239" lon="5.19597">
        <ele>766.5</ele>
        <time>2024-07-01T10:33:40Z</time>
      </trkpt>
      <trkpt lat="44.85238" lon="5.19598">
        <ele>766.5</ele>
        <time>2024-07-01T10:33:41Z</time>
      </trkpt>
      <trkpt lat="44.85237" lon="5.19598">
        <ele>766.4</ele>
        <time>2024-07-01T10:33:43Z</time>
      </trkpt>
      <trkpt lat="44.85236" lon="5.19599">
        <ele>766.3</ele>
        <time>2024-07-01T10:33:44Z</time>
      </trkpt>
      <trkpt lat="44.85235" lon="5.196">
        <ele>766.3</ele>
        <time>2024-07-01T10:33:45Z</time>
      </trkpt>
      <trkpt lat="44.85234" lon="5.196">
        <ele>766.2</ele>
        <time>2024-07-01T10:33:46Z</time>
      </trkpt>
      <trkpt lat="44.85232" lon="5.19601">
        <ele>766</ele>
        <time>2024-07-01T10:33:47Z</time>
      </trkpt>
      <trkpt lat="44.85231" lon="5.19601">
        <ele>766</ele>
        <time>2024-07-01T10:33:49Z</time>
      </trkpt>
      <trkpt lat="44.8523" lon="5.19602">
        <ele>765.9</ele>
        <time>2024-07-01T10:33:50Z</time>
      </trkpt>
      <trkpt lat="44.85228" lon="5.19602">
        <ele>765.8</ele>
        <time>2024-07-01T10:33:51Z</time>
      </trkpt>
      <trkpt lat="44.85227" lon="5.19603">
        <ele>765.8</ele>
        <time>2024-07-01T10:33:52Z</time>
      </trkpt>
      <trkpt lat="44.85226" lon="5.19603">
        <ele>765.7</ele>
        <time>2024-07-01T10:33:53Z</time>
      </trkpt>
      <trkpt lat="44.85225" lon="5.19604">
        <ele>765.6</ele>
        <time>2024-07-01T10:33:54Z</time>
      </trkpt>
      <trkpt lat="44.85224" lon="5.19604">
        <ele>765.6</ele>
        <time>2024-07-01T10:33:55Z</time>
      </trkpt>
      <trkpt lat="44.85223" lon="5.19604">
        <ele>765.5</ele>
        <time>2024-07-01T10:33:56Z</time>
      </trkpt>
      <trkpt lat="44.85221" lon="5.19604">
        <ele>765.3</ele>
        <time>2024-07-01T10:33:57Z</time>
      </trkpt>
      <trkpt lat="44.8522" lon="5.19604">
        <ele>765.3</ele>
        <time>2024-07-01T10:33:59Z</time>
      </trkpt>
      <trkpt lat="44.85219" lon="5.19604">
        <ele>765.2</ele>
        <time>2024-07-01T10:34:00Z</time>
      </trkpt>
      <trkpt lat="44.85217" lon="5.19604">
        <ele>765.1</ele>
        <time>2024-07-01T10:34:01Z</time>
      </trkpt>
      <trkpt lat="44.85217" lon="5.19604">
        <ele>765.1</ele>
        <time>2024-07-01T10:34:02Z</time>
      </trkpt>
      <trkpt lat="44.85215" lon="5.19604">
        <ele>765</ele>
        <time>2024-07-01T10:34:03Z</time>
      </trkpt>
      <trkpt lat="44.85214" lon="5.19603">
        <ele>764.9</ele>
        <time>2024-07-01T10:34:04Z</time>
      </trkpt>
      <trkpt lat="44.85213" lon="5.19603">
        <ele>764.8</ele>
        <time>2024-07-01T10:34:05Z</time>
      </trkpt>
      <trkpt lat="44.85211" lon="5.19603">
        <ele>764.7</ele>
        <time>2024-07-01T10:34:06Z</time>
      </trkpt>
      <trkpt lat="44.85211" lon="5.19603">
        <ele>764.7</ele>
        <time>2024-07-01T10:34:07Z</time>
      </trkpt>
      <trkpt lat="44.8521" lon="5.19603">
        <ele>764.6</ele>
        <time>2024-07-01T10:34:08Z</time>
      </trkpt>
      <trkpt lat="44.85207" lon="5.19603">
        <ele>764.5</ele>
        <time>2024-07-01T10:34:09Z</time>
      </trkpt>
      <trkpt lat="44.85206" lon="5.19603">
        <ele>764.4</ele>
        <time>2024-07-01T10:34:10Z</time>
      </trkpt>
      <trkpt lat="44.85205" lon="5.19604">
        <ele>764.3</ele>
        <time>2024-07-01T10:34:12Z</time>
      </trkpt>
      <trkpt lat="44.85204" lon="5.19604">
        <ele>764.3</ele>
        <time>2024-07-01T10:34:13Z</time>
      </trkpt>
      <trkpt lat="44.85202" lon="5.19604">
        <ele>764.1</ele>
        <time>2024-07-01T10:34:14Z</time>
      </trkpt>
      <trkpt lat="44.85201" lon="5.19604">
        <ele>764.1</ele>
        <time>2024-07-01T10:34:16Z</time>
      </trkpt>
      <trkpt lat="44.852" lon="5.19604">
        <ele>764</ele>
        <time>2024-07-01T10:34:17Z</time>
      </trkpt>
      <trkpt lat="44.85199" lon="5.19605">
        <ele>764</ele>
        <time>2024-07-01T10:34:18Z</time>
      </trkpt>
      <trkpt lat="44.85198" lon="5.19605">
        <ele>763.9</ele>
        <time>2024-07-01T10:34:19Z</time>
      </trkpt>
      <trkpt lat="44.85195" lon="5.19605">
        <ele>763.7</ele>
        <time>2024-07-01T10:34:20Z</time>
      </trkpt>
      <trkpt lat="44.85194" lon="5.19605">
        <ele>763.7</ele>
        <time>2024-07-01T10:34:21Z</time>
      </trkpt>
      <trkpt lat="44.85193" lon="5.19605">
        <ele>763.6</ele>
        <time>2024-07-01T10:34:23Z</time>
      </trkpt>
      <trkpt lat="44.85192" lon="5.19605">
        <ele>763.5</ele>
        <time>2024-07-01T10:34:24Z</time>
      </trkpt>
      <trkpt lat="44.8519" lon="5.19605">
        <ele>763.4</ele>
        <time>2024-07-01T10:34:25Z</time>
      </trkpt>
      <trkpt lat="44.85188" lon="5.19605">
        <ele>763.3</ele>
        <time>2024-07-01T10:34:26Z</time>
      </trkpt>
      <trkpt lat="44.85187" lon="5.19605">
        <ele>763.2</ele>
        <time>2024-07-01T10:34:28Z</time>
      </trkpt>
      <trkpt lat="44.85186" lon="5.19605">
        <ele>763.2</ele>
        <time>2024-07-01T10:34:29Z</time>
      </trkpt>
      <trkpt lat="44.85184" lon="5.19606">
        <ele>763</ele>
        <time>2024-07-01T10:34:30Z</time>
      </trkpt>
      <trkpt lat="44.85183" lon="5.19606">
        <ele>763</ele>
        <time>2024-07-01T10:34:31Z</time>
      </trkpt>
      <trkpt lat="44.85182" lon="5.19606">
        <ele>762.9</ele>
        <time>2024-07-01T10:34:32Z</time>
      </trkpt>
      <trkpt lat="44.85181" lon="5.19606">
        <ele>762.8</ele>
        <time>2024-07-01T10:34:33Z</time>
      </trkpt>
      <trkpt lat="44.85179" lon="5.19606">
        <ele>762.8</ele>
        <time>2024-07-01T10:34:34Z</time>
      </trkpt>
      <trkpt lat="44.85178" lon="5.19606">
        <ele>762.7</ele>
        <time>2024-07-01T10:34:36Z</time>
      </trkpt>
      <trkpt lat="44.85177" lon="5.19607">
        <ele>762.6</ele>
        <time>2024-07-01T10:34:37Z</time>
      </trkpt>
      <trkpt lat="44.85176" lon="5.19607">
        <ele>762.6</ele>
        <time>2024-07-01T10:34:38Z</time>
      </trkpt>
      <trkpt lat="44.85174" lon="5.19607">
        <ele>762.4</ele>
        <time>2024-07-01T10:34:39Z</time>
      </trkpt>
      <trkpt lat="44.85173" lon="5.19608">
        <ele>762.4</ele>
        <time>2024-07-01T10:34:41Z</time>
      </trkpt>
      <trkpt lat="44.85171" lon="5.19609">
        <ele>762.3</ele>
        <time>2024-07-01T10:34:42Z</time>
      </trkpt>
      <trkpt lat="44.8517" lon="5.19609">
        <ele>762.2</ele>
        <time>2024-07-01T10:34:43Z</time>
      </trkpt>
      <trkpt lat="44.85169" lon="5.19609">
        <ele>762.1</ele>
        <time>2024-07-01T10:34:44Z</time>
      </trkpt>
      <trkpt lat="44.85166" lon="5.1961">
        <ele>761.9</ele>
        <time>2024-07-01T10:34:45Z</time>
      </trkpt>
      <trkpt lat="44.85166" lon="5.1961">
        <ele>761.9</ele>
        <time>2024-07-01T10:34:46Z</time>
      </trkpt>
      <trkpt lat="44.85165" lon="5.1961">
        <ele>761.8</ele>
        <time>2024-07-01T10:34:48Z</time>
      </trkpt>
      <trkpt lat="44.85164" lon="5.1961">
        <ele>761.8</ele>
        <time>2024-07-01T10:34:49Z</time>
      </trkpt>
      <trkpt lat="44.85163" lon="5.1961">
        <ele>761.7</ele>
        <time>2024-07-01T10:34:50Z</time>
      </trkpt>
      <trkpt lat="44.85162" lon="5.19611">
        <ele>761.6</ele>
        <time>2024-07-01T10:34:51Z</time>
      </trkpt>
      <trkpt lat="44.8516" lon="5.19611">
        <ele>761.5</ele>
        <time>2024-07-01T10:34:52Z</time>
      </trkpt>
      <trkpt lat="44.85159" lon="5.19611">
        <ele>761.4</ele>
        <time>2024-07-01T10:34:53Z</time>
      </trkpt>
      <trkpt lat="44.85158" lon="5.19612">
        <ele>761.4</ele>
        <time>2024-07-01T10:34:55Z</time>
      </trkpt>
      <trkpt lat="44.85156" lon="5.19612">
        <ele>761.3</ele>
        <time>2024-07-01T10:34:56Z</time>
      </trkpt>
      <trkpt lat="44.85155" lon="5.19612">
        <ele>761.2</ele>
        <time>2024-07-01T10:34:57Z</time>
      </trkpt>
      <trkpt lat="44.85153" lon="5.19613">
        <ele>761</ele>
        <time>2024-07-01T10:34:58Z</time>
      </trkpt>
      <trkpt lat="44.85151" lon="5.19614">
        <ele>760.9</ele>
        <time>2024-07-01T10:34:59Z</time>
      </trkpt>
      <trkpt lat="44.8515" lon="5.19614">
        <ele>760.8</ele>
        <time>2024-07-01T10:35:01Z</time>
      </trkpt>
      <trkpt lat="44.8515" lon="5.19614">
        <ele>760.8</ele>
        <time>2024-07-01T10:35:02Z</time>
      </trkpt>
      <trkpt lat="44.85149" lon="5.19615">
        <ele>760.7</ele>
        <time>2024-07-01T10:35:03Z</time>
      </trkpt>
      <trkpt lat="44.85147" lon="5.19616">
        <ele>760.6</ele>
        <time>2024-07-01T10:35:04Z</time>
      </trkpt>
      <trkpt lat="44.85146" lon="5.19616">
        <ele>760.5</ele>
        <time>2024-07-01T10:35:05Z</time>
      </trkpt>
      <trkpt lat="44.85144" lon="5.19617">
        <ele>760.4</ele>
        <time>2024-07-01T10:35:07Z</time>
      </trkpt>
      <trkpt lat="44.85144" lon="5.19617">
        <ele>760.3</ele>
        <time>2024-07-01T10:35:08Z</time>
      </trkpt>
      <trkpt lat="44.85143" lon="5.19617">
        <ele>760.2</ele>
        <time>2024-07-01T10:35:09Z</time>
      </trkpt>
      <trkpt lat="44.8514" lon="5.19618">
        <ele>760.1</ele>
        <time>2024-07-01T10:35:10Z</time>
      </trkpt>
      <trkpt lat="44.85139" lon="5.19617">
        <ele>760</ele>
        <time>2024-07-01T10:35:12Z</time>
      </trkpt>
      <trkpt lat="44.85138" lon="5.19617">
        <ele>759.9</ele>
        <time>2024-07-01T10:35:13Z</time>
      </trkpt>
      <trkpt lat="44.85137" lon="5.19617">
        <ele>759.8</ele>
        <time>2024-07-01T10:35:14Z</time>
      </trkpt>
      <trkpt lat="44.85135" lon="5.19618">
        <ele>759.7</ele>
        <time>2024-07-01T10:35:15Z</time>
      </trkpt>
      <trkpt lat="44.85133" lon="5.19618">
        <ele>759.6</ele>
        <time>2024-07-01T10:35:17Z</time>
      </trkpt>
      <trkpt lat="44.85133" lon="5.19619">
        <ele>759.5</ele>
        <time>2024-07-01T10:35:18Z</time>
      </trkpt>
      <trkpt lat="44.85131" lon="5.19619">
        <ele>759.5</ele>
        <time>2024-07-01T10:35:19Z</time>
      </trkpt>
      <trkpt lat="44.85129" lon="5.19619">
        <ele>759.3</ele>
        <time>2024-07-01T10:35:20Z</time>
      </trkpt>
      <trkpt lat="44.85128" lon="5.19619">
        <ele>759.3</ele>
        <time>2024-07-01T10:35:22Z</time>
      </trkpt>
      <trkpt lat="44.85127" lon="5.19619">
        <ele>759.2</ele>
        <time>2024-07-01T10:35:23Z</time>
      </trkpt>
      <trkpt lat="44.85126" lon="5.19619">
        <ele>759.1</ele>
        <time>2024-07-01T10:35:24Z</time>
      </trkpt>
      <trkpt lat="44.85125" lon="5.19619">
        <ele>759.1</ele>
        <time>2024-07-01T10:35:25Z</time>
      </trkpt>
      <trkpt lat="44.85124" lon="5.19619">
        <ele>759</ele>
        <time>2024-07-01T10:35:26Z</time>
      </trkpt>
      <trkpt lat="44.85122" lon="5.19619">
        <ele>758.9</ele>
        <time>2024-07-01T10:35:27Z</time>
      </trkpt>
      <trkpt lat="44.85121" lon="5.19619">
        <ele>758.9</ele>
        <time>2024-07-01T10:35:28Z</time>
      </trkpt>
      <trkpt lat="44.8512" lon="5.19619">
        <ele>758.8</ele>
        <time>2024-07-01T10:35:29Z</time>
      </trkpt>
      <trkpt lat="44.85118" lon="5.1962">
        <ele>758.7</ele>
        <time>2024-07-01T10:35:30Z</time>
      </trkpt>
      <trkpt lat="44.85117" lon="5.1962">
        <ele>758.7</ele>
        <time>2024-07-01T10:35:31Z</time>
      </trkpt>
      <trkpt lat="44.85116" lon="5.1962">
        <ele>758.6</ele>
        <time>2024-07-01T10:35:32Z</time>
      </trkpt>
      <trkpt lat="44.85114" lon="5.1962">
        <ele>758.5</ele>
        <time>2024-07-01T10:35:33Z</time>
      </trkpt>
      <trkpt lat="44.85114" lon="5.1962">
        <ele>758.4</ele>
        <time>2024-07-01T10:35:34Z</time>
      </trkpt>
      <trkpt lat="44.85113" lon="5.19621">
        <ele>758.4</ele>
        <time>2024-07-01T10:35:35Z</time>
      </trkpt>
      <trkpt lat="44.85111" lon="5.19622">
        <ele>758.3</ele>
        <time>2024-07-01T10:35:36Z</time>
      </trkpt>
      <trkpt lat="44.8511" lon="5.19622">
        <ele>758.2</ele>
        <time>2024-07-01T10:35:37Z</time>
      </trkpt>
      <trkpt lat="44.85109" lon="5.19622">
        <ele>758.2</ele>
        <time>2024-07-01T10:35:38Z</time>
      </trkpt>
      <trkpt lat="44.85107" lon="5.19624">
        <ele>758.1</ele>
        <time>2024-07-01T10:35:39Z</time>
      </trkpt>
      <trkpt lat="44.85106" lon="5.19624">
        <ele>758</ele>
        <time>2024-07-01T10:35:40Z</time>
      </trkpt>
      <trkpt lat="44.85106" lon="5.19625">
        <ele>758</ele>
        <time>2024-07-01T10:35:41Z</time>
      </trkpt>
      <trkpt lat="44.85103" lon="5.19626">
        <ele>757.8</ele>
        <time>2024-07-01T10:35:42Z</time>
      </trkpt>
      <trkpt lat="44.85102" lon="5.19626">
        <ele>757.7</ele>
        <time>2024-07-01T10:35:43Z</time>
      </trkpt>
      <trkpt lat="44.85101" lon="5.19627">
        <ele>757.6</ele>
        <time>2024-07-01T10:35:45Z</time>
      </trkpt>
      <trkpt lat="44.851" lon="5.19629">
        <ele>757.6</ele>
        <time>2024-07-01T10:35:46Z</time>
      </trkpt>
      <trkpt lat="44.85098" lon="5.19631">
        <ele>757.4</ele>
        <time>2024-07-01T10:35:47Z</time>
      </trkpt>
      <trkpt lat="44.85097" lon="5.19631">
        <ele>757.4</ele>
        <time>2024-07-01T10:35:49Z</time>
      </trkpt>
      <trkpt lat="44.85097" lon="5.19631">
        <ele>757.3</ele>
        <time>2024-07-01T10:35:50Z</time>
      </trkpt>
      <trkpt lat="44.85096" lon="5.19631">
        <ele>757.3</ele>
        <time>2024-07-01T10:35:51Z</time>
      </trkpt>
      <trkpt lat="44.85096" lon="5.19631">
        <ele>757.3</ele>
        <time>2024-07-01T10:35:52Z</time>
      </trkpt>
      <trkpt lat="44.85095" lon="5.19631">
        <ele>757.2</ele>
        <time>2024-07-01T10:35:53Z</time>
      </trkpt>
      <trkpt lat="44.85095" lon="5.19631">
        <ele>757.2</ele>
        <time>2024-07-01T10:35:54Z</time>
      </trkpt>
      <trkpt lat="44.85094" lon="5.19631">
        <ele>757.2</ele>
        <time>2024-07-01T10:35:55Z</time>
      </trkpt>
      <trkpt lat="44.85094" lon="5.19631">
        <ele>757.1</ele>
        <time>2024-07-01T10:35:56Z</time>
      </trkpt>
      <trkpt lat="44.85094" lon="5.19632">
        <ele>757.1</ele>
        <time>2024-07-01T10:35:57Z</time>
      </trkpt>
      <trkpt lat="44.85089" lon="5.19631">
        <ele>756.8</ele>
        <time>2024-07-01T10:35:58Z</time>
      </trkpt>
      <trkpt lat="44.85087" lon="5.1963">
        <ele>756.7</ele>
        <time>2024-07-01T10:35:59Z</time>
      </trkpt>
      <trkpt lat="44.85085" lon="5.1963">
        <ele>756.6</ele>
        <time>2024-07-01T10:36:00Z</time>
      </trkpt>
      <trkpt lat="44.85083" lon="5.19631">
        <ele>756.4</ele>
        <time>2024-07-01T10:36:02Z</time>
      </trkpt>
      <trkpt lat="44.85082" lon="5.19631">
        <ele>756.4</ele>
        <time>2024-07-01T10:36:03Z</time>
      </trkpt>
      <trkpt lat="44.85081" lon="5.19631">
        <ele>756.3</ele>
        <time>2024-07-01T10:36:04Z</time>
      </trkpt>
      <trkpt lat="44.85079" lon="5.19632">
        <ele>756.2</ele>
        <time>2024-07-01T10:36:05Z</time>
      </trkpt>
      <trkpt lat="44.85078" lon="5.19632">
        <ele>756.1</ele>
        <time>2024-07-01T10:36:06Z</time>
      </trkpt>
      <trkpt lat="44.85077" lon="5.19632">
        <ele>756</ele>
        <time>2024-07-01T10:36:08Z</time>
      </trkpt>
      <trkpt lat="44.85076" lon="5.19633">
        <ele>756</ele>
        <time>2024-07-01T10:36:09Z</time>
      </trkpt>
      <trkpt lat="44.85075" lon="5.19633">
        <ele>755.9</ele>
        <time>2024-07-01T10:36:10Z</time>
      </trkpt>
      <trkpt lat="44.85074" lon="5.19634">
        <ele>755.8</ele>
        <time>2024-07-01T10:36:11Z</time>
      </trkpt>
      <trkpt lat="44.85072" lon="5.19634">
        <ele>755.7</ele>
        <time>2024-07-01T10:36:12Z</time>
      </trkpt>
      <trkpt lat="44.85071" lon="5.19634">
        <ele>755.6</ele>
        <time>2024-07-01T10:36:14Z</time>
      </trkpt>
      <trkpt lat="44.8507" lon="5.19635">
        <ele>755.6</ele>
        <time>2024-07-01T10:36:15Z</time>
      </trkpt>
      <trkpt lat="44.85069" lon="5.19636">
        <ele>755.5</ele>
        <time>2024-07-01T10:36:16Z</time>
      </trkpt>
      <trkpt lat="44.85068" lon="5.19637">
        <ele>755.4</ele>
        <time>2024-07-01T10:36:17Z</time>
      </trkpt>
      <trkpt lat="44.85066" lon="5.19638">
        <ele>755.3</ele>
        <time>2024-07-01T10:36:18Z</time>
      </trkpt>
      <trkpt lat="44.85065" lon="5.19639">
        <ele>755.2</ele>
        <time>2024-07-01T10:36:20Z</time>
      </trkpt>
      <trkpt lat="44.85064" lon="5.19639">
        <ele>755.2</ele>
        <time>2024-07-01T10:36:21Z</time>
      </trkpt>
      <trkpt lat="44.85063" lon="5.1964">
        <ele>755.1</ele>
        <time>2024-07-01T10:36:22Z</time>
      </trkpt>
      <trkpt lat="44.85063" lon="5.19641">
        <ele>755</ele>
        <time>2024-07-01T10:36:23Z</time>
      </trkpt>
      <trkpt lat="44.85062" lon="5.19641">
        <ele>755</ele>
        <time>2024-07-01T10:36:24Z</time>
      </trkpt>
      <trkpt lat="44.85059" lon="5.19642">
        <ele>754.8</ele>
        <time>2024-07-01T10:36:25Z</time>
      </trkpt>
      <trkpt lat="44.85057" lon="5.19643">
        <ele>754.7</ele>
        <time>2024-07-01T10:36:26Z</time>
      </trkpt>
      <trkpt lat="44.85057" lon="5.19644">
        <ele>754.6</ele>
        <time>2024-07-01T10:36:28Z</time>
      </trkpt>
      <trkpt lat="44.85056" lon="5.19644">
        <ele>754.6</ele>
        <time>2024-07-01T10:36:29Z</time>
      </trkpt>
      <trkpt lat="44.85054" lon="5.19645">
        <ele>754.5</ele>
        <time>2024-07-01T10:36:30Z</time>
      </trkpt>
      <trkpt lat="44.85053" lon="5.19645">
        <ele>754.4</ele>
        <time>2024-07-01T10:36:31Z</time>
      </trkpt>
      <trkpt lat="44.85051" lon="5.19646">
        <ele>754.2</ele>
        <time>2024-07-01T10:36:32Z</time>
      </trkpt>
      <trkpt lat="44.85049" lon="5.19647">
        <ele>754.1</ele>
        <time>2024-07-01T10:36:34Z</time>
      </trkpt>
      <trkpt lat="44.85048" lon="5.19648">
        <ele>754.1</ele>
        <time>2024-07-01T10:36:35Z</time>
      </trkpt>
      <trkpt lat="44.85047" lon="5.19648">
        <ele>754</ele>
        <time>2024-07-01T10:36:36Z</time>
      </trkpt>
      <trkpt lat="44.85045" lon="5.19649">
        <ele>753.9</ele>
        <time>2024-07-01T10:36:37Z</time>
      </trkpt>
      <trkpt lat="44.85043" lon="5.1965">
        <ele>753.8</ele>
        <time>2024-07-01T10:36:38Z</time>
      </trkpt>
      <trkpt lat="44.85043" lon="5.1965">
        <ele>753.7</ele>
        <time>2024-07-01T10:36:39Z</time>
      </trkpt>
      <trkpt lat="44.85042" lon="5.1965">
        <ele>753.7</ele>
        <time>2024-07-01T10:36:40Z</time>
      </trkpt>
      <trkpt lat="44.85039" lon="5.19652">
        <ele>753.5</ele>
        <time>2024-07-01T10:36:41Z</time>
      </trkpt>
      <trkpt lat="44.85038" lon="5.19652">
        <ele>753.4</ele>
        <time>2024-07-01T10:36:43Z</time>
      </trkpt>
      <trkpt lat="44.85037" lon="5.19652">
        <ele>753.4</ele>
        <time>2024-07-01T10:36:44Z</time>
      </trkpt>
      <trkpt lat="44.85036" lon="5.19653">
        <ele>753.3</ele>
        <time>2024-07-01T10:36:45Z</time>
      </trkpt>
      <trkpt lat="44.85035" lon="5.19653">
        <ele>753.2</ele>
        <time>2024-07-01T10:36:46Z</time>
      </trkpt>
      <trkpt lat="44.85033" lon="5.19654">
        <ele>753</ele>
        <time>2024-07-01T10:36:47Z</time>
      </trkpt>
      <trkpt lat="44.85031" lon="5.19655">
        <ele>753</ele>
        <time>2024-07-01T10:36:49Z</time>
      </trkpt>
      <trkpt lat="44.8503" lon="5.19655">
        <ele>752.9</ele>
        <time>2024-07-01T10:36:50Z</time>
      </trkpt>
      <trkpt lat="44.85029" lon="5.19655">
        <ele>752.8</ele>
        <time>2024-07-01T10:36:51Z</time>
      </trkpt>
      <trkpt lat="44.85026" lon="5.19655">
        <ele>752.6</ele>
        <time>2024-07-01T10:36:52Z</time>
      </trkpt>
      <trkpt lat="44.85025" lon="5.19655">
        <ele>752.5</ele>
        <time>2024-07-01T10:36:54Z</time>
      </trkpt>
      <trkpt lat="44.85023" lon="5.19655">
        <ele>752.5</ele>
        <time>2024-07-01T10:36:55Z</time>
      </trkpt>
      <trkpt lat="44.85022" lon="5.19656">
        <ele>752.4</ele>
        <time>2024-07-01T10:36:56Z</time>
      </trkpt>
      <trkpt lat="44.85021" lon="5.19656">
        <ele>752.3</ele>
        <time>2024-07-01T10:36:57Z</time>
      </trkpt>
      <trkpt lat="44.8502" lon="5.19656">
        <ele>752.3</ele>
        <time>2024-07-01T10:36:59Z</time>
      </trkpt>
      <trkpt lat="44.85019" lon="5.19656">
        <ele>752.2</ele>
        <time>2024-07-01T10:37:00Z</time>
      </trkpt>
      <trkpt lat="44.85018" lon="5.19657">
        <ele>752.1</ele>
        <time>2024-07-01T10:37:01Z</time>
      </trkpt>
      <trkpt lat="44.85016" lon="5.19657">
        <ele>752</ele>
        <time>2024-07-01T10:37:02Z</time>
      </trkpt>
      <trkpt lat="44.85015" lon="5.19658">
        <ele>751.9</ele>
        <time>2024-07-01T10:37:03Z</time>
      </trkpt>
      <trkpt lat="44.85014" lon="5.19659">
        <ele>751.9</ele>
        <time>2024-07-01T10:37:04Z</time>
      </trkpt>
      <trkpt lat="44.85012" lon="5.1966">
        <ele>751.7</ele>
        <time>2024-07-01T10:37:05Z</time>
      </trkpt>
      <trkpt lat="44.85011" lon="5.19661">
        <ele>751.7</ele>
        <time>2024-07-01T10:37:07Z</time>
      </trkpt>
      <trkpt lat="44.8501" lon="5.19661">
        <ele>751.6</ele>
        <time>2024-07-01T10:37:08Z</time>
      </trkpt>
      <trkpt lat="44.85009" lon="5.19662">
        <ele>751.5</ele>
        <time>2024-07-01T10:37:09Z</time>
      </trkpt>
      <trkpt lat="44.85008" lon="5.19662">
        <ele>751.4</ele>
        <time>2024-07-01T10:37:10Z</time>
      </trkpt>
      <trkpt lat="44.85006" lon="5.19663">
        <ele>751.3</ele>
        <time>2024-07-01T10:37:11Z</time>
      </trkpt>
      <trkpt lat="44.85005" lon="5.19664">
        <ele>751.2</ele>
        <time>2024-07-01T10:37:13Z</time>
      </trkpt>
      <trkpt lat="44.85004" lon="5.19664">
        <ele>751.2</ele>
        <time>2024-07-01T10:37:14Z</time>
      </trkpt>
      <trkpt lat="44.85002" lon="5.19664">
        <ele>751.1</ele>
        <time>2024-07-01T10:37:15Z</time>
      </trkpt>
      <trkpt lat="44.85001" lon="5.19665">
        <ele>751</ele>
        <time>2024-07-01T10:37:16Z</time>
      </trkpt>
      <trkpt lat="44.84999" lon="5.19665">
        <ele>750.9</ele>
        <time>2024-07-01T10:37:17Z</time>
      </trkpt>
      <trkpt lat="44.84997" lon="5.19666">
        <ele>750.7</ele>
        <time>2024-07-01T10:37:19Z</time>
      </trkpt>
      <trkpt lat="44.84996" lon="5.19666">
        <ele>750.7</ele>
        <time>2024-07-01T10:37:20Z</time>
      </trkpt>
      <trkpt lat="44.84996" lon="5.19666">
        <ele>750.6</ele>
        <time>2024-07-01T10:37:21Z</time>
      </trkpt>
      <trkpt lat="44.84995" lon="5.19667">
        <ele>750.6</ele>
        <time>2024-07-01T10:37:22Z</time>
      </trkpt>
      <trkpt lat="44.84992" lon="5.19667">
        <ele>750.4</ele>
        <time>2024-07-01T10:37:23Z</time>
      </trkpt>
      <trkpt lat="44.84991" lon="5.19667">
        <ele>750.3</ele>
        <time>2024-07-01T10:37:24Z</time>
      </trkpt>
      <trkpt lat="44.8499" lon="5.19667">
        <ele>750.2</ele>
        <time>2024-07-01T10:37:26Z</time>
      </trkpt>
      <trkpt lat="44.84989" lon="5.19668">
        <ele>750.2</ele>
        <time>2024-07-01T10:37:27Z</time>
      </trkpt>
      <trkpt lat="44.84988" lon="5.19668">
        <ele>750.1</ele>
        <time>2024-07-01T10:37:28Z</time>
      </trkpt>
      <trkpt lat="44.84986" lon="5.19668">
        <ele>749.9</ele>
        <time>2024-07-01T10:37:29Z</time>
      </trkpt>
      <trkpt lat="44.84985" lon="5.19669">
        <ele>749.8</ele>
        <time>2024-07-01T10:37:31Z</time>
      </trkpt>
      <trkpt lat="44.84984" lon="5.19669">
        <ele>749.8</ele>
        <time>2024-07-01T10:37:32Z</time>
      </trkpt>
      <trkpt lat="44.84983" lon="5.19669">
        <ele>749.7</ele>
        <time>2024-07-01T10:37:33Z</time>
      </trkpt>
      <trkpt lat="44.84981" lon="5.1967">
        <ele>749.5</ele>
        <time>2024-07-01T10:37:34Z</time>
      </trkpt>
      <trkpt lat="44.84978" lon="5.19671">
        <ele>749.4</ele>
        <time>2024-07-01T10:37:35Z</time>
      </trkpt>
      <trkpt lat="44.84978" lon="5.19671">
        <ele>749.3</ele>
        <time>2024-07-01T10:37:37Z</time>
      </trkpt>
      <trkpt lat="44.84977" lon="5.19672">
        <ele>749.3</ele>
        <time>2024-07-01T10:37:38Z</time>
      </trkpt>
      <trkpt lat="44.84974" lon="5.19673">
        <ele>749</ele>
        <time>2024-07-01T10:37:39Z</time>
      </trkpt>
      <trkpt lat="44.84973" lon="5.19673">
        <ele>749</ele>
        <time>2024-07-01T10:37:40Z</time>
      </trkpt>
      <trkpt lat="44.84971" lon="5.19674">
        <ele>748.8</ele>
        <time>2024-07-01T10:37:42Z</time>
      </trkpt>
      <trkpt lat="44.8497" lon="5.19674">
        <ele>748.7</ele>
        <time>2024-07-01T10:37:43Z</time>
      </trkpt>
      <trkpt lat="44.84968" lon="5.19675">
        <ele>748.6</ele>
        <time>2024-07-01T10:37:44Z</time>
      </trkpt>
      <trkpt lat="44.84967" lon="5.19675">
        <ele>748.5</ele>
        <time>2024-07-01T10:37:45Z</time>
      </trkpt>
      <trkpt lat="44.84966" lon="5.19676">
        <ele>748.5</ele>
        <time>2024-07-01T10:37:47Z</time>
      </trkpt>
      <trkpt lat="44.84965" lon="5.19676">
        <ele>748.4</ele>
        <time>2024-07-01T10:37:48Z</time>
      </trkpt>
      <trkpt lat="44.84964" lon="5.19676">
        <ele>748.3</ele>
        <time>2024-07-01T10:37:49Z</time>
      </trkpt>
      <trkpt lat="44.84963" lon="5.19676">
        <ele>748.3</ele>
        <time>2024-07-01T10:37:50Z</time>
      </trkpt>
      <trkpt lat="44.8496" lon="5.19676">
        <ele>748.1</ele>
        <time>2024-07-01T10:37:51Z</time>
      </trkpt>
      <trkpt lat="44.84959" lon="5.19676">
        <ele>748.1</ele>
        <time>2024-07-01T10:37:53Z</time>
      </trkpt>
      <trkpt lat="44.84958" lon="5.19675">
        <ele>748</ele>
        <time>2024-07-01T10:37:54Z</time>
      </trkpt>
      <trkpt lat="44.84957" lon="5.19675">
        <ele>747.9</ele>
        <time>2024-07-01T10:37:55Z</time>
      </trkpt>
      <trkpt lat="44.84956" lon="5.19675">
        <ele>747.9</ele>
        <time>2024-07-01T10:37:56Z</time>
      </trkpt>
      <trkpt lat="44.84954" lon="5.19675">
        <ele>747.7</ele>
        <time>2024-07-01T10:37:57Z</time>
      </trkpt>
      <trkpt lat="44.84953" lon="5.19675">
        <ele>747.7</ele>
        <time>2024-07-01T10:37:59Z</time>
      </trkpt>
      <trkpt lat="44.84952" lon="5.19675">
        <ele>747.6</ele>
        <time>2024-07-01T10:38:00Z</time>
      </trkpt>
      <trkpt lat="44.8495" lon="5.19674">
        <ele>747.5</ele>
        <time>2024-07-01T10:38:01Z</time>
      </trkpt>
      <trkpt lat="44.84948" lon="5.19674">
        <ele>747.4</ele>
        <time>2024-07-01T10:38:02Z</time>
      </trkpt>
      <trkpt lat="44.84947" lon="5.19674">
        <ele>747.3</ele>
        <time>2024-07-01T10:38:03Z</time>
      </trkpt>
      <trkpt lat="44.84946" lon="5.19674">
        <ele>747.2</ele>
        <time>2024-07-01T10:38:05Z</time>
      </trkpt>
      <trkpt lat="44.84945" lon="5.19674">
        <ele>747.2</ele>
        <time>2024-07-01T10:38:06Z</time>
      </trkpt>
      <trkpt lat="44.84944" lon="5.19674">
        <ele>747.1</ele>
        <time>2024-07-01T10:38:07Z</time>
      </trkpt>
      <trkpt lat="44.84942" lon="5.19675">
        <ele>747</ele>
        <time>2024-07-01T10:38:08Z</time>
      </trkpt>
      <trkpt lat="44.84941" lon="5.19675">
        <ele>746.9</ele>
        <time>2024-07-01T10:38:09Z</time>
      </trkpt>
      <trkpt lat="44.8494" lon="5.19675">
        <ele>746.9</ele>
        <time>2024-07-01T10:38:11Z</time>
      </trkpt>
      <trkpt lat="44.84939" lon="5.19675">
        <ele>746.8</ele>
        <time>2024-07-01T10:38:12Z</time>
      </trkpt>
      <trkpt lat="44.84938" lon="5.19675">
        <ele>746.7</ele>
        <time>2024-07-01T10:38:13Z</time>
      </trkpt>
      <trkpt lat="44.84935" lon="5.19676">
        <ele>746.6</ele>
        <time>2024-07-01T10:38:14Z</time>
      </trkpt>
      <trkpt lat="44.84934" lon="5.19676">
        <ele>746.5</ele>
        <time>2024-07-01T10:38:16Z</time>
      </trkpt>
      <trkpt lat="44.84933" lon="5.19677">
        <ele>746.4</ele>
        <time>2024-07-01T10:38:17Z</time>
      </trkpt>
      <trkpt lat="44.84932" lon="5.19677">
        <ele>746.4</ele>
        <time>2024-07-01T10:38:18Z</time>
      </trkpt>
      <trkpt lat="44.8493" lon="5.19677">
        <ele>746.3</ele>
        <time>2024-07-01T10:38:19Z</time>
      </trkpt>
      <trkpt lat="44.84929" lon="5.19677">
        <ele>746.2</ele>
        <time>2024-07-01T10:38:20Z</time>
      </trkpt>
      <trkpt lat="44.84928" lon="5.19677">
        <ele>746.1</ele>
        <time>2024-07-01T10:38:21Z</time>
      </trkpt>
      <trkpt lat="44.84927" lon="5.19677">
        <ele>746.1</ele>
        <time>2024-07-01T10:38:22Z</time>
      </trkpt>
      <trkpt lat="44.84926" lon="5.19677">
        <ele>746</ele>
        <time>2024-07-01T10:38:23Z</time>
      </trkpt>
      <trkpt lat="44.84923" lon="5.19677">
        <ele>745.8</ele>
        <time>2024-07-01T10:38:24Z</time>
      </trkpt>
      <trkpt lat="44.84922" lon="5.19677">
        <ele>745.7</ele>
        <time>2024-07-01T10:38:25Z</time>
      </trkpt>
      <trkpt lat="44.84921" lon="5.19677">
        <ele>745.7</ele>
        <time>2024-07-01T10:38:27Z</time>
      </trkpt>
      <trkpt lat="44.8492" lon="5.19677">
        <ele>745.6</ele>
        <time>2024-07-01T10:38:28Z</time>
      </trkpt>
      <trkpt lat="44.84919" lon="5.19677">
        <ele>745.5</ele>
        <time>2024-07-01T10:38:29Z</time>
      </trkpt>
      <trkpt lat="44.84916" lon="5.19677">
        <ele>745.3</ele>
        <time>2024-07-01T10:38:30Z</time>
      </trkpt>
      <trkpt lat="44.84915" lon="5.19677">
        <ele>745.3</ele>
        <time>2024-07-01T10:38:31Z</time>
      </trkpt>
      <trkpt lat="44.84914" lon="5.19677">
        <ele>745.2</ele>
        <time>2024-07-01T10:38:33Z</time>
      </trkpt>
      <trkpt lat="44.84913" lon="5.19677">
        <ele>745.1</ele>
        <time>2024-07-01T10:38:34Z</time>
      </trkpt>
      <trkpt lat="44.84912" lon="5.19677">
        <ele>745.1</ele>
        <time>2024-07-01T10:38:35Z</time>
      </trkpt>
      <trkpt lat="44.8491" lon="5.19677">
        <ele>744.9</ele>
        <time>2024-07-01T10:38:36Z</time>
      </trkpt>
      <trkpt lat="44.84909" lon="5.19677">
        <ele>744.9</ele>
        <time>2024-07-01T10:38:37Z</time>
      </trkpt>
      <trkpt lat="44.84908" lon="5.19677">
        <ele>744.8</ele>
        <time>2024-07-01T10:38:38Z</time>
      </trkpt>
      <trkpt lat="44.84906" lon="5.19677">
        <ele>744.7</ele>
        <time>2024-07-01T10:38:39Z</time>
      </trkpt>
      <trkpt lat="44.84906" lon="5.19677">
        <ele>744.6</ele>
        <time>2024-07-01T10:38:40Z</time>
      </trkpt>
      <trkpt lat="44.84905" lon="5.19677">
        <ele>744.6</ele>
        <time>2024-07-01T10:38:41Z</time>
      </trkpt>
      <trkpt lat="44.84903" lon="5.19677">
        <ele>744.4</ele>
        <time>2024-07-01T10:38:42Z</time>
      </trkpt>
      <trkpt lat="44.84902" lon="5.19677">
        <ele>744.3</ele>
        <time>2024-07-01T10:38:43Z</time>
      </trkpt>
      <trkpt lat="44.84901" lon="5.19677">
        <ele>744.3</ele>
        <time>2024-07-01T10:38:44Z</time>
      </trkpt>
      <trkpt lat="44.849" lon="5.19677">
        <ele>744.2</ele>
        <time>2024-07-01T10:38:45Z</time>
      </trkpt>
      <trkpt lat="44.84899" lon="5.19677">
        <ele>744.1</ele>
        <time>2024-07-01T10:38:46Z</time>
      </trkpt>
      <trkpt lat="44.84897" lon="5.19676">
        <ele>744</ele>
        <time>2024-07-01T10:38:47Z</time>
      </trkpt>
      <trkpt lat="44.84896" lon="5.19676">
        <ele>744</ele>
        <time>2024-07-01T10:38:48Z</time>
      </trkpt>
      <trkpt lat="44.84894" lon="5.19676">
        <ele>743.8</ele>
        <time>2024-07-01T10:38:49Z</time>
      </trkpt>
      <trkpt lat="44.84892" lon="5.19675">
        <ele>743.7</ele>
        <time>2024-07-01T10:38:51Z</time>
      </trkpt>
      <trkpt lat="44.84891" lon="5.19675">
        <ele>743.6</ele>
        <time>2024-07-01T10:38:52Z</time>
      </trkpt>
      <trkpt lat="44.8489" lon="5.19676">
        <ele>743.5</ele>
        <time>2024-07-01T10:38:53Z</time>
      </trkpt>
      <trkpt lat="44.84888" lon="5.19675">
        <ele>743.4</ele>
        <time>2024-07-01T10:38:54Z</time>
      </trkpt>
      <trkpt lat="44.84886" lon="5.19675">
        <ele>743.3</ele>
        <time>2024-07-01T10:38:55Z</time>
      </trkpt>
      <trkpt lat="44.84885" lon="5.19675">
        <ele>743.2</ele>
        <time>2024-07-01T10:38:57Z</time>
      </trkpt>
      <trkpt lat="44.84884" lon="5.19675">
        <ele>743.1</ele>
        <time>2024-07-01T10:38:58Z</time>
      </trkpt>
      <trkpt lat="44.84883" lon="5.19675">
        <ele>743.1</ele>
        <time>2024-07-01T10:38:59Z</time>
      </trkpt>
      <trkpt lat="44.84882" lon="5.19674">
        <ele>743</ele>
        <time>2024-07-01T10:39:00Z</time>
      </trkpt>
      <trkpt lat="44.8488" lon="5.19674">
        <ele>742.8</ele>
        <time>2024-07-01T10:39:01Z</time>
      </trkpt>
      <trkpt lat="44.84878" lon="5.19674">
        <ele>742.7</ele>
        <time>2024-07-01T10:39:03Z</time>
      </trkpt>
      <trkpt lat="44.84877" lon="5.19674">
        <ele>742.6</ele>
        <time>2024-07-01T10:39:04Z</time>
      </trkpt>
      <trkpt lat="44.84876" lon="5.19673">
        <ele>742.6</ele>
        <time>2024-07-01T10:39:05Z</time>
      </trkpt>
      <trkpt lat="44.84874" lon="5.19673">
        <ele>742.4</ele>
        <time>2024-07-01T10:39:06Z</time>
      </trkpt>
      <trkpt lat="44.84873" lon="5.19673">
        <ele>742.4</ele>
        <time>2024-07-01T10:39:07Z</time>
      </trkpt>
      <trkpt lat="44.84872" lon="5.19673">
        <ele>742.3</ele>
        <time>2024-07-01T10:39:08Z</time>
      </trkpt>
      <trkpt lat="44.84871" lon="5.19673">
        <ele>742.3</ele>
        <time>2024-07-01T10:39:09Z</time>
      </trkpt>
      <trkpt lat="44.8487" lon="5.19673">
        <ele>742.2</ele>
        <time>2024-07-01T10:39:10Z</time>
      </trkpt>
      <trkpt lat="44.84868" lon="5.19672">
        <ele>742</ele>
        <time>2024-07-01T10:39:11Z</time>
      </trkpt>
      <trkpt lat="44.84866" lon="5.19672">
        <ele>742</ele>
        <time>2024-07-01T10:39:12Z</time>
      </trkpt>
      <trkpt lat="44.84865" lon="5.19672">
        <ele>741.9</ele>
        <time>2024-07-01T10:39:14Z</time>
      </trkpt>
      <trkpt lat="44.84864" lon="5.19672">
        <ele>741.8</ele>
        <time>2024-07-01T10:39:15Z</time>
      </trkpt>
      <trkpt lat="44.84863" lon="5.19673">
        <ele>741.7</ele>
        <time>2024-07-01T10:39:16Z</time>
      </trkpt>
      <trkpt lat="44.84862" lon="5.19673">
        <ele>741.6</ele>
        <time>2024-07-01T10:39:17Z</time>
      </trkpt>
      <trkpt lat="44.84859" lon="5.19673">
        <ele>741.5</ele>
        <time>2024-07-01T10:39:18Z</time>
      </trkpt>
      <trkpt lat="44.84858" lon="5.19673">
        <ele>741.4</ele>
        <time>2024-07-01T10:39:20Z</time>
      </trkpt>
      <trkpt lat="44.84856" lon="5.19674">
        <ele>741.3</ele>
        <time>2024-07-01T10:39:21Z</time>
      </trkpt>
      <trkpt lat="44.84855" lon="5.19674">
        <ele>741.2</ele>
        <time>2024-07-01T10:39:22Z</time>
      </trkpt>
      <trkpt lat="44.84854" lon="5.19674">
        <ele>741.2</ele>
        <time>2024-07-01T10:39:23Z</time>
      </trkpt>
      <trkpt lat="44.84852" lon="5.19675">
        <ele>741</ele>
        <time>2024-07-01T10:39:24Z</time>
      </trkpt>
      <trkpt lat="44.84851" lon="5.19676">
        <ele>741</ele>
        <time>2024-07-01T10:39:26Z</time>
      </trkpt>
      <trkpt lat="44.8485" lon="5.19676">
        <ele>740.9</ele>
        <time>2024-07-01T10:39:27Z</time>
      </trkpt>
      <trkpt lat="44.84849" lon="5.19676">
        <ele>740.8</ele>
        <time>2024-07-01T10:39:28Z</time>
      </trkpt>
      <trkpt lat="44.84846" lon="5.19676">
        <ele>740.7</ele>
        <time>2024-07-01T10:39:29Z</time>
      </trkpt>
      <trkpt lat="44.84845" lon="5.19677">
        <ele>740.6</ele>
        <time>2024-07-01T10:39:31Z</time>
      </trkpt>
      <trkpt lat="44.84844" lon="5.19677">
        <ele>740.6</ele>
        <time>2024-07-01T10:39:32Z</time>
      </trkpt>
      <trkpt lat="44.84843" lon="5.19677">
        <ele>740.5</ele>
        <time>2024-07-01T10:39:33Z</time>
      </trkpt>
      <trkpt lat="44.84842" lon="5.19678">
        <ele>740.4</ele>
        <time>2024-07-01T10:39:34Z</time>
      </trkpt>
      <trkpt lat="44.84839" lon="5.19677">
        <ele>740.3</ele>
        <time>2024-07-01T10:39:35Z</time>
      </trkpt>
      <trkpt lat="44.84838" lon="5.19678">
        <ele>740.2</ele>
        <time>2024-07-01T10:39:37Z</time>
      </trkpt>
      <trkpt lat="44.84837" lon="5.19677">
        <ele>740.2</ele>
        <time>2024-07-01T10:39:38Z</time>
      </trkpt>
      <trkpt lat="44.84835" lon="5.19678">
        <ele>740</ele>
        <time>2024-07-01T10:39:39Z</time>
      </trkpt>
      <trkpt lat="44.84834" lon="5.19678">
        <ele>739.9</ele>
        <time>2024-07-01T10:39:40Z</time>
      </trkpt>
      <trkpt lat="44.84833" lon="5.19678">
        <ele>739.9</ele>
        <time>2024-07-01T10:39:41Z</time>
      </trkpt>
      <trkpt lat="44.84832" lon="5.19678">
        <ele>739.8</ele>
        <time>2024-07-01T10:39:43Z</time>
      </trkpt>
      <trkpt lat="44.84831" lon="5.19678">
        <ele>739.7</ele>
        <time>2024-07-01T10:39:44Z</time>
      </trkpt>
      <trkpt lat="44.8483" lon="5.19678">
        <ele>739.7</ele>
        <time>2024-07-01T10:39:45Z</time>
      </trkpt>
      <trkpt lat="44.84828" lon="5.19677">
        <ele>739.6</ele>
        <time>2024-07-01T10:39:46Z</time>
      </trkpt>
      <trkpt lat="44.84827" lon="5.19677">
        <ele>739.5</ele>
        <time>2024-07-01T10:39:47Z</time>
      </trkpt>
      <trkpt lat="44.84825" lon="5.19676">
        <ele>739.3</ele>
        <time>2024-07-01T10:39:48Z</time>
      </trkpt>
      <trkpt lat="44.84824" lon="5.19675">
        <ele>739.2</ele>
        <time>2024-07-01T10:39:50Z</time>
      </trkpt>
      <trkpt lat="44.84821" lon="5.19674">
        <ele>739</ele>
        <time>2024-07-01T10:39:51Z</time>
      </trkpt>
      <trkpt lat="44.8482" lon="5.19673">
        <ele>739</ele>
        <time>2024-07-01T10:39:52Z</time>
      </trkpt>
      <trkpt lat="44.84819" lon="5.19673">
        <ele>738.9</ele>
        <time>2024-07-01T10:39:53Z</time>
      </trkpt>
      <trkpt lat="44.84818" lon="5.19672">
        <ele>738.7</ele>
        <time>2024-07-01T10:39:55Z</time>
      </trkpt>
      <trkpt lat="44.84817" lon="5.19672">
        <ele>738.7</ele>
        <time>2024-07-01T10:39:56Z</time>
      </trkpt>
      <trkpt lat="44.84816" lon="5.19671">
        <ele>738.6</ele>
        <time>2024-07-01T10:39:57Z</time>
      </trkpt>
      <trkpt lat="44.84815" lon="5.19671">
        <ele>738.5</ele>
        <time>2024-07-01T10:39:58Z</time>
      </trkpt>
      <trkpt lat="44.84814" lon="5.1967">
        <ele>738.4</ele>
        <time>2024-07-01T10:39:59Z</time>
      </trkpt>
      <trkpt lat="44.84811" lon="5.1967">
        <ele>738.2</ele>
        <time>2024-07-01T10:40:00Z</time>
      </trkpt>
      <trkpt lat="44.8481" lon="5.1967">
        <ele>738.1</ele>
        <time>2024-07-01T10:40:02Z</time>
      </trkpt>
      <trkpt lat="44.84809" lon="5.19669">
        <ele>738.1</ele>
        <time>2024-07-01T10:40:03Z</time>
      </trkpt>
      <trkpt lat="44.84808" lon="5.19669">
        <ele>738</ele>
        <time>2024-07-01T10:40:04Z</time>
      </trkpt>
      <trkpt lat="44.84805" lon="5.19669">
        <ele>737.8</ele>
        <time>2024-07-01T10:40:05Z</time>
      </trkpt>
      <trkpt lat="44.84804" lon="5.19669">
        <ele>737.7</ele>
        <time>2024-07-01T10:40:07Z</time>
      </trkpt>
      <trkpt lat="44.84802" lon="5.19669">
        <ele>737.6</ele>
        <time>2024-07-01T10:40:08Z</time>
      </trkpt>
      <trkpt lat="44.84801" lon="5.19669">
        <ele>737.5</ele>
        <time>2024-07-01T10:40:09Z</time>
      </trkpt>
      <trkpt lat="44.848" lon="5.19669">
        <ele>737.5</ele>
        <time>2024-07-01T10:40:10Z</time>
      </trkpt>
      <trkpt lat="44.84797" lon="5.1967">
        <ele>737.2</ele>
        <time>2024-07-01T10:40:11Z</time>
      </trkpt>
      <trkpt lat="44.84796" lon="5.1967">
        <ele>737.2</ele>
        <time>2024-07-01T10:40:13Z</time>
      </trkpt>
      <trkpt lat="44.84794" lon="5.1967">
        <ele>737.1</ele>
        <time>2024-07-01T10:40:14Z</time>
      </trkpt>
      <trkpt lat="44.84793" lon="5.1967">
        <ele>737</ele>
        <time>2024-07-01T10:40:15Z</time>
      </trkpt>
      <trkpt lat="44.84792" lon="5.1967">
        <ele>737</ele>
        <time>2024-07-01T10:40:16Z</time>
      </trkpt>
      <trkpt lat="44.84791" lon="5.1967">
        <ele>736.9</ele>
        <time>2024-07-01T10:40:18Z</time>
      </trkpt>
      <trkpt lat="44.8479" lon="5.1967">
        <ele>736.8</ele>
        <time>2024-07-01T10:40:19Z</time>
      </trkpt>
      <trkpt lat="44.84789" lon="5.1967">
        <ele>736.7</ele>
        <time>2024-07-01T10:40:20Z</time>
      </trkpt>
      <trkpt lat="44.84787" lon="5.19669">
        <ele>736.6</ele>
        <time>2024-07-01T10:40:21Z</time>
      </trkpt>
      <trkpt lat="44.84786" lon="5.19669">
        <ele>736.6</ele>
        <time>2024-07-01T10:40:22Z</time>
      </trkpt>
      <trkpt lat="44.84785" lon="5.19669">
        <ele>736.5</ele>
        <time>2024-07-01T10:40:23Z</time>
      </trkpt>
      <trkpt lat="44.84784" lon="5.19669">
        <ele>736.4</ele>
        <time>2024-07-01T10:40:24Z</time>
      </trkpt>
      <trkpt lat="44.84783" lon="5.19669">
        <ele>736.3</ele>
        <time>2024-07-01T10:40:25Z</time>
      </trkpt>
      <trkpt lat="44.8478" lon="5.19669">
        <ele>736.2</ele>
        <time>2024-07-01T10:40:26Z</time>
      </trkpt>
      <trkpt lat="44.84779" lon="5.19669">
        <ele>736.1</ele>
        <time>2024-07-01T10:40:28Z</time>
      </trkpt>
      <trkpt lat="44.84778" lon="5.19669">
        <ele>736</ele>
        <time>2024-07-01T10:40:29Z</time>
      </trkpt>
      <trkpt lat="44.84777" lon="5.19669">
        <ele>736</ele>
        <time>2024-07-01T10:40:30Z</time>
      </trkpt>
      <trkpt lat="44.84776" lon="5.19669">
        <ele>735.9</ele>
        <time>2024-07-01T10:40:31Z</time>
      </trkpt>
      <trkpt lat="44.84775" lon="5.19669">
        <ele>735.8</ele>
        <time>2024-07-01T10:40:32Z</time>
      </trkpt>
      <trkpt lat="44.84774" lon="5.1967">
        <ele>735.7</ele>
        <time>2024-07-01T10:40:33Z</time>
      </trkpt>
      <trkpt lat="44.84772" lon="5.1967">
        <ele>735.6</ele>
        <time>2024-07-01T10:40:34Z</time>
      </trkpt>
      <trkpt lat="44.8477" lon="5.19671">
        <ele>735.5</ele>
        <time>2024-07-01T10:40:35Z</time>
      </trkpt>
      <trkpt lat="44.84769" lon="5.19671">
        <ele>735.4</ele>
        <time>2024-07-01T10:40:37Z</time>
      </trkpt>
      <trkpt lat="44.84767" lon="5.19671">
        <ele>735.3</ele>
        <time>2024-07-01T10:40:38Z</time>
      </trkpt>
      <trkpt lat="44.84766" lon="5.19671">
        <ele>735.1</ele>
        <time>2024-07-01T10:40:39Z</time>
      </trkpt>
      <trkpt lat="44.84765" lon="5.19672">
        <ele>735</ele>
        <time>2024-07-01T10:40:40Z</time>
      </trkpt>
      <trkpt lat="44.84764" lon="5.19672">
        <ele>734.8</ele>
        <time>2024-07-01T10:40:42Z</time>
      </trkpt>
      <trkpt lat="44.84764" lon="5.19671">
        <ele>734.7</ele>
        <time>2024-07-01T10:40:43Z</time>
      </trkpt>
      <trkpt lat="44.84761" lon="5.1967">
        <ele>734.3</ele>
        <time>2024-07-01T10:40:44Z</time>
      </trkpt>
      <trkpt lat="44.8476" lon="5.1967">
        <ele>734.1</ele>
        <time>2024-07-01T10:40:45Z</time>
      </trkpt>
      <trkpt lat="44.84758" lon="5.1967">
        <ele>733.8</ele>
        <time>2024-07-01T10:40:47Z</time>
      </trkpt>
      <trkpt lat="44.84757" lon="5.19669">
        <ele>733.6</ele>
        <time>2024-07-01T10:40:48Z</time>
      </trkpt>
      <trkpt lat="44.84756" lon="5.19669">
        <ele>733.4</ele>
        <time>2024-07-01T10:40:49Z</time>
      </trkpt>
      <trkpt lat="44.84754" lon="5.19668">
        <ele>733.2</ele>
        <time>2024-07-01T10:40:50Z</time>
      </trkpt>
      <trkpt lat="44.84754" lon="5.19668">
        <ele>733.1</ele>
        <time>2024-07-01T10:40:52Z</time>
      </trkpt>
      <trkpt lat="44.84753" lon="5.19667">
        <ele>733.1</ele>
        <time>2024-07-01T10:40:53Z</time>
      </trkpt>
      <trkpt lat="44.84752" lon="5.19667">
        <ele>732.9</ele>
        <time>2024-07-01T10:40:54Z</time>
      </trkpt>
      <trkpt lat="44.8475" lon="5.19666">
        <ele>732.5</ele>
        <time>2024-07-01T10:40:55Z</time>
      </trkpt>
      <trkpt lat="44.84749" lon="5.19666">
        <ele>732.4</ele>
        <time>2024-07-01T10:40:57Z</time>
      </trkpt>
      <trkpt lat="44.84748" lon="5.19666">
        <ele>732.3</ele>
        <time>2024-07-01T10:40:58Z</time>
      </trkpt>
      <trkpt lat="44.84747" lon="5.19666">
        <ele>732.2</ele>
        <time>2024-07-01T10:40:59Z</time>
      </trkpt>
      <trkpt lat="44.84745" lon="5.19666">
        <ele>731.8</ele>
        <time>2024-07-01T10:41:00Z</time>
      </trkpt>
      <trkpt lat="44.84744" lon="5.19666">
        <ele>731.7</ele>
        <time>2024-07-01T10:41:02Z</time>
      </trkpt>
      <trkpt lat="44.84743" lon="5.19666">
        <ele>731.5</ele>
        <time>2024-07-01T10:41:03Z</time>
      </trkpt>
      <trkpt lat="44.84742" lon="5.19666">
        <ele>731.4</ele>
        <time>2024-07-01T10:41:04Z</time>
      </trkpt>
      <trkpt lat="44.84741" lon="5.19666">
        <ele>731.2</ele>
        <time>2024-07-01T10:41:05Z</time>
      </trkpt>
      <trkpt lat="44.8474" lon="5.19666">
        <ele>731</ele>
        <time>2024-07-01T10:41:06Z</time>
      </trkpt>
      <trkpt lat="44.84739" lon="5.19666">
        <ele>730.9</ele>
        <time>2024-07-01T10:41:07Z</time>
      </trkpt>
      <trkpt lat="44.84738" lon="5.19666">
        <ele>730.7</ele>
        <time>2024-07-01T10:41:08Z</time>
      </trkpt>
      <trkpt lat="44.84737" lon="5.19666">
        <ele>730.5</ele>
        <time>2024-07-01T10:41:09Z</time>
      </trkpt>
      <trkpt lat="44.84734" lon="5.19666">
        <ele>730.1</ele>
        <time>2024-07-01T10:41:10Z</time>
      </trkpt>
      <trkpt lat="44.84733" lon="5.19666">
        <ele>730</ele>
        <time>2024-07-01T10:41:12Z</time>
      </trkpt>
      <trkpt lat="44.84732" lon="5.19666">
        <ele>729.8</ele>
        <time>2024-07-01T10:41:13Z</time>
      </trkpt>
      <trkpt lat="44.84731" lon="5.19667">
        <ele>729.7</ele>
        <time>2024-07-01T10:41:14Z</time>
      </trkpt>
      <trkpt lat="44.84728" lon="5.19668">
        <ele>729.2</ele>
        <time>2024-07-01T10:41:15Z</time>
      </trkpt>
      <trkpt lat="44.84728" lon="5.19669">
        <ele>729.1</ele>
        <time>2024-07-01T10:41:17Z</time>
      </trkpt>
      <trkpt lat="44.84727" lon="5.19669">
        <ele>728.9</ele>
        <time>2024-07-01T10:41:18Z</time>
      </trkpt>
      <trkpt lat="44.84725" lon="5.1967">
        <ele>728.6</ele>
        <time>2024-07-01T10:41:19Z</time>
      </trkpt>
      <trkpt lat="44.84722" lon="5.19671">
        <ele>728.2</ele>
        <time>2024-07-01T10:41:21Z</time>
      </trkpt>
      <trkpt lat="44.84721" lon="5.19671">
        <ele>728.1</ele>
        <time>2024-07-01T10:41:22Z</time>
      </trkpt>
      <trkpt lat="44.8472" lon="5.19671">
        <ele>728</ele>
        <time>2024-07-01T10:41:23Z</time>
      </trkpt>
      <trkpt lat="44.84719" lon="5.19672">
        <ele>727.8</ele>
        <time>2024-07-01T10:41:24Z</time>
      </trkpt>
      <trkpt lat="44.84718" lon="5.19672">
        <ele>727.6</ele>
        <time>2024-07-01T10:41:26Z</time>
      </trkpt>
      <trkpt lat="44.84718" lon="5.19672">
        <ele>727.6</ele>
        <time>2024-07-01T10:41:27Z</time>
      </trkpt>
      <trkpt lat="44.84718" lon="5.19671">
        <ele>727.4</ele>
        <time>2024-07-01T10:41:28Z</time>
      </trkpt>
      <trkpt lat="44.84717" lon="5.19669">
        <ele>727.3</ele>
        <time>2024-07-01T10:41:29Z</time>
      </trkpt>
      <trkpt lat="44.84715" lon="5.19667">
        <ele>726.9</ele>
        <time>2024-07-01T10:41:30Z</time>
      </trkpt>
      <trkpt lat="44.84714" lon="5.19666">
        <ele>726.7</ele>
        <time>2024-07-01T10:41:31Z</time>
      </trkpt>
      <trkpt lat="44.84713" lon="5.19664">
        <ele>726.5</ele>
        <time>2024-07-01T10:41:32Z</time>
      </trkpt>
      <trkpt lat="44.84712" lon="5.19664">
        <ele>726.3</ele>
        <time>2024-07-01T10:41:33Z</time>
      </trkpt>
      <trkpt lat="44.84711" lon="5.19663">
        <ele>726.2</ele>
        <time>2024-07-01T10:41:34Z</time>
      </trkpt>
      <trkpt lat="44.84709" lon="5.19663">
        <ele>726</ele>
        <time>2024-07-01T10:41:35Z</time>
      </trkpt>
      <trkpt lat="44.84708" lon="5.19662">
        <ele>725.7</ele>
        <time>2024-07-01T10:41:37Z</time>
      </trkpt>
      <trkpt lat="44.84707" lon="5.19662">
        <ele>725.6</ele>
        <time>2024-07-01T10:41:38Z</time>
      </trkpt>
      <trkpt lat="44.84706" lon="5.19661">
        <ele>725.4</ele>
        <time>2024-07-01T10:41:39Z</time>
      </trkpt>
      <trkpt lat="44.84705" lon="5.19661">
        <ele>725.2</ele>
        <time>2024-07-01T10:41:40Z</time>
      </trkpt>
      <trkpt lat="44.84702" lon="5.19659">
        <ele>724.9</ele>
        <time>2024-07-01T10:41:41Z</time>
      </trkpt>
      <trkpt lat="44.84702" lon="5.19659">
        <ele>724.7</ele>
        <time>2024-07-01T10:41:42Z</time>
      </trkpt>
      <trkpt lat="44.84701" lon="5.19659">
        <ele>724.6</ele>
        <time>2024-07-01T10:41:43Z</time>
      </trkpt>
      <trkpt lat="44.84698" lon="5.19658">
        <ele>724.3</ele>
        <time>2024-07-01T10:41:44Z</time>
      </trkpt>
      <trkpt lat="44.84697" lon="5.19658">
        <ele>724.1</ele>
        <time>2024-07-01T10:41:45Z</time>
      </trkpt>
      <trkpt lat="44.84696" lon="5.19657">
        <ele>723.9</ele>
        <time>2024-07-01T10:41:46Z</time>
      </trkpt>
      <trkpt lat="44.84695" lon="5.19657">
        <ele>723.7</ele>
        <time>2024-07-01T10:41:47Z</time>
      </trkpt>
      <trkpt lat="44.84694" lon="5.19656">
        <ele>723.6</ele>
        <time>2024-07-01T10:41:49Z</time>
      </trkpt>
      <trkpt lat="44.84692" lon="5.19654">
        <ele>723.2</ele>
        <time>2024-07-01T10:41:50Z</time>
      </trkpt>
      <trkpt lat="44.84692" lon="5.19653">
        <ele>723.1</ele>
        <time>2024-07-01T10:41:52Z</time>
      </trkpt>
      <trkpt lat="44.84692" lon="5.19652">
        <ele>723</ele>
        <time>2024-07-01T10:41:53Z</time>
      </trkpt>
      <trkpt lat="44.84694" lon="5.19649">
        <ele>722.6</ele>
        <time>2024-07-01T10:41:54Z</time>
      </trkpt>
      <trkpt lat="44.84695" lon="5.19648">
        <ele>722.4</ele>
        <time>2024-07-01T10:41:56Z</time>
      </trkpt>
      <trkpt lat="44.84695" lon="5.19647">
        <ele>722.3</ele>
        <time>2024-07-01T10:41:57Z</time>
      </trkpt>
      <trkpt lat="44.84696" lon="5.19644">
        <ele>722</ele>
        <time>2024-07-01T10:41:58Z</time>
      </trkpt>
      <trkpt lat="44.84697" lon="5.19642">
        <ele>721.8</ele>
        <time>2024-07-01T10:42:00Z</time>
      </trkpt>
      <trkpt lat="44.84697" lon="5.1964">
        <ele>721.6</ele>
        <time>2024-07-01T10:42:01Z</time>
      </trkpt>
      <trkpt lat="44.84697" lon="5.19635">
        <ele>721.2</ele>
        <time>2024-07-01T10:42:02Z</time>
      </trkpt>
      <trkpt lat="44.84697" lon="5.19634">
        <ele>721</ele>
        <time>2024-07-01T10:42:04Z</time>
      </trkpt>
      <trkpt lat="44.84697" lon="5.19632">
        <ele>720.8</ele>
        <time>2024-07-01T10:42:05Z</time>
      </trkpt>
      <trkpt lat="44.84696" lon="5.1963">
        <ele>720.6</ele>
        <time>2024-07-01T10:42:06Z</time>
      </trkpt>
      <trkpt lat="44.84696" lon="5.19628">
        <ele>720.4</ele>
        <time>2024-07-01T10:42:07Z</time>
      </trkpt>
      <trkpt lat="44.84696" lon="5.19626">
        <ele>720.3</ele>
        <time>2024-07-01T10:42:09Z</time>
      </trkpt>
      <trkpt lat="44.84696" lon="5.19624">
        <ele>720</ele>
        <time>2024-07-01T10:42:10Z</time>
      </trkpt>
      <trkpt lat="44.84696" lon="5.19622">
        <ele>719.9</ele>
        <time>2024-07-01T10:42:11Z</time>
      </trkpt>
      <trkpt lat="44.84696" lon="5.1962">
        <ele>719.7</ele>
        <time>2024-07-01T10:42:12Z</time>
      </trkpt>
      <trkpt lat="44.84696" lon="5.19619">
        <ele>719.6</ele>
        <time>2024-07-01T10:42:14Z</time>
      </trkpt>
      <trkpt lat="44.84696" lon="5.19616">
        <ele>719.3</ele>
        <time>2024-07-01T10:42:15Z</time>
      </trkpt>
      <trkpt lat="44.84696" lon="5.19614">
        <ele>719.2</ele>
        <time>2024-07-01T10:42:16Z</time>
      </trkpt>
      <trkpt lat="44.84696" lon="5.19613">
        <ele>719.1</ele>
        <time>2024-07-01T10:42:17Z</time>
      </trkpt>
      <trkpt lat="44.84695" lon="5.19611">
        <ele>719</ele>
        <time>2024-07-01T10:42:18Z</time>
      </trkpt>
      <trkpt lat="44.84695" lon="5.1961">
        <ele>718.9</ele>
        <time>2024-07-01T10:42:20Z</time>
      </trkpt>
      <trkpt lat="44.84695" lon="5.19609">
        <ele>718.8</ele>
        <time>2024-07-01T10:42:21Z</time>
      </trkpt>
      <trkpt lat="44.84695" lon="5.19607">
        <ele>718.6</ele>
        <time>2024-07-01T10:42:22Z</time>
      </trkpt>
      <trkpt lat="44.84695" lon="5.19605">
        <ele>718.5</ele>
        <time>2024-07-01T10:42:23Z</time>
      </trkpt>
      <trkpt lat="44.84696" lon="5.19603">
        <ele>718.3</ele>
        <time>2024-07-01T10:42:25Z</time>
      </trkpt>
      <trkpt lat="44.84696" lon="5.19601">
        <ele>718.2</ele>
        <time>2024-07-01T10:42:27Z</time>
      </trkpt>
      <trkpt lat="44.84696" lon="5.196">
        <ele>718.1</ele>
        <time>2024-07-01T10:42:28Z</time>
      </trkpt>
      <trkpt lat="44.84696" lon="5.19598">
        <ele>718</ele>
        <time>2024-07-01T10:42:29Z</time>
      </trkpt>
      <trkpt lat="44.84697" lon="5.19597">
        <ele>717.9</ele>
        <time>2024-07-01T10:42:30Z</time>
      </trkpt>
      <trkpt lat="44.84697" lon="5.19595">
        <ele>717.8</ele>
        <time>2024-07-01T10:42:31Z</time>
      </trkpt>
      <trkpt lat="44.84697" lon="5.19593">
        <ele>717.6</ele>
        <time>2024-07-01T10:42:32Z</time>
      </trkpt>
      <trkpt lat="44.84698" lon="5.19593">
        <ele>717.5</ele>
        <time>2024-07-01T10:42:33Z</time>
      </trkpt>
      <trkpt lat="44.84698" lon="5.19591">
        <ele>717.4</ele>
        <time>2024-07-01T10:42:34Z</time>
      </trkpt>
      <trkpt lat="44.84699" lon="5.19588">
        <ele>717.2</ele>
        <time>2024-07-01T10:42:35Z</time>
      </trkpt>
      <trkpt lat="44.847" lon="5.19587">
        <ele>717</ele>
        <time>2024-07-01T10:42:37Z</time>
      </trkpt>
      <trkpt lat="44.84701" lon="5.19586">
        <ele>716.9</ele>
        <time>2024-07-01T10:42:38Z</time>
      </trkpt>
      <trkpt lat="44.84702" lon="5.19583">
        <ele>716.6</ele>
        <time>2024-07-01T10:42:39Z</time>
      </trkpt>
      <trkpt lat="44.84703" lon="5.19582">
        <ele>716.5</ele>
        <time>2024-07-01T10:42:40Z</time>
      </trkpt>
      <trkpt lat="44.84705" lon="5.19578">
        <ele>716.1</ele>
        <time>2024-07-01T10:42:42Z</time>
      </trkpt>
      <trkpt lat="44.84705" lon="5.19577">
        <ele>716</ele>
        <time>2024-07-01T10:42:43Z</time>
      </trkpt>
      <trkpt lat="44.84706" lon="5.19576">
        <ele>715.9</ele>
        <time>2024-07-01T10:42:45Z</time>
      </trkpt>
      <trkpt lat="44.84707" lon="5.19575">
        <ele>715.8</ele>
        <time>2024-07-01T10:42:46Z</time>
      </trkpt>
      <trkpt lat="44.84707" lon="5.19574">
        <ele>715.7</ele>
        <time>2024-07-01T10:42:47Z</time>
      </trkpt>
      <trkpt lat="44.84708" lon="5.19573">
        <ele>715.5</ele>
        <time>2024-07-01T10:42:48Z</time>
      </trkpt>
      <trkpt lat="44.84709" lon="5.19571">
        <ele>715.3</ele>
        <time>2024-07-01T10:42:50Z</time>
      </trkpt>
      <trkpt lat="44.8471" lon="5.19571">
        <ele>715.2</ele>
        <time>2024-07-01T10:42:51Z</time>
      </trkpt>
      <trkpt lat="44.84712" lon="5.19569">
        <ele>714.9</ele>
        <time>2024-07-01T10:42:52Z</time>
      </trkpt>
      <trkpt lat="44.84713" lon="5.19568">
        <ele>714.7</ele>
        <time>2024-07-01T10:42:53Z</time>
      </trkpt>
      <trkpt lat="44.84714" lon="5.19567">
        <ele>714.6</ele>
        <time>2024-07-01T10:42:55Z</time>
      </trkpt>
      <trkpt lat="44.84715" lon="5.19567">
        <ele>714.4</ele>
        <time>2024-07-01T10:42:56Z</time>
      </trkpt>
      <trkpt lat="44.84716" lon="5.19566">
        <ele>714.3</ele>
        <time>2024-07-01T10:42:57Z</time>
      </trkpt>
      <trkpt lat="44.84717" lon="5.19565">
        <ele>714.1</ele>
        <time>2024-07-01T10:42:58Z</time>
      </trkpt>
      <trkpt lat="44.84718" lon="5.19564">
        <ele>713.9</ele>
        <time>2024-07-01T10:43:00Z</time>
      </trkpt>
      <trkpt lat="44.84719" lon="5.19563">
        <ele>713.8</ele>
        <time>2024-07-01T10:43:01Z</time>
      </trkpt>
      <trkpt lat="44.8472" lon="5.19562">
        <ele>713.6</ele>
        <time>2024-07-01T10:43:02Z</time>
      </trkpt>
      <trkpt lat="44.84722" lon="5.1956">
        <ele>713.3</ele>
        <time>2024-07-01T10:43:03Z</time>
      </trkpt>
      <trkpt lat="44.84723" lon="5.19559">
        <ele>713.1</ele>
        <time>2024-07-01T10:43:04Z</time>
      </trkpt>
      <trkpt lat="44.84724" lon="5.19558">
        <ele>713</ele>
        <time>2024-07-01T10:43:06Z</time>
      </trkpt>
      <trkpt lat="44.84724" lon="5.19558">
        <ele>712.8</ele>
        <time>2024-07-01T10:43:07Z</time>
      </trkpt>
      <trkpt lat="44.84725" lon="5.19557">
        <ele>712.7</ele>
        <time>2024-07-01T10:43:08Z</time>
      </trkpt>
      <trkpt lat="44.84726" lon="5.19555">
        <ele>712.5</ele>
        <time>2024-07-01T10:43:09Z</time>
      </trkpt>
      <trkpt lat="44.84727" lon="5.19554">
        <ele>712.3</ele>
        <time>2024-07-01T10:43:10Z</time>
      </trkpt>
      <trkpt lat="44.84728" lon="5.19553">
        <ele>712.2</ele>
        <time>2024-07-01T10:43:11Z</time>
      </trkpt>
      <trkpt lat="44.84728" lon="5.19552">
        <ele>712</ele>
        <time>2024-07-01T10:43:12Z</time>
      </trkpt>
      <trkpt lat="44.84729" lon="5.19551">
        <ele>711.9</ele>
        <time>2024-07-01T10:43:13Z</time>
      </trkpt>
      <trkpt lat="44.8473" lon="5.19551">
        <ele>711.7</ele>
        <time>2024-07-01T10:43:14Z</time>
      </trkpt>
      <trkpt lat="44.84731" lon="5.19549">
        <ele>711.5</ele>
        <time>2024-07-01T10:43:15Z</time>
      </trkpt>
      <trkpt lat="44.84732" lon="5.19549">
        <ele>711.4</ele>
        <time>2024-07-01T10:43:16Z</time>
      </trkpt>
      <trkpt lat="44.84732" lon="5.19548">
        <ele>711.3</ele>
        <time>2024-07-01T10:43:17Z</time>
      </trkpt>
      <trkpt lat="44.84734" lon="5.19546">
        <ele>710.9</ele>
        <time>2024-07-01T10:43:18Z</time>
      </trkpt>
      <trkpt lat="44.84734" lon="5.19544">
        <ele>710.7</ele>
        <time>2024-07-01T10:43:20Z</time>
      </trkpt>
      <trkpt lat="44.84735" lon="5.19543">
        <ele>710.6</ele>
        <time>2024-07-01T10:43:21Z</time>
      </trkpt>
      <trkpt lat="44.84736" lon="5.19542">
        <ele>710.4</ele>
        <time>2024-07-01T10:43:22Z</time>
      </trkpt>
      <trkpt lat="44.84738" lon="5.19539">
        <ele>710.1</ele>
        <time>2024-07-01T10:43:23Z</time>
      </trkpt>
      <trkpt lat="44.84739" lon="5.19537">
        <ele>709.8</ele>
        <time>2024-07-01T10:43:24Z</time>
      </trkpt>
      <trkpt lat="44.84739" lon="5.19536">
        <ele>709.7</ele>
        <time>2024-07-01T10:43:26Z</time>
      </trkpt>
      <trkpt lat="44.8474" lon="5.19535">
        <ele>709.6</ele>
        <time>2024-07-01T10:43:27Z</time>
      </trkpt>
      <trkpt lat="44.84741" lon="5.19534">
        <ele>709.4</ele>
        <time>2024-07-01T10:43:28Z</time>
      </trkpt>
      <trkpt lat="44.84742" lon="5.19532">
        <ele>709.1</ele>
        <time>2024-07-01T10:43:29Z</time>
      </trkpt>
      <trkpt lat="44.84743" lon="5.1953">
        <ele>708.8</ele>
        <time>2024-07-01T10:43:31Z</time>
      </trkpt>
      <trkpt lat="44.84744" lon="5.19529">
        <ele>708.7</ele>
        <time>2024-07-01T10:43:32Z</time>
      </trkpt>
      <trkpt lat="44.84745" lon="5.19528">
        <ele>708.6</ele>
        <time>2024-07-01T10:43:33Z</time>
      </trkpt>
      <trkpt lat="44.84747" lon="5.19526">
        <ele>708.2</ele>
        <time>2024-07-01T10:43:34Z</time>
      </trkpt>
      <trkpt lat="44.84748" lon="5.19526">
        <ele>708</ele>
        <time>2024-07-01T10:43:36Z</time>
      </trkpt>
      <trkpt lat="44.8475" lon="5.19525">
        <ele>707.7</ele>
        <time>2024-07-01T10:43:37Z</time>
      </trkpt>
      <trkpt lat="44.84751" lon="5.19525">
        <ele>707.5</ele>
        <time>2024-07-01T10:43:38Z</time>
      </trkpt>
      <trkpt lat="44.84754" lon="5.19524">
        <ele>707</ele>
        <time>2024-07-01T10:43:39Z</time>
      </trkpt>
      <trkpt lat="44.84756" lon="5.19523">
        <ele>706.8</ele>
        <time>2024-07-01T10:43:41Z</time>
      </trkpt>
      <trkpt lat="44.84758" lon="5.19523">
        <ele>706.5</ele>
        <time>2024-07-01T10:43:42Z</time>
      </trkpt>
      <trkpt lat="44.8476" lon="5.19521">
        <ele>706.1</ele>
        <time>2024-07-01T10:43:43Z</time>
      </trkpt>
      <trkpt lat="44.84761" lon="5.19521">
        <ele>705.9</ele>
        <time>2024-07-01T10:43:44Z</time>
      </trkpt>
      <trkpt lat="44.84762" lon="5.1952">
        <ele>705.7</ele>
        <time>2024-07-01T10:43:46Z</time>
      </trkpt>
      <trkpt lat="44.84764" lon="5.19519">
        <ele>705.4</ele>
        <time>2024-07-01T10:43:47Z</time>
      </trkpt>
      <trkpt lat="44.84766" lon="5.19517">
        <ele>705.1</ele>
        <time>2024-07-01T10:43:48Z</time>
      </trkpt>
      <trkpt lat="44.84767" lon="5.19516">
        <ele>704.9</ele>
        <time>2024-07-01T10:43:49Z</time>
      </trkpt>
      <trkpt lat="44.84768" lon="5.19515">
        <ele>704.7</ele>
        <time>2024-07-01T10:43:50Z</time>
      </trkpt>
      <trkpt lat="44.8477" lon="5.19514">
        <ele>704.4</ele>
        <time>2024-07-01T10:43:52Z</time>
      </trkpt>
      <trkpt lat="44.84771" lon="5.19513">
        <ele>704.2</ele>
        <time>2024-07-01T10:43:53Z</time>
      </trkpt>
      <trkpt lat="44.84772" lon="5.19512">
        <ele>704.1</ele>
        <time>2024-07-01T10:43:54Z</time>
      </trkpt>
      <trkpt lat="44.84773" lon="5.19511">
        <ele>703.9</ele>
        <time>2024-07-01T10:43:55Z</time>
      </trkpt>
      <trkpt lat="44.84775" lon="5.19509">
        <ele>703.5</ele>
        <time>2024-07-01T10:43:56Z</time>
      </trkpt>
      <trkpt lat="44.84776" lon="5.19508">
        <ele>703.3</ele>
        <time>2024-07-01T10:43:58Z</time>
      </trkpt>
      <trkpt lat="44.84777" lon="5.19508">
        <ele>703.2</ele>
        <time>2024-07-01T10:43:59Z</time>
      </trkpt>
      <trkpt lat="44.84777" lon="5.19507">
        <ele>703</ele>
        <time>2024-07-01T10:44:00Z</time>
      </trkpt>
      <trkpt lat="44.84778" lon="5.19506">
        <ele>702.9</ele>
        <time>2024-07-01T10:44:01Z</time>
      </trkpt>
      <trkpt lat="44.8478" lon="5.19504">
        <ele>702.6</ele>
        <time>2024-07-01T10:44:02Z</time>
      </trkpt>
      <trkpt lat="44.84781" lon="5.19503">
        <ele>702.4</ele>
        <time>2024-07-01T10:44:04Z</time>
      </trkpt>
      <trkpt lat="44.84782" lon="5.19503">
        <ele>702.2</ele>
        <time>2024-07-01T10:44:05Z</time>
      </trkpt>
      <trkpt lat="44.84783" lon="5.19502">
        <ele>702.1</ele>
        <time>2024-07-01T10:44:06Z</time>
      </trkpt>
      <trkpt lat="44.84785" lon="5.195">
        <ele>701.7</ele>
        <time>2024-07-01T10:44:07Z</time>
      </trkpt>
      <trkpt lat="44.84787" lon="5.19499">
        <ele>701.3</ele>
        <time>2024-07-01T10:44:09Z</time>
      </trkpt>
      <trkpt lat="44.84788" lon="5.19498">
        <ele>701.2</ele>
        <time>2024-07-01T10:44:10Z</time>
      </trkpt>
      <trkpt lat="44.84789" lon="5.19497">
        <ele>701</ele>
        <time>2024-07-01T10:44:11Z</time>
      </trkpt>
      <trkpt lat="44.84789" lon="5.19497">
        <ele>700.9</ele>
        <time>2024-07-01T10:44:12Z</time>
      </trkpt>
      <trkpt lat="44.84792" lon="5.19495">
        <ele>700.5</ele>
        <time>2024-07-01T10:44:13Z</time>
      </trkpt>
      <trkpt lat="44.84793" lon="5.19494">
        <ele>700.4</ele>
        <time>2024-07-01T10:44:15Z</time>
      </trkpt>
      <trkpt lat="44.84794" lon="5.19494">
        <ele>700.2</ele>
        <time>2024-07-01T10:44:16Z</time>
      </trkpt>
      <trkpt lat="44.84795" lon="5.19493">
        <ele>700</ele>
        <time>2024-07-01T10:44:17Z</time>
      </trkpt>
      <trkpt lat="44.84796" lon="5.19491">
        <ele>699.7</ele>
        <time>2024-07-01T10:44:18Z</time>
      </trkpt>
      <trkpt lat="44.84798" lon="5.1949">
        <ele>699.5</ele>
        <time>2024-07-01T10:44:19Z</time>
      </trkpt>
      <trkpt lat="44.84799" lon="5.19489">
        <ele>699.3</ele>
        <time>2024-07-01T10:44:21Z</time>
      </trkpt>
      <trkpt lat="44.84799" lon="5.19488">
        <ele>699.1</ele>
        <time>2024-07-01T10:44:22Z</time>
      </trkpt>
      <trkpt lat="44.848" lon="5.19487">
        <ele>699</ele>
        <time>2024-07-01T10:44:23Z</time>
      </trkpt>
      <trkpt lat="44.84802" lon="5.19485">
        <ele>698.6</ele>
        <time>2024-07-01T10:44:24Z</time>
      </trkpt>
      <trkpt lat="44.84803" lon="5.19483">
        <ele>698.3</ele>
        <time>2024-07-01T10:44:26Z</time>
      </trkpt>
      <trkpt lat="44.84805" lon="5.19482">
        <ele>698.1</ele>
        <time>2024-07-01T10:44:27Z</time>
      </trkpt>
      <trkpt lat="44.84806" lon="5.19481">
        <ele>697.9</ele>
        <time>2024-07-01T10:44:28Z</time>
      </trkpt>
      <trkpt lat="44.84808" lon="5.19479">
        <ele>697.5</ele>
        <time>2024-07-01T10:44:29Z</time>
      </trkpt>
      <trkpt lat="44.84809" lon="5.19478">
        <ele>697.3</ele>
        <time>2024-07-01T10:44:31Z</time>
      </trkpt>
      <trkpt lat="44.8481" lon="5.19478">
        <ele>697.1</ele>
        <time>2024-07-01T10:44:32Z</time>
      </trkpt>
      <trkpt lat="44.84811" lon="5.19477">
        <ele>696.9</ele>
        <time>2024-07-01T10:44:33Z</time>
      </trkpt>
      <trkpt lat="44.84812" lon="5.19476">
        <ele>696.7</ele>
        <time>2024-07-01T10:44:34Z</time>
      </trkpt>
      <trkpt lat="44.84814" lon="5.19474">
        <ele>696.4</ele>
        <time>2024-07-01T10:44:35Z</time>
      </trkpt>
      <trkpt lat="44.84815" lon="5.19473">
        <ele>696.2</ele>
        <time>2024-07-01T10:44:37Z</time>
      </trkpt>
      <trkpt lat="44.84816" lon="5.19472">
        <ele>696.1</ele>
        <time>2024-07-01T10:44:38Z</time>
      </trkpt>
      <trkpt lat="44.84817" lon="5.19471">
        <ele>695.9</ele>
        <time>2024-07-01T10:44:39Z</time>
      </trkpt>
      <trkpt lat="44.84819" lon="5.1947">
        <ele>695.6</ele>
        <time>2024-07-01T10:44:40Z</time>
      </trkpt>
      <trkpt lat="44.8482" lon="5.19469">
        <ele>695.4</ele>
        <time>2024-07-01T10:44:42Z</time>
      </trkpt>
      <trkpt lat="44.84821" lon="5.19469">
        <ele>695.3</ele>
        <time>2024-07-01T10:44:43Z</time>
      </trkpt>
      <trkpt lat="44.84822" lon="5.19468">
        <ele>695.1</ele>
        <time>2024-07-01T10:44:44Z</time>
      </trkpt>
      <trkpt lat="44.84824" lon="5.19466">
        <ele>694.8</ele>
        <time>2024-07-01T10:44:45Z</time>
      </trkpt>
      <trkpt lat="44.84825" lon="5.19466">
        <ele>694.6</ele>
        <time>2024-07-01T10:44:47Z</time>
      </trkpt>
      <trkpt lat="44.84826" lon="5.19465">
        <ele>694.5</ele>
        <time>2024-07-01T10:44:48Z</time>
      </trkpt>
      <trkpt lat="44.84827" lon="5.19464">
        <ele>694.3</ele>
        <time>2024-07-01T10:44:49Z</time>
      </trkpt>
      <trkpt lat="44.84828" lon="5.19464">
        <ele>694.1</ele>
        <time>2024-07-01T10:44:50Z</time>
      </trkpt>
      <trkpt lat="44.84829" lon="5.19463">
        <ele>694</ele>
        <time>2024-07-01T10:44:51Z</time>
      </trkpt>
      <trkpt lat="44.8483" lon="5.19462">
        <ele>693.8</ele>
        <time>2024-07-01T10:44:52Z</time>
      </trkpt>
      <trkpt lat="44.84831" lon="5.19462">
        <ele>693.7</ele>
        <time>2024-07-01T10:44:53Z</time>
      </trkpt>
      <trkpt lat="44.84832" lon="5.19462">
        <ele>693.5</ele>
        <time>2024-07-01T10:44:54Z</time>
      </trkpt>
      <trkpt lat="44.84834" lon="5.19461">
        <ele>693.3</ele>
        <time>2024-07-01T10:44:55Z</time>
      </trkpt>
      <trkpt lat="44.84834" lon="5.1946">
        <ele>693.2</ele>
        <time>2024-07-01T10:44:56Z</time>
      </trkpt>
      <trkpt lat="44.84836" lon="5.19458">
        <ele>692.9</ele>
        <time>2024-07-01T10:44:57Z</time>
      </trkpt>
      <trkpt lat="44.84837" lon="5.19457">
        <ele>692.7</ele>
        <time>2024-07-01T10:44:59Z</time>
      </trkpt>
      <trkpt lat="44.84838" lon="5.19456">
        <ele>692.6</ele>
        <time>2024-07-01T10:45:00Z</time>
      </trkpt>
      <trkpt lat="44.84839" lon="5.19455">
        <ele>692.4</ele>
        <time>2024-07-01T10:45:01Z</time>
      </trkpt>
      <trkpt lat="44.8484" lon="5.19454">
        <ele>692.3</ele>
        <time>2024-07-01T10:45:02Z</time>
      </trkpt>
      <trkpt lat="44.84841" lon="5.19451">
        <ele>691.9</ele>
        <time>2024-07-01T10:45:03Z</time>
      </trkpt>
      <trkpt lat="44.84842" lon="5.1945">
        <ele>691.7</ele>
        <time>2024-07-01T10:45:04Z</time>
      </trkpt>
      <trkpt lat="44.84843" lon="5.19449">
        <ele>691.6</ele>
        <time>2024-07-01T10:45:06Z</time>
      </trkpt>
      <trkpt lat="44.84844" lon="5.19449">
        <ele>691.4</ele>
        <time>2024-07-01T10:45:07Z</time>
      </trkpt>
      <trkpt lat="44.84845" lon="5.19447">
        <ele>691.2</ele>
        <time>2024-07-01T10:45:08Z</time>
      </trkpt>
      <trkpt lat="44.84845" lon="5.19447">
        <ele>691.2</ele>
        <time>2024-07-01T10:45:09Z</time>
      </trkpt>
      <trkpt lat="44.84845" lon="5.19447">
        <ele>691.2</ele>
        <time>2024-07-01T10:45:10Z</time>
      </trkpt>
      <trkpt lat="44.84845" lon="5.19447">
        <ele>691.2</ele>
        <time>2024-07-01T10:45:11Z</time>
      </trkpt>
      <trkpt lat="44.84845" lon="5.19448">
        <ele>691.2</ele>
        <time>2024-07-01T10:45:12Z</time>
      </trkpt>
      <trkpt lat="44.84846" lon="5.19448">
        <ele>691.1</ele>
        <time>2024-07-01T10:45:13Z</time>
      </trkpt>
      <trkpt lat="44.84846" lon="5.19448">
        <ele>691.1</ele>
        <time>2024-07-01T10:45:14Z</time>
      </trkpt>
      <trkpt lat="44.84846" lon="5.19448">
        <ele>691.1</ele>
        <time>2024-07-01T10:45:15Z</time>
      </trkpt>
      <trkpt lat="44.84846" lon="5.19448">
        <ele>691.1</ele>
        <time>2024-07-01T10:45:16Z</time>
      </trkpt>
      <trkpt lat="44.84846" lon="5.19448">
        <ele>691.1</ele>
        <time>2024-07-01T10:45:17Z</time>
      </trkpt>
      <trkpt lat="44.84846" lon="5.19448">
        <ele>691.1</ele>
        <time>2024-07-01T10:45:18Z</time>
      </trkpt>
      <trkpt lat="44.84846" lon="5.19448">
        <ele>691</ele>
        <time>2024-07-01T10:45:19Z</time>
      </trkpt>
      <trkpt lat="44.84846" lon="5.19448">
        <ele>691</ele>
        <time>2024-07-01T10:45:20Z</time>
      </trkpt>
      <trkpt lat="44.84846" lon="5.19448">
        <ele>691</ele>
        <time>2024-07-01T10:45:21Z</time>
      </trkpt>
      <trkpt lat="44.84847" lon="5.19448">
        <ele>691</ele>
        <time>2024-07-01T10:45:22Z</time>
      </trkpt>
      <trkpt lat="44.84847" lon="5.19448">
        <ele>691</ele>
        <time>2024-07-01T10:45:23Z</time>
      </trkpt>
      <trkpt lat="44.84847" lon="5.19448">
        <ele>691</ele>
        <time>2024-07-01T10:45:24Z</time>
      </trkpt>
      <trkpt lat="44.84847" lon="5.19448">
        <ele>690.9</ele>
        <time>2024-07-01T10:45:25Z</time>
      </trkpt>
      <trkpt lat="44.84847" lon="5.19448">
        <ele>690.9</ele>
        <time>2024-07-01T10:45:26Z</time>
      </trkpt>
      <trkpt lat="44.84847" lon="5.19448">
        <ele>690.9</ele>
        <time>2024-07-01T10:45:27Z</time>
      </trkpt>
      <trkpt lat="44.84847" lon="5.19448">
        <ele>690.9</ele>
        <time>2024-07-01T10:45:28Z</time>
      </trkpt>
      <trkpt lat="44.84847" lon="5.19448">
        <ele>690.9</ele>
        <time>2024-07-01T10:45:29Z</time>
      </trkpt>
      <trkpt lat="44.84847" lon="5.19448">
        <ele>690.9</ele>
        <time>2024-07-01T10:45:30Z</time>
      </trkpt>
      <trkpt lat="44.84848" lon="5.19448">
        <ele>690.8</ele>
        <time>2024-07-01T10:45:31Z</time>
      </trkpt>
      <trkpt lat="44.84848" lon="5.19448">
        <ele>690.8</ele>
        <time>2024-07-01T10:45:32Z</time>
      </trkpt>
      <trkpt lat="44.84848" lon="5.19448">
        <ele>690.7</ele>
        <time>2024-07-01T10:45:33Z</time>
      </trkpt>
      <trkpt lat="44.84849" lon="5.19448">
        <ele>690.7</ele>
        <time>2024-07-01T10:45:34Z</time>
      </trkpt>
      <trkpt lat="44.84849" lon="5.19448">
        <ele>690.7</ele>
        <time>2024-07-01T10:45:35Z</time>
      </trkpt>
      <trkpt lat="44.84849" lon="5.19448">
        <ele>690.7</ele>
        <time>2024-07-01T10:45:36Z</time>
      </trkpt>
      <trkpt lat="44.84849" lon="5.19448">
        <ele>690.6</ele>
        <time>2024-07-01T10:45:37Z</time>
      </trkpt>
      <trkpt lat="44.84849" lon="5.19448">
        <ele>690.6</ele>
        <time>2024-07-01T10:45:38Z</time>
      </trkpt>
      <trkpt lat="44.84849" lon="5.19448">
        <ele>690.6</ele>
        <time>2024-07-01T10:45:39Z</time>
      </trkpt>
      <trkpt lat="44.84849" lon="5.19448">
        <ele>690.6</ele>
        <time>2024-07-01T10:45:40Z</time>
      </trkpt>
      <trkpt lat="44.84849" lon="5.19448">
        <ele>690.6</ele>
        <time>2024-07-01T10:45:41Z</time>
      </trkpt>
      <trkpt lat="44.8485" lon="5.19448">
        <ele>690.5</ele>
        <time>2024-07-01T10:45:42Z</time>
      </trkpt>
      <trkpt lat="44.8485" lon="5.19448">
        <ele>690.5</ele>
        <time>2024-07-01T10:45:43Z</time>
      </trkpt>
      <trkpt lat="44.8485" lon="5.19448">
        <ele>690.5</ele>
        <time>2024-07-01T10:45:44Z</time>
      </trkpt>
      <trkpt lat="44.8485" lon="5.19448">
        <ele>690.5</ele>
        <time>2024-07-01T10:45:45Z</time>
      </trkpt>
      <trkpt lat="44.8485" lon="5.19448">
        <ele>690.5</ele>
        <time>2024-07-01T10:45:46Z</time>
      </trkpt>
      <trkpt lat="44.8485" lon="5.19448">
        <ele>690.4</ele>
        <time>2024-07-01T10:45:47Z</time>
      </trkpt>
      <trkpt lat="44.8485" lon="5.19448">
        <ele>690.4</ele>
        <time>2024-07-01T10:45:48Z</time>
      </trkpt>
      <trkpt lat="44.8485" lon="5.19448">
        <ele>690.4</ele>
        <time>2024-07-01T10:45:49Z</time>
      </trkpt>
      <trkpt lat="44.84851" lon="5.19448">
        <ele>690.4</ele>
        <time>2024-07-01T10:45:50Z</time>
      </trkpt>
      <trkpt lat="44.84851" lon="5.19447">
        <ele>690.4</ele>
        <time>2024-07-01T10:45:51Z</time>
      </trkpt>
      <trkpt lat="44.84851" lon="5.19447">
        <ele>690.3</ele>
        <time>2024-07-01T10:45:52Z</time>
      </trkpt>
      <trkpt lat="44.84851" lon="5.19447">
        <ele>690.3</ele>
        <time>2024-07-01T10:45:53Z</time>
      </trkpt>
      <trkpt lat="44.84851" lon="5.19447">
        <ele>690.3</ele>
        <time>2024-07-01T10:45:54Z</time>
      </trkpt>
      <trkpt lat="44.84851" lon="5.19447">
        <ele>690.3</ele>
        <time>2024-07-01T10:45:55Z</time>
      </trkpt>
      <trkpt lat="44.84852" lon="5.19447">
        <ele>690.1</ele>
        <time>2024-07-01T10:45:56Z</time>
      </trkpt>
      <trkpt lat="44.84852" lon="5.19446">
        <ele>690.1</ele>
        <time>2024-07-01T10:45:57Z</time>
      </trkpt>
      <trkpt lat="44.84852" lon="5.19446">
        <ele>690</ele>
        <time>2024-07-01T10:45:58Z</time>
      </trkpt>
      <trkpt lat="44.84852" lon="5.19446">
        <ele>690</ele>
        <time>2024-07-01T10:45:59Z</time>
      </trkpt>
      <trkpt lat="44.84853" lon="5.19445">
        <ele>690</ele>
        <time>2024-07-01T10:46:00Z</time>
      </trkpt>
      <trkpt lat="44.84853" lon="5.19445">
        <ele>690</ele>
        <time>2024-07-01T10:46:01Z</time>
      </trkpt>
      <trkpt lat="44.84853" lon="5.19445">
        <ele>689.9</ele>
        <time>2024-07-01T10:46:02Z</time>
      </trkpt>
      <trkpt lat="44.84853" lon="5.19445">
        <ele>689.9</ele>
        <time>2024-07-01T10:46:03Z</time>
      </trkpt>
      <trkpt lat="44.84853" lon="5.19445">
        <ele>689.9</ele>
        <time>2024-07-01T10:46:04Z</time>
      </trkpt>
      <trkpt lat="44.84853" lon="5.19445">
        <ele>689.9</ele>
        <time>2024-07-01T10:46:05Z</time>
      </trkpt>
      <trkpt lat="44.84853" lon="5.19445">
        <ele>689.9</ele>
        <time>2024-07-01T10:46:06Z</time>
      </trkpt>
      <trkpt lat="44.84853" lon="5.19445">
        <ele>689.9</ele>
        <time>2024-07-01T10:46:07Z</time>
      </trkpt>
      <trkpt lat="44.84853" lon="5.19445">
        <ele>689.8</ele>
        <time>2024-07-01T10:46:08Z</time>
      </trkpt>
      <trkpt lat="44.84853" lon="5.19445">
        <ele>689.8</ele>
        <time>2024-07-01T10:46:09Z</time>
      </trkpt>
      <trkpt lat="44.84854" lon="5.19445">
        <ele>689.8</ele>
        <time>2024-07-01T10:46:10Z</time>
      </trkpt>
      <trkpt lat="44.84854" lon="5.19445">
        <ele>689.8</ele>
        <time>2024-07-01T10:46:11Z</time>
      </trkpt>
      <trkpt lat="44.84854" lon="5.19445">
        <ele>689.8</ele>
        <time>2024-07-01T10:46:12Z</time>
      </trkpt>
      <trkpt lat="44.84854" lon="5.19444">
        <ele>689.7</ele>
        <time>2024-07-01T10:46:13Z</time>
      </trkpt>
      <trkpt lat="44.84854" lon="5.19444">
        <ele>689.7</ele>
        <time>2024-07-01T10:46:14Z</time>
      </trkpt>
      <trkpt lat="44.84854" lon="5.19445">
        <ele>689.7</ele>
        <time>2024-07-01T10:46:15Z</time>
      </trkpt>
      <trkpt lat="44.84854" lon="5.19444">
        <ele>689.6</ele>
        <time>2024-07-01T10:46:16Z</time>
      </trkpt>
      <trkpt lat="44.84854" lon="5.19444">
        <ele>689.6</ele>
        <time>2024-07-01T10:46:17Z</time>
      </trkpt>
      <trkpt lat="44.84855" lon="5.19444">
        <ele>689.6</ele>
        <time>2024-07-01T10:46:18Z</time>
      </trkpt>
      <trkpt lat="44.84854" lon="5.19444">
        <ele>689.6</ele>
        <time>2024-07-01T10:46:19Z</time>
      </trkpt>
      <trkpt lat="44.84855" lon="5.19445">
        <ele>689.6</ele>
        <time>2024-07-01T10:46:20Z</time>
      </trkpt>
      <trkpt lat="44.84855" lon="5.19445">
        <ele>689.6</ele>
        <time>2024-07-01T10:46:21Z</time>
      </trkpt>
      <trkpt lat="44.84855" lon="5.19445">
        <ele>689.6</ele>
        <time>2024-07-01T10:46:22Z</time>
      </trkpt>
      <trkpt lat="44.84855" lon="5.19445">
        <ele>689.5</ele>
        <time>2024-07-01T10:46:23Z</time>
      </trkpt>
      <trkpt lat="44.84855" lon="5.19445">
        <ele>689.5</ele>
        <time>2024-07-01T10:46:24Z</time>
      </trkpt>
      <trkpt lat="44.84855" lon="5.19445">
        <ele>689.5</ele>
        <time>2024-07-01T10:46:25Z</time>
      </trkpt>
      <trkpt lat="44.84855" lon="5.19445">
        <ele>689.5</ele>
        <time>2024-07-01T10:46:26Z</time>
      </trkpt>
      <trkpt lat="44.84855" lon="5.19445">
        <ele>689.5</ele>
        <time>2024-07-01T10:46:27Z</time>
      </trkpt>
      <trkpt lat="44.84855" lon="5.19445">
        <ele>689.4</ele>
        <time>2024-07-01T10:46:28Z</time>
      </trkpt>
      <trkpt lat="44.84855" lon="5.19445">
        <ele>689.4</ele>
        <time>2024-07-01T10:46:29Z</time>
      </trkpt>
      <trkpt lat="44.84855" lon="5.19445">
        <ele>689.4</ele>
        <time>2024-07-01T10:46:30Z</time>
      </trkpt>
      <trkpt lat="44.84855" lon="5.19445">
        <ele>689.4</ele>
        <time>2024-07-01T10:46:31Z</time>
      </trkpt>
      <trkpt lat="44.84854" lon="5.19445">
        <ele>689.4</ele>
        <time>2024-07-01T10:46:32Z</time>
      </trkpt>
      <trkpt lat="44.84855" lon="5.19446">
        <ele>689.4</ele>
        <time>2024-07-01T10:46:33Z</time>
      </trkpt>
      <trkpt lat="44.84854" lon="5.19446">
        <ele>689.4</ele>
        <time>2024-07-01T10:46:34Z</time>
      </trkpt>
      <trkpt lat="44.84854" lon="5.19446">
        <ele>689.4</ele>
        <time>2024-07-01T10:46:35Z</time>
      </trkpt>
      <trkpt lat="44.84854" lon="5.19446">
        <ele>689.4</ele>
        <time>2024-07-01T10:46:36Z</time>
      </trkpt>
      <trkpt lat="44.84855" lon="5.19446">
        <ele>689.3</ele>
        <time>2024-07-01T10:46:37Z</time>
      </trkpt>
      <trkpt lat="44.84855" lon="5.19446">
        <ele>689.2</ele>
        <time>2024-07-01T10:46:38Z</time>
      </trkpt>
      <trkpt lat="44.84856" lon="5.19445">
        <ele>689.2</ele>
        <time>2024-07-01T10:46:39Z</time>
      </trkpt>
      <trkpt lat="44.84856" lon="5.19445">
        <ele>689.2</ele>
        <time>2024-07-01T10:46:40Z</time>
      </trkpt>
      <trkpt lat="44.84856" lon="5.19445">
        <ele>689.1</ele>
        <time>2024-07-01T10:46:41Z</time>
      </trkpt>
      <trkpt lat="44.84856" lon="5.19445">
        <ele>689.1</ele>
        <time>2024-07-01T10:46:42Z</time>
      </trkpt>
      <trkpt lat="44.84857" lon="5.19445">
        <ele>689.1</ele>
        <time>2024-07-01T10:46:43Z</time>
      </trkpt>
      <trkpt lat="44.84857" lon="5.19445">
        <ele>689</ele>
        <time>2024-07-01T10:46:44Z</time>
      </trkpt>
      <trkpt lat="44.84857" lon="5.19445">
        <ele>689</ele>
        <time>2024-07-01T10:46:45Z</time>
      </trkpt>
      <trkpt lat="44.84857" lon="5.19445">
        <ele>689</ele>
        <time>2024-07-01T10:46:46Z</time>
      </trkpt>
      <trkpt lat="44.84857" lon="5.19445">
        <ele>689</ele>
        <time>2024-07-01T10:46:47Z</time>
      </trkpt>
      <trkpt lat="44.84857" lon="5.19445">
        <ele>689</ele>
        <time>2024-07-01T10:46:48Z</time>
      </trkpt>
      <trkpt lat="44.84857" lon="5.19445">
        <ele>688.9</ele>
        <time>2024-07-01T10:46:49Z</time>
      </trkpt>
      <trkpt lat="44.84857" lon="5.19445">
        <ele>688.9</ele>
        <time>2024-07-01T10:46:50Z</time>
      </trkpt>
      <trkpt lat="44.84858" lon="5.19445">
        <ele>688.9</ele>
        <time>2024-07-01T10:46:51Z</time>
      </trkpt>
      <trkpt lat="44.84858" lon="5.19445">
        <ele>688.9</ele>
        <time>2024-07-01T10:46:52Z</time>
      </trkpt>
      <trkpt lat="44.84858" lon="5.19445">
        <ele>688.9</ele>
        <time>2024-07-01T10:46:53Z</time>
      </trkpt>
      <trkpt lat="44.84858" lon="5.19445">
        <ele>688.9</ele>
        <time>2024-07-01T10:46:54Z</time>
      </trkpt>
      <trkpt lat="44.84858" lon="5.19445">
        <ele>688.9</ele>
        <time>2024-07-01T10:46:55Z</time>
      </trkpt>
      <trkpt lat="44.84857" lon="5.19446">
        <ele>688.8</ele>
        <time>2024-07-01T10:46:56Z</time>
      </trkpt>
      <trkpt lat="44.84857" lon="5.19446">
        <ele>688.8</ele>
        <time>2024-07-01T10:46:57Z</time>
      </trkpt>
      <trkpt lat="44.84857" lon="5.19446">
        <ele>688.7</ele>
        <time>2024-07-01T10:46:58Z</time>
      </trkpt>
      <trkpt lat="44.84858" lon="5.19447">
        <ele>688.7</ele>
        <time>2024-07-01T10:46:59Z</time>
      </trkpt>
      <trkpt lat="44.84858" lon="5.19447">
        <ele>688.6</ele>
        <time>2024-07-01T10:47:00Z</time>
      </trkpt>
      <trkpt lat="44.84858" lon="5.19447">
        <ele>688.6</ele>
        <time>2024-07-01T10:47:01Z</time>
      </trkpt>
      <trkpt lat="44.84858" lon="5.19447">
        <ele>688.6</ele>
        <time>2024-07-01T10:47:02Z</time>
      </trkpt>
      <trkpt lat="44.84858" lon="5.19447">
        <ele>688.5</ele>
        <time>2024-07-01T10:47:03Z</time>
      </trkpt>
      <trkpt lat="44.84859" lon="5.19447">
        <ele>688.5</ele>
        <time>2024-07-01T10:47:04Z</time>
      </trkpt>
      <trkpt lat="44.84859" lon="5.19447">
        <ele>688.5</ele>
        <time>2024-07-01T10:47:05Z</time>
      </trkpt>
      <trkpt lat="44.84859" lon="5.19448">
        <ele>688.5</ele>
        <time>2024-07-01T10:47:06Z</time>
      </trkpt>
      <trkpt lat="44.84859" lon="5.19448">
        <ele>688.5</ele>
        <time>2024-07-01T10:47:07Z</time>
      </trkpt>
      <trkpt lat="44.84859" lon="5.19448">
        <ele>688.5</ele>
        <time>2024-07-01T10:47:08Z</time>
      </trkpt>
      <trkpt lat="44.84859" lon="5.19448">
        <ele>688.5</ele>
        <time>2024-07-01T10:47:09Z</time>
      </trkpt>
      <trkpt lat="44.84859" lon="5.19448">
        <ele>688.5</ele>
        <time>2024-07-01T10:47:10Z</time>
      </trkpt>
      <trkpt lat="44.84859" lon="5.19447">
        <ele>688.4</ele>
        <time>2024-07-01T10:47:11Z</time>
      </trkpt>
      <trkpt lat="44.84859" lon="5.19447">
        <ele>688.4</ele>
        <time>2024-07-01T10:47:12Z</time>
      </trkpt>
      <trkpt lat="44.84859" lon="5.19447">
        <ele>688.4</ele>
        <time>2024-07-01T10:47:13Z</time>
      </trkpt>
      <trkpt lat="44.84859" lon="5.19447">
        <ele>688.3</ele>
        <time>2024-07-01T10:47:14Z</time>
      </trkpt>
      <trkpt lat="44.84859" lon="5.19447">
        <ele>688.3</ele>
        <time>2024-07-01T10:47:15Z</time>
      </trkpt>
      <trkpt lat="44.84859" lon="5.19447">
        <ele>688.3</ele>
        <time>2024-07-01T10:47:16Z</time>
      </trkpt>
      <trkpt lat="44.84859" lon="5.19447">
        <ele>688.3</ele>
        <time>2024-07-01T10:47:17Z</time>
      </trkpt>
      <trkpt lat="44.84858" lon="5.19447">
        <ele>688.3</ele>
        <time>2024-07-01T10:47:18Z</time>
      </trkpt>
      <trkpt lat="44.84858" lon="5.19447">
        <ele>688.2</ele>
        <time>2024-07-01T10:47:19Z</time>
      </trkpt>
      <trkpt lat="44.84858" lon="5.19447">
        <ele>688.2</ele>
        <time>2024-07-01T10:47:20Z</time>
      </trkpt>
      <trkpt lat="44.84858" lon="5.19446">
        <ele>688.1</ele>
        <time>2024-07-01T10:47:21Z</time>
      </trkpt>
      <trkpt lat="44.84858" lon="5.19446">
        <ele>688.1</ele>
        <time>2024-07-01T10:47:22Z</time>
      </trkpt>
      <trkpt lat="44.84858" lon="5.19446">
        <ele>688.1</ele>
        <time>2024-07-01T10:47:23Z</time>
      </trkpt>
      <trkpt lat="44.84858" lon="5.19446">
        <ele>688.1</ele>
        <time>2024-07-01T10:47:24Z</time>
      </trkpt>
      <trkpt lat="44.84858" lon="5.19446">
        <ele>688.1</ele>
        <time>2024-07-01T10:47:25Z</time>
      </trkpt>
      <trkpt lat="44.84858" lon="5.19447">
        <ele>688.1</ele>
        <time>2024-07-01T10:47:29Z</time>
      </trkpt>
      <trkpt lat="44.84858" lon="5.19447">
        <ele>688.1</ele>
        <time>2024-07-01T10:47:30Z</time>
      </trkpt>
      <trkpt lat="44.84858" lon="5.19446">
        <ele>688.1</ele>
        <time>2024-07-01T10:47:32Z</time>
      </trkpt>
      <trkpt lat="44.84858" lon="5.19446">
        <ele>688</ele>
        <time>2024-07-01T10:47:33Z</time>
      </trkpt>
      <trkpt lat="44.84858" lon="5.19446">
        <ele>688</ele>
        <time>2024-07-01T10:47:34Z</time>
      </trkpt>
      <trkpt lat="44.84857" lon="5.19446">
        <ele>688</ele>
        <time>2024-07-01T10:47:35Z</time>
      </trkpt>
      <trkpt lat="44.84857" lon="5.19446">
        <ele>688</ele>
        <time>2024-07-01T10:47:36Z</time>
      </trkpt>
      <trkpt lat="44.84856" lon="5.19445">
        <ele>687.9</ele>
        <time>2024-07-01T10:47:37Z</time>
      </trkpt>
      <trkpt lat="44.84855" lon="5.19444">
        <ele>687.8</ele>
        <time>2024-07-01T10:47:38Z</time>
      </trkpt>
      <trkpt lat="44.84853" lon="5.19443">
        <ele>687.7</ele>
        <time>2024-07-01T10:47:39Z</time>
      </trkpt>
      <trkpt lat="44.84853" lon="5.19441">
        <ele>687.5</ele>
        <time>2024-07-01T10:47:40Z</time>
      </trkpt>
      <trkpt lat="44.84853" lon="5.19441">
        <ele>687.5</ele>
        <time>2024-07-01T10:47:42Z</time>
      </trkpt>
      <trkpt lat="44.84853" lon="5.19441">
        <ele>687.5</ele>
        <time>2024-07-01T10:47:43Z</time>
      </trkpt>
      <trkpt lat="44.84853" lon="5.19441">
        <ele>687.5</ele>
        <time>2024-07-01T10:47:44Z</time>
      </trkpt>
      <trkpt lat="44.84853" lon="5.19441">
        <ele>687.4</ele>
        <time>2024-07-01T10:47:45Z</time>
      </trkpt>
      <trkpt lat="44.84852" lon="5.1944">
        <ele>687.4</ele>
        <time>2024-07-01T10:47:47Z</time>
      </trkpt>
      <trkpt lat="44.84851" lon="5.1944">
        <ele>687.3</ele>
        <time>2024-07-01T10:47:48Z</time>
      </trkpt>
      <trkpt lat="44.84849" lon="5.1944">
        <ele>687.1</ele>
        <time>2024-07-01T10:47:49Z</time>
      </trkpt>
      <trkpt lat="44.84848" lon="5.19439">
        <ele>687.1</ele>
        <time>2024-07-01T10:47:50Z</time>
      </trkpt>
      <trkpt lat="44.84847" lon="5.19439">
        <ele>687</ele>
        <time>2024-07-01T10:47:51Z</time>
      </trkpt>
      <trkpt lat="44.84847" lon="5.19439">
        <ele>687</ele>
        <time>2024-07-01T10:47:52Z</time>
      </trkpt>
      <trkpt lat="44.84846" lon="5.19439">
        <ele>686.9</ele>
        <time>2024-07-01T10:47:53Z</time>
      </trkpt>
      <trkpt lat="44.84846" lon="5.1944">
        <ele>686.9</ele>
        <time>2024-07-01T10:47:54Z</time>
      </trkpt>
      <trkpt lat="44.84845" lon="5.1944">
        <ele>686.8</ele>
        <time>2024-07-01T10:47:55Z</time>
      </trkpt>
      <trkpt lat="44.84844" lon="5.1944">
        <ele>686.7</ele>
        <time>2024-07-01T10:47:56Z</time>
      </trkpt>
      <trkpt lat="44.84842" lon="5.1944">
        <ele>686.6</ele>
        <time>2024-07-01T10:47:57Z</time>
      </trkpt>
      <trkpt lat="44.84839" lon="5.1944">
        <ele>686.4</ele>
        <time>2024-07-01T10:47:58Z</time>
      </trkpt>
      <trkpt lat="44.84838" lon="5.19441">
        <ele>686.3</ele>
        <time>2024-07-01T10:48:00Z</time>
      </trkpt>
      <trkpt lat="44.84838" lon="5.19442">
        <ele>686.2</ele>
        <time>2024-07-01T10:48:01Z</time>
      </trkpt>
      <trkpt lat="44.84838" lon="5.19443">
        <ele>686.2</ele>
        <time>2024-07-01T10:48:02Z</time>
      </trkpt>
      <trkpt lat="44.84838" lon="5.19442">
        <ele>686.1</ele>
        <time>2024-07-01T10:48:03Z</time>
      </trkpt>
      <trkpt lat="44.84837" lon="5.19441">
        <ele>686.1</ele>
        <time>2024-07-01T10:48:04Z</time>
      </trkpt>
      <trkpt lat="44.84837" lon="5.19441">
        <ele>686</ele>
        <time>2024-07-01T10:48:05Z</time>
      </trkpt>
      <trkpt lat="44.84837" lon="5.1944">
        <ele>686</ele>
        <time>2024-07-01T10:48:06Z</time>
      </trkpt>
      <trkpt lat="44.84837" lon="5.1944">
        <ele>686</ele>
        <time>2024-07-01T10:48:07Z</time>
      </trkpt>
      <trkpt lat="44.84837" lon="5.1944">
        <ele>686</ele>
        <time>2024-07-01T10:48:08Z</time>
      </trkpt>
      <trkpt lat="44.84837" lon="5.1944">
        <ele>685.9</ele>
        <time>2024-07-01T10:48:09Z</time>
      </trkpt>
      <trkpt lat="44.84835" lon="5.19441">
        <ele>685.8</ele>
        <time>2024-07-01T10:48:11Z</time>
      </trkpt>
      <trkpt lat="44.84835" lon="5.19441">
        <ele>685.8</ele>
        <time>2024-07-01T10:48:12Z</time>
      </trkpt>
      <trkpt lat="44.84831" lon="5.19441">
        <ele>685.5</ele>
        <time>2024-07-01T10:48:13Z</time>
      </trkpt>
      <trkpt lat="44.8483" lon="5.19442">
        <ele>685.4</ele>
        <time>2024-07-01T10:48:14Z</time>
      </trkpt>
      <trkpt lat="44.84829" lon="5.19443">
        <ele>685.3</ele>
        <time>2024-07-01T10:48:15Z</time>
      </trkpt>
      <trkpt lat="44.84828" lon="5.19444">
        <ele>685.2</ele>
        <time>2024-07-01T10:48:17Z</time>
      </trkpt>
      <trkpt lat="44.84827" lon="5.19445">
        <ele>685.1</ele>
        <time>2024-07-01T10:48:18Z</time>
      </trkpt>
      <trkpt lat="44.84826" lon="5.19445">
        <ele>685</ele>
        <time>2024-07-01T10:48:19Z</time>
      </trkpt>
      <trkpt lat="44.84825" lon="5.19446">
        <ele>685</ele>
        <time>2024-07-01T10:48:20Z</time>
      </trkpt>
      <trkpt lat="44.84823" lon="5.19447">
        <ele>684.8</ele>
        <time>2024-07-01T10:48:21Z</time>
      </trkpt>
      <trkpt lat="44.84822" lon="5.19446">
        <ele>684.7</ele>
        <time>2024-07-01T10:48:23Z</time>
      </trkpt>
      <trkpt lat="44.84821" lon="5.19446">
        <ele>684.7</ele>
        <time>2024-07-01T10:48:24Z</time>
      </trkpt>
      <trkpt lat="44.84818" lon="5.19447">
        <ele>684.5</ele>
        <time>2024-07-01T10:48:25Z</time>
      </trkpt>
      <trkpt lat="44.84817" lon="5.19446">
        <ele>684.4</ele>
        <time>2024-07-01T10:48:27Z</time>
      </trkpt>
      <trkpt lat="44.84816" lon="5.19446">
        <ele>684.4</ele>
        <time>2024-07-01T10:48:28Z</time>
      </trkpt>
      <trkpt lat="44.84815" lon="5.19446">
        <ele>684.3</ele>
        <time>2024-07-01T10:48:29Z</time>
      </trkpt>
      <trkpt lat="44.84814" lon="5.19446">
        <ele>684.2</ele>
        <time>2024-07-01T10:48:30Z</time>
      </trkpt>
      <trkpt lat="44.84813" lon="5.19446">
        <ele>684.2</ele>
        <time>2024-07-01T10:48:31Z</time>
      </trkpt>
      <trkpt lat="44.84811" lon="5.19446">
        <ele>684</ele>
        <time>2024-07-01T10:48:32Z</time>
      </trkpt>
      <trkpt lat="44.84811" lon="5.19448">
        <ele>683.9</ele>
        <time>2024-07-01T10:48:34Z</time>
      </trkpt>
      <trkpt lat="44.8481" lon="5.19448">
        <ele>683.9</ele>
        <time>2024-07-01T10:48:35Z</time>
      </trkpt>
      <trkpt lat="44.84809" lon="5.19448">
        <ele>683.8</ele>
        <time>2024-07-01T10:48:36Z</time>
      </trkpt>
      <trkpt lat="44.84808" lon="5.19448">
        <ele>683.8</ele>
        <time>2024-07-01T10:48:37Z</time>
      </trkpt>
      <trkpt lat="44.84807" lon="5.19449">
        <ele>683.7</ele>
        <time>2024-07-01T10:48:38Z</time>
      </trkpt>
      <trkpt lat="44.84806" lon="5.19449">
        <ele>683.6</ele>
        <time>2024-07-01T10:48:39Z</time>
      </trkpt>
      <trkpt lat="44.84804" lon="5.1945">
        <ele>683.5</ele>
        <time>2024-07-01T10:48:40Z</time>
      </trkpt>
      <trkpt lat="44.84803" lon="5.1945">
        <ele>683.4</ele>
        <time>2024-07-01T10:48:42Z</time>
      </trkpt>
      <trkpt lat="44.84802" lon="5.1945">
        <ele>683.4</ele>
        <time>2024-07-01T10:48:43Z</time>
      </trkpt>
      <trkpt lat="44.848" lon="5.19449">
        <ele>683.2</ele>
        <time>2024-07-01T10:48:44Z</time>
      </trkpt>
      <trkpt lat="44.84799" lon="5.19448">
        <ele>683.1</ele>
        <time>2024-07-01T10:48:45Z</time>
      </trkpt>
      <trkpt lat="44.84797" lon="5.19447">
        <ele>683.1</ele>
        <time>2024-07-01T10:48:46Z</time>
      </trkpt>
      <trkpt lat="44.84795" lon="5.19446">
        <ele>682.9</ele>
        <time>2024-07-01T10:48:47Z</time>
      </trkpt>
      <trkpt lat="44.84794" lon="5.19446">
        <ele>682.9</ele>
        <time>2024-07-01T10:48:48Z</time>
      </trkpt>
      <trkpt lat="44.84794" lon="5.19446">
        <ele>682.8</ele>
        <time>2024-07-01T10:48:49Z</time>
      </trkpt>
      <trkpt lat="44.84794" lon="5.19445">
        <ele>682.8</ele>
        <time>2024-07-01T10:48:50Z</time>
      </trkpt>
      <trkpt lat="44.84794" lon="5.19445">
        <ele>682.7</ele>
        <time>2024-07-01T10:48:51Z</time>
      </trkpt>
      <trkpt lat="44.84795" lon="5.19445">
        <ele>682.7</ele>
        <time>2024-07-01T10:48:52Z</time>
      </trkpt>
      <trkpt lat="44.84795" lon="5.19445">
        <ele>682.7</ele>
        <time>2024-07-01T10:48:53Z</time>
      </trkpt>
      <trkpt lat="44.84795" lon="5.19445">
        <ele>682.7</ele>
        <time>2024-07-01T10:48:54Z</time>
      </trkpt>
      <trkpt lat="44.84795" lon="5.19445">
        <ele>682.7</ele>
        <time>2024-07-01T10:48:55Z</time>
      </trkpt>
      <trkpt lat="44.84795" lon="5.19445">
        <ele>682.7</ele>
        <time>2024-07-01T10:48:56Z</time>
      </trkpt>
      <trkpt lat="44.84795" lon="5.19445">
        <ele>682.7</ele>
        <time>2024-07-01T10:48:57Z</time>
      </trkpt>
      <trkpt lat="44.84795" lon="5.19445">
        <ele>682.7</ele>
        <time>2024-07-01T10:48:58Z</time>
      </trkpt>
      <trkpt lat="44.84795" lon="5.19445">
        <ele>682.7</ele>
        <time>2024-07-01T10:48:59Z</time>
      </trkpt>
      <trkpt lat="44.84795" lon="5.19445">
        <ele>682.6</ele>
        <time>2024-07-01T10:49:00Z</time>
      </trkpt>
      <trkpt lat="44.84795" lon="5.19445">
        <ele>682.6</ele>
        <time>2024-07-01T10:49:01Z</time>
      </trkpt>
      <trkpt lat="44.84795" lon="5.19445">
        <ele>682.6</ele>
        <time>2024-07-01T10:49:02Z</time>
      </trkpt>
      <trkpt lat="44.84795" lon="5.19445">
        <ele>682.6</ele>
        <time>2024-07-01T10:49:03Z</time>
      </trkpt>
      <trkpt lat="44.84795" lon="5.19445">
        <ele>682.6</ele>
        <time>2024-07-01T10:49:04Z</time>
      </trkpt>
      <trkpt lat="44.84795" lon="5.19445">
        <ele>682.6</ele>
        <time>2024-07-01T10:49:05Z</time>
      </trkpt>
      <trkpt lat="44.84794" lon="5.19445">
        <ele>682.6</ele>
        <time>2024-07-01T10:49:06Z</time>
      </trkpt>
      <trkpt lat="44.84793" lon="5.19446">
        <ele>682.5</ele>
        <time>2024-07-01T10:49:07Z</time>
      </trkpt>
      <trkpt lat="44.84793" lon="5.19446">
        <ele>682.5</ele>
        <time>2024-07-01T10:49:08Z</time>
      </trkpt>
      <trkpt lat="44.84791" lon="5.19448">
        <ele>682.3</ele>
        <time>2024-07-01T10:49:09Z</time>
      </trkpt>
      <trkpt lat="44.84789" lon="5.1945">
        <ele>682.2</ele>
        <time>2024-07-01T10:49:10Z</time>
      </trkpt>
      <trkpt lat="44.84788" lon="5.1945">
        <ele>682.1</ele>
        <time>2024-07-01T10:49:11Z</time>
      </trkpt>
      <trkpt lat="44.84788" lon="5.19451">
        <ele>682.1</ele>
        <time>2024-07-01T10:49:12Z</time>
      </trkpt>
      <trkpt lat="44.84787" lon="5.19451">
        <ele>682</ele>
        <time>2024-07-01T10:49:13Z</time>
      </trkpt>
      <trkpt lat="44.84786" lon="5.19451">
        <ele>682</ele>
        <time>2024-07-01T10:49:14Z</time>
      </trkpt>
      <trkpt lat="44.84784" lon="5.1945">
        <ele>681.9</ele>
        <time>2024-07-01T10:49:15Z</time>
      </trkpt>
      <trkpt lat="44.84783" lon="5.1945">
        <ele>681.8</ele>
        <time>2024-07-01T10:49:16Z</time>
      </trkpt>
      <trkpt lat="44.84782" lon="5.19449">
        <ele>681.7</ele>
        <time>2024-07-01T10:49:17Z</time>
      </trkpt>
      <trkpt lat="44.8478" lon="5.19449">
        <ele>681.6</ele>
        <time>2024-07-01T10:49:18Z</time>
      </trkpt>
      <trkpt lat="44.84779" lon="5.19449">
        <ele>681.5</ele>
        <time>2024-07-01T10:49:19Z</time>
      </trkpt>
      <trkpt lat="44.84778" lon="5.19448">
        <ele>681.5</ele>
        <time>2024-07-01T10:49:20Z</time>
      </trkpt>
      <trkpt lat="44.84777" lon="5.19448">
        <ele>681.4</ele>
        <time>2024-07-01T10:49:21Z</time>
      </trkpt>
      <trkpt lat="44.84776" lon="5.19448">
        <ele>681.3</ele>
        <time>2024-07-01T10:49:22Z</time>
      </trkpt>
      <trkpt lat="44.84775" lon="5.19447">
        <ele>681.2</ele>
        <time>2024-07-01T10:49:23Z</time>
      </trkpt>
      <trkpt lat="44.84773" lon="5.19447">
        <ele>681.1</ele>
        <time>2024-07-01T10:49:24Z</time>
      </trkpt>
      <trkpt lat="44.84772" lon="5.19446">
        <ele>681</ele>
        <time>2024-07-01T10:49:26Z</time>
      </trkpt>
      <trkpt lat="44.8477" lon="5.19444">
        <ele>680.9</ele>
        <time>2024-07-01T10:49:27Z</time>
      </trkpt>
      <trkpt lat="44.8477" lon="5.19443">
        <ele>680.9</ele>
        <time>2024-07-01T10:49:28Z</time>
      </trkpt>
      <trkpt lat="44.84769" lon="5.19443">
        <ele>680.8</ele>
        <time>2024-07-01T10:49:29Z</time>
      </trkpt>
      <trkpt lat="44.84768" lon="5.19443">
        <ele>680.7</ele>
        <time>2024-07-01T10:49:30Z</time>
      </trkpt>
      <trkpt lat="44.84767" lon="5.19442">
        <ele>680.7</ele>
        <time>2024-07-01T10:49:31Z</time>
      </trkpt>
      <trkpt lat="44.84765" lon="5.19442">
        <ele>680.5</ele>
        <time>2024-07-01T10:49:32Z</time>
      </trkpt>
      <trkpt lat="44.84765" lon="5.19442">
        <ele>680.5</ele>
        <time>2024-07-01T10:49:33Z</time>
      </trkpt>
      <trkpt lat="44.84764" lon="5.19442">
        <ele>680.4</ele>
        <time>2024-07-01T10:49:34Z</time>
      </trkpt>
      <trkpt lat="44.84762" lon="5.19442">
        <ele>680.3</ele>
        <time>2024-07-01T10:49:35Z</time>
      </trkpt>
      <trkpt lat="44.84761" lon="5.19443">
        <ele>680.2</ele>
        <time>2024-07-01T10:49:36Z</time>
      </trkpt>
      <trkpt lat="44.84759" lon="5.19443">
        <ele>680.1</ele>
        <time>2024-07-01T10:49:37Z</time>
      </trkpt>
      <trkpt lat="44.84759" lon="5.19443">
        <ele>680.1</ele>
        <time>2024-07-01T10:49:38Z</time>
      </trkpt>
      <trkpt lat="44.84757" lon="5.19443">
        <ele>680</ele>
        <time>2024-07-01T10:49:39Z</time>
      </trkpt>
      <trkpt lat="44.84756" lon="5.19442">
        <ele>679.9</ele>
        <time>2024-07-01T10:49:40Z</time>
      </trkpt>
      <trkpt lat="44.84753" lon="5.1944">
        <ele>679.6</ele>
        <time>2024-07-01T10:49:41Z</time>
      </trkpt>
      <trkpt lat="44.84751" lon="5.1944">
        <ele>679.6</ele>
        <time>2024-07-01T10:49:43Z</time>
      </trkpt>
      <trkpt lat="44.8475" lon="5.19439">
        <ele>679.5</ele>
        <time>2024-07-01T10:49:44Z</time>
      </trkpt>
      <trkpt lat="44.84749" lon="5.19439">
        <ele>679.4</ele>
        <time>2024-07-01T10:49:45Z</time>
      </trkpt>
      <trkpt lat="44.84747" lon="5.19439">
        <ele>679.3</ele>
        <time>2024-07-01T10:49:46Z</time>
      </trkpt>
      <trkpt lat="44.84746" lon="5.19439">
        <ele>679.2</ele>
        <time>2024-07-01T10:49:48Z</time>
      </trkpt>
      <trkpt lat="44.84745" lon="5.19438">
        <ele>679.1</ele>
        <time>2024-07-01T10:49:49Z</time>
      </trkpt>
      <trkpt lat="44.84744" lon="5.19437">
        <ele>679</ele>
        <time>2024-07-01T10:49:50Z</time>
      </trkpt>
      <trkpt lat="44.84743" lon="5.19436">
        <ele>678.9</ele>
        <time>2024-07-01T10:49:51Z</time>
      </trkpt>
      <trkpt lat="44.84742" lon="5.19435">
        <ele>678.8</ele>
        <time>2024-07-01T10:49:52Z</time>
      </trkpt>
      <trkpt lat="44.84741" lon="5.19436">
        <ele>678.8</ele>
        <time>2024-07-01T10:49:53Z</time>
      </trkpt>
      <trkpt lat="44.8474" lon="5.19436">
        <ele>678.7</ele>
        <time>2024-07-01T10:49:54Z</time>
      </trkpt>
      <trkpt lat="44.84739" lon="5.19436">
        <ele>678.6</ele>
        <time>2024-07-01T10:49:55Z</time>
      </trkpt>
      <trkpt lat="44.84737" lon="5.19436">
        <ele>678.4</ele>
        <time>2024-07-01T10:49:56Z</time>
      </trkpt>
      <trkpt lat="44.84736" lon="5.19436">
        <ele>678.4</ele>
        <time>2024-07-01T10:49:58Z</time>
      </trkpt>
      <trkpt lat="44.84735" lon="5.19436">
        <ele>678.3</ele>
        <time>2024-07-01T10:49:59Z</time>
      </trkpt>
      <trkpt lat="44.84732" lon="5.19435">
        <ele>678</ele>
        <time>2024-07-01T10:50:00Z</time>
      </trkpt>
      <trkpt lat="44.84731" lon="5.19435">
        <ele>677.9</ele>
        <time>2024-07-01T10:50:01Z</time>
      </trkpt>
      <trkpt lat="44.8473" lon="5.19433">
        <ele>677.8</ele>
        <time>2024-07-01T10:50:02Z</time>
      </trkpt>
      <trkpt lat="44.84729" lon="5.19433">
        <ele>677.7</ele>
        <time>2024-07-01T10:50:04Z</time>
      </trkpt>
      <trkpt lat="44.84726" lon="5.19432">
        <ele>677.5</ele>
        <time>2024-07-01T10:50:05Z</time>
      </trkpt>
      <trkpt lat="44.84725" lon="5.19431">
        <ele>677.4</ele>
        <time>2024-07-01T10:50:07Z</time>
      </trkpt>
      <trkpt lat="44.84724" lon="5.19431">
        <ele>677.4</ele>
        <time>2024-07-01T10:50:08Z</time>
      </trkpt>
      <trkpt lat="44.84723" lon="5.1943">
        <ele>677.3</ele>
        <time>2024-07-01T10:50:09Z</time>
      </trkpt>
      <trkpt lat="44.84722" lon="5.1943">
        <ele>677.2</ele>
        <time>2024-07-01T10:50:10Z</time>
      </trkpt>
      <trkpt lat="44.84722" lon="5.19429">
        <ele>677.1</ele>
        <time>2024-07-01T10:50:11Z</time>
      </trkpt>
      <trkpt lat="44.8472" lon="5.19428">
        <ele>677</ele>
        <time>2024-07-01T10:50:12Z</time>
      </trkpt>
      <trkpt lat="44.84719" lon="5.19428">
        <ele>676.9</ele>
        <time>2024-07-01T10:50:14Z</time>
      </trkpt>
      <trkpt lat="44.84718" lon="5.19427">
        <ele>676.8</ele>
        <time>2024-07-01T10:50:15Z</time>
      </trkpt>
      <trkpt lat="44.84716" lon="5.19426">
        <ele>676.7</ele>
        <time>2024-07-01T10:50:16Z</time>
      </trkpt>
      <trkpt lat="44.84715" lon="5.19425">
        <ele>676.6</ele>
        <time>2024-07-01T10:50:18Z</time>
      </trkpt>
      <trkpt lat="44.84714" lon="5.19425">
        <ele>676.5</ele>
        <time>2024-07-01T10:50:19Z</time>
      </trkpt>
      <trkpt lat="44.84713" lon="5.19424">
        <ele>676.4</ele>
        <time>2024-07-01T10:50:20Z</time>
      </trkpt>
      <trkpt lat="44.84713" lon="5.19423">
        <ele>676.4</ele>
        <time>2024-07-01T10:50:21Z</time>
      </trkpt>
      <trkpt lat="44.84712" lon="5.19422">
        <ele>676.3</ele>
        <time>2024-07-01T10:50:22Z</time>
      </trkpt>
      <trkpt lat="44.84712" lon="5.19421">
        <ele>676.3</ele>
        <time>2024-07-01T10:50:23Z</time>
      </trkpt>
      <trkpt lat="44.84713" lon="5.19421">
        <ele>676.2</ele>
        <time>2024-07-01T10:50:24Z</time>
      </trkpt>
      <trkpt lat="44.84713" lon="5.1942">
        <ele>676.2</ele>
        <time>2024-07-01T10:50:25Z</time>
      </trkpt>
      <trkpt lat="44.84712" lon="5.1942">
        <ele>676.2</ele>
        <time>2024-07-01T10:50:26Z</time>
      </trkpt>
      <trkpt lat="44.84711" lon="5.19421">
        <ele>676</ele>
        <time>2024-07-01T10:50:27Z</time>
      </trkpt>
      <trkpt lat="44.84709" lon="5.19421">
        <ele>675.9</ele>
        <time>2024-07-01T10:50:29Z</time>
      </trkpt>
      <trkpt lat="44.84708" lon="5.19421">
        <ele>675.8</ele>
        <time>2024-07-01T10:50:30Z</time>
      </trkpt>
      <trkpt lat="44.84707" lon="5.1942">
        <ele>675.8</ele>
        <time>2024-07-01T10:50:31Z</time>
      </trkpt>
      <trkpt lat="44.84707" lon="5.19419">
        <ele>675.7</ele>
        <time>2024-07-01T10:50:32Z</time>
      </trkpt>
      <trkpt lat="44.84707" lon="5.19418">
        <ele>675.7</ele>
        <time>2024-07-01T10:50:33Z</time>
      </trkpt>
      <trkpt lat="44.84706" lon="5.19419">
        <ele>675.6</ele>
        <time>2024-07-01T10:50:34Z</time>
      </trkpt>
      <trkpt lat="44.84705" lon="5.19419">
        <ele>675.5</ele>
        <time>2024-07-01T10:50:35Z</time>
      </trkpt>
      <trkpt lat="44.84704" lon="5.19419">
        <ele>675.5</ele>
        <time>2024-07-01T10:50:36Z</time>
      </trkpt>
      <trkpt lat="44.84703" lon="5.1942">
        <ele>675.4</ele>
        <time>2024-07-01T10:50:38Z</time>
      </trkpt>
      <trkpt lat="44.84701" lon="5.1942">
        <ele>675.3</ele>
        <time>2024-07-01T10:50:39Z</time>
      </trkpt>
      <trkpt lat="44.84699" lon="5.1942">
        <ele>675.1</ele>
        <time>2024-07-01T10:50:40Z</time>
      </trkpt>
      <trkpt lat="44.84698" lon="5.1942">
        <ele>675</ele>
        <time>2024-07-01T10:50:41Z</time>
      </trkpt>
      <trkpt lat="44.84697" lon="5.1942">
        <ele>675</ele>
        <time>2024-07-01T10:50:42Z</time>
      </trkpt>
      <trkpt lat="44.84695" lon="5.19418">
        <ele>674.8</ele>
        <time>2024-07-01T10:50:43Z</time>
      </trkpt>
      <trkpt lat="44.84694" lon="5.19418">
        <ele>674.7</ele>
        <time>2024-07-01T10:50:44Z</time>
      </trkpt>
      <trkpt lat="44.84692" lon="5.19417">
        <ele>674.6</ele>
        <time>2024-07-01T10:50:45Z</time>
      </trkpt>
      <trkpt lat="44.84691" lon="5.19416">
        <ele>674.5</ele>
        <time>2024-07-01T10:50:46Z</time>
      </trkpt>
      <trkpt lat="44.8469" lon="5.19415">
        <ele>674.4</ele>
        <time>2024-07-01T10:50:48Z</time>
      </trkpt>
      <trkpt lat="44.84689" lon="5.19414">
        <ele>674.3</ele>
        <time>2024-07-01T10:50:49Z</time>
      </trkpt>
      <trkpt lat="44.84688" lon="5.19412">
        <ele>674.1</ele>
        <time>2024-07-01T10:50:50Z</time>
      </trkpt>
      <trkpt lat="44.84686" lon="5.19411">
        <ele>674</ele>
        <time>2024-07-01T10:50:51Z</time>
      </trkpt>
      <trkpt lat="44.84685" lon="5.1941">
        <ele>673.9</ele>
        <time>2024-07-01T10:50:53Z</time>
      </trkpt>
      <trkpt lat="44.84684" lon="5.19409">
        <ele>673.8</ele>
        <time>2024-07-01T10:50:54Z</time>
      </trkpt>
      <trkpt lat="44.84683" lon="5.19407">
        <ele>673.6</ele>
        <time>2024-07-01T10:50:55Z</time>
      </trkpt>
      <trkpt lat="44.84681" lon="5.19405">
        <ele>673.4</ele>
        <time>2024-07-01T10:50:56Z</time>
      </trkpt>
      <trkpt lat="44.84679" lon="5.19405">
        <ele>673.3</ele>
        <time>2024-07-01T10:50:57Z</time>
      </trkpt>
      <trkpt lat="44.84678" lon="5.19404">
        <ele>673.2</ele>
        <time>2024-07-01T10:50:58Z</time>
      </trkpt>
      <trkpt lat="44.84677" lon="5.19404">
        <ele>673.1</ele>
        <time>2024-07-01T10:50:59Z</time>
      </trkpt>
      <trkpt lat="44.84676" lon="5.19403">
        <ele>673</ele>
        <time>2024-07-01T10:51:01Z</time>
      </trkpt>
      <trkpt lat="44.84673" lon="5.19402">
        <ele>672.8</ele>
        <time>2024-07-01T10:51:02Z</time>
      </trkpt>
      <trkpt lat="44.84672" lon="5.19401">
        <ele>672.7</ele>
        <time>2024-07-01T10:51:03Z</time>
      </trkpt>
      <trkpt lat="44.8467" lon="5.194">
        <ele>672.5</ele>
        <time>2024-07-01T10:51:05Z</time>
      </trkpt>
      <trkpt lat="44.84669" lon="5.194">
        <ele>672.5</ele>
        <time>2024-07-01T10:51:06Z</time>
      </trkpt>
      <trkpt lat="44.84669" lon="5.19399">
        <ele>672.4</ele>
        <time>2024-07-01T10:51:07Z</time>
      </trkpt>
      <trkpt lat="44.84666" lon="5.19398">
        <ele>672.2</ele>
        <time>2024-07-01T10:51:08Z</time>
      </trkpt>
      <trkpt lat="44.84665" lon="5.19398">
        <ele>672.1</ele>
        <time>2024-07-01T10:51:09Z</time>
      </trkpt>
      <trkpt lat="44.84664" lon="5.19397">
        <ele>672</ele>
        <time>2024-07-01T10:51:10Z</time>
      </trkpt>
      <trkpt lat="44.84662" lon="5.19396">
        <ele>671.9</ele>
        <time>2024-07-01T10:51:11Z</time>
      </trkpt>
      <trkpt lat="44.84661" lon="5.19395">
        <ele>671.8</ele>
        <time>2024-07-01T10:51:13Z</time>
      </trkpt>
      <trkpt lat="44.8466" lon="5.19395">
        <ele>671.7</ele>
        <time>2024-07-01T10:51:14Z</time>
      </trkpt>
      <trkpt lat="44.84659" lon="5.19394">
        <ele>671.6</ele>
        <time>2024-07-01T10:51:15Z</time>
      </trkpt>
      <trkpt lat="44.84658" lon="5.19393">
        <ele>671.5</ele>
        <time>2024-07-01T10:51:16Z</time>
      </trkpt>
      <trkpt lat="44.84656" lon="5.19392">
        <ele>671.4</ele>
        <time>2024-07-01T10:51:17Z</time>
      </trkpt>
      <trkpt lat="44.84655" lon="5.19391">
        <ele>671.3</ele>
        <time>2024-07-01T10:51:18Z</time>
      </trkpt>
      <trkpt lat="44.84654" lon="5.1939">
        <ele>671.2</ele>
        <time>2024-07-01T10:51:20Z</time>
      </trkpt>
      <trkpt lat="44.84653" lon="5.19389">
        <ele>671.1</ele>
        <time>2024-07-01T10:51:21Z</time>
      </trkpt>
      <trkpt lat="44.84652" lon="5.19389">
        <ele>671.1</ele>
        <time>2024-07-01T10:51:22Z</time>
      </trkpt>
      <trkpt lat="44.8465" lon="5.19387">
        <ele>670.9</ele>
        <time>2024-07-01T10:51:23Z</time>
      </trkpt>
      <trkpt lat="44.84649" lon="5.19387">
        <ele>670.8</ele>
        <time>2024-07-01T10:51:24Z</time>
      </trkpt>
      <trkpt lat="44.84648" lon="5.19386">
        <ele>670.7</ele>
        <time>2024-07-01T10:51:26Z</time>
      </trkpt>
      <trkpt lat="44.84646" lon="5.19386">
        <ele>670.7</ele>
        <time>2024-07-01T10:51:27Z</time>
      </trkpt>
      <trkpt lat="44.84645" lon="5.19385">
        <ele>670.6</ele>
        <time>2024-07-01T10:51:28Z</time>
      </trkpt>
      <trkpt lat="44.84642" lon="5.19384">
        <ele>670.4</ele>
        <time>2024-07-01T10:51:29Z</time>
      </trkpt>
      <trkpt lat="44.84641" lon="5.19383">
        <ele>670.3</ele>
        <time>2024-07-01T10:51:31Z</time>
      </trkpt>
      <trkpt lat="44.8464" lon="5.19382">
        <ele>670.3</ele>
        <time>2024-07-01T10:51:32Z</time>
      </trkpt>
      <trkpt lat="44.84638" lon="5.19381">
        <ele>670.2</ele>
        <time>2024-07-01T10:51:33Z</time>
      </trkpt>
      <trkpt lat="44.84638" lon="5.1938">
        <ele>670.1</ele>
        <time>2024-07-01T10:51:34Z</time>
      </trkpt>
      <trkpt lat="44.84637" lon="5.1938">
        <ele>670.1</ele>
        <time>2024-07-01T10:51:35Z</time>
      </trkpt>
      <trkpt lat="44.84635" lon="5.19378">
        <ele>670</ele>
        <time>2024-07-01T10:51:36Z</time>
      </trkpt>
      <trkpt lat="44.84634" lon="5.19377">
        <ele>669.9</ele>
        <time>2024-07-01T10:51:37Z</time>
      </trkpt>
      <trkpt lat="44.84633" lon="5.19375">
        <ele>669.8</ele>
        <time>2024-07-01T10:51:38Z</time>
      </trkpt>
      <trkpt lat="44.84633" lon="5.19374">
        <ele>669.8</ele>
        <time>2024-07-01T10:51:40Z</time>
      </trkpt>
      <trkpt lat="44.84632" lon="5.19371">
        <ele>669.6</ele>
        <time>2024-07-01T10:51:41Z</time>
      </trkpt>
      <trkpt lat="44.84632" lon="5.19368">
        <ele>669.5</ele>
        <time>2024-07-01T10:51:43Z</time>
      </trkpt>
      <trkpt lat="44.84632" lon="5.19367">
        <ele>669.5</ele>
        <time>2024-07-01T10:51:44Z</time>
      </trkpt>
      <trkpt lat="44.84633" lon="5.19365">
        <ele>669.4</ele>
        <time>2024-07-01T10:51:45Z</time>
      </trkpt>
      <trkpt lat="44.84633" lon="5.19364">
        <ele>669.3</ele>
        <time>2024-07-01T10:51:46Z</time>
      </trkpt>
      <trkpt lat="44.84633" lon="5.19362">
        <ele>669.3</ele>
        <time>2024-07-01T10:51:47Z</time>
      </trkpt>
      <trkpt lat="44.84635" lon="5.1936">
        <ele>669.1</ele>
        <time>2024-07-01T10:51:48Z</time>
      </trkpt>
      <trkpt lat="44.84636" lon="5.19359">
        <ele>669.1</ele>
        <time>2024-07-01T10:51:50Z</time>
      </trkpt>
      <trkpt lat="44.84637" lon="5.19357">
        <ele>669</ele>
        <time>2024-07-01T10:51:51Z</time>
      </trkpt>
      <trkpt lat="44.84638" lon="5.19356">
        <ele>668.9</ele>
        <time>2024-07-01T10:51:52Z</time>
      </trkpt>
      <trkpt lat="44.84639" lon="5.19355">
        <ele>668.8</ele>
        <time>2024-07-01T10:51:53Z</time>
      </trkpt>
      <trkpt lat="44.84639" lon="5.19354">
        <ele>668.7</ele>
        <time>2024-07-01T10:51:54Z</time>
      </trkpt>
      <trkpt lat="44.8464" lon="5.19353">
        <ele>668.7</ele>
        <time>2024-07-01T10:51:55Z</time>
      </trkpt>
      <trkpt lat="44.84641" lon="5.19351">
        <ele>668.5</ele>
        <time>2024-07-01T10:51:56Z</time>
      </trkpt>
      <trkpt lat="44.84642" lon="5.1935">
        <ele>668.5</ele>
        <time>2024-07-01T10:51:57Z</time>
      </trkpt>
      <trkpt lat="44.84643" lon="5.19349">
        <ele>668.4</ele>
        <time>2024-07-01T10:51:58Z</time>
      </trkpt>
      <trkpt lat="44.84643" lon="5.19349">
        <ele>668.4</ele>
        <time>2024-07-01T10:51:59Z</time>
      </trkpt>
      <trkpt lat="44.84644" lon="5.19349">
        <ele>668.3</ele>
        <time>2024-07-01T10:52:00Z</time>
      </trkpt>
      <trkpt lat="44.84643" lon="5.19349">
        <ele>668.3</ele>
        <time>2024-07-01T10:52:01Z</time>
      </trkpt>
      <trkpt lat="44.84643" lon="5.19349">
        <ele>668.3</ele>
        <time>2024-07-01T10:52:02Z</time>
      </trkpt>
      <trkpt lat="44.84643" lon="5.1935">
        <ele>668.3</ele>
        <time>2024-07-01T10:52:03Z</time>
      </trkpt>
      <trkpt lat="44.84643" lon="5.1935">
        <ele>668.3</ele>
        <time>2024-07-01T10:52:04Z</time>
      </trkpt>
      <trkpt lat="44.84643" lon="5.1935">
        <ele>668.2</ele>
        <time>2024-07-01T10:52:05Z</time>
      </trkpt>
      <trkpt lat="44.84643" lon="5.1935">
        <ele>668.2</ele>
        <time>2024-07-01T10:52:06Z</time>
      </trkpt>
      <trkpt lat="44.84645" lon="5.19347">
        <ele>668</ele>
        <time>2024-07-01T10:52:07Z</time>
      </trkpt>
      <trkpt lat="44.84646" lon="5.19345">
        <ele>667.9</ele>
        <time>2024-07-01T10:52:09Z</time>
      </trkpt>
      <trkpt lat="44.84647" lon="5.19343">
        <ele>667.8</ele>
        <time>2024-07-01T10:52:10Z</time>
      </trkpt>
      <trkpt lat="44.84647" lon="5.19342">
        <ele>667.7</ele>
        <time>2024-07-01T10:52:11Z</time>
      </trkpt>
      <trkpt lat="44.84648" lon="5.19341">
        <ele>667.7</ele>
        <time>2024-07-01T10:52:12Z</time>
      </trkpt>
      <trkpt lat="44.84648" lon="5.19339">
        <ele>667.5</ele>
        <time>2024-07-01T10:52:13Z</time>
      </trkpt>
      <trkpt lat="44.8465" lon="5.19338">
        <ele>667.4</ele>
        <time>2024-07-01T10:52:14Z</time>
      </trkpt>
      <trkpt lat="44.84651" lon="5.19337">
        <ele>667.3</ele>
        <time>2024-07-01T10:52:16Z</time>
      </trkpt>
      <trkpt lat="44.84652" lon="5.19336">
        <ele>667.3</ele>
        <time>2024-07-01T10:52:17Z</time>
      </trkpt>
      <trkpt lat="44.84653" lon="5.19335">
        <ele>667.2</ele>
        <time>2024-07-01T10:52:18Z</time>
      </trkpt>
      <trkpt lat="44.84653" lon="5.19334">
        <ele>667.1</ele>
        <time>2024-07-01T10:52:19Z</time>
      </trkpt>
      <trkpt lat="44.84654" lon="5.19333">
        <ele>667</ele>
        <time>2024-07-01T10:52:20Z</time>
      </trkpt>
      <trkpt lat="44.84654" lon="5.19332">
        <ele>666.9</ele>
        <time>2024-07-01T10:52:21Z</time>
      </trkpt>
      <trkpt lat="44.84655" lon="5.1933">
        <ele>666.8</ele>
        <time>2024-07-01T10:52:22Z</time>
      </trkpt>
      <trkpt lat="44.84656" lon="5.19329">
        <ele>666.8</ele>
        <time>2024-07-01T10:52:23Z</time>
      </trkpt>
      <trkpt lat="44.84657" lon="5.19328">
        <ele>666.7</ele>
        <time>2024-07-01T10:52:24Z</time>
      </trkpt>
      <trkpt lat="44.84658" lon="5.19327">
        <ele>666.6</ele>
        <time>2024-07-01T10:52:25Z</time>
      </trkpt>
      <trkpt lat="44.84659" lon="5.19324">
        <ele>666.4</ele>
        <time>2024-07-01T10:52:26Z</time>
      </trkpt>
      <trkpt lat="44.84659" lon="5.19323">
        <ele>666.3</ele>
        <time>2024-07-01T10:52:27Z</time>
      </trkpt>
      <trkpt lat="44.8466" lon="5.19322">
        <ele>666.3</ele>
        <time>2024-07-01T10:52:29Z</time>
      </trkpt>
      <trkpt lat="44.8466" lon="5.1932">
        <ele>666.2</ele>
        <time>2024-07-01T10:52:30Z</time>
      </trkpt>
      <trkpt lat="44.84662" lon="5.19317">
        <ele>666</ele>
        <time>2024-07-01T10:52:31Z</time>
      </trkpt>
      <trkpt lat="44.84663" lon="5.19315">
        <ele>665.9</ele>
        <time>2024-07-01T10:52:32Z</time>
      </trkpt>
      <trkpt lat="44.84663" lon="5.19314">
        <ele>665.8</ele>
        <time>2024-07-01T10:52:34Z</time>
      </trkpt>
      <trkpt lat="44.84664" lon="5.19313">
        <ele>665.7</ele>
        <time>2024-07-01T10:52:35Z</time>
      </trkpt>
      <trkpt lat="44.84664" lon="5.19312">
        <ele>665.6</ele>
        <time>2024-07-01T10:52:36Z</time>
      </trkpt>
      <trkpt lat="44.84665" lon="5.1931">
        <ele>665.6</ele>
        <time>2024-07-01T10:52:37Z</time>
      </trkpt>
      <trkpt lat="44.84666" lon="5.19309">
        <ele>665.5</ele>
        <time>2024-07-01T10:52:38Z</time>
      </trkpt>
      <trkpt lat="44.84666" lon="5.19308">
        <ele>665.4</ele>
        <time>2024-07-01T10:52:39Z</time>
      </trkpt>
      <trkpt lat="44.84668" lon="5.19306">
        <ele>665.2</ele>
        <time>2024-07-01T10:52:40Z</time>
      </trkpt>
      <trkpt lat="44.84669" lon="5.19304">
        <ele>665.1</ele>
        <time>2024-07-01T10:52:42Z</time>
      </trkpt>
      <trkpt lat="44.84669" lon="5.19302">
        <ele>665</ele>
        <time>2024-07-01T10:52:43Z</time>
      </trkpt>
      <trkpt lat="44.84668" lon="5.19301">
        <ele>664.9</ele>
        <time>2024-07-01T10:52:44Z</time>
      </trkpt>
      <trkpt lat="44.84669" lon="5.19297">
        <ele>664.7</ele>
        <time>2024-07-01T10:52:45Z</time>
      </trkpt>
      <trkpt lat="44.8467" lon="5.19297">
        <ele>664.6</ele>
        <time>2024-07-01T10:52:47Z</time>
      </trkpt>
      <trkpt lat="44.84671" lon="5.19296">
        <ele>664.5</ele>
        <time>2024-07-01T10:52:48Z</time>
      </trkpt>
      <trkpt lat="44.84672" lon="5.19295">
        <ele>664.4</ele>
        <time>2024-07-01T10:52:49Z</time>
      </trkpt>
      <trkpt lat="44.84673" lon="5.19294">
        <ele>664.3</ele>
        <time>2024-07-01T10:52:50Z</time>
      </trkpt>
      <trkpt lat="44.84675" lon="5.19292">
        <ele>664.1</ele>
        <time>2024-07-01T10:52:51Z</time>
      </trkpt>
      <trkpt lat="44.84676" lon="5.19292">
        <ele>664</ele>
        <time>2024-07-01T10:52:53Z</time>
      </trkpt>
      <trkpt lat="44.84678" lon="5.19289">
        <ele>663.8</ele>
        <time>2024-07-01T10:52:54Z</time>
      </trkpt>
      <trkpt lat="44.84679" lon="5.19288">
        <ele>663.7</ele>
        <time>2024-07-01T10:52:55Z</time>
      </trkpt>
      <trkpt lat="44.84681" lon="5.19286">
        <ele>663.6</ele>
        <time>2024-07-01T10:52:57Z</time>
      </trkpt>
      <trkpt lat="44.84681" lon="5.19286">
        <ele>663.5</ele>
        <time>2024-07-01T10:52:58Z</time>
      </trkpt>
      <trkpt lat="44.84682" lon="5.19285">
        <ele>663.4</ele>
        <time>2024-07-01T10:52:59Z</time>
      </trkpt>
      <trkpt lat="44.84683" lon="5.19284">
        <ele>663.3</ele>
        <time>2024-07-01T10:53:00Z</time>
      </trkpt>
      <trkpt lat="44.84684" lon="5.19281">
        <ele>663.2</ele>
        <time>2024-07-01T10:53:01Z</time>
      </trkpt>
      <trkpt lat="44.84685" lon="5.1928">
        <ele>663.1</ele>
        <time>2024-07-01T10:53:02Z</time>
      </trkpt>
      <trkpt lat="44.84686" lon="5.19279">
        <ele>663</ele>
        <time>2024-07-01T10:53:04Z</time>
      </trkpt>
      <trkpt lat="44.84687" lon="5.19276">
        <ele>662.8</ele>
        <time>2024-07-01T10:53:05Z</time>
      </trkpt>
      <trkpt lat="44.84688" lon="5.19275">
        <ele>662.7</ele>
        <time>2024-07-01T10:53:07Z</time>
      </trkpt>
      <trkpt lat="44.84689" lon="5.19274">
        <ele>662.6</ele>
        <time>2024-07-01T10:53:08Z</time>
      </trkpt>
      <trkpt lat="44.8469" lon="5.19272">
        <ele>662.5</ele>
        <time>2024-07-01T10:53:09Z</time>
      </trkpt>
      <trkpt lat="44.8469" lon="5.19271">
        <ele>662.5</ele>
        <time>2024-07-01T10:53:10Z</time>
      </trkpt>
      <trkpt lat="44.84691" lon="5.19269">
        <ele>662.3</ele>
        <time>2024-07-01T10:53:11Z</time>
      </trkpt>
      <trkpt lat="44.84692" lon="5.19268">
        <ele>662.3</ele>
        <time>2024-07-01T10:53:12Z</time>
      </trkpt>
      <trkpt lat="44.84692" lon="5.19267">
        <ele>662.2</ele>
        <time>2024-07-01T10:53:13Z</time>
      </trkpt>
      <trkpt lat="44.84692" lon="5.19263">
        <ele>662</ele>
        <time>2024-07-01T10:53:14Z</time>
      </trkpt>
      <trkpt lat="44.84692" lon="5.19261">
        <ele>662</ele>
        <time>2024-07-01T10:53:15Z</time>
      </trkpt>
      <trkpt lat="44.84691" lon="5.19259">
        <ele>661.8</ele>
        <time>2024-07-01T10:53:17Z</time>
      </trkpt>
      <trkpt lat="44.8469" lon="5.19258">
        <ele>661.7</ele>
        <time>2024-07-01T10:53:18Z</time>
      </trkpt>
      <trkpt lat="44.84689" lon="5.19257">
        <ele>661.7</ele>
        <time>2024-07-01T10:53:19Z</time>
      </trkpt>
      <trkpt lat="44.84688" lon="5.19258">
        <ele>661.6</ele>
        <time>2024-07-01T10:53:20Z</time>
      </trkpt>
      <trkpt lat="44.84687" lon="5.19257">
        <ele>661.6</ele>
        <time>2024-07-01T10:53:21Z</time>
      </trkpt>
      <trkpt lat="44.84686" lon="5.19257">
        <ele>661.6</ele>
        <time>2024-07-01T10:53:22Z</time>
      </trkpt>
      <trkpt lat="44.84686" lon="5.19257">
        <ele>661.6</ele>
        <time>2024-07-01T10:53:23Z</time>
      </trkpt>
      <trkpt lat="44.84686" lon="5.19257">
        <ele>661.6</ele>
        <time>2024-07-01T10:53:24Z</time>
      </trkpt>
      <trkpt lat="44.84687" lon="5.19258">
        <ele>661.6</ele>
        <time>2024-07-01T10:53:25Z</time>
      </trkpt>
      <trkpt lat="44.84687" lon="5.19258">
        <ele>661.6</ele>
        <time>2024-07-01T10:53:26Z</time>
      </trkpt>
      <trkpt lat="44.84687" lon="5.19258">
        <ele>661.6</ele>
        <time>2024-07-01T10:53:27Z</time>
      </trkpt>
      <trkpt lat="44.84687" lon="5.19258">
        <ele>661.6</ele>
        <time>2024-07-01T10:53:29Z</time>
      </trkpt>
      <trkpt lat="44.84686" lon="5.19257">
        <ele>661.6</ele>
        <time>2024-07-01T10:53:30Z</time>
      </trkpt>
      <trkpt lat="44.84685" lon="5.19258">
        <ele>661.6</ele>
        <time>2024-07-01T10:53:31Z</time>
      </trkpt>
      <trkpt lat="44.84684" lon="5.19257">
        <ele>661.5</ele>
        <time>2024-07-01T10:53:32Z</time>
      </trkpt>
      <trkpt lat="44.84683" lon="5.19257">
        <ele>661.5</ele>
        <time>2024-07-01T10:53:33Z</time>
      </trkpt>
      <trkpt lat="44.84682" lon="5.19257">
        <ele>661.5</ele>
        <time>2024-07-01T10:53:34Z</time>
      </trkpt>
      <trkpt lat="44.84682" lon="5.19259">
        <ele>661.5</ele>
        <time>2024-07-01T10:53:35Z</time>
      </trkpt>
      <trkpt lat="44.84683" lon="5.19259">
        <ele>661.5</ele>
        <time>2024-07-01T10:53:36Z</time>
      </trkpt>
      <trkpt lat="44.84683" lon="5.1926">
        <ele>661.5</ele>
        <time>2024-07-01T10:53:37Z</time>
      </trkpt>
      <trkpt lat="44.84682" lon="5.19261">
        <ele>661.5</ele>
        <time>2024-07-01T10:53:38Z</time>
      </trkpt>
      <trkpt lat="44.84681" lon="5.19261">
        <ele>661.5</ele>
        <time>2024-07-01T10:53:39Z</time>
      </trkpt>
      <trkpt lat="44.84681" lon="5.19261">
        <ele>661.5</ele>
        <time>2024-07-01T10:53:40Z</time>
      </trkpt>
      <trkpt lat="44.84681" lon="5.19261">
        <ele>661.5</ele>
        <time>2024-07-01T10:53:41Z</time>
      </trkpt>
      <trkpt lat="44.84681" lon="5.19261">
        <ele>661.5</ele>
        <time>2024-07-01T10:53:42Z</time>
      </trkpt>
      <trkpt lat="44.8468" lon="5.19261">
        <ele>661.4</ele>
        <time>2024-07-01T10:53:43Z</time>
      </trkpt>
      <trkpt lat="44.84677" lon="5.19261">
        <ele>661.4</ele>
        <time>2024-07-01T10:53:44Z</time>
      </trkpt>
      <trkpt lat="44.84676" lon="5.19261">
        <ele>661.4</ele>
        <time>2024-07-01T10:53:45Z</time>
      </trkpt>
      <trkpt lat="44.84674" lon="5.19262">
        <ele>661.4</ele>
        <time>2024-07-01T10:53:47Z</time>
      </trkpt>
      <trkpt lat="44.84672" lon="5.19262">
        <ele>661.4</ele>
        <time>2024-07-01T10:53:48Z</time>
      </trkpt>
      <trkpt lat="44.84669" lon="5.19264">
        <ele>661.4</ele>
        <time>2024-07-01T10:53:49Z</time>
      </trkpt>
      <trkpt lat="44.84669" lon="5.19264">
        <ele>661.4</ele>
        <time>2024-07-01T10:53:50Z</time>
      </trkpt>
      <trkpt lat="44.84667" lon="5.19265">
        <ele>661.4</ele>
        <time>2024-07-01T10:53:52Z</time>
      </trkpt>
      <trkpt lat="44.84667" lon="5.19266">
        <ele>661.4</ele>
        <time>2024-07-01T10:53:53Z</time>
      </trkpt>
      <trkpt lat="44.84666" lon="5.19266">
        <ele>661.4</ele>
        <time>2024-07-01T10:53:54Z</time>
      </trkpt>
      <trkpt lat="44.84665" lon="5.19266">
        <ele>661.4</ele>
        <time>2024-07-01T10:53:55Z</time>
      </trkpt>
      <trkpt lat="44.84663" lon="5.19266">
        <ele>661.4</ele>
        <time>2024-07-01T10:53:56Z</time>
      </trkpt>
      <trkpt lat="44.84662" lon="5.19266">
        <ele>661.4</ele>
        <time>2024-07-01T10:53:58Z</time>
      </trkpt>
      <trkpt lat="44.8466" lon="5.19267">
        <ele>661.4</ele>
        <time>2024-07-01T10:53:59Z</time>
      </trkpt>
      <trkpt lat="44.84659" lon="5.19267">
        <ele>661.4</ele>
        <time>2024-07-01T10:54:00Z</time>
      </trkpt>
      <trkpt lat="44.84658" lon="5.19268">
        <ele>661.4</ele>
        <time>2024-07-01T10:54:02Z</time>
      </trkpt>
      <trkpt lat="44.84658" lon="5.19268">
        <ele>661.4</ele>
        <time>2024-07-01T10:54:03Z</time>
      </trkpt>
      <trkpt lat="44.84657" lon="5.19269">
        <ele>661.4</ele>
        <time>2024-07-01T10:54:04Z</time>
      </trkpt>
      <trkpt lat="44.84656" lon="5.19269">
        <ele>661.4</ele>
        <time>2024-07-01T10:54:05Z</time>
      </trkpt>
      <trkpt lat="44.84655" lon="5.19269">
        <ele>661.4</ele>
        <time>2024-07-01T10:54:06Z</time>
      </trkpt>
      <trkpt lat="44.84654" lon="5.19269">
        <ele>661.4</ele>
        <time>2024-07-01T10:54:07Z</time>
      </trkpt>
      <trkpt lat="44.84653" lon="5.19268">
        <ele>661.4</ele>
        <time>2024-07-01T10:54:08Z</time>
      </trkpt>
      <trkpt lat="44.84652" lon="5.19268">
        <ele>661.4</ele>
        <time>2024-07-01T10:54:09Z</time>
      </trkpt>
      <trkpt lat="44.84651" lon="5.19267">
        <ele>661.4</ele>
        <time>2024-07-01T10:54:10Z</time>
      </trkpt>
      <trkpt lat="44.84648" lon="5.19271">
        <ele>661.3</ele>
        <time>2024-07-01T10:54:11Z</time>
      </trkpt>
      <trkpt lat="44.84647" lon="5.19273">
        <ele>661.3</ele>
        <time>2024-07-01T10:54:13Z</time>
      </trkpt>
      <trkpt lat="44.84646" lon="5.19274">
        <ele>661.3</ele>
        <time>2024-07-01T10:54:14Z</time>
      </trkpt>
      <trkpt lat="44.84645" lon="5.19274">
        <ele>661.3</ele>
        <time>2024-07-01T10:54:15Z</time>
      </trkpt>
      <trkpt lat="44.84643" lon="5.19277">
        <ele>661.2</ele>
        <time>2024-07-01T10:54:16Z</time>
      </trkpt>
      <trkpt lat="44.84641" lon="5.19278">
        <ele>661.2</ele>
        <time>2024-07-01T10:54:18Z</time>
      </trkpt>
      <trkpt lat="44.8464" lon="5.19278">
        <ele>661.2</ele>
        <time>2024-07-01T10:54:19Z</time>
      </trkpt>
      <trkpt lat="44.84639" lon="5.19279">
        <ele>661.2</ele>
        <time>2024-07-01T10:54:20Z</time>
      </trkpt>
      <trkpt lat="44.84639" lon="5.19279">
        <ele>661.2</ele>
        <time>2024-07-01T10:54:21Z</time>
      </trkpt>
      <trkpt lat="44.84638" lon="5.1928">
        <ele>661.1</ele>
        <time>2024-07-01T10:54:22Z</time>
      </trkpt>
      <trkpt lat="44.84636" lon="5.19281">
        <ele>661.1</ele>
        <time>2024-07-01T10:54:23Z</time>
      </trkpt>
      <trkpt lat="44.84634" lon="5.19282">
        <ele>661.1</ele>
        <time>2024-07-01T10:54:24Z</time>
      </trkpt>
      <trkpt lat="44.84634" lon="5.19282">
        <ele>661.1</ele>
        <time>2024-07-01T10:54:25Z</time>
      </trkpt>
      <trkpt lat="44.84633" lon="5.19282">
        <ele>661</ele>
        <time>2024-07-01T10:54:26Z</time>
      </trkpt>
      <trkpt lat="44.84632" lon="5.19283">
        <ele>661</ele>
        <time>2024-07-01T10:54:27Z</time>
      </trkpt>
      <trkpt lat="44.84631" lon="5.19283">
        <ele>661</ele>
        <time>2024-07-01T10:54:28Z</time>
      </trkpt>
      <trkpt lat="44.84629" lon="5.19284">
        <ele>661</ele>
        <time>2024-07-01T10:54:29Z</time>
      </trkpt>
      <trkpt lat="44.84627" lon="5.19285">
        <ele>660.9</ele>
        <time>2024-07-01T10:54:31Z</time>
      </trkpt>
      <trkpt lat="44.84625" lon="5.19285">
        <ele>660.9</ele>
        <time>2024-07-01T10:54:33Z</time>
      </trkpt>
      <trkpt lat="44.84624" lon="5.19285">
        <ele>660.9</ele>
        <time>2024-07-01T10:54:34Z</time>
      </trkpt>
      <trkpt lat="44.84623" lon="5.19285">
        <ele>660.9</ele>
        <time>2024-07-01T10:54:35Z</time>
      </trkpt>
      <trkpt lat="44.84622" lon="5.19286">
        <ele>660.9</ele>
        <time>2024-07-01T10:54:36Z</time>
      </trkpt>
      <trkpt lat="44.8462" lon="5.19287">
        <ele>660.8</ele>
        <time>2024-07-01T10:54:37Z</time>
      </trkpt>
      <trkpt lat="44.84618" lon="5.19288">
        <ele>660.8</ele>
        <time>2024-07-01T10:54:39Z</time>
      </trkpt>
      <trkpt lat="44.84616" lon="5.19289">
        <ele>660.8</ele>
        <time>2024-07-01T10:54:41Z</time>
      </trkpt>
      <trkpt lat="44.84615" lon="5.19289">
        <ele>660.8</ele>
        <time>2024-07-01T10:54:42Z</time>
      </trkpt>
      <trkpt lat="44.84613" lon="5.1929">
        <ele>660.7</ele>
        <time>2024-07-01T10:54:43Z</time>
      </trkpt>
      <trkpt lat="44.84611" lon="5.19291">
        <ele>660.7</ele>
        <time>2024-07-01T10:54:45Z</time>
      </trkpt>
      <trkpt lat="44.8461" lon="5.19291">
        <ele>660.7</ele>
        <time>2024-07-01T10:54:46Z</time>
      </trkpt>
      <trkpt lat="44.8461" lon="5.19292">
        <ele>660.6</ele>
        <time>2024-07-01T10:54:47Z</time>
      </trkpt>
      <trkpt lat="44.84609" lon="5.19292">
        <ele>660.6</ele>
        <time>2024-07-01T10:54:48Z</time>
      </trkpt>
      <trkpt lat="44.84608" lon="5.19293">
        <ele>660.6</ele>
        <time>2024-07-01T10:54:49Z</time>
      </trkpt>
      <trkpt lat="44.84607" lon="5.19294">
        <ele>660.6</ele>
        <time>2024-07-01T10:54:50Z</time>
      </trkpt>
      <trkpt lat="44.84606" lon="5.19295">
        <ele>660.6</ele>
        <time>2024-07-01T10:54:51Z</time>
      </trkpt>
      <trkpt lat="44.84605" lon="5.19297">
        <ele>660.5</ele>
        <time>2024-07-01T10:54:52Z</time>
      </trkpt>
      <trkpt lat="44.84605" lon="5.19298">
        <ele>660.5</ele>
        <time>2024-07-01T10:54:53Z</time>
      </trkpt>
      <trkpt lat="44.84603" lon="5.193">
        <ele>660.5</ele>
        <time>2024-07-01T10:54:54Z</time>
      </trkpt>
      <trkpt lat="44.84602" lon="5.19301">
        <ele>660.5</ele>
        <time>2024-07-01T10:54:56Z</time>
      </trkpt>
      <trkpt lat="44.84601" lon="5.19302">
        <ele>660.4</ele>
        <time>2024-07-01T10:54:57Z</time>
      </trkpt>
      <trkpt lat="44.846" lon="5.19303">
        <ele>660.4</ele>
        <time>2024-07-01T10:54:58Z</time>
      </trkpt>
      <trkpt lat="44.84598" lon="5.19304">
        <ele>660.4</ele>
        <time>2024-07-01T10:55:00Z</time>
      </trkpt>
      <trkpt lat="44.84597" lon="5.19304">
        <ele>660.4</ele>
        <time>2024-07-01T10:55:01Z</time>
      </trkpt>
      <trkpt lat="44.84596" lon="5.19305">
        <ele>660.4</ele>
        <time>2024-07-01T10:55:02Z</time>
      </trkpt>
      <trkpt lat="44.84595" lon="5.19306">
        <ele>660.3</ele>
        <time>2024-07-01T10:55:03Z</time>
      </trkpt>
      <trkpt lat="44.84594" lon="5.19307">
        <ele>660.3</ele>
        <time>2024-07-01T10:55:04Z</time>
      </trkpt>
      <trkpt lat="44.84592" lon="5.19308">
        <ele>660.3</ele>
        <time>2024-07-01T10:55:05Z</time>
      </trkpt>
      <trkpt lat="44.84591" lon="5.19309">
        <ele>660.3</ele>
        <time>2024-07-01T10:55:07Z</time>
      </trkpt>
      <trkpt lat="44.8459" lon="5.1931">
        <ele>660.3</ele>
        <time>2024-07-01T10:55:08Z</time>
      </trkpt>
      <trkpt lat="44.84589" lon="5.19312">
        <ele>660.2</ele>
        <time>2024-07-01T10:55:09Z</time>
      </trkpt>
      <trkpt lat="44.84588" lon="5.19314">
        <ele>660.2</ele>
        <time>2024-07-01T10:55:11Z</time>
      </trkpt>
      <trkpt lat="44.84587" lon="5.19315">
        <ele>660.2</ele>
        <time>2024-07-01T10:55:12Z</time>
      </trkpt>
      <trkpt lat="44.84586" lon="5.19316">
        <ele>660.2</ele>
        <time>2024-07-01T10:55:13Z</time>
      </trkpt>
      <trkpt lat="44.84586" lon="5.19317">
        <ele>660.2</ele>
        <time>2024-07-01T10:55:14Z</time>
      </trkpt>
      <trkpt lat="44.84585" lon="5.19317">
        <ele>660.1</ele>
        <time>2024-07-01T10:55:15Z</time>
      </trkpt>
      <trkpt lat="44.84584" lon="5.19319">
        <ele>660.1</ele>
        <time>2024-07-01T10:55:16Z</time>
      </trkpt>
      <trkpt lat="44.84582" lon="5.19321">
        <ele>660.1</ele>
        <time>2024-07-01T10:55:17Z</time>
      </trkpt>
      <trkpt lat="44.84581" lon="5.19324">
        <ele>660.1</ele>
        <time>2024-07-01T10:55:19Z</time>
      </trkpt>
      <trkpt lat="44.84581" lon="5.19324">
        <ele>660.1</ele>
        <time>2024-07-01T10:55:20Z</time>
      </trkpt>
      <trkpt lat="44.8458" lon="5.19327">
        <ele>660</ele>
        <time>2024-07-01T10:55:21Z</time>
      </trkpt>
      <trkpt lat="44.84579" lon="5.19328">
        <ele>660</ele>
        <time>2024-07-01T10:55:22Z</time>
      </trkpt>
      <trkpt lat="44.84579" lon="5.19329">
        <ele>660</ele>
        <time>2024-07-01T10:55:23Z</time>
      </trkpt>
      <trkpt lat="44.84577" lon="5.19331">
        <ele>660</ele>
        <time>2024-07-01T10:55:24Z</time>
      </trkpt>
      <trkpt lat="44.84575" lon="5.19331">
        <ele>659.9</ele>
        <time>2024-07-01T10:55:25Z</time>
      </trkpt>
      <trkpt lat="44.84574" lon="5.19332">
        <ele>659.9</ele>
        <time>2024-07-01T10:55:27Z</time>
      </trkpt>
      <trkpt lat="44.84573" lon="5.19332">
        <ele>659.9</ele>
        <time>2024-07-01T10:55:28Z</time>
      </trkpt>
      <trkpt lat="44.8457" lon="5.19331">
        <ele>659.9</ele>
        <time>2024-07-01T10:55:29Z</time>
      </trkpt>
      <trkpt lat="44.84569" lon="5.19331">
        <ele>659.8</ele>
        <time>2024-07-01T10:55:30Z</time>
      </trkpt>
      <trkpt lat="44.84568" lon="5.19331">
        <ele>659.8</ele>
        <time>2024-07-01T10:55:31Z</time>
      </trkpt>
      <trkpt lat="44.84565" lon="5.19329">
        <ele>659.7</ele>
        <time>2024-07-01T10:55:33Z</time>
      </trkpt>
      <trkpt lat="44.84564" lon="5.19328">
        <ele>659.7</ele>
        <time>2024-07-01T10:55:34Z</time>
      </trkpt>
      <trkpt lat="44.84563" lon="5.19327">
        <ele>659.7</ele>
        <time>2024-07-01T10:55:35Z</time>
      </trkpt>
      <trkpt lat="44.84562" lon="5.19326">
        <ele>659.6</ele>
        <time>2024-07-01T10:55:36Z</time>
      </trkpt>
      <trkpt lat="44.84561" lon="5.19323">
        <ele>659.6</ele>
        <time>2024-07-01T10:55:38Z</time>
      </trkpt>
      <trkpt lat="44.84561" lon="5.19323">
        <ele>659.6</ele>
        <time>2024-07-01T10:55:39Z</time>
      </trkpt>
      <trkpt lat="44.8456" lon="5.19322">
        <ele>659.5</ele>
        <time>2024-07-01T10:55:40Z</time>
      </trkpt>
      <trkpt lat="44.84559" lon="5.1932">
        <ele>659.5</ele>
        <time>2024-07-01T10:55:41Z</time>
      </trkpt>
      <trkpt lat="44.84559" lon="5.19318">
        <ele>659.4</ele>
        <time>2024-07-01T10:55:42Z</time>
      </trkpt>
      <trkpt lat="44.84559" lon="5.19315">
        <ele>659.4</ele>
        <time>2024-07-01T10:55:43Z</time>
      </trkpt>
      <trkpt lat="44.84559" lon="5.19313">
        <ele>659.3</ele>
        <time>2024-07-01T10:55:45Z</time>
      </trkpt>
      <trkpt lat="44.84559" lon="5.19312">
        <ele>659.3</ele>
        <time>2024-07-01T10:55:46Z</time>
      </trkpt>
      <trkpt lat="44.84559" lon="5.1931">
        <ele>659.2</ele>
        <time>2024-07-01T10:55:47Z</time>
      </trkpt>
      <trkpt lat="44.84558" lon="5.19309">
        <ele>659.2</ele>
        <time>2024-07-01T10:55:48Z</time>
      </trkpt>
      <trkpt lat="44.84558" lon="5.19308">
        <ele>659.2</ele>
        <time>2024-07-01T10:55:49Z</time>
      </trkpt>
      <trkpt lat="44.84557" lon="5.19307">
        <ele>659.1</ele>
        <time>2024-07-01T10:55:50Z</time>
      </trkpt>
      <trkpt lat="44.84556" lon="5.19306">
        <ele>659.1</ele>
        <time>2024-07-01T10:55:51Z</time>
      </trkpt>
      <trkpt lat="44.84556" lon="5.19305">
        <ele>659</ele>
        <time>2024-07-01T10:55:52Z</time>
      </trkpt>
      <trkpt lat="44.84555" lon="5.19303">
        <ele>659</ele>
        <time>2024-07-01T10:55:53Z</time>
      </trkpt>
      <trkpt lat="44.84555" lon="5.19303">
        <ele>659</ele>
        <time>2024-07-01T10:55:54Z</time>
      </trkpt>
      <trkpt lat="44.84555" lon="5.19302">
        <ele>658.9</ele>
        <time>2024-07-01T10:55:55Z</time>
      </trkpt>
      <trkpt lat="44.84554" lon="5.19303">
        <ele>658.9</ele>
        <time>2024-07-01T10:55:56Z</time>
      </trkpt>
      <trkpt lat="44.84553" lon="5.19303">
        <ele>658.9</ele>
        <time>2024-07-01T10:55:57Z</time>
      </trkpt>
      <trkpt lat="44.84552" lon="5.19303">
        <ele>658.8</ele>
        <time>2024-07-01T10:55:58Z</time>
      </trkpt>
      <trkpt lat="44.84551" lon="5.19302">
        <ele>658.8</ele>
        <time>2024-07-01T10:55:59Z</time>
      </trkpt>
      <trkpt lat="44.84551" lon="5.19302">
        <ele>658.8</ele>
        <time>2024-07-01T10:56:01Z</time>
      </trkpt>
      <trkpt lat="44.84551" lon="5.19301">
        <ele>658.8</ele>
        <time>2024-07-01T10:56:02Z</time>
      </trkpt>
      <trkpt lat="44.8455" lon="5.193">
        <ele>658.7</ele>
        <time>2024-07-01T10:56:03Z</time>
      </trkpt>
      <trkpt lat="44.8455" lon="5.193">
        <ele>658.7</ele>
        <time>2024-07-01T10:56:04Z</time>
      </trkpt>
      <trkpt lat="44.84549" lon="5.19299">
        <ele>658.7</ele>
        <time>2024-07-01T10:56:05Z</time>
      </trkpt>
      <trkpt lat="44.84548" lon="5.19298">
        <ele>658.6</ele>
        <time>2024-07-01T10:56:06Z</time>
      </trkpt>
      <trkpt lat="44.84547" lon="5.19298">
        <ele>658.6</ele>
        <time>2024-07-01T10:56:07Z</time>
      </trkpt>
      <trkpt lat="44.84546" lon="5.19297">
        <ele>658.5</ele>
        <time>2024-07-01T10:56:08Z</time>
      </trkpt>
      <trkpt lat="44.84545" lon="5.19297">
        <ele>658.5</ele>
        <time>2024-07-01T10:56:09Z</time>
      </trkpt>
      <trkpt lat="44.84544" lon="5.19297">
        <ele>658.4</ele>
        <time>2024-07-01T10:56:10Z</time>
      </trkpt>
      <trkpt lat="44.84543" lon="5.19297">
        <ele>658.4</ele>
        <time>2024-07-01T10:56:11Z</time>
      </trkpt>
      <trkpt lat="44.84543" lon="5.19297">
        <ele>658.4</ele>
        <time>2024-07-01T10:56:12Z</time>
      </trkpt>
      <trkpt lat="44.84542" lon="5.19295">
        <ele>658.3</ele>
        <time>2024-07-01T10:56:13Z</time>
      </trkpt>
      <trkpt lat="44.84542" lon="5.19295">
        <ele>658.3</ele>
        <time>2024-07-01T10:56:14Z</time>
      </trkpt>
      <trkpt lat="44.84541" lon="5.19294">
        <ele>658.3</ele>
        <time>2024-07-01T10:56:15Z</time>
      </trkpt>
      <trkpt lat="44.84541" lon="5.19293">
        <ele>658.2</ele>
        <time>2024-07-01T10:56:16Z</time>
      </trkpt>
      <trkpt lat="44.8454" lon="5.19291">
        <ele>658.2</ele>
        <time>2024-07-01T10:56:17Z</time>
      </trkpt>
      <trkpt lat="44.8454" lon="5.1929">
        <ele>658.1</ele>
        <time>2024-07-01T10:56:18Z</time>
      </trkpt>
      <trkpt lat="44.84539" lon="5.1929">
        <ele>658.1</ele>
        <time>2024-07-01T10:56:20Z</time>
      </trkpt>
      <trkpt lat="44.84537" lon="5.19289">
        <ele>658</ele>
        <time>2024-07-01T10:56:21Z</time>
      </trkpt>
      <trkpt lat="44.84536" lon="5.1929">
        <ele>658</ele>
        <time>2024-07-01T10:56:22Z</time>
      </trkpt>
      <trkpt lat="44.84535" lon="5.1929">
        <ele>657.9</ele>
        <time>2024-07-01T10:56:23Z</time>
      </trkpt>
      <trkpt lat="44.84533" lon="5.19291">
        <ele>657.8</ele>
        <time>2024-07-01T10:56:24Z</time>
      </trkpt>
      <trkpt lat="44.84532" lon="5.19292">
        <ele>657.8</ele>
        <time>2024-07-01T10:56:26Z</time>
      </trkpt>
      <trkpt lat="44.84532" lon="5.19293">
        <ele>657.7</ele>
        <time>2024-07-01T10:56:27Z</time>
      </trkpt>
      <trkpt lat="44.8453" lon="5.19296">
        <ele>657.7</ele>
        <time>2024-07-01T10:56:28Z</time>
      </trkpt>
      <trkpt lat="44.8453" lon="5.19296">
        <ele>657.7</ele>
        <time>2024-07-01T10:56:30Z</time>
      </trkpt>
      <trkpt lat="44.8453" lon="5.19297">
        <ele>657.6</ele>
        <time>2024-07-01T10:56:31Z</time>
      </trkpt>
      <trkpt lat="44.84531" lon="5.19299">
        <ele>657.6</ele>
        <time>2024-07-01T10:56:32Z</time>
      </trkpt>
      <trkpt lat="44.84532" lon="5.193">
        <ele>657.6</ele>
        <time>2024-07-01T10:56:33Z</time>
      </trkpt>
      <trkpt lat="44.84532" lon="5.193">
        <ele>657.5</ele>
        <time>2024-07-01T10:56:34Z</time>
      </trkpt>
      <trkpt lat="44.84534" lon="5.193">
        <ele>657.5</ele>
        <time>2024-07-01T10:56:36Z</time>
      </trkpt>
      <trkpt lat="44.84536" lon="5.19301">
        <ele>657.4</ele>
        <time>2024-07-01T10:56:37Z</time>
      </trkpt>
      <trkpt lat="44.84536" lon="5.19302">
        <ele>657.4</ele>
        <time>2024-07-01T10:56:39Z</time>
      </trkpt>
      <trkpt lat="44.84536" lon="5.19303">
        <ele>657.4</ele>
        <time>2024-07-01T10:56:40Z</time>
      </trkpt>
      <trkpt lat="44.84536" lon="5.19305">
        <ele>657.4</ele>
        <time>2024-07-01T10:56:41Z</time>
      </trkpt>
      <trkpt lat="44.84535" lon="5.19306">
        <ele>657.3</ele>
        <time>2024-07-01T10:56:42Z</time>
      </trkpt>
      <trkpt lat="44.84533" lon="5.19308">
        <ele>657.3</ele>
        <time>2024-07-01T10:56:43Z</time>
      </trkpt>
      <trkpt lat="44.84532" lon="5.1931">
        <ele>657.2</ele>
        <time>2024-07-01T10:56:44Z</time>
      </trkpt>
      <trkpt lat="44.84531" lon="5.19312">
        <ele>657.2</ele>
        <time>2024-07-01T10:56:46Z</time>
      </trkpt>
      <trkpt lat="44.8453" lon="5.19313">
        <ele>657.1</ele>
        <time>2024-07-01T10:56:47Z</time>
      </trkpt>
      <trkpt lat="44.84529" lon="5.19316">
        <ele>657.1</ele>
        <time>2024-07-01T10:56:48Z</time>
      </trkpt>
      <trkpt lat="44.84528" lon="5.19317">
        <ele>657</ele>
        <time>2024-07-01T10:56:49Z</time>
      </trkpt>
      <trkpt lat="44.84527" lon="5.19318">
        <ele>657</ele>
        <time>2024-07-01T10:56:51Z</time>
      </trkpt>
      <trkpt lat="44.84526" lon="5.19319">
        <ele>656.9</ele>
        <time>2024-07-01T10:56:52Z</time>
      </trkpt>
      <trkpt lat="44.84524" lon="5.1932">
        <ele>656.9</ele>
        <time>2024-07-01T10:56:53Z</time>
      </trkpt>
      <trkpt lat="44.84524" lon="5.19321">
        <ele>656.8</ele>
        <time>2024-07-01T10:56:54Z</time>
      </trkpt>
      <trkpt lat="44.84523" lon="5.19323">
        <ele>656.8</ele>
        <time>2024-07-01T10:56:55Z</time>
      </trkpt>
      <trkpt lat="44.84522" lon="5.19324">
        <ele>656.7</ele>
        <time>2024-07-01T10:56:56Z</time>
      </trkpt>
      <trkpt lat="44.84521" lon="5.19326">
        <ele>656.6</ele>
        <time>2024-07-01T10:56:57Z</time>
      </trkpt>
      <trkpt lat="44.84521" lon="5.19328">
        <ele>656.6</ele>
        <time>2024-07-01T10:56:58Z</time>
      </trkpt>
      <trkpt lat="44.8452" lon="5.19331">
        <ele>656.4</ele>
        <time>2024-07-01T10:56:59Z</time>
      </trkpt>
      <trkpt lat="44.8452" lon="5.19333">
        <ele>656.4</ele>
        <time>2024-07-01T10:57:01Z</time>
      </trkpt>
      <trkpt lat="44.8452" lon="5.19335">
        <ele>656.3</ele>
        <time>2024-07-01T10:57:02Z</time>
      </trkpt>
      <trkpt lat="44.8452" lon="5.19337">
        <ele>656.2</ele>
        <time>2024-07-01T10:57:03Z</time>
      </trkpt>
      <trkpt lat="44.8452" lon="5.19341">
        <ele>656</ele>
        <time>2024-07-01T10:57:04Z</time>
      </trkpt>
      <trkpt lat="44.8452" lon="5.19343">
        <ele>656</ele>
        <time>2024-07-01T10:57:05Z</time>
      </trkpt>
      <trkpt lat="44.8452" lon="5.19344">
        <ele>655.9</ele>
        <time>2024-07-01T10:57:06Z</time>
      </trkpt>
      <trkpt lat="44.84519" lon="5.19347">
        <ele>655.8</ele>
        <time>2024-07-01T10:57:07Z</time>
      </trkpt>
      <trkpt lat="44.84519" lon="5.19349">
        <ele>655.7</ele>
        <time>2024-07-01T10:57:09Z</time>
      </trkpt>
      <trkpt lat="44.84519" lon="5.1935">
        <ele>655.7</ele>
        <time>2024-07-01T10:57:10Z</time>
      </trkpt>
      <trkpt lat="44.84519" lon="5.19351">
        <ele>655.6</ele>
        <time>2024-07-01T10:57:11Z</time>
      </trkpt>
      <trkpt lat="44.84519" lon="5.19352">
        <ele>655.6</ele>
        <time>2024-07-01T10:57:12Z</time>
      </trkpt>
      <trkpt lat="44.8452" lon="5.19353">
        <ele>655.5</ele>
        <time>2024-07-01T10:57:13Z</time>
      </trkpt>
      <trkpt lat="44.84521" lon="5.19354">
        <ele>655.4</ele>
        <time>2024-07-01T10:57:14Z</time>
      </trkpt>
      <trkpt lat="44.84524" lon="5.19356">
        <ele>655.2</ele>
        <time>2024-07-01T10:57:15Z</time>
      </trkpt>
      <trkpt lat="44.84524" lon="5.19356">
        <ele>655.2</ele>
        <time>2024-07-01T10:57:16Z</time>
      </trkpt>
      <trkpt lat="44.84526" lon="5.19357">
        <ele>655.1</ele>
        <time>2024-07-01T10:57:17Z</time>
      </trkpt>
      <trkpt lat="44.84527" lon="5.19358">
        <ele>655</ele>
        <time>2024-07-01T10:57:18Z</time>
      </trkpt>
      <trkpt lat="44.84528" lon="5.19359">
        <ele>655</ele>
        <time>2024-07-01T10:57:19Z</time>
      </trkpt>
      <trkpt lat="44.84529" lon="5.19359">
        <ele>654.9</ele>
        <time>2024-07-01T10:57:20Z</time>
      </trkpt>
      <trkpt lat="44.84531" lon="5.1936">
        <ele>654.9</ele>
        <time>2024-07-01T10:57:21Z</time>
      </trkpt>
      <trkpt lat="44.84532" lon="5.1936">
        <ele>654.8</ele>
        <time>2024-07-01T10:57:22Z</time>
      </trkpt>
      <trkpt lat="44.84533" lon="5.19361">
        <ele>654.7</ele>
        <time>2024-07-01T10:57:23Z</time>
      </trkpt>
      <trkpt lat="44.84536" lon="5.19362">
        <ele>654.6</ele>
        <time>2024-07-01T10:57:24Z</time>
      </trkpt>
      <trkpt lat="44.84538" lon="5.19363">
        <ele>654.5</ele>
        <time>2024-07-01T10:57:25Z</time>
      </trkpt>
      <trkpt lat="44.84539" lon="5.19363">
        <ele>654.5</ele>
        <time>2024-07-01T10:57:27Z</time>
      </trkpt>
      <trkpt lat="44.84541" lon="5.19364">
        <ele>654.4</ele>
        <time>2024-07-01T10:57:28Z</time>
      </trkpt>
      <trkpt lat="44.84541" lon="5.19365">
        <ele>654.4</ele>
        <time>2024-07-01T10:57:29Z</time>
      </trkpt>
      <trkpt lat="44.84543" lon="5.19366">
        <ele>654.3</ele>
        <time>2024-07-01T10:57:30Z</time>
      </trkpt>
      <trkpt lat="44.84544" lon="5.19367">
        <ele>654.2</ele>
        <time>2024-07-01T10:57:31Z</time>
      </trkpt>
      <trkpt lat="44.84545" lon="5.19368">
        <ele>654.2</ele>
        <time>2024-07-01T10:57:32Z</time>
      </trkpt>
      <trkpt lat="44.84546" lon="5.19371">
        <ele>654.1</ele>
        <time>2024-07-01T10:57:33Z</time>
      </trkpt>
      <trkpt lat="44.84547" lon="5.19372">
        <ele>654.1</ele>
        <time>2024-07-01T10:57:34Z</time>
      </trkpt>
      <trkpt lat="44.84548" lon="5.19373">
        <ele>654</ele>
        <time>2024-07-01T10:57:35Z</time>
      </trkpt>
      <trkpt lat="44.84548" lon="5.19374">
        <ele>654</ele>
        <time>2024-07-01T10:57:37Z</time>
      </trkpt>
      <trkpt lat="44.8455" lon="5.19376">
        <ele>653.9</ele>
        <time>2024-07-01T10:57:38Z</time>
      </trkpt>
      <trkpt lat="44.84551" lon="5.19377">
        <ele>653.9</ele>
        <time>2024-07-01T10:57:39Z</time>
      </trkpt>
      <trkpt lat="44.84551" lon="5.19378">
        <ele>653.8</ele>
        <time>2024-07-01T10:57:41Z</time>
      </trkpt>
      <trkpt lat="44.84552" lon="5.19381">
        <ele>653.8</ele>
        <time>2024-07-01T10:57:42Z</time>
      </trkpt>
      <trkpt lat="44.84553" lon="5.19382">
        <ele>653.7</ele>
        <time>2024-07-01T10:57:44Z</time>
      </trkpt>
      <trkpt lat="44.84554" lon="5.19383">
        <ele>653.7</ele>
        <time>2024-07-01T10:57:45Z</time>
      </trkpt>
      <trkpt lat="44.84555" lon="5.19384">
        <ele>653.6</ele>
        <time>2024-07-01T10:57:46Z</time>
      </trkpt>
      <trkpt lat="44.84556" lon="5.19385">
        <ele>653.6</ele>
        <time>2024-07-01T10:57:47Z</time>
      </trkpt>
      <trkpt lat="44.84557" lon="5.19386">
        <ele>653.6</ele>
        <time>2024-07-01T10:57:48Z</time>
      </trkpt>
      <trkpt lat="44.84558" lon="5.19388">
        <ele>653.5</ele>
        <time>2024-07-01T10:57:49Z</time>
      </trkpt>
      <trkpt lat="44.84559" lon="5.1939">
        <ele>653.5</ele>
        <time>2024-07-01T10:57:51Z</time>
      </trkpt>
      <trkpt lat="44.84559" lon="5.19391">
        <ele>653.5</ele>
        <time>2024-07-01T10:57:52Z</time>
      </trkpt>
      <trkpt lat="44.84559" lon="5.19393">
        <ele>653.5</ele>
        <time>2024-07-01T10:57:53Z</time>
      </trkpt>
      <trkpt lat="44.84557" lon="5.19393">
        <ele>653.4</ele>
        <time>2024-07-01T10:57:54Z</time>
      </trkpt>
      <trkpt lat="44.84556" lon="5.19392">
        <ele>653.4</ele>
        <time>2024-07-01T10:57:55Z</time>
      </trkpt>
      <trkpt lat="44.84555" lon="5.19392">
        <ele>653.4</ele>
        <time>2024-07-01T10:57:56Z</time>
      </trkpt>
      <trkpt lat="44.84554" lon="5.19391">
        <ele>653.4</ele>
        <time>2024-07-01T10:57:57Z</time>
      </trkpt>
      <trkpt lat="44.84552" lon="5.1939">
        <ele>653.3</ele>
        <time>2024-07-01T10:57:58Z</time>
      </trkpt>
      <trkpt lat="44.84551" lon="5.1939">
        <ele>653.3</ele>
        <time>2024-07-01T10:57:59Z</time>
      </trkpt>
      <trkpt lat="44.84551" lon="5.1939">
        <ele>653.3</ele>
        <time>2024-07-01T10:58:00Z</time>
      </trkpt>
      <trkpt lat="44.84551" lon="5.19392">
        <ele>653.3</ele>
        <time>2024-07-01T10:58:01Z</time>
      </trkpt>
      <trkpt lat="44.84552" lon="5.19394">
        <ele>653.3</ele>
        <time>2024-07-01T10:58:02Z</time>
      </trkpt>
      <trkpt lat="44.84553" lon="5.19396">
        <ele>653.2</ele>
        <time>2024-07-01T10:58:03Z</time>
      </trkpt>
      <trkpt lat="44.84553" lon="5.19397">
        <ele>653.2</ele>
        <time>2024-07-01T10:58:04Z</time>
      </trkpt>
      <trkpt lat="44.84554" lon="5.19398">
        <ele>653.2</ele>
        <time>2024-07-01T10:58:05Z</time>
      </trkpt>
      <trkpt lat="44.84554" lon="5.19399">
        <ele>653.2</ele>
        <time>2024-07-01T10:58:06Z</time>
      </trkpt>
      <trkpt lat="44.84554" lon="5.194">
        <ele>653.2</ele>
        <time>2024-07-01T10:58:07Z</time>
      </trkpt>
      <trkpt lat="44.84554" lon="5.194">
        <ele>653.2</ele>
        <time>2024-07-01T10:58:08Z</time>
      </trkpt>
      <trkpt lat="44.84554" lon="5.194">
        <ele>653.2</ele>
        <time>2024-07-01T10:58:09Z</time>
      </trkpt>
      <trkpt lat="44.84554" lon="5.194">
        <ele>653.2</ele>
        <time>2024-07-01T10:58:10Z</time>
      </trkpt>
      <trkpt lat="44.84554" lon="5.194">
        <ele>653.2</ele>
        <time>2024-07-01T10:58:11Z</time>
      </trkpt>
      <trkpt lat="44.84554" lon="5.194">
        <ele>653.2</ele>
        <time>2024-07-01T10:58:12Z</time>
      </trkpt>
      <trkpt lat="44.84554" lon="5.194">
        <ele>653.2</ele>
        <time>2024-07-01T10:58:13Z</time>
      </trkpt>
      <trkpt lat="44.84554" lon="5.194">
        <ele>653.2</ele>
        <time>2024-07-01T10:58:14Z</time>
      </trkpt>
      <trkpt lat="44.84554" lon="5.194">
        <ele>653.2</ele>
        <time>2024-07-01T10:58:15Z</time>
      </trkpt>
      <trkpt lat="44.84554" lon="5.194">
        <ele>653.2</ele>
        <time>2024-07-01T10:58:16Z</time>
      </trkpt>
      <trkpt lat="44.84555" lon="5.194">
        <ele>653.2</ele>
        <time>2024-07-01T10:58:17Z</time>
      </trkpt>
      <trkpt lat="44.84555" lon="5.194">
        <ele>653.2</ele>
        <time>2024-07-01T10:58:18Z</time>
      </trkpt>
      <trkpt lat="44.84555" lon="5.19399">
        <ele>653.2</ele>
        <time>2024-07-01T10:58:19Z</time>
      </trkpt>
      <trkpt lat="44.84555" lon="5.19399">
        <ele>653.2</ele>
        <time>2024-07-01T10:58:20Z</time>
      </trkpt>
      <trkpt lat="44.84555" lon="5.19399">
        <ele>653.2</ele>
        <time>2024-07-01T10:58:21Z</time>
      </trkpt>
      <trkpt lat="44.84555" lon="5.19399">
        <ele>653.1</ele>
        <time>2024-07-01T10:58:22Z</time>
      </trkpt>
      <trkpt lat="44.84555" lon="5.19399">
        <ele>653.1</ele>
        <time>2024-07-01T10:58:23Z</time>
      </trkpt>
      <trkpt lat="44.84555" lon="5.19399">
        <ele>653.1</ele>
        <time>2024-07-01T10:58:24Z</time>
      </trkpt>
      <trkpt lat="44.84556" lon="5.19398">
        <ele>653.1</ele>
        <time>2024-07-01T10:58:25Z</time>
      </trkpt>
      <trkpt lat="44.84556" lon="5.19398">
        <ele>653.1</ele>
        <time>2024-07-01T10:58:26Z</time>
      </trkpt>
      <trkpt lat="44.84556" lon="5.19398">
        <ele>653.1</ele>
        <time>2024-07-01T10:58:27Z</time>
      </trkpt>
      <trkpt lat="44.84556" lon="5.19397">
        <ele>653.1</ele>
        <time>2024-07-01T10:58:28Z</time>
      </trkpt>
      <trkpt lat="44.84557" lon="5.19397">
        <ele>653.1</ele>
        <time>2024-07-01T10:58:29Z</time>
      </trkpt>
      <trkpt lat="44.84556" lon="5.19396">
        <ele>653.1</ele>
        <time>2024-07-01T10:58:30Z</time>
      </trkpt>
      <trkpt lat="44.84555" lon="5.19396">
        <ele>653</ele>
        <time>2024-07-01T10:58:31Z</time>
      </trkpt>
      <trkpt lat="44.84555" lon="5.19395">
        <ele>653</ele>
        <time>2024-07-01T10:58:32Z</time>
      </trkpt>
      <trkpt lat="44.84554" lon="5.19395">
        <ele>653</ele>
        <time>2024-07-01T10:58:33Z</time>
      </trkpt>
      <trkpt lat="44.84553" lon="5.19394">
        <ele>653</ele>
        <time>2024-07-01T10:58:34Z</time>
      </trkpt>
      <trkpt lat="44.84552" lon="5.19391">
        <ele>652.9</ele>
        <time>2024-07-01T10:58:35Z</time>
      </trkpt>
      <trkpt lat="44.8455" lon="5.19388">
        <ele>652.8</ele>
        <time>2024-07-01T10:58:36Z</time>
      </trkpt>
      <trkpt lat="44.8455" lon="5.19388">
        <ele>652.8</ele>
        <time>2024-07-01T10:58:38Z</time>
      </trkpt>
      <trkpt lat="44.84549" lon="5.19387">
        <ele>652.8</ele>
        <time>2024-07-01T10:58:39Z</time>
      </trkpt>
      <trkpt lat="44.84548" lon="5.19385">
        <ele>652.7</ele>
        <time>2024-07-01T10:58:40Z</time>
      </trkpt>
      <trkpt lat="44.84547" lon="5.19385">
        <ele>652.7</ele>
        <time>2024-07-01T10:58:41Z</time>
      </trkpt>
      <trkpt lat="44.84546" lon="5.19384">
        <ele>652.7</ele>
        <time>2024-07-01T10:58:42Z</time>
      </trkpt>
      <trkpt lat="44.84545" lon="5.19383">
        <ele>652.6</ele>
        <time>2024-07-01T10:58:43Z</time>
      </trkpt>
      <trkpt lat="44.84544" lon="5.19382">
        <ele>652.6</ele>
        <time>2024-07-01T10:58:44Z</time>
      </trkpt>
      <trkpt lat="44.84542" lon="5.19381">
        <ele>652.5</ele>
        <time>2024-07-01T10:58:45Z</time>
      </trkpt>
      <trkpt lat="44.84541" lon="5.1938">
        <ele>652.5</ele>
        <time>2024-07-01T10:58:47Z</time>
      </trkpt>
      <trkpt lat="44.8454" lon="5.19379">
        <ele>652.5</ele>
        <time>2024-07-01T10:58:48Z</time>
      </trkpt>
      <trkpt lat="44.84538" lon="5.19378">
        <ele>652.4</ele>
        <time>2024-07-01T10:58:49Z</time>
      </trkpt>
      <trkpt lat="44.84537" lon="5.19377">
        <ele>652.4</ele>
        <time>2024-07-01T10:58:50Z</time>
      </trkpt>
      <trkpt lat="44.84536" lon="5.19377">
        <ele>652.4</ele>
        <time>2024-07-01T10:58:51Z</time>
      </trkpt>
      <trkpt lat="44.84536" lon="5.19376">
        <ele>652.4</ele>
        <time>2024-07-01T10:58:52Z</time>
      </trkpt>
      <trkpt lat="44.84535" lon="5.19375">
        <ele>652.3</ele>
        <time>2024-07-01T10:58:53Z</time>
      </trkpt>
      <trkpt lat="44.84533" lon="5.19375">
        <ele>652.3</ele>
        <time>2024-07-01T10:58:54Z</time>
      </trkpt>
      <trkpt lat="44.84533" lon="5.19377">
        <ele>652.3</ele>
        <time>2024-07-01T10:58:55Z</time>
      </trkpt>
      <trkpt lat="44.84532" lon="5.19378">
        <ele>652.3</ele>
        <time>2024-07-01T10:58:56Z</time>
      </trkpt>
      <trkpt lat="44.84532" lon="5.19379">
        <ele>652.2</ele>
        <time>2024-07-01T10:58:57Z</time>
      </trkpt>
      <trkpt lat="44.84532" lon="5.1938">
        <ele>652.2</ele>
        <time>2024-07-01T10:58:58Z</time>
      </trkpt>
      <trkpt lat="44.84532" lon="5.1938">
        <ele>652.2</ele>
        <time>2024-07-01T10:58:59Z</time>
      </trkpt>
      <trkpt lat="44.84533" lon="5.19382">
        <ele>652.2</ele>
        <time>2024-07-01T10:59:00Z</time>
      </trkpt>
      <trkpt lat="44.84534" lon="5.19382">
        <ele>652.2</ele>
        <time>2024-07-01T10:59:01Z</time>
      </trkpt>
      <trkpt lat="44.84534" lon="5.19382">
        <ele>652.2</ele>
        <time>2024-07-01T10:59:02Z</time>
      </trkpt>
      <trkpt lat="44.84534" lon="5.19381">
        <ele>652.2</ele>
        <time>2024-07-01T10:59:03Z</time>
      </trkpt>
      <trkpt lat="44.84533" lon="5.19381">
        <ele>652.1</ele>
        <time>2024-07-01T10:59:04Z</time>
      </trkpt>
      <trkpt lat="44.84533" lon="5.1938">
        <ele>652.1</ele>
        <time>2024-07-01T10:59:05Z</time>
      </trkpt>
      <trkpt lat="44.84533" lon="5.1938">
        <ele>652.1</ele>
        <time>2024-07-01T10:59:06Z</time>
      </trkpt>
      <trkpt lat="44.84532" lon="5.19379">
        <ele>652.1</ele>
        <time>2024-07-01T10:59:08Z</time>
      </trkpt>
      <trkpt lat="44.84532" lon="5.19378">
        <ele>652.1</ele>
        <time>2024-07-01T10:59:09Z</time>
      </trkpt>
      <trkpt lat="44.84532" lon="5.19378">
        <ele>652.1</ele>
        <time>2024-07-01T10:59:10Z</time>
      </trkpt>
      <trkpt lat="44.84531" lon="5.19377">
        <ele>652</ele>
        <time>2024-07-01T10:59:11Z</time>
      </trkpt>
      <trkpt lat="44.84529" lon="5.19376">
        <ele>652</ele>
        <time>2024-07-01T10:59:12Z</time>
      </trkpt>
      <trkpt lat="44.84527" lon="5.19375">
        <ele>651.9</ele>
        <time>2024-07-01T10:59:14Z</time>
      </trkpt>
      <trkpt lat="44.84526" lon="5.19373">
        <ele>651.9</ele>
        <time>2024-07-01T10:59:15Z</time>
      </trkpt>
      <trkpt lat="44.84523" lon="5.1937">
        <ele>651.7</ele>
        <time>2024-07-01T10:59:16Z</time>
      </trkpt>
      <trkpt lat="44.84522" lon="5.19368">
        <ele>651.7</ele>
        <time>2024-07-01T10:59:17Z</time>
      </trkpt>
      <trkpt lat="44.84521" lon="5.19367">
        <ele>651.6</ele>
        <time>2024-07-01T10:59:19Z</time>
      </trkpt>
      <trkpt lat="44.8452" lon="5.19366">
        <ele>651.6</ele>
        <time>2024-07-01T10:59:20Z</time>
      </trkpt>
      <trkpt lat="44.84519" lon="5.19365">
        <ele>651.6</ele>
        <time>2024-07-01T10:59:21Z</time>
      </trkpt>
      <trkpt lat="44.84517" lon="5.19364">
        <ele>651.5</ele>
        <time>2024-07-01T10:59:22Z</time>
      </trkpt>
      <trkpt lat="44.84516" lon="5.19364">
        <ele>651.5</ele>
        <time>2024-07-01T10:59:23Z</time>
      </trkpt>
      <trkpt lat="44.84514" lon="5.19362">
        <ele>651.4</ele>
        <time>2024-07-01T10:59:24Z</time>
      </trkpt>
      <trkpt lat="44.84513" lon="5.1936">
        <ele>651.4</ele>
        <time>2024-07-01T10:59:25Z</time>
      </trkpt>
      <trkpt lat="44.84513" lon="5.19358">
        <ele>651.4</ele>
        <time>2024-07-01T10:59:27Z</time>
      </trkpt>
      <trkpt lat="44.84512" lon="5.19357">
        <ele>651.3</ele>
        <time>2024-07-01T10:59:28Z</time>
      </trkpt>
      <trkpt lat="44.84512" lon="5.19356">
        <ele>651.3</ele>
        <time>2024-07-01T10:59:29Z</time>
      </trkpt>
      <trkpt lat="44.84511" lon="5.19355">
        <ele>651.3</ele>
        <time>2024-07-01T10:59:30Z</time>
      </trkpt>
      <trkpt lat="44.84511" lon="5.19352">
        <ele>651.3</ele>
        <time>2024-07-01T10:59:31Z</time>
      </trkpt>
      <trkpt lat="44.8451" lon="5.19351">
        <ele>651.2</ele>
        <time>2024-07-01T10:59:32Z</time>
      </trkpt>
      <trkpt lat="44.84509" lon="5.1935">
        <ele>651.2</ele>
        <time>2024-07-01T10:59:33Z</time>
      </trkpt>
      <trkpt lat="44.84508" lon="5.19348">
        <ele>651.2</ele>
        <time>2024-07-01T10:59:34Z</time>
      </trkpt>
      <trkpt lat="44.84508" lon="5.19347">
        <ele>651.2</ele>
        <time>2024-07-01T10:59:35Z</time>
      </trkpt>
      <trkpt lat="44.84507" lon="5.19345">
        <ele>651.2</ele>
        <time>2024-07-01T10:59:36Z</time>
      </trkpt>
      <trkpt lat="44.84507" lon="5.19342">
        <ele>651.2</ele>
        <time>2024-07-01T10:59:37Z</time>
      </trkpt>
      <trkpt lat="44.84506" lon="5.1934">
        <ele>651.2</ele>
        <time>2024-07-01T10:59:39Z</time>
      </trkpt>
      <trkpt lat="44.84506" lon="5.19337">
        <ele>651.1</ele>
        <time>2024-07-01T10:59:40Z</time>
      </trkpt>
      <trkpt lat="44.84505" lon="5.19335">
        <ele>651.1</ele>
        <time>2024-07-01T10:59:41Z</time>
      </trkpt>
      <trkpt lat="44.84505" lon="5.19332">
        <ele>651.1</ele>
        <time>2024-07-01T10:59:42Z</time>
      </trkpt>
      <trkpt lat="44.84504" lon="5.19331">
        <ele>651.1</ele>
        <time>2024-07-01T10:59:44Z</time>
      </trkpt>
      <trkpt lat="44.84504" lon="5.1933">
        <ele>651.1</ele>
        <time>2024-07-01T10:59:45Z</time>
      </trkpt>
      <trkpt lat="44.84504" lon="5.19328">
        <ele>651.1</ele>
        <time>2024-07-01T10:59:46Z</time>
      </trkpt>
      <trkpt lat="44.84505" lon="5.19325">
        <ele>651.1</ele>
        <time>2024-07-01T10:59:47Z</time>
      </trkpt>
      <trkpt lat="44.84503" lon="5.19322">
        <ele>651</ele>
        <time>2024-07-01T10:59:49Z</time>
      </trkpt>
      <trkpt lat="44.84502" lon="5.19321">
        <ele>651</ele>
        <time>2024-07-01T10:59:51Z</time>
      </trkpt>
      <trkpt lat="44.84501" lon="5.1932">
        <ele>651</ele>
        <time>2024-07-01T10:59:52Z</time>
      </trkpt>
      <trkpt lat="44.845" lon="5.19318">
        <ele>651</ele>
        <time>2024-07-01T10:59:54Z</time>
      </trkpt>
      <trkpt lat="44.845" lon="5.19317">
        <ele>651</ele>
        <time>2024-07-01T10:59:55Z</time>
      </trkpt>
      <trkpt lat="44.84499" lon="5.19316">
        <ele>650.9</ele>
        <time>2024-07-01T10:59:56Z</time>
      </trkpt>
      <trkpt lat="44.84498" lon="5.19315">
        <ele>650.9</ele>
        <time>2024-07-01T10:59:57Z</time>
      </trkpt>
      <trkpt lat="44.84497" lon="5.19313">
        <ele>650.9</ele>
        <time>2024-07-01T10:59:58Z</time>
      </trkpt>
      <trkpt lat="44.84497" lon="5.19312">
        <ele>650.9</ele>
        <time>2024-07-01T10:59:59Z</time>
      </trkpt>
      <trkpt lat="44.84495" lon="5.19312">
        <ele>650.8</ele>
        <time>2024-07-01T11:00:00Z</time>
      </trkpt>
      <trkpt lat="44.84493" lon="5.19314">
        <ele>650.8</ele>
        <time>2024-07-01T11:00:01Z</time>
      </trkpt>
      <trkpt lat="44.84492" lon="5.19316">
        <ele>650.8</ele>
        <time>2024-07-01T11:00:03Z</time>
      </trkpt>
      <trkpt lat="44.84492" lon="5.19319">
        <ele>650.7</ele>
        <time>2024-07-01T11:00:04Z</time>
      </trkpt>
      <trkpt lat="44.84493" lon="5.19321">
        <ele>650.7</ele>
        <time>2024-07-01T11:00:05Z</time>
      </trkpt>
      <trkpt lat="44.84493" lon="5.19323">
        <ele>650.7</ele>
        <time>2024-07-01T11:00:06Z</time>
      </trkpt>
      <trkpt lat="44.84494" lon="5.19325">
        <ele>650.6</ele>
        <time>2024-07-01T11:00:07Z</time>
      </trkpt>
      <trkpt lat="44.84495" lon="5.19328">
        <ele>650.5</ele>
        <time>2024-07-01T11:00:08Z</time>
      </trkpt>
      <trkpt lat="44.84496" lon="5.1933">
        <ele>650.5</ele>
        <time>2024-07-01T11:00:10Z</time>
      </trkpt>
      <trkpt lat="44.84498" lon="5.19332">
        <ele>650.4</ele>
        <time>2024-07-01T11:00:11Z</time>
      </trkpt>
      <trkpt lat="44.84499" lon="5.19333">
        <ele>650.4</ele>
        <time>2024-07-01T11:00:13Z</time>
      </trkpt>
      <trkpt lat="44.845" lon="5.19334">
        <ele>650.4</ele>
        <time>2024-07-01T11:00:14Z</time>
      </trkpt>
      <trkpt lat="44.84501" lon="5.19337">
        <ele>650.3</ele>
        <time>2024-07-01T11:00:15Z</time>
      </trkpt>
      <trkpt lat="44.84502" lon="5.19337">
        <ele>650.3</ele>
        <time>2024-07-01T11:00:17Z</time>
      </trkpt>
      <trkpt lat="44.84502" lon="5.19336">
        <ele>650.2</ele>
        <time>2024-07-01T11:00:18Z</time>
      </trkpt>
      <trkpt lat="44.84503" lon="5.19336">
        <ele>650.2</ele>
        <time>2024-07-01T11:00:19Z</time>
      </trkpt>
      <trkpt lat="44.84504" lon="5.19337">
        <ele>650.2</ele>
        <time>2024-07-01T11:00:20Z</time>
      </trkpt>
      <trkpt lat="44.84504" lon="5.1934">
        <ele>650.1</ele>
        <time>2024-07-01T11:00:21Z</time>
      </trkpt>
      <trkpt lat="44.84504" lon="5.19341">
        <ele>650.1</ele>
        <time>2024-07-01T11:00:23Z</time>
      </trkpt>
      <trkpt lat="44.84503" lon="5.19342">
        <ele>650.1</ele>
        <time>2024-07-01T11:00:24Z</time>
      </trkpt>
      <trkpt lat="44.84502" lon="5.19342">
        <ele>650</ele>
        <time>2024-07-01T11:00:25Z</time>
      </trkpt>
      <trkpt lat="44.84501" lon="5.19343">
        <ele>650</ele>
        <time>2024-07-01T11:00:26Z</time>
      </trkpt>
      <trkpt lat="44.84501" lon="5.19344">
        <ele>650</ele>
        <time>2024-07-01T11:00:27Z</time>
      </trkpt>
      <trkpt lat="44.84502" lon="5.19345">
        <ele>650</ele>
        <time>2024-07-01T11:00:28Z</time>
      </trkpt>
      <trkpt lat="44.84502" lon="5.19347">
        <ele>649.9</ele>
        <time>2024-07-01T11:00:29Z</time>
      </trkpt>
      <trkpt lat="44.84502" lon="5.1935">
        <ele>649.9</ele>
        <time>2024-07-01T11:00:30Z</time>
      </trkpt>
      <trkpt lat="44.84502" lon="5.19351">
        <ele>649.9</ele>
        <time>2024-07-01T11:00:32Z</time>
      </trkpt>
      <trkpt lat="44.84504" lon="5.19354">
        <ele>649.8</ele>
        <time>2024-07-01T11:00:33Z</time>
      </trkpt>
      <trkpt lat="44.84504" lon="5.19356">
        <ele>649.8</ele>
        <time>2024-07-01T11:00:35Z</time>
      </trkpt>
      <trkpt lat="44.84505" lon="5.19358">
        <ele>649.7</ele>
        <time>2024-07-01T11:00:36Z</time>
      </trkpt>
      <trkpt lat="44.84505" lon="5.19359">
        <ele>649.7</ele>
        <time>2024-07-01T11:00:37Z</time>
      </trkpt>
      <trkpt lat="44.84505" lon="5.19361">
        <ele>649.7</ele>
        <time>2024-07-01T11:00:38Z</time>
      </trkpt>
      <trkpt lat="44.84506" lon="5.19362">
        <ele>649.7</ele>
        <time>2024-07-01T11:00:39Z</time>
      </trkpt>
      <trkpt lat="44.84505" lon="5.19363">
        <ele>649.7</ele>
        <time>2024-07-01T11:00:40Z</time>
      </trkpt>
      <trkpt lat="44.84505" lon="5.19363">
        <ele>649.6</ele>
        <time>2024-07-01T11:00:42Z</time>
      </trkpt>
      <trkpt lat="44.84504" lon="5.19364">
        <ele>649.6</ele>
        <time>2024-07-01T11:00:43Z</time>
      </trkpt>
      <trkpt lat="44.84505" lon="5.19365">
        <ele>649.6</ele>
        <time>2024-07-01T11:00:44Z</time>
      </trkpt>
      <trkpt lat="44.84505" lon="5.19366">
        <ele>649.6</ele>
        <time>2024-07-01T11:00:45Z</time>
      </trkpt>
      <trkpt lat="44.84507" lon="5.19367">
        <ele>649.5</ele>
        <time>2024-07-01T11:00:46Z</time>
      </trkpt>
      <trkpt lat="44.84508" lon="5.19369">
        <ele>649.4</ele>
        <time>2024-07-01T11:00:47Z</time>
      </trkpt>
      <trkpt lat="44.84511" lon="5.19369">
        <ele>649.4</ele>
        <time>2024-07-01T11:00:49Z</time>
      </trkpt>
      <trkpt lat="44.84511" lon="5.19369">
        <ele>649.3</ele>
        <time>2024-07-01T11:00:50Z</time>
      </trkpt>
      <trkpt lat="44.84512" lon="5.19369">
        <ele>649.3</ele>
        <time>2024-07-01T11:00:51Z</time>
      </trkpt>
      <trkpt lat="44.84513" lon="5.19369">
        <ele>649.2</ele>
        <time>2024-07-01T11:00:52Z</time>
      </trkpt>
      <trkpt lat="44.84515" lon="5.19369">
        <ele>649.2</ele>
        <time>2024-07-01T11:00:53Z</time>
      </trkpt>
      <trkpt lat="44.84517" lon="5.1937">
        <ele>649.1</ele>
        <time>2024-07-01T11:00:54Z</time>
      </trkpt>
      <trkpt lat="44.84518" lon="5.1937">
        <ele>649</ele>
        <time>2024-07-01T11:00:55Z</time>
      </trkpt>
      <trkpt lat="44.84521" lon="5.19372">
        <ele>648.9</ele>
        <time>2024-07-01T11:00:56Z</time>
      </trkpt>
      <trkpt lat="44.84522" lon="5.19373">
        <ele>648.8</ele>
        <time>2024-07-01T11:00:58Z</time>
      </trkpt>
      <trkpt lat="44.84523" lon="5.19374">
        <ele>648.8</ele>
        <time>2024-07-01T11:00:59Z</time>
      </trkpt>
      <trkpt lat="44.84523" lon="5.19376">
        <ele>648.7</ele>
        <time>2024-07-01T11:01:01Z</time>
      </trkpt>
      <trkpt lat="44.84522" lon="5.19378">
        <ele>648.7</ele>
        <time>2024-07-01T11:01:02Z</time>
      </trkpt>
      <trkpt lat="44.8452" lon="5.19378">
        <ele>648.6</ele>
        <time>2024-07-01T11:01:03Z</time>
      </trkpt>
      <trkpt lat="44.84518" lon="5.19378">
        <ele>648.5</ele>
        <time>2024-07-01T11:01:04Z</time>
      </trkpt>
      <trkpt lat="44.84517" lon="5.19377">
        <ele>648.5</ele>
        <time>2024-07-01T11:01:05Z</time>
      </trkpt>
      <trkpt lat="44.84516" lon="5.19376">
        <ele>648.4</ele>
        <time>2024-07-01T11:01:06Z</time>
      </trkpt>
      <trkpt lat="44.84516" lon="5.19374">
        <ele>648.3</ele>
        <time>2024-07-01T11:01:07Z</time>
      </trkpt>
      <trkpt lat="44.84516" lon="5.19372">
        <ele>648.3</ele>
        <time>2024-07-01T11:01:08Z</time>
      </trkpt>
      <trkpt lat="44.84517" lon="5.1937">
        <ele>648.2</ele>
        <time>2024-07-01T11:01:09Z</time>
      </trkpt>
      <trkpt lat="44.84517" lon="5.19369">
        <ele>648.2</ele>
        <time>2024-07-01T11:01:10Z</time>
      </trkpt>
      <trkpt lat="44.84517" lon="5.19368">
        <ele>648.2</ele>
        <time>2024-07-01T11:01:11Z</time>
      </trkpt>
      <trkpt lat="44.84517" lon="5.19368">
        <ele>648.2</ele>
        <time>2024-07-01T11:01:12Z</time>
      </trkpt>
      <trkpt lat="44.84517" lon="5.19366">
        <ele>648.1</ele>
        <time>2024-07-01T11:01:13Z</time>
      </trkpt>
      <trkpt lat="44.84517" lon="5.19365">
        <ele>648.1</ele>
        <time>2024-07-01T11:01:14Z</time>
      </trkpt>
      <trkpt lat="44.84517" lon="5.19364">
        <ele>648.1</ele>
        <time>2024-07-01T11:01:15Z</time>
      </trkpt>
      <trkpt lat="44.84517" lon="5.19363">
        <ele>648.1</ele>
        <time>2024-07-01T11:01:16Z</time>
      </trkpt>
      <trkpt lat="44.84516" lon="5.19363">
        <ele>648.1</ele>
        <time>2024-07-01T11:01:17Z</time>
      </trkpt>
      <trkpt lat="44.84517" lon="5.19363">
        <ele>648.1</ele>
        <time>2024-07-01T11:01:18Z</time>
      </trkpt>
      <trkpt lat="44.84517" lon="5.19363">
        <ele>648.1</ele>
        <time>2024-07-01T11:01:19Z</time>
      </trkpt>
      <trkpt lat="44.84517" lon="5.19363">
        <ele>648.1</ele>
        <time>2024-07-01T11:01:20Z</time>
      </trkpt>
      <trkpt lat="44.84517" lon="5.19363">
        <ele>648.1</ele>
        <time>2024-07-01T11:01:21Z</time>
      </trkpt>
      <trkpt lat="44.84517" lon="5.19363">
        <ele>648.1</ele>
        <time>2024-07-01T11:01:22Z</time>
      </trkpt>
      <trkpt lat="44.84517" lon="5.19363">
        <ele>648</ele>
        <time>2024-07-01T11:01:24Z</time>
      </trkpt>
      <trkpt lat="44.84516" lon="5.19364">
        <ele>648</ele>
        <time>2024-07-01T11:01:26Z</time>
      </trkpt>
      <trkpt lat="44.84513" lon="5.19363">
        <ele>648</ele>
        <time>2024-07-01T11:01:27Z</time>
      </trkpt>
      <trkpt lat="44.84513" lon="5.19361">
        <ele>647.9</ele>
        <time>2024-07-01T11:01:28Z</time>
      </trkpt>
      <trkpt lat="44.84513" lon="5.19362">
        <ele>647.9</ele>
        <time>2024-07-01T11:01:30Z</time>
      </trkpt>
      <trkpt lat="44.84512" lon="5.19361">
        <ele>647.9</ele>
        <time>2024-07-01T11:01:31Z</time>
      </trkpt>
      <trkpt lat="44.84511" lon="5.1936">
        <ele>647.9</ele>
        <time>2024-07-01T11:01:32Z</time>
      </trkpt>
      <trkpt lat="44.8451" lon="5.1936">
        <ele>647.9</ele>
        <time>2024-07-01T11:01:34Z</time>
      </trkpt>
      <trkpt lat="44.84509" lon="5.19359">
        <ele>647.9</ele>
        <time>2024-07-01T11:01:35Z</time>
      </trkpt>
      <trkpt lat="44.84508" lon="5.19358">
        <ele>647.8</ele>
        <time>2024-07-01T11:01:36Z</time>
      </trkpt>
      <trkpt lat="44.84507" lon="5.19358">
        <ele>647.8</ele>
        <time>2024-07-01T11:01:38Z</time>
      </trkpt>
      <trkpt lat="44.84507" lon="5.19357">
        <ele>647.8</ele>
        <time>2024-07-01T11:01:39Z</time>
      </trkpt>
      <trkpt lat="44.84506" lon="5.19356">
        <ele>647.8</ele>
        <time>2024-07-01T11:01:40Z</time>
      </trkpt>
      <trkpt lat="44.84506" lon="5.19355">
        <ele>647.8</ele>
        <time>2024-07-01T11:01:41Z</time>
      </trkpt>
      <trkpt lat="44.84505" lon="5.19354">
        <ele>647.8</ele>
        <time>2024-07-01T11:01:42Z</time>
      </trkpt>
      <trkpt lat="44.84504" lon="5.19354">
        <ele>647.7</ele>
        <time>2024-07-01T11:01:44Z</time>
      </trkpt>
      <trkpt lat="44.84503" lon="5.19354">
        <ele>647.7</ele>
        <time>2024-07-01T11:01:45Z</time>
      </trkpt>
      <trkpt lat="44.84503" lon="5.19354">
        <ele>647.7</ele>
        <time>2024-07-01T11:01:46Z</time>
      </trkpt>
      <trkpt lat="44.84502" lon="5.19354">
        <ele>647.7</ele>
        <time>2024-07-01T11:01:47Z</time>
      </trkpt>
      <trkpt lat="44.84502" lon="5.19354">
        <ele>647.7</ele>
        <time>2024-07-01T11:01:48Z</time>
      </trkpt>
      <trkpt lat="44.84501" lon="5.19353">
        <ele>647.7</ele>
        <time>2024-07-01T11:01:49Z</time>
      </trkpt>
      <trkpt lat="44.84501" lon="5.19353">
        <ele>647.7</ele>
        <time>2024-07-01T11:01:50Z</time>
      </trkpt>
      <trkpt lat="44.845" lon="5.19352">
        <ele>647.7</ele>
        <time>2024-07-01T11:01:51Z</time>
      </trkpt>
      <trkpt lat="44.84499" lon="5.19351">
        <ele>647.6</ele>
        <time>2024-07-01T11:01:52Z</time>
      </trkpt>
      <trkpt lat="44.84498" lon="5.1935">
        <ele>647.6</ele>
        <time>2024-07-01T11:01:54Z</time>
      </trkpt>
      <trkpt lat="44.84497" lon="5.19349">
        <ele>647.6</ele>
        <time>2024-07-01T11:01:55Z</time>
      </trkpt>
      <trkpt lat="44.84496" lon="5.19348">
        <ele>647.5</ele>
        <time>2024-07-01T11:01:57Z</time>
      </trkpt>
      <trkpt lat="44.84496" lon="5.19347">
        <ele>647.5</ele>
        <time>2024-07-01T11:01:58Z</time>
      </trkpt>
      <trkpt lat="44.84495" lon="5.19347">
        <ele>647.5</ele>
        <time>2024-07-01T11:01:59Z</time>
      </trkpt>
      <trkpt lat="44.84495" lon="5.19346">
        <ele>647.5</ele>
        <time>2024-07-01T11:02:00Z</time>
      </trkpt>
      <trkpt lat="44.84494" lon="5.19345">
        <ele>647.4</ele>
        <time>2024-07-01T11:02:01Z</time>
      </trkpt>
      <trkpt lat="44.84493" lon="5.19343">
        <ele>647.4</ele>
        <time>2024-07-01T11:02:02Z</time>
      </trkpt>
      <trkpt lat="44.84492" lon="5.19343">
        <ele>647.4</ele>
        <time>2024-07-01T11:02:04Z</time>
      </trkpt>
      <trkpt lat="44.84492" lon="5.19342">
        <ele>647.3</ele>
        <time>2024-07-01T11:02:05Z</time>
      </trkpt>
      <trkpt lat="44.84491" lon="5.1934">
        <ele>647.3</ele>
        <time>2024-07-01T11:02:06Z</time>
      </trkpt>
      <trkpt lat="44.8449" lon="5.19339">
        <ele>647.2</ele>
        <time>2024-07-01T11:02:08Z</time>
      </trkpt>
      <trkpt lat="44.8449" lon="5.19338">
        <ele>647.2</ele>
        <time>2024-07-01T11:02:09Z</time>
      </trkpt>
      <trkpt lat="44.84489" lon="5.19337">
        <ele>647.2</ele>
        <time>2024-07-01T11:02:10Z</time>
      </trkpt>
      <trkpt lat="44.84489" lon="5.19336">
        <ele>647.1</ele>
        <time>2024-07-01T11:02:11Z</time>
      </trkpt>
      <trkpt lat="44.84489" lon="5.19335">
        <ele>647.1</ele>
        <time>2024-07-01T11:02:12Z</time>
      </trkpt>
      <trkpt lat="44.84489" lon="5.19334">
        <ele>647.1</ele>
        <time>2024-07-01T11:02:13Z</time>
      </trkpt>
      <trkpt lat="44.84488" lon="5.19333">
        <ele>647.1</ele>
        <time>2024-07-01T11:02:14Z</time>
      </trkpt>
      <trkpt lat="44.84488" lon="5.19331">
        <ele>647</ele>
        <time>2024-07-01T11:02:15Z</time>
      </trkpt>
      <trkpt lat="44.84488" lon="5.1933">
        <ele>647</ele>
        <time>2024-07-01T11:02:16Z</time>
      </trkpt>
      <trkpt lat="44.84487" lon="5.19329">
        <ele>647</ele>
        <time>2024-07-01T11:02:17Z</time>
      </trkpt>
      <trkpt lat="44.84486" lon="5.19329">
        <ele>646.9</ele>
        <time>2024-07-01T11:02:18Z</time>
      </trkpt>
      <trkpt lat="44.84486" lon="5.19327">
        <ele>646.9</ele>
        <time>2024-07-01T11:02:19Z</time>
      </trkpt>
      <trkpt lat="44.84484" lon="5.19326">
        <ele>646.8</ele>
        <time>2024-07-01T11:02:20Z</time>
      </trkpt>
      <trkpt lat="44.84483" lon="5.19324">
        <ele>646.8</ele>
        <time>2024-07-01T11:02:21Z</time>
      </trkpt>
      <trkpt lat="44.84483" lon="5.19323">
        <ele>646.7</ele>
        <time>2024-07-01T11:02:23Z</time>
      </trkpt>
      <trkpt lat="44.84482" lon="5.19322">
        <ele>646.7</ele>
        <time>2024-07-01T11:02:24Z</time>
      </trkpt>
      <trkpt lat="44.84481" lon="5.1932">
        <ele>646.6</ele>
        <time>2024-07-01T11:02:25Z</time>
      </trkpt>
      <trkpt lat="44.8448" lon="5.19319">
        <ele>646.6</ele>
        <time>2024-07-01T11:02:27Z</time>
      </trkpt>
      <trkpt lat="44.84479" lon="5.19318">
        <ele>646.5</ele>
        <time>2024-07-01T11:02:28Z</time>
      </trkpt>
      <trkpt lat="44.84478" lon="5.19316">
        <ele>646.5</ele>
        <time>2024-07-01T11:02:29Z</time>
      </trkpt>
      <trkpt lat="44.84478" lon="5.19315">
        <ele>646.5</ele>
        <time>2024-07-01T11:02:30Z</time>
      </trkpt>
      <trkpt lat="44.84477" lon="5.19314">
        <ele>646.4</ele>
        <time>2024-07-01T11:02:31Z</time>
      </trkpt>
      <trkpt lat="44.84475" lon="5.19312">
        <ele>646.3</ele>
        <time>2024-07-01T11:02:32Z</time>
      </trkpt>
      <trkpt lat="44.84474" lon="5.19311">
        <ele>646.3</ele>
        <time>2024-07-01T11:02:34Z</time>
      </trkpt>
      <trkpt lat="44.84473" lon="5.19311">
        <ele>646.2</ele>
        <time>2024-07-01T11:02:35Z</time>
      </trkpt>
      <trkpt lat="44.84471" lon="5.19309">
        <ele>646.2</ele>
        <time>2024-07-01T11:02:36Z</time>
      </trkpt>
      <trkpt lat="44.84469" lon="5.19308">
        <ele>646.1</ele>
        <time>2024-07-01T11:02:38Z</time>
      </trkpt>
      <trkpt lat="44.84469" lon="5.19308">
        <ele>646.1</ele>
        <time>2024-07-01T11:02:39Z</time>
      </trkpt>
      <trkpt lat="44.84468" lon="5.19308">
        <ele>646</ele>
        <time>2024-07-01T11:02:40Z</time>
      </trkpt>
      <trkpt lat="44.84467" lon="5.19308">
        <ele>646</ele>
        <time>2024-07-01T11:02:41Z</time>
      </trkpt>
      <trkpt lat="44.84466" lon="5.19308">
        <ele>646</ele>
        <time>2024-07-01T11:02:42Z</time>
      </trkpt>
      <trkpt lat="44.84462" lon="5.19306">
        <ele>645.9</ele>
        <time>2024-07-01T11:02:43Z</time>
      </trkpt>
      <trkpt lat="44.84462" lon="5.19306">
        <ele>645.8</ele>
        <time>2024-07-01T11:02:45Z</time>
      </trkpt>
      <trkpt lat="44.84461" lon="5.19305">
        <ele>645.8</ele>
        <time>2024-07-01T11:02:46Z</time>
      </trkpt>
      <trkpt lat="44.8446" lon="5.19305">
        <ele>645.8</ele>
        <time>2024-07-01T11:02:48Z</time>
      </trkpt>
      <trkpt lat="44.84459" lon="5.19304">
        <ele>645.7</ele>
        <time>2024-07-01T11:02:49Z</time>
      </trkpt>
      <trkpt lat="44.84458" lon="5.19304">
        <ele>645.7</ele>
        <time>2024-07-01T11:02:50Z</time>
      </trkpt>
      <trkpt lat="44.84457" lon="5.19303">
        <ele>645.7</ele>
        <time>2024-07-01T11:02:51Z</time>
      </trkpt>
      <trkpt lat="44.84456" lon="5.19303">
        <ele>645.6</ele>
        <time>2024-07-01T11:02:52Z</time>
      </trkpt>
      <trkpt lat="44.84455" lon="5.19303">
        <ele>645.6</ele>
        <time>2024-07-01T11:02:53Z</time>
      </trkpt>
      <trkpt lat="44.84454" lon="5.19302">
        <ele>645.6</ele>
        <time>2024-07-01T11:02:54Z</time>
      </trkpt>
      <trkpt lat="44.84453" lon="5.19302">
        <ele>645.5</ele>
        <time>2024-07-01T11:02:55Z</time>
      </trkpt>
      <trkpt lat="44.84453" lon="5.19302">
        <ele>645.5</ele>
        <time>2024-07-01T11:02:56Z</time>
      </trkpt>
      <trkpt lat="44.84452" lon="5.19302">
        <ele>645.4</ele>
        <time>2024-07-01T11:02:57Z</time>
      </trkpt>
      <trkpt lat="44.8445" lon="5.19302">
        <ele>645.4</ele>
        <time>2024-07-01T11:02:58Z</time>
      </trkpt>
      <trkpt lat="44.84449" lon="5.19302">
        <ele>645.4</ele>
        <time>2024-07-01T11:03:00Z</time>
      </trkpt>
      <trkpt lat="44.84449" lon="5.19301">
        <ele>645.3</ele>
        <time>2024-07-01T11:03:01Z</time>
      </trkpt>
      <trkpt lat="44.84449" lon="5.19301">
        <ele>645.3</ele>
        <time>2024-07-01T11:03:02Z</time>
      </trkpt>
      <trkpt lat="44.84449" lon="5.19301">
        <ele>645.3</ele>
        <time>2024-07-01T11:03:03Z</time>
      </trkpt>
      <trkpt lat="44.8445" lon="5.19302">
        <ele>645.3</ele>
        <time>2024-07-01T11:03:04Z</time>
      </trkpt>
      <trkpt lat="44.8445" lon="5.19302">
        <ele>645.3</ele>
        <time>2024-07-01T11:03:05Z</time>
      </trkpt>
      <trkpt lat="44.8445" lon="5.19301">
        <ele>645.3</ele>
        <time>2024-07-01T11:03:06Z</time>
      </trkpt>
      <trkpt lat="44.84451" lon="5.19301">
        <ele>645.3</ele>
        <time>2024-07-01T11:03:07Z</time>
      </trkpt>
      <trkpt lat="44.84451" lon="5.19301">
        <ele>645.2</ele>
        <time>2024-07-01T11:03:08Z</time>
      </trkpt>
      <trkpt lat="44.8445" lon="5.19301">
        <ele>645.2</ele>
        <time>2024-07-01T11:03:09Z</time>
      </trkpt>
      <trkpt lat="44.8445" lon="5.19301">
        <ele>645.2</ele>
        <time>2024-07-01T11:03:10Z</time>
      </trkpt>
      <trkpt lat="44.8445" lon="5.19301">
        <ele>645.2</ele>
        <time>2024-07-01T11:03:11Z</time>
      </trkpt>
      <trkpt lat="44.84449" lon="5.19301">
        <ele>645.2</ele>
        <time>2024-07-01T11:03:12Z</time>
      </trkpt>
      <trkpt lat="44.84449" lon="5.19301">
        <ele>645.2</ele>
        <time>2024-07-01T11:03:13Z</time>
      </trkpt>
      <trkpt lat="44.84448" lon="5.19301">
        <ele>645.1</ele>
        <time>2024-07-01T11:03:14Z</time>
      </trkpt>
      <trkpt lat="44.84445" lon="5.19302">
        <ele>645.1</ele>
        <time>2024-07-01T11:03:15Z</time>
      </trkpt>
      <trkpt lat="44.84444" lon="5.19303">
        <ele>645</ele>
        <time>2024-07-01T11:03:17Z</time>
      </trkpt>
      <trkpt lat="44.84442" lon="5.19303">
        <ele>645</ele>
        <time>2024-07-01T11:03:18Z</time>
      </trkpt>
      <trkpt lat="44.84441" lon="5.19303">
        <ele>645</ele>
        <time>2024-07-01T11:03:20Z</time>
      </trkpt>
      <trkpt lat="44.84441" lon="5.19304">
        <ele>645</ele>
        <time>2024-07-01T11:03:21Z</time>
      </trkpt>
      <trkpt lat="44.8444" lon="5.19304">
        <ele>644.9</ele>
        <time>2024-07-01T11:03:22Z</time>
      </trkpt>
      <trkpt lat="44.84439" lon="5.19305">
        <ele>644.9</ele>
        <time>2024-07-01T11:03:23Z</time>
      </trkpt>
      <trkpt lat="44.84439" lon="5.19306">
        <ele>644.9</ele>
        <time>2024-07-01T11:03:24Z</time>
      </trkpt>
      <trkpt lat="44.84439" lon="5.19305">
        <ele>644.9</ele>
        <time>2024-07-01T11:03:25Z</time>
      </trkpt>
      <trkpt lat="44.84439" lon="5.19306">
        <ele>644.9</ele>
        <time>2024-07-01T11:03:26Z</time>
      </trkpt>
      <trkpt lat="44.84439" lon="5.19306">
        <ele>644.9</ele>
        <time>2024-07-01T11:03:27Z</time>
      </trkpt>
      <trkpt lat="44.84439" lon="5.19306">
        <ele>644.9</ele>
        <time>2024-07-01T11:03:28Z</time>
      </trkpt>
      <trkpt lat="44.84439" lon="5.19306">
        <ele>644.9</ele>
        <time>2024-07-01T11:03:29Z</time>
      </trkpt>
      <trkpt lat="44.84439" lon="5.19306">
        <ele>644.9</ele>
        <time>2024-07-01T11:03:30Z</time>
      </trkpt>
      <trkpt lat="44.84439" lon="5.19306">
        <ele>644.9</ele>
        <time>2024-07-01T11:03:31Z</time>
      </trkpt>
      <trkpt lat="44.84439" lon="5.19306">
        <ele>644.9</ele>
        <time>2024-07-01T11:03:32Z</time>
      </trkpt>
      <trkpt lat="44.84439" lon="5.19306">
        <ele>644.9</ele>
        <time>2024-07-01T11:03:33Z</time>
      </trkpt>
      <trkpt lat="44.84439" lon="5.19306">
        <ele>644.9</ele>
        <time>2024-07-01T11:03:34Z</time>
      </trkpt>
      <trkpt lat="44.84439" lon="5.19305">
        <ele>644.9</ele>
        <time>2024-07-01T11:03:35Z</time>
      </trkpt>
      <trkpt lat="44.84439" lon="5.19306">
        <ele>644.9</ele>
        <time>2024-07-01T11:03:36Z</time>
      </trkpt>
      <trkpt lat="44.84439" lon="5.19306">
        <ele>644.9</ele>
        <time>2024-07-01T11:03:37Z</time>
      </trkpt>
      <trkpt lat="44.84439" lon="5.19306">
        <ele>644.9</ele>
        <time>2024-07-01T11:03:38Z</time>
      </trkpt>
      <trkpt lat="44.8444" lon="5.19306">
        <ele>644.9</ele>
        <time>2024-07-01T11:03:39Z</time>
      </trkpt>
      <trkpt lat="44.8444" lon="5.19306">
        <ele>644.9</ele>
        <time>2024-07-01T11:03:40Z</time>
      </trkpt>
      <trkpt lat="44.8444" lon="5.19307">
        <ele>644.9</ele>
        <time>2024-07-01T11:03:41Z</time>
      </trkpt>
      <trkpt lat="44.8444" lon="5.19307">
        <ele>644.9</ele>
        <time>2024-07-01T11:03:42Z</time>
      </trkpt>
      <trkpt lat="44.8444" lon="5.19307">
        <ele>644.9</ele>
        <time>2024-07-01T11:03:43Z</time>
      </trkpt>
      <trkpt lat="44.84441" lon="5.19307">
        <ele>644.9</ele>
        <time>2024-07-01T11:03:44Z</time>
      </trkpt>
      <trkpt lat="44.84441" lon="5.19308">
        <ele>644.9</ele>
        <time>2024-07-01T11:03:45Z</time>
      </trkpt>
      <trkpt lat="44.84442" lon="5.19308">
        <ele>644.9</ele>
        <time>2024-07-01T11:03:46Z</time>
      </trkpt>
      <trkpt lat="44.84443" lon="5.19309">
        <ele>644.9</ele>
        <time>2024-07-01T11:03:47Z</time>
      </trkpt>
      <trkpt lat="44.84443" lon="5.19309">
        <ele>644.9</ele>
        <time>2024-07-01T11:03:48Z</time>
      </trkpt>
      <trkpt lat="44.84443" lon="5.19309">
        <ele>644.9</ele>
        <time>2024-07-01T11:03:49Z</time>
      </trkpt>
      <trkpt lat="44.84443" lon="5.19309">
        <ele>644.8</ele>
        <time>2024-07-01T11:03:50Z</time>
      </trkpt>
      <trkpt lat="44.84443" lon="5.19309">
        <ele>644.8</ele>
        <time>2024-07-01T11:03:51Z</time>
      </trkpt>
      <trkpt lat="44.84442" lon="5.1931">
        <ele>644.8</ele>
        <time>2024-07-01T11:03:52Z</time>
      </trkpt>
      <trkpt lat="44.84441" lon="5.19307">
        <ele>644.8</ele>
        <time>2024-07-01T11:03:53Z</time>
      </trkpt>
      <trkpt lat="44.8444" lon="5.19307">
        <ele>644.8</ele>
        <time>2024-07-01T11:03:54Z</time>
      </trkpt>
      <trkpt lat="44.8444" lon="5.19307">
        <ele>644.8</ele>
        <time>2024-07-01T11:03:56Z</time>
      </trkpt>
      <trkpt lat="44.8444" lon="5.19308">
        <ele>644.8</ele>
        <time>2024-07-01T11:03:57Z</time>
      </trkpt>
      <trkpt lat="44.8444" lon="5.19308">
        <ele>644.8</ele>
        <time>2024-07-01T11:03:58Z</time>
      </trkpt>
      <trkpt lat="44.8444" lon="5.19308">
        <ele>644.8</ele>
        <time>2024-07-01T11:03:59Z</time>
      </trkpt>
      <trkpt lat="44.8444" lon="5.19308">
        <ele>644.8</ele>
        <time>2024-07-01T11:04:00Z</time>
      </trkpt>
      <trkpt lat="44.8444" lon="5.19308">
        <ele>644.8</ele>
        <time>2024-07-01T11:04:01Z</time>
      </trkpt>
      <trkpt lat="44.8444" lon="5.19308">
        <ele>644.8</ele>
        <time>2024-07-01T11:04:02Z</time>
      </trkpt>
      <trkpt lat="44.8444" lon="5.19309">
        <ele>644.8</ele>
        <time>2024-07-01T11:04:03Z</time>
      </trkpt>
      <trkpt lat="44.8444" lon="5.19309">
        <ele>644.8</ele>
        <time>2024-07-01T11:04:04Z</time>
      </trkpt>
      <trkpt lat="44.8444" lon="5.19309">
        <ele>644.8</ele>
        <time>2024-07-01T11:04:05Z</time>
      </trkpt>
      <trkpt lat="44.84439" lon="5.19309">
        <ele>644.8</ele>
        <time>2024-07-01T11:04:06Z</time>
      </trkpt>
      <trkpt lat="44.84439" lon="5.19308">
        <ele>644.8</ele>
        <time>2024-07-01T11:04:07Z</time>
      </trkpt>
      <trkpt lat="44.8444" lon="5.19308">
        <ele>644.8</ele>
        <time>2024-07-01T11:04:08Z</time>
      </trkpt>
      <trkpt lat="44.8444" lon="5.19309">
        <ele>644.8</ele>
        <time>2024-07-01T11:04:09Z</time>
      </trkpt>
      <trkpt lat="44.8444" lon="5.19309">
        <ele>644.8</ele>
        <time>2024-07-01T11:04:10Z</time>
      </trkpt>
      <trkpt lat="44.8444" lon="5.19309">
        <ele>644.8</ele>
        <time>2024-07-01T11:04:11Z</time>
      </trkpt>
      <trkpt lat="44.8444" lon="5.19309">
        <ele>644.8</ele>
        <time>2024-07-01T11:04:12Z</time>
      </trkpt>
      <trkpt lat="44.84439" lon="5.19309">
        <ele>644.8</ele>
        <time>2024-07-01T11:04:13Z</time>
      </trkpt>
      <trkpt lat="44.84439" lon="5.19309">
        <ele>644.8</ele>
        <time>2024-07-01T11:04:14Z</time>
      </trkpt>
      <trkpt lat="44.84439" lon="5.19309">
        <ele>644.8</ele>
        <time>2024-07-01T11:04:15Z</time>
      </trkpt>
      <trkpt lat="44.84439" lon="5.19309">
        <ele>644.8</ele>
        <time>2024-07-01T11:04:16Z</time>
      </trkpt>
      <trkpt lat="44.84439" lon="5.1931">
        <ele>644.8</ele>
        <time>2024-07-01T11:04:17Z</time>
      </trkpt>
      <trkpt lat="44.84438" lon="5.1931">
        <ele>644.8</ele>
        <time>2024-07-01T11:04:18Z</time>
      </trkpt>
      <trkpt lat="44.84438" lon="5.19311">
        <ele>644.7</ele>
        <time>2024-07-01T11:04:20Z</time>
      </trkpt>
      <trkpt lat="44.84437" lon="5.19312">
        <ele>644.7</ele>
        <time>2024-07-01T11:04:21Z</time>
      </trkpt>
      <trkpt lat="44.84437" lon="5.19312">
        <ele>644.7</ele>
        <time>2024-07-01T11:04:22Z</time>
      </trkpt>
      <trkpt lat="44.84436" lon="5.19313">
        <ele>644.7</ele>
        <time>2024-07-01T11:04:23Z</time>
      </trkpt>
      <trkpt lat="44.84435" lon="5.19314">
        <ele>644.7</ele>
        <time>2024-07-01T11:04:24Z</time>
      </trkpt>
      <trkpt lat="44.84434" lon="5.19314">
        <ele>644.6</ele>
        <time>2024-07-01T11:04:25Z</time>
      </trkpt>
      <trkpt lat="44.84433" lon="5.19315">
        <ele>644.6</ele>
        <time>2024-07-01T11:04:26Z</time>
      </trkpt>
      <trkpt lat="44.84431" lon="5.19314">
        <ele>644.6</ele>
        <time>2024-07-01T11:04:27Z</time>
      </trkpt>
      <trkpt lat="44.8443" lon="5.19314">
        <ele>644.6</ele>
        <time>2024-07-01T11:04:29Z</time>
      </trkpt>
      <trkpt lat="44.84429" lon="5.19314">
        <ele>644.6</ele>
        <time>2024-07-01T11:04:30Z</time>
      </trkpt>
      <trkpt lat="44.84429" lon="5.19313">
        <ele>644.5</ele>
        <time>2024-07-01T11:04:31Z</time>
      </trkpt>
      <trkpt lat="44.84429" lon="5.19313">
        <ele>644.5</ele>
        <time>2024-07-01T11:04:32Z</time>
      </trkpt>
      <trkpt lat="44.84429" lon="5.19313">
        <ele>644.5</ele>
        <time>2024-07-01T11:04:33Z</time>
      </trkpt>
      <trkpt lat="44.84429" lon="5.19314">
        <ele>644.5</ele>
        <time>2024-07-01T11:04:34Z</time>
      </trkpt>
      <trkpt lat="44.84429" lon="5.19314">
        <ele>644.5</ele>
        <time>2024-07-01T11:04:35Z</time>
      </trkpt>
      <trkpt lat="44.84428" lon="5.19313">
        <ele>644.5</ele>
        <time>2024-07-01T11:04:36Z</time>
      </trkpt>
      <trkpt lat="44.84428" lon="5.19313">
        <ele>644.5</ele>
        <time>2024-07-01T11:04:37Z</time>
      </trkpt>
      <trkpt lat="44.84428" lon="5.19313">
        <ele>644.5</ele>
        <time>2024-07-01T11:04:38Z</time>
      </trkpt>
      <trkpt lat="44.84429" lon="5.19313">
        <ele>644.5</ele>
        <time>2024-07-01T11:04:39Z</time>
      </trkpt>
      <trkpt lat="44.84429" lon="5.19313">
        <ele>644.5</ele>
        <time>2024-07-01T11:04:40Z</time>
      </trkpt>
      <trkpt lat="44.84429" lon="5.19313">
        <ele>644.5</ele>
        <time>2024-07-01T11:04:41Z</time>
      </trkpt>
      <trkpt lat="44.84429" lon="5.19313">
        <ele>644.5</ele>
        <time>2024-07-01T11:04:42Z</time>
      </trkpt>
      <trkpt lat="44.84429" lon="5.19313">
        <ele>644.5</ele>
        <time>2024-07-01T11:04:43Z</time>
      </trkpt>
      <trkpt lat="44.8443" lon="5.19312">
        <ele>644.5</ele>
        <time>2024-07-01T11:04:44Z</time>
      </trkpt>
      <trkpt lat="44.8443" lon="5.19312">
        <ele>644.5</ele>
        <time>2024-07-01T11:04:45Z</time>
      </trkpt>
      <trkpt lat="44.8443" lon="5.19312">
        <ele>644.5</ele>
        <time>2024-07-01T11:04:46Z</time>
      </trkpt>
      <trkpt lat="44.8443" lon="5.19312">
        <ele>644.5</ele>
        <time>2024-07-01T11:04:47Z</time>
      </trkpt>
      <trkpt lat="44.8443" lon="5.19312">
        <ele>644.5</ele>
        <time>2024-07-01T11:04:49Z</time>
      </trkpt>
      <trkpt lat="44.84431" lon="5.19312">
        <ele>644.5</ele>
        <time>2024-07-01T11:04:51Z</time>
      </trkpt>
      <trkpt lat="44.84431" lon="5.19312">
        <ele>644.5</ele>
        <time>2024-07-01T11:04:52Z</time>
      </trkpt>
      <trkpt lat="44.84431" lon="5.19312">
        <ele>644.5</ele>
        <time>2024-07-01T11:04:53Z</time>
      </trkpt>
      <trkpt lat="44.84431" lon="5.19312">
        <ele>644.5</ele>
        <time>2024-07-01T11:04:54Z</time>
      </trkpt>
      <trkpt lat="44.84431" lon="5.19312">
        <ele>644.5</ele>
        <time>2024-07-01T11:04:55Z</time>
      </trkpt>
      <trkpt lat="44.84432" lon="5.19312">
        <ele>644.5</ele>
        <time>2024-07-01T11:04:56Z</time>
      </trkpt>
      <trkpt lat="44.84433" lon="5.19311">
        <ele>644.4</ele>
        <time>2024-07-01T11:04:57Z</time>
      </trkpt>
      <trkpt lat="44.84434" lon="5.19311">
        <ele>644.4</ele>
        <time>2024-07-01T11:04:58Z</time>
      </trkpt>
      <trkpt lat="44.84435" lon="5.1931">
        <ele>644.4</ele>
        <time>2024-07-01T11:04:59Z</time>
      </trkpt>
      <trkpt lat="44.84436" lon="5.19308">
        <ele>644.3</ele>
        <time>2024-07-01T11:05:00Z</time>
      </trkpt>
      <trkpt lat="44.84437" lon="5.19308">
        <ele>644.3</ele>
        <time>2024-07-01T11:05:02Z</time>
      </trkpt>
      <trkpt lat="44.84438" lon="5.19308">
        <ele>644.3</ele>
        <time>2024-07-01T11:05:03Z</time>
      </trkpt>
      <trkpt lat="44.84439" lon="5.19308">
        <ele>644.3</ele>
        <time>2024-07-01T11:05:04Z</time>
      </trkpt>
      <trkpt lat="44.8444" lon="5.19308">
        <ele>644.3</ele>
        <time>2024-07-01T11:05:05Z</time>
      </trkpt>
      <trkpt lat="44.84441" lon="5.19308">
        <ele>644.2</ele>
        <time>2024-07-01T11:05:06Z</time>
      </trkpt>
      <trkpt lat="44.84443" lon="5.19308">
        <ele>644.2</ele>
        <time>2024-07-01T11:05:07Z</time>
      </trkpt>
      <trkpt lat="44.84444" lon="5.19309">
        <ele>644.2</ele>
        <time>2024-07-01T11:05:09Z</time>
      </trkpt>
      <trkpt lat="44.84445" lon="5.19309">
        <ele>644.2</ele>
        <time>2024-07-01T11:05:10Z</time>
      </trkpt>
      <trkpt lat="44.84446" lon="5.19309">
        <ele>644.1</ele>
        <time>2024-07-01T11:05:11Z</time>
      </trkpt>
      <trkpt lat="44.84447" lon="5.19309">
        <ele>644.1</ele>
        <time>2024-07-01T11:05:12Z</time>
      </trkpt>
      <trkpt lat="44.84448" lon="5.1931">
        <ele>644.1</ele>
        <time>2024-07-01T11:05:13Z</time>
      </trkpt>
      <trkpt lat="44.84449" lon="5.1931">
        <ele>644.1</ele>
        <time>2024-07-01T11:05:14Z</time>
      </trkpt>
      <trkpt lat="44.84451" lon="5.19309">
        <ele>644.1</ele>
        <time>2024-07-01T11:05:15Z</time>
      </trkpt>
      <trkpt lat="44.84452" lon="5.19309">
        <ele>644.1</ele>
        <time>2024-07-01T11:05:16Z</time>
      </trkpt>
      <trkpt lat="44.84453" lon="5.1931">
        <ele>644.1</ele>
        <time>2024-07-01T11:05:17Z</time>
      </trkpt>
      <trkpt lat="44.84454" lon="5.1931">
        <ele>644</ele>
        <time>2024-07-01T11:05:18Z</time>
      </trkpt>
      <trkpt lat="44.84456" lon="5.1931">
        <ele>644</ele>
        <time>2024-07-01T11:05:19Z</time>
      </trkpt>
      <trkpt lat="44.84457" lon="5.1931">
        <ele>644</ele>
        <time>2024-07-01T11:05:21Z</time>
      </trkpt>
      <trkpt lat="44.8446" lon="5.1931">
        <ele>644</ele>
        <time>2024-07-01T11:05:22Z</time>
      </trkpt>
      <trkpt lat="44.84461" lon="5.1931">
        <ele>644</ele>
        <time>2024-07-01T11:05:24Z</time>
      </trkpt>
      <trkpt lat="44.84462" lon="5.19311">
        <ele>643.9</ele>
        <time>2024-07-01T11:05:25Z</time>
      </trkpt>
      <trkpt lat="44.84464" lon="5.19312">
        <ele>643.9</ele>
        <time>2024-07-01T11:05:26Z</time>
      </trkpt>
      <trkpt lat="44.84465" lon="5.19312">
        <ele>643.9</ele>
        <time>2024-07-01T11:05:28Z</time>
      </trkpt>
      <trkpt lat="44.84467" lon="5.19313">
        <ele>643.9</ele>
        <time>2024-07-01T11:05:29Z</time>
      </trkpt>
      <trkpt lat="44.84468" lon="5.19314">
        <ele>643.9</ele>
        <time>2024-07-01T11:05:31Z</time>
      </trkpt>
      <trkpt lat="44.84469" lon="5.19314">
        <ele>643.9</ele>
        <time>2024-07-01T11:05:32Z</time>
      </trkpt>
      <trkpt lat="44.8447" lon="5.19315">
        <ele>643.8</ele>
        <time>2024-07-01T11:05:33Z</time>
      </trkpt>
      <trkpt lat="44.84471" lon="5.19316">
        <ele>643.8</ele>
        <time>2024-07-01T11:05:34Z</time>
      </trkpt>
      <trkpt lat="44.84472" lon="5.19317">
        <ele>643.8</ele>
        <time>2024-07-01T11:05:35Z</time>
      </trkpt>
      <trkpt lat="44.84472" lon="5.19318">
        <ele>643.8</ele>
        <time>2024-07-01T11:05:36Z</time>
      </trkpt>
      <trkpt lat="44.84473" lon="5.19318">
        <ele>643.8</ele>
        <time>2024-07-01T11:05:37Z</time>
      </trkpt>
      <trkpt lat="44.84474" lon="5.19319">
        <ele>643.8</ele>
        <time>2024-07-01T11:05:38Z</time>
      </trkpt>
      <trkpt lat="44.84475" lon="5.19321">
        <ele>643.8</ele>
        <time>2024-07-01T11:05:39Z</time>
      </trkpt>
      <trkpt lat="44.84475" lon="5.19323">
        <ele>643.7</ele>
        <time>2024-07-01T11:05:41Z</time>
      </trkpt>
      <trkpt lat="44.84476" lon="5.19324">
        <ele>643.7</ele>
        <time>2024-07-01T11:05:42Z</time>
      </trkpt>
      <trkpt lat="44.84476" lon="5.19326">
        <ele>643.7</ele>
        <time>2024-07-01T11:05:43Z</time>
      </trkpt>
      <trkpt lat="44.84476" lon="5.19327">
        <ele>643.7</ele>
        <time>2024-07-01T11:05:44Z</time>
      </trkpt>
      <trkpt lat="44.84477" lon="5.1933">
        <ele>643.7</ele>
        <time>2024-07-01T11:05:45Z</time>
      </trkpt>
      <trkpt lat="44.84477" lon="5.19331">
        <ele>643.6</ele>
        <time>2024-07-01T11:05:46Z</time>
      </trkpt>
      <trkpt lat="44.84478" lon="5.19332">
        <ele>643.6</ele>
        <time>2024-07-01T11:05:47Z</time>
      </trkpt>
      <trkpt lat="44.84478" lon="5.19334">
        <ele>643.6</ele>
        <time>2024-07-01T11:05:48Z</time>
      </trkpt>
      <trkpt lat="44.84478" lon="5.19335">
        <ele>643.6</ele>
        <time>2024-07-01T11:05:49Z</time>
      </trkpt>
      <trkpt lat="44.84478" lon="5.19337">
        <ele>643.6</ele>
        <time>2024-07-01T11:05:50Z</time>
      </trkpt>
      <trkpt lat="44.84479" lon="5.19337">
        <ele>643.6</ele>
        <time>2024-07-01T11:05:51Z</time>
      </trkpt>
      <trkpt lat="44.84481" lon="5.19337">
        <ele>643.5</ele>
        <time>2024-07-01T11:05:52Z</time>
      </trkpt>
      <trkpt lat="44.84482" lon="5.19337">
        <ele>643.5</ele>
        <time>2024-07-01T11:05:54Z</time>
      </trkpt>
      <trkpt lat="44.84482" lon="5.19339">
        <ele>643.5</ele>
        <time>2024-07-01T11:05:55Z</time>
      </trkpt>
      <trkpt lat="44.84482" lon="5.1934">
        <ele>643.5</ele>
        <time>2024-07-01T11:05:56Z</time>
      </trkpt>
      <trkpt lat="44.84483" lon="5.19341">
        <ele>643.5</ele>
        <time>2024-07-01T11:05:57Z</time>
      </trkpt>
      <trkpt lat="44.84482" lon="5.19341">
        <ele>643.5</ele>
        <time>2024-07-01T11:05:58Z</time>
      </trkpt>
      <trkpt lat="44.84482" lon="5.19341">
        <ele>643.5</ele>
        <time>2024-07-01T11:05:59Z</time>
      </trkpt>
      <trkpt lat="44.84481" lon="5.1934">
        <ele>643.5</ele>
        <time>2024-07-01T11:06:00Z</time>
      </trkpt>
      <trkpt lat="44.84481" lon="5.1934">
        <ele>643.5</ele>
        <time>2024-07-01T11:06:01Z</time>
      </trkpt>
      <trkpt lat="44.84481" lon="5.1934">
        <ele>643.4</ele>
        <time>2024-07-01T11:06:02Z</time>
      </trkpt>
      <trkpt lat="44.8448" lon="5.1934">
        <ele>643.4</ele>
        <time>2024-07-01T11:06:03Z</time>
      </trkpt>
      <trkpt lat="44.8448" lon="5.1934">
        <ele>643.4</ele>
        <time>2024-07-01T11:06:04Z</time>
      </trkpt>
      <trkpt lat="44.8448" lon="5.1934">
        <ele>643.4</ele>
        <time>2024-07-01T11:06:05Z</time>
      </trkpt>
      <trkpt lat="44.8448" lon="5.1934">
        <ele>643.4</ele>
        <time>2024-07-01T11:06:06Z</time>
      </trkpt>
      <trkpt lat="44.8448" lon="5.1934">
        <ele>643.4</ele>
        <time>2024-07-01T11:06:07Z</time>
      </trkpt>
      <trkpt lat="44.84481" lon="5.1934">
        <ele>643.4</ele>
        <time>2024-07-01T11:06:08Z</time>
      </trkpt>
      <trkpt lat="44.84481" lon="5.1934">
        <ele>643.4</ele>
        <time>2024-07-01T11:06:09Z</time>
      </trkpt>
      <trkpt lat="44.84481" lon="5.19341">
        <ele>643.4</ele>
        <time>2024-07-01T11:06:10Z</time>
      </trkpt>
      <trkpt lat="44.84481" lon="5.1934">
        <ele>643.4</ele>
        <time>2024-07-01T11:06:11Z</time>
      </trkpt>
      <trkpt lat="44.84481" lon="5.1934">
        <ele>643.4</ele>
        <time>2024-07-01T11:06:12Z</time>
      </trkpt>
      <trkpt lat="44.84481" lon="5.1934">
        <ele>643.4</ele>
        <time>2024-07-01T11:06:13Z</time>
      </trkpt>
      <trkpt lat="44.8448" lon="5.19339">
        <ele>643.4</ele>
        <time>2024-07-01T11:06:14Z</time>
      </trkpt>
      <trkpt lat="44.84479" lon="5.19338">
        <ele>643.4</ele>
        <time>2024-07-01T11:06:15Z</time>
      </trkpt>
      <trkpt lat="44.84479" lon="5.19337">
        <ele>643.4</ele>
        <time>2024-07-01T11:06:16Z</time>
      </trkpt>
      <trkpt lat="44.84479" lon="5.19337">
        <ele>643.4</ele>
        <time>2024-07-01T11:06:17Z</time>
      </trkpt>
      <trkpt lat="44.84479" lon="5.19336">
        <ele>643.4</ele>
        <time>2024-07-01T11:06:18Z</time>
      </trkpt>
      <trkpt lat="44.84479" lon="5.19336">
        <ele>643.4</ele>
        <time>2024-07-01T11:06:19Z</time>
      </trkpt>
      <trkpt lat="44.84479" lon="5.19339">
        <ele>643.4</ele>
        <time>2024-07-01T11:06:20Z</time>
      </trkpt>
      <trkpt lat="44.84479" lon="5.19338">
        <ele>643.3</ele>
        <time>2024-07-01T11:06:21Z</time>
      </trkpt>
      <trkpt lat="44.84477" lon="5.19338">
        <ele>643.3</ele>
        <time>2024-07-01T11:06:22Z</time>
      </trkpt>
      <trkpt lat="44.84474" lon="5.19337">
        <ele>643.3</ele>
        <time>2024-07-01T11:06:23Z</time>
      </trkpt>
      <trkpt lat="44.84473" lon="5.19337">
        <ele>643.3</ele>
        <time>2024-07-01T11:06:25Z</time>
      </trkpt>
      <trkpt lat="44.84472" lon="5.19336">
        <ele>643.2</ele>
        <time>2024-07-01T11:06:26Z</time>
      </trkpt>
      <trkpt lat="44.84471" lon="5.19335">
        <ele>643.2</ele>
        <time>2024-07-01T11:06:27Z</time>
      </trkpt>
      <trkpt lat="44.84469" lon="5.19333">
        <ele>643.2</ele>
        <time>2024-07-01T11:06:28Z</time>
      </trkpt>
      <trkpt lat="44.84468" lon="5.19332">
        <ele>643.1</ele>
        <time>2024-07-01T11:06:29Z</time>
      </trkpt>
      <trkpt lat="44.84468" lon="5.1933">
        <ele>643.1</ele>
        <time>2024-07-01T11:06:31Z</time>
      </trkpt>
      <trkpt lat="44.84467" lon="5.1933">
        <ele>643.1</ele>
        <time>2024-07-01T11:06:32Z</time>
      </trkpt>
      <trkpt lat="44.84466" lon="5.19329">
        <ele>643.1</ele>
        <time>2024-07-01T11:06:33Z</time>
      </trkpt>
      <trkpt lat="44.84465" lon="5.19328">
        <ele>643.1</ele>
        <time>2024-07-01T11:06:34Z</time>
      </trkpt>
      <trkpt lat="44.84465" lon="5.19328">
        <ele>643.1</ele>
        <time>2024-07-01T11:06:35Z</time>
      </trkpt>
      <trkpt lat="44.84464" lon="5.19328">
        <ele>643</ele>
        <time>2024-07-01T11:06:36Z</time>
      </trkpt>
      <trkpt lat="44.84462" lon="5.19327">
        <ele>643</ele>
        <time>2024-07-01T11:06:37Z</time>
      </trkpt>
      <trkpt lat="44.84461" lon="5.19327">
        <ele>643</ele>
        <time>2024-07-01T11:06:38Z</time>
      </trkpt>
      <trkpt lat="44.84461" lon="5.19326">
        <ele>643</ele>
        <time>2024-07-01T11:06:39Z</time>
      </trkpt>
      <trkpt lat="44.8446" lon="5.19326">
        <ele>643</ele>
        <time>2024-07-01T11:06:41Z</time>
      </trkpt>
      <trkpt lat="44.84459" lon="5.19326">
        <ele>642.9</ele>
        <time>2024-07-01T11:06:42Z</time>
      </trkpt>
      <trkpt lat="44.84457" lon="5.19326">
        <ele>642.9</ele>
        <time>2024-07-01T11:06:43Z</time>
      </trkpt>
      <trkpt lat="44.84456" lon="5.19327">
        <ele>642.9</ele>
        <time>2024-07-01T11:06:45Z</time>
      </trkpt>
      <trkpt lat="44.84456" lon="5.19326">
        <ele>642.9</ele>
        <time>2024-07-01T11:06:46Z</time>
      </trkpt>
      <trkpt lat="44.84455" lon="5.19326">
        <ele>642.9</ele>
        <time>2024-07-01T11:06:47Z</time>
      </trkpt>
      <trkpt lat="44.84454" lon="5.19326">
        <ele>642.9</ele>
        <time>2024-07-01T11:06:48Z</time>
      </trkpt>
      <trkpt lat="44.84452" lon="5.19325">
        <ele>642.8</ele>
        <time>2024-07-01T11:06:49Z</time>
      </trkpt>
      <trkpt lat="44.84452" lon="5.19325">
        <ele>642.8</ele>
        <time>2024-07-01T11:06:50Z</time>
      </trkpt>
      <trkpt lat="44.84451" lon="5.19325">
        <ele>642.8</ele>
        <time>2024-07-01T11:06:51Z</time>
      </trkpt>
      <trkpt lat="44.8445" lon="5.19325">
        <ele>642.8</ele>
        <time>2024-07-01T11:06:52Z</time>
      </trkpt>
      <trkpt lat="44.84448" lon="5.19324">
        <ele>642.8</ele>
        <time>2024-07-01T11:06:53Z</time>
      </trkpt>
      <trkpt lat="44.84448" lon="5.19325">
        <ele>642.8</ele>
        <time>2024-07-01T11:06:55Z</time>
      </trkpt>
      <trkpt lat="44.84447" lon="5.19325">
        <ele>642.8</ele>
        <time>2024-07-01T11:06:56Z</time>
      </trkpt>
      <trkpt lat="44.84446" lon="5.19325">
        <ele>642.8</ele>
        <time>2024-07-01T11:06:57Z</time>
      </trkpt>
      <trkpt lat="44.84445" lon="5.19326">
        <ele>642.8</ele>
        <time>2024-07-01T11:06:58Z</time>
      </trkpt>
      <trkpt lat="44.84444" lon="5.19327">
        <ele>642.8</ele>
        <time>2024-07-01T11:06:59Z</time>
      </trkpt>
      <trkpt lat="44.84442" lon="5.19328">
        <ele>642.8</ele>
        <time>2024-07-01T11:07:00Z</time>
      </trkpt>
      <trkpt lat="44.84441" lon="5.19328">
        <ele>642.8</ele>
        <time>2024-07-01T11:07:02Z</time>
      </trkpt>
      <trkpt lat="44.8444" lon="5.19329">
        <ele>642.8</ele>
        <time>2024-07-01T11:07:03Z</time>
      </trkpt>
      <trkpt lat="44.84438" lon="5.1933">
        <ele>642.8</ele>
        <time>2024-07-01T11:07:04Z</time>
      </trkpt>
      <trkpt lat="44.84437" lon="5.1933">
        <ele>642.8</ele>
        <time>2024-07-01T11:07:06Z</time>
      </trkpt>
      <trkpt lat="44.84436" lon="5.1933">
        <ele>642.8</ele>
        <time>2024-07-01T11:07:07Z</time>
      </trkpt>
      <trkpt lat="44.84435" lon="5.19329">
        <ele>642.8</ele>
        <time>2024-07-01T11:07:08Z</time>
      </trkpt>
      <trkpt lat="44.84434" lon="5.19329">
        <ele>642.8</ele>
        <time>2024-07-01T11:07:09Z</time>
      </trkpt>
      <trkpt lat="44.84432" lon="5.19327">
        <ele>642.8</ele>
        <time>2024-07-01T11:07:10Z</time>
      </trkpt>
      <trkpt lat="44.84431" lon="5.19327">
        <ele>642.8</ele>
        <time>2024-07-01T11:07:11Z</time>
      </trkpt>
      <trkpt lat="44.84429" lon="5.19326">
        <ele>642.8</ele>
        <time>2024-07-01T11:07:13Z</time>
      </trkpt>
      <trkpt lat="44.84428" lon="5.19326">
        <ele>642.8</ele>
        <time>2024-07-01T11:07:14Z</time>
      </trkpt>
      <trkpt lat="44.84426" lon="5.19327">
        <ele>642.8</ele>
        <time>2024-07-01T11:07:15Z</time>
      </trkpt>
      <trkpt lat="44.84425" lon="5.19327">
        <ele>642.8</ele>
        <time>2024-07-01T11:07:16Z</time>
      </trkpt>
      <trkpt lat="44.84425" lon="5.19328">
        <ele>642.8</ele>
        <time>2024-07-01T11:07:17Z</time>
      </trkpt>
      <trkpt lat="44.84423" lon="5.1933">
        <ele>642.8</ele>
        <time>2024-07-01T11:07:18Z</time>
      </trkpt>
      <trkpt lat="44.84423" lon="5.19331">
        <ele>642.8</ele>
        <time>2024-07-01T11:07:19Z</time>
      </trkpt>
      <trkpt lat="44.84423" lon="5.19332">
        <ele>642.8</ele>
        <time>2024-07-01T11:07:20Z</time>
      </trkpt>
      <trkpt lat="44.84423" lon="5.19334">
        <ele>642.8</ele>
        <time>2024-07-01T11:07:21Z</time>
      </trkpt>
      <trkpt lat="44.84425" lon="5.19337">
        <ele>642.8</ele>
        <time>2024-07-01T11:07:22Z</time>
      </trkpt>
      <trkpt lat="44.84426" lon="5.19339">
        <ele>642.8</ele>
        <time>2024-07-01T11:07:24Z</time>
      </trkpt>
      <trkpt lat="44.84427" lon="5.1934">
        <ele>642.8</ele>
        <time>2024-07-01T11:07:25Z</time>
      </trkpt>
      <trkpt lat="44.84427" lon="5.19342">
        <ele>642.8</ele>
        <time>2024-07-01T11:07:26Z</time>
      </trkpt>
      <trkpt lat="44.84428" lon="5.19343">
        <ele>642.8</ele>
        <time>2024-07-01T11:07:27Z</time>
      </trkpt>
      <trkpt lat="44.84428" lon="5.19345">
        <ele>642.9</ele>
        <time>2024-07-01T11:07:28Z</time>
      </trkpt>
      <trkpt lat="44.84429" lon="5.19346">
        <ele>642.9</ele>
        <time>2024-07-01T11:07:29Z</time>
      </trkpt>
      <trkpt lat="44.8443" lon="5.19346">
        <ele>642.8</ele>
        <time>2024-07-01T11:07:31Z</time>
      </trkpt>
      <trkpt lat="44.84432" lon="5.19347">
        <ele>642.8</ele>
        <time>2024-07-01T11:07:32Z</time>
      </trkpt>
      <trkpt lat="44.84433" lon="5.19347">
        <ele>642.8</ele>
        <time>2024-07-01T11:07:34Z</time>
      </trkpt>
      <trkpt lat="44.84435" lon="5.19347">
        <ele>642.7</ele>
        <time>2024-07-01T11:07:35Z</time>
      </trkpt>
      <trkpt lat="44.84437" lon="5.19347">
        <ele>642.7</ele>
        <time>2024-07-01T11:07:36Z</time>
      </trkpt>
      <trkpt lat="44.84438" lon="5.19347">
        <ele>642.6</ele>
        <time>2024-07-01T11:07:37Z</time>
      </trkpt>
      <trkpt lat="44.84439" lon="5.19348">
        <ele>642.6</ele>
        <time>2024-07-01T11:07:38Z</time>
      </trkpt>
      <trkpt lat="44.8444" lon="5.19348">
        <ele>642.6</ele>
        <time>2024-07-01T11:07:39Z</time>
      </trkpt>
      <trkpt lat="44.84441" lon="5.1935">
        <ele>642.6</ele>
        <time>2024-07-01T11:07:40Z</time>
      </trkpt>
      <trkpt lat="44.84442" lon="5.1935">
        <ele>642.6</ele>
        <time>2024-07-01T11:07:41Z</time>
      </trkpt>
      <trkpt lat="44.84444" lon="5.1935">
        <ele>642.5</ele>
        <time>2024-07-01T11:07:42Z</time>
      </trkpt>
      <trkpt lat="44.84445" lon="5.1935">
        <ele>642.5</ele>
        <time>2024-07-01T11:07:43Z</time>
      </trkpt>
      <trkpt lat="44.84446" lon="5.1935">
        <ele>642.5</ele>
        <time>2024-07-01T11:07:44Z</time>
      </trkpt>
      <trkpt lat="44.84448" lon="5.1935">
        <ele>642.4</ele>
        <time>2024-07-01T11:07:45Z</time>
      </trkpt>
      <trkpt lat="44.84448" lon="5.1935">
        <ele>642.4</ele>
        <time>2024-07-01T11:07:46Z</time>
      </trkpt>
      <trkpt lat="44.84449" lon="5.1935">
        <ele>642.4</ele>
        <time>2024-07-01T11:07:47Z</time>
      </trkpt>
      <trkpt lat="44.8445" lon="5.19351">
        <ele>642.4</ele>
        <time>2024-07-01T11:07:48Z</time>
      </trkpt>
      <trkpt lat="44.84451" lon="5.19351">
        <ele>642.3</ele>
        <time>2024-07-01T11:07:49Z</time>
      </trkpt>
      <trkpt lat="44.84453" lon="5.19351">
        <ele>642.3</ele>
        <time>2024-07-01T11:07:50Z</time>
      </trkpt>
      <trkpt lat="44.84455" lon="5.19352">
        <ele>642.3</ele>
        <time>2024-07-01T11:07:52Z</time>
      </trkpt>
      <trkpt lat="44.84456" lon="5.19352">
        <ele>642.2</ele>
        <time>2024-07-01T11:07:53Z</time>
      </trkpt>
      <trkpt lat="44.84458" lon="5.19354">
        <ele>642.2</ele>
        <time>2024-07-01T11:07:54Z</time>
      </trkpt>
      <trkpt lat="44.84459" lon="5.19354">
        <ele>642.2</ele>
        <time>2024-07-01T11:07:55Z</time>
      </trkpt>
      <trkpt lat="44.84459" lon="5.19354">
        <ele>642.2</ele>
        <time>2024-07-01T11:07:56Z</time>
      </trkpt>
      <trkpt lat="44.84462" lon="5.19356">
        <ele>642.1</ele>
        <time>2024-07-01T11:07:57Z</time>
      </trkpt>
      <trkpt lat="44.84463" lon="5.19357">
        <ele>642.1</ele>
        <time>2024-07-01T11:07:59Z</time>
      </trkpt>
      <trkpt lat="44.84465" lon="5.1936">
        <ele>642</ele>
        <time>2024-07-01T11:08:00Z</time>
      </trkpt>
      <trkpt lat="44.84466" lon="5.19362">
        <ele>642</ele>
        <time>2024-07-01T11:08:02Z</time>
      </trkpt>
      <trkpt lat="44.84467" lon="5.19363">
        <ele>642</ele>
        <time>2024-07-01T11:08:03Z</time>
      </trkpt>
      <trkpt lat="44.84469" lon="5.19364">
        <ele>641.9</ele>
        <time>2024-07-01T11:08:04Z</time>
      </trkpt>
      <trkpt lat="44.8447" lon="5.19364">
        <ele>641.9</ele>
        <time>2024-07-01T11:08:05Z</time>
      </trkpt>
      <trkpt lat="44.84471" lon="5.19364">
        <ele>641.9</ele>
        <time>2024-07-01T11:08:06Z</time>
      </trkpt>
      <trkpt lat="44.84472" lon="5.19365">
        <ele>641.9</ele>
        <time>2024-07-01T11:08:07Z</time>
      </trkpt>
      <trkpt lat="44.84472" lon="5.19366">
        <ele>641.9</ele>
        <time>2024-07-01T11:08:08Z</time>
      </trkpt>
      <trkpt lat="44.84473" lon="5.19367">
        <ele>641.9</ele>
        <time>2024-07-01T11:08:09Z</time>
      </trkpt>
      <trkpt lat="44.84472" lon="5.19368">
        <ele>641.9</ele>
        <time>2024-07-01T11:08:10Z</time>
      </trkpt>
      <trkpt lat="44.84472" lon="5.19369">
        <ele>641.8</ele>
        <time>2024-07-01T11:08:11Z</time>
      </trkpt>
      <trkpt lat="44.84472" lon="5.19369">
        <ele>641.8</ele>
        <time>2024-07-01T11:08:12Z</time>
      </trkpt>
      <trkpt lat="44.84472" lon="5.19369">
        <ele>641.8</ele>
        <time>2024-07-01T11:08:13Z</time>
      </trkpt>
      <trkpt lat="44.84473" lon="5.1937">
        <ele>641.8</ele>
        <time>2024-07-01T11:08:14Z</time>
      </trkpt>
      <trkpt lat="44.84474" lon="5.19371">
        <ele>641.8</ele>
        <time>2024-07-01T11:08:15Z</time>
      </trkpt>
      <trkpt lat="44.84475" lon="5.19376">
        <ele>641.7</ele>
        <time>2024-07-01T11:08:17Z</time>
      </trkpt>
      <trkpt lat="44.84474" lon="5.19379">
        <ele>641.7</ele>
        <time>2024-07-01T11:08:18Z</time>
      </trkpt>
      <trkpt lat="44.84473" lon="5.19381">
        <ele>641.7</ele>
        <time>2024-07-01T11:08:20Z</time>
      </trkpt>
      <trkpt lat="44.84471" lon="5.19382">
        <ele>641.6</ele>
        <time>2024-07-01T11:08:21Z</time>
      </trkpt>
      <trkpt lat="44.84469" lon="5.19382">
        <ele>641.6</ele>
        <time>2024-07-01T11:08:22Z</time>
      </trkpt>
      <trkpt lat="44.84466" lon="5.19381">
        <ele>641.5</ele>
        <time>2024-07-01T11:08:24Z</time>
      </trkpt>
      <trkpt lat="44.84464" lon="5.1938">
        <ele>641.5</ele>
        <time>2024-07-01T11:08:26Z</time>
      </trkpt>
      <trkpt lat="44.84463" lon="5.19381">
        <ele>641.5</ele>
        <time>2024-07-01T11:08:27Z</time>
      </trkpt>
      <trkpt lat="44.84462" lon="5.19381">
        <ele>641.5</ele>
        <time>2024-07-01T11:08:28Z</time>
      </trkpt>
      <trkpt lat="44.84461" lon="5.19382">
        <ele>641.5</ele>
        <time>2024-07-01T11:08:29Z</time>
      </trkpt>
      <trkpt lat="44.8446" lon="5.19382">
        <ele>641.5</ele>
        <time>2024-07-01T11:08:30Z</time>
      </trkpt>
      <trkpt lat="44.84459" lon="5.1938">
        <ele>641.5</ele>
        <time>2024-07-01T11:08:31Z</time>
      </trkpt>
      <trkpt lat="44.84459" lon="5.19379">
        <ele>641.6</ele>
        <time>2024-07-01T11:08:32Z</time>
      </trkpt>
      <trkpt lat="44.84458" lon="5.19378">
        <ele>641.6</ele>
        <time>2024-07-01T11:08:33Z</time>
      </trkpt>
      <trkpt lat="44.84458" lon="5.19375">
        <ele>641.7</ele>
        <time>2024-07-01T11:08:34Z</time>
      </trkpt>
      <trkpt lat="44.84456" lon="5.19374">
        <ele>641.8</ele>
        <time>2024-07-01T11:08:36Z</time>
      </trkpt>
      <trkpt lat="44.84455" lon="5.19373">
        <ele>641.8</ele>
        <time>2024-07-01T11:08:37Z</time>
      </trkpt>
      <trkpt lat="44.84454" lon="5.19372">
        <ele>641.9</ele>
        <time>2024-07-01T11:08:38Z</time>
      </trkpt>
      <trkpt lat="44.84453" lon="5.19372">
        <ele>641.9</ele>
        <time>2024-07-01T11:08:39Z</time>
      </trkpt>
      <trkpt lat="44.84451" lon="5.19371">
        <ele>642</ele>
        <time>2024-07-01T11:08:40Z</time>
      </trkpt>
      <trkpt lat="44.8445" lon="5.1937">
        <ele>642.1</ele>
        <time>2024-07-01T11:08:41Z</time>
      </trkpt>
      <trkpt lat="44.84449" lon="5.19369">
        <ele>642.1</ele>
        <time>2024-07-01T11:08:42Z</time>
      </trkpt>
      <trkpt lat="44.84448" lon="5.19368">
        <ele>642.2</ele>
        <time>2024-07-01T11:08:43Z</time>
      </trkpt>
      <trkpt lat="44.84446" lon="5.19367">
        <ele>642.3</ele>
        <time>2024-07-01T11:08:44Z</time>
      </trkpt>
      <trkpt lat="44.84445" lon="5.19366">
        <ele>642.3</ele>
        <time>2024-07-01T11:08:45Z</time>
      </trkpt>
      <trkpt lat="44.84444" lon="5.19365">
        <ele>642.4</ele>
        <time>2024-07-01T11:08:46Z</time>
      </trkpt>
      <trkpt lat="44.84443" lon="5.19363">
        <ele>642.5</ele>
        <time>2024-07-01T11:08:47Z</time>
      </trkpt>
      <trkpt lat="44.84442" lon="5.19362">
        <ele>642.6</ele>
        <time>2024-07-01T11:08:48Z</time>
      </trkpt>
      <trkpt lat="44.84441" lon="5.1936">
        <ele>642.7</ele>
        <time>2024-07-01T11:08:49Z</time>
      </trkpt>
      <trkpt lat="44.8444" lon="5.19359">
        <ele>642.7</ele>
        <time>2024-07-01T11:08:50Z</time>
      </trkpt>
      <trkpt lat="44.84439" lon="5.19358">
        <ele>642.8</ele>
        <time>2024-07-01T11:08:51Z</time>
      </trkpt>
      <trkpt lat="44.84437" lon="5.19355">
        <ele>642.8</ele>
        <time>2024-07-01T11:08:52Z</time>
      </trkpt>
      <trkpt lat="44.84436" lon="5.19354">
        <ele>642.8</ele>
        <time>2024-07-01T11:08:53Z</time>
      </trkpt>
      <trkpt lat="44.84435" lon="5.19353">
        <ele>642.8</ele>
        <time>2024-07-01T11:08:54Z</time>
      </trkpt>
      <trkpt lat="44.84434" lon="5.19352">
        <ele>642.8</ele>
        <time>2024-07-01T11:08:56Z</time>
      </trkpt>
      <trkpt lat="44.84433" lon="5.19351">
        <ele>642.7</ele>
        <time>2024-07-01T11:08:57Z</time>
      </trkpt>
      <trkpt lat="44.84432" lon="5.1935">
        <ele>642.7</ele>
        <time>2024-07-01T11:08:58Z</time>
      </trkpt>
      <trkpt lat="44.84431" lon="5.19349">
        <ele>642.7</ele>
        <time>2024-07-01T11:08:59Z</time>
      </trkpt>
      <trkpt lat="44.8443" lon="5.19348">
        <ele>642.7</ele>
        <time>2024-07-01T11:09:00Z</time>
      </trkpt>
      <trkpt lat="44.84428" lon="5.19348">
        <ele>642.7</ele>
        <time>2024-07-01T11:09:01Z</time>
      </trkpt>
      <trkpt lat="44.84427" lon="5.19347">
        <ele>642.6</ele>
        <time>2024-07-01T11:09:02Z</time>
      </trkpt>
      <trkpt lat="44.84425" lon="5.19346">
        <ele>642.6</ele>
        <time>2024-07-01T11:09:03Z</time>
      </trkpt>
      <trkpt lat="44.84423" lon="5.19345">
        <ele>642.6</ele>
        <time>2024-07-01T11:09:04Z</time>
      </trkpt>
      <trkpt lat="44.84422" lon="5.19344">
        <ele>642.5</ele>
        <time>2024-07-01T11:09:05Z</time>
      </trkpt>
      <trkpt lat="44.84419" lon="5.19344">
        <ele>642.5</ele>
        <time>2024-07-01T11:09:06Z</time>
      </trkpt>
      <trkpt lat="44.84418" lon="5.19344">
        <ele>642.5</ele>
        <time>2024-07-01T11:09:07Z</time>
      </trkpt>
      <trkpt lat="44.84417" lon="5.19343">
        <ele>642.4</ele>
        <time>2024-07-01T11:09:08Z</time>
      </trkpt>
      <trkpt lat="44.84415" lon="5.19342">
        <ele>642.4</ele>
        <time>2024-07-01T11:09:09Z</time>
      </trkpt>
      <trkpt lat="44.84414" lon="5.19341">
        <ele>642.4</ele>
        <time>2024-07-01T11:09:10Z</time>
      </trkpt>
      <trkpt lat="44.84413" lon="5.1934">
        <ele>642.3</ele>
        <time>2024-07-01T11:09:11Z</time>
      </trkpt>
      <trkpt lat="44.84412" lon="5.19339">
        <ele>642.3</ele>
        <time>2024-07-01T11:09:12Z</time>
      </trkpt>
      <trkpt lat="44.84411" lon="5.19338">
        <ele>642.3</ele>
        <time>2024-07-01T11:09:13Z</time>
      </trkpt>
      <trkpt lat="44.8441" lon="5.19336">
        <ele>642.2</ele>
        <time>2024-07-01T11:09:14Z</time>
      </trkpt>
      <trkpt lat="44.84407" lon="5.19334">
        <ele>642.2</ele>
        <time>2024-07-01T11:09:15Z</time>
      </trkpt>
      <trkpt lat="44.84406" lon="5.19333">
        <ele>642.1</ele>
        <time>2024-07-01T11:09:17Z</time>
      </trkpt>
      <trkpt lat="44.84405" lon="5.19332">
        <ele>642.1</ele>
        <time>2024-07-01T11:09:18Z</time>
      </trkpt>
      <trkpt lat="44.84402" lon="5.1933">
        <ele>642</ele>
        <time>2024-07-01T11:09:19Z</time>
      </trkpt>
      <trkpt lat="44.84401" lon="5.1933">
        <ele>641.9</ele>
        <time>2024-07-01T11:09:21Z</time>
      </trkpt>
      <trkpt lat="44.84399" lon="5.19329">
        <ele>641.9</ele>
        <time>2024-07-01T11:09:22Z</time>
      </trkpt>
      <trkpt lat="44.84398" lon="5.19328">
        <ele>641.8</ele>
        <time>2024-07-01T11:09:23Z</time>
      </trkpt>
      <trkpt lat="44.84396" lon="5.19327">
        <ele>641.7</ele>
        <time>2024-07-01T11:09:24Z</time>
      </trkpt>
      <trkpt lat="44.84395" lon="5.19326">
        <ele>641.7</ele>
        <time>2024-07-01T11:09:25Z</time>
      </trkpt>
      <trkpt lat="44.84394" lon="5.19325">
        <ele>641.7</ele>
        <time>2024-07-01T11:09:26Z</time>
      </trkpt>
      <trkpt lat="44.84393" lon="5.19324">
        <ele>641.6</ele>
        <time>2024-07-01T11:09:27Z</time>
      </trkpt>
      <trkpt lat="44.84392" lon="5.19323">
        <ele>641.6</ele>
        <time>2024-07-01T11:09:28Z</time>
      </trkpt>
      <trkpt lat="44.8439" lon="5.19322">
        <ele>641.5</ele>
        <time>2024-07-01T11:09:29Z</time>
      </trkpt>
      <trkpt lat="44.84389" lon="5.19321">
        <ele>641.4</ele>
        <time>2024-07-01T11:09:30Z</time>
      </trkpt>
      <trkpt lat="44.84389" lon="5.19321">
        <ele>641.4</ele>
        <time>2024-07-01T11:09:31Z</time>
      </trkpt>
      <trkpt lat="44.84388" lon="5.1932">
        <ele>641.4</ele>
        <time>2024-07-01T11:09:32Z</time>
      </trkpt>
      <trkpt lat="44.84387" lon="5.19319">
        <ele>641.3</ele>
        <time>2024-07-01T11:09:33Z</time>
      </trkpt>
      <trkpt lat="44.84386" lon="5.19318">
        <ele>641.2</ele>
        <time>2024-07-01T11:09:34Z</time>
      </trkpt>
      <trkpt lat="44.84384" lon="5.19315">
        <ele>641.1</ele>
        <time>2024-07-01T11:09:35Z</time>
      </trkpt>
      <trkpt lat="44.84383" lon="5.19314">
        <ele>641</ele>
        <time>2024-07-01T11:09:37Z</time>
      </trkpt>
      <trkpt lat="44.84382" lon="5.19313">
        <ele>641</ele>
        <time>2024-07-01T11:09:38Z</time>
      </trkpt>
      <trkpt lat="44.8438" lon="5.19311">
        <ele>640.8</ele>
        <time>2024-07-01T11:09:39Z</time>
      </trkpt>
      <trkpt lat="44.84379" lon="5.1931">
        <ele>640.7</ele>
        <time>2024-07-01T11:09:40Z</time>
      </trkpt>
      <trkpt lat="44.84378" lon="5.19309">
        <ele>640.7</ele>
        <time>2024-07-01T11:09:42Z</time>
      </trkpt>
      <trkpt lat="44.84377" lon="5.19308">
        <ele>640.6</ele>
        <time>2024-07-01T11:09:43Z</time>
      </trkpt>
      <trkpt lat="44.84376" lon="5.19306">
        <ele>640.5</ele>
        <time>2024-07-01T11:09:44Z</time>
      </trkpt>
      <trkpt lat="44.84375" lon="5.19305">
        <ele>640.4</ele>
        <time>2024-07-01T11:09:45Z</time>
      </trkpt>
      <trkpt lat="44.84375" lon="5.19304">
        <ele>640.4</ele>
        <time>2024-07-01T11:09:46Z</time>
      </trkpt>
      <trkpt lat="44.84373" lon="5.19302">
        <ele>640.2</ele>
        <time>2024-07-01T11:09:47Z</time>
      </trkpt>
      <trkpt lat="44.84372" lon="5.19301">
        <ele>640.1</ele>
        <time>2024-07-01T11:09:49Z</time>
      </trkpt>
      <trkpt lat="44.84371" lon="5.193">
        <ele>640.1</ele>
        <time>2024-07-01T11:09:50Z</time>
      </trkpt>
      <trkpt lat="44.8437" lon="5.19299">
        <ele>640</ele>
        <time>2024-07-01T11:09:51Z</time>
      </trkpt>
      <trkpt lat="44.84369" lon="5.19297">
        <ele>639.8</ele>
        <time>2024-07-01T11:09:52Z</time>
      </trkpt>
      <trkpt lat="44.84367" lon="5.19297">
        <ele>639.8</ele>
        <time>2024-07-01T11:09:54Z</time>
      </trkpt>
      <trkpt lat="44.84366" lon="5.19297">
        <ele>639.7</ele>
        <time>2024-07-01T11:09:55Z</time>
      </trkpt>
      <trkpt lat="44.84364" lon="5.19296">
        <ele>639.6</ele>
        <time>2024-07-01T11:09:56Z</time>
      </trkpt>
      <trkpt lat="44.84364" lon="5.19296">
        <ele>639.5</ele>
        <time>2024-07-01T11:09:57Z</time>
      </trkpt>
      <trkpt lat="44.84363" lon="5.19295">
        <ele>639.4</ele>
        <time>2024-07-01T11:09:58Z</time>
      </trkpt>
      <trkpt lat="44.84361" lon="5.19296">
        <ele>639.3</ele>
        <time>2024-07-01T11:09:59Z</time>
      </trkpt>
      <trkpt lat="44.8436" lon="5.19295">
        <ele>639.2</ele>
        <time>2024-07-01T11:10:00Z</time>
      </trkpt>
      <trkpt lat="44.84359" lon="5.19295">
        <ele>639.2</ele>
        <time>2024-07-01T11:10:01Z</time>
      </trkpt>
      <trkpt lat="44.84357" lon="5.19294">
        <ele>639</ele>
        <time>2024-07-01T11:10:02Z</time>
      </trkpt>
      <trkpt lat="44.84355" lon="5.19294">
        <ele>638.9</ele>
        <time>2024-07-01T11:10:04Z</time>
      </trkpt>
      <trkpt lat="44.84354" lon="5.19293">
        <ele>638.8</ele>
        <time>2024-07-01T11:10:05Z</time>
      </trkpt>
      <trkpt lat="44.84352" lon="5.19294">
        <ele>638.7</ele>
        <time>2024-07-01T11:10:06Z</time>
      </trkpt>
      <trkpt lat="44.84351" lon="5.19294">
        <ele>638.6</ele>
        <time>2024-07-01T11:10:07Z</time>
      </trkpt>
      <trkpt lat="44.8435" lon="5.19294">
        <ele>638.5</ele>
        <time>2024-07-01T11:10:08Z</time>
      </trkpt>
      <trkpt lat="44.84348" lon="5.19294">
        <ele>638.4</ele>
        <time>2024-07-01T11:10:09Z</time>
      </trkpt>
      <trkpt lat="44.84347" lon="5.19293">
        <ele>638.3</ele>
        <time>2024-07-01T11:10:10Z</time>
      </trkpt>
      <trkpt lat="44.84345" lon="5.19291">
        <ele>638.2</ele>
        <time>2024-07-01T11:10:12Z</time>
      </trkpt>
      <trkpt lat="44.84344" lon="5.19291">
        <ele>638.1</ele>
        <time>2024-07-01T11:10:13Z</time>
      </trkpt>
      <trkpt lat="44.84343" lon="5.1929">
        <ele>638</ele>
        <time>2024-07-01T11:10:14Z</time>
      </trkpt>
      <trkpt lat="44.84342" lon="5.19289">
        <ele>637.9</ele>
        <time>2024-07-01T11:10:16Z</time>
      </trkpt>
      <trkpt lat="44.84341" lon="5.19288">
        <ele>637.8</ele>
        <time>2024-07-01T11:10:17Z</time>
      </trkpt>
      <trkpt lat="44.8434" lon="5.19287">
        <ele>637.8</ele>
        <time>2024-07-01T11:10:18Z</time>
      </trkpt>
      <trkpt lat="44.84339" lon="5.19286">
        <ele>637.7</ele>
        <time>2024-07-01T11:10:19Z</time>
      </trkpt>
      <trkpt lat="44.84339" lon="5.19284">
        <ele>637.6</ele>
        <time>2024-07-01T11:10:20Z</time>
      </trkpt>
      <trkpt lat="44.84338" lon="5.19283">
        <ele>637.5</ele>
        <time>2024-07-01T11:10:21Z</time>
      </trkpt>
      <trkpt lat="44.84336" lon="5.19281">
        <ele>637.4</ele>
        <time>2024-07-01T11:10:22Z</time>
      </trkpt>
      <trkpt lat="44.84335" lon="5.1928">
        <ele>637.3</ele>
        <time>2024-07-01T11:10:23Z</time>
      </trkpt>
      <trkpt lat="44.84335" lon="5.19278">
        <ele>637.2</ele>
        <time>2024-07-01T11:10:25Z</time>
      </trkpt>
      <trkpt lat="44.84334" lon="5.19275">
        <ele>637.1</ele>
        <time>2024-07-01T11:10:26Z</time>
      </trkpt>
      <trkpt lat="44.84333" lon="5.19274">
        <ele>637</ele>
        <time>2024-07-01T11:10:28Z</time>
      </trkpt>
      <trkpt lat="44.84332" lon="5.19273">
        <ele>636.9</ele>
        <time>2024-07-01T11:10:29Z</time>
      </trkpt>
      <trkpt lat="44.84332" lon="5.19272">
        <ele>636.8</ele>
        <time>2024-07-01T11:10:30Z</time>
      </trkpt>
      <trkpt lat="44.84332" lon="5.1927">
        <ele>636.8</ele>
        <time>2024-07-01T11:10:31Z</time>
      </trkpt>
      <trkpt lat="44.84331" lon="5.19269">
        <ele>636.7</ele>
        <time>2024-07-01T11:10:32Z</time>
      </trkpt>
      <trkpt lat="44.84331" lon="5.19268">
        <ele>636.6</ele>
        <time>2024-07-01T11:10:33Z</time>
      </trkpt>
      <trkpt lat="44.84331" lon="5.19266">
        <ele>636.5</ele>
        <time>2024-07-01T11:10:34Z</time>
      </trkpt>
      <trkpt lat="44.84331" lon="5.19263">
        <ele>636.4</ele>
        <time>2024-07-01T11:10:35Z</time>
      </trkpt>
      <trkpt lat="44.84331" lon="5.19262">
        <ele>636.3</ele>
        <time>2024-07-01T11:10:36Z</time>
      </trkpt>
      <trkpt lat="44.8433" lon="5.1926">
        <ele>636.3</ele>
        <time>2024-07-01T11:10:38Z</time>
      </trkpt>
      <trkpt lat="44.8433" lon="5.19259">
        <ele>636.2</ele>
        <time>2024-07-01T11:10:39Z</time>
      </trkpt>
      <trkpt lat="44.8433" lon="5.19257">
        <ele>636.1</ele>
        <time>2024-07-01T11:10:40Z</time>
      </trkpt>
      <trkpt lat="44.8433" lon="5.19255">
        <ele>636</ele>
        <time>2024-07-01T11:10:41Z</time>
      </trkpt>
      <trkpt lat="44.84329" lon="5.19253">
        <ele>635.9</ele>
        <time>2024-07-01T11:10:42Z</time>
      </trkpt>
      <trkpt lat="44.84329" lon="5.19252">
        <ele>635.8</ele>
        <time>2024-07-01T11:10:43Z</time>
      </trkpt>
      <trkpt lat="44.84328" lon="5.19251">
        <ele>635.8</ele>
        <time>2024-07-01T11:10:44Z</time>
      </trkpt>
      <trkpt lat="44.84327" lon="5.19251">
        <ele>635.7</ele>
        <time>2024-07-01T11:10:45Z</time>
      </trkpt>
      <trkpt lat="44.84326" lon="5.19252">
        <ele>635.6</ele>
        <time>2024-07-01T11:10:46Z</time>
      </trkpt>
      <trkpt lat="44.84326" lon="5.19252">
        <ele>635.6</ele>
        <time>2024-07-01T11:10:47Z</time>
      </trkpt>
      <trkpt lat="44.84326" lon="5.19253">
        <ele>635.6</ele>
        <time>2024-07-01T11:10:48Z</time>
      </trkpt>
      <trkpt lat="44.84326" lon="5.19253">
        <ele>635.5</ele>
        <time>2024-07-01T11:10:49Z</time>
      </trkpt>
      <trkpt lat="44.84326" lon="5.19253">
        <ele>635.5</ele>
        <time>2024-07-01T11:10:50Z</time>
      </trkpt>
      <trkpt lat="44.84326" lon="5.19253">
        <ele>635.5</ele>
        <time>2024-07-01T11:10:51Z</time>
      </trkpt>
      <trkpt lat="44.84326" lon="5.19253">
        <ele>635.5</ele>
        <time>2024-07-01T11:10:52Z</time>
      </trkpt>
      <trkpt lat="44.84325" lon="5.19251">
        <ele>635.4</ele>
        <time>2024-07-01T11:10:53Z</time>
      </trkpt>
      <trkpt lat="44.84324" lon="5.1925">
        <ele>635.3</ele>
        <time>2024-07-01T11:10:55Z</time>
      </trkpt>
      <trkpt lat="44.84324" lon="5.19248">
        <ele>635.2</ele>
        <time>2024-07-01T11:10:56Z</time>
      </trkpt>
      <trkpt lat="44.84325" lon="5.19246">
        <ele>635.1</ele>
        <time>2024-07-01T11:10:57Z</time>
      </trkpt>
      <trkpt lat="44.84326" lon="5.19244">
        <ele>635</ele>
        <time>2024-07-01T11:10:58Z</time>
      </trkpt>
      <trkpt lat="44.84326" lon="5.19242">
        <ele>634.9</ele>
        <time>2024-07-01T11:10:59Z</time>
      </trkpt>
      <trkpt lat="44.84325" lon="5.1924">
        <ele>634.8</ele>
        <time>2024-07-01T11:11:00Z</time>
      </trkpt>
      <trkpt lat="44.84325" lon="5.19238">
        <ele>634.7</ele>
        <time>2024-07-01T11:11:01Z</time>
      </trkpt>
      <trkpt lat="44.84324" lon="5.19236">
        <ele>634.6</ele>
        <time>2024-07-01T11:11:02Z</time>
      </trkpt>
      <trkpt lat="44.84323" lon="5.19236">
        <ele>634.6</ele>
        <time>2024-07-01T11:11:03Z</time>
      </trkpt>
      <trkpt lat="44.84323" lon="5.19236">
        <ele>634.6</ele>
        <time>2024-07-01T11:11:04Z</time>
      </trkpt>
      <trkpt lat="44.84324" lon="5.19236">
        <ele>634.6</ele>
        <time>2024-07-01T11:11:05Z</time>
      </trkpt>
      <trkpt lat="44.84324" lon="5.19236">
        <ele>634.6</ele>
        <time>2024-07-01T11:11:06Z</time>
      </trkpt>
      <trkpt lat="44.84323" lon="5.19235">
        <ele>634.6</ele>
        <time>2024-07-01T11:11:07Z</time>
      </trkpt>
      <trkpt lat="44.84323" lon="5.19234">
        <ele>634.5</ele>
        <time>2024-07-01T11:11:08Z</time>
      </trkpt>
      <trkpt lat="44.84322" lon="5.1923">
        <ele>634.3</ele>
        <time>2024-07-01T11:11:09Z</time>
      </trkpt>
      <trkpt lat="44.84321" lon="5.19226">
        <ele>634.1</ele>
        <time>2024-07-01T11:11:10Z</time>
      </trkpt>
      <trkpt lat="44.84321" lon="5.19225">
        <ele>634.1</ele>
        <time>2024-07-01T11:11:11Z</time>
      </trkpt>
      <trkpt lat="44.84321" lon="5.19224">
        <ele>634</ele>
        <time>2024-07-01T11:11:13Z</time>
      </trkpt>
      <trkpt lat="44.8432" lon="5.19221">
        <ele>633.9</ele>
        <time>2024-07-01T11:11:14Z</time>
      </trkpt>
      <trkpt lat="44.8432" lon="5.1922">
        <ele>633.9</ele>
        <time>2024-07-01T11:11:15Z</time>
      </trkpt>
      <trkpt lat="44.8432" lon="5.19221">
        <ele>633.8</ele>
        <time>2024-07-01T11:11:17Z</time>
      </trkpt>
      <trkpt lat="44.84319" lon="5.1922">
        <ele>633.8</ele>
        <time>2024-07-01T11:11:18Z</time>
      </trkpt>
      <trkpt lat="44.84319" lon="5.19219">
        <ele>633.7</ele>
        <time>2024-07-01T11:11:19Z</time>
      </trkpt>
      <trkpt lat="44.84319" lon="5.19218">
        <ele>633.7</ele>
        <time>2024-07-01T11:11:20Z</time>
      </trkpt>
      <trkpt lat="44.84318" lon="5.19216">
        <ele>633.6</ele>
        <time>2024-07-01T11:11:21Z</time>
      </trkpt>
      <trkpt lat="44.84317" lon="5.19215">
        <ele>633.5</ele>
        <time>2024-07-01T11:11:23Z</time>
      </trkpt>
      <trkpt lat="44.84316" lon="5.19215">
        <ele>633.5</ele>
        <time>2024-07-01T11:11:24Z</time>
      </trkpt>
      <trkpt lat="44.84315" lon="5.19214">
        <ele>633.4</ele>
        <time>2024-07-01T11:11:25Z</time>
      </trkpt>
      <trkpt lat="44.84314" lon="5.19214">
        <ele>633.3</ele>
        <time>2024-07-01T11:11:26Z</time>
      </trkpt>
      <trkpt lat="44.84313" lon="5.19214">
        <ele>633.2</ele>
        <time>2024-07-01T11:11:27Z</time>
      </trkpt>
      <trkpt lat="44.84312" lon="5.19213">
        <ele>633.2</ele>
        <time>2024-07-01T11:11:28Z</time>
      </trkpt>
      <trkpt lat="44.84311" lon="5.19213">
        <ele>633.1</ele>
        <time>2024-07-01T11:11:29Z</time>
      </trkpt>
      <trkpt lat="44.8431" lon="5.19212">
        <ele>633</ele>
        <time>2024-07-01T11:11:30Z</time>
      </trkpt>
      <trkpt lat="44.84309" lon="5.19212">
        <ele>633</ele>
        <time>2024-07-01T11:11:31Z</time>
      </trkpt>
      <trkpt lat="44.84308" lon="5.19212">
        <ele>632.9</ele>
        <time>2024-07-01T11:11:32Z</time>
      </trkpt>
      <trkpt lat="44.84306" lon="5.19212">
        <ele>632.8</ele>
        <time>2024-07-01T11:11:33Z</time>
      </trkpt>
      <trkpt lat="44.84306" lon="5.19213">
        <ele>632.8</ele>
        <time>2024-07-01T11:11:35Z</time>
      </trkpt>
      <trkpt lat="44.84306" lon="5.19212">
        <ele>632.7</ele>
        <time>2024-07-01T11:11:36Z</time>
      </trkpt>
      <trkpt lat="44.84307" lon="5.19211">
        <ele>632.7</ele>
        <time>2024-07-01T11:11:37Z</time>
      </trkpt>
      <trkpt lat="44.84306" lon="5.1921">
        <ele>632.6</ele>
        <time>2024-07-01T11:11:39Z</time>
      </trkpt>
      <trkpt lat="44.84305" lon="5.19209">
        <ele>632.5</ele>
        <time>2024-07-01T11:11:40Z</time>
      </trkpt>
      <trkpt lat="44.84304" lon="5.19206">
        <ele>632.4</ele>
        <time>2024-07-01T11:11:41Z</time>
      </trkpt>
      <trkpt lat="44.84303" lon="5.19206">
        <ele>632.3</ele>
        <time>2024-07-01T11:11:42Z</time>
      </trkpt>
      <trkpt lat="44.84302" lon="5.19205">
        <ele>632.3</ele>
        <time>2024-07-01T11:11:43Z</time>
      </trkpt>
      <trkpt lat="44.843" lon="5.19205">
        <ele>632.1</ele>
        <time>2024-07-01T11:11:44Z</time>
      </trkpt>
      <trkpt lat="44.84299" lon="5.19204">
        <ele>632.1</ele>
        <time>2024-07-01T11:11:45Z</time>
      </trkpt>
      <trkpt lat="44.84298" lon="5.19204">
        <ele>632</ele>
        <time>2024-07-01T11:11:46Z</time>
      </trkpt>
      <trkpt lat="44.84296" lon="5.19202">
        <ele>631.8</ele>
        <time>2024-07-01T11:11:47Z</time>
      </trkpt>
      <trkpt lat="44.84295" lon="5.19202">
        <ele>631.8</ele>
        <time>2024-07-01T11:11:49Z</time>
      </trkpt>
      <trkpt lat="44.84294" lon="5.19201">
        <ele>631.7</ele>
        <time>2024-07-01T11:11:50Z</time>
      </trkpt>
      <trkpt lat="44.84293" lon="5.192">
        <ele>631.7</ele>
        <time>2024-07-01T11:11:51Z</time>
      </trkpt>
      <trkpt lat="44.84293" lon="5.192">
        <ele>631.6</ele>
        <time>2024-07-01T11:11:52Z</time>
      </trkpt>
      <trkpt lat="44.84292" lon="5.19199">
        <ele>631.6</ele>
        <time>2024-07-01T11:11:53Z</time>
      </trkpt>
      <trkpt lat="44.84291" lon="5.19197">
        <ele>631.5</ele>
        <time>2024-07-01T11:11:54Z</time>
      </trkpt>
      <trkpt lat="44.84289" lon="5.19197">
        <ele>631.4</ele>
        <time>2024-07-01T11:11:55Z</time>
      </trkpt>
      <trkpt lat="44.84288" lon="5.19197">
        <ele>631.3</ele>
        <time>2024-07-01T11:11:57Z</time>
      </trkpt>
      <trkpt lat="44.84287" lon="5.19197">
        <ele>631.3</ele>
        <time>2024-07-01T11:11:58Z</time>
      </trkpt>
      <trkpt lat="44.84285" lon="5.19197">
        <ele>631.2</ele>
        <time>2024-07-01T11:11:59Z</time>
      </trkpt>
      <trkpt lat="44.84282" lon="5.19199">
        <ele>631</ele>
        <time>2024-07-01T11:12:01Z</time>
      </trkpt>
      <trkpt lat="44.84281" lon="5.19199">
        <ele>631</ele>
        <time>2024-07-01T11:12:02Z</time>
      </trkpt>
      <trkpt lat="44.8428" lon="5.192">
        <ele>630.9</ele>
        <time>2024-07-01T11:12:03Z</time>
      </trkpt>
      <trkpt lat="44.84276" lon="5.19203">
        <ele>630.7</ele>
        <time>2024-07-01T11:12:04Z</time>
      </trkpt>
      <trkpt lat="44.84274" lon="5.19206">
        <ele>630.6</ele>
        <time>2024-07-01T11:12:05Z</time>
      </trkpt>
      <trkpt lat="44.84271" lon="5.19209">
        <ele>630.4</ele>
        <time>2024-07-01T11:12:07Z</time>
      </trkpt>
      <trkpt lat="44.84268" lon="5.19211">
        <ele>630.3</ele>
        <time>2024-07-01T11:12:08Z</time>
      </trkpt>
      <trkpt lat="44.84265" lon="5.19212">
        <ele>630.2</ele>
        <time>2024-07-01T11:12:09Z</time>
      </trkpt>
      <trkpt lat="44.84264" lon="5.19213">
        <ele>630.1</ele>
        <time>2024-07-01T11:12:10Z</time>
      </trkpt>
      <trkpt lat="44.84263" lon="5.19213">
        <ele>630.1</ele>
        <time>2024-07-01T11:12:11Z</time>
      </trkpt>
      <trkpt lat="44.84262" lon="5.19212">
        <ele>630</ele>
        <time>2024-07-01T11:12:12Z</time>
      </trkpt>
      <trkpt lat="44.84261" lon="5.19212">
        <ele>630</ele>
        <time>2024-07-01T11:12:13Z</time>
      </trkpt>
      <trkpt lat="44.8426" lon="5.1921">
        <ele>629.9</ele>
        <time>2024-07-01T11:12:14Z</time>
      </trkpt>
      <trkpt lat="44.84259" lon="5.1921">
        <ele>629.9</ele>
        <time>2024-07-01T11:12:15Z</time>
      </trkpt>
      <trkpt lat="44.84258" lon="5.19209">
        <ele>629.8</ele>
        <time>2024-07-01T11:12:16Z</time>
      </trkpt>
      <trkpt lat="44.84256" lon="5.19209">
        <ele>629.7</ele>
        <time>2024-07-01T11:12:17Z</time>
      </trkpt>
      <trkpt lat="44.84255" lon="5.19209">
        <ele>629.7</ele>
        <time>2024-07-01T11:12:18Z</time>
      </trkpt>
      <trkpt lat="44.84254" lon="5.19208">
        <ele>629.6</ele>
        <time>2024-07-01T11:12:19Z</time>
      </trkpt>
      <trkpt lat="44.84251" lon="5.19207">
        <ele>629.5</ele>
        <time>2024-07-01T11:12:20Z</time>
      </trkpt>
      <trkpt lat="44.84249" lon="5.19206">
        <ele>629.4</ele>
        <time>2024-07-01T11:12:22Z</time>
      </trkpt>
      <trkpt lat="44.84249" lon="5.19206">
        <ele>629.4</ele>
        <time>2024-07-01T11:12:23Z</time>
      </trkpt>
      <trkpt lat="44.84247" lon="5.19204">
        <ele>629.3</ele>
        <time>2024-07-01T11:12:24Z</time>
      </trkpt>
      <trkpt lat="44.84246" lon="5.19203">
        <ele>629.2</ele>
        <time>2024-07-01T11:12:26Z</time>
      </trkpt>
      <trkpt lat="44.84245" lon="5.19202">
        <ele>629.2</ele>
        <time>2024-07-01T11:12:27Z</time>
      </trkpt>
      <trkpt lat="44.84244" lon="5.192">
        <ele>629.1</ele>
        <time>2024-07-01T11:12:28Z</time>
      </trkpt>
      <trkpt lat="44.84243" lon="5.192">
        <ele>629.1</ele>
        <time>2024-07-01T11:12:29Z</time>
      </trkpt>
      <trkpt lat="44.84243" lon="5.19199">
        <ele>629.1</ele>
        <time>2024-07-01T11:12:30Z</time>
      </trkpt>
      <trkpt lat="44.84242" lon="5.19199">
        <ele>629</ele>
        <time>2024-07-01T11:12:31Z</time>
      </trkpt>
      <trkpt lat="44.84241" lon="5.19198">
        <ele>629</ele>
        <time>2024-07-01T11:12:32Z</time>
      </trkpt>
      <trkpt lat="44.8424" lon="5.19197">
        <ele>629</ele>
        <time>2024-07-01T11:12:33Z</time>
      </trkpt>
      <trkpt lat="44.84238" lon="5.19198">
        <ele>628.9</ele>
        <time>2024-07-01T11:12:34Z</time>
      </trkpt>
      <trkpt lat="44.84238" lon="5.19199">
        <ele>628.9</ele>
        <time>2024-07-01T11:12:36Z</time>
      </trkpt>
      <trkpt lat="44.84237" lon="5.19198">
        <ele>628.8</ele>
        <time>2024-07-01T11:12:37Z</time>
      </trkpt>
      <trkpt lat="44.84236" lon="5.19197">
        <ele>628.8</ele>
        <time>2024-07-01T11:12:38Z</time>
      </trkpt>
      <trkpt lat="44.84236" lon="5.19195">
        <ele>628.7</ele>
        <time>2024-07-01T11:12:39Z</time>
      </trkpt>
      <trkpt lat="44.84236" lon="5.19193">
        <ele>628.7</ele>
        <time>2024-07-01T11:12:40Z</time>
      </trkpt>
      <trkpt lat="44.84236" lon="5.1919">
        <ele>628.6</ele>
        <time>2024-07-01T11:12:41Z</time>
      </trkpt>
      <trkpt lat="44.84236" lon="5.19187">
        <ele>628.6</ele>
        <time>2024-07-01T11:12:42Z</time>
      </trkpt>
      <trkpt lat="44.84236" lon="5.19186">
        <ele>628.5</ele>
        <time>2024-07-01T11:12:43Z</time>
      </trkpt>
      <trkpt lat="44.84236" lon="5.19185">
        <ele>628.5</ele>
        <time>2024-07-01T11:12:44Z</time>
      </trkpt>
      <trkpt lat="44.84235" lon="5.19182">
        <ele>628.4</ele>
        <time>2024-07-01T11:12:45Z</time>
      </trkpt>
      <trkpt lat="44.84235" lon="5.19181">
        <ele>628.4</ele>
        <time>2024-07-01T11:12:47Z</time>
      </trkpt>
      <trkpt lat="44.84235" lon="5.19179">
        <ele>628.4</ele>
        <time>2024-07-01T11:12:48Z</time>
      </trkpt>
      <trkpt lat="44.84234" lon="5.19176">
        <ele>628.3</ele>
        <time>2024-07-01T11:12:49Z</time>
      </trkpt>
      <trkpt lat="44.84235" lon="5.19175">
        <ele>628.3</ele>
        <time>2024-07-01T11:12:51Z</time>
      </trkpt>
      <trkpt lat="44.84235" lon="5.19173">
        <ele>628.2</ele>
        <time>2024-07-01T11:12:52Z</time>
      </trkpt>
      <trkpt lat="44.84235" lon="5.19172">
        <ele>628.2</ele>
        <time>2024-07-01T11:12:53Z</time>
      </trkpt>
      <trkpt lat="44.84235" lon="5.1917">
        <ele>628.1</ele>
        <time>2024-07-01T11:12:54Z</time>
      </trkpt>
      <trkpt lat="44.84235" lon="5.19167">
        <ele>628.1</ele>
        <time>2024-07-01T11:12:55Z</time>
      </trkpt>
      <trkpt lat="44.84234" lon="5.19165">
        <ele>628</ele>
        <time>2024-07-01T11:12:56Z</time>
      </trkpt>
      <trkpt lat="44.84234" lon="5.19164">
        <ele>628</ele>
        <time>2024-07-01T11:12:58Z</time>
      </trkpt>
      <trkpt lat="44.84234" lon="5.19162">
        <ele>627.9</ele>
        <time>2024-07-01T11:12:59Z</time>
      </trkpt>
      <trkpt lat="44.84233" lon="5.1916">
        <ele>627.9</ele>
        <time>2024-07-01T11:13:00Z</time>
      </trkpt>
      <trkpt lat="44.84232" lon="5.19159">
        <ele>627.8</ele>
        <time>2024-07-01T11:13:01Z</time>
      </trkpt>
      <trkpt lat="44.84231" lon="5.19158">
        <ele>627.8</ele>
        <time>2024-07-01T11:13:02Z</time>
      </trkpt>
      <trkpt lat="44.8423" lon="5.19158">
        <ele>627.7</ele>
        <time>2024-07-01T11:13:03Z</time>
      </trkpt>
      <trkpt lat="44.84229" lon="5.19157">
        <ele>627.7</ele>
        <time>2024-07-01T11:13:04Z</time>
      </trkpt>
      <trkpt lat="44.84229" lon="5.19157">
        <ele>627.7</ele>
        <time>2024-07-01T11:13:05Z</time>
      </trkpt>
      <trkpt lat="44.84226" lon="5.19154">
        <ele>627.5</ele>
        <time>2024-07-01T11:13:06Z</time>
      </trkpt>
      <trkpt lat="44.84225" lon="5.19152">
        <ele>627.5</ele>
        <time>2024-07-01T11:13:08Z</time>
      </trkpt>
      <trkpt lat="44.84224" lon="5.19151">
        <ele>627.4</ele>
        <time>2024-07-01T11:13:09Z</time>
      </trkpt>
      <trkpt lat="44.84223" lon="5.1915">
        <ele>627.4</ele>
        <time>2024-07-01T11:13:10Z</time>
      </trkpt>
      <trkpt lat="44.84222" lon="5.19149">
        <ele>627.3</ele>
        <time>2024-07-01T11:13:11Z</time>
      </trkpt>
      <trkpt lat="44.84221" lon="5.19147">
        <ele>627.2</ele>
        <time>2024-07-01T11:13:13Z</time>
      </trkpt>
      <trkpt lat="44.84221" lon="5.19145">
        <ele>627.2</ele>
        <time>2024-07-01T11:13:14Z</time>
      </trkpt>
      <trkpt lat="44.8422" lon="5.19142">
        <ele>627.1</ele>
        <time>2024-07-01T11:13:15Z</time>
      </trkpt>
      <trkpt lat="44.84219" lon="5.19138">
        <ele>627</ele>
        <time>2024-07-01T11:13:16Z</time>
      </trkpt>
      <trkpt lat="44.84219" lon="5.19137">
        <ele>626.9</ele>
        <time>2024-07-01T11:13:17Z</time>
      </trkpt>
      <trkpt lat="44.84218" lon="5.19132">
        <ele>626.8</ele>
        <time>2024-07-01T11:13:18Z</time>
      </trkpt>
      <trkpt lat="44.84218" lon="5.19128">
        <ele>626.7</ele>
        <time>2024-07-01T11:13:20Z</time>
      </trkpt>
      <trkpt lat="44.84218" lon="5.19127">
        <ele>626.7</ele>
        <time>2024-07-01T11:13:21Z</time>
      </trkpt>
      <trkpt lat="44.84219" lon="5.19126">
        <ele>626.6</ele>
        <time>2024-07-01T11:13:22Z</time>
      </trkpt>
      <trkpt lat="44.84219" lon="5.19124">
        <ele>626.6</ele>
        <time>2024-07-01T11:13:23Z</time>
      </trkpt>
      <trkpt lat="44.84218" lon="5.1912">
        <ele>626.5</ele>
        <time>2024-07-01T11:13:24Z</time>
      </trkpt>
      <trkpt lat="44.84218" lon="5.19119">
        <ele>626.5</ele>
        <time>2024-07-01T11:13:25Z</time>
      </trkpt>
      <trkpt lat="44.84216" lon="5.19115">
        <ele>626.4</ele>
        <time>2024-07-01T11:13:26Z</time>
      </trkpt>
      <trkpt lat="44.84216" lon="5.19113">
        <ele>626.4</ele>
        <time>2024-07-01T11:13:27Z</time>
      </trkpt>
      <trkpt lat="44.84215" lon="5.1911">
        <ele>626.3</ele>
        <time>2024-07-01T11:13:28Z</time>
      </trkpt>
      <trkpt lat="44.84215" lon="5.19108">
        <ele>626.3</ele>
        <time>2024-07-01T11:13:29Z</time>
      </trkpt>
      <trkpt lat="44.84215" lon="5.19104">
        <ele>626.2</ele>
        <time>2024-07-01T11:13:30Z</time>
      </trkpt>
      <trkpt lat="44.84215" lon="5.19103">
        <ele>626.2</ele>
        <time>2024-07-01T11:13:31Z</time>
      </trkpt>
      <trkpt lat="44.84215" lon="5.191">
        <ele>626.2</ele>
        <time>2024-07-01T11:13:32Z</time>
      </trkpt>
      <trkpt lat="44.84215" lon="5.19098">
        <ele>626.2</ele>
        <time>2024-07-01T11:13:33Z</time>
      </trkpt>
      <trkpt lat="44.84215" lon="5.19094">
        <ele>626.1</ele>
        <time>2024-07-01T11:13:34Z</time>
      </trkpt>
      <trkpt lat="44.84215" lon="5.19092">
        <ele>626.1</ele>
        <time>2024-07-01T11:13:35Z</time>
      </trkpt>
      <trkpt lat="44.84216" lon="5.19088">
        <ele>626.1</ele>
        <time>2024-07-01T11:13:36Z</time>
      </trkpt>
      <trkpt lat="44.84216" lon="5.19086">
        <ele>626.1</ele>
        <time>2024-07-01T11:13:37Z</time>
      </trkpt>
      <trkpt lat="44.84217" lon="5.19081">
        <ele>626.1</ele>
        <time>2024-07-01T11:13:38Z</time>
      </trkpt>
      <trkpt lat="44.84218" lon="5.19078">
        <ele>626.1</ele>
        <time>2024-07-01T11:13:39Z</time>
      </trkpt>
      <trkpt lat="44.84218" lon="5.19075">
        <ele>626.1</ele>
        <time>2024-07-01T11:13:41Z</time>
      </trkpt>
      <trkpt lat="44.8422" lon="5.19071">
        <ele>626.2</ele>
        <time>2024-07-01T11:13:42Z</time>
      </trkpt>
      <trkpt lat="44.8422" lon="5.19069">
        <ele>626.2</ele>
        <time>2024-07-01T11:13:43Z</time>
      </trkpt>
      <trkpt lat="44.84221" lon="5.19064">
        <ele>626.3</ele>
        <time>2024-07-01T11:13:44Z</time>
      </trkpt>
      <trkpt lat="44.84221" lon="5.19062">
        <ele>626.3</ele>
        <time>2024-07-01T11:13:45Z</time>
      </trkpt>
      <trkpt lat="44.84222" lon="5.19059">
        <ele>626.3</ele>
        <time>2024-07-01T11:13:46Z</time>
      </trkpt>
      <trkpt lat="44.84222" lon="5.19055">
        <ele>626.4</ele>
        <time>2024-07-01T11:13:48Z</time>
      </trkpt>
      <trkpt lat="44.84222" lon="5.19053">
        <ele>626.4</ele>
        <time>2024-07-01T11:13:49Z</time>
      </trkpt>
      <trkpt lat="44.84222" lon="5.19051">
        <ele>626.4</ele>
        <time>2024-07-01T11:13:50Z</time>
      </trkpt>
      <trkpt lat="44.84222" lon="5.19048">
        <ele>626.5</ele>
        <time>2024-07-01T11:13:51Z</time>
      </trkpt>
      <trkpt lat="44.84223" lon="5.19044">
        <ele>626.5</ele>
        <time>2024-07-01T11:13:52Z</time>
      </trkpt>
      <trkpt lat="44.84223" lon="5.19043">
        <ele>626.5</ele>
        <time>2024-07-01T11:13:53Z</time>
      </trkpt>
      <trkpt lat="44.84223" lon="5.19041">
        <ele>626.5</ele>
        <time>2024-07-01T11:13:54Z</time>
      </trkpt>
      <trkpt lat="44.84223" lon="5.19038">
        <ele>626.5</ele>
        <time>2024-07-01T11:13:55Z</time>
      </trkpt>
      <trkpt lat="44.84223" lon="5.19036">
        <ele>626.5</ele>
        <time>2024-07-01T11:13:56Z</time>
      </trkpt>
      <trkpt lat="44.84223" lon="5.19033">
        <ele>626.5</ele>
        <time>2024-07-01T11:13:57Z</time>
      </trkpt>
      <trkpt lat="44.84223" lon="5.19029">
        <ele>626.5</ele>
        <time>2024-07-01T11:13:58Z</time>
      </trkpt>
      <trkpt lat="44.84224" lon="5.19027">
        <ele>626.5</ele>
        <time>2024-07-01T11:13:59Z</time>
      </trkpt>
      <trkpt lat="44.84224" lon="5.19024">
        <ele>626.5</ele>
        <time>2024-07-01T11:14:01Z</time>
      </trkpt>
      <trkpt lat="44.84224" lon="5.19022">
        <ele>626.5</ele>
        <time>2024-07-01T11:14:02Z</time>
      </trkpt>
      <trkpt lat="44.84224" lon="5.19019">
        <ele>626.5</ele>
        <time>2024-07-01T11:14:03Z</time>
      </trkpt>
      <trkpt lat="44.84224" lon="5.19017">
        <ele>626.5</ele>
        <time>2024-07-01T11:14:04Z</time>
      </trkpt>
      <trkpt lat="44.84224" lon="5.19015">
        <ele>626.5</ele>
        <time>2024-07-01T11:14:05Z</time>
      </trkpt>
      <trkpt lat="44.84224" lon="5.19013">
        <ele>626.5</ele>
        <time>2024-07-01T11:14:06Z</time>
      </trkpt>
      <trkpt lat="44.84224" lon="5.19011">
        <ele>626.5</ele>
        <time>2024-07-01T11:14:07Z</time>
      </trkpt>
      <trkpt lat="44.84223" lon="5.19009">
        <ele>626.5</ele>
        <time>2024-07-01T11:14:08Z</time>
      </trkpt>
      <trkpt lat="44.84223" lon="5.19007">
        <ele>626.5</ele>
        <time>2024-07-01T11:14:09Z</time>
      </trkpt>
      <trkpt lat="44.84222" lon="5.19004">
        <ele>626.5</ele>
        <time>2024-07-01T11:14:10Z</time>
      </trkpt>
      <trkpt lat="44.84221" lon="5.19002">
        <ele>626.5</ele>
        <time>2024-07-01T11:14:11Z</time>
      </trkpt>
      <trkpt lat="44.84221" lon="5.19">
        <ele>626.5</ele>
        <time>2024-07-01T11:14:12Z</time>
      </trkpt>
      <trkpt lat="44.8422" lon="5.18998">
        <ele>626.5</ele>
        <time>2024-07-01T11:14:13Z</time>
      </trkpt>
      <trkpt lat="44.8422" lon="5.18996">
        <ele>626.5</ele>
        <time>2024-07-01T11:14:14Z</time>
      </trkpt>
      <trkpt lat="44.84218" lon="5.18993">
        <ele>626.5</ele>
        <time>2024-07-01T11:14:15Z</time>
      </trkpt>
      <trkpt lat="44.84216" lon="5.1899">
        <ele>626.5</ele>
        <time>2024-07-01T11:14:17Z</time>
      </trkpt>
      <trkpt lat="44.84215" lon="5.18989">
        <ele>626.5</ele>
        <time>2024-07-01T11:14:18Z</time>
      </trkpt>
      <trkpt lat="44.84215" lon="5.18988">
        <ele>626.5</ele>
        <time>2024-07-01T11:14:19Z</time>
      </trkpt>
      <trkpt lat="44.84214" lon="5.18987">
        <ele>626.5</ele>
        <time>2024-07-01T11:14:20Z</time>
      </trkpt>
      <trkpt lat="44.84211" lon="5.18985">
        <ele>626.5</ele>
        <time>2024-07-01T11:14:21Z</time>
      </trkpt>
      <trkpt lat="44.8421" lon="5.18984">
        <ele>626.5</ele>
        <time>2024-07-01T11:14:23Z</time>
      </trkpt>
      <trkpt lat="44.84209" lon="5.18983">
        <ele>626.5</ele>
        <time>2024-07-01T11:14:24Z</time>
      </trkpt>
      <trkpt lat="44.84207" lon="5.18983">
        <ele>626.5</ele>
        <time>2024-07-01T11:14:25Z</time>
      </trkpt>
      <trkpt lat="44.84206" lon="5.18981">
        <ele>626.5</ele>
        <time>2024-07-01T11:14:26Z</time>
      </trkpt>
      <trkpt lat="44.84205" lon="5.18978">
        <ele>626.5</ele>
        <time>2024-07-01T11:14:28Z</time>
      </trkpt>
      <trkpt lat="44.84205" lon="5.18978">
        <ele>626.4</ele>
        <time>2024-07-01T11:14:29Z</time>
      </trkpt>
      <trkpt lat="44.84204" lon="5.18976">
        <ele>626.4</ele>
        <time>2024-07-01T11:14:30Z</time>
      </trkpt>
      <trkpt lat="44.84205" lon="5.18974">
        <ele>626.4</ele>
        <time>2024-07-01T11:14:31Z</time>
      </trkpt>
      <trkpt lat="44.84205" lon="5.18969">
        <ele>626.4</ele>
        <time>2024-07-01T11:14:32Z</time>
      </trkpt>
      <trkpt lat="44.84206" lon="5.18967">
        <ele>626.4</ele>
        <time>2024-07-01T11:14:34Z</time>
      </trkpt>
      <trkpt lat="44.84207" lon="5.18966">
        <ele>626.4</ele>
        <time>2024-07-01T11:14:35Z</time>
      </trkpt>
      <trkpt lat="44.84208" lon="5.18964">
        <ele>626.4</ele>
        <time>2024-07-01T11:14:36Z</time>
      </trkpt>
      <trkpt lat="44.84208" lon="5.18962">
        <ele>626.3</ele>
        <time>2024-07-01T11:14:37Z</time>
      </trkpt>
      <trkpt lat="44.84209" lon="5.18961">
        <ele>626.3</ele>
        <time>2024-07-01T11:14:38Z</time>
      </trkpt>
      <trkpt lat="44.84211" lon="5.18959">
        <ele>626.3</ele>
        <time>2024-07-01T11:14:39Z</time>
      </trkpt>
      <trkpt lat="44.84212" lon="5.18958">
        <ele>626.3</ele>
        <time>2024-07-01T11:14:40Z</time>
      </trkpt>
      <trkpt lat="44.84214" lon="5.18957">
        <ele>626.2</ele>
        <time>2024-07-01T11:14:41Z</time>
      </trkpt>
      <trkpt lat="44.84215" lon="5.18954">
        <ele>626.2</ele>
        <time>2024-07-01T11:14:42Z</time>
      </trkpt>
      <trkpt lat="44.84215" lon="5.18954">
        <ele>626.2</ele>
        <time>2024-07-01T11:14:43Z</time>
      </trkpt>
      <trkpt lat="44.84216" lon="5.18953">
        <ele>626.2</ele>
        <time>2024-07-01T11:14:44Z</time>
      </trkpt>
      <trkpt lat="44.84216" lon="5.18951">
        <ele>626.1</ele>
        <time>2024-07-01T11:14:45Z</time>
      </trkpt>
      <trkpt lat="44.84216" lon="5.18951">
        <ele>626.1</ele>
        <time>2024-07-01T11:14:46Z</time>
      </trkpt>
      <trkpt lat="44.84216" lon="5.18949">
        <ele>626.1</ele>
        <time>2024-07-01T11:14:47Z</time>
      </trkpt>
      <trkpt lat="44.84216" lon="5.18947">
        <ele>626.1</ele>
        <time>2024-07-01T11:14:48Z</time>
      </trkpt>
      <trkpt lat="44.84217" lon="5.18946">
        <ele>626</ele>
        <time>2024-07-01T11:14:50Z</time>
      </trkpt>
      <trkpt lat="44.84218" lon="5.18946">
        <ele>626</ele>
        <time>2024-07-01T11:14:51Z</time>
      </trkpt>
      <trkpt lat="44.84219" lon="5.18946">
        <ele>626</ele>
        <time>2024-07-01T11:14:52Z</time>
      </trkpt>
      <trkpt lat="44.8422" lon="5.18946">
        <ele>625.9</ele>
        <time>2024-07-01T11:14:53Z</time>
      </trkpt>
      <trkpt lat="44.84221" lon="5.18947">
        <ele>625.9</ele>
        <time>2024-07-01T11:14:55Z</time>
      </trkpt>
      <trkpt lat="44.84221" lon="5.18947">
        <ele>625.9</ele>
        <time>2024-07-01T11:14:56Z</time>
      </trkpt>
      <trkpt lat="44.8422" lon="5.18947">
        <ele>625.9</ele>
        <time>2024-07-01T11:14:57Z</time>
      </trkpt>
      <trkpt lat="44.8422" lon="5.18947">
        <ele>625.9</ele>
        <time>2024-07-01T11:14:58Z</time>
      </trkpt>
      <trkpt lat="44.84219" lon="5.18947">
        <ele>625.8</ele>
        <time>2024-07-01T11:14:59Z</time>
      </trkpt>
      <trkpt lat="44.84218" lon="5.18947">
        <ele>625.8</ele>
        <time>2024-07-01T11:15:00Z</time>
      </trkpt>
      <trkpt lat="44.84218" lon="5.18947">
        <ele>625.8</ele>
        <time>2024-07-01T11:15:01Z</time>
      </trkpt>
      <trkpt lat="44.84217" lon="5.18947">
        <ele>625.8</ele>
        <time>2024-07-01T11:15:02Z</time>
      </trkpt>
      <trkpt lat="44.84217" lon="5.18947">
        <ele>625.8</ele>
        <time>2024-07-01T11:15:03Z</time>
      </trkpt>
      <trkpt lat="44.84217" lon="5.18947">
        <ele>625.8</ele>
        <time>2024-07-01T11:15:04Z</time>
      </trkpt>
      <trkpt lat="44.84217" lon="5.18947">
        <ele>625.8</ele>
        <time>2024-07-01T11:15:05Z</time>
      </trkpt>
      <trkpt lat="44.84216" lon="5.18948">
        <ele>625.7</ele>
        <time>2024-07-01T11:15:06Z</time>
      </trkpt>
      <trkpt lat="44.84215" lon="5.18948">
        <ele>625.7</ele>
        <time>2024-07-01T11:15:07Z</time>
      </trkpt>
      <trkpt lat="44.84215" lon="5.18948">
        <ele>625.7</ele>
        <time>2024-07-01T11:15:08Z</time>
      </trkpt>
      <trkpt lat="44.84215" lon="5.18948">
        <ele>625.7</ele>
        <time>2024-07-01T11:15:09Z</time>
      </trkpt>
      <trkpt lat="44.84215" lon="5.18948">
        <ele>625.7</ele>
        <time>2024-07-01T11:15:10Z</time>
      </trkpt>
      <trkpt lat="44.84215" lon="5.18948">
        <ele>625.7</ele>
        <time>2024-07-01T11:15:11Z</time>
      </trkpt>
      <trkpt lat="44.84215" lon="5.18948">
        <ele>625.7</ele>
        <time>2024-07-01T11:15:12Z</time>
      </trkpt>
      <trkpt lat="44.84215" lon="5.18948">
        <ele>625.7</ele>
        <time>2024-07-01T11:15:13Z</time>
      </trkpt>
      <trkpt lat="44.84215" lon="5.18948">
        <ele>625.7</ele>
        <time>2024-07-01T11:15:14Z</time>
      </trkpt>
      <trkpt lat="44.84215" lon="5.18948">
        <ele>625.7</ele>
        <time>2024-07-01T11:15:15Z</time>
      </trkpt>
      <trkpt lat="44.84215" lon="5.18949">
        <ele>625.7</ele>
        <time>2024-07-01T11:15:16Z</time>
      </trkpt>
      <trkpt lat="44.84215" lon="5.18949">
        <ele>625.7</ele>
        <time>2024-07-01T11:15:17Z</time>
      </trkpt>
      <trkpt lat="44.84215" lon="5.18949">
        <ele>625.7</ele>
        <time>2024-07-01T11:15:18Z</time>
      </trkpt>
      <trkpt lat="44.84215" lon="5.18949">
        <ele>625.7</ele>
        <time>2024-07-01T11:15:19Z</time>
      </trkpt>
      <trkpt lat="44.84215" lon="5.18949">
        <ele>625.7</ele>
        <time>2024-07-01T11:15:20Z</time>
      </trkpt>
      <trkpt lat="44.84215" lon="5.18949">
        <ele>625.7</ele>
        <time>2024-07-01T11:15:21Z</time>
      </trkpt>
      <trkpt lat="44.84214" lon="5.18948">
        <ele>625.6</ele>
        <time>2024-07-01T11:15:22Z</time>
      </trkpt>
      <trkpt lat="44.84214" lon="5.18948">
        <ele>625.6</ele>
        <time>2024-07-01T11:15:24Z</time>
      </trkpt>
      <trkpt lat="44.84214" lon="5.18948">
        <ele>625.6</ele>
        <time>2024-07-01T11:15:25Z</time>
      </trkpt>
      <trkpt lat="44.84213" lon="5.18948">
        <ele>625.6</ele>
        <time>2024-07-01T11:15:26Z</time>
      </trkpt>
      <trkpt lat="44.84211" lon="5.18948">
        <ele>625.5</ele>
        <time>2024-07-01T11:15:27Z</time>
      </trkpt>
      <trkpt lat="44.84211" lon="5.18948">
        <ele>625.5</ele>
        <time>2024-07-01T11:15:28Z</time>
      </trkpt>
      <trkpt lat="44.8421" lon="5.18948">
        <ele>625.5</ele>
        <time>2024-07-01T11:15:29Z</time>
      </trkpt>
      <trkpt lat="44.84209" lon="5.18948">
        <ele>625.5</ele>
        <time>2024-07-01T11:15:30Z</time>
      </trkpt>
      <trkpt lat="44.84206" lon="5.18947">
        <ele>618.4</ele>
        <time>2024-07-01T11:15:31Z</time>
      </trkpt>
      <trkpt lat="44.84203" lon="5.18944">
        <ele>608.6</ele>
        <time>2024-07-01T11:15:32Z</time>
      </trkpt>
      <trkpt lat="44.842" lon="5.18941">
        <ele>599.3</ele>
        <time>2024-07-01T11:15:34Z</time>
      </trkpt>
      <trkpt lat="44.84197" lon="5.18938">
        <ele>596.8</ele>
        <time>2024-07-01T11:15:35Z</time>
      </trkpt>
      <trkpt lat="44.84196" lon="5.18937">
        <ele>596.8</ele>
        <time>2024-07-01T11:15:37Z</time>
      </trkpt>
      <trkpt lat="44.84195" lon="5.18935">
        <ele>596.7</ele>
        <time>2024-07-01T11:15:38Z</time>
      </trkpt>
      <trkpt lat="44.84195" lon="5.18934">
        <ele>596.7</ele>
        <time>2024-07-01T11:15:39Z</time>
      </trkpt>
      <trkpt lat="44.84194" lon="5.18932">
        <ele>596.6</ele>
        <time>2024-07-01T11:15:40Z</time>
      </trkpt>
      <trkpt lat="44.84194" lon="5.18931">
        <ele>596.6</ele>
        <time>2024-07-01T11:15:42Z</time>
      </trkpt>
      <trkpt lat="44.84193" lon="5.1893">
        <ele>596.6</ele>
        <time>2024-07-01T11:15:43Z</time>
      </trkpt>
      <trkpt lat="44.84193" lon="5.18929">
        <ele>596.5</ele>
        <time>2024-07-01T11:15:44Z</time>
      </trkpt>
      <trkpt lat="44.84192" lon="5.18928">
        <ele>596.5</ele>
        <time>2024-07-01T11:15:45Z</time>
      </trkpt>
      <trkpt lat="44.84191" lon="5.18927">
        <ele>596.4</ele>
        <time>2024-07-01T11:15:47Z</time>
      </trkpt>
      <trkpt lat="44.84191" lon="5.18925">
        <ele>596.4</ele>
        <time>2024-07-01T11:15:48Z</time>
      </trkpt>
      <trkpt lat="44.84191" lon="5.18924">
        <ele>596.4</ele>
        <time>2024-07-01T11:15:49Z</time>
      </trkpt>
      <trkpt lat="44.84192" lon="5.18924">
        <ele>596.3</ele>
        <time>2024-07-01T11:15:50Z</time>
      </trkpt>
      <trkpt lat="44.84193" lon="5.18924">
        <ele>596.3</ele>
        <time>2024-07-01T11:15:51Z</time>
      </trkpt>
      <trkpt lat="44.84193" lon="5.18924">
        <ele>596.3</ele>
        <time>2024-07-01T11:15:52Z</time>
      </trkpt>
      <trkpt lat="44.84193" lon="5.18924">
        <ele>596.3</ele>
        <time>2024-07-01T11:15:53Z</time>
      </trkpt>
      <trkpt lat="44.84193" lon="5.18924">
        <ele>596.3</ele>
        <time>2024-07-01T11:15:54Z</time>
      </trkpt>
      <trkpt lat="44.84192" lon="5.18923">
        <ele>596.3</ele>
        <time>2024-07-01T11:15:55Z</time>
      </trkpt>
      <trkpt lat="44.84192" lon="5.18922">
        <ele>596.3</ele>
        <time>2024-07-01T11:15:57Z</time>
      </trkpt>
      <trkpt lat="44.84191" lon="5.1892">
        <ele>596.2</ele>
        <time>2024-07-01T11:15:58Z</time>
      </trkpt>
      <trkpt lat="44.84191" lon="5.18918">
        <ele>596.1</ele>
        <time>2024-07-01T11:16:00Z</time>
      </trkpt>
      <trkpt lat="44.84192" lon="5.18918">
        <ele>596.1</ele>
        <time>2024-07-01T11:16:01Z</time>
      </trkpt>
      <trkpt lat="44.84192" lon="5.18919">
        <ele>596.1</ele>
        <time>2024-07-01T11:16:02Z</time>
      </trkpt>
      <trkpt lat="44.84192" lon="5.1892">
        <ele>596.1</ele>
        <time>2024-07-01T11:16:03Z</time>
      </trkpt>
      <trkpt lat="44.84192" lon="5.1892">
        <ele>596.1</ele>
        <time>2024-07-01T11:16:04Z</time>
      </trkpt>
      <trkpt lat="44.84192" lon="5.1892">
        <ele>596.1</ele>
        <time>2024-07-01T11:16:05Z</time>
      </trkpt>
      <trkpt lat="44.84192" lon="5.1892">
        <ele>596</ele>
        <time>2024-07-01T11:16:06Z</time>
      </trkpt>
      <trkpt lat="44.84192" lon="5.1892">
        <ele>596</ele>
        <time>2024-07-01T11:16:07Z</time>
      </trkpt>
      <trkpt lat="44.84191" lon="5.18919">
        <ele>596</ele>
        <time>2024-07-01T11:16:08Z</time>
      </trkpt>
      <trkpt lat="44.84191" lon="5.18919">
        <ele>596</ele>
        <time>2024-07-01T11:16:09Z</time>
      </trkpt>
      <trkpt lat="44.84191" lon="5.18917">
        <ele>596</ele>
        <time>2024-07-01T11:16:10Z</time>
      </trkpt>
      <trkpt lat="44.84191" lon="5.18915">
        <ele>595.9</ele>
        <time>2024-07-01T11:16:11Z</time>
      </trkpt>
      <trkpt lat="44.84192" lon="5.18913">
        <ele>595.9</ele>
        <time>2024-07-01T11:16:12Z</time>
      </trkpt>
      <trkpt lat="44.84192" lon="5.18912">
        <ele>595.8</ele>
        <time>2024-07-01T11:16:13Z</time>
      </trkpt>
      <trkpt lat="44.84192" lon="5.1891">
        <ele>595.8</ele>
        <time>2024-07-01T11:16:14Z</time>
      </trkpt>
      <trkpt lat="44.84191" lon="5.18908">
        <ele>595.7</ele>
        <time>2024-07-01T11:16:15Z</time>
      </trkpt>
      <trkpt lat="44.8419" lon="5.18906">
        <ele>595.7</ele>
        <time>2024-07-01T11:16:16Z</time>
      </trkpt>
      <trkpt lat="44.84189" lon="5.18903">
        <ele>595.5</ele>
        <time>2024-07-01T11:16:17Z</time>
      </trkpt>
      <trkpt lat="44.84187" lon="5.18901">
        <ele>595.5</ele>
        <time>2024-07-01T11:16:18Z</time>
      </trkpt>
      <trkpt lat="44.84185" lon="5.18899">
        <ele>595.4</ele>
        <time>2024-07-01T11:16:19Z</time>
      </trkpt>
      <trkpt lat="44.84184" lon="5.18899">
        <ele>595.4</ele>
        <time>2024-07-01T11:16:20Z</time>
      </trkpt>
      <trkpt lat="44.84183" lon="5.18897">
        <ele>595.3</ele>
        <time>2024-07-01T11:16:21Z</time>
      </trkpt>
      <trkpt lat="44.84181" lon="5.18896">
        <ele>595.3</ele>
        <time>2024-07-01T11:16:23Z</time>
      </trkpt>
      <trkpt lat="44.84178" lon="5.18893">
        <ele>595.1</ele>
        <time>2024-07-01T11:16:24Z</time>
      </trkpt>
      <trkpt lat="44.84177" lon="5.18893">
        <ele>595.1</ele>
        <time>2024-07-01T11:16:25Z</time>
      </trkpt>
      <trkpt lat="44.84174" lon="5.18891">
        <ele>595</ele>
        <time>2024-07-01T11:16:26Z</time>
      </trkpt>
      <trkpt lat="44.84173" lon="5.18891">
        <ele>595</ele>
        <time>2024-07-01T11:16:27Z</time>
      </trkpt>
      <trkpt lat="44.8417" lon="5.18889">
        <ele>594.9</ele>
        <time>2024-07-01T11:16:28Z</time>
      </trkpt>
      <trkpt lat="44.84169" lon="5.18889">
        <ele>594.9</ele>
        <time>2024-07-01T11:16:29Z</time>
      </trkpt>
      <trkpt lat="44.84167" lon="5.18889">
        <ele>594.9</ele>
        <time>2024-07-01T11:16:30Z</time>
      </trkpt>
      <trkpt lat="44.84165" lon="5.18887">
        <ele>594.8</ele>
        <time>2024-07-01T11:16:31Z</time>
      </trkpt>
      <trkpt lat="44.84163" lon="5.18887">
        <ele>594.7</ele>
        <time>2024-07-01T11:16:32Z</time>
      </trkpt>
      <trkpt lat="44.84161" lon="5.18886">
        <ele>594.7</ele>
        <time>2024-07-01T11:16:34Z</time>
      </trkpt>
      <trkpt lat="44.84159" lon="5.18885">
        <ele>594.6</ele>
        <time>2024-07-01T11:16:35Z</time>
      </trkpt>
      <trkpt lat="44.84157" lon="5.18885">
        <ele>594.6</ele>
        <time>2024-07-01T11:16:37Z</time>
      </trkpt>
      <trkpt lat="44.84156" lon="5.18884">
        <ele>594.6</ele>
        <time>2024-07-01T11:16:38Z</time>
      </trkpt>
      <trkpt lat="44.84154" lon="5.18884">
        <ele>594.5</ele>
        <time>2024-07-01T11:16:39Z</time>
      </trkpt>
      <trkpt lat="44.84153" lon="5.18883">
        <ele>594.5</ele>
        <time>2024-07-01T11:16:40Z</time>
      </trkpt>
      <trkpt lat="44.84151" lon="5.18883">
        <ele>594.5</ele>
        <time>2024-07-01T11:16:41Z</time>
      </trkpt>
      <trkpt lat="44.8415" lon="5.18883">
        <ele>594.5</ele>
        <time>2024-07-01T11:16:42Z</time>
      </trkpt>
      <trkpt lat="44.84147" lon="5.18884">
        <ele>594.4</ele>
        <time>2024-07-01T11:16:43Z</time>
      </trkpt>
      <trkpt lat="44.84145" lon="5.18884">
        <ele>594.4</ele>
        <time>2024-07-01T11:16:45Z</time>
      </trkpt>
      <trkpt lat="44.84145" lon="5.18885">
        <ele>594.4</ele>
        <time>2024-07-01T11:16:46Z</time>
      </trkpt>
      <trkpt lat="44.84142" lon="5.18886">
        <ele>594.3</ele>
        <time>2024-07-01T11:16:47Z</time>
      </trkpt>
      <trkpt lat="44.84141" lon="5.18886">
        <ele>594.3</ele>
        <time>2024-07-01T11:16:48Z</time>
      </trkpt>
      <trkpt lat="44.84139" lon="5.18887">
        <ele>594.3</ele>
        <time>2024-07-01T11:16:49Z</time>
      </trkpt>
      <trkpt lat="44.84138" lon="5.18888">
        <ele>594.3</ele>
        <time>2024-07-01T11:16:51Z</time>
      </trkpt>
      <trkpt lat="44.84137" lon="5.18888">
        <ele>594.3</ele>
        <time>2024-07-01T11:16:52Z</time>
      </trkpt>
      <trkpt lat="44.84135" lon="5.1889">
        <ele>594.2</ele>
        <time>2024-07-01T11:16:53Z</time>
      </trkpt>
      <trkpt lat="44.84134" lon="5.1889">
        <ele>594.2</ele>
        <time>2024-07-01T11:16:54Z</time>
      </trkpt>
      <trkpt lat="44.84131" lon="5.18891">
        <ele>594.2</ele>
        <time>2024-07-01T11:16:55Z</time>
      </trkpt>
      <trkpt lat="44.8413" lon="5.18892">
        <ele>594.2</ele>
        <time>2024-07-01T11:16:57Z</time>
      </trkpt>
      <trkpt lat="44.84129" lon="5.18892">
        <ele>594.1</ele>
        <time>2024-07-01T11:16:58Z</time>
      </trkpt>
      <trkpt lat="44.84127" lon="5.18893">
        <ele>594.1</ele>
        <time>2024-07-01T11:16:59Z</time>
      </trkpt>
      <trkpt lat="44.84125" lon="5.18894">
        <ele>594.1</ele>
        <time>2024-07-01T11:17:01Z</time>
      </trkpt>
      <trkpt lat="44.84125" lon="5.18895">
        <ele>594.1</ele>
        <time>2024-07-01T11:17:02Z</time>
      </trkpt>
      <trkpt lat="44.84124" lon="5.18895">
        <ele>594.1</ele>
        <time>2024-07-01T11:17:03Z</time>
      </trkpt>
      <trkpt lat="44.84122" lon="5.18896">
        <ele>594.1</ele>
        <time>2024-07-01T11:17:04Z</time>
      </trkpt>
      <trkpt lat="44.84121" lon="5.18897">
        <ele>594</ele>
        <time>2024-07-01T11:17:05Z</time>
      </trkpt>
      <trkpt lat="44.8412" lon="5.18897">
        <ele>594</ele>
        <time>2024-07-01T11:17:06Z</time>
      </trkpt>
      <trkpt lat="44.84119" lon="5.189">
        <ele>593.9</ele>
        <time>2024-07-01T11:17:07Z</time>
      </trkpt>
      <trkpt lat="44.8412" lon="5.18901">
        <ele>593.8</ele>
        <time>2024-07-01T11:17:09Z</time>
      </trkpt>
      <trkpt lat="44.8412" lon="5.18903">
        <ele>593.8</ele>
        <time>2024-07-01T11:17:10Z</time>
      </trkpt>
      <trkpt lat="44.84119" lon="5.18903">
        <ele>593.8</ele>
        <time>2024-07-01T11:17:11Z</time>
      </trkpt>
      <trkpt lat="44.84117" lon="5.18903">
        <ele>593.7</ele>
        <time>2024-07-01T11:17:12Z</time>
      </trkpt>
      <trkpt lat="44.84116" lon="5.18904">
        <ele>593.7</ele>
        <time>2024-07-01T11:17:13Z</time>
      </trkpt>
      <trkpt lat="44.84115" lon="5.18904">
        <ele>593.6</ele>
        <time>2024-07-01T11:17:14Z</time>
      </trkpt>
      <trkpt lat="44.84113" lon="5.18904">
        <ele>593.6</ele>
        <time>2024-07-01T11:17:15Z</time>
      </trkpt>
      <trkpt lat="44.84112" lon="5.18904">
        <ele>593.5</ele>
        <time>2024-07-01T11:17:16Z</time>
      </trkpt>
      <trkpt lat="44.8411" lon="5.18904">
        <ele>593.5</ele>
        <time>2024-07-01T11:17:17Z</time>
      </trkpt>
      <trkpt lat="44.84109" lon="5.18905">
        <ele>593.4</ele>
        <time>2024-07-01T11:17:18Z</time>
      </trkpt>
      <trkpt lat="44.84106" lon="5.18905">
        <ele>593.3</ele>
        <time>2024-07-01T11:17:19Z</time>
      </trkpt>
      <trkpt lat="44.84105" lon="5.18904">
        <ele>593.3</ele>
        <time>2024-07-01T11:17:21Z</time>
      </trkpt>
      <trkpt lat="44.84102" lon="5.18904">
        <ele>593.2</ele>
        <time>2024-07-01T11:17:22Z</time>
      </trkpt>
      <trkpt lat="44.84101" lon="5.18905">
        <ele>593.2</ele>
        <time>2024-07-01T11:17:24Z</time>
      </trkpt>
      <trkpt lat="44.84099" lon="5.18905">
        <ele>593.1</ele>
        <time>2024-07-01T11:17:25Z</time>
      </trkpt>
      <trkpt lat="44.84098" lon="5.18905">
        <ele>593.1</ele>
        <time>2024-07-01T11:17:26Z</time>
      </trkpt>
      <trkpt lat="44.84098" lon="5.18904">
        <ele>593</ele>
        <time>2024-07-01T11:17:27Z</time>
      </trkpt>
      <trkpt lat="44.84099" lon="5.18903">
        <ele>593</ele>
        <time>2024-07-01T11:17:28Z</time>
      </trkpt>
      <trkpt lat="44.841" lon="5.18902">
        <ele>593</ele>
        <time>2024-07-01T11:17:29Z</time>
      </trkpt>
      <trkpt lat="44.84101" lon="5.18901">
        <ele>592.9</ele>
        <time>2024-07-01T11:17:30Z</time>
      </trkpt>
      <trkpt lat="44.84102" lon="5.18901">
        <ele>592.9</ele>
        <time>2024-07-01T11:17:31Z</time>
      </trkpt>
      <trkpt lat="44.84102" lon="5.189">
        <ele>592.9</ele>
        <time>2024-07-01T11:17:32Z</time>
      </trkpt>
      <trkpt lat="44.84102" lon="5.18899">
        <ele>592.9</ele>
        <time>2024-07-01T11:17:33Z</time>
      </trkpt>
      <trkpt lat="44.84102" lon="5.18899">
        <ele>592.8</ele>
        <time>2024-07-01T11:17:35Z</time>
      </trkpt>
      <trkpt lat="44.84102" lon="5.18899">
        <ele>592.8</ele>
        <time>2024-07-01T11:17:36Z</time>
      </trkpt>
      <trkpt lat="44.84101" lon="5.18897">
        <ele>592.8</ele>
        <time>2024-07-01T11:17:37Z</time>
      </trkpt>
      <trkpt lat="44.841" lon="5.18897">
        <ele>592.8</ele>
        <time>2024-07-01T11:17:38Z</time>
      </trkpt>
      <trkpt lat="44.84099" lon="5.18899">
        <ele>592.7</ele>
        <time>2024-07-01T11:17:39Z</time>
      </trkpt>
      <trkpt lat="44.84098" lon="5.189">
        <ele>592.6</ele>
        <time>2024-07-01T11:17:40Z</time>
      </trkpt>
      <trkpt lat="44.84098" lon="5.18901">
        <ele>592.6</ele>
        <time>2024-07-01T11:17:41Z</time>
      </trkpt>
      <trkpt lat="44.84096" lon="5.18902">
        <ele>592.6</ele>
        <time>2024-07-01T11:17:42Z</time>
      </trkpt>
      <trkpt lat="44.84095" lon="5.18903">
        <ele>592.5</ele>
        <time>2024-07-01T11:17:43Z</time>
      </trkpt>
      <trkpt lat="44.84093" lon="5.18904">
        <ele>592.4</ele>
        <time>2024-07-01T11:17:44Z</time>
      </trkpt>
      <trkpt lat="44.84092" lon="5.18905">
        <ele>592.4</ele>
        <time>2024-07-01T11:17:45Z</time>
      </trkpt>
      <trkpt lat="44.84091" lon="5.18905">
        <ele>592.3</ele>
        <time>2024-07-01T11:17:46Z</time>
      </trkpt>
      <trkpt lat="44.8409" lon="5.18907">
        <ele>592.3</ele>
        <time>2024-07-01T11:17:47Z</time>
      </trkpt>
      <trkpt lat="44.84087" lon="5.18909">
        <ele>592.2</ele>
        <time>2024-07-01T11:17:48Z</time>
      </trkpt>
      <trkpt lat="44.84086" lon="5.18909">
        <ele>592.1</ele>
        <time>2024-07-01T11:17:49Z</time>
      </trkpt>
      <trkpt lat="44.84085" lon="5.18911">
        <ele>592.1</ele>
        <time>2024-07-01T11:17:50Z</time>
      </trkpt>
      <trkpt lat="44.84084" lon="5.18913">
        <ele>592</ele>
        <time>2024-07-01T11:17:52Z</time>
      </trkpt>
      <trkpt lat="44.84084" lon="5.18914">
        <ele>591.9</ele>
        <time>2024-07-01T11:17:53Z</time>
      </trkpt>
      <trkpt lat="44.84083" lon="5.18916">
        <ele>591.9</ele>
        <time>2024-07-01T11:17:54Z</time>
      </trkpt>
      <trkpt lat="44.84083" lon="5.18918">
        <ele>591.8</ele>
        <time>2024-07-01T11:17:55Z</time>
      </trkpt>
      <trkpt lat="44.84082" lon="5.18919">
        <ele>591.8</ele>
        <time>2024-07-01T11:17:56Z</time>
      </trkpt>
      <trkpt lat="44.84081" lon="5.18922">
        <ele>591.7</ele>
        <time>2024-07-01T11:17:57Z</time>
      </trkpt>
      <trkpt lat="44.8408" lon="5.18923">
        <ele>591.6</ele>
        <time>2024-07-01T11:17:59Z</time>
      </trkpt>
      <trkpt lat="44.84079" lon="5.18924">
        <ele>591.6</ele>
        <time>2024-07-01T11:18:00Z</time>
      </trkpt>
      <trkpt lat="44.84078" lon="5.18927">
        <ele>591.5</ele>
        <time>2024-07-01T11:18:01Z</time>
      </trkpt>
      <trkpt lat="44.84077" lon="5.18928">
        <ele>591.5</ele>
        <time>2024-07-01T11:18:03Z</time>
      </trkpt>
      <trkpt lat="44.84076" lon="5.18929">
        <ele>591.4</ele>
        <time>2024-07-01T11:18:04Z</time>
      </trkpt>
      <trkpt lat="44.84077" lon="5.18931">
        <ele>591.4</ele>
        <time>2024-07-01T11:18:05Z</time>
      </trkpt>
      <trkpt lat="44.84077" lon="5.18933">
        <ele>591.3</ele>
        <time>2024-07-01T11:18:06Z</time>
      </trkpt>
      <trkpt lat="44.84076" lon="5.18934">
        <ele>591.3</ele>
        <time>2024-07-01T11:18:07Z</time>
      </trkpt>
      <trkpt lat="44.84076" lon="5.18936">
        <ele>591.3</ele>
        <time>2024-07-01T11:18:08Z</time>
      </trkpt>
      <trkpt lat="44.84075" lon="5.18937">
        <ele>591.2</ele>
        <time>2024-07-01T11:18:09Z</time>
      </trkpt>
      <trkpt lat="44.84073" lon="5.18938">
        <ele>591.1</ele>
        <time>2024-07-01T11:18:10Z</time>
      </trkpt>
      <trkpt lat="44.84071" lon="5.18939">
        <ele>591.1</ele>
        <time>2024-07-01T11:18:12Z</time>
      </trkpt>
      <trkpt lat="44.84069" lon="5.18939">
        <ele>591</ele>
        <time>2024-07-01T11:18:13Z</time>
      </trkpt>
      <trkpt lat="44.84068" lon="5.18939">
        <ele>591</ele>
        <time>2024-07-01T11:18:14Z</time>
      </trkpt>
      <trkpt lat="44.84065" lon="5.1894">
        <ele>590.9</ele>
        <time>2024-07-01T11:18:15Z</time>
      </trkpt>
      <trkpt lat="44.84062" lon="5.1894">
        <ele>590.8</ele>
        <time>2024-07-01T11:18:17Z</time>
      </trkpt>
      <trkpt lat="44.84061" lon="5.1894">
        <ele>590.8</ele>
        <time>2024-07-01T11:18:18Z</time>
      </trkpt>
      <trkpt lat="44.84059" lon="5.1894">
        <ele>590.7</ele>
        <time>2024-07-01T11:18:19Z</time>
      </trkpt>
      <trkpt lat="44.84056" lon="5.1894">
        <ele>590.7</ele>
        <time>2024-07-01T11:18:20Z</time>
      </trkpt>
      <trkpt lat="44.84054" lon="5.1894">
        <ele>590.6</ele>
        <time>2024-07-01T11:18:21Z</time>
      </trkpt>
      <trkpt lat="44.84051" lon="5.1894">
        <ele>590.5</ele>
        <time>2024-07-01T11:18:23Z</time>
      </trkpt>
      <trkpt lat="44.8405" lon="5.1894">
        <ele>590.5</ele>
        <time>2024-07-01T11:18:24Z</time>
      </trkpt>
      <trkpt lat="44.84047" lon="5.18942">
        <ele>590.4</ele>
        <time>2024-07-01T11:18:25Z</time>
      </trkpt>
      <trkpt lat="44.84045" lon="5.18943">
        <ele>590.4</ele>
        <time>2024-07-01T11:18:27Z</time>
      </trkpt>
      <trkpt lat="44.84043" lon="5.18943">
        <ele>590.3</ele>
        <time>2024-07-01T11:18:28Z</time>
      </trkpt>
      <trkpt lat="44.84042" lon="5.18943">
        <ele>590.3</ele>
        <time>2024-07-01T11:18:29Z</time>
      </trkpt>
      <trkpt lat="44.8404" lon="5.18942">
        <ele>590.3</ele>
        <time>2024-07-01T11:18:30Z</time>
      </trkpt>
      <trkpt lat="44.84037" lon="5.18942">
        <ele>590.2</ele>
        <time>2024-07-01T11:18:31Z</time>
      </trkpt>
      <trkpt lat="44.84036" lon="5.18943">
        <ele>590.2</ele>
        <time>2024-07-01T11:18:32Z</time>
      </trkpt>
      <trkpt lat="44.84034" lon="5.18943">
        <ele>590.2</ele>
        <time>2024-07-01T11:18:34Z</time>
      </trkpt>
      <trkpt lat="44.84033" lon="5.18943">
        <ele>590.1</ele>
        <time>2024-07-01T11:18:35Z</time>
      </trkpt>
      <trkpt lat="44.84031" lon="5.18943">
        <ele>590.1</ele>
        <time>2024-07-01T11:18:36Z</time>
      </trkpt>
      <trkpt lat="44.84028" lon="5.18944">
        <ele>590.1</ele>
        <time>2024-07-01T11:18:37Z</time>
      </trkpt>
      <trkpt lat="44.84027" lon="5.18944">
        <ele>590</ele>
        <time>2024-07-01T11:18:39Z</time>
      </trkpt>
      <trkpt lat="44.84025" lon="5.18944">
        <ele>590</ele>
        <time>2024-07-01T11:18:40Z</time>
      </trkpt>
      <trkpt lat="44.84024" lon="5.18944">
        <ele>590</ele>
        <time>2024-07-01T11:18:41Z</time>
      </trkpt>
      <trkpt lat="44.84022" lon="5.18944">
        <ele>589.9</ele>
        <time>2024-07-01T11:18:42Z</time>
      </trkpt>
      <trkpt lat="44.84021" lon="5.18944">
        <ele>589.9</ele>
        <time>2024-07-01T11:18:43Z</time>
      </trkpt>
      <trkpt lat="44.84019" lon="5.18943">
        <ele>589.9</ele>
        <time>2024-07-01T11:18:44Z</time>
      </trkpt>
      <trkpt lat="44.84016" lon="5.18942">
        <ele>589.8</ele>
        <time>2024-07-01T11:18:45Z</time>
      </trkpt>
      <trkpt lat="44.84016" lon="5.18942">
        <ele>589.8</ele>
        <time>2024-07-01T11:18:46Z</time>
      </trkpt>
      <trkpt lat="44.84013" lon="5.18941">
        <ele>589.8</ele>
        <time>2024-07-01T11:18:47Z</time>
      </trkpt>
      <trkpt lat="44.84013" lon="5.18941">
        <ele>589.8</ele>
        <time>2024-07-01T11:18:49Z</time>
      </trkpt>
      <trkpt lat="44.84012" lon="5.18941">
        <ele>589.7</ele>
        <time>2024-07-01T11:18:50Z</time>
      </trkpt>
      <trkpt lat="44.84009" lon="5.1894">
        <ele>589.7</ele>
        <time>2024-07-01T11:18:51Z</time>
      </trkpt>
      <trkpt lat="44.84008" lon="5.18941">
        <ele>589.6</ele>
        <time>2024-07-01T11:18:53Z</time>
      </trkpt>
      <trkpt lat="44.84006" lon="5.1894">
        <ele>589.6</ele>
        <time>2024-07-01T11:18:54Z</time>
      </trkpt>
      <trkpt lat="44.84005" lon="5.1894">
        <ele>589.6</ele>
        <time>2024-07-01T11:18:55Z</time>
      </trkpt>
      <trkpt lat="44.84004" lon="5.1894">
        <ele>589.6</ele>
        <time>2024-07-01T11:18:56Z</time>
      </trkpt>
      <trkpt lat="44.84001" lon="5.1894">
        <ele>589.5</ele>
        <time>2024-07-01T11:18:57Z</time>
      </trkpt>
      <trkpt lat="44.84" lon="5.1894">
        <ele>589.5</ele>
        <time>2024-07-01T11:18:58Z</time>
      </trkpt>
      <trkpt lat="44.83999" lon="5.18939">
        <ele>589.4</ele>
        <time>2024-07-01T11:18:59Z</time>
      </trkpt>
      <trkpt lat="44.83997" lon="5.18939">
        <ele>589.4</ele>
        <time>2024-07-01T11:19:01Z</time>
      </trkpt>
      <trkpt lat="44.83996" lon="5.18939">
        <ele>589.4</ele>
        <time>2024-07-01T11:19:02Z</time>
      </trkpt>
      <trkpt lat="44.83994" lon="5.18938">
        <ele>589.3</ele>
        <time>2024-07-01T11:19:03Z</time>
      </trkpt>
      <trkpt lat="44.83993" lon="5.18938">
        <ele>589.3</ele>
        <time>2024-07-01T11:19:05Z</time>
      </trkpt>
      <trkpt lat="44.83992" lon="5.18937">
        <ele>589.3</ele>
        <time>2024-07-01T11:19:06Z</time>
      </trkpt>
      <trkpt lat="44.8399" lon="5.18936">
        <ele>589.2</ele>
        <time>2024-07-01T11:19:07Z</time>
      </trkpt>
      <trkpt lat="44.83989" lon="5.18936">
        <ele>589.2</ele>
        <time>2024-07-01T11:19:09Z</time>
      </trkpt>
      <trkpt lat="44.83987" lon="5.18934">
        <ele>589.2</ele>
        <time>2024-07-01T11:19:10Z</time>
      </trkpt>
      <trkpt lat="44.83987" lon="5.18933">
        <ele>589.1</ele>
        <time>2024-07-01T11:19:12Z</time>
      </trkpt>
      <trkpt lat="44.83986" lon="5.18932">
        <ele>589.1</ele>
        <time>2024-07-01T11:19:13Z</time>
      </trkpt>
      <trkpt lat="44.83986" lon="5.1893">
        <ele>589.1</ele>
        <time>2024-07-01T11:19:14Z</time>
      </trkpt>
      <trkpt lat="44.83985" lon="5.18929">
        <ele>589</ele>
        <time>2024-07-01T11:19:15Z</time>
      </trkpt>
      <trkpt lat="44.83985" lon="5.18928">
        <ele>589</ele>
        <time>2024-07-01T11:19:16Z</time>
      </trkpt>
      <trkpt lat="44.83984" lon="5.18926">
        <ele>589</ele>
        <time>2024-07-01T11:19:17Z</time>
      </trkpt>
      <trkpt lat="44.83984" lon="5.18925">
        <ele>588.9</ele>
        <time>2024-07-01T11:19:18Z</time>
      </trkpt>
      <trkpt lat="44.83984" lon="5.18923">
        <ele>588.9</ele>
        <time>2024-07-01T11:19:19Z</time>
      </trkpt>
      <trkpt lat="44.83984" lon="5.18922">
        <ele>588.9</ele>
        <time>2024-07-01T11:19:20Z</time>
      </trkpt>
      <trkpt lat="44.83984" lon="5.18921">
        <ele>588.8</ele>
        <time>2024-07-01T11:19:21Z</time>
      </trkpt>
      <trkpt lat="44.83983" lon="5.1892">
        <ele>588.8</ele>
        <time>2024-07-01T11:19:22Z</time>
      </trkpt>
      <trkpt lat="44.83982" lon="5.18919">
        <ele>588.8</ele>
        <time>2024-07-01T11:19:23Z</time>
      </trkpt>
      <trkpt lat="44.83981" lon="5.18917">
        <ele>588.7</ele>
        <time>2024-07-01T11:19:24Z</time>
      </trkpt>
      <trkpt lat="44.8398" lon="5.18916">
        <ele>588.6</ele>
        <time>2024-07-01T11:19:25Z</time>
      </trkpt>
      <trkpt lat="44.83979" lon="5.18915">
        <ele>588.6</ele>
        <time>2024-07-01T11:19:27Z</time>
      </trkpt>
      <trkpt lat="44.83979" lon="5.18914">
        <ele>588.5</ele>
        <time>2024-07-01T11:19:28Z</time>
      </trkpt>
      <trkpt lat="44.83978" lon="5.18913">
        <ele>588.5</ele>
        <time>2024-07-01T11:19:29Z</time>
      </trkpt>
      <trkpt lat="44.83977" lon="5.18912">
        <ele>588.4</ele>
        <time>2024-07-01T11:19:30Z</time>
      </trkpt>
      <trkpt lat="44.83977" lon="5.18911">
        <ele>588.4</ele>
        <time>2024-07-01T11:19:31Z</time>
      </trkpt>
      <trkpt lat="44.83976" lon="5.1891">
        <ele>588.3</ele>
        <time>2024-07-01T11:19:32Z</time>
      </trkpt>
      <trkpt lat="44.83975" lon="5.18909">
        <ele>588.3</ele>
        <time>2024-07-01T11:19:33Z</time>
      </trkpt>
      <trkpt lat="44.83974" lon="5.18908">
        <ele>588.2</ele>
        <time>2024-07-01T11:19:34Z</time>
      </trkpt>
      <trkpt lat="44.83974" lon="5.18907">
        <ele>588.1</ele>
        <time>2024-07-01T11:19:35Z</time>
      </trkpt>
      <trkpt lat="44.83973" lon="5.18906">
        <ele>588.1</ele>
        <time>2024-07-01T11:19:36Z</time>
      </trkpt>
      <trkpt lat="44.83972" lon="5.18905">
        <ele>588</ele>
        <time>2024-07-01T11:19:37Z</time>
      </trkpt>
      <trkpt lat="44.83971" lon="5.18904">
        <ele>587.8</ele>
        <time>2024-07-01T11:19:38Z</time>
      </trkpt>
      <trkpt lat="44.8397" lon="5.18903">
        <ele>587.7</ele>
        <time>2024-07-01T11:19:39Z</time>
      </trkpt>
      <trkpt lat="44.83969" lon="5.18902">
        <ele>587.7</ele>
        <time>2024-07-01T11:19:41Z</time>
      </trkpt>
      <trkpt lat="44.83968" lon="5.18901">
        <ele>587.6</ele>
        <time>2024-07-01T11:19:42Z</time>
      </trkpt>
      <trkpt lat="44.83967" lon="5.18901">
        <ele>587.5</ele>
        <time>2024-07-01T11:19:43Z</time>
      </trkpt>
      <trkpt lat="44.83965" lon="5.18899">
        <ele>587.3</ele>
        <time>2024-07-01T11:19:44Z</time>
      </trkpt>
      <trkpt lat="44.83964" lon="5.18899">
        <ele>587.2</ele>
        <time>2024-07-01T11:19:45Z</time>
      </trkpt>
      <trkpt lat="44.83962" lon="5.18899">
        <ele>587</ele>
        <time>2024-07-01T11:19:47Z</time>
      </trkpt>
      <trkpt lat="44.83961" lon="5.18897">
        <ele>586.8</ele>
        <time>2024-07-01T11:19:48Z</time>
      </trkpt>
      <trkpt lat="44.83959" lon="5.18897">
        <ele>586.7</ele>
        <time>2024-07-01T11:19:50Z</time>
      </trkpt>
      <trkpt lat="44.83959" lon="5.18896">
        <ele>586.6</ele>
        <time>2024-07-01T11:19:51Z</time>
      </trkpt>
      <trkpt lat="44.83957" lon="5.18896">
        <ele>586.5</ele>
        <time>2024-07-01T11:19:52Z</time>
      </trkpt>
      <trkpt lat="44.83956" lon="5.18895">
        <ele>586.3</ele>
        <time>2024-07-01T11:19:53Z</time>
      </trkpt>
      <trkpt lat="44.83954" lon="5.18895">
        <ele>586</ele>
        <time>2024-07-01T11:19:54Z</time>
      </trkpt>
      <trkpt lat="44.83952" lon="5.18895">
        <ele>585.9</ele>
        <time>2024-07-01T11:19:55Z</time>
      </trkpt>
      <trkpt lat="44.8395" lon="5.18895">
        <ele>585.7</ele>
        <time>2024-07-01T11:19:56Z</time>
      </trkpt>
      <trkpt lat="44.83949" lon="5.18896">
        <ele>585.5</ele>
        <time>2024-07-01T11:19:58Z</time>
      </trkpt>
      <trkpt lat="44.83946" lon="5.18897">
        <ele>585.2</ele>
        <time>2024-07-01T11:19:59Z</time>
      </trkpt>
      <trkpt lat="44.83944" lon="5.18897">
        <ele>585</ele>
        <time>2024-07-01T11:20:01Z</time>
      </trkpt>
      <trkpt lat="44.83943" lon="5.18896">
        <ele>584.8</ele>
        <time>2024-07-01T11:20:02Z</time>
      </trkpt>
      <trkpt lat="44.83941" lon="5.18895">
        <ele>584.6</ele>
        <time>2024-07-01T11:20:03Z</time>
      </trkpt>
      <trkpt lat="44.8394" lon="5.18895">
        <ele>584.5</ele>
        <time>2024-07-01T11:20:04Z</time>
      </trkpt>
      <trkpt lat="44.83939" lon="5.18894">
        <ele>584.4</ele>
        <time>2024-07-01T11:20:05Z</time>
      </trkpt>
      <trkpt lat="44.83937" lon="5.18893">
        <ele>584.1</ele>
        <time>2024-07-01T11:20:06Z</time>
      </trkpt>
      <trkpt lat="44.83936" lon="5.18892">
        <ele>584</ele>
        <time>2024-07-01T11:20:08Z</time>
      </trkpt>
      <trkpt lat="44.83933" lon="5.18891">
        <ele>583.8</ele>
        <time>2024-07-01T11:20:09Z</time>
      </trkpt>
      <trkpt lat="44.83933" lon="5.1889">
        <ele>583.7</ele>
        <time>2024-07-01T11:20:10Z</time>
      </trkpt>
      <trkpt lat="44.83932" lon="5.1889">
        <ele>583.6</ele>
        <time>2024-07-01T11:20:11Z</time>
      </trkpt>
      <trkpt lat="44.83931" lon="5.18889">
        <ele>583.5</ele>
        <time>2024-07-01T11:20:12Z</time>
      </trkpt>
      <trkpt lat="44.8393" lon="5.18888">
        <ele>583.4</ele>
        <time>2024-07-01T11:20:14Z</time>
      </trkpt>
      <trkpt lat="44.83929" lon="5.18887">
        <ele>583.3</ele>
        <time>2024-07-01T11:20:15Z</time>
      </trkpt>
      <trkpt lat="44.83928" lon="5.18886">
        <ele>583.1</ele>
        <time>2024-07-01T11:20:16Z</time>
      </trkpt>
      <trkpt lat="44.83927" lon="5.18884">
        <ele>583</ele>
        <time>2024-07-01T11:20:17Z</time>
      </trkpt>
      <trkpt lat="44.83924" lon="5.18882">
        <ele>582.8</ele>
        <time>2024-07-01T11:20:18Z</time>
      </trkpt>
      <trkpt lat="44.83922" lon="5.18879">
        <ele>582.6</ele>
        <time>2024-07-01T11:20:20Z</time>
      </trkpt>
      <trkpt lat="44.83921" lon="5.18878">
        <ele>582.4</ele>
        <time>2024-07-01T11:20:22Z</time>
      </trkpt>
      <trkpt lat="44.83919" lon="5.18878">
        <ele>582.3</ele>
        <time>2024-07-01T11:20:23Z</time>
      </trkpt>
      <trkpt lat="44.83917" lon="5.18877">
        <ele>582.2</ele>
        <time>2024-07-01T11:20:24Z</time>
      </trkpt>
      <trkpt lat="44.83916" lon="5.18877">
        <ele>582.1</ele>
        <time>2024-07-01T11:20:25Z</time>
      </trkpt>
      <trkpt lat="44.83914" lon="5.18877">
        <ele>582</ele>
        <time>2024-07-01T11:20:26Z</time>
      </trkpt>
      <trkpt lat="44.83913" lon="5.18877">
        <ele>581.8</ele>
        <time>2024-07-01T11:20:27Z</time>
      </trkpt>
      <trkpt lat="44.83911" lon="5.18877">
        <ele>581.7</ele>
        <time>2024-07-01T11:20:28Z</time>
      </trkpt>
      <trkpt lat="44.8391" lon="5.18877">
        <ele>581.6</ele>
        <time>2024-07-01T11:20:29Z</time>
      </trkpt>
      <trkpt lat="44.83909" lon="5.18877">
        <ele>581.6</ele>
        <time>2024-07-01T11:20:30Z</time>
      </trkpt>
      <trkpt lat="44.83908" lon="5.18877">
        <ele>581.5</ele>
        <time>2024-07-01T11:20:31Z</time>
      </trkpt>
      <trkpt lat="44.83906" lon="5.18877">
        <ele>581.4</ele>
        <time>2024-07-01T11:20:32Z</time>
      </trkpt>
      <trkpt lat="44.83905" lon="5.18877">
        <ele>581.3</ele>
        <time>2024-07-01T11:20:33Z</time>
      </trkpt>
      <trkpt lat="44.83904" lon="5.18877">
        <ele>581.2</ele>
        <time>2024-07-01T11:20:34Z</time>
      </trkpt>
      <trkpt lat="44.83903" lon="5.18878">
        <ele>581.2</ele>
        <time>2024-07-01T11:20:35Z</time>
      </trkpt>
      <trkpt lat="44.83903" lon="5.18878">
        <ele>581.1</ele>
        <time>2024-07-01T11:20:36Z</time>
      </trkpt>
      <trkpt lat="44.83901" lon="5.18879">
        <ele>581</ele>
        <time>2024-07-01T11:20:37Z</time>
      </trkpt>
      <trkpt lat="44.839" lon="5.1888">
        <ele>580.9</ele>
        <time>2024-07-01T11:20:39Z</time>
      </trkpt>
      <trkpt lat="44.83898" lon="5.18879">
        <ele>580.8</ele>
        <time>2024-07-01T11:20:40Z</time>
      </trkpt>
      <trkpt lat="44.83897" lon="5.18879">
        <ele>580.7</ele>
        <time>2024-07-01T11:20:41Z</time>
      </trkpt>
      <trkpt lat="44.83896" lon="5.18879">
        <ele>580.6</ele>
        <time>2024-07-01T11:20:42Z</time>
      </trkpt>
      <trkpt lat="44.83893" lon="5.18878">
        <ele>580.4</ele>
        <time>2024-07-01T11:20:43Z</time>
      </trkpt>
      <trkpt lat="44.83892" lon="5.18878">
        <ele>580.3</ele>
        <time>2024-07-01T11:20:44Z</time>
      </trkpt>
      <trkpt lat="44.83891" lon="5.18877">
        <ele>580.2</ele>
        <time>2024-07-01T11:20:46Z</time>
      </trkpt>
      <trkpt lat="44.83889" lon="5.18877">
        <ele>580.1</ele>
        <time>2024-07-01T11:20:47Z</time>
      </trkpt>
      <trkpt lat="44.83887" lon="5.18876">
        <ele>580</ele>
        <time>2024-07-01T11:20:48Z</time>
      </trkpt>
      <trkpt lat="44.83886" lon="5.18876">
        <ele>579.9</ele>
        <time>2024-07-01T11:20:49Z</time>
      </trkpt>
      <trkpt lat="44.83886" lon="5.18876">
        <ele>579.9</ele>
        <time>2024-07-01T11:20:50Z</time>
      </trkpt>
      <trkpt lat="44.83885" lon="5.18876">
        <ele>579.8</ele>
        <time>2024-07-01T11:20:51Z</time>
      </trkpt>
      <trkpt lat="44.83883" lon="5.18875">
        <ele>579.7</ele>
        <time>2024-07-01T11:20:52Z</time>
      </trkpt>
      <trkpt lat="44.83882" lon="5.18875">
        <ele>579.6</ele>
        <time>2024-07-01T11:20:53Z</time>
      </trkpt>
      <trkpt lat="44.8388" lon="5.18875">
        <ele>579.4</ele>
        <time>2024-07-01T11:20:54Z</time>
      </trkpt>
      <trkpt lat="44.83879" lon="5.18875">
        <ele>579.4</ele>
        <time>2024-07-01T11:20:55Z</time>
      </trkpt>
      <trkpt lat="44.83879" lon="5.18875">
        <ele>579.3</ele>
        <time>2024-07-01T11:20:56Z</time>
      </trkpt>
      <trkpt lat="44.83875" lon="5.18874">
        <ele>579.1</ele>
        <time>2024-07-01T11:20:57Z</time>
      </trkpt>
      <trkpt lat="44.83875" lon="5.18874">
        <ele>579</ele>
        <time>2024-07-01T11:20:58Z</time>
      </trkpt>
      <trkpt lat="44.83873" lon="5.18875">
        <ele>578.9</ele>
        <time>2024-07-01T11:21:00Z</time>
      </trkpt>
      <trkpt lat="44.83872" lon="5.18875">
        <ele>578.8</ele>
        <time>2024-07-01T11:21:01Z</time>
      </trkpt>
      <trkpt lat="44.83871" lon="5.18875">
        <ele>578.7</ele>
        <time>2024-07-01T11:21:02Z</time>
      </trkpt>
      <trkpt lat="44.8387" lon="5.18874">
        <ele>578.7</ele>
        <time>2024-07-01T11:21:03Z</time>
      </trkpt>
      <trkpt lat="44.83869" lon="5.18874">
        <ele>578.6</ele>
        <time>2024-07-01T11:21:04Z</time>
      </trkpt>
      <trkpt lat="44.83868" lon="5.18873">
        <ele>578.5</ele>
        <time>2024-07-01T11:21:05Z</time>
      </trkpt>
      <trkpt lat="44.83866" lon="5.18872">
        <ele>578.3</ele>
        <time>2024-07-01T11:21:06Z</time>
      </trkpt>
      <trkpt lat="44.83865" lon="5.18871">
        <ele>578.2</ele>
        <time>2024-07-01T11:21:07Z</time>
      </trkpt>
      <trkpt lat="44.83864" lon="5.18871">
        <ele>578.1</ele>
        <time>2024-07-01T11:21:09Z</time>
      </trkpt>
      <trkpt lat="44.83863" lon="5.18871">
        <ele>578.1</ele>
        <time>2024-07-01T11:21:10Z</time>
      </trkpt>
      <trkpt lat="44.8386" lon="5.1887">
        <ele>577.9</ele>
        <time>2024-07-01T11:21:11Z</time>
      </trkpt>
      <trkpt lat="44.83858" lon="5.18871">
        <ele>577.7</ele>
        <time>2024-07-01T11:21:12Z</time>
      </trkpt>
      <trkpt lat="44.83857" lon="5.18871">
        <ele>577.6</ele>
        <time>2024-07-01T11:21:14Z</time>
      </trkpt>
      <trkpt lat="44.83856" lon="5.18872">
        <ele>577.5</ele>
        <time>2024-07-01T11:21:15Z</time>
      </trkpt>
      <trkpt lat="44.83855" lon="5.18872">
        <ele>577.5</ele>
        <time>2024-07-01T11:21:16Z</time>
      </trkpt>
      <trkpt lat="44.83854" lon="5.18872">
        <ele>577.4</ele>
        <time>2024-07-01T11:21:17Z</time>
      </trkpt>
      <trkpt lat="44.83853" lon="5.18872">
        <ele>577.3</ele>
        <time>2024-07-01T11:21:18Z</time>
      </trkpt>
      <trkpt lat="44.83852" lon="5.18871">
        <ele>577.2</ele>
        <time>2024-07-01T11:21:19Z</time>
      </trkpt>
      <trkpt lat="44.83852" lon="5.1887">
        <ele>577.1</ele>
        <time>2024-07-01T11:21:20Z</time>
      </trkpt>
      <trkpt lat="44.83851" lon="5.18869">
        <ele>577</ele>
        <time>2024-07-01T11:21:21Z</time>
      </trkpt>
      <trkpt lat="44.83849" lon="5.18867">
        <ele>576.9</ele>
        <time>2024-07-01T11:21:22Z</time>
      </trkpt>
      <trkpt lat="44.83848" lon="5.18866">
        <ele>576.8</ele>
        <time>2024-07-01T11:21:24Z</time>
      </trkpt>
      <trkpt lat="44.83848" lon="5.18865">
        <ele>576.7</ele>
        <time>2024-07-01T11:21:25Z</time>
      </trkpt>
      <trkpt lat="44.83847" lon="5.18864">
        <ele>576.6</ele>
        <time>2024-07-01T11:21:26Z</time>
      </trkpt>
      <trkpt lat="44.83846" lon="5.18861">
        <ele>576.5</ele>
        <time>2024-07-01T11:21:27Z</time>
      </trkpt>
      <trkpt lat="44.83845" lon="5.1886">
        <ele>576.4</ele>
        <time>2024-07-01T11:21:28Z</time>
      </trkpt>
      <trkpt lat="44.83845" lon="5.18857">
        <ele>576.2</ele>
        <time>2024-07-01T11:21:30Z</time>
      </trkpt>
      <trkpt lat="44.83844" lon="5.18856">
        <ele>576.2</ele>
        <time>2024-07-01T11:21:31Z</time>
      </trkpt>
      <trkpt lat="44.83844" lon="5.18855">
        <ele>576.1</ele>
        <time>2024-07-01T11:21:32Z</time>
      </trkpt>
      <trkpt lat="44.83844" lon="5.18853">
        <ele>576</ele>
        <time>2024-07-01T11:21:33Z</time>
      </trkpt>
      <trkpt lat="44.83844" lon="5.18851">
        <ele>575.9</ele>
        <time>2024-07-01T11:21:34Z</time>
      </trkpt>
      <trkpt lat="44.83844" lon="5.18849">
        <ele>575.8</ele>
        <time>2024-07-01T11:21:35Z</time>
      </trkpt>
      <trkpt lat="44.83844" lon="5.18847">
        <ele>575.7</ele>
        <time>2024-07-01T11:21:36Z</time>
      </trkpt>
      <trkpt lat="44.83843" lon="5.18844">
        <ele>575.5</ele>
        <time>2024-07-01T11:21:37Z</time>
      </trkpt>
      <trkpt lat="44.83843" lon="5.18842">
        <ele>575.4</ele>
        <time>2024-07-01T11:21:39Z</time>
      </trkpt>
      <trkpt lat="44.83843" lon="5.18839">
        <ele>575.2</ele>
        <time>2024-07-01T11:21:40Z</time>
      </trkpt>
      <trkpt lat="44.83843" lon="5.18837">
        <ele>575.1</ele>
        <time>2024-07-01T11:21:41Z</time>
      </trkpt>
      <trkpt lat="44.83843" lon="5.18835">
        <ele>575</ele>
        <time>2024-07-01T11:21:42Z</time>
      </trkpt>
      <trkpt lat="44.83843" lon="5.18833">
        <ele>574.9</ele>
        <time>2024-07-01T11:21:44Z</time>
      </trkpt>
      <trkpt lat="44.83843" lon="5.18832">
        <ele>574.8</ele>
        <time>2024-07-01T11:21:45Z</time>
      </trkpt>
      <trkpt lat="44.83842" lon="5.1883">
        <ele>574.7</ele>
        <time>2024-07-01T11:21:46Z</time>
      </trkpt>
      <trkpt lat="44.83842" lon="5.18828">
        <ele>574.6</ele>
        <time>2024-07-01T11:21:47Z</time>
      </trkpt>
      <trkpt lat="44.83842" lon="5.18825">
        <ele>574.5</ele>
        <time>2024-07-01T11:21:48Z</time>
      </trkpt>
      <trkpt lat="44.83843" lon="5.18821">
        <ele>574.3</ele>
        <time>2024-07-01T11:21:50Z</time>
      </trkpt>
      <trkpt lat="44.83843" lon="5.18819">
        <ele>574.2</ele>
        <time>2024-07-01T11:21:52Z</time>
      </trkpt>
      <trkpt lat="44.83843" lon="5.18818">
        <ele>574.2</ele>
        <time>2024-07-01T11:21:53Z</time>
      </trkpt>
      <trkpt lat="44.83843" lon="5.18816">
        <ele>574.1</ele>
        <time>2024-07-01T11:21:54Z</time>
      </trkpt>
      <trkpt lat="44.83843" lon="5.18813">
        <ele>573.9</ele>
        <time>2024-07-01T11:21:55Z</time>
      </trkpt>
      <trkpt lat="44.83843" lon="5.18811">
        <ele>573.8</ele>
        <time>2024-07-01T11:21:57Z</time>
      </trkpt>
      <trkpt lat="44.83842" lon="5.1881">
        <ele>573.8</ele>
        <time>2024-07-01T11:21:58Z</time>
      </trkpt>
      <trkpt lat="44.83842" lon="5.18808">
        <ele>573.7</ele>
        <time>2024-07-01T11:21:59Z</time>
      </trkpt>
      <trkpt lat="44.83842" lon="5.18806">
        <ele>573.7</ele>
        <time>2024-07-01T11:22:00Z</time>
      </trkpt>
      <trkpt lat="44.83842" lon="5.18803">
        <ele>573.5</ele>
        <time>2024-07-01T11:22:01Z</time>
      </trkpt>
      <trkpt lat="44.83842" lon="5.18802">
        <ele>573.4</ele>
        <time>2024-07-01T11:22:02Z</time>
      </trkpt>
      <trkpt lat="44.83842" lon="5.188">
        <ele>573.4</ele>
        <time>2024-07-01T11:22:04Z</time>
      </trkpt>
      <trkpt lat="44.83842" lon="5.18798">
        <ele>573.3</ele>
        <time>2024-07-01T11:22:05Z</time>
      </trkpt>
      <trkpt lat="44.83842" lon="5.18797">
        <ele>573.2</ele>
        <time>2024-07-01T11:22:06Z</time>
      </trkpt>
      <trkpt lat="44.83843" lon="5.18796">
        <ele>573.2</ele>
        <time>2024-07-01T11:22:07Z</time>
      </trkpt>
      <trkpt lat="44.83845" lon="5.18794">
        <ele>573.1</ele>
        <time>2024-07-01T11:22:08Z</time>
      </trkpt>
      <trkpt lat="44.83845" lon="5.18794">
        <ele>573</ele>
        <time>2024-07-01T11:22:10Z</time>
      </trkpt>
      <trkpt lat="44.83845" lon="5.18794">
        <ele>573</ele>
        <time>2024-07-01T11:22:11Z</time>
      </trkpt>
    </trkseg>
  </trk>
</gpx>